<?xml version="1.0" encoding="UTF-8" standalone="no" ?>
<gpx xmlns="http://www.topografix.com/GPX/1/1" xmlns:xsi="http://www.w3.org/2001/XMLSchema-instance" xsi:schemaLocation="http://www.topografix.com/GPX/1/1 http://www.topografix.com/GPX/1/1/gpx.xsd" version="1.1" creator="VisuGPX - https://www.visugpx.com">
  <metadata>
    <name>Raid VTT Fontenois 2019</name>
    <desc><![CDATA[Tracé RAID VTT FONTENOIS 2019]]></desc>
  </metadata>
  <trk>
    <name><![CDATA[Fontaine-le-Comte]]></name>
    <trkseg>
      <trkpt lat="46.52685" lon="0.26538">
        <ele>110.59999847412</ele>
        <time>2019-05-12T06:07:10.000Z</time>
      </trkpt>
      <trkpt lat="46.52685" lon="0.26538">
        <ele>113.19999694824</ele>
        <time>2019-05-12T06:07:11.000Z</time>
      </trkpt>
      <trkpt lat="46.52682" lon="0.26537">
        <ele>113.80000305176</ele>
        <time>2019-05-12T06:07:41.000Z</time>
      </trkpt>
      <trkpt lat="46.52677" lon="0.26536">
        <ele>113.80000305176</ele>
        <time>2019-05-12T06:07:43.000Z</time>
      </trkpt>
      <trkpt lat="46.5267" lon="0.26538">
        <ele>113.80000305176</ele>
        <time>2019-05-12T06:07:45.000Z</time>
      </trkpt>
      <trkpt lat="46.52664" lon="0.26542">
        <ele>113.80000305176</ele>
        <time>2019-05-12T06:07:47.000Z</time>
      </trkpt>
      <trkpt lat="46.52662" lon="0.26545">
        <ele>113.80000305176</ele>
        <time>2019-05-12T06:07:48.000Z</time>
      </trkpt>
      <trkpt lat="46.52654" lon="0.26568">
        <ele>113.59999847412</ele>
        <time>2019-05-12T06:07:53.000Z</time>
      </trkpt>
      <trkpt lat="46.52652" lon="0.26573">
        <ele>113.59999847412</ele>
        <time>2019-05-12T06:07:54.000Z</time>
      </trkpt>
      <trkpt lat="46.52651" lon="0.2658">
        <ele>113.59999847412</ele>
        <time>2019-05-12T06:07:55.000Z</time>
      </trkpt>
      <trkpt lat="46.52642" lon="0.26597">
        <ele>113.40000152588</ele>
        <time>2019-05-12T06:07:59.000Z</time>
      </trkpt>
      <trkpt lat="46.52637" lon="0.26598">
        <ele>113.59999847412</ele>
        <time>2019-05-12T06:08:01.000Z</time>
      </trkpt>
      <trkpt lat="46.52634" lon="0.26594">
        <ele>113.59999847412</ele>
        <time>2019-05-12T06:08:03.000Z</time>
      </trkpt>
      <trkpt lat="46.52634" lon="0.26588">
        <ele>113.80000305176</ele>
        <time>2019-05-12T06:08:05.000Z</time>
      </trkpt>
      <trkpt lat="46.52634" lon="0.26584">
        <ele>114.19999694824</ele>
        <time>2019-05-12T06:08:06.000Z</time>
      </trkpt>
      <trkpt lat="46.52634" lon="0.26575">
        <ele>115.40000152588</ele>
        <time>2019-05-12T06:08:09.000Z</time>
      </trkpt>
      <trkpt lat="46.52633" lon="0.26568">
        <ele>115.80000305176</ele>
        <time>2019-05-12T06:08:11.000Z</time>
      </trkpt>
      <trkpt lat="46.52634" lon="0.26562">
        <ele>116.40000152588</ele>
        <time>2019-05-12T06:08:13.000Z</time>
      </trkpt>
      <trkpt lat="46.52634" lon="0.26552">
        <ele>117.40000152588</ele>
        <time>2019-05-12T06:08:16.000Z</time>
      </trkpt>
      <trkpt lat="46.52634" lon="0.26548">
        <ele>117.80000305176</ele>
        <time>2019-05-12T06:08:17.000Z</time>
      </trkpt>
      <trkpt lat="46.52635" lon="0.26538">
        <ele>118.19999694824</ele>
        <time>2019-05-12T06:08:20.000Z</time>
      </trkpt>
      <trkpt lat="46.52635" lon="0.26527">
        <ele>118.80000305176</ele>
        <time>2019-05-12T06:08:23.000Z</time>
      </trkpt>
      <trkpt lat="46.52635" lon="0.26524">
        <ele>119</ele>
        <time>2019-05-12T06:08:24.000Z</time>
      </trkpt>
      <trkpt lat="46.52635" lon="0.2651">
        <ele>120</ele>
        <time>2019-05-12T06:08:28.000Z</time>
      </trkpt>
      <trkpt lat="46.52636" lon="0.26492">
        <ele>120.59999847412</ele>
        <time>2019-05-12T06:08:33.000Z</time>
      </trkpt>
      <trkpt lat="46.52638" lon="0.26462">
        <ele>121</ele>
        <time>2019-05-12T06:08:42.000Z</time>
      </trkpt>
      <trkpt lat="46.52638" lon="0.2643">
        <ele>121</ele>
        <time>2019-05-12T06:08:51.000Z</time>
      </trkpt>
      <trkpt lat="46.52633" lon="0.26405">
        <ele>121.40000152588</ele>
        <time>2019-05-12T06:08:58.000Z</time>
      </trkpt>
      <trkpt lat="46.52617" lon="0.2638">
        <ele>121.80000305176</ele>
        <time>2019-05-12T06:09:07.000Z</time>
      </trkpt>
      <trkpt lat="46.52606" lon="0.26369">
        <ele>122</ele>
        <time>2019-05-12T06:09:12.000Z</time>
      </trkpt>
      <trkpt lat="46.52595" lon="0.26356">
        <ele>122.80000305176</ele>
        <time>2019-05-12T06:09:18.000Z</time>
      </trkpt>
      <trkpt lat="46.52588" lon="0.26347">
        <ele>123.19999694824</ele>
        <time>2019-05-12T06:09:22.000Z</time>
      </trkpt>
      <trkpt lat="46.52576" lon="0.26334">
        <ele>123.40000152588</ele>
        <time>2019-05-12T06:09:28.000Z</time>
      </trkpt>
      <trkpt lat="46.52557" lon="0.26312">
        <ele>124</ele>
        <time>2019-05-12T06:09:38.000Z</time>
      </trkpt>
      <trkpt lat="46.52554" lon="0.26307">
        <ele>124.19999694824</ele>
        <time>2019-05-12T06:09:40.000Z</time>
      </trkpt>
      <trkpt lat="46.52543" lon="0.26293">
        <ele>124.40000152588</ele>
        <time>2019-05-12T06:09:46.000Z</time>
      </trkpt>
      <trkpt lat="46.52527" lon="0.26273">
        <ele>124.80000305176</ele>
        <time>2019-05-12T06:09:54.000Z</time>
      </trkpt>
      <trkpt lat="46.52519" lon="0.2626">
        <ele>125.19999694824</ele>
        <time>2019-05-12T06:09:59.000Z</time>
      </trkpt>
      <trkpt lat="46.5252" lon="0.26257">
        <ele>125.40000152588</ele>
        <time>2019-05-12T06:10:00.000Z</time>
      </trkpt>
      <trkpt lat="46.52526" lon="0.2624">
        <ele>126</ele>
        <time>2019-05-12T06:10:06.000Z</time>
      </trkpt>
      <trkpt lat="46.52527" lon="0.26219">
        <ele>126.19999694824</ele>
        <time>2019-05-12T06:10:12.000Z</time>
      </trkpt>
      <trkpt lat="46.52523" lon="0.26209">
        <ele>126.40000152588</ele>
        <time>2019-05-12T06:10:15.000Z</time>
      </trkpt>
      <trkpt lat="46.52517" lon="0.26201">
        <ele>126.40000152588</ele>
        <time>2019-05-12T06:10:18.000Z</time>
      </trkpt>
      <trkpt lat="46.52496" lon="0.26171">
        <ele>127.19999694824</ele>
        <time>2019-05-12T06:10:28.000Z</time>
      </trkpt>
      <trkpt lat="46.52489" lon="0.26161">
        <ele>127.40000152588</ele>
        <time>2019-05-12T06:10:31.000Z</time>
      </trkpt>
      <trkpt lat="46.52483" lon="0.26147">
        <ele>128</ele>
        <time>2019-05-12T06:10:35.000Z</time>
      </trkpt>
      <trkpt lat="46.5247" lon="0.26127">
        <ele>128.19999694824</ele>
        <time>2019-05-12T06:10:41.000Z</time>
      </trkpt>
      <trkpt lat="46.52458" lon="0.26109">
        <ele>128.39999389648</ele>
        <time>2019-05-12T06:10:47.000Z</time>
      </trkpt>
      <trkpt lat="46.52454" lon="0.26104">
        <ele>128.60000610352</ele>
        <time>2019-05-12T06:10:49.000Z</time>
      </trkpt>
      <trkpt lat="46.52445" lon="0.26093">
        <ele>128.80000305176</ele>
        <time>2019-05-12T06:10:53.000Z</time>
      </trkpt>
      <trkpt lat="46.52444" lon="0.2609">
        <ele>129</ele>
        <time>2019-05-12T06:10:54.000Z</time>
      </trkpt>
      <trkpt lat="46.52445" lon="0.26084">
        <ele>129.19999694824</ele>
        <time>2019-05-12T06:10:56.000Z</time>
      </trkpt>
      <trkpt lat="46.52452" lon="0.26071">
        <ele>129.60000610352</ele>
        <time>2019-05-12T06:11:00.000Z</time>
      </trkpt>
      <trkpt lat="46.52454" lon="0.26068">
        <ele>129.60000610352</ele>
        <time>2019-05-12T06:11:01.000Z</time>
      </trkpt>
      <trkpt lat="46.52459" lon="0.26063">
        <ele>129.80000305176</ele>
        <time>2019-05-12T06:11:03.000Z</time>
      </trkpt>
      <trkpt lat="46.52474" lon="0.2604">
        <ele>130.39999389648</ele>
        <time>2019-05-12T06:11:10.000Z</time>
      </trkpt>
      <trkpt lat="46.52481" lon="0.2603">
        <ele>130.60000610352</ele>
        <time>2019-05-12T06:11:13.000Z</time>
      </trkpt>
      <trkpt lat="46.52492" lon="0.26021">
        <ele>130.80000305176</ele>
        <time>2019-05-12T06:11:17.000Z</time>
      </trkpt>
      <trkpt lat="46.52501" lon="0.26017">
        <ele>131</ele>
        <time>2019-05-12T06:11:20.000Z</time>
      </trkpt>
      <trkpt lat="46.52503" lon="0.26014">
        <ele>131.19999694824</ele>
        <time>2019-05-12T06:11:21.000Z</time>
      </trkpt>
      <trkpt lat="46.52508" lon="0.26002">
        <ele>131.19999694824</ele>
        <time>2019-05-12T06:11:24.000Z</time>
      </trkpt>
      <trkpt lat="46.52517" lon="0.2598">
        <ele>131.80000305176</ele>
        <time>2019-05-12T06:11:29.000Z</time>
      </trkpt>
      <trkpt lat="46.52518" lon="0.25975">
        <ele>131.80000305176</ele>
        <time>2019-05-12T06:11:30.000Z</time>
      </trkpt>
      <trkpt lat="46.52521" lon="0.25955">
        <ele>132</ele>
        <time>2019-05-12T06:11:34.000Z</time>
      </trkpt>
      <trkpt lat="46.52521" lon="0.25938">
        <ele>132.19999694824</ele>
        <time>2019-05-12T06:11:37.000Z</time>
      </trkpt>
      <trkpt lat="46.52525" lon="0.25899">
        <ele>132.60000610352</ele>
        <time>2019-05-12T06:11:44.000Z</time>
      </trkpt>
      <trkpt lat="46.52528" lon="0.25883">
        <ele>132.80000305176</ele>
        <time>2019-05-12T06:11:47.000Z</time>
      </trkpt>
      <trkpt lat="46.52533" lon="0.25848">
        <ele>132.80000305176</ele>
        <time>2019-05-12T06:11:53.000Z</time>
      </trkpt>
      <trkpt lat="46.52538" lon="0.25803">
        <ele>132.19999694824</ele>
        <time>2019-05-12T06:12:00.000Z</time>
      </trkpt>
      <trkpt lat="46.52542" lon="0.25775">
        <ele>131.80000305176</ele>
        <time>2019-05-12T06:12:04.000Z</time>
      </trkpt>
      <trkpt lat="46.52548" lon="0.25743">
        <ele>131.19999694824</ele>
        <time>2019-05-12T06:12:08.000Z</time>
      </trkpt>
      <trkpt lat="46.52553" lon="0.25727">
        <ele>130.80000305176</ele>
        <time>2019-05-12T06:12:10.000Z</time>
      </trkpt>
      <trkpt lat="46.5256" lon="0.25711">
        <ele>130.19999694824</ele>
        <time>2019-05-12T06:12:12.000Z</time>
      </trkpt>
      <trkpt lat="46.52566" lon="0.25694">
        <ele>129.80000305176</ele>
        <time>2019-05-12T06:12:14.000Z</time>
      </trkpt>
      <trkpt lat="46.52569" lon="0.25684">
        <ele>129.39999389648</ele>
        <time>2019-05-12T06:12:15.000Z</time>
      </trkpt>
      <trkpt lat="46.52578" lon="0.25656">
        <ele>128</ele>
        <time>2019-05-12T06:12:18.000Z</time>
      </trkpt>
      <trkpt lat="46.52583" lon="0.25636">
        <ele>127.19999694824</ele>
        <time>2019-05-12T06:12:20.000Z</time>
      </trkpt>
      <trkpt lat="46.52585" lon="0.25626">
        <ele>126.80000305176</ele>
        <time>2019-05-12T06:12:21.000Z</time>
      </trkpt>
      <trkpt lat="46.5259" lon="0.25607">
        <ele>126.40000152588</ele>
        <time>2019-05-12T06:12:23.000Z</time>
      </trkpt>
      <trkpt lat="46.52593" lon="0.25588">
        <ele>126.19999694824</ele>
        <time>2019-05-12T06:12:25.000Z</time>
      </trkpt>
      <trkpt lat="46.52595" lon="0.2556">
        <ele>126.19999694824</ele>
        <time>2019-05-12T06:12:28.000Z</time>
      </trkpt>
      <trkpt lat="46.52594" lon="0.25542">
        <ele>126.19999694824</ele>
        <time>2019-05-12T06:12:30.000Z</time>
      </trkpt>
      <trkpt lat="46.52593" lon="0.25511">
        <ele>127.19999694824</ele>
        <time>2019-05-12T06:12:34.000Z</time>
      </trkpt>
      <trkpt lat="46.52594" lon="0.25505">
        <ele>127.40000152588</ele>
        <time>2019-05-12T06:12:35.000Z</time>
      </trkpt>
      <trkpt lat="46.52594" lon="0.25493">
        <ele>128</ele>
        <time>2019-05-12T06:12:37.000Z</time>
      </trkpt>
      <trkpt lat="46.52594" lon="0.25488">
        <ele>128.19999694824</ele>
        <time>2019-05-12T06:12:38.000Z</time>
      </trkpt>
      <trkpt lat="46.52595" lon="0.25483">
        <ele>128.39999389648</ele>
        <time>2019-05-12T06:12:39.000Z</time>
      </trkpt>
      <trkpt lat="46.52598" lon="0.2547">
        <ele>129.60000610352</ele>
        <time>2019-05-12T06:12:42.000Z</time>
      </trkpt>
      <trkpt lat="46.52603" lon="0.25458">
        <ele>130.60000610352</ele>
        <time>2019-05-12T06:12:45.000Z</time>
      </trkpt>
      <trkpt lat="46.52605" lon="0.2545">
        <ele>131.39999389648</ele>
        <time>2019-05-12T06:12:47.000Z</time>
      </trkpt>
      <trkpt lat="46.52606" lon="0.25446">
        <ele>131.80000305176</ele>
        <time>2019-05-12T06:12:48.000Z</time>
      </trkpt>
      <trkpt lat="46.52612" lon="0.25434">
        <ele>132.39999389648</ele>
        <time>2019-05-12T06:12:51.000Z</time>
      </trkpt>
      <trkpt lat="46.52614" lon="0.25431">
        <ele>132.80000305176</ele>
        <time>2019-05-12T06:12:52.000Z</time>
      </trkpt>
      <trkpt lat="46.52623" lon="0.25415">
        <ele>133.80000305176</ele>
        <time>2019-05-12T06:12:56.000Z</time>
      </trkpt>
      <trkpt lat="46.52625" lon="0.25411">
        <ele>134.19999694824</ele>
        <time>2019-05-12T06:12:57.000Z</time>
      </trkpt>
      <trkpt lat="46.52632" lon="0.254">
        <ele>135</ele>
        <time>2019-05-12T06:13:00.000Z</time>
      </trkpt>
      <trkpt lat="46.52639" lon="0.25383">
        <ele>136.19999694824</ele>
        <time>2019-05-12T06:13:04.000Z</time>
      </trkpt>
      <trkpt lat="46.52641" lon="0.25379">
        <ele>136.39999389648</ele>
        <time>2019-05-12T06:13:05.000Z</time>
      </trkpt>
      <trkpt lat="46.5265" lon="0.25352">
        <ele>137.19999694824</ele>
        <time>2019-05-12T06:13:11.000Z</time>
      </trkpt>
      <trkpt lat="46.52652" lon="0.25347">
        <ele>137.39999389648</ele>
        <time>2019-05-12T06:13:12.000Z</time>
      </trkpt>
      <trkpt lat="46.52662" lon="0.25311">
        <ele>138</ele>
        <time>2019-05-12T06:13:19.000Z</time>
      </trkpt>
      <trkpt lat="46.52671" lon="0.25284">
        <ele>138.39999389648</ele>
        <time>2019-05-12T06:13:24.000Z</time>
      </trkpt>
      <trkpt lat="46.52672" lon="0.25279">
        <ele>138.39999389648</ele>
        <time>2019-05-12T06:13:25.000Z</time>
      </trkpt>
      <trkpt lat="46.5268" lon="0.25242">
        <ele>139</ele>
        <time>2019-05-12T06:13:32.000Z</time>
      </trkpt>
      <trkpt lat="46.52683" lon="0.25224">
        <ele>139.39999389648</ele>
        <time>2019-05-12T06:13:36.000Z</time>
      </trkpt>
      <trkpt lat="46.52685" lon="0.25212">
        <ele>139.39999389648</ele>
        <time>2019-05-12T06:13:38.000Z</time>
      </trkpt>
      <trkpt lat="46.5269" lon="0.25161">
        <ele>139.60000610352</ele>
        <time>2019-05-12T06:13:46.000Z</time>
      </trkpt>
      <trkpt lat="46.527" lon="0.25096">
        <ele>140</ele>
        <time>2019-05-12T06:13:56.000Z</time>
      </trkpt>
      <trkpt lat="46.5271" lon="0.25044">
        <ele>139.80000305176</ele>
        <time>2019-05-12T06:14:04.000Z</time>
      </trkpt>
      <trkpt lat="46.52714" lon="0.25022">
        <ele>139.60000610352</ele>
        <time>2019-05-12T06:14:07.000Z</time>
      </trkpt>
      <trkpt lat="46.52722" lon="0.24986">
        <ele>139</ele>
        <time>2019-05-12T06:14:12.000Z</time>
      </trkpt>
      <trkpt lat="46.52729" lon="0.24975">
        <ele>139</ele>
        <time>2019-05-12T06:14:14.000Z</time>
      </trkpt>
      <trkpt lat="46.5274" lon="0.24963">
        <ele>138.80000305176</ele>
        <time>2019-05-12T06:14:17.000Z</time>
      </trkpt>
      <trkpt lat="46.52748" lon="0.24957">
        <ele>138.80000305176</ele>
        <time>2019-05-12T06:14:19.000Z</time>
      </trkpt>
      <trkpt lat="46.52752" lon="0.24954">
        <ele>138.80000305176</ele>
        <time>2019-05-12T06:14:20.000Z</time>
      </trkpt>
      <trkpt lat="46.5277" lon="0.24946">
        <ele>139.19999694824</ele>
        <time>2019-05-12T06:14:24.000Z</time>
      </trkpt>
      <trkpt lat="46.52778" lon="0.2494">
        <ele>139.60000610352</ele>
        <time>2019-05-12T06:14:26.000Z</time>
      </trkpt>
      <trkpt lat="46.52811" lon="0.24912">
        <ele>140</ele>
        <time>2019-05-12T06:14:34.000Z</time>
      </trkpt>
      <trkpt lat="46.52828" lon="0.24897">
        <ele>140</ele>
        <time>2019-05-12T06:14:38.000Z</time>
      </trkpt>
      <trkpt lat="46.52841" lon="0.24888">
        <ele>140.19999694824</ele>
        <time>2019-05-12T06:14:41.000Z</time>
      </trkpt>
      <trkpt lat="46.5285" lon="0.24882">
        <ele>140.39999389648</ele>
        <time>2019-05-12T06:14:43.000Z</time>
      </trkpt>
      <trkpt lat="46.52858" lon="0.24876">
        <ele>140.39999389648</ele>
        <time>2019-05-12T06:14:45.000Z</time>
      </trkpt>
      <trkpt lat="46.52866" lon="0.2487">
        <ele>140.39999389648</ele>
        <time>2019-05-12T06:14:47.000Z</time>
      </trkpt>
      <trkpt lat="46.52884" lon="0.2486">
        <ele>140.39999389648</ele>
        <time>2019-05-12T06:14:51.000Z</time>
      </trkpt>
      <trkpt lat="46.52901" lon="0.24849">
        <ele>141</ele>
        <time>2019-05-12T06:14:55.000Z</time>
      </trkpt>
      <trkpt lat="46.52932" lon="0.24831">
        <ele>141.19999694824</ele>
        <time>2019-05-12T06:15:02.000Z</time>
      </trkpt>
      <trkpt lat="46.52935" lon="0.24829">
        <ele>141.19999694824</ele>
        <time>2019-05-12T06:15:03.000Z</time>
      </trkpt>
      <trkpt lat="46.5295" lon="0.2482">
        <ele>141.60000610352</ele>
        <time>2019-05-12T06:15:07.000Z</time>
      </trkpt>
      <trkpt lat="46.52954" lon="0.24818">
        <ele>141.80000305176</ele>
        <time>2019-05-12T06:15:08.000Z</time>
      </trkpt>
      <trkpt lat="46.5297" lon="0.24805">
        <ele>142.39999389648</ele>
        <time>2019-05-12T06:15:12.000Z</time>
      </trkpt>
      <trkpt lat="46.52973" lon="0.24801">
        <ele>142.39999389648</ele>
        <time>2019-05-12T06:15:13.000Z</time>
      </trkpt>
      <trkpt lat="46.52979" lon="0.24791">
        <ele>142.60000610352</ele>
        <time>2019-05-12T06:15:15.000Z</time>
      </trkpt>
      <trkpt lat="46.52985" lon="0.2478">
        <ele>142.80000305176</ele>
        <time>2019-05-12T06:15:17.000Z</time>
      </trkpt>
      <trkpt lat="46.52987" lon="0.24774">
        <ele>142.80000305176</ele>
        <time>2019-05-12T06:15:18.000Z</time>
      </trkpt>
      <trkpt lat="46.52999" lon="0.24753">
        <ele>143.39999389648</ele>
        <time>2019-05-12T06:15:22.000Z</time>
      </trkpt>
      <trkpt lat="46.53003" lon="0.2475">
        <ele>143.19999694824</ele>
        <time>2019-05-12T06:15:23.000Z</time>
      </trkpt>
      <trkpt lat="46.53008" lon="0.24754">
        <ele>142.80000305176</ele>
        <time>2019-05-12T06:15:25.000Z</time>
      </trkpt>
      <trkpt lat="46.53018" lon="0.24766">
        <ele>142.39999389648</ele>
        <time>2019-05-12T06:15:28.000Z</time>
      </trkpt>
      <trkpt lat="46.53022" lon="0.24769">
        <ele>142.60000610352</ele>
        <time>2019-05-12T06:15:29.000Z</time>
      </trkpt>
      <trkpt lat="46.53025" lon="0.24771">
        <ele>142.60000610352</ele>
        <time>2019-05-12T06:15:30.000Z</time>
      </trkpt>
      <trkpt lat="46.53051" lon="0.24778">
        <ele>143.60000610352</ele>
        <time>2019-05-12T06:15:36.000Z</time>
      </trkpt>
      <trkpt lat="46.53055" lon="0.2478">
        <ele>143.80000305176</ele>
        <time>2019-05-12T06:15:37.000Z</time>
      </trkpt>
      <trkpt lat="46.53073" lon="0.24785">
        <ele>144.80000305176</ele>
        <time>2019-05-12T06:15:41.000Z</time>
      </trkpt>
      <trkpt lat="46.5309" lon="0.24791">
        <ele>144.39999389648</ele>
        <time>2019-05-12T06:15:45.000Z</time>
      </trkpt>
      <trkpt lat="46.53127" lon="0.24805">
        <ele>144.39999389648</ele>
        <time>2019-05-12T06:15:53.000Z</time>
      </trkpt>
      <trkpt lat="46.53145" lon="0.24811">
        <ele>144.19999694824</ele>
        <time>2019-05-12T06:15:57.000Z</time>
      </trkpt>
      <trkpt lat="46.5315" lon="0.24812">
        <ele>143.80000305176</ele>
        <time>2019-05-12T06:15:58.000Z</time>
      </trkpt>
      <trkpt lat="46.53155" lon="0.24813">
        <ele>143.39999389648</ele>
        <time>2019-05-12T06:15:59.000Z</time>
      </trkpt>
      <trkpt lat="46.5318" lon="0.24819">
        <ele>143</ele>
        <time>2019-05-12T06:16:04.000Z</time>
      </trkpt>
      <trkpt lat="46.53199" lon="0.24823">
        <ele>142.80000305176</ele>
        <time>2019-05-12T06:16:08.000Z</time>
      </trkpt>
      <trkpt lat="46.53219" lon="0.24829">
        <ele>142.80000305176</ele>
        <time>2019-05-12T06:16:12.000Z</time>
      </trkpt>
      <trkpt lat="46.53251" lon="0.24847">
        <ele>142.39999389648</ele>
        <time>2019-05-12T06:16:19.000Z</time>
      </trkpt>
      <trkpt lat="46.53272" lon="0.24867">
        <ele>142.19999694824</ele>
        <time>2019-05-12T06:16:24.000Z</time>
      </trkpt>
      <trkpt lat="46.53276" lon="0.2487">
        <ele>142.19999694824</ele>
        <time>2019-05-12T06:16:25.000Z</time>
      </trkpt>
      <trkpt lat="46.5328" lon="0.24873">
        <ele>142.19999694824</ele>
        <time>2019-05-12T06:16:26.000Z</time>
      </trkpt>
      <trkpt lat="46.53289" lon="0.24874">
        <ele>141.80000305176</ele>
        <time>2019-05-12T06:16:28.000Z</time>
      </trkpt>
      <trkpt lat="46.53294" lon="0.24875">
        <ele>141.39999389648</ele>
        <time>2019-05-12T06:16:29.000Z</time>
      </trkpt>
      <trkpt lat="46.53314" lon="0.24882">
        <ele>141</ele>
        <time>2019-05-12T06:16:33.000Z</time>
      </trkpt>
      <trkpt lat="46.53327" lon="0.24889">
        <ele>141</ele>
        <time>2019-05-12T06:16:36.000Z</time>
      </trkpt>
      <trkpt lat="46.53331" lon="0.24889">
        <ele>141</ele>
        <time>2019-05-12T06:16:37.000Z</time>
      </trkpt>
      <trkpt lat="46.53334" lon="0.24888">
        <ele>141</ele>
        <time>2019-05-12T06:16:38.000Z</time>
      </trkpt>
      <trkpt lat="46.53342" lon="0.24885">
        <ele>141</ele>
        <time>2019-05-12T06:16:40.000Z</time>
      </trkpt>
      <trkpt lat="46.53349" lon="0.2489">
        <ele>141</ele>
        <time>2019-05-12T06:16:42.000Z</time>
      </trkpt>
      <trkpt lat="46.53357" lon="0.24896">
        <ele>141</ele>
        <time>2019-05-12T06:16:44.000Z</time>
      </trkpt>
      <trkpt lat="46.53375" lon="0.2491">
        <ele>141</ele>
        <time>2019-05-12T06:16:49.000Z</time>
      </trkpt>
      <trkpt lat="46.5339" lon="0.2492">
        <ele>141.39999389648</ele>
        <time>2019-05-12T06:16:53.000Z</time>
      </trkpt>
      <trkpt lat="46.53397" lon="0.24927">
        <ele>141.19999694824</ele>
        <time>2019-05-12T06:16:55.000Z</time>
      </trkpt>
      <trkpt lat="46.53404" lon="0.24935">
        <ele>140.80000305176</ele>
        <time>2019-05-12T06:16:57.000Z</time>
      </trkpt>
      <trkpt lat="46.53411" lon="0.24941">
        <ele>140.60000610352</ele>
        <time>2019-05-12T06:16:59.000Z</time>
      </trkpt>
      <trkpt lat="46.53415" lon="0.24945">
        <ele>140.60000610352</ele>
        <time>2019-05-12T06:17:00.000Z</time>
      </trkpt>
      <trkpt lat="46.53443" lon="0.24968">
        <ele>139.60000610352</ele>
        <time>2019-05-12T06:17:07.000Z</time>
      </trkpt>
      <trkpt lat="46.53472" lon="0.24994">
        <ele>139.19999694824</ele>
        <time>2019-05-12T06:17:14.000Z</time>
      </trkpt>
      <trkpt lat="46.53498" lon="0.25015">
        <ele>138.60000610352</ele>
        <time>2019-05-12T06:17:20.000Z</time>
      </trkpt>
      <trkpt lat="46.53523" lon="0.2504">
        <ele>138.39999389648</ele>
        <time>2019-05-12T06:17:26.000Z</time>
      </trkpt>
      <trkpt lat="46.53531" lon="0.2505">
        <ele>138</ele>
        <time>2019-05-12T06:17:28.000Z</time>
      </trkpt>
      <trkpt lat="46.53557" lon="0.25094">
        <ele>137.60000610352</ele>
        <time>2019-05-12T06:17:36.000Z</time>
      </trkpt>
      <trkpt lat="46.53585" lon="0.25123">
        <ele>137.60000610352</ele>
        <time>2019-05-12T06:17:43.000Z</time>
      </trkpt>
      <trkpt lat="46.53592" lon="0.2513">
        <ele>137.39999389648</ele>
        <time>2019-05-12T06:17:45.000Z</time>
      </trkpt>
      <trkpt lat="46.53596" lon="0.25131">
        <ele>137.39999389648</ele>
        <time>2019-05-12T06:17:46.000Z</time>
      </trkpt>
      <trkpt lat="46.53599" lon="0.25129">
        <ele>137.19999694824</ele>
        <time>2019-05-12T06:17:47.000Z</time>
      </trkpt>
      <trkpt lat="46.53611" lon="0.25112">
        <ele>137.19999694824</ele>
        <time>2019-05-12T06:17:52.000Z</time>
      </trkpt>
      <trkpt lat="46.53624" lon="0.25096">
        <ele>137.60000610352</ele>
        <time>2019-05-12T06:17:57.000Z</time>
      </trkpt>
      <trkpt lat="46.5364" lon="0.25077">
        <ele>138.19999694824</ele>
        <time>2019-05-12T06:18:03.000Z</time>
      </trkpt>
      <trkpt lat="46.53648" lon="0.25062">
        <ele>138.60000610352</ele>
        <time>2019-05-12T06:18:07.000Z</time>
      </trkpt>
      <trkpt lat="46.5365" lon="0.25059">
        <ele>138.60000610352</ele>
        <time>2019-05-12T06:18:08.000Z</time>
      </trkpt>
      <trkpt lat="46.53667" lon="0.25037">
        <ele>139</ele>
        <time>2019-05-12T06:18:15.000Z</time>
      </trkpt>
      <trkpt lat="46.53687" lon="0.25012">
        <ele>139.60000610352</ele>
        <time>2019-05-12T06:18:22.000Z</time>
      </trkpt>
      <trkpt lat="46.53709" lon="0.2498">
        <ele>139.60000610352</ele>
        <time>2019-05-12T06:18:30.000Z</time>
      </trkpt>
      <trkpt lat="46.53712" lon="0.24976">
        <ele>139.60000610352</ele>
        <time>2019-05-12T06:18:31.000Z</time>
      </trkpt>
      <trkpt lat="46.53715" lon="0.24971">
        <ele>139.60000610352</ele>
        <time>2019-05-12T06:18:32.000Z</time>
      </trkpt>
      <trkpt lat="46.53732" lon="0.24941">
        <ele>139.39999389648</ele>
        <time>2019-05-12T06:18:38.000Z</time>
      </trkpt>
      <trkpt lat="46.53734" lon="0.24935">
        <ele>139.39999389648</ele>
        <time>2019-05-12T06:18:39.000Z</time>
      </trkpt>
      <trkpt lat="46.53742" lon="0.24909">
        <ele>139.19999694824</ele>
        <time>2019-05-12T06:18:43.000Z</time>
      </trkpt>
      <trkpt lat="46.53745" lon="0.24905">
        <ele>139.19999694824</ele>
        <time>2019-05-12T06:18:44.000Z</time>
      </trkpt>
      <trkpt lat="46.5376" lon="0.24906">
        <ele>139.19999694824</ele>
        <time>2019-05-12T06:18:47.000Z</time>
      </trkpt>
      <trkpt lat="46.53774" lon="0.24914">
        <ele>138.60000610352</ele>
        <time>2019-05-12T06:18:50.000Z</time>
      </trkpt>
      <trkpt lat="46.53778" lon="0.24917">
        <ele>138.39999389648</ele>
        <time>2019-05-12T06:18:51.000Z</time>
      </trkpt>
      <trkpt lat="46.53783" lon="0.2492">
        <ele>138.39999389648</ele>
        <time>2019-05-12T06:18:52.000Z</time>
      </trkpt>
      <trkpt lat="46.53819" lon="0.24947">
        <ele>137.39999389648</ele>
        <time>2019-05-12T06:19:00.000Z</time>
      </trkpt>
      <trkpt lat="46.53823" lon="0.24951">
        <ele>137</ele>
        <time>2019-05-12T06:19:01.000Z</time>
      </trkpt>
      <trkpt lat="46.53837" lon="0.24963">
        <ele>136.60000610352</ele>
        <time>2019-05-12T06:19:04.000Z</time>
      </trkpt>
      <trkpt lat="46.53851" lon="0.24976">
        <ele>135.60000610352</ele>
        <time>2019-05-12T06:19:07.000Z</time>
      </trkpt>
      <trkpt lat="46.53868" lon="0.24994">
        <ele>135.19999694824</ele>
        <time>2019-05-12T06:19:11.000Z</time>
      </trkpt>
      <trkpt lat="46.53871" lon="0.25">
        <ele>135</ele>
        <time>2019-05-12T06:19:12.000Z</time>
      </trkpt>
      <trkpt lat="46.53879" lon="0.25013">
        <ele>134.19999694824</ele>
        <time>2019-05-12T06:19:15.000Z</time>
      </trkpt>
      <trkpt lat="46.53881" lon="0.25016">
        <ele>134</ele>
        <time>2019-05-12T06:19:16.000Z</time>
      </trkpt>
      <trkpt lat="46.53887" lon="0.25017">
        <ele>133</ele>
        <time>2019-05-12T06:19:19.000Z</time>
      </trkpt>
      <trkpt lat="46.53888" lon="0.25014">
        <ele>132.80000305176</ele>
        <time>2019-05-12T06:19:20.000Z</time>
      </trkpt>
      <trkpt lat="46.53888" lon="0.25007">
        <ele>132</ele>
        <time>2019-05-12T06:19:22.000Z</time>
      </trkpt>
      <trkpt lat="46.53888" lon="0.25004">
        <ele>131.39999389648</ele>
        <time>2019-05-12T06:19:23.000Z</time>
      </trkpt>
      <trkpt lat="46.53892" lon="0.24994">
        <ele>130.80000305176</ele>
        <time>2019-05-12T06:19:27.000Z</time>
      </trkpt>
      <trkpt lat="46.53894" lon="0.24994">
        <ele>130.80000305176</ele>
        <time>2019-05-12T06:19:28.000Z</time>
      </trkpt>
      <trkpt lat="46.53898" lon="0.24993">
        <ele>130.80000305176</ele>
        <time>2019-05-12T06:19:31.000Z</time>
      </trkpt>
      <trkpt lat="46.53899" lon="0.2499">
        <ele>130.60000610352</ele>
        <time>2019-05-12T06:19:32.000Z</time>
      </trkpt>
      <trkpt lat="46.53902" lon="0.24981">
        <ele>130.80000305176</ele>
        <time>2019-05-12T06:19:34.000Z</time>
      </trkpt>
      <trkpt lat="46.53901" lon="0.24969">
        <ele>130.80000305176</ele>
        <time>2019-05-12T06:19:36.000Z</time>
      </trkpt>
      <trkpt lat="46.53899" lon="0.24964">
        <ele>130.80000305176</ele>
        <time>2019-05-12T06:19:37.000Z</time>
      </trkpt>
      <trkpt lat="46.53898" lon="0.24959">
        <ele>131.19999694824</ele>
        <time>2019-05-12T06:19:38.000Z</time>
      </trkpt>
      <trkpt lat="46.53899" lon="0.24948">
        <ele>131.39999389648</ele>
        <time>2019-05-12T06:19:40.000Z</time>
      </trkpt>
      <trkpt lat="46.53902" lon="0.24924">
        <ele>131.60000610352</ele>
        <time>2019-05-12T06:19:46.000Z</time>
      </trkpt>
      <trkpt lat="46.53903" lon="0.24916">
        <ele>131.80000305176</ele>
        <time>2019-05-12T06:19:48.000Z</time>
      </trkpt>
      <trkpt lat="46.53903" lon="0.2491">
        <ele>131.60000610352</ele>
        <time>2019-05-12T06:19:50.000Z</time>
      </trkpt>
      <trkpt lat="46.53904" lon="0.24906">
        <ele>131.60000610352</ele>
        <time>2019-05-12T06:19:53.000Z</time>
      </trkpt>
      <trkpt lat="46.53903" lon="0.24899">
        <ele>131.80000305176</ele>
        <time>2019-05-12T06:19:56.000Z</time>
      </trkpt>
      <trkpt lat="46.53904" lon="0.24887">
        <ele>132</ele>
        <time>2019-05-12T06:19:59.000Z</time>
      </trkpt>
      <trkpt lat="46.53904" lon="0.24877">
        <ele>132.19999694824</ele>
        <time>2019-05-12T06:20:01.000Z</time>
      </trkpt>
      <trkpt lat="46.53902" lon="0.24844">
        <ele>132.19999694824</ele>
        <time>2019-05-12T06:20:08.000Z</time>
      </trkpt>
      <trkpt lat="46.53904" lon="0.24832">
        <ele>132.60000610352</ele>
        <time>2019-05-12T06:20:12.000Z</time>
      </trkpt>
      <trkpt lat="46.53904" lon="0.24822">
        <ele>132.60000610352</ele>
        <time>2019-05-12T06:20:15.000Z</time>
      </trkpt>
      <trkpt lat="46.53902" lon="0.24816">
        <ele>133</ele>
        <time>2019-05-12T06:20:17.000Z</time>
      </trkpt>
      <trkpt lat="46.53903" lon="0.24806">
        <ele>133.19999694824</ele>
        <time>2019-05-12T06:20:20.000Z</time>
      </trkpt>
      <trkpt lat="46.53902" lon="0.24803">
        <ele>133</ele>
        <time>2019-05-12T06:20:21.000Z</time>
      </trkpt>
      <trkpt lat="46.53911" lon="0.24777">
        <ele>133</ele>
        <time>2019-05-12T06:20:25.000Z</time>
      </trkpt>
      <trkpt lat="46.53923" lon="0.2477">
        <ele>133.60000610352</ele>
        <time>2019-05-12T06:20:28.000Z</time>
      </trkpt>
      <trkpt lat="46.53927" lon="0.24768">
        <ele>133.80000305176</ele>
        <time>2019-05-12T06:20:29.000Z</time>
      </trkpt>
      <trkpt lat="46.53941" lon="0.24757">
        <ele>134.19999694824</ele>
        <time>2019-05-12T06:20:35.000Z</time>
      </trkpt>
      <trkpt lat="46.53959" lon="0.24739">
        <ele>134.80000305176</ele>
        <time>2019-05-12T06:20:44.000Z</time>
      </trkpt>
      <trkpt lat="46.53964" lon="0.24734">
        <ele>135</ele>
        <time>2019-05-12T06:20:46.000Z</time>
      </trkpt>
      <trkpt lat="46.53975" lon="0.24722">
        <ele>135</ele>
        <time>2019-05-12T06:20:51.000Z</time>
      </trkpt>
      <trkpt lat="46.53987" lon="0.24708">
        <ele>135</ele>
        <time>2019-05-12T06:20:56.000Z</time>
      </trkpt>
      <trkpt lat="46.53997" lon="0.24692">
        <ele>135.39999389648</ele>
        <time>2019-05-12T06:21:01.000Z</time>
      </trkpt>
      <trkpt lat="46.53998" lon="0.24688">
        <ele>135.39999389648</ele>
        <time>2019-05-12T06:21:02.000Z</time>
      </trkpt>
      <trkpt lat="46.53993" lon="0.24676">
        <ele>135.39999389648</ele>
        <time>2019-05-12T06:21:05.000Z</time>
      </trkpt>
      <trkpt lat="46.53988" lon="0.2467">
        <ele>135.39999389648</ele>
        <time>2019-05-12T06:21:07.000Z</time>
      </trkpt>
      <trkpt lat="46.53978" lon="0.24657">
        <ele>135.39999389648</ele>
        <time>2019-05-12T06:21:11.000Z</time>
      </trkpt>
      <trkpt lat="46.5397" lon="0.24646">
        <ele>135.60000610352</ele>
        <time>2019-05-12T06:21:14.000Z</time>
      </trkpt>
      <trkpt lat="46.53958" lon="0.24626">
        <ele>135.60000610352</ele>
        <time>2019-05-12T06:21:19.000Z</time>
      </trkpt>
      <trkpt lat="46.53948" lon="0.24609">
        <ele>135.80000305176</ele>
        <time>2019-05-12T06:21:23.000Z</time>
      </trkpt>
      <trkpt lat="46.53942" lon="0.246">
        <ele>135.80000305176</ele>
        <time>2019-05-12T06:21:25.000Z</time>
      </trkpt>
      <trkpt lat="46.53921" lon="0.24572">
        <ele>135.80000305176</ele>
        <time>2019-05-12T06:21:32.000Z</time>
      </trkpt>
      <trkpt lat="46.53907" lon="0.24557">
        <ele>135.80000305176</ele>
        <time>2019-05-12T06:21:36.000Z</time>
      </trkpt>
      <trkpt lat="46.539" lon="0.24549">
        <ele>136.19999694824</ele>
        <time>2019-05-12T06:21:38.000Z</time>
      </trkpt>
      <trkpt lat="46.53894" lon="0.24541">
        <ele>136.39999389648</ele>
        <time>2019-05-12T06:21:40.000Z</time>
      </trkpt>
      <trkpt lat="46.53871" lon="0.24507">
        <ele>136.60000610352</ele>
        <time>2019-05-12T06:21:47.000Z</time>
      </trkpt>
      <trkpt lat="46.53864" lon="0.24491">
        <ele>136.60000610352</ele>
        <time>2019-05-12T06:21:50.000Z</time>
      </trkpt>
      <trkpt lat="46.53857" lon="0.24475">
        <ele>137</ele>
        <time>2019-05-12T06:21:53.000Z</time>
      </trkpt>
      <trkpt lat="46.53855" lon="0.2447">
        <ele>137.19999694824</ele>
        <time>2019-05-12T06:21:54.000Z</time>
      </trkpt>
      <trkpt lat="46.53844" lon="0.24438">
        <ele>138.19999694824</ele>
        <time>2019-05-12T06:22:00.000Z</time>
      </trkpt>
      <trkpt lat="46.53843" lon="0.24433">
        <ele>138.39999389648</ele>
        <time>2019-05-12T06:22:01.000Z</time>
      </trkpt>
      <trkpt lat="46.5384" lon="0.24416">
        <ele>138.80000305176</ele>
        <time>2019-05-12T06:22:04.000Z</time>
      </trkpt>
      <trkpt lat="46.53837" lon="0.24404">
        <ele>139</ele>
        <time>2019-05-12T06:22:06.000Z</time>
      </trkpt>
      <trkpt lat="46.53832" lon="0.24386">
        <ele>139.60000610352</ele>
        <time>2019-05-12T06:22:09.000Z</time>
      </trkpt>
      <trkpt lat="46.53826" lon="0.24362">
        <ele>140</ele>
        <time>2019-05-12T06:22:13.000Z</time>
      </trkpt>
      <trkpt lat="46.53809" lon="0.24313">
        <ele>140.39999389648</ele>
        <time>2019-05-12T06:22:21.000Z</time>
      </trkpt>
      <trkpt lat="46.53805" lon="0.24301">
        <ele>140.60000610352</ele>
        <time>2019-05-12T06:22:23.000Z</time>
      </trkpt>
      <trkpt lat="46.53791" lon="0.24264">
        <ele>141.39999389648</ele>
        <time>2019-05-12T06:22:29.000Z</time>
      </trkpt>
      <trkpt lat="46.53786" lon="0.24252">
        <ele>141.60000610352</ele>
        <time>2019-05-12T06:22:31.000Z</time>
      </trkpt>
      <trkpt lat="46.53775" lon="0.24221">
        <ele>142</ele>
        <time>2019-05-12T06:22:36.000Z</time>
      </trkpt>
      <trkpt lat="46.53768" lon="0.24203">
        <ele>142.60000610352</ele>
        <time>2019-05-12T06:22:39.000Z</time>
      </trkpt>
      <trkpt lat="46.53748" lon="0.24156">
        <ele>143.39999389648</ele>
        <time>2019-05-12T06:22:47.000Z</time>
      </trkpt>
      <trkpt lat="46.53737" lon="0.24134">
        <ele>143.80000305176</ele>
        <time>2019-05-12T06:22:51.000Z</time>
      </trkpt>
      <trkpt lat="46.53723" lon="0.24107">
        <ele>144.19999694824</ele>
        <time>2019-05-12T06:22:56.000Z</time>
      </trkpt>
      <trkpt lat="46.53698" lon="0.24055">
        <ele>144.19999694824</ele>
        <time>2019-05-12T06:23:05.000Z</time>
      </trkpt>
      <trkpt lat="46.5368" lon="0.24005">
        <ele>144.19999694824</ele>
        <time>2019-05-12T06:23:13.000Z</time>
      </trkpt>
      <trkpt lat="46.53665" lon="0.2396">
        <ele>144.60000610352</ele>
        <time>2019-05-12T06:23:20.000Z</time>
      </trkpt>
      <trkpt lat="46.53661" lon="0.23947">
        <ele>144.60000610352</ele>
        <time>2019-05-12T06:23:22.000Z</time>
      </trkpt>
      <trkpt lat="46.53659" lon="0.2394">
        <ele>144.80000305176</ele>
        <time>2019-05-12T06:23:23.000Z</time>
      </trkpt>
      <trkpt lat="46.53642" lon="0.23878">
        <ele>144.80000305176</ele>
        <time>2019-05-12T06:23:32.000Z</time>
      </trkpt>
      <trkpt lat="46.5363" lon="0.23827">
        <ele>145</ele>
        <time>2019-05-12T06:23:39.000Z</time>
      </trkpt>
      <trkpt lat="46.53626" lon="0.23805">
        <ele>145.19999694824</ele>
        <time>2019-05-12T06:23:42.000Z</time>
      </trkpt>
      <trkpt lat="46.53612" lon="0.23754">
        <ele>145.60000610352</ele>
        <time>2019-05-12T06:23:49.000Z</time>
      </trkpt>
      <trkpt lat="46.53594" lon="0.23694">
        <ele>145.39999389648</ele>
        <time>2019-05-12T06:23:58.000Z</time>
      </trkpt>
      <trkpt lat="46.53597" lon="0.23682">
        <ele>145.60000610352</ele>
        <time>2019-05-12T06:24:00.000Z</time>
      </trkpt>
      <trkpt lat="46.53605" lon="0.23674">
        <ele>145.80000305176</ele>
        <time>2019-05-12T06:24:02.000Z</time>
      </trkpt>
      <trkpt lat="46.53614" lon="0.23667">
        <ele>145.80000305176</ele>
        <time>2019-05-12T06:24:04.000Z</time>
      </trkpt>
      <trkpt lat="46.53618" lon="0.23663">
        <ele>146</ele>
        <time>2019-05-12T06:24:05.000Z</time>
      </trkpt>
      <trkpt lat="46.53669" lon="0.23618">
        <ele>145.39999389648</ele>
        <time>2019-05-12T06:24:16.000Z</time>
      </trkpt>
      <trkpt lat="46.53713" lon="0.23579">
        <ele>145.80000305176</ele>
        <time>2019-05-12T06:24:26.000Z</time>
      </trkpt>
      <trkpt lat="46.53751" lon="0.23545">
        <ele>146.39999389648</ele>
        <time>2019-05-12T06:24:35.000Z</time>
      </trkpt>
      <trkpt lat="46.53799" lon="0.23502">
        <ele>146.60000610352</ele>
        <time>2019-05-12T06:24:46.000Z</time>
      </trkpt>
      <trkpt lat="46.53829" lon="0.23473">
        <ele>146</ele>
        <time>2019-05-12T06:24:53.000Z</time>
      </trkpt>
      <trkpt lat="46.53833" lon="0.23467">
        <ele>146</ele>
        <time>2019-05-12T06:24:54.000Z</time>
      </trkpt>
      <trkpt lat="46.53833" lon="0.23452">
        <ele>145.80000305176</ele>
        <time>2019-05-12T06:24:56.000Z</time>
      </trkpt>
      <trkpt lat="46.53824" lon="0.23431">
        <ele>145.19999694824</ele>
        <time>2019-05-12T06:24:59.000Z</time>
      </trkpt>
      <trkpt lat="46.5382" lon="0.23425">
        <ele>145</ele>
        <time>2019-05-12T06:25:00.000Z</time>
      </trkpt>
      <trkpt lat="46.53789" lon="0.23365">
        <ele>145.80000305176</ele>
        <time>2019-05-12T06:25:10.000Z</time>
      </trkpt>
      <trkpt lat="46.53762" lon="0.2331">
        <ele>146.19999694824</ele>
        <time>2019-05-12T06:25:19.000Z</time>
      </trkpt>
      <trkpt lat="46.53742" lon="0.23269">
        <ele>146.19999694824</ele>
        <time>2019-05-12T06:25:26.000Z</time>
      </trkpt>
      <trkpt lat="46.53733" lon="0.23252">
        <ele>146.80000305176</ele>
        <time>2019-05-12T06:25:29.000Z</time>
      </trkpt>
      <trkpt lat="46.53731" lon="0.23246">
        <ele>147</ele>
        <time>2019-05-12T06:25:30.000Z</time>
      </trkpt>
      <trkpt lat="46.5371" lon="0.23206">
        <ele>147</ele>
        <time>2019-05-12T06:25:37.000Z</time>
      </trkpt>
      <trkpt lat="46.53708" lon="0.232">
        <ele>147.19999694824</ele>
        <time>2019-05-12T06:25:38.000Z</time>
      </trkpt>
      <trkpt lat="46.53713" lon="0.23183">
        <ele>147.39999389648</ele>
        <time>2019-05-12T06:25:41.000Z</time>
      </trkpt>
      <trkpt lat="46.53721" lon="0.23175">
        <ele>147.60000610352</ele>
        <time>2019-05-12T06:25:43.000Z</time>
      </trkpt>
      <trkpt lat="46.53745" lon="0.23153">
        <ele>147.39999389648</ele>
        <time>2019-05-12T06:25:49.000Z</time>
      </trkpt>
      <trkpt lat="46.53777" lon="0.23124">
        <ele>147.60000610352</ele>
        <time>2019-05-12T06:25:57.000Z</time>
      </trkpt>
      <trkpt lat="46.53802" lon="0.23102">
        <ele>147.39999389648</ele>
        <time>2019-05-12T06:26:03.000Z</time>
      </trkpt>
      <trkpt lat="46.53811" lon="0.23095">
        <ele>147.60000610352</ele>
        <time>2019-05-12T06:26:05.000Z</time>
      </trkpt>
      <trkpt lat="46.53843" lon="0.23065">
        <ele>147.60000610352</ele>
        <time>2019-05-12T06:26:13.000Z</time>
      </trkpt>
      <trkpt lat="46.5386" lon="0.2305">
        <ele>147.60000610352</ele>
        <time>2019-05-12T06:26:17.000Z</time>
      </trkpt>
      <trkpt lat="46.53863" lon="0.23046">
        <ele>147.60000610352</ele>
        <time>2019-05-12T06:26:18.000Z</time>
      </trkpt>
      <trkpt lat="46.5387" lon="0.23037">
        <ele>147.80000305176</ele>
        <time>2019-05-12T06:26:20.000Z</time>
      </trkpt>
      <trkpt lat="46.53876" lon="0.23026">
        <ele>147.80000305176</ele>
        <time>2019-05-12T06:26:22.000Z</time>
      </trkpt>
      <trkpt lat="46.53886" lon="0.23002">
        <ele>147.60000610352</ele>
        <time>2019-05-12T06:26:26.000Z</time>
      </trkpt>
      <trkpt lat="46.53888" lon="0.22995">
        <ele>147.60000610352</ele>
        <time>2019-05-12T06:26:27.000Z</time>
      </trkpt>
      <trkpt lat="46.53892" lon="0.22965">
        <ele>147.39999389648</ele>
        <time>2019-05-12T06:26:31.000Z</time>
      </trkpt>
      <trkpt lat="46.53898" lon="0.22929">
        <ele>146.80000305176</ele>
        <time>2019-05-12T06:26:36.000Z</time>
      </trkpt>
      <trkpt lat="46.53901" lon="0.22915">
        <ele>146.80000305176</ele>
        <time>2019-05-12T06:26:38.000Z</time>
      </trkpt>
      <trkpt lat="46.53912" lon="0.22856">
        <ele>146.19999694824</ele>
        <time>2019-05-12T06:26:46.000Z</time>
      </trkpt>
      <trkpt lat="46.53913" lon="0.22849">
        <ele>146.19999694824</ele>
        <time>2019-05-12T06:26:47.000Z</time>
      </trkpt>
      <trkpt lat="46.53919" lon="0.22821">
        <ele>146.19999694824</ele>
        <time>2019-05-12T06:26:51.000Z</time>
      </trkpt>
      <trkpt lat="46.53924" lon="0.22799">
        <ele>145.80000305176</ele>
        <time>2019-05-12T06:26:54.000Z</time>
      </trkpt>
      <trkpt lat="46.53927" lon="0.22785">
        <ele>145.60000610352</ele>
        <time>2019-05-12T06:26:56.000Z</time>
      </trkpt>
      <trkpt lat="46.53932" lon="0.22764">
        <ele>145.60000610352</ele>
        <time>2019-05-12T06:26:59.000Z</time>
      </trkpt>
      <trkpt lat="46.53942" lon="0.22716">
        <ele>145</ele>
        <time>2019-05-12T06:27:06.000Z</time>
      </trkpt>
      <trkpt lat="46.53949" lon="0.22681">
        <ele>145.39999389648</ele>
        <time>2019-05-12T06:27:11.000Z</time>
      </trkpt>
      <trkpt lat="46.5396" lon="0.2264">
        <ele>145.19999694824</ele>
        <time>2019-05-12T06:27:17.000Z</time>
      </trkpt>
      <trkpt lat="46.53962" lon="0.22633">
        <ele>145.19999694824</ele>
        <time>2019-05-12T06:27:18.000Z</time>
      </trkpt>
      <trkpt lat="46.53967" lon="0.22613">
        <ele>145.80000305176</ele>
        <time>2019-05-12T06:27:21.000Z</time>
      </trkpt>
      <trkpt lat="46.53974" lon="0.22593">
        <ele>146</ele>
        <time>2019-05-12T06:27:24.000Z</time>
      </trkpt>
      <trkpt lat="46.53987" lon="0.22552">
        <ele>145.60000610352</ele>
        <time>2019-05-12T06:27:30.000Z</time>
      </trkpt>
      <trkpt lat="46.53997" lon="0.22519">
        <ele>145.80000305176</ele>
        <time>2019-05-12T06:27:35.000Z</time>
      </trkpt>
      <trkpt lat="46.54005" lon="0.22492">
        <ele>146</ele>
        <time>2019-05-12T06:27:39.000Z</time>
      </trkpt>
      <trkpt lat="46.54007" lon="0.22484">
        <ele>145.80000305176</ele>
        <time>2019-05-12T06:27:40.000Z</time>
      </trkpt>
      <trkpt lat="46.54016" lon="0.22456">
        <ele>145.60000610352</ele>
        <time>2019-05-12T06:27:44.000Z</time>
      </trkpt>
      <trkpt lat="46.54018" lon="0.22449">
        <ele>145.60000610352</ele>
        <time>2019-05-12T06:27:45.000Z</time>
      </trkpt>
      <trkpt lat="46.54022" lon="0.22435">
        <ele>145.60000610352</ele>
        <time>2019-05-12T06:27:47.000Z</time>
      </trkpt>
      <trkpt lat="46.54032" lon="0.22408">
        <ele>145.60000610352</ele>
        <time>2019-05-12T06:27:51.000Z</time>
      </trkpt>
      <trkpt lat="46.54044" lon="0.22376">
        <ele>145.80000305176</ele>
        <time>2019-05-12T06:27:56.000Z</time>
      </trkpt>
      <trkpt lat="46.54056" lon="0.22344">
        <ele>145.80000305176</ele>
        <time>2019-05-12T06:28:01.000Z</time>
      </trkpt>
      <trkpt lat="46.54064" lon="0.22327">
        <ele>145.80000305176</ele>
        <time>2019-05-12T06:28:04.000Z</time>
      </trkpt>
      <trkpt lat="46.54069" lon="0.22314">
        <ele>145.80000305176</ele>
        <time>2019-05-12T06:28:06.000Z</time>
      </trkpt>
      <trkpt lat="46.54084" lon="0.22271">
        <ele>145.39999389648</ele>
        <time>2019-05-12T06:28:12.000Z</time>
      </trkpt>
      <trkpt lat="46.54099" lon="0.2223">
        <ele>145.80000305176</ele>
        <time>2019-05-12T06:28:18.000Z</time>
      </trkpt>
      <trkpt lat="46.54119" lon="0.22182">
        <ele>146.39999389648</ele>
        <time>2019-05-12T06:28:25.000Z</time>
      </trkpt>
      <trkpt lat="46.54128" lon="0.22162">
        <ele>146.80000305176</ele>
        <time>2019-05-12T06:28:28.000Z</time>
      </trkpt>
      <trkpt lat="46.54137" lon="0.22141">
        <ele>147</ele>
        <time>2019-05-12T06:28:31.000Z</time>
      </trkpt>
      <trkpt lat="46.5414" lon="0.22135">
        <ele>147</ele>
        <time>2019-05-12T06:28:32.000Z</time>
      </trkpt>
      <trkpt lat="46.54148" lon="0.22116">
        <ele>146.80000305176</ele>
        <time>2019-05-12T06:28:35.000Z</time>
      </trkpt>
      <trkpt lat="46.54156" lon="0.22097">
        <ele>147.19999694824</ele>
        <time>2019-05-12T06:28:38.000Z</time>
      </trkpt>
      <trkpt lat="46.54162" lon="0.22083">
        <ele>147</ele>
        <time>2019-05-12T06:28:40.000Z</time>
      </trkpt>
      <trkpt lat="46.54167" lon="0.22069">
        <ele>147</ele>
        <time>2019-05-12T06:28:42.000Z</time>
      </trkpt>
      <trkpt lat="46.54176" lon="0.22049">
        <ele>146.80000305176</ele>
        <time>2019-05-12T06:28:45.000Z</time>
      </trkpt>
      <trkpt lat="46.54185" lon="0.22028">
        <ele>146.60000610352</ele>
        <time>2019-05-12T06:28:48.000Z</time>
      </trkpt>
      <trkpt lat="46.54191" lon="0.22014">
        <ele>146.39999389648</ele>
        <time>2019-05-12T06:28:50.000Z</time>
      </trkpt>
      <trkpt lat="46.54194" lon="0.22008">
        <ele>146.60000610352</ele>
        <time>2019-05-12T06:28:51.000Z</time>
      </trkpt>
      <trkpt lat="46.54204" lon="0.21988">
        <ele>146.60000610352</ele>
        <time>2019-05-12T06:28:54.000Z</time>
      </trkpt>
      <trkpt lat="46.5421" lon="0.21975">
        <ele>146.39999389648</ele>
        <time>2019-05-12T06:28:56.000Z</time>
      </trkpt>
      <trkpt lat="46.54213" lon="0.21968">
        <ele>146.19999694824</ele>
        <time>2019-05-12T06:28:57.000Z</time>
      </trkpt>
      <trkpt lat="46.54223" lon="0.21946">
        <ele>146</ele>
        <time>2019-05-12T06:29:00.000Z</time>
      </trkpt>
      <trkpt lat="46.5423" lon="0.21933">
        <ele>146</ele>
        <time>2019-05-12T06:29:02.000Z</time>
      </trkpt>
      <trkpt lat="46.54245" lon="0.21908">
        <ele>145.80000305176</ele>
        <time>2019-05-12T06:29:06.000Z</time>
      </trkpt>
      <trkpt lat="46.54271" lon="0.21873">
        <ele>145.19999694824</ele>
        <time>2019-05-12T06:29:12.000Z</time>
      </trkpt>
      <trkpt lat="46.54292" lon="0.21844">
        <ele>145.60000610352</ele>
        <time>2019-05-12T06:29:17.000Z</time>
      </trkpt>
      <trkpt lat="46.54296" lon="0.21838">
        <ele>145.39999389648</ele>
        <time>2019-05-12T06:29:18.000Z</time>
      </trkpt>
      <trkpt lat="46.543" lon="0.21832">
        <ele>145.19999694824</ele>
        <time>2019-05-12T06:29:19.000Z</time>
      </trkpt>
      <trkpt lat="46.54322" lon="0.21797">
        <ele>144.39999389648</ele>
        <time>2019-05-12T06:29:24.000Z</time>
      </trkpt>
      <trkpt lat="46.54336" lon="0.21777">
        <ele>144.19999694824</ele>
        <time>2019-05-12T06:29:27.000Z</time>
      </trkpt>
      <trkpt lat="46.54346" lon="0.21764">
        <ele>144.19999694824</ele>
        <time>2019-05-12T06:29:29.000Z</time>
      </trkpt>
      <trkpt lat="46.54351" lon="0.21759">
        <ele>144.19999694824</ele>
        <time>2019-05-12T06:29:30.000Z</time>
      </trkpt>
      <trkpt lat="46.54393" lon="0.21722">
        <ele>144.19999694824</ele>
        <time>2019-05-12T06:29:38.000Z</time>
      </trkpt>
      <trkpt lat="46.54428" lon="0.21695">
        <ele>143.80000305176</ele>
        <time>2019-05-12T06:29:45.000Z</time>
      </trkpt>
      <trkpt lat="46.54455" lon="0.21676">
        <ele>143.80000305176</ele>
        <time>2019-05-12T06:29:50.000Z</time>
      </trkpt>
      <trkpt lat="46.54497" lon="0.21647">
        <ele>143.80000305176</ele>
        <time>2019-05-12T06:29:58.000Z</time>
      </trkpt>
      <trkpt lat="46.54503" lon="0.21644">
        <ele>143.60000610352</ele>
        <time>2019-05-12T06:29:59.000Z</time>
      </trkpt>
      <trkpt lat="46.54544" lon="0.21628">
        <ele>143.60000610352</ele>
        <time>2019-05-12T06:30:06.000Z</time>
      </trkpt>
      <trkpt lat="46.54574" lon="0.2162">
        <ele>143.19999694824</ele>
        <time>2019-05-12T06:30:11.000Z</time>
      </trkpt>
      <trkpt lat="46.54586" lon="0.21617">
        <ele>143</ele>
        <time>2019-05-12T06:30:13.000Z</time>
      </trkpt>
      <trkpt lat="46.54622" lon="0.21607">
        <ele>142.80000305176</ele>
        <time>2019-05-12T06:30:19.000Z</time>
      </trkpt>
      <trkpt lat="46.54653" lon="0.21598">
        <ele>142</ele>
        <time>2019-05-12T06:30:24.000Z</time>
      </trkpt>
      <trkpt lat="46.54683" lon="0.2159">
        <ele>141.60000610352</ele>
        <time>2019-05-12T06:30:29.000Z</time>
      </trkpt>
      <trkpt lat="46.54713" lon="0.21583">
        <ele>141.60000610352</ele>
        <time>2019-05-12T06:30:34.000Z</time>
      </trkpt>
      <trkpt lat="46.5475" lon="0.21571">
        <ele>141</ele>
        <time>2019-05-12T06:30:40.000Z</time>
      </trkpt>
      <trkpt lat="46.54799" lon="0.21548">
        <ele>140.19999694824</ele>
        <time>2019-05-12T06:30:48.000Z</time>
      </trkpt>
      <trkpt lat="46.54822" lon="0.21537">
        <ele>139.80000305176</ele>
        <time>2019-05-12T06:30:52.000Z</time>
      </trkpt>
      <trkpt lat="46.54827" lon="0.21535">
        <ele>139.80000305176</ele>
        <time>2019-05-12T06:30:53.000Z</time>
      </trkpt>
      <trkpt lat="46.54843" lon="0.21527">
        <ele>138.80000305176</ele>
        <time>2019-05-12T06:30:56.000Z</time>
      </trkpt>
      <trkpt lat="46.54848" lon="0.21526">
        <ele>138.39999389648</ele>
        <time>2019-05-12T06:30:57.000Z</time>
      </trkpt>
      <trkpt lat="46.54853" lon="0.21527">
        <ele>137.80000305176</ele>
        <time>2019-05-12T06:30:58.000Z</time>
      </trkpt>
      <trkpt lat="46.54856" lon="0.21531">
        <ele>137.39999389648</ele>
        <time>2019-05-12T06:30:59.000Z</time>
      </trkpt>
      <trkpt lat="46.54858" lon="0.21538">
        <ele>137.19999694824</ele>
        <time>2019-05-12T06:31:00.000Z</time>
      </trkpt>
      <trkpt lat="46.5486" lon="0.21546">
        <ele>136.80000305176</ele>
        <time>2019-05-12T06:31:01.000Z</time>
      </trkpt>
      <trkpt lat="46.54862" lon="0.21554">
        <ele>136.39999389648</ele>
        <time>2019-05-12T06:31:02.000Z</time>
      </trkpt>
      <trkpt lat="46.5487" lon="0.21583">
        <ele>135</ele>
        <time>2019-05-12T06:31:05.000Z</time>
      </trkpt>
      <trkpt lat="46.54879" lon="0.21603">
        <ele>133.80000305176</ele>
        <time>2019-05-12T06:31:07.000Z</time>
      </trkpt>
      <trkpt lat="46.54891" lon="0.21619">
        <ele>132.80000305176</ele>
        <time>2019-05-12T06:31:09.000Z</time>
      </trkpt>
      <trkpt lat="46.54898" lon="0.21626">
        <ele>132.39999389648</ele>
        <time>2019-05-12T06:31:10.000Z</time>
      </trkpt>
      <trkpt lat="46.54913" lon="0.21632">
        <ele>131.80000305176</ele>
        <time>2019-05-12T06:31:12.000Z</time>
      </trkpt>
      <trkpt lat="46.5492" lon="0.21634">
        <ele>131.19999694824</ele>
        <time>2019-05-12T06:31:13.000Z</time>
      </trkpt>
      <trkpt lat="46.54942" lon="0.21632">
        <ele>131</ele>
        <time>2019-05-12T06:31:16.000Z</time>
      </trkpt>
      <trkpt lat="46.54959" lon="0.21628">
        <ele>131.19999694824</ele>
        <time>2019-05-12T06:31:19.000Z</time>
      </trkpt>
      <trkpt lat="46.54969" lon="0.21625">
        <ele>131.39999389648</ele>
        <time>2019-05-12T06:31:21.000Z</time>
      </trkpt>
      <trkpt lat="46.54987" lon="0.21621">
        <ele>132.19999694824</ele>
        <time>2019-05-12T06:31:25.000Z</time>
      </trkpt>
      <trkpt lat="46.54991" lon="0.2162">
        <ele>132.60000610352</ele>
        <time>2019-05-12T06:31:26.000Z</time>
      </trkpt>
      <trkpt lat="46.54995" lon="0.2162">
        <ele>133</ele>
        <time>2019-05-12T06:31:27.000Z</time>
      </trkpt>
      <trkpt lat="46.54998" lon="0.21621">
        <ele>133.60000610352</ele>
        <time>2019-05-12T06:31:28.000Z</time>
      </trkpt>
      <trkpt lat="46.55001" lon="0.21629">
        <ele>134.39999389648</ele>
        <time>2019-05-12T06:31:30.000Z</time>
      </trkpt>
      <trkpt lat="46.55004" lon="0.21639">
        <ele>134.80000305176</ele>
        <time>2019-05-12T06:31:32.000Z</time>
      </trkpt>
      <trkpt lat="46.55011" lon="0.21653">
        <ele>135.60000610352</ele>
        <time>2019-05-12T06:31:35.000Z</time>
      </trkpt>
      <trkpt lat="46.55014" lon="0.21658">
        <ele>136</ele>
        <time>2019-05-12T06:31:36.000Z</time>
      </trkpt>
      <trkpt lat="46.55025" lon="0.21677">
        <ele>137.19999694824</ele>
        <time>2019-05-12T06:31:40.000Z</time>
      </trkpt>
      <trkpt lat="46.55035" lon="0.21694">
        <ele>138.19999694824</ele>
        <time>2019-05-12T06:31:44.000Z</time>
      </trkpt>
      <trkpt lat="46.55038" lon="0.21698">
        <ele>138.39999389648</ele>
        <time>2019-05-12T06:31:45.000Z</time>
      </trkpt>
      <trkpt lat="46.55048" lon="0.21711">
        <ele>139.19999694824</ele>
        <time>2019-05-12T06:31:48.000Z</time>
      </trkpt>
      <trkpt lat="46.55053" lon="0.21712">
        <ele>139.39999389648</ele>
        <time>2019-05-12T06:31:49.000Z</time>
      </trkpt>
      <trkpt lat="46.55058" lon="0.21713">
        <ele>139.80000305176</ele>
        <time>2019-05-12T06:31:50.000Z</time>
      </trkpt>
      <trkpt lat="46.55072" lon="0.21712">
        <ele>140.80000305176</ele>
        <time>2019-05-12T06:31:53.000Z</time>
      </trkpt>
      <trkpt lat="46.55085" lon="0.21709">
        <ele>140.80000305176</ele>
        <time>2019-05-12T06:31:56.000Z</time>
      </trkpt>
      <trkpt lat="46.55096" lon="0.21703">
        <ele>140.80000305176</ele>
        <time>2019-05-12T06:31:59.000Z</time>
      </trkpt>
      <trkpt lat="46.55097" lon="0.21698">
        <ele>140.80000305176</ele>
        <time>2019-05-12T06:32:00.000Z</time>
      </trkpt>
      <trkpt lat="46.55099" lon="0.2168">
        <ele>140.60000610352</ele>
        <time>2019-05-12T06:32:03.000Z</time>
      </trkpt>
      <trkpt lat="46.55114" lon="0.21666">
        <ele>140.39999389648</ele>
        <time>2019-05-12T06:32:07.000Z</time>
      </trkpt>
      <trkpt lat="46.55118" lon="0.21665">
        <ele>140.19999694824</ele>
        <time>2019-05-12T06:32:08.000Z</time>
      </trkpt>
      <trkpt lat="46.55142" lon="0.21658">
        <ele>139.80000305176</ele>
        <time>2019-05-12T06:32:14.000Z</time>
      </trkpt>
      <trkpt lat="46.55146" lon="0.21657">
        <ele>139.80000305176</ele>
        <time>2019-05-12T06:32:15.000Z</time>
      </trkpt>
      <trkpt lat="46.55158" lon="0.21661">
        <ele>139.39999389648</ele>
        <time>2019-05-12T06:32:18.000Z</time>
      </trkpt>
      <trkpt lat="46.55162" lon="0.21664">
        <ele>139.39999389648</ele>
        <time>2019-05-12T06:32:19.000Z</time>
      </trkpt>
      <trkpt lat="46.55169" lon="0.21671">
        <ele>139.19999694824</ele>
        <time>2019-05-12T06:32:21.000Z</time>
      </trkpt>
      <trkpt lat="46.55178" lon="0.21674">
        <ele>138.60000610352</ele>
        <time>2019-05-12T06:32:23.000Z</time>
      </trkpt>
      <trkpt lat="46.55183" lon="0.21674">
        <ele>138.39999389648</ele>
        <time>2019-05-12T06:32:24.000Z</time>
      </trkpt>
      <trkpt lat="46.55194" lon="0.21671">
        <ele>138</ele>
        <time>2019-05-12T06:32:26.000Z</time>
      </trkpt>
      <trkpt lat="46.55199" lon="0.21669">
        <ele>137.80000305176</ele>
        <time>2019-05-12T06:32:27.000Z</time>
      </trkpt>
      <trkpt lat="46.55203" lon="0.21665">
        <ele>137.39999389648</ele>
        <time>2019-05-12T06:32:28.000Z</time>
      </trkpt>
      <trkpt lat="46.55206" lon="0.21644">
        <ele>136.60000610352</ele>
        <time>2019-05-12T06:32:31.000Z</time>
      </trkpt>
      <trkpt lat="46.55205" lon="0.21635">
        <ele>136</ele>
        <time>2019-05-12T06:32:32.000Z</time>
      </trkpt>
      <trkpt lat="46.55203" lon="0.21607">
        <ele>134.80000305176</ele>
        <time>2019-05-12T06:32:35.000Z</time>
      </trkpt>
      <trkpt lat="46.55201" lon="0.21588">
        <ele>134.39999389648</ele>
        <time>2019-05-12T06:32:37.000Z</time>
      </trkpt>
      <trkpt lat="46.552" lon="0.21569">
        <ele>133.80000305176</ele>
        <time>2019-05-12T06:32:39.000Z</time>
      </trkpt>
      <trkpt lat="46.552" lon="0.2156">
        <ele>133.39999389648</ele>
        <time>2019-05-12T06:32:40.000Z</time>
      </trkpt>
      <trkpt lat="46.55198" lon="0.21531">
        <ele>133</ele>
        <time>2019-05-12T06:32:43.000Z</time>
      </trkpt>
      <trkpt lat="46.55193" lon="0.21492">
        <ele>132.39999389648</ele>
        <time>2019-05-12T06:32:47.000Z</time>
      </trkpt>
      <trkpt lat="46.5519" lon="0.21471">
        <ele>131.80000305176</ele>
        <time>2019-05-12T06:32:49.000Z</time>
      </trkpt>
      <trkpt lat="46.55186" lon="0.21451">
        <ele>131</ele>
        <time>2019-05-12T06:32:51.000Z</time>
      </trkpt>
      <trkpt lat="46.5518" lon="0.21412">
        <ele>130</ele>
        <time>2019-05-12T06:32:55.000Z</time>
      </trkpt>
      <trkpt lat="46.55179" lon="0.21401">
        <ele>129.80000305176</ele>
        <time>2019-05-12T06:32:56.000Z</time>
      </trkpt>
      <trkpt lat="46.55179" lon="0.2139">
        <ele>129.60000610352</ele>
        <time>2019-05-12T06:32:57.000Z</time>
      </trkpt>
      <trkpt lat="46.55183" lon="0.21358">
        <ele>128.60000610352</ele>
        <time>2019-05-12T06:33:00.000Z</time>
      </trkpt>
      <trkpt lat="46.55185" lon="0.21347">
        <ele>128.39999389648</ele>
        <time>2019-05-12T06:33:01.000Z</time>
      </trkpt>
      <trkpt lat="46.5519" lon="0.21326">
        <ele>127.59999847412</ele>
        <time>2019-05-12T06:33:03.000Z</time>
      </trkpt>
      <trkpt lat="46.55195" lon="0.21304">
        <ele>126.59999847412</ele>
        <time>2019-05-12T06:33:05.000Z</time>
      </trkpt>
      <trkpt lat="46.55197" lon="0.21283">
        <ele>125.80000305176</ele>
        <time>2019-05-12T06:33:07.000Z</time>
      </trkpt>
      <trkpt lat="46.55199" lon="0.21272">
        <ele>125.40000152588</ele>
        <time>2019-05-12T06:33:08.000Z</time>
      </trkpt>
      <trkpt lat="46.552" lon="0.2125">
        <ele>124.59999847412</ele>
        <time>2019-05-12T06:33:10.000Z</time>
      </trkpt>
      <trkpt lat="46.55202" lon="0.21238">
        <ele>124.19999694824</ele>
        <time>2019-05-12T06:33:11.000Z</time>
      </trkpt>
      <trkpt lat="46.55203" lon="0.21213">
        <ele>123.40000152588</ele>
        <time>2019-05-12T06:33:13.000Z</time>
      </trkpt>
      <trkpt lat="46.55204" lon="0.21201">
        <ele>122.80000305176</ele>
        <time>2019-05-12T06:33:14.000Z</time>
      </trkpt>
      <trkpt lat="46.55205" lon="0.21189">
        <ele>122.19999694824</ele>
        <time>2019-05-12T06:33:15.000Z</time>
      </trkpt>
      <trkpt lat="46.55205" lon="0.21163">
        <ele>121.59999847412</ele>
        <time>2019-05-12T06:33:17.000Z</time>
      </trkpt>
      <trkpt lat="46.55207" lon="0.21139">
        <ele>120.80000305176</ele>
        <time>2019-05-12T06:33:19.000Z</time>
      </trkpt>
      <trkpt lat="46.55209" lon="0.21129">
        <ele>120</ele>
        <time>2019-05-12T06:33:20.000Z</time>
      </trkpt>
      <trkpt lat="46.55214" lon="0.21118">
        <ele>118.80000305176</ele>
        <time>2019-05-12T06:33:22.000Z</time>
      </trkpt>
      <trkpt lat="46.55216" lon="0.21118">
        <ele>118.59999847412</ele>
        <time>2019-05-12T06:33:23.000Z</time>
      </trkpt>
      <trkpt lat="46.55221" lon="0.21116">
        <ele>118.59999847412</ele>
        <time>2019-05-12T06:33:25.000Z</time>
      </trkpt>
      <trkpt lat="46.55225" lon="0.21116">
        <ele>119.40000152588</ele>
        <time>2019-05-12T06:33:27.000Z</time>
      </trkpt>
      <trkpt lat="46.55228" lon="0.21116">
        <ele>119.59999847412</ele>
        <time>2019-05-12T06:33:28.000Z</time>
      </trkpt>
      <trkpt lat="46.55234" lon="0.21117">
        <ele>119.80000305176</ele>
        <time>2019-05-12T06:33:30.000Z</time>
      </trkpt>
      <trkpt lat="46.55242" lon="0.21119">
        <ele>121</ele>
        <time>2019-05-12T06:33:33.000Z</time>
      </trkpt>
      <trkpt lat="46.55245" lon="0.21119">
        <ele>121.80000305176</ele>
        <time>2019-05-12T06:33:34.000Z</time>
      </trkpt>
      <trkpt lat="46.55248" lon="0.21119">
        <ele>122.19999694824</ele>
        <time>2019-05-12T06:33:35.000Z</time>
      </trkpt>
      <trkpt lat="46.55253" lon="0.21118">
        <ele>123.19999694824</ele>
        <time>2019-05-12T06:33:37.000Z</time>
      </trkpt>
      <trkpt lat="46.55256" lon="0.21119">
        <ele>123.80000305176</ele>
        <time>2019-05-12T06:33:38.000Z</time>
      </trkpt>
      <trkpt lat="46.55259" lon="0.21118">
        <ele>124.19999694824</ele>
        <time>2019-05-12T06:33:39.000Z</time>
      </trkpt>
      <trkpt lat="46.55267" lon="0.21121">
        <ele>124.80000305176</ele>
        <time>2019-05-12T06:33:42.000Z</time>
      </trkpt>
      <trkpt lat="46.55271" lon="0.21123">
        <ele>125</ele>
        <time>2019-05-12T06:33:44.000Z</time>
      </trkpt>
      <trkpt lat="46.55276" lon="0.21125">
        <ele>125.80000305176</ele>
        <time>2019-05-12T06:33:46.000Z</time>
      </trkpt>
      <trkpt lat="46.55285" lon="0.21129">
        <ele>127</ele>
        <time>2019-05-12T06:33:49.000Z</time>
      </trkpt>
      <trkpt lat="46.55295" lon="0.21133">
        <ele>128.39999389648</ele>
        <time>2019-05-12T06:33:53.000Z</time>
      </trkpt>
      <trkpt lat="46.553" lon="0.21135">
        <ele>129.39999389648</ele>
        <time>2019-05-12T06:33:55.000Z</time>
      </trkpt>
      <trkpt lat="46.55302" lon="0.21136">
        <ele>129.80000305176</ele>
        <time>2019-05-12T06:33:56.000Z</time>
      </trkpt>
      <trkpt lat="46.55307" lon="0.21138">
        <ele>130.60000610352</ele>
        <time>2019-05-12T06:33:58.000Z</time>
      </trkpt>
      <trkpt lat="46.55311" lon="0.21138">
        <ele>131.39999389648</ele>
        <time>2019-05-12T06:34:00.000Z</time>
      </trkpt>
      <trkpt lat="46.55313" lon="0.21138">
        <ele>131.80000305176</ele>
        <time>2019-05-12T06:34:01.000Z</time>
      </trkpt>
      <trkpt lat="46.55317" lon="0.21138">
        <ele>132.39999389648</ele>
        <time>2019-05-12T06:34:03.000Z</time>
      </trkpt>
      <trkpt lat="46.5532" lon="0.2114">
        <ele>133.19999694824</ele>
        <time>2019-05-12T06:34:05.000Z</time>
      </trkpt>
      <trkpt lat="46.55323" lon="0.21142">
        <ele>133.80000305176</ele>
        <time>2019-05-12T06:34:07.000Z</time>
      </trkpt>
      <trkpt lat="46.55326" lon="0.21144">
        <ele>134.39999389648</ele>
        <time>2019-05-12T06:34:09.000Z</time>
      </trkpt>
      <trkpt lat="46.55327" lon="0.21144">
        <ele>134.60000610352</ele>
        <time>2019-05-12T06:34:10.000Z</time>
      </trkpt>
      <trkpt lat="46.55329" lon="0.21144">
        <ele>134.80000305176</ele>
        <time>2019-05-12T06:34:11.000Z</time>
      </trkpt>
      <trkpt lat="46.55336" lon="0.2115">
        <ele>135.19999694824</ele>
        <time>2019-05-12T06:34:16.000Z</time>
      </trkpt>
      <trkpt lat="46.55339" lon="0.21152">
        <ele>135.39999389648</ele>
        <time>2019-05-12T06:34:18.000Z</time>
      </trkpt>
      <trkpt lat="46.55344" lon="0.21155">
        <ele>136</ele>
        <time>2019-05-12T06:34:21.000Z</time>
      </trkpt>
      <trkpt lat="46.55354" lon="0.21157">
        <ele>136.39999389648</ele>
        <time>2019-05-12T06:34:26.000Z</time>
      </trkpt>
      <trkpt lat="46.55356" lon="0.21157">
        <ele>136.80000305176</ele>
        <time>2019-05-12T06:34:27.000Z</time>
      </trkpt>
      <trkpt lat="46.55358" lon="0.21156">
        <ele>136.80000305176</ele>
        <time>2019-05-12T06:34:28.000Z</time>
      </trkpt>
      <trkpt lat="46.55364" lon="0.21156">
        <ele>137</ele>
        <time>2019-05-12T06:34:31.000Z</time>
      </trkpt>
      <trkpt lat="46.55369" lon="0.21158">
        <ele>137.19999694824</ele>
        <time>2019-05-12T06:34:33.000Z</time>
      </trkpt>
      <trkpt lat="46.5537" lon="0.21158">
        <ele>137.19999694824</ele>
        <time>2019-05-12T06:34:34.000Z</time>
      </trkpt>
      <trkpt lat="46.55375" lon="0.21154">
        <ele>137.19999694824</ele>
        <time>2019-05-12T06:34:36.000Z</time>
      </trkpt>
      <trkpt lat="46.55381" lon="0.21147">
        <ele>137</ele>
        <time>2019-05-12T06:34:40.000Z</time>
      </trkpt>
      <trkpt lat="46.55382" lon="0.21147">
        <ele>137</ele>
        <time>2019-05-12T06:34:41.000Z</time>
      </trkpt>
      <trkpt lat="46.55401" lon="0.21135">
        <ele>137</ele>
        <time>2019-05-12T06:35:00.000Z</time>
      </trkpt>
      <trkpt lat="46.55403" lon="0.21134">
        <ele>137</ele>
        <time>2019-05-12T06:35:01.000Z</time>
      </trkpt>
      <trkpt lat="46.55404" lon="0.21133">
        <ele>137.19999694824</ele>
        <time>2019-05-12T06:35:02.000Z</time>
      </trkpt>
      <trkpt lat="46.55411" lon="0.21126">
        <ele>137</ele>
        <time>2019-05-12T06:35:08.000Z</time>
      </trkpt>
      <trkpt lat="46.55419" lon="0.21118">
        <ele>136.80000305176</ele>
        <time>2019-05-12T06:35:13.000Z</time>
      </trkpt>
      <trkpt lat="46.55426" lon="0.21123">
        <ele>137.19999694824</ele>
        <time>2019-05-12T06:35:17.000Z</time>
      </trkpt>
      <trkpt lat="46.55429" lon="0.21122">
        <ele>137.39999389648</ele>
        <time>2019-05-12T06:35:18.000Z</time>
      </trkpt>
      <trkpt lat="46.55434" lon="0.21123">
        <ele>137.60000610352</ele>
        <time>2019-05-12T06:35:20.000Z</time>
      </trkpt>
      <trkpt lat="46.55436" lon="0.21126">
        <ele>137.60000610352</ele>
        <time>2019-05-12T06:35:22.000Z</time>
      </trkpt>
      <trkpt lat="46.5544" lon="0.21132">
        <ele>137.80000305176</ele>
        <time>2019-05-12T06:35:24.000Z</time>
      </trkpt>
      <trkpt lat="46.55444" lon="0.21137">
        <ele>137.80000305176</ele>
        <time>2019-05-12T06:35:26.000Z</time>
      </trkpt>
      <trkpt lat="46.55447" lon="0.2114">
        <ele>137.80000305176</ele>
        <time>2019-05-12T06:35:27.000Z</time>
      </trkpt>
      <trkpt lat="46.55458" lon="0.21151">
        <ele>137.80000305176</ele>
        <time>2019-05-12T06:35:31.000Z</time>
      </trkpt>
      <trkpt lat="46.55469" lon="0.21167">
        <ele>137.80000305176</ele>
        <time>2019-05-12T06:35:35.000Z</time>
      </trkpt>
      <trkpt lat="46.55483" lon="0.21185">
        <ele>138</ele>
        <time>2019-05-12T06:35:40.000Z</time>
      </trkpt>
      <trkpt lat="46.55492" lon="0.21202">
        <ele>137.60000610352</ele>
        <time>2019-05-12T06:35:44.000Z</time>
      </trkpt>
      <trkpt lat="46.55498" lon="0.21214">
        <ele>137.60000610352</ele>
        <time>2019-05-12T06:35:47.000Z</time>
      </trkpt>
      <trkpt lat="46.55499" lon="0.21218">
        <ele>137.60000610352</ele>
        <time>2019-05-12T06:35:48.000Z</time>
      </trkpt>
      <trkpt lat="46.55505" lon="0.2124">
        <ele>137.80000305176</ele>
        <time>2019-05-12T06:35:53.000Z</time>
      </trkpt>
      <trkpt lat="46.55502" lon="0.21258">
        <ele>137.60000610352</ele>
        <time>2019-05-12T06:35:58.000Z</time>
      </trkpt>
      <trkpt lat="46.55495" lon="0.21272">
        <ele>138</ele>
        <time>2019-05-12T06:36:02.000Z</time>
      </trkpt>
      <trkpt lat="46.55491" lon="0.2129">
        <ele>137.80000305176</ele>
        <time>2019-05-12T06:36:06.000Z</time>
      </trkpt>
      <trkpt lat="46.5549" lon="0.21293">
        <ele>137.80000305176</ele>
        <time>2019-05-12T06:36:07.000Z</time>
      </trkpt>
      <trkpt lat="46.55488" lon="0.21302">
        <ele>137.80000305176</ele>
        <time>2019-05-12T06:36:10.000Z</time>
      </trkpt>
      <trkpt lat="46.55492" lon="0.21316">
        <ele>137.80000305176</ele>
        <time>2019-05-12T06:36:13.000Z</time>
      </trkpt>
      <trkpt lat="46.55499" lon="0.21331">
        <ele>138</ele>
        <time>2019-05-12T06:36:16.000Z</time>
      </trkpt>
      <trkpt lat="46.555" lon="0.21336">
        <ele>138</ele>
        <time>2019-05-12T06:36:17.000Z</time>
      </trkpt>
      <trkpt lat="46.55511" lon="0.21359">
        <ele>138.19999694824</ele>
        <time>2019-05-12T06:36:22.000Z</time>
      </trkpt>
      <trkpt lat="46.55518" lon="0.21378">
        <ele>138.60000610352</ele>
        <time>2019-05-12T06:36:26.000Z</time>
      </trkpt>
      <trkpt lat="46.55531" lon="0.21403">
        <ele>138.19999694824</ele>
        <time>2019-05-12T06:36:31.000Z</time>
      </trkpt>
      <trkpt lat="46.5555" lon="0.21427">
        <ele>138</ele>
        <time>2019-05-12T06:36:37.000Z</time>
      </trkpt>
      <trkpt lat="46.55559" lon="0.21438">
        <ele>138</ele>
        <time>2019-05-12T06:36:40.000Z</time>
      </trkpt>
      <trkpt lat="46.55565" lon="0.21441">
        <ele>138.39999389648</ele>
        <time>2019-05-12T06:36:42.000Z</time>
      </trkpt>
      <trkpt lat="46.55576" lon="0.21443">
        <ele>138.19999694824</ele>
        <time>2019-05-12T06:36:46.000Z</time>
      </trkpt>
      <trkpt lat="46.55579" lon="0.21435">
        <ele>138</ele>
        <time>2019-05-12T06:36:49.000Z</time>
      </trkpt>
      <trkpt lat="46.55583" lon="0.2143">
        <ele>137.80000305176</ele>
        <time>2019-05-12T06:36:51.000Z</time>
      </trkpt>
      <trkpt lat="46.5559" lon="0.21419">
        <ele>137.80000305176</ele>
        <time>2019-05-12T06:36:54.000Z</time>
      </trkpt>
      <trkpt lat="46.55604" lon="0.21405">
        <ele>137.39999389648</ele>
        <time>2019-05-12T06:36:59.000Z</time>
      </trkpt>
      <trkpt lat="46.55606" lon="0.21398">
        <ele>137.60000610352</ele>
        <time>2019-05-12T06:37:01.000Z</time>
      </trkpt>
      <trkpt lat="46.55608" lon="0.21394">
        <ele>137.39999389648</ele>
        <time>2019-05-12T06:37:02.000Z</time>
      </trkpt>
      <trkpt lat="46.5562" lon="0.2139">
        <ele>136.39999389648</ele>
        <time>2019-05-12T06:37:05.000Z</time>
      </trkpt>
      <trkpt lat="46.55633" lon="0.21391">
        <ele>136</ele>
        <time>2019-05-12T06:37:09.000Z</time>
      </trkpt>
      <trkpt lat="46.55644" lon="0.21384">
        <ele>132.39999389648</ele>
        <time>2019-05-12T06:37:12.000Z</time>
      </trkpt>
      <trkpt lat="46.55654" lon="0.2138">
        <ele>134.80000305176</ele>
        <time>2019-05-12T06:37:15.000Z</time>
      </trkpt>
      <trkpt lat="46.55664" lon="0.21382">
        <ele>134.60000610352</ele>
        <time>2019-05-12T06:37:18.000Z</time>
      </trkpt>
      <trkpt lat="46.55667" lon="0.2138">
        <ele>134.19999694824</ele>
        <time>2019-05-12T06:37:19.000Z</time>
      </trkpt>
      <trkpt lat="46.55676" lon="0.21382">
        <ele>134</ele>
        <time>2019-05-12T06:37:22.000Z</time>
      </trkpt>
      <trkpt lat="46.5568" lon="0.21384">
        <ele>133.80000305176</ele>
        <time>2019-05-12T06:37:23.000Z</time>
      </trkpt>
      <trkpt lat="46.55693" lon="0.21389">
        <ele>133.39999389648</ele>
        <time>2019-05-12T06:37:27.000Z</time>
      </trkpt>
      <trkpt lat="46.55696" lon="0.21392">
        <ele>132.80000305176</ele>
        <time>2019-05-12T06:37:28.000Z</time>
      </trkpt>
      <trkpt lat="46.55703" lon="0.21402">
        <ele>131.60000610352</ele>
        <time>2019-05-12T06:37:31.000Z</time>
      </trkpt>
      <trkpt lat="46.55704" lon="0.21406">
        <ele>131.39999389648</ele>
        <time>2019-05-12T06:37:32.000Z</time>
      </trkpt>
      <trkpt lat="46.55706" lon="0.21415">
        <ele>130.80000305176</ele>
        <time>2019-05-12T06:37:36.000Z</time>
      </trkpt>
      <trkpt lat="46.55706" lon="0.21427">
        <ele>131.19999694824</ele>
        <time>2019-05-12T06:37:41.000Z</time>
      </trkpt>
      <trkpt lat="46.55705" lon="0.21433">
        <ele>131.39999389648</ele>
        <time>2019-05-12T06:37:43.000Z</time>
      </trkpt>
      <trkpt lat="46.55704" lon="0.21438">
        <ele>131.60000610352</ele>
        <time>2019-05-12T06:37:45.000Z</time>
      </trkpt>
      <trkpt lat="46.55703" lon="0.21441">
        <ele>131.60000610352</ele>
        <time>2019-05-12T06:37:46.000Z</time>
      </trkpt>
      <trkpt lat="46.55701" lon="0.21449">
        <ele>131.80000305176</ele>
        <time>2019-05-12T06:37:48.000Z</time>
      </trkpt>
      <trkpt lat="46.55699" lon="0.21462">
        <ele>132.19999694824</ele>
        <time>2019-05-12T06:37:51.000Z</time>
      </trkpt>
      <trkpt lat="46.55695" lon="0.2148">
        <ele>133</ele>
        <time>2019-05-12T06:37:55.000Z</time>
      </trkpt>
      <trkpt lat="46.55694" lon="0.21485">
        <ele>133</ele>
        <time>2019-05-12T06:37:56.000Z</time>
      </trkpt>
      <trkpt lat="46.55692" lon="0.21498">
        <ele>133.60000610352</ele>
        <time>2019-05-12T06:37:59.000Z</time>
      </trkpt>
      <trkpt lat="46.55691" lon="0.21508">
        <ele>134.19999694824</ele>
        <time>2019-05-12T06:38:01.000Z</time>
      </trkpt>
      <trkpt lat="46.55689" lon="0.21526">
        <ele>134.80000305176</ele>
        <time>2019-05-12T06:38:05.000Z</time>
      </trkpt>
      <trkpt lat="46.55687" lon="0.21551">
        <ele>134.80000305176</ele>
        <time>2019-05-12T06:38:10.000Z</time>
      </trkpt>
      <trkpt lat="46.55687" lon="0.21567">
        <ele>135.19999694824</ele>
        <time>2019-05-12T06:38:13.000Z</time>
      </trkpt>
      <trkpt lat="46.55686" lon="0.21583">
        <ele>135.60000610352</ele>
        <time>2019-05-12T06:38:16.000Z</time>
      </trkpt>
      <trkpt lat="46.55686" lon="0.216">
        <ele>136.39999389648</ele>
        <time>2019-05-12T06:38:19.000Z</time>
      </trkpt>
      <trkpt lat="46.55687" lon="0.21624">
        <ele>137.39999389648</ele>
        <time>2019-05-12T06:38:23.000Z</time>
      </trkpt>
      <trkpt lat="46.55687" lon="0.21632">
        <ele>137.80000305176</ele>
        <time>2019-05-12T06:38:25.000Z</time>
      </trkpt>
      <trkpt lat="46.55687" lon="0.21635">
        <ele>137.80000305176</ele>
        <time>2019-05-12T06:38:26.000Z</time>
      </trkpt>
      <trkpt lat="46.55687" lon="0.21637">
        <ele>137.80000305176</ele>
        <time>2019-05-12T06:38:27.000Z</time>
      </trkpt>
      <trkpt lat="46.55687" lon="0.21652">
        <ele>138.19999694824</ele>
        <time>2019-05-12T06:39:14.000Z</time>
      </trkpt>
      <trkpt lat="46.55687" lon="0.21656">
        <ele>138.39999389648</ele>
        <time>2019-05-12T06:39:15.000Z</time>
      </trkpt>
      <trkpt lat="46.55687" lon="0.21659">
        <ele>138.39999389648</ele>
        <time>2019-05-12T06:39:16.000Z</time>
      </trkpt>
      <trkpt lat="46.55685" lon="0.2168">
        <ele>138.60000610352</ele>
        <time>2019-05-12T06:39:21.000Z</time>
      </trkpt>
      <trkpt lat="46.55686" lon="0.21684">
        <ele>138.60000610352</ele>
        <time>2019-05-12T06:39:22.000Z</time>
      </trkpt>
      <trkpt lat="46.55689" lon="0.21689">
        <ele>138.80000305176</ele>
        <time>2019-05-12T06:39:24.000Z</time>
      </trkpt>
      <trkpt lat="46.55697" lon="0.21687">
        <ele>138.80000305176</ele>
        <time>2019-05-12T06:39:27.000Z</time>
      </trkpt>
      <trkpt lat="46.557" lon="0.21686">
        <ele>138.80000305176</ele>
        <time>2019-05-12T06:39:28.000Z</time>
      </trkpt>
      <trkpt lat="46.55714" lon="0.21674">
        <ele>138.80000305176</ele>
        <time>2019-05-12T06:39:33.000Z</time>
      </trkpt>
      <trkpt lat="46.55728" lon="0.21649">
        <ele>138.60000610352</ele>
        <time>2019-05-12T06:39:39.000Z</time>
      </trkpt>
      <trkpt lat="46.55735" lon="0.21641">
        <ele>138.60000610352</ele>
        <time>2019-05-12T06:39:41.000Z</time>
      </trkpt>
      <trkpt lat="46.55746" lon="0.2163">
        <ele>138.39999389648</ele>
        <time>2019-05-12T06:39:44.000Z</time>
      </trkpt>
      <trkpt lat="46.55767" lon="0.21609">
        <ele>138.19999694824</ele>
        <time>2019-05-12T06:39:50.000Z</time>
      </trkpt>
      <trkpt lat="46.55783" lon="0.21594">
        <ele>138</ele>
        <time>2019-05-12T06:39:54.000Z</time>
      </trkpt>
      <trkpt lat="46.55786" lon="0.21591">
        <ele>138</ele>
        <time>2019-05-12T06:39:55.000Z</time>
      </trkpt>
      <trkpt lat="46.5579" lon="0.21587">
        <ele>137.80000305176</ele>
        <time>2019-05-12T06:39:56.000Z</time>
      </trkpt>
      <trkpt lat="46.55803" lon="0.21576">
        <ele>137.60000610352</ele>
        <time>2019-05-12T06:40:00.000Z</time>
      </trkpt>
      <trkpt lat="46.5582" lon="0.2156">
        <ele>137</ele>
        <time>2019-05-12T06:40:05.000Z</time>
      </trkpt>
      <trkpt lat="46.55836" lon="0.21543">
        <ele>137.19999694824</ele>
        <time>2019-05-12T06:40:09.000Z</time>
      </trkpt>
      <trkpt lat="46.5584" lon="0.2154">
        <ele>137.60000610352</ele>
        <time>2019-05-12T06:40:10.000Z</time>
      </trkpt>
      <trkpt lat="46.55856" lon="0.21529">
        <ele>138</ele>
        <time>2019-05-12T06:40:13.000Z</time>
      </trkpt>
      <trkpt lat="46.5586" lon="0.21526">
        <ele>138</ele>
        <time>2019-05-12T06:40:14.000Z</time>
      </trkpt>
      <trkpt lat="46.5588" lon="0.21512">
        <ele>138</ele>
        <time>2019-05-12T06:40:18.000Z</time>
      </trkpt>
      <trkpt lat="46.55901" lon="0.21501">
        <ele>138</ele>
        <time>2019-05-12T06:40:22.000Z</time>
      </trkpt>
      <trkpt lat="46.55906" lon="0.215">
        <ele>138</ele>
        <time>2019-05-12T06:40:23.000Z</time>
      </trkpt>
      <trkpt lat="46.55917" lon="0.21498">
        <ele>138.19999694824</ele>
        <time>2019-05-12T06:40:25.000Z</time>
      </trkpt>
      <trkpt lat="46.55922" lon="0.21497">
        <ele>138.39999389648</ele>
        <time>2019-05-12T06:40:26.000Z</time>
      </trkpt>
      <trkpt lat="46.55932" lon="0.21497">
        <ele>138.39999389648</ele>
        <time>2019-05-12T06:40:28.000Z</time>
      </trkpt>
      <trkpt lat="46.55959" lon="0.21497">
        <ele>138.80000305176</ele>
        <time>2019-05-12T06:40:34.000Z</time>
      </trkpt>
      <trkpt lat="46.55974" lon="0.21495">
        <ele>139</ele>
        <time>2019-05-12T06:40:37.000Z</time>
      </trkpt>
      <trkpt lat="46.5598" lon="0.21496">
        <ele>139</ele>
        <time>2019-05-12T06:40:38.000Z</time>
      </trkpt>
      <trkpt lat="46.56001" lon="0.21495">
        <ele>139.39999389648</ele>
        <time>2019-05-12T06:40:42.000Z</time>
      </trkpt>
      <trkpt lat="46.56007" lon="0.21495">
        <ele>139.39999389648</ele>
        <time>2019-05-12T06:40:43.000Z</time>
      </trkpt>
      <trkpt lat="46.56033" lon="0.21498">
        <ele>138.60000610352</ele>
        <time>2019-05-12T06:40:48.000Z</time>
      </trkpt>
      <trkpt lat="46.56042" lon="0.21499">
        <ele>138.39999389648</ele>
        <time>2019-05-12T06:40:50.000Z</time>
      </trkpt>
      <trkpt lat="46.56047" lon="0.215">
        <ele>138.19999694824</ele>
        <time>2019-05-12T06:40:51.000Z</time>
      </trkpt>
      <trkpt lat="46.56059" lon="0.21503">
        <ele>138.39999389648</ele>
        <time>2019-05-12T06:40:53.000Z</time>
      </trkpt>
      <trkpt lat="46.56076" lon="0.21507">
        <ele>138</ele>
        <time>2019-05-12T06:40:56.000Z</time>
      </trkpt>
      <trkpt lat="46.56088" lon="0.21504">
        <ele>137.19999694824</ele>
        <time>2019-05-12T06:40:58.000Z</time>
      </trkpt>
      <trkpt lat="46.561" lon="0.21497">
        <ele>136.80000305176</ele>
        <time>2019-05-12T06:41:00.000Z</time>
      </trkpt>
      <trkpt lat="46.56112" lon="0.21488">
        <ele>136.60000610352</ele>
        <time>2019-05-12T06:41:02.000Z</time>
      </trkpt>
      <trkpt lat="46.56117" lon="0.21484">
        <ele>136.60000610352</ele>
        <time>2019-05-12T06:41:03.000Z</time>
      </trkpt>
      <trkpt lat="46.56128" lon="0.21476">
        <ele>135.80000305176</ele>
        <time>2019-05-12T06:41:05.000Z</time>
      </trkpt>
      <trkpt lat="46.56136" lon="0.21468">
        <ele>135.39999389648</ele>
        <time>2019-05-12T06:41:07.000Z</time>
      </trkpt>
      <trkpt lat="46.56141" lon="0.21464">
        <ele>135.19999694824</ele>
        <time>2019-05-12T06:41:08.000Z</time>
      </trkpt>
      <trkpt lat="46.56146" lon="0.21461">
        <ele>134.80000305176</ele>
        <time>2019-05-12T06:41:09.000Z</time>
      </trkpt>
      <trkpt lat="46.56151" lon="0.21458">
        <ele>134.60000610352</ele>
        <time>2019-05-12T06:41:10.000Z</time>
      </trkpt>
      <trkpt lat="46.56161" lon="0.21455">
        <ele>133.60000610352</ele>
        <time>2019-05-12T06:41:12.000Z</time>
      </trkpt>
      <trkpt lat="46.56178" lon="0.21453">
        <ele>133.19999694824</ele>
        <time>2019-05-12T06:41:15.000Z</time>
      </trkpt>
      <trkpt lat="46.56184" lon="0.21455">
        <ele>133</ele>
        <time>2019-05-12T06:41:16.000Z</time>
      </trkpt>
      <trkpt lat="46.5619" lon="0.21458">
        <ele>132.39999389648</ele>
        <time>2019-05-12T06:41:17.000Z</time>
      </trkpt>
      <trkpt lat="46.56202" lon="0.21464">
        <ele>131</ele>
        <time>2019-05-12T06:41:19.000Z</time>
      </trkpt>
      <trkpt lat="46.56209" lon="0.21466">
        <ele>130.60000610352</ele>
        <time>2019-05-12T06:41:20.000Z</time>
      </trkpt>
      <trkpt lat="46.56215" lon="0.21469">
        <ele>130</ele>
        <time>2019-05-12T06:41:21.000Z</time>
      </trkpt>
      <trkpt lat="46.56221" lon="0.21471">
        <ele>128.60000610352</ele>
        <time>2019-05-12T06:41:22.000Z</time>
      </trkpt>
      <trkpt lat="46.56226" lon="0.21471">
        <ele>127.59999847412</ele>
        <time>2019-05-12T06:41:23.000Z</time>
      </trkpt>
      <trkpt lat="46.56231" lon="0.2147">
        <ele>126.80000305176</ele>
        <time>2019-05-12T06:41:24.000Z</time>
      </trkpt>
      <trkpt lat="46.56235" lon="0.21467">
        <ele>126.40000152588</ele>
        <time>2019-05-12T06:41:25.000Z</time>
      </trkpt>
      <trkpt lat="46.56243" lon="0.21464">
        <ele>125</ele>
        <time>2019-05-12T06:41:27.000Z</time>
      </trkpt>
      <trkpt lat="46.56248" lon="0.21461">
        <ele>124.59999847412</ele>
        <time>2019-05-12T06:41:28.000Z</time>
      </trkpt>
      <trkpt lat="46.56256" lon="0.21454">
        <ele>123.59999847412</ele>
        <time>2019-05-12T06:41:30.000Z</time>
      </trkpt>
      <trkpt lat="46.56258" lon="0.21451">
        <ele>123.19999694824</ele>
        <time>2019-05-12T06:41:31.000Z</time>
      </trkpt>
      <trkpt lat="46.5626" lon="0.21447">
        <ele>123</ele>
        <time>2019-05-12T06:41:32.000Z</time>
      </trkpt>
      <trkpt lat="46.56263" lon="0.21439">
        <ele>123.19999694824</ele>
        <time>2019-05-12T06:41:34.000Z</time>
      </trkpt>
      <trkpt lat="46.56265" lon="0.21434">
        <ele>123.40000152588</ele>
        <time>2019-05-12T06:41:35.000Z</time>
      </trkpt>
      <trkpt lat="46.56268" lon="0.21424">
        <ele>124.40000152588</ele>
        <time>2019-05-12T06:41:37.000Z</time>
      </trkpt>
      <trkpt lat="46.56268" lon="0.21419">
        <ele>125</ele>
        <time>2019-05-12T06:41:38.000Z</time>
      </trkpt>
      <trkpt lat="46.56269" lon="0.21408">
        <ele>125.40000152588</ele>
        <time>2019-05-12T06:41:40.000Z</time>
      </trkpt>
      <trkpt lat="46.5627" lon="0.21402">
        <ele>126</ele>
        <time>2019-05-12T06:41:41.000Z</time>
      </trkpt>
      <trkpt lat="46.56271" lon="0.21399">
        <ele>126.19999694824</ele>
        <time>2019-05-12T06:41:42.000Z</time>
      </trkpt>
      <trkpt lat="46.56276" lon="0.21387">
        <ele>127</ele>
        <time>2019-05-12T06:41:45.000Z</time>
      </trkpt>
      <trkpt lat="46.56278" lon="0.21384">
        <ele>126.80000305176</ele>
        <time>2019-05-12T06:41:46.000Z</time>
      </trkpt>
      <trkpt lat="46.56289" lon="0.21364">
        <ele>125.59999847412</ele>
        <time>2019-05-12T06:41:50.000Z</time>
      </trkpt>
      <trkpt lat="46.56292" lon="0.21347">
        <ele>124.80000305176</ele>
        <time>2019-05-12T06:41:53.000Z</time>
      </trkpt>
      <trkpt lat="46.56295" lon="0.2133">
        <ele>125.19999694824</ele>
        <time>2019-05-12T06:41:56.000Z</time>
      </trkpt>
      <trkpt lat="46.56296" lon="0.21322">
        <ele>125</ele>
        <time>2019-05-12T06:41:57.000Z</time>
      </trkpt>
      <trkpt lat="46.563" lon="0.21287">
        <ele>124.19999694824</ele>
        <time>2019-05-12T06:42:02.000Z</time>
      </trkpt>
      <trkpt lat="46.5631" lon="0.21266">
        <ele>124.19999694824</ele>
        <time>2019-05-12T06:42:07.000Z</time>
      </trkpt>
      <trkpt lat="46.56319" lon="0.21247">
        <ele>124.40000152588</ele>
        <time>2019-05-12T06:42:11.000Z</time>
      </trkpt>
      <trkpt lat="46.56331" lon="0.21228">
        <ele>124</ele>
        <time>2019-05-12T06:42:15.000Z</time>
      </trkpt>
      <trkpt lat="46.56335" lon="0.21223">
        <ele>123</ele>
        <time>2019-05-12T06:42:17.000Z</time>
      </trkpt>
      <trkpt lat="46.56338" lon="0.21219">
        <ele>122.40000152588</ele>
        <time>2019-05-12T06:42:18.000Z</time>
      </trkpt>
      <trkpt lat="46.56341" lon="0.21215">
        <ele>122</ele>
        <time>2019-05-12T06:42:19.000Z</time>
      </trkpt>
      <trkpt lat="46.56342" lon="0.2121">
        <ele>121.59999847412</ele>
        <time>2019-05-12T06:42:20.000Z</time>
      </trkpt>
      <trkpt lat="46.56342" lon="0.21205">
        <ele>121</ele>
        <time>2019-05-12T06:42:21.000Z</time>
      </trkpt>
      <trkpt lat="46.56342" lon="0.21201">
        <ele>121</ele>
        <time>2019-05-12T06:42:22.000Z</time>
      </trkpt>
      <trkpt lat="46.56343" lon="0.21191">
        <ele>120.19999694824</ele>
        <time>2019-05-12T06:42:24.000Z</time>
      </trkpt>
      <trkpt lat="46.56345" lon="0.21182">
        <ele>120.19999694824</ele>
        <time>2019-05-12T06:42:26.000Z</time>
      </trkpt>
      <trkpt lat="46.56347" lon="0.21169">
        <ele>119.59999847412</ele>
        <time>2019-05-12T06:42:30.000Z</time>
      </trkpt>
      <trkpt lat="46.56343" lon="0.21155">
        <ele>119.80000305176</ele>
        <time>2019-05-12T06:42:35.000Z</time>
      </trkpt>
      <trkpt lat="46.56335" lon="0.21154">
        <ele>120.40000152588</ele>
        <time>2019-05-12T06:42:39.000Z</time>
      </trkpt>
      <trkpt lat="46.56326" lon="0.21151">
        <ele>121.80000305176</ele>
        <time>2019-05-12T06:42:43.000Z</time>
      </trkpt>
      <trkpt lat="46.56323" lon="0.21145">
        <ele>122.40000152588</ele>
        <time>2019-05-12T06:42:45.000Z</time>
      </trkpt>
      <trkpt lat="46.56318" lon="0.2114">
        <ele>122.80000305176</ele>
        <time>2019-05-12T06:42:47.000Z</time>
      </trkpt>
      <trkpt lat="46.56315" lon="0.21138">
        <ele>122.80000305176</ele>
        <time>2019-05-12T06:42:48.000Z</time>
      </trkpt>
      <trkpt lat="46.56309" lon="0.21133">
        <ele>123.19999694824</ele>
        <time>2019-05-12T06:42:50.000Z</time>
      </trkpt>
      <trkpt lat="46.56307" lon="0.2113">
        <ele>123.19999694824</ele>
        <time>2019-05-12T06:42:51.000Z</time>
      </trkpt>
      <trkpt lat="46.56302" lon="0.21125">
        <ele>123.40000152588</ele>
        <time>2019-05-12T06:42:53.000Z</time>
      </trkpt>
      <trkpt lat="46.563" lon="0.21122">
        <ele>123.40000152588</ele>
        <time>2019-05-12T06:42:54.000Z</time>
      </trkpt>
      <trkpt lat="46.56295" lon="0.21117">
        <ele>123.40000152588</ele>
        <time>2019-05-12T06:42:56.000Z</time>
      </trkpt>
      <trkpt lat="46.56282" lon="0.21109">
        <ele>123.19999694824</ele>
        <time>2019-05-12T06:43:00.000Z</time>
      </trkpt>
      <trkpt lat="46.56266" lon="0.21102">
        <ele>123.80000305176</ele>
        <time>2019-05-12T06:43:05.000Z</time>
      </trkpt>
      <trkpt lat="46.56252" lon="0.21095">
        <ele>124.19999694824</ele>
        <time>2019-05-12T06:43:10.000Z</time>
      </trkpt>
      <trkpt lat="46.56245" lon="0.21095">
        <ele>124.59999847412</ele>
        <time>2019-05-12T06:43:12.000Z</time>
      </trkpt>
      <trkpt lat="46.5624" lon="0.21097">
        <ele>125.19999694824</ele>
        <time>2019-05-12T06:43:14.000Z</time>
      </trkpt>
      <trkpt lat="46.56233" lon="0.21095">
        <ele>125.59999847412</ele>
        <time>2019-05-12T06:43:16.000Z</time>
      </trkpt>
      <trkpt lat="46.56227" lon="0.21093">
        <ele>126</ele>
        <time>2019-05-12T06:43:18.000Z</time>
      </trkpt>
      <trkpt lat="46.56219" lon="0.21085">
        <ele>126.40000152588</ele>
        <time>2019-05-12T06:43:22.000Z</time>
      </trkpt>
      <trkpt lat="46.56216" lon="0.21079">
        <ele>125.80000305176</ele>
        <time>2019-05-12T06:43:25.000Z</time>
      </trkpt>
      <trkpt lat="46.56212" lon="0.21074">
        <ele>124.80000305176</ele>
        <time>2019-05-12T06:43:27.000Z</time>
      </trkpt>
      <trkpt lat="46.5621" lon="0.21073">
        <ele>124.19999694824</ele>
        <time>2019-05-12T06:43:28.000Z</time>
      </trkpt>
      <trkpt lat="46.56204" lon="0.21066">
        <ele>123.59999847412</ele>
        <time>2019-05-12T06:43:30.000Z</time>
      </trkpt>
      <trkpt lat="46.56201" lon="0.21063">
        <ele>123.59999847412</ele>
        <time>2019-05-12T06:43:31.000Z</time>
      </trkpt>
      <trkpt lat="46.56179" lon="0.21054">
        <ele>123.40000152588</ele>
        <time>2019-05-12T06:43:37.000Z</time>
      </trkpt>
      <trkpt lat="46.56169" lon="0.21051">
        <ele>123.59999847412</ele>
        <time>2019-05-12T06:43:41.000Z</time>
      </trkpt>
      <trkpt lat="46.56167" lon="0.2105">
        <ele>123.40000152588</ele>
        <time>2019-05-12T06:43:42.000Z</time>
      </trkpt>
      <trkpt lat="46.56166" lon="0.21047">
        <ele>123.40000152588</ele>
        <time>2019-05-12T06:43:45.000Z</time>
      </trkpt>
      <trkpt lat="46.56161" lon="0.21042">
        <ele>123</ele>
        <time>2019-05-12T06:43:53.000Z</time>
      </trkpt>
      <trkpt lat="46.56157" lon="0.2104">
        <ele>122.80000305176</ele>
        <time>2019-05-12T06:43:54.000Z</time>
      </trkpt>
      <trkpt lat="46.56154" lon="0.21039">
        <ele>122.40000152588</ele>
        <time>2019-05-12T06:43:55.000Z</time>
      </trkpt>
      <trkpt lat="46.56149" lon="0.21037">
        <ele>122.19999694824</ele>
        <time>2019-05-12T06:43:57.000Z</time>
      </trkpt>
      <trkpt lat="46.56145" lon="0.21038">
        <ele>122</ele>
        <time>2019-05-12T06:43:59.000Z</time>
      </trkpt>
      <trkpt lat="46.56142" lon="0.21038">
        <ele>121.80000305176</ele>
        <time>2019-05-12T06:44:00.000Z</time>
      </trkpt>
      <trkpt lat="46.56138" lon="0.21038">
        <ele>122</ele>
        <time>2019-05-12T06:44:02.000Z</time>
      </trkpt>
      <trkpt lat="46.56135" lon="0.21038">
        <ele>122</ele>
        <time>2019-05-12T06:44:03.000Z</time>
      </trkpt>
      <trkpt lat="46.56132" lon="0.21037">
        <ele>122</ele>
        <time>2019-05-12T06:44:04.000Z</time>
      </trkpt>
      <trkpt lat="46.56117" lon="0.2103">
        <ele>121.59999847412</ele>
        <time>2019-05-12T06:44:09.000Z</time>
      </trkpt>
      <trkpt lat="46.56115" lon="0.21029">
        <ele>121</ele>
        <time>2019-05-12T06:44:10.000Z</time>
      </trkpt>
      <trkpt lat="46.56112" lon="0.21029">
        <ele>120.19999694824</ele>
        <time>2019-05-12T06:44:11.000Z</time>
      </trkpt>
      <trkpt lat="46.56106" lon="0.21029">
        <ele>119</ele>
        <time>2019-05-12T06:44:13.000Z</time>
      </trkpt>
      <trkpt lat="46.56103" lon="0.2103">
        <ele>118.80000305176</ele>
        <time>2019-05-12T06:44:14.000Z</time>
      </trkpt>
      <trkpt lat="46.561" lon="0.21032">
        <ele>118.59999847412</ele>
        <time>2019-05-12T06:44:15.000Z</time>
      </trkpt>
      <trkpt lat="46.56089" lon="0.2104">
        <ele>118</ele>
        <time>2019-05-12T06:44:19.000Z</time>
      </trkpt>
      <trkpt lat="46.56085" lon="0.2105">
        <ele>118.19999694824</ele>
        <time>2019-05-12T06:44:23.000Z</time>
      </trkpt>
      <trkpt lat="46.56083" lon="0.21056">
        <ele>118.59999847412</ele>
        <time>2019-05-12T06:44:25.000Z</time>
      </trkpt>
      <trkpt lat="46.56083" lon="0.21058">
        <ele>119.19999694824</ele>
        <time>2019-05-12T06:44:26.000Z</time>
      </trkpt>
      <trkpt lat="46.56081" lon="0.21063">
        <ele>119.80000305176</ele>
        <time>2019-05-12T06:44:28.000Z</time>
      </trkpt>
      <trkpt lat="46.56078" lon="0.21068">
        <ele>120.19999694824</ele>
        <time>2019-05-12T06:44:30.000Z</time>
      </trkpt>
      <trkpt lat="46.56076" lon="0.21071">
        <ele>120.59999847412</ele>
        <time>2019-05-12T06:44:31.000Z</time>
      </trkpt>
      <trkpt lat="46.56073" lon="0.21075">
        <ele>121</ele>
        <time>2019-05-12T06:44:33.000Z</time>
      </trkpt>
      <trkpt lat="46.56069" lon="0.21085">
        <ele>121.40000152588</ele>
        <time>2019-05-12T06:44:36.000Z</time>
      </trkpt>
      <trkpt lat="46.56068" lon="0.21089">
        <ele>121.40000152588</ele>
        <time>2019-05-12T06:44:37.000Z</time>
      </trkpt>
      <trkpt lat="46.56065" lon="0.21095">
        <ele>121.59999847412</ele>
        <time>2019-05-12T06:44:39.000Z</time>
      </trkpt>
      <trkpt lat="46.5606" lon="0.21101">
        <ele>121.80000305176</ele>
        <time>2019-05-12T06:44:41.000Z</time>
      </trkpt>
      <trkpt lat="46.56058" lon="0.21104">
        <ele>121.80000305176</ele>
        <time>2019-05-12T06:44:42.000Z</time>
      </trkpt>
      <trkpt lat="46.56055" lon="0.21108">
        <ele>122.19999694824</ele>
        <time>2019-05-12T06:44:44.000Z</time>
      </trkpt>
      <trkpt lat="46.56054" lon="0.21111">
        <ele>122.40000152588</ele>
        <time>2019-05-12T06:44:45.000Z</time>
      </trkpt>
      <trkpt lat="46.56048" lon="0.21118">
        <ele>122.80000305176</ele>
        <time>2019-05-12T06:44:48.000Z</time>
      </trkpt>
      <trkpt lat="46.56046" lon="0.2112">
        <ele>122.80000305176</ele>
        <time>2019-05-12T06:44:49.000Z</time>
      </trkpt>
      <trkpt lat="46.5604" lon="0.21135">
        <ele>123.19999694824</ele>
        <time>2019-05-12T06:44:54.000Z</time>
      </trkpt>
      <trkpt lat="46.56039" lon="0.21137">
        <ele>123.19999694824</ele>
        <time>2019-05-12T06:44:55.000Z</time>
      </trkpt>
      <trkpt lat="46.56034" lon="0.21144">
        <ele>124</ele>
        <time>2019-05-12T06:44:58.000Z</time>
      </trkpt>
      <trkpt lat="46.56029" lon="0.21158">
        <ele>124.80000305176</ele>
        <time>2019-05-12T06:45:01.000Z</time>
      </trkpt>
      <trkpt lat="46.56028" lon="0.21162">
        <ele>125</ele>
        <time>2019-05-12T06:45:02.000Z</time>
      </trkpt>
      <trkpt lat="46.56026" lon="0.21165">
        <ele>125.19999694824</ele>
        <time>2019-05-12T06:45:03.000Z</time>
      </trkpt>
      <trkpt lat="46.56019" lon="0.21171">
        <ele>125.80000305176</ele>
        <time>2019-05-12T06:45:07.000Z</time>
      </trkpt>
      <trkpt lat="46.5601" lon="0.21184">
        <ele>124.59999847412</ele>
        <time>2019-05-12T06:45:12.000Z</time>
      </trkpt>
      <trkpt lat="46.56009" lon="0.21188">
        <ele>124.40000152588</ele>
        <time>2019-05-12T06:45:13.000Z</time>
      </trkpt>
      <trkpt lat="46.56004" lon="0.21197">
        <ele>124.40000152588</ele>
        <time>2019-05-12T06:45:16.000Z</time>
      </trkpt>
      <trkpt lat="46.56002" lon="0.21202">
        <ele>124.40000152588</ele>
        <time>2019-05-12T06:45:17.000Z</time>
      </trkpt>
      <trkpt lat="46.55995" lon="0.21216">
        <ele>124.80000305176</ele>
        <time>2019-05-12T06:45:21.000Z</time>
      </trkpt>
      <trkpt lat="46.55989" lon="0.21223">
        <ele>126</ele>
        <time>2019-05-12T06:45:24.000Z</time>
      </trkpt>
      <trkpt lat="46.55988" lon="0.21223">
        <ele>126.40000152588</ele>
        <time>2019-05-12T06:45:25.000Z</time>
      </trkpt>
      <trkpt lat="46.55986" lon="0.21227">
        <ele>127.19999694824</ele>
        <time>2019-05-12T06:45:27.000Z</time>
      </trkpt>
      <trkpt lat="46.55982" lon="0.21234">
        <ele>128.19999694824</ele>
        <time>2019-05-12T06:45:30.000Z</time>
      </trkpt>
      <trkpt lat="46.55979" lon="0.21238">
        <ele>128.60000610352</ele>
        <time>2019-05-12T06:45:32.000Z</time>
      </trkpt>
      <trkpt lat="46.55977" lon="0.21243">
        <ele>129</ele>
        <time>2019-05-12T06:45:35.000Z</time>
      </trkpt>
      <trkpt lat="46.55968" lon="0.21254">
        <ele>129.80000305176</ele>
        <time>2019-05-12T06:45:39.000Z</time>
      </trkpt>
      <trkpt lat="46.55963" lon="0.21261">
        <ele>130.60000610352</ele>
        <time>2019-05-12T06:45:43.000Z</time>
      </trkpt>
      <trkpt lat="46.55959" lon="0.21269">
        <ele>130.80000305176</ele>
        <time>2019-05-12T06:45:45.000Z</time>
      </trkpt>
      <trkpt lat="46.55958" lon="0.21271">
        <ele>131</ele>
        <time>2019-05-12T06:45:46.000Z</time>
      </trkpt>
      <trkpt lat="46.55955" lon="0.21278">
        <ele>131.60000610352</ele>
        <time>2019-05-12T06:45:48.000Z</time>
      </trkpt>
      <trkpt lat="46.55952" lon="0.21287">
        <ele>132</ele>
        <time>2019-05-12T06:45:51.000Z</time>
      </trkpt>
      <trkpt lat="46.5595" lon="0.21291">
        <ele>132.39999389648</ele>
        <time>2019-05-12T06:45:52.000Z</time>
      </trkpt>
      <trkpt lat="46.55948" lon="0.21294">
        <ele>132.60000610352</ele>
        <time>2019-05-12T06:45:53.000Z</time>
      </trkpt>
      <trkpt lat="46.55947" lon="0.21301">
        <ele>132.80000305176</ele>
        <time>2019-05-12T06:45:55.000Z</time>
      </trkpt>
      <trkpt lat="46.55946" lon="0.21313">
        <ele>133.80000305176</ele>
        <time>2019-05-12T06:45:58.000Z</time>
      </trkpt>
      <trkpt lat="46.55946" lon="0.21318">
        <ele>134</ele>
        <time>2019-05-12T06:45:59.000Z</time>
      </trkpt>
      <trkpt lat="46.55946" lon="0.21323">
        <ele>134</ele>
        <time>2019-05-12T06:46:00.000Z</time>
      </trkpt>
      <trkpt lat="46.55945" lon="0.21325">
        <ele>134</ele>
        <time>2019-05-12T06:46:01.000Z</time>
      </trkpt>
      <trkpt lat="46.55942" lon="0.21327">
        <ele>134.39999389648</ele>
        <time>2019-05-12T06:46:03.000Z</time>
      </trkpt>
      <trkpt lat="46.55933" lon="0.2134">
        <ele>135</ele>
        <time>2019-05-12T06:46:08.000Z</time>
      </trkpt>
      <trkpt lat="46.55929" lon="0.21352">
        <ele>134.80000305176</ele>
        <time>2019-05-12T06:46:13.000Z</time>
      </trkpt>
      <trkpt lat="46.55927" lon="0.21355">
        <ele>135</ele>
        <time>2019-05-12T06:46:15.000Z</time>
      </trkpt>
      <trkpt lat="46.55924" lon="0.21359">
        <ele>135</ele>
        <time>2019-05-12T06:46:17.000Z</time>
      </trkpt>
      <trkpt lat="46.55919" lon="0.21357">
        <ele>134.60000610352</ele>
        <time>2019-05-12T06:46:22.000Z</time>
      </trkpt>
      <trkpt lat="46.55917" lon="0.21354">
        <ele>134.39999389648</ele>
        <time>2019-05-12T06:46:25.000Z</time>
      </trkpt>
      <trkpt lat="46.55917" lon="0.21352">
        <ele>134.19999694824</ele>
        <time>2019-05-12T06:46:26.000Z</time>
      </trkpt>
      <trkpt lat="46.55916" lon="0.21351">
        <ele>133.80000305176</ele>
        <time>2019-05-12T06:46:27.000Z</time>
      </trkpt>
      <trkpt lat="46.55907" lon="0.21343">
        <ele>133.19999694824</ele>
        <time>2019-05-12T06:46:31.000Z</time>
      </trkpt>
      <trkpt lat="46.55903" lon="0.21341">
        <ele>133</ele>
        <time>2019-05-12T06:46:32.000Z</time>
      </trkpt>
      <trkpt lat="46.55896" lon="0.21327">
        <ele>132.39999389648</ele>
        <time>2019-05-12T06:46:35.000Z</time>
      </trkpt>
      <trkpt lat="46.55894" lon="0.21321">
        <ele>131.80000305176</ele>
        <time>2019-05-12T06:46:36.000Z</time>
      </trkpt>
      <trkpt lat="46.5589" lon="0.21314">
        <ele>129.60000610352</ele>
        <time>2019-05-12T06:46:38.000Z</time>
      </trkpt>
      <trkpt lat="46.55888" lon="0.21311">
        <ele>128.60000610352</ele>
        <time>2019-05-12T06:46:39.000Z</time>
      </trkpt>
      <trkpt lat="46.55882" lon="0.21305">
        <ele>127.19999694824</ele>
        <time>2019-05-12T06:46:41.000Z</time>
      </trkpt>
      <trkpt lat="46.55879" lon="0.21303">
        <ele>126.80000305176</ele>
        <time>2019-05-12T06:46:42.000Z</time>
      </trkpt>
      <trkpt lat="46.55876" lon="0.21303">
        <ele>126.19999694824</ele>
        <time>2019-05-12T06:46:43.000Z</time>
      </trkpt>
      <trkpt lat="46.55869" lon="0.21304">
        <ele>124.80000305176</ele>
        <time>2019-05-12T06:46:45.000Z</time>
      </trkpt>
      <trkpt lat="46.55865" lon="0.21306">
        <ele>124.59999847412</ele>
        <time>2019-05-12T06:46:46.000Z</time>
      </trkpt>
      <trkpt lat="46.55859" lon="0.21306">
        <ele>123.80000305176</ele>
        <time>2019-05-12T06:46:48.000Z</time>
      </trkpt>
      <trkpt lat="46.55851" lon="0.21305">
        <ele>123.19999694824</ele>
        <time>2019-05-12T06:46:50.000Z</time>
      </trkpt>
      <trkpt lat="46.55849" lon="0.21304">
        <ele>122.59999847412</ele>
        <time>2019-05-12T06:46:51.000Z</time>
      </trkpt>
      <trkpt lat="46.55851" lon="0.21304">
        <ele>122.40000152588</ele>
        <time>2019-05-12T06:46:52.000Z</time>
      </trkpt>
      <trkpt lat="46.55853" lon="0.21302">
        <ele>122</ele>
        <time>2019-05-12T06:46:53.000Z</time>
      </trkpt>
      <trkpt lat="46.55854" lon="0.21301">
        <ele>121.59999847412</ele>
        <time>2019-05-12T06:46:56.000Z</time>
      </trkpt>
      <trkpt lat="46.55857" lon="0.21299">
        <ele>121.19999694824</ele>
        <time>2019-05-12T06:47:06.000Z</time>
      </trkpt>
      <trkpt lat="46.55858" lon="0.21298">
        <ele>121.19999694824</ele>
        <time>2019-05-12T06:47:07.000Z</time>
      </trkpt>
      <trkpt lat="46.55864" lon="0.21292">
        <ele>121</ele>
        <time>2019-05-12T06:47:10.000Z</time>
      </trkpt>
      <trkpt lat="46.55866" lon="0.21291">
        <ele>121</ele>
        <time>2019-05-12T06:47:11.000Z</time>
      </trkpt>
      <trkpt lat="46.55872" lon="0.21284">
        <ele>120.19999694824</ele>
        <time>2019-05-12T06:47:14.000Z</time>
      </trkpt>
      <trkpt lat="46.55874" lon="0.21283">
        <ele>120.19999694824</ele>
        <time>2019-05-12T06:47:15.000Z</time>
      </trkpt>
      <trkpt lat="46.55878" lon="0.21277">
        <ele>120</ele>
        <time>2019-05-12T06:47:17.000Z</time>
      </trkpt>
      <trkpt lat="46.55881" lon="0.21272">
        <ele>119.80000305176</ele>
        <time>2019-05-12T06:47:19.000Z</time>
      </trkpt>
      <trkpt lat="46.55893" lon="0.21259">
        <ele>119.40000152588</ele>
        <time>2019-05-12T06:47:24.000Z</time>
      </trkpt>
      <trkpt lat="46.55899" lon="0.21254">
        <ele>119.19999694824</ele>
        <time>2019-05-12T06:47:26.000Z</time>
      </trkpt>
      <trkpt lat="46.55901" lon="0.21251">
        <ele>118.80000305176</ele>
        <time>2019-05-12T06:47:27.000Z</time>
      </trkpt>
      <trkpt lat="46.55901" lon="0.21248">
        <ele>118.40000152588</ele>
        <time>2019-05-12T06:47:28.000Z</time>
      </trkpt>
      <trkpt lat="46.55899" lon="0.21238">
        <ele>118</ele>
        <time>2019-05-12T06:47:31.000Z</time>
      </trkpt>
      <trkpt lat="46.55898" lon="0.21235">
        <ele>118.40000152588</ele>
        <time>2019-05-12T06:47:32.000Z</time>
      </trkpt>
      <trkpt lat="46.55898" lon="0.21229">
        <ele>119.19999694824</ele>
        <time>2019-05-12T06:47:34.000Z</time>
      </trkpt>
      <trkpt lat="46.55897" lon="0.21226">
        <ele>119.59999847412</ele>
        <time>2019-05-12T06:47:35.000Z</time>
      </trkpt>
      <trkpt lat="46.55896" lon="0.21223">
        <ele>119.80000305176</ele>
        <time>2019-05-12T06:47:36.000Z</time>
      </trkpt>
      <trkpt lat="46.55895" lon="0.21222">
        <ele>120.19999694824</ele>
        <time>2019-05-12T06:47:37.000Z</time>
      </trkpt>
      <trkpt lat="46.5589" lon="0.21219">
        <ele>121.19999694824</ele>
        <time>2019-05-12T06:47:40.000Z</time>
      </trkpt>
      <trkpt lat="46.55885" lon="0.21218">
        <ele>121.59999847412</ele>
        <time>2019-05-12T06:47:42.000Z</time>
      </trkpt>
      <trkpt lat="46.55878" lon="0.21215">
        <ele>122.40000152588</ele>
        <time>2019-05-12T06:47:45.000Z</time>
      </trkpt>
      <trkpt lat="46.55876" lon="0.21216">
        <ele>122.80000305176</ele>
        <time>2019-05-12T06:47:46.000Z</time>
      </trkpt>
      <trkpt lat="46.55868" lon="0.21221">
        <ele>123.59999847412</ele>
        <time>2019-05-12T06:47:50.000Z</time>
      </trkpt>
      <trkpt lat="46.55865" lon="0.2122">
        <ele>124</ele>
        <time>2019-05-12T06:47:51.000Z</time>
      </trkpt>
      <trkpt lat="46.55864" lon="0.21218">
        <ele>124.40000152588</ele>
        <time>2019-05-12T06:47:52.000Z</time>
      </trkpt>
      <trkpt lat="46.55862" lon="0.21216">
        <ele>125</ele>
        <time>2019-05-12T06:47:53.000Z</time>
      </trkpt>
      <trkpt lat="46.55858" lon="0.2121">
        <ele>126.19999694824</ele>
        <time>2019-05-12T06:47:56.000Z</time>
      </trkpt>
      <trkpt lat="46.55857" lon="0.21208">
        <ele>127</ele>
        <time>2019-05-12T06:47:57.000Z</time>
      </trkpt>
      <trkpt lat="46.55855" lon="0.21205">
        <ele>127.40000152588</ele>
        <time>2019-05-12T06:47:58.000Z</time>
      </trkpt>
      <trkpt lat="46.55848" lon="0.21197">
        <ele>128.60000610352</ele>
        <time>2019-05-12T06:48:01.000Z</time>
      </trkpt>
      <trkpt lat="46.55846" lon="0.21197">
        <ele>129</ele>
        <time>2019-05-12T06:48:02.000Z</time>
      </trkpt>
      <trkpt lat="46.55841" lon="0.21195">
        <ele>130</ele>
        <time>2019-05-12T06:48:05.000Z</time>
      </trkpt>
      <trkpt lat="46.55839" lon="0.21193">
        <ele>130.19999694824</ele>
        <time>2019-05-12T06:48:06.000Z</time>
      </trkpt>
      <trkpt lat="46.55834" lon="0.21185">
        <ele>131.19999694824</ele>
        <time>2019-05-12T06:48:09.000Z</time>
      </trkpt>
      <trkpt lat="46.55833" lon="0.21181">
        <ele>131.39999389648</ele>
        <time>2019-05-12T06:48:10.000Z</time>
      </trkpt>
      <trkpt lat="46.55836" lon="0.21173">
        <ele>131.60000610352</ele>
        <time>2019-05-12T06:48:13.000Z</time>
      </trkpt>
      <trkpt lat="46.55843" lon="0.21169">
        <ele>131.80000305176</ele>
        <time>2019-05-12T06:48:17.000Z</time>
      </trkpt>
      <trkpt lat="46.55846" lon="0.21152">
        <ele>132</ele>
        <time>2019-05-12T06:48:22.000Z</time>
      </trkpt>
      <trkpt lat="46.55847" lon="0.21149">
        <ele>132.19999694824</ele>
        <time>2019-05-12T06:48:23.000Z</time>
      </trkpt>
      <trkpt lat="46.5585" lon="0.21146">
        <ele>132.19999694824</ele>
        <time>2019-05-12T06:48:25.000Z</time>
      </trkpt>
      <trkpt lat="46.55852" lon="0.21134">
        <ele>132</ele>
        <time>2019-05-12T06:48:28.000Z</time>
      </trkpt>
      <trkpt lat="46.55855" lon="0.21126">
        <ele>132.19999694824</ele>
        <time>2019-05-12T06:48:31.000Z</time>
      </trkpt>
      <trkpt lat="46.55857" lon="0.21125">
        <ele>132.19999694824</ele>
        <time>2019-05-12T06:48:32.000Z</time>
      </trkpt>
      <trkpt lat="46.5587" lon="0.2112">
        <ele>132</ele>
        <time>2019-05-12T06:48:36.000Z</time>
      </trkpt>
      <trkpt lat="46.55878" lon="0.21113">
        <ele>131.60000610352</ele>
        <time>2019-05-12T06:48:39.000Z</time>
      </trkpt>
      <trkpt lat="46.55879" lon="0.2111">
        <ele>131.39999389648</ele>
        <time>2019-05-12T06:48:40.000Z</time>
      </trkpt>
      <trkpt lat="46.55879" lon="0.21099">
        <ele>131.39999389648</ele>
        <time>2019-05-12T06:48:43.000Z</time>
      </trkpt>
      <trkpt lat="46.55882" lon="0.21088">
        <ele>131.39999389648</ele>
        <time>2019-05-12T06:48:46.000Z</time>
      </trkpt>
      <trkpt lat="46.55887" lon="0.21072">
        <ele>131.80000305176</ele>
        <time>2019-05-12T06:48:50.000Z</time>
      </trkpt>
      <trkpt lat="46.55894" lon="0.21058">
        <ele>131.19999694824</ele>
        <time>2019-05-12T06:48:54.000Z</time>
      </trkpt>
      <trkpt lat="46.55891" lon="0.21046">
        <ele>130.80000305176</ele>
        <time>2019-05-12T06:48:57.000Z</time>
      </trkpt>
      <trkpt lat="46.55886" lon="0.21032">
        <ele>131.39999389648</ele>
        <time>2019-05-12T06:49:01.000Z</time>
      </trkpt>
      <trkpt lat="46.55881" lon="0.21018">
        <ele>131.80000305176</ele>
        <time>2019-05-12T06:49:05.000Z</time>
      </trkpt>
      <trkpt lat="46.5588" lon="0.21015">
        <ele>131.80000305176</ele>
        <time>2019-05-12T06:49:06.000Z</time>
      </trkpt>
      <trkpt lat="46.55879" lon="0.21005">
        <ele>131.80000305176</ele>
        <time>2019-05-12T06:49:08.000Z</time>
      </trkpt>
      <trkpt lat="46.55877" lon="0.20998">
        <ele>131.80000305176</ele>
        <time>2019-05-12T06:49:10.000Z</time>
      </trkpt>
      <trkpt lat="46.55872" lon="0.20993">
        <ele>131.80000305176</ele>
        <time>2019-05-12T06:49:13.000Z</time>
      </trkpt>
      <trkpt lat="46.55862" lon="0.20996">
        <ele>132.39999389648</ele>
        <time>2019-05-12T06:49:17.000Z</time>
      </trkpt>
      <trkpt lat="46.55859" lon="0.20996">
        <ele>132.60000610352</ele>
        <time>2019-05-12T06:49:18.000Z</time>
      </trkpt>
      <trkpt lat="46.55847" lon="0.20994">
        <ele>133.19999694824</ele>
        <time>2019-05-12T06:49:22.000Z</time>
      </trkpt>
      <trkpt lat="46.55844" lon="0.20993">
        <ele>133.19999694824</ele>
        <time>2019-05-12T06:49:23.000Z</time>
      </trkpt>
      <trkpt lat="46.55835" lon="0.20995">
        <ele>133.39999389648</ele>
        <time>2019-05-12T06:49:26.000Z</time>
      </trkpt>
      <trkpt lat="46.5583" lon="0.20995">
        <ele>133.60000610352</ele>
        <time>2019-05-12T06:49:28.000Z</time>
      </trkpt>
      <trkpt lat="46.55827" lon="0.2099">
        <ele>133.80000305176</ele>
        <time>2019-05-12T06:49:30.000Z</time>
      </trkpt>
      <trkpt lat="46.55819" lon="0.20985">
        <ele>134</ele>
        <time>2019-05-12T06:49:33.000Z</time>
      </trkpt>
      <trkpt lat="46.55817" lon="0.20984">
        <ele>133.80000305176</ele>
        <time>2019-05-12T06:49:35.000Z</time>
      </trkpt>
      <trkpt lat="46.55818" lon="0.20975">
        <ele>133.60000610352</ele>
        <time>2019-05-12T06:49:39.000Z</time>
      </trkpt>
      <trkpt lat="46.55817" lon="0.20969">
        <ele>133.39999389648</ele>
        <time>2019-05-12T06:49:41.000Z</time>
      </trkpt>
      <trkpt lat="46.55813" lon="0.20961">
        <ele>133.39999389648</ele>
        <time>2019-05-12T06:49:43.000Z</time>
      </trkpt>
      <trkpt lat="46.55807" lon="0.20952">
        <ele>132.80000305176</ele>
        <time>2019-05-12T06:49:46.000Z</time>
      </trkpt>
      <trkpt lat="46.55806" lon="0.20951">
        <ele>132.60000610352</ele>
        <time>2019-05-12T06:49:47.000Z</time>
      </trkpt>
      <trkpt lat="46.55806" lon="0.20948">
        <ele>132.60000610352</ele>
        <time>2019-05-12T06:49:48.000Z</time>
      </trkpt>
      <trkpt lat="46.55804" lon="0.20948">
        <ele>132.60000610352</ele>
        <time>2019-05-12T06:49:49.000Z</time>
      </trkpt>
      <trkpt lat="46.55799" lon="0.20942">
        <ele>132.60000610352</ele>
        <time>2019-05-12T06:49:56.000Z</time>
      </trkpt>
      <trkpt lat="46.55798" lon="0.20935">
        <ele>132.19999694824</ele>
        <time>2019-05-12T06:49:58.000Z</time>
      </trkpt>
      <trkpt lat="46.55791" lon="0.20919">
        <ele>132</ele>
        <time>2019-05-12T06:50:02.000Z</time>
      </trkpt>
      <trkpt lat="46.5579" lon="0.2091">
        <ele>131.60000610352</ele>
        <time>2019-05-12T06:50:04.000Z</time>
      </trkpt>
      <trkpt lat="46.5579" lon="0.20904">
        <ele>131</ele>
        <time>2019-05-12T06:50:06.000Z</time>
      </trkpt>
      <trkpt lat="46.55787" lon="0.20895">
        <ele>130.39999389648</ele>
        <time>2019-05-12T06:50:08.000Z</time>
      </trkpt>
      <trkpt lat="46.55786" lon="0.2089">
        <ele>130.19999694824</ele>
        <time>2019-05-12T06:50:09.000Z</time>
      </trkpt>
      <trkpt lat="46.55786" lon="0.20885">
        <ele>129.80000305176</ele>
        <time>2019-05-12T06:50:10.000Z</time>
      </trkpt>
      <trkpt lat="46.55786" lon="0.2088">
        <ele>129.39999389648</ele>
        <time>2019-05-12T06:50:11.000Z</time>
      </trkpt>
      <trkpt lat="46.55785" lon="0.20876">
        <ele>128.60000610352</ele>
        <time>2019-05-12T06:50:12.000Z</time>
      </trkpt>
      <trkpt lat="46.55786" lon="0.20873">
        <ele>127.80000305176</ele>
        <time>2019-05-12T06:50:13.000Z</time>
      </trkpt>
      <trkpt lat="46.5579" lon="0.20865">
        <ele>126.19999694824</ele>
        <time>2019-05-12T06:50:16.000Z</time>
      </trkpt>
      <trkpt lat="46.5579" lon="0.20864">
        <ele>125.80000305176</ele>
        <time>2019-05-12T06:50:17.000Z</time>
      </trkpt>
      <trkpt lat="46.55796" lon="0.20861">
        <ele>125.19999694824</ele>
        <time>2019-05-12T06:50:30.000Z</time>
      </trkpt>
      <trkpt lat="46.558" lon="0.20862">
        <ele>125.19999694824</ele>
        <time>2019-05-12T06:50:32.000Z</time>
      </trkpt>
      <trkpt lat="46.55807" lon="0.20869">
        <ele>125.19999694824</ele>
        <time>2019-05-12T06:50:35.000Z</time>
      </trkpt>
      <trkpt lat="46.55809" lon="0.20872">
        <ele>125.59999847412</ele>
        <time>2019-05-12T06:50:36.000Z</time>
      </trkpt>
      <trkpt lat="46.55816" lon="0.20877">
        <ele>126.19999694824</ele>
        <time>2019-05-12T06:50:39.000Z</time>
      </trkpt>
      <trkpt lat="46.55818" lon="0.20879">
        <ele>126.40000152588</ele>
        <time>2019-05-12T06:50:40.000Z</time>
      </trkpt>
      <trkpt lat="46.55825" lon="0.20887">
        <ele>126.40000152588</ele>
        <time>2019-05-12T06:50:43.000Z</time>
      </trkpt>
      <trkpt lat="46.55828" lon="0.20889">
        <ele>126.40000152588</ele>
        <time>2019-05-12T06:50:44.000Z</time>
      </trkpt>
      <trkpt lat="46.55838" lon="0.20899">
        <ele>126.40000152588</ele>
        <time>2019-05-12T06:50:48.000Z</time>
      </trkpt>
      <trkpt lat="46.55849" lon="0.20903">
        <ele>126.59999847412</ele>
        <time>2019-05-12T06:50:51.000Z</time>
      </trkpt>
      <trkpt lat="46.55853" lon="0.20904">
        <ele>126.40000152588</ele>
        <time>2019-05-12T06:50:52.000Z</time>
      </trkpt>
      <trkpt lat="46.55868" lon="0.20912">
        <ele>126</ele>
        <time>2019-05-12T06:50:56.000Z</time>
      </trkpt>
      <trkpt lat="46.5588" lon="0.20919">
        <ele>125.40000152588</ele>
        <time>2019-05-12T06:51:00.000Z</time>
      </trkpt>
      <trkpt lat="46.55894" lon="0.20917">
        <ele>124.80000305176</ele>
        <time>2019-05-12T06:51:03.000Z</time>
      </trkpt>
      <trkpt lat="46.55899" lon="0.20915">
        <ele>124.19999694824</ele>
        <time>2019-05-12T06:51:04.000Z</time>
      </trkpt>
      <trkpt lat="46.55903" lon="0.20917">
        <ele>123.59999847412</ele>
        <time>2019-05-12T06:51:05.000Z</time>
      </trkpt>
      <trkpt lat="46.55906" lon="0.2092">
        <ele>123.19999694824</ele>
        <time>2019-05-12T06:51:06.000Z</time>
      </trkpt>
      <trkpt lat="46.55916" lon="0.20925">
        <ele>122.40000152588</ele>
        <time>2019-05-12T06:51:09.000Z</time>
      </trkpt>
      <trkpt lat="46.55929" lon="0.20932">
        <ele>121.19999694824</ele>
        <time>2019-05-12T06:51:13.000Z</time>
      </trkpt>
      <trkpt lat="46.55939" lon="0.2095">
        <ele>120</ele>
        <time>2019-05-12T06:51:17.000Z</time>
      </trkpt>
      <trkpt lat="46.55942" lon="0.20956">
        <ele>119.59999847412</ele>
        <time>2019-05-12T06:51:18.000Z</time>
      </trkpt>
      <trkpt lat="46.55947" lon="0.20962">
        <ele>118.40000152588</ele>
        <time>2019-05-12T06:51:19.000Z</time>
      </trkpt>
      <trkpt lat="46.55955" lon="0.20972">
        <ele>117.19999694824</ele>
        <time>2019-05-12T06:51:21.000Z</time>
      </trkpt>
      <trkpt lat="46.5596" lon="0.20976">
        <ele>114.80000305176</ele>
        <time>2019-05-12T06:51:22.000Z</time>
      </trkpt>
      <trkpt lat="46.55966" lon="0.2098">
        <ele>113.59999847412</ele>
        <time>2019-05-12T06:51:23.000Z</time>
      </trkpt>
      <trkpt lat="46.55971" lon="0.20983">
        <ele>112</ele>
        <time>2019-05-12T06:51:24.000Z</time>
      </trkpt>
      <trkpt lat="46.55977" lon="0.20986">
        <ele>111</ele>
        <time>2019-05-12T06:51:25.000Z</time>
      </trkpt>
      <trkpt lat="46.55982" lon="0.20987">
        <ele>110</ele>
        <time>2019-05-12T06:51:26.000Z</time>
      </trkpt>
      <trkpt lat="46.55987" lon="0.20988">
        <ele>109</ele>
        <time>2019-05-12T06:51:27.000Z</time>
      </trkpt>
      <trkpt lat="46.5599" lon="0.20988">
        <ele>108</ele>
        <time>2019-05-12T06:51:28.000Z</time>
      </trkpt>
      <trkpt lat="46.55993" lon="0.20987">
        <ele>106.80000305176</ele>
        <time>2019-05-12T06:51:29.000Z</time>
      </trkpt>
      <trkpt lat="46.55994" lon="0.20984">
        <ele>105</ele>
        <time>2019-05-12T06:51:30.000Z</time>
      </trkpt>
      <trkpt lat="46.55996" lon="0.20979">
        <ele>103.59999847412</ele>
        <time>2019-05-12T06:51:31.000Z</time>
      </trkpt>
      <trkpt lat="46.55996" lon="0.20974">
        <ele>102.59999847412</ele>
        <time>2019-05-12T06:51:32.000Z</time>
      </trkpt>
      <trkpt lat="46.55996" lon="0.20971">
        <ele>101.59999847412</ele>
        <time>2019-05-12T06:51:33.000Z</time>
      </trkpt>
      <trkpt lat="46.55997" lon="0.2097">
        <ele>100.80000305176</ele>
        <time>2019-05-12T06:51:34.000Z</time>
      </trkpt>
      <trkpt lat="46.55997" lon="0.20967">
        <ele>99.800003051758</ele>
        <time>2019-05-12T06:51:37.000Z</time>
      </trkpt>
      <trkpt lat="46.55997" lon="0.20966">
        <ele>99.800003051758</ele>
        <time>2019-05-12T06:51:38.000Z</time>
      </trkpt>
      <trkpt lat="46.55997" lon="0.20962">
        <ele>99.599998474121</ele>
        <time>2019-05-12T06:51:41.000Z</time>
      </trkpt>
      <trkpt lat="46.55994" lon="0.20959">
        <ele>99.599998474121</ele>
        <time>2019-05-12T06:51:43.000Z</time>
      </trkpt>
      <trkpt lat="46.55987" lon="0.20949">
        <ele>99.800003051758</ele>
        <time>2019-05-12T06:51:48.000Z</time>
      </trkpt>
      <trkpt lat="46.55983" lon="0.20943">
        <ele>100</ele>
        <time>2019-05-12T06:51:51.000Z</time>
      </trkpt>
      <trkpt lat="46.55979" lon="0.20937">
        <ele>100.19999694824</ele>
        <time>2019-05-12T06:51:53.000Z</time>
      </trkpt>
      <trkpt lat="46.55969" lon="0.20922">
        <ele>99.599998474121</ele>
        <time>2019-05-12T06:51:57.000Z</time>
      </trkpt>
      <trkpt lat="46.55959" lon="0.20907">
        <ele>99.199996948242</ele>
        <time>2019-05-12T06:52:01.000Z</time>
      </trkpt>
      <trkpt lat="46.55947" lon="0.20891">
        <ele>99.199996948242</ele>
        <time>2019-05-12T06:52:05.000Z</time>
      </trkpt>
      <trkpt lat="46.55943" lon="0.20885">
        <ele>99.199996948242</ele>
        <time>2019-05-12T06:52:06.000Z</time>
      </trkpt>
      <trkpt lat="46.55934" lon="0.20872">
        <ele>99.400001525879</ele>
        <time>2019-05-12T06:52:09.000Z</time>
      </trkpt>
      <trkpt lat="46.55927" lon="0.20849">
        <ele>99.400001525879</ele>
        <time>2019-05-12T06:52:13.000Z</time>
      </trkpt>
      <trkpt lat="46.55923" lon="0.20824">
        <ele>99.400001525879</ele>
        <time>2019-05-12T06:52:17.000Z</time>
      </trkpt>
      <trkpt lat="46.55918" lon="0.20794">
        <ele>100.19999694824</ele>
        <time>2019-05-12T06:52:22.000Z</time>
      </trkpt>
      <trkpt lat="46.55917" lon="0.20784">
        <ele>100.40000152588</ele>
        <time>2019-05-12T06:52:24.000Z</time>
      </trkpt>
      <trkpt lat="46.55917" lon="0.20775">
        <ele>101</ele>
        <time>2019-05-12T06:52:26.000Z</time>
      </trkpt>
      <trkpt lat="46.55918" lon="0.20765">
        <ele>101.59999847412</ele>
        <time>2019-05-12T06:52:29.000Z</time>
      </trkpt>
      <trkpt lat="46.55918" lon="0.20762">
        <ele>102</ele>
        <time>2019-05-12T06:52:30.000Z</time>
      </trkpt>
      <trkpt lat="46.55918" lon="0.20758">
        <ele>102.19999694824</ele>
        <time>2019-05-12T06:52:31.000Z</time>
      </trkpt>
      <trkpt lat="46.55919" lon="0.20753">
        <ele>102.59999847412</ele>
        <time>2019-05-12T06:52:32.000Z</time>
      </trkpt>
      <trkpt lat="46.5592" lon="0.20747">
        <ele>103.19999694824</ele>
        <time>2019-05-12T06:52:34.000Z</time>
      </trkpt>
      <trkpt lat="46.55921" lon="0.20744">
        <ele>103.40000152588</ele>
        <time>2019-05-12T06:52:35.000Z</time>
      </trkpt>
      <trkpt lat="46.55922" lon="0.20738">
        <ele>104.40000152588</ele>
        <time>2019-05-12T06:52:38.000Z</time>
      </trkpt>
      <trkpt lat="46.55924" lon="0.20734">
        <ele>105</ele>
        <time>2019-05-12T06:52:40.000Z</time>
      </trkpt>
      <trkpt lat="46.55925" lon="0.20728">
        <ele>105.59999847412</ele>
        <time>2019-05-12T06:52:42.000Z</time>
      </trkpt>
      <trkpt lat="46.55927" lon="0.20722">
        <ele>106.59999847412</ele>
        <time>2019-05-12T06:52:45.000Z</time>
      </trkpt>
      <trkpt lat="46.55928" lon="0.2072">
        <ele>106.80000305176</ele>
        <time>2019-05-12T06:52:46.000Z</time>
      </trkpt>
      <trkpt lat="46.5593" lon="0.20708">
        <ele>108</ele>
        <time>2019-05-12T06:52:50.000Z</time>
      </trkpt>
      <trkpt lat="46.5593" lon="0.20706">
        <ele>108.40000152588</ele>
        <time>2019-05-12T06:52:51.000Z</time>
      </trkpt>
      <trkpt lat="46.55931" lon="0.20699">
        <ele>108.59999847412</ele>
        <time>2019-05-12T06:52:53.000Z</time>
      </trkpt>
      <trkpt lat="46.55932" lon="0.20696">
        <ele>109.19999694824</ele>
        <time>2019-05-12T06:52:54.000Z</time>
      </trkpt>
      <trkpt lat="46.55933" lon="0.2069">
        <ele>109.59999847412</ele>
        <time>2019-05-12T06:52:56.000Z</time>
      </trkpt>
      <trkpt lat="46.55935" lon="0.20684">
        <ele>110</ele>
        <time>2019-05-12T06:52:58.000Z</time>
      </trkpt>
      <trkpt lat="46.55936" lon="0.20682">
        <ele>110.19999694824</ele>
        <time>2019-05-12T06:52:59.000Z</time>
      </trkpt>
      <trkpt lat="46.55938" lon="0.20679">
        <ele>110.59999847412</ele>
        <time>2019-05-12T06:53:00.000Z</time>
      </trkpt>
      <trkpt lat="46.55942" lon="0.20669">
        <ele>111.19999694824</ele>
        <time>2019-05-12T06:53:04.000Z</time>
      </trkpt>
      <trkpt lat="46.55944" lon="0.20666">
        <ele>111.40000152588</ele>
        <time>2019-05-12T06:53:05.000Z</time>
      </trkpt>
      <trkpt lat="46.55947" lon="0.20661">
        <ele>112.19999694824</ele>
        <time>2019-05-12T06:53:07.000Z</time>
      </trkpt>
      <trkpt lat="46.55949" lon="0.20657">
        <ele>112.59999847412</ele>
        <time>2019-05-12T06:53:09.000Z</time>
      </trkpt>
      <trkpt lat="46.55954" lon="0.20645">
        <ele>113.40000152588</ele>
        <time>2019-05-12T06:53:13.000Z</time>
      </trkpt>
      <trkpt lat="46.55954" lon="0.20629">
        <ele>114.19999694824</ele>
        <time>2019-05-12T06:53:18.000Z</time>
      </trkpt>
      <trkpt lat="46.55954" lon="0.20625">
        <ele>114.59999847412</ele>
        <time>2019-05-12T06:53:19.000Z</time>
      </trkpt>
      <trkpt lat="46.55954" lon="0.20619">
        <ele>114.80000305176</ele>
        <time>2019-05-12T06:53:21.000Z</time>
      </trkpt>
      <trkpt lat="46.55954" lon="0.20612">
        <ele>115</ele>
        <time>2019-05-12T06:53:23.000Z</time>
      </trkpt>
      <trkpt lat="46.55953" lon="0.20609">
        <ele>115</ele>
        <time>2019-05-12T06:53:24.000Z</time>
      </trkpt>
      <trkpt lat="46.55949" lon="0.206">
        <ele>115.19999694824</ele>
        <time>2019-05-12T06:53:27.000Z</time>
      </trkpt>
      <trkpt lat="46.55946" lon="0.20593">
        <ele>115.80000305176</ele>
        <time>2019-05-12T06:53:29.000Z</time>
      </trkpt>
      <trkpt lat="46.55944" lon="0.2059">
        <ele>116.40000152588</ele>
        <time>2019-05-12T06:53:30.000Z</time>
      </trkpt>
      <trkpt lat="46.55938" lon="0.20583">
        <ele>116.80000305176</ele>
        <time>2019-05-12T06:53:34.000Z</time>
      </trkpt>
      <trkpt lat="46.55931" lon="0.20576">
        <ele>117.19999694824</ele>
        <time>2019-05-12T06:53:37.000Z</time>
      </trkpt>
      <trkpt lat="46.55929" lon="0.20574">
        <ele>117.40000152588</ele>
        <time>2019-05-12T06:53:38.000Z</time>
      </trkpt>
      <trkpt lat="46.55927" lon="0.20572">
        <ele>117.59999847412</ele>
        <time>2019-05-12T06:53:39.000Z</time>
      </trkpt>
      <trkpt lat="46.55922" lon="0.2057">
        <ele>118.59999847412</ele>
        <time>2019-05-12T06:53:42.000Z</time>
      </trkpt>
      <trkpt lat="46.55921" lon="0.20572">
        <ele>119</ele>
        <time>2019-05-12T06:53:44.000Z</time>
      </trkpt>
      <trkpt lat="46.55917" lon="0.20586">
        <ele>119.59999847412</ele>
        <time>2019-05-12T06:53:50.000Z</time>
      </trkpt>
      <trkpt lat="46.55917" lon="0.20588">
        <ele>119.59999847412</ele>
        <time>2019-05-12T06:53:51.000Z</time>
      </trkpt>
      <trkpt lat="46.55913" lon="0.20597">
        <ele>120.40000152588</ele>
        <time>2019-05-12T06:53:55.000Z</time>
      </trkpt>
      <trkpt lat="46.55911" lon="0.206">
        <ele>120.80000305176</ele>
        <time>2019-05-12T06:53:56.000Z</time>
      </trkpt>
      <trkpt lat="46.55907" lon="0.20606">
        <ele>122.19999694824</ele>
        <time>2019-05-12T06:53:59.000Z</time>
      </trkpt>
      <trkpt lat="46.55904" lon="0.20608">
        <ele>123</ele>
        <time>2019-05-12T06:54:01.000Z</time>
      </trkpt>
      <trkpt lat="46.55903" lon="0.20611">
        <ele>123.19999694824</ele>
        <time>2019-05-12T06:54:02.000Z</time>
      </trkpt>
      <trkpt lat="46.55895" lon="0.20622">
        <ele>124</ele>
        <time>2019-05-12T06:54:07.000Z</time>
      </trkpt>
      <trkpt lat="46.55889" lon="0.20629">
        <ele>124.40000152588</ele>
        <time>2019-05-12T06:54:10.000Z</time>
      </trkpt>
      <trkpt lat="46.55885" lon="0.20632">
        <ele>124.40000152588</ele>
        <time>2019-05-12T06:54:12.000Z</time>
      </trkpt>
      <trkpt lat="46.55873" lon="0.20641">
        <ele>124.40000152588</ele>
        <time>2019-05-12T06:54:17.000Z</time>
      </trkpt>
      <trkpt lat="46.55869" lon="0.20644">
        <ele>124.40000152588</ele>
        <time>2019-05-12T06:54:19.000Z</time>
      </trkpt>
      <trkpt lat="46.55862" lon="0.20645">
        <ele>124.40000152588</ele>
        <time>2019-05-12T06:54:21.000Z</time>
      </trkpt>
      <trkpt lat="46.55856" lon="0.20647">
        <ele>124.40000152588</ele>
        <time>2019-05-12T06:54:23.000Z</time>
      </trkpt>
      <trkpt lat="46.55847" lon="0.20653">
        <ele>124</ele>
        <time>2019-05-12T06:54:26.000Z</time>
      </trkpt>
      <trkpt lat="46.55832" lon="0.2066">
        <ele>123.19999694824</ele>
        <time>2019-05-12T06:54:31.000Z</time>
      </trkpt>
      <trkpt lat="46.55828" lon="0.20661">
        <ele>123</ele>
        <time>2019-05-12T06:54:32.000Z</time>
      </trkpt>
      <trkpt lat="46.55821" lon="0.2066">
        <ele>122.40000152588</ele>
        <time>2019-05-12T06:54:34.000Z</time>
      </trkpt>
      <trkpt lat="46.55815" lon="0.20658">
        <ele>122.19999694824</ele>
        <time>2019-05-12T06:54:36.000Z</time>
      </trkpt>
      <trkpt lat="46.55812" lon="0.20658">
        <ele>122.19999694824</ele>
        <time>2019-05-12T06:54:37.000Z</time>
      </trkpt>
      <trkpt lat="46.55803" lon="0.20658">
        <ele>122</ele>
        <time>2019-05-12T06:54:39.000Z</time>
      </trkpt>
      <trkpt lat="46.55795" lon="0.20653">
        <ele>122</ele>
        <time>2019-05-12T06:54:42.000Z</time>
      </trkpt>
      <trkpt lat="46.55784" lon="0.20655">
        <ele>122</ele>
        <time>2019-05-12T06:54:46.000Z</time>
      </trkpt>
      <trkpt lat="46.55776" lon="0.2065">
        <ele>122.19999694824</ele>
        <time>2019-05-12T06:54:50.000Z</time>
      </trkpt>
      <trkpt lat="46.55766" lon="0.20648">
        <ele>122.40000152588</ele>
        <time>2019-05-12T06:54:53.000Z</time>
      </trkpt>
      <trkpt lat="46.55755" lon="0.20641">
        <ele>122.80000305176</ele>
        <time>2019-05-12T06:54:57.000Z</time>
      </trkpt>
      <trkpt lat="46.55749" lon="0.20635">
        <ele>123.19999694824</ele>
        <time>2019-05-12T06:54:59.000Z</time>
      </trkpt>
      <trkpt lat="46.55743" lon="0.20631">
        <ele>123.59999847412</ele>
        <time>2019-05-12T06:55:01.000Z</time>
      </trkpt>
      <trkpt lat="46.55726" lon="0.20622">
        <ele>123.40000152588</ele>
        <time>2019-05-12T06:55:06.000Z</time>
      </trkpt>
      <trkpt lat="46.55716" lon="0.20614">
        <ele>124</ele>
        <time>2019-05-12T06:55:09.000Z</time>
      </trkpt>
      <trkpt lat="46.55714" lon="0.20611">
        <ele>124.40000152588</ele>
        <time>2019-05-12T06:55:10.000Z</time>
      </trkpt>
      <trkpt lat="46.5571" lon="0.20605">
        <ele>125.40000152588</ele>
        <time>2019-05-12T06:55:13.000Z</time>
      </trkpt>
      <trkpt lat="46.55706" lon="0.206">
        <ele>126.40000152588</ele>
        <time>2019-05-12T06:55:15.000Z</time>
      </trkpt>
      <trkpt lat="46.55701" lon="0.20596">
        <ele>126.59999847412</ele>
        <time>2019-05-12T06:55:17.000Z</time>
      </trkpt>
      <trkpt lat="46.55695" lon="0.20592">
        <ele>127</ele>
        <time>2019-05-12T06:55:20.000Z</time>
      </trkpt>
      <trkpt lat="46.55683" lon="0.20586">
        <ele>126.80000305176</ele>
        <time>2019-05-12T06:55:24.000Z</time>
      </trkpt>
      <trkpt lat="46.55672" lon="0.20585">
        <ele>126.19999694824</ele>
        <time>2019-05-12T06:55:27.000Z</time>
      </trkpt>
      <trkpt lat="46.55669" lon="0.20584">
        <ele>126</ele>
        <time>2019-05-12T06:55:28.000Z</time>
      </trkpt>
      <trkpt lat="46.55666" lon="0.20579">
        <ele>125.40000152588</ele>
        <time>2019-05-12T06:55:30.000Z</time>
      </trkpt>
      <trkpt lat="46.55664" lon="0.20577">
        <ele>125.40000152588</ele>
        <time>2019-05-12T06:55:31.000Z</time>
      </trkpt>
      <trkpt lat="46.55652" lon="0.20578">
        <ele>125</ele>
        <time>2019-05-12T06:55:34.000Z</time>
      </trkpt>
      <trkpt lat="46.5564" lon="0.20582">
        <ele>124</ele>
        <time>2019-05-12T06:55:36.000Z</time>
      </trkpt>
      <trkpt lat="46.55634" lon="0.20582">
        <ele>122.80000305176</ele>
        <time>2019-05-12T06:55:37.000Z</time>
      </trkpt>
      <trkpt lat="46.5563" lon="0.20583">
        <ele>121.80000305176</ele>
        <time>2019-05-12T06:55:38.000Z</time>
      </trkpt>
      <trkpt lat="46.55623" lon="0.20583">
        <ele>120.59999847412</ele>
        <time>2019-05-12T06:55:40.000Z</time>
      </trkpt>
      <trkpt lat="46.5562" lon="0.20581">
        <ele>120.19999694824</ele>
        <time>2019-05-12T06:55:41.000Z</time>
      </trkpt>
      <trkpt lat="46.55614" lon="0.20579">
        <ele>119.59999847412</ele>
        <time>2019-05-12T06:55:43.000Z</time>
      </trkpt>
      <trkpt lat="46.55607" lon="0.20579">
        <ele>119.19999694824</ele>
        <time>2019-05-12T06:55:45.000Z</time>
      </trkpt>
      <trkpt lat="46.55591" lon="0.20577">
        <ele>119</ele>
        <time>2019-05-12T06:55:50.000Z</time>
      </trkpt>
      <trkpt lat="46.55588" lon="0.20577">
        <ele>119</ele>
        <time>2019-05-12T06:55:51.000Z</time>
      </trkpt>
      <trkpt lat="46.55579" lon="0.20578">
        <ele>118.80000305176</ele>
        <time>2019-05-12T06:55:54.000Z</time>
      </trkpt>
      <trkpt lat="46.55578" lon="0.20577">
        <ele>118.40000152588</ele>
        <time>2019-05-12T06:55:56.000Z</time>
      </trkpt>
      <trkpt lat="46.55576" lon="0.20577">
        <ele>118.19999694824</ele>
        <time>2019-05-12T06:55:57.000Z</time>
      </trkpt>
      <trkpt lat="46.5557" lon="0.20582">
        <ele>118</ele>
        <time>2019-05-12T06:56:06.000Z</time>
      </trkpt>
      <trkpt lat="46.55557" lon="0.20593">
        <ele>116.59999847412</ele>
        <time>2019-05-12T06:56:09.000Z</time>
      </trkpt>
      <trkpt lat="46.55553" lon="0.20594">
        <ele>115.19999694824</ele>
        <time>2019-05-12T06:56:10.000Z</time>
      </trkpt>
      <trkpt lat="46.55543" lon="0.20598">
        <ele>113.19999694824</ele>
        <time>2019-05-12T06:56:12.000Z</time>
      </trkpt>
      <trkpt lat="46.55538" lon="0.206">
        <ele>112</ele>
        <time>2019-05-12T06:56:13.000Z</time>
      </trkpt>
      <trkpt lat="46.55533" lon="0.20603">
        <ele>110.59999847412</ele>
        <time>2019-05-12T06:56:14.000Z</time>
      </trkpt>
      <trkpt lat="46.55529" lon="0.20605">
        <ele>109.59999847412</ele>
        <time>2019-05-12T06:56:15.000Z</time>
      </trkpt>
      <trkpt lat="46.55527" lon="0.20606">
        <ele>108.80000305176</ele>
        <time>2019-05-12T06:56:16.000Z</time>
      </trkpt>
      <trkpt lat="46.55526" lon="0.20606">
        <ele>108.19999694824</ele>
        <time>2019-05-12T06:56:17.000Z</time>
      </trkpt>
      <trkpt lat="46.55521" lon="0.20603">
        <ele>107.59999847412</ele>
        <time>2019-05-12T06:56:20.000Z</time>
      </trkpt>
      <trkpt lat="46.55518" lon="0.20601">
        <ele>108</ele>
        <time>2019-05-12T06:56:21.000Z</time>
      </trkpt>
      <trkpt lat="46.55512" lon="0.20599">
        <ele>108.59999847412</ele>
        <time>2019-05-12T06:56:23.000Z</time>
      </trkpt>
      <trkpt lat="46.55504" lon="0.20599">
        <ele>109</ele>
        <time>2019-05-12T06:56:25.000Z</time>
      </trkpt>
      <trkpt lat="46.5549" lon="0.20604">
        <ele>108.59999847412</ele>
        <time>2019-05-12T06:56:29.000Z</time>
      </trkpt>
      <trkpt lat="46.55485" lon="0.20602">
        <ele>108.19999694824</ele>
        <time>2019-05-12T06:56:31.000Z</time>
      </trkpt>
      <trkpt lat="46.55479" lon="0.20597">
        <ele>107.80000305176</ele>
        <time>2019-05-12T06:56:33.000Z</time>
      </trkpt>
      <trkpt lat="46.55467" lon="0.20586">
        <ele>107.80000305176</ele>
        <time>2019-05-12T06:56:37.000Z</time>
      </trkpt>
      <trkpt lat="46.55453" lon="0.20588">
        <ele>108</ele>
        <time>2019-05-12T06:56:41.000Z</time>
      </trkpt>
      <trkpt lat="46.55435" lon="0.20584">
        <ele>107.80000305176</ele>
        <time>2019-05-12T06:56:45.000Z</time>
      </trkpt>
      <trkpt lat="46.55422" lon="0.20577">
        <ele>108.40000152588</ele>
        <time>2019-05-12T06:56:50.000Z</time>
      </trkpt>
      <trkpt lat="46.55412" lon="0.20563">
        <ele>109</ele>
        <time>2019-05-12T06:56:55.000Z</time>
      </trkpt>
      <trkpt lat="46.55401" lon="0.20542">
        <ele>109.40000152588</ele>
        <time>2019-05-12T06:57:01.000Z</time>
      </trkpt>
      <trkpt lat="46.55399" lon="0.20539">
        <ele>109.59999847412</ele>
        <time>2019-05-12T06:57:02.000Z</time>
      </trkpt>
      <trkpt lat="46.55392" lon="0.20529">
        <ele>110.19999694824</ele>
        <time>2019-05-12T06:57:05.000Z</time>
      </trkpt>
      <trkpt lat="46.55392" lon="0.20527">
        <ele>110.40000152588</ele>
        <time>2019-05-12T06:57:06.000Z</time>
      </trkpt>
      <trkpt lat="46.55389" lon="0.20521">
        <ele>110.80000305176</ele>
        <time>2019-05-12T06:57:08.000Z</time>
      </trkpt>
      <trkpt lat="46.55388" lon="0.20518">
        <ele>110.80000305176</ele>
        <time>2019-05-12T06:57:09.000Z</time>
      </trkpt>
      <trkpt lat="46.55381" lon="0.2051">
        <ele>111.40000152588</ele>
        <time>2019-05-12T06:57:12.000Z</time>
      </trkpt>
      <trkpt lat="46.5538" lon="0.20507">
        <ele>111.40000152588</ele>
        <time>2019-05-12T06:57:13.000Z</time>
      </trkpt>
      <trkpt lat="46.55377" lon="0.20497">
        <ele>111.80000305176</ele>
        <time>2019-05-12T06:57:16.000Z</time>
      </trkpt>
      <trkpt lat="46.55373" lon="0.20482">
        <ele>112.40000152588</ele>
        <time>2019-05-12T06:57:21.000Z</time>
      </trkpt>
      <trkpt lat="46.55367" lon="0.20469">
        <ele>113</ele>
        <time>2019-05-12T06:57:25.000Z</time>
      </trkpt>
      <trkpt lat="46.55365" lon="0.20466">
        <ele>113.40000152588</ele>
        <time>2019-05-12T06:57:26.000Z</time>
      </trkpt>
      <trkpt lat="46.55356" lon="0.20457">
        <ele>114.19999694824</ele>
        <time>2019-05-12T06:57:30.000Z</time>
      </trkpt>
      <trkpt lat="46.55352" lon="0.20451">
        <ele>114.59999847412</ele>
        <time>2019-05-12T06:57:32.000Z</time>
      </trkpt>
      <trkpt lat="46.55348" lon="0.20442">
        <ele>114.80000305176</ele>
        <time>2019-05-12T06:57:35.000Z</time>
      </trkpt>
      <trkpt lat="46.55346" lon="0.2044">
        <ele>115</ele>
        <time>2019-05-12T06:57:36.000Z</time>
      </trkpt>
      <trkpt lat="46.5534" lon="0.20435">
        <ele>115.40000152588</ele>
        <time>2019-05-12T06:57:39.000Z</time>
      </trkpt>
      <trkpt lat="46.55336" lon="0.20429">
        <ele>115.59999847412</ele>
        <time>2019-05-12T06:57:41.000Z</time>
      </trkpt>
      <trkpt lat="46.5533" lon="0.20425">
        <ele>116</ele>
        <time>2019-05-12T06:57:43.000Z</time>
      </trkpt>
      <trkpt lat="46.55328" lon="0.20425">
        <ele>116.40000152588</ele>
        <time>2019-05-12T06:57:44.000Z</time>
      </trkpt>
      <trkpt lat="46.55327" lon="0.20425">
        <ele>116.40000152588</ele>
        <time>2019-05-12T06:57:45.000Z</time>
      </trkpt>
      <trkpt lat="46.55328" lon="0.20419">
        <ele>116.40000152588</ele>
        <time>2019-05-12T06:57:48.000Z</time>
      </trkpt>
      <trkpt lat="46.55327" lon="0.20409">
        <ele>116.19999694824</ele>
        <time>2019-05-12T06:57:50.000Z</time>
      </trkpt>
      <trkpt lat="46.55326" lon="0.20406">
        <ele>115.80000305176</ele>
        <time>2019-05-12T06:57:51.000Z</time>
      </trkpt>
      <trkpt lat="46.55326" lon="0.204">
        <ele>115.19999694824</ele>
        <time>2019-05-12T06:57:53.000Z</time>
      </trkpt>
      <trkpt lat="46.55325" lon="0.20392">
        <ele>115</ele>
        <time>2019-05-12T06:57:55.000Z</time>
      </trkpt>
      <trkpt lat="46.55323" lon="0.20386">
        <ele>115.19999694824</ele>
        <time>2019-05-12T06:57:57.000Z</time>
      </trkpt>
      <trkpt lat="46.55319" lon="0.20376">
        <ele>115.59999847412</ele>
        <time>2019-05-12T06:58:00.000Z</time>
      </trkpt>
      <trkpt lat="46.55313" lon="0.20365">
        <ele>116.40000152588</ele>
        <time>2019-05-12T06:58:04.000Z</time>
      </trkpt>
      <trkpt lat="46.55308" lon="0.20357">
        <ele>117</ele>
        <time>2019-05-12T06:58:07.000Z</time>
      </trkpt>
      <trkpt lat="46.55304" lon="0.2035">
        <ele>117.59999847412</ele>
        <time>2019-05-12T06:58:10.000Z</time>
      </trkpt>
      <trkpt lat="46.55295" lon="0.20339">
        <ele>118.59999847412</ele>
        <time>2019-05-12T06:58:15.000Z</time>
      </trkpt>
      <trkpt lat="46.55292" lon="0.20335">
        <ele>119.19999694824</ele>
        <time>2019-05-12T06:58:17.000Z</time>
      </trkpt>
      <trkpt lat="46.55289" lon="0.20331">
        <ele>119.80000305176</ele>
        <time>2019-05-12T06:58:19.000Z</time>
      </trkpt>
      <trkpt lat="46.55281" lon="0.20323">
        <ele>120.80000305176</ele>
        <time>2019-05-12T06:58:24.000Z</time>
      </trkpt>
      <trkpt lat="46.55279" lon="0.20321">
        <ele>121</ele>
        <time>2019-05-12T06:58:25.000Z</time>
      </trkpt>
      <trkpt lat="46.55272" lon="0.20314">
        <ele>121.80000305176</ele>
        <time>2019-05-12T06:58:29.000Z</time>
      </trkpt>
      <trkpt lat="46.55264" lon="0.20306">
        <ele>122.80000305176</ele>
        <time>2019-05-12T06:58:33.000Z</time>
      </trkpt>
      <trkpt lat="46.55262" lon="0.20304">
        <ele>123.19999694824</ele>
        <time>2019-05-12T06:58:34.000Z</time>
      </trkpt>
      <trkpt lat="46.55254" lon="0.20296">
        <ele>124.40000152588</ele>
        <time>2019-05-12T06:58:39.000Z</time>
      </trkpt>
      <trkpt lat="46.55248" lon="0.20288">
        <ele>125.19999694824</ele>
        <time>2019-05-12T06:58:43.000Z</time>
      </trkpt>
      <trkpt lat="46.55246" lon="0.20287">
        <ele>125.40000152588</ele>
        <time>2019-05-12T06:58:44.000Z</time>
      </trkpt>
      <trkpt lat="46.55242" lon="0.20281">
        <ele>126.59999847412</ele>
        <time>2019-05-12T06:58:47.000Z</time>
      </trkpt>
      <trkpt lat="46.55236" lon="0.20274">
        <ele>127.40000152588</ele>
        <time>2019-05-12T06:58:51.000Z</time>
      </trkpt>
      <trkpt lat="46.55231" lon="0.20268">
        <ele>127.80000305176</ele>
        <time>2019-05-12T06:58:54.000Z</time>
      </trkpt>
      <trkpt lat="46.55227" lon="0.20262">
        <ele>128.60000610352</ele>
        <time>2019-05-12T06:58:57.000Z</time>
      </trkpt>
      <trkpt lat="46.5522" lon="0.20251">
        <ele>129.60000610352</ele>
        <time>2019-05-12T06:59:02.000Z</time>
      </trkpt>
      <trkpt lat="46.55218" lon="0.20246">
        <ele>130</ele>
        <time>2019-05-12T06:59:04.000Z</time>
      </trkpt>
      <trkpt lat="46.55211" lon="0.20234">
        <ele>130.60000610352</ele>
        <time>2019-05-12T06:59:09.000Z</time>
      </trkpt>
      <trkpt lat="46.55207" lon="0.20227">
        <ele>130.80000305176</ele>
        <time>2019-05-12T06:59:12.000Z</time>
      </trkpt>
      <trkpt lat="46.55198" lon="0.20209">
        <ele>131.60000610352</ele>
        <time>2019-05-12T06:59:19.000Z</time>
      </trkpt>
      <trkpt lat="46.55195" lon="0.20202">
        <ele>132.19999694824</ele>
        <time>2019-05-12T06:59:22.000Z</time>
      </trkpt>
      <trkpt lat="46.55192" lon="0.20193">
        <ele>132.60000610352</ele>
        <time>2019-05-12T06:59:26.000Z</time>
      </trkpt>
      <trkpt lat="46.55191" lon="0.20191">
        <ele>132.60000610352</ele>
        <time>2019-05-12T06:59:27.000Z</time>
      </trkpt>
      <trkpt lat="46.55182" lon="0.2017">
        <ele>133.19999694824</ele>
        <time>2019-05-12T06:59:35.000Z</time>
      </trkpt>
      <trkpt lat="46.55182" lon="0.2017">
        <ele>133.39999389648</ele>
        <time>2019-05-12T06:59:36.000Z</time>
      </trkpt>
      <trkpt lat="46.55174" lon="0.20155">
        <ele>134.19999694824</ele>
        <time>2019-05-12T06:59:41.000Z</time>
      </trkpt>
      <trkpt lat="46.55171" lon="0.2015">
        <ele>134.60000610352</ele>
        <time>2019-05-12T06:59:44.000Z</time>
      </trkpt>
      <trkpt lat="46.55154" lon="0.20128">
        <ele>135.39999389648</ele>
        <time>2019-05-12T06:59:53.000Z</time>
      </trkpt>
      <trkpt lat="46.5515" lon="0.20124">
        <ele>135.60000610352</ele>
        <time>2019-05-12T06:59:56.000Z</time>
      </trkpt>
      <trkpt lat="46.55143" lon="0.20115">
        <ele>135.60000610352</ele>
        <time>2019-05-12T06:59:59.000Z</time>
      </trkpt>
      <trkpt lat="46.55126" lon="0.201">
        <ele>136</ele>
        <time>2019-05-12T07:00:07.000Z</time>
      </trkpt>
      <trkpt lat="46.55114" lon="0.2009">
        <ele>136.19999694824</ele>
        <time>2019-05-12T07:00:11.000Z</time>
      </trkpt>
      <trkpt lat="46.55107" lon="0.20085">
        <ele>136.39999389648</ele>
        <time>2019-05-12T07:00:15.000Z</time>
      </trkpt>
      <trkpt lat="46.551" lon="0.20078">
        <ele>136.39999389648</ele>
        <time>2019-05-12T07:00:18.000Z</time>
      </trkpt>
      <trkpt lat="46.55091" lon="0.2007">
        <ele>136.60000610352</ele>
        <time>2019-05-12T07:00:22.000Z</time>
      </trkpt>
      <trkpt lat="46.55084" lon="0.20054">
        <ele>136.80000305176</ele>
        <time>2019-05-12T07:00:27.000Z</time>
      </trkpt>
      <trkpt lat="46.55087" lon="0.20044">
        <ele>136.80000305176</ele>
        <time>2019-05-12T07:00:29.000Z</time>
      </trkpt>
      <trkpt lat="46.55091" lon="0.20039">
        <ele>137</ele>
        <time>2019-05-12T07:00:32.000Z</time>
      </trkpt>
      <trkpt lat="46.55101" lon="0.20031">
        <ele>137.39999389648</ele>
        <time>2019-05-12T07:00:36.000Z</time>
      </trkpt>
      <trkpt lat="46.55106" lon="0.20027">
        <ele>137.60000610352</ele>
        <time>2019-05-12T07:00:38.000Z</time>
      </trkpt>
      <trkpt lat="46.55121" lon="0.20013">
        <ele>137.60000610352</ele>
        <time>2019-05-12T07:00:44.000Z</time>
      </trkpt>
      <trkpt lat="46.55141" lon="0.19996">
        <ele>138</ele>
        <time>2019-05-12T07:00:51.000Z</time>
      </trkpt>
      <trkpt lat="46.55153" lon="0.19987">
        <ele>137.60000610352</ele>
        <time>2019-05-12T07:00:55.000Z</time>
      </trkpt>
      <trkpt lat="46.55159" lon="0.19982">
        <ele>137.39999389648</ele>
        <time>2019-05-12T07:00:57.000Z</time>
      </trkpt>
      <trkpt lat="46.55173" lon="0.19967">
        <ele>137.60000610352</ele>
        <time>2019-05-12T07:01:02.000Z</time>
      </trkpt>
      <trkpt lat="46.5518" lon="0.1996">
        <ele>137.60000610352</ele>
        <time>2019-05-12T07:01:04.000Z</time>
      </trkpt>
      <trkpt lat="46.55198" lon="0.19939">
        <ele>137.80000305176</ele>
        <time>2019-05-12T07:01:10.000Z</time>
      </trkpt>
      <trkpt lat="46.55211" lon="0.19926">
        <ele>137.60000610352</ele>
        <time>2019-05-12T07:01:14.000Z</time>
      </trkpt>
      <trkpt lat="46.55245" lon="0.19891">
        <ele>136.60000610352</ele>
        <time>2019-05-12T07:01:24.000Z</time>
      </trkpt>
      <trkpt lat="46.55267" lon="0.19867">
        <ele>136.39999389648</ele>
        <time>2019-05-12T07:01:29.000Z</time>
      </trkpt>
      <trkpt lat="46.5528" lon="0.19854">
        <ele>135.80000305176</ele>
        <time>2019-05-12T07:01:33.000Z</time>
      </trkpt>
      <trkpt lat="46.55293" lon="0.19841">
        <ele>134.80000305176</ele>
        <time>2019-05-12T07:01:36.000Z</time>
      </trkpt>
      <trkpt lat="46.55308" lon="0.19827">
        <ele>133.60000610352</ele>
        <time>2019-05-12T07:01:39.000Z</time>
      </trkpt>
      <trkpt lat="46.5532" lon="0.19816">
        <ele>132.60000610352</ele>
        <time>2019-05-12T07:01:41.000Z</time>
      </trkpt>
      <trkpt lat="46.55326" lon="0.1981">
        <ele>132</ele>
        <time>2019-05-12T07:01:42.000Z</time>
      </trkpt>
      <trkpt lat="46.55338" lon="0.19799">
        <ele>130.60000610352</ele>
        <time>2019-05-12T07:01:44.000Z</time>
      </trkpt>
      <trkpt lat="46.55349" lon="0.19792">
        <ele>130</ele>
        <time>2019-05-12T07:01:46.000Z</time>
      </trkpt>
      <trkpt lat="46.5536" lon="0.19787">
        <ele>129.60000610352</ele>
        <time>2019-05-12T07:01:48.000Z</time>
      </trkpt>
      <trkpt lat="46.55372" lon="0.19781">
        <ele>129.80000305176</ele>
        <time>2019-05-12T07:01:51.000Z</time>
      </trkpt>
      <trkpt lat="46.55382" lon="0.19776">
        <ele>130.80000305176</ele>
        <time>2019-05-12T07:01:54.000Z</time>
      </trkpt>
      <trkpt lat="46.55392" lon="0.1977">
        <ele>132</ele>
        <time>2019-05-12T07:01:57.000Z</time>
      </trkpt>
      <trkpt lat="46.55402" lon="0.19765">
        <ele>132.80000305176</ele>
        <time>2019-05-12T07:02:00.000Z</time>
      </trkpt>
      <trkpt lat="46.55405" lon="0.19763">
        <ele>133.39999389648</ele>
        <time>2019-05-12T07:02:01.000Z</time>
      </trkpt>
      <trkpt lat="46.55415" lon="0.19757">
        <ele>134</ele>
        <time>2019-05-12T07:02:04.000Z</time>
      </trkpt>
      <trkpt lat="46.55422" lon="0.19753">
        <ele>134.39999389648</ele>
        <time>2019-05-12T07:02:06.000Z</time>
      </trkpt>
      <trkpt lat="46.55435" lon="0.19744">
        <ele>135.39999389648</ele>
        <time>2019-05-12T07:02:10.000Z</time>
      </trkpt>
      <trkpt lat="46.55442" lon="0.19739">
        <ele>136</ele>
        <time>2019-05-12T07:02:12.000Z</time>
      </trkpt>
      <trkpt lat="46.55449" lon="0.19736">
        <ele>136.60000610352</ele>
        <time>2019-05-12T07:02:14.000Z</time>
      </trkpt>
      <trkpt lat="46.55462" lon="0.19729">
        <ele>137.80000305176</ele>
        <time>2019-05-12T07:02:18.000Z</time>
      </trkpt>
      <trkpt lat="46.55469" lon="0.19725">
        <ele>138.19999694824</ele>
        <time>2019-05-12T07:02:20.000Z</time>
      </trkpt>
      <trkpt lat="46.55481" lon="0.19719">
        <ele>138.60000610352</ele>
        <time>2019-05-12T07:02:24.000Z</time>
      </trkpt>
      <trkpt lat="46.55485" lon="0.19717">
        <ele>138.80000305176</ele>
        <time>2019-05-12T07:02:26.000Z</time>
      </trkpt>
      <trkpt lat="46.55492" lon="0.19711">
        <ele>138.80000305176</ele>
        <time>2019-05-12T07:02:31.000Z</time>
      </trkpt>
      <trkpt lat="46.55503" lon="0.19705">
        <ele>139.19999694824</ele>
        <time>2019-05-12T07:02:36.000Z</time>
      </trkpt>
      <trkpt lat="46.55513" lon="0.19698">
        <ele>139.60000610352</ele>
        <time>2019-05-12T07:02:41.000Z</time>
      </trkpt>
      <trkpt lat="46.55514" lon="0.19697">
        <ele>139.60000610352</ele>
        <time>2019-05-12T07:02:43.000Z</time>
      </trkpt>
      <trkpt lat="46.55515" lon="0.19697">
        <ele>139.39999389648</ele>
        <time>2019-05-12T07:02:45.000Z</time>
      </trkpt>
      <trkpt lat="46.55518" lon="0.19695">
        <ele>139.39999389648</ele>
        <time>2019-05-12T07:03:59.000Z</time>
      </trkpt>
      <trkpt lat="46.5552" lon="0.19694">
        <ele>139.39999389648</ele>
        <time>2019-05-12T07:04:00.000Z</time>
      </trkpt>
      <trkpt lat="46.55526" lon="0.19692">
        <ele>139.39999389648</ele>
        <time>2019-05-12T07:04:02.000Z</time>
      </trkpt>
      <trkpt lat="46.55532" lon="0.19689">
        <ele>139.80000305176</ele>
        <time>2019-05-12T07:04:04.000Z</time>
      </trkpt>
      <trkpt lat="46.55536" lon="0.19687">
        <ele>140</ele>
        <time>2019-05-12T07:04:05.000Z</time>
      </trkpt>
      <trkpt lat="46.55549" lon="0.19683">
        <ele>140</ele>
        <time>2019-05-12T07:04:08.000Z</time>
      </trkpt>
      <trkpt lat="46.55567" lon="0.19678">
        <ele>139.80000305176</ele>
        <time>2019-05-12T07:04:12.000Z</time>
      </trkpt>
      <trkpt lat="46.55586" lon="0.19671">
        <ele>139.80000305176</ele>
        <time>2019-05-12T07:04:16.000Z</time>
      </trkpt>
      <trkpt lat="46.55594" lon="0.19665">
        <ele>139.80000305176</ele>
        <time>2019-05-12T07:04:18.000Z</time>
      </trkpt>
      <trkpt lat="46.55598" lon="0.19662">
        <ele>139.80000305176</ele>
        <time>2019-05-12T07:04:19.000Z</time>
      </trkpt>
      <trkpt lat="46.55607" lon="0.19647">
        <ele>139.60000610352</ele>
        <time>2019-05-12T07:04:22.000Z</time>
      </trkpt>
      <trkpt lat="46.5561" lon="0.19635">
        <ele>139.39999389648</ele>
        <time>2019-05-12T07:04:23.000Z</time>
      </trkpt>
      <trkpt lat="46.55611" lon="0.19629">
        <ele>139.19999694824</ele>
        <time>2019-05-12T07:04:25.000Z</time>
      </trkpt>
      <trkpt lat="46.55612" lon="0.1961">
        <ele>139.19999694824</ele>
        <time>2019-05-12T07:04:28.000Z</time>
      </trkpt>
      <trkpt lat="46.55613" lon="0.19598">
        <ele>139.19999694824</ele>
        <time>2019-05-12T07:04:29.000Z</time>
      </trkpt>
      <trkpt lat="46.55617" lon="0.19571">
        <ele>139.60000610352</ele>
        <time>2019-05-12T07:04:35.000Z</time>
      </trkpt>
      <trkpt lat="46.55618" lon="0.19567">
        <ele>139.60000610352</ele>
        <time>2019-05-12T07:04:36.000Z</time>
      </trkpt>
      <trkpt lat="46.55623" lon="0.19562">
        <ele>139.39999389648</ele>
        <time>2019-05-12T07:04:38.000Z</time>
      </trkpt>
      <trkpt lat="46.55635" lon="0.19565">
        <ele>139.39999389648</ele>
        <time>2019-05-12T07:04:41.000Z</time>
      </trkpt>
      <trkpt lat="46.55646" lon="0.19569">
        <ele>140</ele>
        <time>2019-05-12T07:04:44.000Z</time>
      </trkpt>
      <trkpt lat="46.55662" lon="0.19568">
        <ele>140.39999389648</ele>
        <time>2019-05-12T07:04:47.000Z</time>
      </trkpt>
      <trkpt lat="46.55662" lon="0.19568">
        <ele>140.19999694824</ele>
        <time>2019-05-12T07:04:48.000Z</time>
      </trkpt>
      <trkpt lat="46.55674" lon="0.19563">
        <ele>140</ele>
        <time>2019-05-12T07:04:51.000Z</time>
      </trkpt>
      <trkpt lat="46.55688" lon="0.19558">
        <ele>139.80000305176</ele>
        <time>2019-05-12T07:04:53.000Z</time>
      </trkpt>
      <trkpt lat="46.55714" lon="0.19545">
        <ele>140.19999694824</ele>
        <time>2019-05-12T07:04:59.000Z</time>
      </trkpt>
      <trkpt lat="46.55725" lon="0.19531">
        <ele>139.60000610352</ele>
        <time>2019-05-12T07:05:04.000Z</time>
      </trkpt>
      <trkpt lat="46.55739" lon="0.19523">
        <ele>139</ele>
        <time>2019-05-12T07:05:08.000Z</time>
      </trkpt>
      <trkpt lat="46.5576" lon="0.19511">
        <ele>138.19999694824</ele>
        <time>2019-05-12T07:05:14.000Z</time>
      </trkpt>
      <trkpt lat="46.5579" lon="0.195">
        <ele>138.19999694824</ele>
        <time>2019-05-12T07:05:21.000Z</time>
      </trkpt>
      <trkpt lat="46.55795" lon="0.19498">
        <ele>138</ele>
        <time>2019-05-12T07:05:22.000Z</time>
      </trkpt>
      <trkpt lat="46.55822" lon="0.19484">
        <ele>137.80000305176</ele>
        <time>2019-05-12T07:05:28.000Z</time>
      </trkpt>
      <trkpt lat="46.55855" lon="0.19466">
        <ele>137.39999389648</ele>
        <time>2019-05-12T07:05:35.000Z</time>
      </trkpt>
      <trkpt lat="46.5588" lon="0.19455">
        <ele>137.39999389648</ele>
        <time>2019-05-12T07:05:41.000Z</time>
      </trkpt>
      <trkpt lat="46.55893" lon="0.19453">
        <ele>137</ele>
        <time>2019-05-12T07:05:45.000Z</time>
      </trkpt>
      <trkpt lat="46.55897" lon="0.19453">
        <ele>137</ele>
        <time>2019-05-12T07:05:46.000Z</time>
      </trkpt>
      <trkpt lat="46.55907" lon="0.19458">
        <ele>137.19999694824</ele>
        <time>2019-05-12T07:05:49.000Z</time>
      </trkpt>
      <trkpt lat="46.55907" lon="0.19487">
        <ele>137.60000610352</ele>
        <time>2019-05-12T07:05:53.000Z</time>
      </trkpt>
      <trkpt lat="46.55907" lon="0.19487">
        <ele>137.60000610352</ele>
        <time>2019-05-12T07:05:54.000Z</time>
      </trkpt>
      <trkpt lat="46.55908" lon="0.19512">
        <ele>137.60000610352</ele>
        <time>2019-05-12T07:05:58.000Z</time>
      </trkpt>
      <trkpt lat="46.5591" lon="0.19532">
        <ele>137.19999694824</ele>
        <time>2019-05-12T07:06:01.000Z</time>
      </trkpt>
      <trkpt lat="46.55911" lon="0.19538">
        <ele>137.19999694824</ele>
        <time>2019-05-12T07:06:02.000Z</time>
      </trkpt>
      <trkpt lat="46.55915" lon="0.19565">
        <ele>137.39999389648</ele>
        <time>2019-05-12T07:06:06.000Z</time>
      </trkpt>
      <trkpt lat="46.55925" lon="0.19613">
        <ele>137.39999389648</ele>
        <time>2019-05-12T07:06:11.000Z</time>
      </trkpt>
      <trkpt lat="46.55925" lon="0.19613">
        <ele>137.19999694824</ele>
        <time>2019-05-12T07:06:12.000Z</time>
      </trkpt>
      <trkpt lat="46.55932" lon="0.19637">
        <ele>137</ele>
        <time>2019-05-12T07:06:15.000Z</time>
      </trkpt>
      <trkpt lat="46.55941" lon="0.19659">
        <ele>137</ele>
        <time>2019-05-12T07:06:17.000Z</time>
      </trkpt>
      <trkpt lat="46.55941" lon="0.19659">
        <ele>136.80000305176</ele>
        <time>2019-05-12T07:06:18.000Z</time>
      </trkpt>
      <trkpt lat="46.55951" lon="0.19679">
        <ele>136.60000610352</ele>
        <time>2019-05-12T07:06:21.000Z</time>
      </trkpt>
      <trkpt lat="46.55958" lon="0.19699">
        <ele>136.39999389648</ele>
        <time>2019-05-12T07:06:24.000Z</time>
      </trkpt>
      <trkpt lat="46.5596" lon="0.19707">
        <ele>136.39999389648</ele>
        <time>2019-05-12T07:06:25.000Z</time>
      </trkpt>
      <trkpt lat="46.55962" lon="0.1973">
        <ele>136.39999389648</ele>
        <time>2019-05-12T07:06:28.000Z</time>
      </trkpt>
      <trkpt lat="46.55962" lon="0.19744">
        <ele>136.39999389648</ele>
        <time>2019-05-12T07:06:29.000Z</time>
      </trkpt>
      <trkpt lat="46.55963" lon="0.19766">
        <ele>136</ele>
        <time>2019-05-12T07:06:33.000Z</time>
      </trkpt>
      <trkpt lat="46.5597" lon="0.19786">
        <ele>136.60000610352</ele>
        <time>2019-05-12T07:06:35.000Z</time>
      </trkpt>
      <trkpt lat="46.55974" lon="0.19792">
        <ele>136.60000610352</ele>
        <time>2019-05-12T07:06:37.000Z</time>
      </trkpt>
      <trkpt lat="46.55996" lon="0.19818">
        <ele>136.39999389648</ele>
        <time>2019-05-12T07:06:41.000Z</time>
      </trkpt>
      <trkpt lat="46.55996" lon="0.19818">
        <ele>136.19999694824</ele>
        <time>2019-05-12T07:06:42.000Z</time>
      </trkpt>
      <trkpt lat="46.56012" lon="0.1983">
        <ele>135.39999389648</ele>
        <time>2019-05-12T07:06:45.000Z</time>
      </trkpt>
      <trkpt lat="46.56029" lon="0.19837">
        <ele>135.19999694824</ele>
        <time>2019-05-12T07:06:48.000Z</time>
      </trkpt>
      <trkpt lat="46.56062" lon="0.19849">
        <ele>134.80000305176</ele>
        <time>2019-05-12T07:06:53.000Z</time>
      </trkpt>
      <trkpt lat="46.56062" lon="0.19849">
        <ele>134.80000305176</ele>
        <time>2019-05-12T07:06:54.000Z</time>
      </trkpt>
      <trkpt lat="46.56096" lon="0.19851">
        <ele>135</ele>
        <time>2019-05-12T07:06:59.000Z</time>
      </trkpt>
      <trkpt lat="46.56096" lon="0.19851">
        <ele>135</ele>
        <time>2019-05-12T07:07:00.000Z</time>
      </trkpt>
      <trkpt lat="46.5614" lon="0.19839">
        <ele>134.60000610352</ele>
        <time>2019-05-12T07:07:08.000Z</time>
      </trkpt>
      <trkpt lat="46.56156" lon="0.19835">
        <ele>134.39999389648</ele>
        <time>2019-05-12T07:07:10.000Z</time>
      </trkpt>
      <trkpt lat="46.56167" lon="0.19835">
        <ele>134.60000610352</ele>
        <time>2019-05-12T07:07:13.000Z</time>
      </trkpt>
      <trkpt lat="46.56177" lon="0.19836">
        <ele>134.60000610352</ele>
        <time>2019-05-12T07:07:14.000Z</time>
      </trkpt>
      <trkpt lat="46.56188" lon="0.19839">
        <ele>134.60000610352</ele>
        <time>2019-05-12T07:07:16.000Z</time>
      </trkpt>
      <trkpt lat="46.56199" lon="0.19842">
        <ele>134.19999694824</ele>
        <time>2019-05-12T07:07:19.000Z</time>
      </trkpt>
      <trkpt lat="46.56221" lon="0.19852">
        <ele>133.60000610352</ele>
        <time>2019-05-12T07:07:22.000Z</time>
      </trkpt>
      <trkpt lat="46.56232" lon="0.19859">
        <ele>133.19999694824</ele>
        <time>2019-05-12T07:07:25.000Z</time>
      </trkpt>
      <trkpt lat="46.5626" lon="0.19877">
        <ele>132</ele>
        <time>2019-05-12T07:07:29.000Z</time>
      </trkpt>
      <trkpt lat="46.56277" lon="0.19887">
        <ele>131.39999389648</ele>
        <time>2019-05-12T07:07:33.000Z</time>
      </trkpt>
      <trkpt lat="46.56294" lon="0.19896">
        <ele>131.19999694824</ele>
        <time>2019-05-12T07:07:35.000Z</time>
      </trkpt>
      <trkpt lat="46.5631" lon="0.19905">
        <ele>130.80000305176</ele>
        <time>2019-05-12T07:07:39.000Z</time>
      </trkpt>
      <trkpt lat="46.56333" lon="0.19916">
        <ele>130</ele>
        <time>2019-05-12T07:07:43.000Z</time>
      </trkpt>
      <trkpt lat="46.56339" lon="0.19918">
        <ele>129.80000305176</ele>
        <time>2019-05-12T07:07:44.000Z</time>
      </trkpt>
      <trkpt lat="46.56363" lon="0.19926">
        <ele>128.80000305176</ele>
        <time>2019-05-12T07:07:47.000Z</time>
      </trkpt>
      <trkpt lat="46.56381" lon="0.19934">
        <ele>127.80000305176</ele>
        <time>2019-05-12T07:07:51.000Z</time>
      </trkpt>
      <trkpt lat="46.56406" lon="0.19944">
        <ele>126.59999847412</ele>
        <time>2019-05-12T07:07:55.000Z</time>
      </trkpt>
      <trkpt lat="46.56419" lon="0.19949">
        <ele>126.19999694824</ele>
        <time>2019-05-12T07:07:57.000Z</time>
      </trkpt>
      <trkpt lat="46.56441" lon="0.19957">
        <ele>125.59999847412</ele>
        <time>2019-05-12T07:07:59.000Z</time>
      </trkpt>
      <trkpt lat="46.56449" lon="0.19959">
        <ele>124.19999694824</ele>
        <time>2019-05-12T07:08:01.000Z</time>
      </trkpt>
      <trkpt lat="46.56464" lon="0.19963">
        <ele>123.19999694824</ele>
        <time>2019-05-12T07:08:02.000Z</time>
      </trkpt>
      <trkpt lat="46.56464" lon="0.19963">
        <ele>122.80000305176</ele>
        <time>2019-05-12T07:08:03.000Z</time>
      </trkpt>
      <trkpt lat="46.56488" lon="0.19971">
        <ele>122</ele>
        <time>2019-05-12T07:08:06.000Z</time>
      </trkpt>
      <trkpt lat="46.56505" lon="0.19976">
        <ele>121</ele>
        <time>2019-05-12T07:08:08.000Z</time>
      </trkpt>
      <trkpt lat="46.56513" lon="0.19979">
        <ele>120</ele>
        <time>2019-05-12T07:08:09.000Z</time>
      </trkpt>
      <trkpt lat="46.56529" lon="0.19982">
        <ele>118.40000152588</ele>
        <time>2019-05-12T07:08:10.000Z</time>
      </trkpt>
      <trkpt lat="46.56546" lon="0.19984">
        <ele>117.80000305176</ele>
        <time>2019-05-12T07:08:12.000Z</time>
      </trkpt>
      <trkpt lat="46.56563" lon="0.1999">
        <ele>116.59999847412</ele>
        <time>2019-05-12T07:08:14.000Z</time>
      </trkpt>
      <trkpt lat="46.56563" lon="0.1999">
        <ele>115.80000305176</ele>
        <time>2019-05-12T07:08:15.000Z</time>
      </trkpt>
      <trkpt lat="46.56573" lon="0.20007">
        <ele>115.59999847412</ele>
        <time>2019-05-12T07:08:16.000Z</time>
      </trkpt>
      <trkpt lat="46.56577" lon="0.20017">
        <ele>115.19999694824</ele>
        <time>2019-05-12T07:08:17.000Z</time>
      </trkpt>
      <trkpt lat="46.5658" lon="0.20027">
        <ele>114.40000152588</ele>
        <time>2019-05-12T07:08:18.000Z</time>
      </trkpt>
      <trkpt lat="46.56586" lon="0.20047">
        <ele>113</ele>
        <time>2019-05-12T07:08:21.000Z</time>
      </trkpt>
      <trkpt lat="46.566" lon="0.20088">
        <ele>112.59999847412</ele>
        <time>2019-05-12T07:08:24.000Z</time>
      </trkpt>
      <trkpt lat="46.56607" lon="0.20108">
        <ele>111.59999847412</ele>
        <time>2019-05-12T07:08:27.000Z</time>
      </trkpt>
      <trkpt lat="46.56617" lon="0.20141">
        <ele>110.40000152588</ele>
        <time>2019-05-12T07:08:29.000Z</time>
      </trkpt>
      <trkpt lat="46.56621" lon="0.20152">
        <ele>109.80000305176</ele>
        <time>2019-05-12T07:08:30.000Z</time>
      </trkpt>
      <trkpt lat="46.56621" lon="0.20152">
        <ele>109.19999694824</ele>
        <time>2019-05-12T07:08:31.000Z</time>
      </trkpt>
      <trkpt lat="46.5663" lon="0.2019">
        <ele>107.80000305176</ele>
        <time>2019-05-12T07:08:33.000Z</time>
      </trkpt>
      <trkpt lat="46.56633" lon="0.20215">
        <ele>106.80000305176</ele>
        <time>2019-05-12T07:08:35.000Z</time>
      </trkpt>
      <trkpt lat="46.56634" lon="0.20228">
        <ele>106.59999847412</ele>
        <time>2019-05-12T07:08:36.000Z</time>
      </trkpt>
      <trkpt lat="46.56634" lon="0.2025">
        <ele>105.80000305176</ele>
        <time>2019-05-12T07:08:38.000Z</time>
      </trkpt>
      <trkpt lat="46.56631" lon="0.2027">
        <ele>105.19999694824</ele>
        <time>2019-05-12T07:08:40.000Z</time>
      </trkpt>
      <trkpt lat="46.56632" lon="0.20278">
        <ele>104.80000305176</ele>
        <time>2019-05-12T07:08:41.000Z</time>
      </trkpt>
      <trkpt lat="46.56634" lon="0.20285">
        <ele>104</ele>
        <time>2019-05-12T07:08:43.000Z</time>
      </trkpt>
      <trkpt lat="46.5664" lon="0.20301">
        <ele>103.80000305176</ele>
        <time>2019-05-12T07:08:44.000Z</time>
      </trkpt>
      <trkpt lat="46.56643" lon="0.2032">
        <ele>102.80000305176</ele>
        <time>2019-05-12T07:08:46.000Z</time>
      </trkpt>
      <trkpt lat="46.56641" lon="0.20343">
        <ele>101.59999847412</ele>
        <time>2019-05-12T07:08:49.000Z</time>
      </trkpt>
      <trkpt lat="46.56638" lon="0.20366">
        <ele>100.80000305176</ele>
        <time>2019-05-12T07:08:50.000Z</time>
      </trkpt>
      <trkpt lat="46.56638" lon="0.20366">
        <ele>100.40000152588</ele>
        <time>2019-05-12T07:08:51.000Z</time>
      </trkpt>
      <trkpt lat="46.56637" lon="0.20393">
        <ele>100</ele>
        <time>2019-05-12T07:08:52.000Z</time>
      </trkpt>
      <trkpt lat="46.56639" lon="0.20407">
        <ele>99.199996948242</ele>
        <time>2019-05-12T07:08:53.000Z</time>
      </trkpt>
      <trkpt lat="46.56643" lon="0.20421">
        <ele>97.800003051758</ele>
        <time>2019-05-12T07:08:55.000Z</time>
      </trkpt>
      <trkpt lat="46.5665" lon="0.20447">
        <ele>97</ele>
        <time>2019-05-12T07:08:56.000Z</time>
      </trkpt>
      <trkpt lat="46.5665" lon="0.20447">
        <ele>96.400001525879</ele>
        <time>2019-05-12T07:08:57.000Z</time>
      </trkpt>
      <trkpt lat="46.56654" lon="0.20472">
        <ele>95.400001525879</ele>
        <time>2019-05-12T07:08:58.000Z</time>
      </trkpt>
      <trkpt lat="46.56658" lon="0.20481">
        <ele>95</ele>
        <time>2019-05-12T07:08:59.000Z</time>
      </trkpt>
      <trkpt lat="46.56663" lon="0.20486">
        <ele>94.400001525879</ele>
        <time>2019-05-12T07:09:00.000Z</time>
      </trkpt>
      <trkpt lat="46.56674" lon="0.2049">
        <ele>94</ele>
        <time>2019-05-12T07:09:02.000Z</time>
      </trkpt>
      <trkpt lat="46.56685" lon="0.2049">
        <ele>94</ele>
        <time>2019-05-12T07:09:04.000Z</time>
      </trkpt>
      <trkpt lat="46.56701" lon="0.20487">
        <ele>95.199996948242</ele>
        <time>2019-05-12T07:09:08.000Z</time>
      </trkpt>
      <trkpt lat="46.56714" lon="0.20481">
        <ele>95.599998474121</ele>
        <time>2019-05-12T07:09:12.000Z</time>
      </trkpt>
      <trkpt lat="46.56714" lon="0.20481">
        <ele>96</ele>
        <time>2019-05-12T07:09:13.000Z</time>
      </trkpt>
      <trkpt lat="46.56721" lon="0.20479">
        <ele>96.400001525879</ele>
        <time>2019-05-12T07:09:15.000Z</time>
      </trkpt>
      <trkpt lat="46.56737" lon="0.20477">
        <ele>97.199996948242</ele>
        <time>2019-05-12T07:09:18.000Z</time>
      </trkpt>
      <trkpt lat="46.56746" lon="0.20476">
        <ele>98</ele>
        <time>2019-05-12T07:09:20.000Z</time>
      </trkpt>
      <trkpt lat="46.56754" lon="0.20474">
        <ele>98.199996948242</ele>
        <time>2019-05-12T07:09:22.000Z</time>
      </trkpt>
      <trkpt lat="46.56762" lon="0.20469">
        <ele>98.599998474121</ele>
        <time>2019-05-12T07:09:25.000Z</time>
      </trkpt>
      <trkpt lat="46.56777" lon="0.20453">
        <ele>98.599998474121</ele>
        <time>2019-05-12T07:09:28.000Z</time>
      </trkpt>
      <trkpt lat="46.5678" lon="0.20446">
        <ele>98.599998474121</ele>
        <time>2019-05-12T07:09:29.000Z</time>
      </trkpt>
      <trkpt lat="46.5679" lon="0.20426">
        <ele>98.199996948242</ele>
        <time>2019-05-12T07:09:32.000Z</time>
      </trkpt>
      <trkpt lat="46.56798" lon="0.20409">
        <ele>98</ele>
        <time>2019-05-12T07:09:35.000Z</time>
      </trkpt>
      <trkpt lat="46.56802" lon="0.20403">
        <ele>97.400001525879</ele>
        <time>2019-05-12T07:09:36.000Z</time>
      </trkpt>
      <trkpt lat="46.56808" lon="0.20389">
        <ele>96.400001525879</ele>
        <time>2019-05-12T07:09:38.000Z</time>
      </trkpt>
      <trkpt lat="46.56814" lon="0.20375">
        <ele>95.400001525879</ele>
        <time>2019-05-12T07:09:40.000Z</time>
      </trkpt>
      <trkpt lat="46.56819" lon="0.20362">
        <ele>95</ele>
        <time>2019-05-12T07:09:42.000Z</time>
      </trkpt>
      <trkpt lat="46.56828" lon="0.20332">
        <ele>94.400001525879</ele>
        <time>2019-05-12T07:09:47.000Z</time>
      </trkpt>
      <trkpt lat="46.56836" lon="0.20297">
        <ele>94.599998474121</ele>
        <time>2019-05-12T07:09:53.000Z</time>
      </trkpt>
      <trkpt lat="46.56839" lon="0.20279">
        <ele>94.199996948242</ele>
        <time>2019-05-12T07:09:57.000Z</time>
      </trkpt>
      <trkpt lat="46.56842" lon="0.20261">
        <ele>94</ele>
        <time>2019-05-12T07:09:59.000Z</time>
      </trkpt>
      <trkpt lat="46.56845" lon="0.20239">
        <ele>93.599998474121</ele>
        <time>2019-05-12T07:10:03.000Z</time>
      </trkpt>
      <trkpt lat="46.56848" lon="0.20202">
        <ele>93.199996948242</ele>
        <time>2019-05-12T07:10:08.000Z</time>
      </trkpt>
      <trkpt lat="46.56849" lon="0.20163">
        <ele>93.400001525879</ele>
        <time>2019-05-12T07:10:15.000Z</time>
      </trkpt>
      <trkpt lat="46.56849" lon="0.20134">
        <ele>93.400001525879</ele>
        <time>2019-05-12T07:10:19.000Z</time>
      </trkpt>
      <trkpt lat="46.56848" lon="0.20121">
        <ele>93.400001525879</ele>
        <time>2019-05-12T07:10:20.000Z</time>
      </trkpt>
      <trkpt lat="46.56846" lon="0.20103">
        <ele>93.400001525879</ele>
        <time>2019-05-12T07:10:23.000Z</time>
      </trkpt>
      <trkpt lat="46.56847" lon="0.20087">
        <ele>93.599998474121</ele>
        <time>2019-05-12T07:10:26.000Z</time>
      </trkpt>
      <trkpt lat="46.56845" lon="0.20076">
        <ele>94</ele>
        <time>2019-05-12T07:10:28.000Z</time>
      </trkpt>
      <trkpt lat="46.56841" lon="0.20049">
        <ele>94</ele>
        <time>2019-05-12T07:10:33.000Z</time>
      </trkpt>
      <trkpt lat="46.56837" lon="0.20022">
        <ele>95</ele>
        <time>2019-05-12T07:10:37.000Z</time>
      </trkpt>
      <trkpt lat="46.56832" lon="0.20009">
        <ele>95.199996948242</ele>
        <time>2019-05-12T07:10:38.000Z</time>
      </trkpt>
      <trkpt lat="46.56825" lon="0.19993">
        <ele>95.599998474121</ele>
        <time>2019-05-12T07:10:40.000Z</time>
      </trkpt>
      <trkpt lat="46.56821" lon="0.19987">
        <ele>95.599998474121</ele>
        <time>2019-05-12T07:10:41.000Z</time>
      </trkpt>
      <trkpt lat="46.56806" lon="0.19959">
        <ele>95.599998474121</ele>
        <time>2019-05-12T07:10:47.000Z</time>
      </trkpt>
      <trkpt lat="46.56796" lon="0.19925">
        <ele>95</ele>
        <time>2019-05-12T07:10:53.000Z</time>
      </trkpt>
      <trkpt lat="46.56782" lon="0.19898">
        <ele>94.199996948242</ele>
        <time>2019-05-12T07:10:58.000Z</time>
      </trkpt>
      <trkpt lat="46.56776" lon="0.19881">
        <ele>94</ele>
        <time>2019-05-12T07:11:02.000Z</time>
      </trkpt>
      <trkpt lat="46.56772" lon="0.19874">
        <ele>94</ele>
        <time>2019-05-12T07:11:04.000Z</time>
      </trkpt>
      <trkpt lat="46.56768" lon="0.19867">
        <ele>93.800003051758</ele>
        <time>2019-05-12T07:11:07.000Z</time>
      </trkpt>
      <trkpt lat="46.56763" lon="0.19859">
        <ele>93.800003051758</ele>
        <time>2019-05-12T07:11:08.000Z</time>
      </trkpt>
      <trkpt lat="46.56763" lon="0.19859">
        <ele>93.800003051758</ele>
        <time>2019-05-12T07:11:09.000Z</time>
      </trkpt>
      <trkpt lat="46.56754" lon="0.19846">
        <ele>93.800003051758</ele>
        <time>2019-05-12T07:11:11.000Z</time>
      </trkpt>
      <trkpt lat="46.5674" lon="0.19825">
        <ele>93.599998474121</ele>
        <time>2019-05-12T07:11:17.000Z</time>
      </trkpt>
      <trkpt lat="46.56724" lon="0.19798">
        <ele>94</ele>
        <time>2019-05-12T07:11:24.000Z</time>
      </trkpt>
      <trkpt lat="46.56714" lon="0.1978">
        <ele>93.800003051758</ele>
        <time>2019-05-12T07:11:28.000Z</time>
      </trkpt>
      <trkpt lat="46.5671" lon="0.19776">
        <ele>93.800003051758</ele>
        <time>2019-05-12T07:11:29.000Z</time>
      </trkpt>
      <trkpt lat="46.56705" lon="0.19766">
        <ele>93.800003051758</ele>
        <time>2019-05-12T07:11:31.000Z</time>
      </trkpt>
      <trkpt lat="46.56702" lon="0.19763">
        <ele>93.800003051758</ele>
        <time>2019-05-12T07:11:33.000Z</time>
      </trkpt>
      <trkpt lat="46.56685" lon="0.19746">
        <ele>93.599998474121</ele>
        <time>2019-05-12T07:11:37.000Z</time>
      </trkpt>
      <trkpt lat="46.56667" lon="0.19724">
        <ele>93.199996948242</ele>
        <time>2019-05-12T07:11:42.000Z</time>
      </trkpt>
      <trkpt lat="46.56649" lon="0.19699">
        <ele>93.599998474121</ele>
        <time>2019-05-12T07:11:47.000Z</time>
      </trkpt>
      <trkpt lat="46.56633" lon="0.19681">
        <ele>93.599998474121</ele>
        <time>2019-05-12T07:11:51.000Z</time>
      </trkpt>
      <trkpt lat="46.5663" lon="0.19675">
        <ele>93.599998474121</ele>
        <time>2019-05-12T07:11:52.000Z</time>
      </trkpt>
      <trkpt lat="46.56616" lon="0.1966">
        <ele>94</ele>
        <time>2019-05-12T07:11:56.000Z</time>
      </trkpt>
      <trkpt lat="46.56612" lon="0.19655">
        <ele>93.800003051758</ele>
        <time>2019-05-12T07:11:57.000Z</time>
      </trkpt>
      <trkpt lat="46.56597" lon="0.19642">
        <ele>93.800003051758</ele>
        <time>2019-05-12T07:12:00.000Z</time>
      </trkpt>
      <trkpt lat="46.56588" lon="0.19632">
        <ele>94.199996948242</ele>
        <time>2019-05-12T07:12:02.000Z</time>
      </trkpt>
      <trkpt lat="46.56573" lon="0.19619">
        <ele>94.199996948242</ele>
        <time>2019-05-12T07:12:05.000Z</time>
      </trkpt>
      <trkpt lat="46.56555" lon="0.19599">
        <ele>93.599998474121</ele>
        <time>2019-05-12T07:12:09.000Z</time>
      </trkpt>
      <trkpt lat="46.56549" lon="0.19595">
        <ele>93.800003051758</ele>
        <time>2019-05-12T07:12:10.000Z</time>
      </trkpt>
      <trkpt lat="46.56531" lon="0.19577">
        <ele>94</ele>
        <time>2019-05-12T07:12:14.000Z</time>
      </trkpt>
      <trkpt lat="46.56527" lon="0.19572">
        <ele>94</ele>
        <time>2019-05-12T07:12:15.000Z</time>
      </trkpt>
      <trkpt lat="46.56514" lon="0.1956">
        <ele>93.800003051758</ele>
        <time>2019-05-12T07:12:18.000Z</time>
      </trkpt>
      <trkpt lat="46.565" lon="0.19544">
        <ele>93.800003051758</ele>
        <time>2019-05-12T07:12:22.000Z</time>
      </trkpt>
      <trkpt lat="46.56492" lon="0.19536">
        <ele>93.800003051758</ele>
        <time>2019-05-12T07:12:24.000Z</time>
      </trkpt>
      <trkpt lat="46.56484" lon="0.19527">
        <ele>94</ele>
        <time>2019-05-12T07:12:26.000Z</time>
      </trkpt>
      <trkpt lat="46.56471" lon="0.19515">
        <ele>94.400001525879</ele>
        <time>2019-05-12T07:12:29.000Z</time>
      </trkpt>
      <trkpt lat="46.56467" lon="0.19511">
        <ele>94.400001525879</ele>
        <time>2019-05-12T07:12:30.000Z</time>
      </trkpt>
      <trkpt lat="46.56453" lon="0.19499">
        <ele>94.400001525879</ele>
        <time>2019-05-12T07:12:34.000Z</time>
      </trkpt>
      <trkpt lat="46.56442" lon="0.19487">
        <ele>94.199996948242</ele>
        <time>2019-05-12T07:12:37.000Z</time>
      </trkpt>
      <trkpt lat="46.56434" lon="0.1948">
        <ele>94.199996948242</ele>
        <time>2019-05-12T07:12:39.000Z</time>
      </trkpt>
      <trkpt lat="46.56413" lon="0.19464">
        <ele>94</ele>
        <time>2019-05-12T07:12:44.000Z</time>
      </trkpt>
      <trkpt lat="46.56395" lon="0.19441">
        <ele>93.800003051758</ele>
        <time>2019-05-12T07:12:48.000Z</time>
      </trkpt>
      <trkpt lat="46.56389" lon="0.19429">
        <ele>93.800003051758</ele>
        <time>2019-05-12T07:12:50.000Z</time>
      </trkpt>
      <trkpt lat="46.56375" lon="0.19408">
        <ele>94</ele>
        <time>2019-05-12T07:12:54.000Z</time>
      </trkpt>
      <trkpt lat="46.5637" lon="0.19404">
        <ele>94.400001525879</ele>
        <time>2019-05-12T07:12:55.000Z</time>
      </trkpt>
      <trkpt lat="46.56359" lon="0.19392">
        <ele>95</ele>
        <time>2019-05-12T07:12:58.000Z</time>
      </trkpt>
      <trkpt lat="46.56356" lon="0.19387">
        <ele>95.199996948242</ele>
        <time>2019-05-12T07:12:59.000Z</time>
      </trkpt>
      <trkpt lat="46.56348" lon="0.19373">
        <ele>95</ele>
        <time>2019-05-12T07:13:02.000Z</time>
      </trkpt>
      <trkpt lat="46.56343" lon="0.19361">
        <ele>94.800003051758</ele>
        <time>2019-05-12T07:13:04.000Z</time>
      </trkpt>
      <trkpt lat="46.56337" lon="0.19349">
        <ele>94.800003051758</ele>
        <time>2019-05-12T07:13:06.000Z</time>
      </trkpt>
      <trkpt lat="46.56323" lon="0.19321">
        <ele>95</ele>
        <time>2019-05-12T07:13:11.000Z</time>
      </trkpt>
      <trkpt lat="46.56319" lon="0.19302">
        <ele>95</ele>
        <time>2019-05-12T07:13:14.000Z</time>
      </trkpt>
      <trkpt lat="46.56318" lon="0.19273">
        <ele>94.199996948242</ele>
        <time>2019-05-12T07:13:18.000Z</time>
      </trkpt>
      <trkpt lat="46.56323" lon="0.19255">
        <ele>94</ele>
        <time>2019-05-12T07:13:21.000Z</time>
      </trkpt>
      <trkpt lat="46.56326" lon="0.19246">
        <ele>94</ele>
        <time>2019-05-12T07:13:23.000Z</time>
      </trkpt>
      <trkpt lat="46.56328" lon="0.19241">
        <ele>94.199996948242</ele>
        <time>2019-05-12T07:13:24.000Z</time>
      </trkpt>
      <trkpt lat="46.56337" lon="0.19231">
        <ele>94.199996948242</ele>
        <time>2019-05-12T07:13:27.000Z</time>
      </trkpt>
      <trkpt lat="46.5635" lon="0.19224">
        <ele>94</ele>
        <time>2019-05-12T07:13:31.000Z</time>
      </trkpt>
      <trkpt lat="46.56363" lon="0.1923">
        <ele>94.400001525879</ele>
        <time>2019-05-12T07:13:35.000Z</time>
      </trkpt>
      <trkpt lat="46.56379" lon="0.19243">
        <ele>94.599998474121</ele>
        <time>2019-05-12T07:13:40.000Z</time>
      </trkpt>
      <trkpt lat="46.56395" lon="0.19262">
        <ele>94</ele>
        <time>2019-05-12T07:13:46.000Z</time>
      </trkpt>
      <trkpt lat="46.5641" lon="0.1928">
        <ele>94</ele>
        <time>2019-05-12T07:13:51.000Z</time>
      </trkpt>
      <trkpt lat="46.56413" lon="0.19284">
        <ele>94</ele>
        <time>2019-05-12T07:13:52.000Z</time>
      </trkpt>
      <trkpt lat="46.56422" lon="0.19295">
        <ele>94</ele>
        <time>2019-05-12T07:13:55.000Z</time>
      </trkpt>
      <trkpt lat="46.56427" lon="0.19301">
        <ele>93.599998474121</ele>
        <time>2019-05-12T07:13:57.000Z</time>
      </trkpt>
      <trkpt lat="46.56439" lon="0.19316">
        <ele>93.599998474121</ele>
        <time>2019-05-12T07:14:01.000Z</time>
      </trkpt>
      <trkpt lat="46.5646" lon="0.19338">
        <ele>93.599998474121</ele>
        <time>2019-05-12T07:14:07.000Z</time>
      </trkpt>
      <trkpt lat="46.5648" lon="0.19352">
        <ele>93.599998474121</ele>
        <time>2019-05-12T07:14:12.000Z</time>
      </trkpt>
      <trkpt lat="46.56505" lon="0.19362">
        <ele>93.800003051758</ele>
        <time>2019-05-12T07:14:18.000Z</time>
      </trkpt>
      <trkpt lat="46.56523" lon="0.19364">
        <ele>94</ele>
        <time>2019-05-12T07:14:23.000Z</time>
      </trkpt>
      <trkpt lat="46.56539" lon="0.19358">
        <ele>94.199996948242</ele>
        <time>2019-05-12T07:14:27.000Z</time>
      </trkpt>
      <trkpt lat="46.56555" lon="0.19356">
        <ele>94.199996948242</ele>
        <time>2019-05-12T07:14:31.000Z</time>
      </trkpt>
      <trkpt lat="46.56573" lon="0.19351">
        <ele>94.599998474121</ele>
        <time>2019-05-12T07:14:35.000Z</time>
      </trkpt>
      <trkpt lat="46.56589" lon="0.19338">
        <ele>94.599998474121</ele>
        <time>2019-05-12T07:14:39.000Z</time>
      </trkpt>
      <trkpt lat="46.56607" lon="0.1932">
        <ele>94.800003051758</ele>
        <time>2019-05-12T07:14:44.000Z</time>
      </trkpt>
      <trkpt lat="46.56617" lon="0.19311">
        <ele>95</ele>
        <time>2019-05-12T07:14:47.000Z</time>
      </trkpt>
      <trkpt lat="46.5662" lon="0.19307">
        <ele>95.199996948242</ele>
        <time>2019-05-12T07:14:48.000Z</time>
      </trkpt>
      <trkpt lat="46.56634" lon="0.19285">
        <ele>95.800003051758</ele>
        <time>2019-05-12T07:14:53.000Z</time>
      </trkpt>
      <trkpt lat="46.56646" lon="0.19256">
        <ele>95.199996948242</ele>
        <time>2019-05-12T07:14:59.000Z</time>
      </trkpt>
      <trkpt lat="46.56654" lon="0.1924">
        <ele>95.599998474121</ele>
        <time>2019-05-12T07:15:03.000Z</time>
      </trkpt>
      <trkpt lat="46.56658" lon="0.19234">
        <ele>96.400001525879</ele>
        <time>2019-05-12T07:15:05.000Z</time>
      </trkpt>
      <trkpt lat="46.56663" lon="0.1922">
        <ele>97.400001525879</ele>
        <time>2019-05-12T07:15:09.000Z</time>
      </trkpt>
      <trkpt lat="46.5667" lon="0.19199">
        <ele>98.199996948242</ele>
        <time>2019-05-12T07:15:14.000Z</time>
      </trkpt>
      <trkpt lat="46.56673" lon="0.19185">
        <ele>98.599998474121</ele>
        <time>2019-05-12T07:15:17.000Z</time>
      </trkpt>
      <trkpt lat="46.56673" lon="0.19173">
        <ele>98.599998474121</ele>
        <time>2019-05-12T07:15:19.000Z</time>
      </trkpt>
      <trkpt lat="46.56671" lon="0.19143">
        <ele>98.400001525879</ele>
        <time>2019-05-12T07:15:24.000Z</time>
      </trkpt>
      <trkpt lat="46.5667" lon="0.19137">
        <ele>98.400001525879</ele>
        <time>2019-05-12T07:15:25.000Z</time>
      </trkpt>
      <trkpt lat="46.56671" lon="0.1912">
        <ele>98.400001525879</ele>
        <time>2019-05-12T07:15:28.000Z</time>
      </trkpt>
      <trkpt lat="46.56671" lon="0.19084">
        <ele>98.199996948242</ele>
        <time>2019-05-12T07:15:34.000Z</time>
      </trkpt>
      <trkpt lat="46.56671" lon="0.19059">
        <ele>98.800003051758</ele>
        <time>2019-05-12T07:15:38.000Z</time>
      </trkpt>
      <trkpt lat="46.56669" lon="0.1903">
        <ele>98.800003051758</ele>
        <time>2019-05-12T07:15:43.000Z</time>
      </trkpt>
      <trkpt lat="46.56667" lon="0.19">
        <ele>98.599998474121</ele>
        <time>2019-05-12T07:15:48.000Z</time>
      </trkpt>
      <trkpt lat="46.56665" lon="0.18967">
        <ele>98.400001525879</ele>
        <time>2019-05-12T07:15:53.000Z</time>
      </trkpt>
      <trkpt lat="46.56662" lon="0.18935">
        <ele>97.599998474121</ele>
        <time>2019-05-12T07:15:58.000Z</time>
      </trkpt>
      <trkpt lat="46.56663" lon="0.18915">
        <ele>97.400001525879</ele>
        <time>2019-05-12T07:16:01.000Z</time>
      </trkpt>
      <trkpt lat="46.56664" lon="0.18909">
        <ele>97.400001525879</ele>
        <time>2019-05-12T07:16:02.000Z</time>
      </trkpt>
      <trkpt lat="46.56665" lon="0.18883">
        <ele>97.199996948242</ele>
        <time>2019-05-12T07:16:06.000Z</time>
      </trkpt>
      <trkpt lat="46.56666" lon="0.18859">
        <ele>97.400001525879</ele>
        <time>2019-05-12T07:16:10.000Z</time>
      </trkpt>
      <trkpt lat="46.56671" lon="0.18831">
        <ele>97.599998474121</ele>
        <time>2019-05-12T07:16:14.000Z</time>
      </trkpt>
      <trkpt lat="46.56676" lon="0.18809">
        <ele>97.800003051758</ele>
        <time>2019-05-12T07:16:17.000Z</time>
      </trkpt>
      <trkpt lat="46.56677" lon="0.18802">
        <ele>97.599998474121</ele>
        <time>2019-05-12T07:16:18.000Z</time>
      </trkpt>
      <trkpt lat="46.56683" lon="0.18778">
        <ele>98</ele>
        <time>2019-05-12T07:16:22.000Z</time>
      </trkpt>
      <trkpt lat="46.5669" lon="0.18764">
        <ele>98.400001525879</ele>
        <time>2019-05-12T07:16:25.000Z</time>
      </trkpt>
      <trkpt lat="46.56692" lon="0.1876">
        <ele>98.599998474121</ele>
        <time>2019-05-12T07:16:26.000Z</time>
      </trkpt>
      <trkpt lat="46.56694" lon="0.18756">
        <ele>98.800003051758</ele>
        <time>2019-05-12T07:16:27.000Z</time>
      </trkpt>
      <trkpt lat="46.56698" lon="0.18737">
        <ele>99.199996948242</ele>
        <time>2019-05-12T07:16:30.000Z</time>
      </trkpt>
      <trkpt lat="46.567" lon="0.18731">
        <ele>99.199996948242</ele>
        <time>2019-05-12T07:16:31.000Z</time>
      </trkpt>
      <trkpt lat="46.56705" lon="0.1872">
        <ele>99</ele>
        <time>2019-05-12T07:16:33.000Z</time>
      </trkpt>
      <trkpt lat="46.56716" lon="0.18707">
        <ele>98.599998474121</ele>
        <time>2019-05-12T07:16:37.000Z</time>
      </trkpt>
      <trkpt lat="46.56719" lon="0.18706">
        <ele>98.599998474121</ele>
        <time>2019-05-12T07:16:38.000Z</time>
      </trkpt>
      <trkpt lat="46.56723" lon="0.18705">
        <ele>98.800003051758</ele>
        <time>2019-05-12T07:16:40.000Z</time>
      </trkpt>
      <trkpt lat="46.56727" lon="0.18706">
        <ele>99.400001525879</ele>
        <time>2019-05-12T07:16:45.000Z</time>
      </trkpt>
      <trkpt lat="46.56732" lon="0.18706">
        <ele>100</ele>
        <time>2019-05-12T07:16:48.000Z</time>
      </trkpt>
      <trkpt lat="46.56737" lon="0.18706">
        <ele>101.19999694824</ele>
        <time>2019-05-12T07:16:51.000Z</time>
      </trkpt>
      <trkpt lat="46.56743" lon="0.18705">
        <ele>102.19999694824</ele>
        <time>2019-05-12T07:16:54.000Z</time>
      </trkpt>
      <trkpt lat="46.5675" lon="0.18706">
        <ele>103</ele>
        <time>2019-05-12T07:16:57.000Z</time>
      </trkpt>
      <trkpt lat="46.56752" lon="0.18707">
        <ele>103.80000305176</ele>
        <time>2019-05-12T07:16:58.000Z</time>
      </trkpt>
      <trkpt lat="46.56757" lon="0.18708">
        <ele>104.80000305176</ele>
        <time>2019-05-12T07:17:00.000Z</time>
      </trkpt>
      <trkpt lat="46.56763" lon="0.18701">
        <ele>106</ele>
        <time>2019-05-12T07:17:04.000Z</time>
      </trkpt>
      <trkpt lat="46.56764" lon="0.187">
        <ele>106.40000152588</ele>
        <time>2019-05-12T07:17:05.000Z</time>
      </trkpt>
      <trkpt lat="46.56767" lon="0.187">
        <ele>107</ele>
        <time>2019-05-12T07:17:07.000Z</time>
      </trkpt>
      <trkpt lat="46.5677" lon="0.18699">
        <ele>107.59999847412</ele>
        <time>2019-05-12T07:17:09.000Z</time>
      </trkpt>
      <trkpt lat="46.56776" lon="0.18698">
        <ele>108.19999694824</ele>
        <time>2019-05-12T07:17:12.000Z</time>
      </trkpt>
      <trkpt lat="46.56781" lon="0.18697">
        <ele>109.40000152588</ele>
        <time>2019-05-12T07:17:15.000Z</time>
      </trkpt>
      <trkpt lat="46.56789" lon="0.18692">
        <ele>110.80000305176</ele>
        <time>2019-05-12T07:17:19.000Z</time>
      </trkpt>
      <trkpt lat="46.56792" lon="0.1869">
        <ele>111.40000152588</ele>
        <time>2019-05-12T07:17:21.000Z</time>
      </trkpt>
      <trkpt lat="46.56795" lon="0.18689">
        <ele>112</ele>
        <time>2019-05-12T07:17:23.000Z</time>
      </trkpt>
      <trkpt lat="46.56802" lon="0.18687">
        <ele>113</ele>
        <time>2019-05-12T07:17:27.000Z</time>
      </trkpt>
      <trkpt lat="46.56804" lon="0.18686">
        <ele>113.40000152588</ele>
        <time>2019-05-12T07:17:28.000Z</time>
      </trkpt>
      <trkpt lat="46.56811" lon="0.18684">
        <ele>114.59999847412</ele>
        <time>2019-05-12T07:17:32.000Z</time>
      </trkpt>
      <trkpt lat="46.56813" lon="0.18684">
        <ele>115</ele>
        <time>2019-05-12T07:17:33.000Z</time>
      </trkpt>
      <trkpt lat="46.56816" lon="0.18682">
        <ele>115.59999847412</ele>
        <time>2019-05-12T07:17:35.000Z</time>
      </trkpt>
      <trkpt lat="46.56824" lon="0.18681">
        <ele>116.80000305176</ele>
        <time>2019-05-12T07:17:39.000Z</time>
      </trkpt>
      <trkpt lat="46.56826" lon="0.1868">
        <ele>117.40000152588</ele>
        <time>2019-05-12T07:17:40.000Z</time>
      </trkpt>
      <trkpt lat="46.5683" lon="0.18679">
        <ele>118</ele>
        <time>2019-05-12T07:17:42.000Z</time>
      </trkpt>
      <trkpt lat="46.56836" lon="0.18678">
        <ele>119.19999694824</ele>
        <time>2019-05-12T07:17:45.000Z</time>
      </trkpt>
      <trkpt lat="46.5684" lon="0.18678">
        <ele>119.40000152588</ele>
        <time>2019-05-12T07:17:47.000Z</time>
      </trkpt>
      <trkpt lat="46.56846" lon="0.18677">
        <ele>120.19999694824</ele>
        <time>2019-05-12T07:17:50.000Z</time>
      </trkpt>
      <trkpt lat="46.56853" lon="0.18675">
        <ele>121.40000152588</ele>
        <time>2019-05-12T07:17:54.000Z</time>
      </trkpt>
      <trkpt lat="46.56855" lon="0.18675">
        <ele>121.40000152588</ele>
        <time>2019-05-12T07:17:55.000Z</time>
      </trkpt>
      <trkpt lat="46.56862" lon="0.18673">
        <ele>122.19999694824</ele>
        <time>2019-05-12T07:17:59.000Z</time>
      </trkpt>
      <trkpt lat="46.56867" lon="0.18671">
        <ele>123</ele>
        <time>2019-05-12T07:18:02.000Z</time>
      </trkpt>
      <trkpt lat="46.56868" lon="0.18671">
        <ele>123.19999694824</ele>
        <time>2019-05-12T07:18:03.000Z</time>
      </trkpt>
      <trkpt lat="46.56877" lon="0.18666">
        <ele>124.40000152588</ele>
        <time>2019-05-12T07:18:08.000Z</time>
      </trkpt>
      <trkpt lat="46.56879" lon="0.18665">
        <ele>124.59999847412</ele>
        <time>2019-05-12T07:18:09.000Z</time>
      </trkpt>
      <trkpt lat="46.56889" lon="0.18661">
        <ele>125.40000152588</ele>
        <time>2019-05-12T07:18:14.000Z</time>
      </trkpt>
      <trkpt lat="46.56895" lon="0.18658">
        <ele>126</ele>
        <time>2019-05-12T07:18:17.000Z</time>
      </trkpt>
      <trkpt lat="46.569" lon="0.18657">
        <ele>126.40000152588</ele>
        <time>2019-05-12T07:18:19.000Z</time>
      </trkpt>
      <trkpt lat="46.56915" lon="0.18651">
        <ele>127.40000152588</ele>
        <time>2019-05-12T07:18:25.000Z</time>
      </trkpt>
      <trkpt lat="46.56917" lon="0.1865">
        <ele>127.40000152588</ele>
        <time>2019-05-12T07:18:26.000Z</time>
      </trkpt>
      <trkpt lat="46.56931" lon="0.18645">
        <ele>128.19999694824</ele>
        <time>2019-05-12T07:18:32.000Z</time>
      </trkpt>
      <trkpt lat="46.56941" lon="0.18642">
        <ele>128.80000305176</ele>
        <time>2019-05-12T07:18:36.000Z</time>
      </trkpt>
      <trkpt lat="46.56951" lon="0.1864">
        <ele>129.39999389648</ele>
        <time>2019-05-12T07:18:40.000Z</time>
      </trkpt>
      <trkpt lat="46.56974" lon="0.18633">
        <ele>130.19999694824</ele>
        <time>2019-05-12T07:18:49.000Z</time>
      </trkpt>
      <trkpt lat="46.56976" lon="0.18632">
        <ele>130.39999389648</ele>
        <time>2019-05-12T07:18:50.000Z</time>
      </trkpt>
      <trkpt lat="46.56998" lon="0.18625">
        <ele>131.19999694824</ele>
        <time>2019-05-12T07:18:58.000Z</time>
      </trkpt>
      <trkpt lat="46.57001" lon="0.18624">
        <ele>131.19999694824</ele>
        <time>2019-05-12T07:18:59.000Z</time>
      </trkpt>
      <trkpt lat="46.57007" lon="0.18622">
        <ele>131.39999389648</ele>
        <time>2019-05-12T07:19:01.000Z</time>
      </trkpt>
      <trkpt lat="46.57022" lon="0.18619">
        <ele>132</ele>
        <time>2019-05-12T07:19:08.000Z</time>
      </trkpt>
      <trkpt lat="46.57023" lon="0.18619">
        <ele>132.19999694824</ele>
        <time>2019-05-12T07:19:11.000Z</time>
      </trkpt>
      <trkpt lat="46.57024" lon="0.18625">
        <ele>132.19999694824</ele>
        <time>2019-05-12T07:21:31.000Z</time>
      </trkpt>
      <trkpt lat="46.57024" lon="0.18627">
        <ele>132.19999694824</ele>
        <time>2019-05-12T07:21:32.000Z</time>
      </trkpt>
      <trkpt lat="46.57023" lon="0.18638">
        <ele>132.60000610352</ele>
        <time>2019-05-12T07:21:36.000Z</time>
      </trkpt>
      <trkpt lat="46.57022" lon="0.18645">
        <ele>132.39999389648</ele>
        <time>2019-05-12T07:21:38.000Z</time>
      </trkpt>
      <trkpt lat="46.5702" lon="0.18667">
        <ele>133</ele>
        <time>2019-05-12T07:21:44.000Z</time>
      </trkpt>
      <trkpt lat="46.57016" lon="0.18707">
        <ele>133</ele>
        <time>2019-05-12T07:21:52.000Z</time>
      </trkpt>
      <trkpt lat="46.5701" lon="0.18761">
        <ele>132.80000305176</ele>
        <time>2019-05-12T07:22:02.000Z</time>
      </trkpt>
      <trkpt lat="46.57009" lon="0.18772">
        <ele>133</ele>
        <time>2019-05-12T07:22:04.000Z</time>
      </trkpt>
      <trkpt lat="46.57008" lon="0.18784">
        <ele>133.19999694824</ele>
        <time>2019-05-12T07:22:06.000Z</time>
      </trkpt>
      <trkpt lat="46.57006" lon="0.18803">
        <ele>133.19999694824</ele>
        <time>2019-05-12T07:22:09.000Z</time>
      </trkpt>
      <trkpt lat="46.57" lon="0.18867">
        <ele>132.60000610352</ele>
        <time>2019-05-12T07:22:19.000Z</time>
      </trkpt>
      <trkpt lat="46.56991" lon="0.18946">
        <ele>132.80000305176</ele>
        <time>2019-05-12T07:22:31.000Z</time>
      </trkpt>
      <trkpt lat="46.5699" lon="0.18959">
        <ele>133</ele>
        <time>2019-05-12T07:22:33.000Z</time>
      </trkpt>
      <trkpt lat="46.56983" lon="0.19028">
        <ele>133</ele>
        <time>2019-05-12T07:22:43.000Z</time>
      </trkpt>
      <trkpt lat="46.56975" lon="0.19106">
        <ele>133.19999694824</ele>
        <time>2019-05-12T07:22:54.000Z</time>
      </trkpt>
      <trkpt lat="46.56969" lon="0.19166">
        <ele>133</ele>
        <time>2019-05-12T07:23:02.000Z</time>
      </trkpt>
      <trkpt lat="46.56964" lon="0.19226">
        <ele>133</ele>
        <time>2019-05-12T07:23:10.000Z</time>
      </trkpt>
      <trkpt lat="46.5696" lon="0.19287">
        <ele>133</ele>
        <time>2019-05-12T07:23:18.000Z</time>
      </trkpt>
      <trkpt lat="46.56959" lon="0.19301">
        <ele>132.80000305176</ele>
        <time>2019-05-12T07:23:20.000Z</time>
      </trkpt>
      <trkpt lat="46.56952" lon="0.1936">
        <ele>132.39999389648</ele>
        <time>2019-05-12T07:23:28.000Z</time>
      </trkpt>
      <trkpt lat="46.56942" lon="0.19424">
        <ele>131.80000305176</ele>
        <time>2019-05-12T07:23:36.000Z</time>
      </trkpt>
      <trkpt lat="46.56949" lon="0.19442">
        <ele>132</ele>
        <time>2019-05-12T07:23:39.000Z</time>
      </trkpt>
      <trkpt lat="46.56959" lon="0.19442">
        <ele>131.80000305176</ele>
        <time>2019-05-12T07:23:41.000Z</time>
      </trkpt>
      <trkpt lat="46.56964" lon="0.19443">
        <ele>131.60000610352</ele>
        <time>2019-05-12T07:23:42.000Z</time>
      </trkpt>
      <trkpt lat="46.56975" lon="0.19449">
        <ele>131.19999694824</ele>
        <time>2019-05-12T07:23:45.000Z</time>
      </trkpt>
      <trkpt lat="46.56977" lon="0.19452">
        <ele>131</ele>
        <time>2019-05-12T07:23:46.000Z</time>
      </trkpt>
      <trkpt lat="46.5698" lon="0.19463">
        <ele>130.60000610352</ele>
        <time>2019-05-12T07:23:48.000Z</time>
      </trkpt>
      <trkpt lat="46.56985" lon="0.19476">
        <ele>130.19999694824</ele>
        <time>2019-05-12T07:23:50.000Z</time>
      </trkpt>
      <trkpt lat="46.56991" lon="0.19491">
        <ele>129.39999389648</ele>
        <time>2019-05-12T07:23:52.000Z</time>
      </trkpt>
      <trkpt lat="46.56999" lon="0.19506">
        <ele>128</ele>
        <time>2019-05-12T07:23:54.000Z</time>
      </trkpt>
      <trkpt lat="46.57005" lon="0.19514">
        <ele>127.40000152588</ele>
        <time>2019-05-12T07:23:55.000Z</time>
      </trkpt>
      <trkpt lat="46.57012" lon="0.1952">
        <ele>127</ele>
        <time>2019-05-12T07:23:56.000Z</time>
      </trkpt>
      <trkpt lat="46.57027" lon="0.19526">
        <ele>126</ele>
        <time>2019-05-12T07:23:58.000Z</time>
      </trkpt>
      <trkpt lat="46.57036" lon="0.19527">
        <ele>125.40000152588</ele>
        <time>2019-05-12T07:23:59.000Z</time>
      </trkpt>
      <trkpt lat="46.57053" lon="0.19528">
        <ele>123.40000152588</ele>
        <time>2019-05-12T07:24:01.000Z</time>
      </trkpt>
      <trkpt lat="46.57061" lon="0.19528">
        <ele>122.40000152588</ele>
        <time>2019-05-12T07:24:02.000Z</time>
      </trkpt>
      <trkpt lat="46.5707" lon="0.19528">
        <ele>121.40000152588</ele>
        <time>2019-05-12T07:24:03.000Z</time>
      </trkpt>
      <trkpt lat="46.57079" lon="0.19526">
        <ele>121</ele>
        <time>2019-05-12T07:24:04.000Z</time>
      </trkpt>
      <trkpt lat="46.57098" lon="0.19522">
        <ele>119.40000152588</ele>
        <time>2019-05-12T07:24:06.000Z</time>
      </trkpt>
      <trkpt lat="46.57116" lon="0.19522">
        <ele>117.40000152588</ele>
        <time>2019-05-12T07:24:08.000Z</time>
      </trkpt>
      <trkpt lat="46.57136" lon="0.19524">
        <ele>115.40000152588</ele>
        <time>2019-05-12T07:24:10.000Z</time>
      </trkpt>
      <trkpt lat="46.57146" lon="0.19525">
        <ele>114.19999694824</ele>
        <time>2019-05-12T07:24:11.000Z</time>
      </trkpt>
      <trkpt lat="46.57156" lon="0.19526">
        <ele>112.80000305176</ele>
        <time>2019-05-12T07:24:12.000Z</time>
      </trkpt>
      <trkpt lat="46.57166" lon="0.19526">
        <ele>111.80000305176</ele>
        <time>2019-05-12T07:24:13.000Z</time>
      </trkpt>
      <trkpt lat="46.57184" lon="0.19535">
        <ele>109.80000305176</ele>
        <time>2019-05-12T07:24:15.000Z</time>
      </trkpt>
      <trkpt lat="46.57193" lon="0.19541">
        <ele>108.19999694824</ele>
        <time>2019-05-12T07:24:16.000Z</time>
      </trkpt>
      <trkpt lat="46.57201" lon="0.19547">
        <ele>106.80000305176</ele>
        <time>2019-05-12T07:24:17.000Z</time>
      </trkpt>
      <trkpt lat="46.57209" lon="0.19553">
        <ele>105.80000305176</ele>
        <time>2019-05-12T07:24:18.000Z</time>
      </trkpt>
      <trkpt lat="46.57224" lon="0.19564">
        <ele>104.59999847412</ele>
        <time>2019-05-12T07:24:20.000Z</time>
      </trkpt>
      <trkpt lat="46.57231" lon="0.1957">
        <ele>104</ele>
        <time>2019-05-12T07:24:21.000Z</time>
      </trkpt>
      <trkpt lat="46.57237" lon="0.19577">
        <ele>103.59999847412</ele>
        <time>2019-05-12T07:24:22.000Z</time>
      </trkpt>
      <trkpt lat="46.57242" lon="0.19583">
        <ele>103.40000152588</ele>
        <time>2019-05-12T07:24:23.000Z</time>
      </trkpt>
      <trkpt lat="46.57248" lon="0.19594">
        <ele>103</ele>
        <time>2019-05-12T07:24:25.000Z</time>
      </trkpt>
      <trkpt lat="46.57261" lon="0.19615">
        <ele>103</ele>
        <time>2019-05-12T07:24:29.000Z</time>
      </trkpt>
      <trkpt lat="46.57264" lon="0.1962">
        <ele>103</ele>
        <time>2019-05-12T07:24:30.000Z</time>
      </trkpt>
      <trkpt lat="46.57271" lon="0.19629">
        <ele>103</ele>
        <time>2019-05-12T07:24:32.000Z</time>
      </trkpt>
      <trkpt lat="46.5728" lon="0.19644">
        <ele>102.59999847412</ele>
        <time>2019-05-12T07:24:35.000Z</time>
      </trkpt>
      <trkpt lat="46.57288" lon="0.19659">
        <ele>102.59999847412</ele>
        <time>2019-05-12T07:24:38.000Z</time>
      </trkpt>
      <trkpt lat="46.5729" lon="0.19664">
        <ele>102.59999847412</ele>
        <time>2019-05-12T07:24:39.000Z</time>
      </trkpt>
      <trkpt lat="46.57293" lon="0.19669">
        <ele>102.59999847412</ele>
        <time>2019-05-12T07:24:40.000Z</time>
      </trkpt>
      <trkpt lat="46.57298" lon="0.19679">
        <ele>102.40000152588</ele>
        <time>2019-05-12T07:24:42.000Z</time>
      </trkpt>
      <trkpt lat="46.57304" lon="0.19693">
        <ele>102.19999694824</ele>
        <time>2019-05-12T07:24:44.000Z</time>
      </trkpt>
      <trkpt lat="46.57308" lon="0.19704">
        <ele>102</ele>
        <time>2019-05-12T07:24:46.000Z</time>
      </trkpt>
      <trkpt lat="46.57315" lon="0.19722">
        <ele>102</ele>
        <time>2019-05-12T07:24:49.000Z</time>
      </trkpt>
      <trkpt lat="46.57323" lon="0.19749">
        <ele>102.19999694824</ele>
        <time>2019-05-12T07:24:53.000Z</time>
      </trkpt>
      <trkpt lat="46.57325" lon="0.19756">
        <ele>102.19999694824</ele>
        <time>2019-05-12T07:24:54.000Z</time>
      </trkpt>
      <trkpt lat="46.57328" lon="0.19778">
        <ele>102.19999694824</ele>
        <time>2019-05-12T07:24:57.000Z</time>
      </trkpt>
      <trkpt lat="46.57328" lon="0.19786">
        <ele>102</ele>
        <time>2019-05-12T07:24:58.000Z</time>
      </trkpt>
      <trkpt lat="46.57329" lon="0.19795">
        <ele>101.80000305176</ele>
        <time>2019-05-12T07:24:59.000Z</time>
      </trkpt>
      <trkpt lat="46.5733" lon="0.1981">
        <ele>101.40000152588</ele>
        <time>2019-05-12T07:25:01.000Z</time>
      </trkpt>
      <trkpt lat="46.5733" lon="0.19817">
        <ele>101.19999694824</ele>
        <time>2019-05-12T07:25:02.000Z</time>
      </trkpt>
      <trkpt lat="46.57328" lon="0.19844">
        <ele>101.19999694824</ele>
        <time>2019-05-12T07:25:06.000Z</time>
      </trkpt>
      <trkpt lat="46.57327" lon="0.19851">
        <ele>101.19999694824</ele>
        <time>2019-05-12T07:25:07.000Z</time>
      </trkpt>
      <trkpt lat="46.57327" lon="0.19865">
        <ele>101.59999847412</ele>
        <time>2019-05-12T07:25:09.000Z</time>
      </trkpt>
      <trkpt lat="46.57327" lon="0.19881">
        <ele>101.80000305176</ele>
        <time>2019-05-12T07:25:11.000Z</time>
      </trkpt>
      <trkpt lat="46.57335" lon="0.19912">
        <ele>102</ele>
        <time>2019-05-12T07:25:16.000Z</time>
      </trkpt>
      <trkpt lat="46.57338" lon="0.19918">
        <ele>102.40000152588</ele>
        <time>2019-05-12T07:25:17.000Z</time>
      </trkpt>
      <trkpt lat="46.57349" lon="0.19933">
        <ele>102.40000152588</ele>
        <time>2019-05-12T07:25:20.000Z</time>
      </trkpt>
      <trkpt lat="46.57356" lon="0.19938">
        <ele>102.40000152588</ele>
        <time>2019-05-12T07:25:22.000Z</time>
      </trkpt>
      <trkpt lat="46.57364" lon="0.19943">
        <ele>102.59999847412</ele>
        <time>2019-05-12T07:25:24.000Z</time>
      </trkpt>
      <trkpt lat="46.57385" lon="0.19961">
        <ele>103.80000305176</ele>
        <time>2019-05-12T07:25:29.000Z</time>
      </trkpt>
      <trkpt lat="46.57404" lon="0.1998">
        <ele>104.40000152588</ele>
        <time>2019-05-12T07:25:34.000Z</time>
      </trkpt>
      <trkpt lat="46.57415" lon="0.1999">
        <ele>105.40000152588</ele>
        <time>2019-05-12T07:25:37.000Z</time>
      </trkpt>
      <trkpt lat="46.57426" lon="0.20002">
        <ele>106</ele>
        <time>2019-05-12T07:25:40.000Z</time>
      </trkpt>
      <trkpt lat="46.5743" lon="0.20009">
        <ele>106.40000152588</ele>
        <time>2019-05-12T07:25:42.000Z</time>
      </trkpt>
      <trkpt lat="46.57435" lon="0.20019">
        <ele>106.80000305176</ele>
        <time>2019-05-12T07:25:44.000Z</time>
      </trkpt>
      <trkpt lat="46.57443" lon="0.20033">
        <ele>107.80000305176</ele>
        <time>2019-05-12T07:25:48.000Z</time>
      </trkpt>
      <trkpt lat="46.57445" lon="0.20038">
        <ele>108</ele>
        <time>2019-05-12T07:25:49.000Z</time>
      </trkpt>
      <trkpt lat="46.57452" lon="0.20054">
        <ele>109</ele>
        <time>2019-05-12T07:25:53.000Z</time>
      </trkpt>
      <trkpt lat="46.57462" lon="0.20069">
        <ele>110</ele>
        <time>2019-05-12T07:25:57.000Z</time>
      </trkpt>
      <trkpt lat="46.57471" lon="0.20089">
        <ele>111.19999694824</ele>
        <time>2019-05-12T07:26:02.000Z</time>
      </trkpt>
      <trkpt lat="46.57478" lon="0.20101">
        <ele>111.80000305176</ele>
        <time>2019-05-12T07:26:06.000Z</time>
      </trkpt>
      <trkpt lat="46.57481" lon="0.20102">
        <ele>111.80000305176</ele>
        <time>2019-05-12T07:26:07.000Z</time>
      </trkpt>
      <trkpt lat="46.57488" lon="0.20107">
        <ele>112.19999694824</ele>
        <time>2019-05-12T07:26:10.000Z</time>
      </trkpt>
      <trkpt lat="46.57491" lon="0.2011">
        <ele>112.40000152588</ele>
        <time>2019-05-12T07:26:11.000Z</time>
      </trkpt>
      <trkpt lat="46.57502" lon="0.20117">
        <ele>112.59999847412</ele>
        <time>2019-05-12T07:26:16.000Z</time>
      </trkpt>
      <trkpt lat="46.57506" lon="0.2012">
        <ele>113</ele>
        <time>2019-05-12T07:26:18.000Z</time>
      </trkpt>
      <trkpt lat="46.5751" lon="0.20121">
        <ele>113.19999694824</ele>
        <time>2019-05-12T07:26:20.000Z</time>
      </trkpt>
      <trkpt lat="46.57515" lon="0.20121">
        <ele>113.40000152588</ele>
        <time>2019-05-12T07:26:22.000Z</time>
      </trkpt>
      <trkpt lat="46.57526" lon="0.20121">
        <ele>114.19999694824</ele>
        <time>2019-05-12T07:26:26.000Z</time>
      </trkpt>
      <trkpt lat="46.57529" lon="0.20121">
        <ele>114.19999694824</ele>
        <time>2019-05-12T07:26:27.000Z</time>
      </trkpt>
      <trkpt lat="46.57539" lon="0.2012">
        <ele>114.80000305176</ele>
        <time>2019-05-12T07:26:31.000Z</time>
      </trkpt>
      <trkpt lat="46.57545" lon="0.2012">
        <ele>115</ele>
        <time>2019-05-12T07:26:33.000Z</time>
      </trkpt>
      <trkpt lat="46.57553" lon="0.20119">
        <ele>115.19999694824</ele>
        <time>2019-05-12T07:26:36.000Z</time>
      </trkpt>
      <trkpt lat="46.57567" lon="0.20115">
        <ele>115.40000152588</ele>
        <time>2019-05-12T07:26:41.000Z</time>
      </trkpt>
      <trkpt lat="46.57582" lon="0.20113">
        <ele>115.80000305176</ele>
        <time>2019-05-12T07:26:46.000Z</time>
      </trkpt>
      <trkpt lat="46.57585" lon="0.20113">
        <ele>115.80000305176</ele>
        <time>2019-05-12T07:26:47.000Z</time>
      </trkpt>
      <trkpt lat="46.57595" lon="0.20113">
        <ele>116.19999694824</ele>
        <time>2019-05-12T07:26:51.000Z</time>
      </trkpt>
      <trkpt lat="46.57614" lon="0.20115">
        <ele>116.40000152588</ele>
        <time>2019-05-12T07:26:57.000Z</time>
      </trkpt>
      <trkpt lat="46.5762" lon="0.20116">
        <ele>116.80000305176</ele>
        <time>2019-05-12T07:26:59.000Z</time>
      </trkpt>
      <trkpt lat="46.57626" lon="0.20116">
        <ele>117.19999694824</ele>
        <time>2019-05-12T07:27:01.000Z</time>
      </trkpt>
      <trkpt lat="46.57636" lon="0.20117">
        <ele>117.80000305176</ele>
        <time>2019-05-12T07:27:04.000Z</time>
      </trkpt>
      <trkpt lat="46.57642" lon="0.20117">
        <ele>117.80000305176</ele>
        <time>2019-05-12T07:27:06.000Z</time>
      </trkpt>
      <trkpt lat="46.57662" lon="0.20112">
        <ele>118.40000152588</ele>
        <time>2019-05-12T07:27:12.000Z</time>
      </trkpt>
      <trkpt lat="46.57673" lon="0.20106">
        <ele>118.80000305176</ele>
        <time>2019-05-12T07:27:16.000Z</time>
      </trkpt>
      <trkpt lat="46.57679" lon="0.20103">
        <ele>119.19999694824</ele>
        <time>2019-05-12T07:27:18.000Z</time>
      </trkpt>
      <trkpt lat="46.57685" lon="0.20097">
        <ele>119.80000305176</ele>
        <time>2019-05-12T07:27:21.000Z</time>
      </trkpt>
      <trkpt lat="46.57691" lon="0.20091">
        <ele>120.40000152588</ele>
        <time>2019-05-12T07:27:24.000Z</time>
      </trkpt>
      <trkpt lat="46.57699" lon="0.20079">
        <ele>120.59999847412</ele>
        <time>2019-05-12T07:27:28.000Z</time>
      </trkpt>
      <trkpt lat="46.57704" lon="0.20073">
        <ele>121.19999694824</ele>
        <time>2019-05-12T07:27:30.000Z</time>
      </trkpt>
      <trkpt lat="46.57707" lon="0.20069">
        <ele>121.40000152588</ele>
        <time>2019-05-12T07:27:31.000Z</time>
      </trkpt>
      <trkpt lat="46.57709" lon="0.20066">
        <ele>121.59999847412</ele>
        <time>2019-05-12T07:27:32.000Z</time>
      </trkpt>
      <trkpt lat="46.5772" lon="0.20051">
        <ele>122.59999847412</ele>
        <time>2019-05-12T07:27:37.000Z</time>
      </trkpt>
      <trkpt lat="46.57722" lon="0.20048">
        <ele>122.80000305176</ele>
        <time>2019-05-12T07:27:38.000Z</time>
      </trkpt>
      <trkpt lat="46.57736" lon="0.20038">
        <ele>123.59999847412</ele>
        <time>2019-05-12T07:27:43.000Z</time>
      </trkpt>
      <trkpt lat="46.57739" lon="0.20035">
        <ele>123.80000305176</ele>
        <time>2019-05-12T07:27:44.000Z</time>
      </trkpt>
      <trkpt lat="46.57748" lon="0.20026">
        <ele>124.40000152588</ele>
        <time>2019-05-12T07:27:48.000Z</time>
      </trkpt>
      <trkpt lat="46.57754" lon="0.20021">
        <ele>124.80000305176</ele>
        <time>2019-05-12T07:27:50.000Z</time>
      </trkpt>
      <trkpt lat="46.57762" lon="0.20015">
        <ele>125.59999847412</ele>
        <time>2019-05-12T07:27:53.000Z</time>
      </trkpt>
      <trkpt lat="46.57768" lon="0.20012">
        <ele>125.80000305176</ele>
        <time>2019-05-12T07:27:55.000Z</time>
      </trkpt>
      <trkpt lat="46.57776" lon="0.20006">
        <ele>126</ele>
        <time>2019-05-12T07:27:58.000Z</time>
      </trkpt>
      <trkpt lat="46.57787" lon="0.19998">
        <ele>127</ele>
        <time>2019-05-12T07:28:02.000Z</time>
      </trkpt>
      <trkpt lat="46.5779" lon="0.19997">
        <ele>127.19999694824</ele>
        <time>2019-05-12T07:28:03.000Z</time>
      </trkpt>
      <trkpt lat="46.578" lon="0.19991">
        <ele>128</ele>
        <time>2019-05-12T07:28:07.000Z</time>
      </trkpt>
      <trkpt lat="46.57809" lon="0.19988">
        <ele>128.60000610352</ele>
        <time>2019-05-12T07:28:10.000Z</time>
      </trkpt>
      <trkpt lat="46.57821" lon="0.19984">
        <ele>129.19999694824</ele>
        <time>2019-05-12T07:28:14.000Z</time>
      </trkpt>
      <trkpt lat="46.5783" lon="0.1998">
        <ele>129.60000610352</ele>
        <time>2019-05-12T07:28:17.000Z</time>
      </trkpt>
      <trkpt lat="46.57845" lon="0.19979">
        <ele>130.19999694824</ele>
        <time>2019-05-12T07:28:22.000Z</time>
      </trkpt>
      <trkpt lat="46.57852" lon="0.19977">
        <ele>130.39999389648</ele>
        <time>2019-05-12T07:28:24.000Z</time>
      </trkpt>
      <trkpt lat="46.57872" lon="0.19968">
        <ele>131</ele>
        <time>2019-05-12T07:28:31.000Z</time>
      </trkpt>
      <trkpt lat="46.57888" lon="0.19966">
        <ele>131</ele>
        <time>2019-05-12T07:28:36.000Z</time>
      </trkpt>
      <trkpt lat="46.57891" lon="0.19964">
        <ele>131.19999694824</ele>
        <time>2019-05-12T07:28:37.000Z</time>
      </trkpt>
      <trkpt lat="46.57908" lon="0.1996">
        <ele>131.60000610352</ele>
        <time>2019-05-12T07:28:42.000Z</time>
      </trkpt>
      <trkpt lat="46.57924" lon="0.19952">
        <ele>132</ele>
        <time>2019-05-12T07:28:47.000Z</time>
      </trkpt>
      <trkpt lat="46.57933" lon="0.19948">
        <ele>132</ele>
        <time>2019-05-12T07:28:50.000Z</time>
      </trkpt>
      <trkpt lat="46.57942" lon="0.19943">
        <ele>132.19999694824</ele>
        <time>2019-05-12T07:28:53.000Z</time>
      </trkpt>
      <trkpt lat="46.57959" lon="0.19934">
        <ele>132.60000610352</ele>
        <time>2019-05-12T07:28:59.000Z</time>
      </trkpt>
      <trkpt lat="46.57965" lon="0.19932">
        <ele>132.39999389648</ele>
        <time>2019-05-12T07:29:02.000Z</time>
      </trkpt>
      <trkpt lat="46.57967" lon="0.19934">
        <ele>132.60000610352</ele>
        <time>2019-05-12T07:29:04.000Z</time>
      </trkpt>
      <trkpt lat="46.57968" lon="0.1994">
        <ele>132.60000610352</ele>
        <time>2019-05-12T07:29:08.000Z</time>
      </trkpt>
      <trkpt lat="46.57968" lon="0.19943">
        <ele>132.80000305176</ele>
        <time>2019-05-12T07:29:09.000Z</time>
      </trkpt>
      <trkpt lat="46.57967" lon="0.1995">
        <ele>132.80000305176</ele>
        <time>2019-05-12T07:29:12.000Z</time>
      </trkpt>
      <trkpt lat="46.57966" lon="0.19963">
        <ele>133</ele>
        <time>2019-05-12T07:29:16.000Z</time>
      </trkpt>
      <trkpt lat="46.57962" lon="0.19983">
        <ele>132.80000305176</ele>
        <time>2019-05-12T07:29:22.000Z</time>
      </trkpt>
      <trkpt lat="46.57962" lon="0.19986">
        <ele>133</ele>
        <time>2019-05-12T07:29:23.000Z</time>
      </trkpt>
      <trkpt lat="46.57961" lon="0.1999">
        <ele>133</ele>
        <time>2019-05-12T07:29:24.000Z</time>
      </trkpt>
      <trkpt lat="46.57958" lon="0.20008">
        <ele>133.19999694824</ele>
        <time>2019-05-12T07:29:29.000Z</time>
      </trkpt>
      <trkpt lat="46.57953" lon="0.20041">
        <ele>133.80000305176</ele>
        <time>2019-05-12T07:29:37.000Z</time>
      </trkpt>
      <trkpt lat="46.57952" lon="0.20067">
        <ele>133.60000610352</ele>
        <time>2019-05-12T07:29:42.000Z</time>
      </trkpt>
      <trkpt lat="46.57952" lon="0.20108">
        <ele>133.60000610352</ele>
        <time>2019-05-12T07:29:49.000Z</time>
      </trkpt>
      <trkpt lat="46.57948" lon="0.2014">
        <ele>133.80000305176</ele>
        <time>2019-05-12T07:29:55.000Z</time>
      </trkpt>
      <trkpt lat="46.57941" lon="0.20161">
        <ele>134.19999694824</ele>
        <time>2019-05-12T07:29:59.000Z</time>
      </trkpt>
      <trkpt lat="46.57938" lon="0.20172">
        <ele>134.39999389648</ele>
        <time>2019-05-12T07:30:01.000Z</time>
      </trkpt>
      <trkpt lat="46.57935" lon="0.20183">
        <ele>134.19999694824</ele>
        <time>2019-05-12T07:30:03.000Z</time>
      </trkpt>
      <trkpt lat="46.5793" lon="0.20201">
        <ele>133.60000610352</ele>
        <time>2019-05-12T07:30:06.000Z</time>
      </trkpt>
      <trkpt lat="46.57927" lon="0.20211">
        <ele>133.39999389648</ele>
        <time>2019-05-12T07:30:08.000Z</time>
      </trkpt>
      <trkpt lat="46.57921" lon="0.20234">
        <ele>133.39999389648</ele>
        <time>2019-05-12T07:30:12.000Z</time>
      </trkpt>
      <trkpt lat="46.57911" lon="0.20272">
        <ele>133</ele>
        <time>2019-05-12T07:30:19.000Z</time>
      </trkpt>
      <trkpt lat="46.57903" lon="0.203">
        <ele>133</ele>
        <time>2019-05-12T07:30:24.000Z</time>
      </trkpt>
      <trkpt lat="46.57901" lon="0.20307">
        <ele>133</ele>
        <time>2019-05-12T07:30:25.000Z</time>
      </trkpt>
      <trkpt lat="46.57896" lon="0.20325">
        <ele>133</ele>
        <time>2019-05-12T07:30:28.000Z</time>
      </trkpt>
      <trkpt lat="46.57895" lon="0.20331">
        <ele>133</ele>
        <time>2019-05-12T07:30:29.000Z</time>
      </trkpt>
      <trkpt lat="46.57894" lon="0.20338">
        <ele>132.80000305176</ele>
        <time>2019-05-12T07:30:30.000Z</time>
      </trkpt>
      <trkpt lat="46.57892" lon="0.20351">
        <ele>132.60000610352</ele>
        <time>2019-05-12T07:30:32.000Z</time>
      </trkpt>
      <trkpt lat="46.5789" lon="0.20364">
        <ele>132.60000610352</ele>
        <time>2019-05-12T07:30:34.000Z</time>
      </trkpt>
      <trkpt lat="46.57881" lon="0.20387">
        <ele>132</ele>
        <time>2019-05-12T07:30:38.000Z</time>
      </trkpt>
      <trkpt lat="46.57866" lon="0.20422">
        <ele>131.80000305176</ele>
        <time>2019-05-12T07:30:44.000Z</time>
      </trkpt>
      <trkpt lat="46.57859" lon="0.20432">
        <ele>131.80000305176</ele>
        <time>2019-05-12T07:30:46.000Z</time>
      </trkpt>
      <trkpt lat="46.57851" lon="0.20444">
        <ele>131.39999389648</ele>
        <time>2019-05-12T07:30:48.000Z</time>
      </trkpt>
      <trkpt lat="46.57844" lon="0.20458">
        <ele>130.60000610352</ele>
        <time>2019-05-12T07:30:50.000Z</time>
      </trkpt>
      <trkpt lat="46.5784" lon="0.20465">
        <ele>130.39999389648</ele>
        <time>2019-05-12T07:30:51.000Z</time>
      </trkpt>
      <trkpt lat="46.5783" lon="0.20485">
        <ele>130</ele>
        <time>2019-05-12T07:30:54.000Z</time>
      </trkpt>
      <trkpt lat="46.57827" lon="0.20491">
        <ele>130.19999694824</ele>
        <time>2019-05-12T07:30:55.000Z</time>
      </trkpt>
      <trkpt lat="46.57816" lon="0.20513">
        <ele>130</ele>
        <time>2019-05-12T07:30:58.000Z</time>
      </trkpt>
      <trkpt lat="46.57808" lon="0.20524">
        <ele>130</ele>
        <time>2019-05-12T07:31:00.000Z</time>
      </trkpt>
      <trkpt lat="46.57796" lon="0.20536">
        <ele>130.39999389648</ele>
        <time>2019-05-12T07:31:03.000Z</time>
      </trkpt>
      <trkpt lat="46.57792" lon="0.20539">
        <ele>130.39999389648</ele>
        <time>2019-05-12T07:31:04.000Z</time>
      </trkpt>
      <trkpt lat="46.57771" lon="0.20557">
        <ele>132.19999694824</ele>
        <time>2019-05-12T07:31:09.000Z</time>
      </trkpt>
      <trkpt lat="46.57766" lon="0.20561">
        <ele>132.60000610352</ele>
        <time>2019-05-12T07:31:10.000Z</time>
      </trkpt>
      <trkpt lat="46.57749" lon="0.20573">
        <ele>133</ele>
        <time>2019-05-12T07:31:14.000Z</time>
      </trkpt>
      <trkpt lat="46.57746" lon="0.20578">
        <ele>132.80000305176</ele>
        <time>2019-05-12T07:31:15.000Z</time>
      </trkpt>
      <trkpt lat="46.57727" lon="0.20595">
        <ele>132.60000610352</ele>
        <time>2019-05-12T07:31:20.000Z</time>
      </trkpt>
      <trkpt lat="46.57693" lon="0.20629">
        <ele>132</ele>
        <time>2019-05-12T07:31:28.000Z</time>
      </trkpt>
      <trkpt lat="46.57668" lon="0.20659">
        <ele>132.80000305176</ele>
        <time>2019-05-12T07:31:34.000Z</time>
      </trkpt>
      <trkpt lat="46.57656" lon="0.20674">
        <ele>133.19999694824</ele>
        <time>2019-05-12T07:31:37.000Z</time>
      </trkpt>
      <trkpt lat="46.57637" lon="0.20697">
        <ele>133.60000610352</ele>
        <time>2019-05-12T07:31:42.000Z</time>
      </trkpt>
      <trkpt lat="46.57611" lon="0.20733">
        <ele>133.80000305176</ele>
        <time>2019-05-12T07:31:50.000Z</time>
      </trkpt>
      <trkpt lat="46.57592" lon="0.20757">
        <ele>134.19999694824</ele>
        <time>2019-05-12T07:31:56.000Z</time>
      </trkpt>
      <trkpt lat="46.57589" lon="0.20761">
        <ele>134.39999389648</ele>
        <time>2019-05-12T07:31:57.000Z</time>
      </trkpt>
      <trkpt lat="46.57571" lon="0.20785">
        <ele>134</ele>
        <time>2019-05-12T07:32:03.000Z</time>
      </trkpt>
      <trkpt lat="46.57569" lon="0.20789">
        <ele>133.80000305176</ele>
        <time>2019-05-12T07:32:04.000Z</time>
      </trkpt>
      <trkpt lat="46.57549" lon="0.20815">
        <ele>133.60000610352</ele>
        <time>2019-05-12T07:32:11.000Z</time>
      </trkpt>
      <trkpt lat="46.57532" lon="0.20839">
        <ele>133.39999389648</ele>
        <time>2019-05-12T07:32:17.000Z</time>
      </trkpt>
      <trkpt lat="46.57527" lon="0.2085">
        <ele>133.19999694824</ele>
        <time>2019-05-12T07:32:19.000Z</time>
      </trkpt>
      <trkpt lat="46.57525" lon="0.20855">
        <ele>133</ele>
        <time>2019-05-12T07:32:20.000Z</time>
      </trkpt>
      <trkpt lat="46.57515" lon="0.20873">
        <ele>132.80000305176</ele>
        <time>2019-05-12T07:32:24.000Z</time>
      </trkpt>
      <trkpt lat="46.57502" lon="0.20884">
        <ele>133</ele>
        <time>2019-05-12T07:32:28.000Z</time>
      </trkpt>
      <trkpt lat="46.57495" lon="0.20888">
        <ele>133.19999694824</ele>
        <time>2019-05-12T07:32:30.000Z</time>
      </trkpt>
      <trkpt lat="46.57465" lon="0.20898">
        <ele>133.60000610352</ele>
        <time>2019-05-12T07:32:38.000Z</time>
      </trkpt>
      <trkpt lat="46.57459" lon="0.20903">
        <ele>134.19999694824</ele>
        <time>2019-05-12T07:32:40.000Z</time>
      </trkpt>
      <trkpt lat="46.57451" lon="0.20914">
        <ele>134.60000610352</ele>
        <time>2019-05-12T07:32:43.000Z</time>
      </trkpt>
      <trkpt lat="46.57448" lon="0.20935">
        <ele>135.19999694824</ele>
        <time>2019-05-12T07:32:47.000Z</time>
      </trkpt>
      <trkpt lat="46.57448" lon="0.2097">
        <ele>136.19999694824</ele>
        <time>2019-05-12T07:32:53.000Z</time>
      </trkpt>
      <trkpt lat="46.57449" lon="0.20976">
        <ele>136.19999694824</ele>
        <time>2019-05-12T07:32:54.000Z</time>
      </trkpt>
      <trkpt lat="46.57452" lon="0.2101">
        <ele>136.39999389648</ele>
        <time>2019-05-12T07:33:00.000Z</time>
      </trkpt>
      <trkpt lat="46.57451" lon="0.2105">
        <ele>136.39999389648</ele>
        <time>2019-05-12T07:33:07.000Z</time>
      </trkpt>
      <trkpt lat="46.57447" lon="0.21088">
        <ele>137</ele>
        <time>2019-05-12T07:33:13.000Z</time>
      </trkpt>
      <trkpt lat="46.57447" lon="0.21108">
        <ele>137</ele>
        <time>2019-05-12T07:33:16.000Z</time>
      </trkpt>
      <trkpt lat="46.57447" lon="0.21132">
        <ele>137.60000610352</ele>
        <time>2019-05-12T07:33:20.000Z</time>
      </trkpt>
      <trkpt lat="46.57447" lon="0.21187">
        <ele>138.39999389648</ele>
        <time>2019-05-12T07:33:28.000Z</time>
      </trkpt>
      <trkpt lat="46.5745" lon="0.21225">
        <ele>138.80000305176</ele>
        <time>2019-05-12T07:33:34.000Z</time>
      </trkpt>
      <trkpt lat="46.57452" lon="0.21232">
        <ele>138.80000305176</ele>
        <time>2019-05-12T07:33:35.000Z</time>
      </trkpt>
      <trkpt lat="46.57458" lon="0.21266">
        <ele>138.60000610352</ele>
        <time>2019-05-12T07:33:40.000Z</time>
      </trkpt>
      <trkpt lat="46.5747" lon="0.21321">
        <ele>137.80000305176</ele>
        <time>2019-05-12T07:33:48.000Z</time>
      </trkpt>
      <trkpt lat="46.57468" lon="0.21337">
        <ele>137.60000610352</ele>
        <time>2019-05-12T07:33:51.000Z</time>
      </trkpt>
      <trkpt lat="46.57456" lon="0.21351">
        <ele>137.39999389648</ele>
        <time>2019-05-12T07:33:54.000Z</time>
      </trkpt>
      <trkpt lat="46.57451" lon="0.21356">
        <ele>137.19999694824</ele>
        <time>2019-05-12T07:33:55.000Z</time>
      </trkpt>
      <trkpt lat="46.57432" lon="0.21383">
        <ele>137</ele>
        <time>2019-05-12T07:34:00.000Z</time>
      </trkpt>
      <trkpt lat="46.5742" lon="0.21387">
        <ele>137.19999694824</ele>
        <time>2019-05-12T07:34:03.000Z</time>
      </trkpt>
      <trkpt lat="46.57411" lon="0.21383">
        <ele>137</ele>
        <time>2019-05-12T07:34:05.000Z</time>
      </trkpt>
      <trkpt lat="46.57407" lon="0.2138">
        <ele>137</ele>
        <time>2019-05-12T07:34:06.000Z</time>
      </trkpt>
      <trkpt lat="46.57398" lon="0.21381">
        <ele>136.80000305176</ele>
        <time>2019-05-12T07:34:08.000Z</time>
      </trkpt>
      <trkpt lat="46.57382" lon="0.21401">
        <ele>136.60000610352</ele>
        <time>2019-05-12T07:34:12.000Z</time>
      </trkpt>
      <trkpt lat="46.57379" lon="0.21407">
        <ele>136.39999389648</ele>
        <time>2019-05-12T07:34:13.000Z</time>
      </trkpt>
      <trkpt lat="46.57376" lon="0.21412">
        <ele>136.19999694824</ele>
        <time>2019-05-12T07:34:14.000Z</time>
      </trkpt>
      <trkpt lat="46.57362" lon="0.21434">
        <ele>135.80000305176</ele>
        <time>2019-05-12T07:34:18.000Z</time>
      </trkpt>
      <trkpt lat="46.57338" lon="0.21472">
        <ele>135</ele>
        <time>2019-05-12T07:34:25.000Z</time>
      </trkpt>
      <trkpt lat="46.57334" lon="0.21477">
        <ele>135</ele>
        <time>2019-05-12T07:34:26.000Z</time>
      </trkpt>
      <trkpt lat="46.57323" lon="0.21475">
        <ele>135</ele>
        <time>2019-05-12T07:34:29.000Z</time>
      </trkpt>
      <trkpt lat="46.57319" lon="0.21472">
        <ele>135</ele>
        <time>2019-05-12T07:34:30.000Z</time>
      </trkpt>
      <trkpt lat="46.57308" lon="0.21461">
        <ele>135</ele>
        <time>2019-05-12T07:34:33.000Z</time>
      </trkpt>
      <trkpt lat="46.573" lon="0.21462">
        <ele>134.80000305176</ele>
        <time>2019-05-12T07:34:35.000Z</time>
      </trkpt>
      <trkpt lat="46.57295" lon="0.21472">
        <ele>134.80000305176</ele>
        <time>2019-05-12T07:34:37.000Z</time>
      </trkpt>
      <trkpt lat="46.57289" lon="0.21484">
        <ele>134.60000610352</ele>
        <time>2019-05-12T07:34:39.000Z</time>
      </trkpt>
      <trkpt lat="46.5728" lon="0.21502">
        <ele>134</ele>
        <time>2019-05-12T07:34:42.000Z</time>
      </trkpt>
      <trkpt lat="46.57271" lon="0.21522">
        <ele>133.60000610352</ele>
        <time>2019-05-12T07:34:45.000Z</time>
      </trkpt>
      <trkpt lat="46.57269" lon="0.21529">
        <ele>133.60000610352</ele>
        <time>2019-05-12T07:34:46.000Z</time>
      </trkpt>
      <trkpt lat="46.57252" lon="0.21564">
        <ele>133</ele>
        <time>2019-05-12T07:34:51.000Z</time>
      </trkpt>
      <trkpt lat="46.57244" lon="0.21578">
        <ele>132.60000610352</ele>
        <time>2019-05-12T07:34:53.000Z</time>
      </trkpt>
      <trkpt lat="46.57235" lon="0.21594">
        <ele>131.60000610352</ele>
        <time>2019-05-12T07:34:56.000Z</time>
      </trkpt>
      <trkpt lat="46.57229" lon="0.216">
        <ele>130.19999694824</ele>
        <time>2019-05-12T07:34:59.000Z</time>
      </trkpt>
      <trkpt lat="46.57222" lon="0.21611">
        <ele>129.39999389648</ele>
        <time>2019-05-12T07:35:02.000Z</time>
      </trkpt>
      <trkpt lat="46.57222" lon="0.21616">
        <ele>129.19999694824</ele>
        <time>2019-05-12T07:35:03.000Z</time>
      </trkpt>
      <trkpt lat="46.57224" lon="0.2162">
        <ele>128.80000305176</ele>
        <time>2019-05-12T07:35:04.000Z</time>
      </trkpt>
      <trkpt lat="46.57226" lon="0.2163">
        <ele>128.60000610352</ele>
        <time>2019-05-12T07:35:06.000Z</time>
      </trkpt>
      <trkpt lat="46.57228" lon="0.21635">
        <ele>128.19999694824</ele>
        <time>2019-05-12T07:35:07.000Z</time>
      </trkpt>
      <trkpt lat="46.57229" lon="0.21641">
        <ele>128.19999694824</ele>
        <time>2019-05-12T07:35:08.000Z</time>
      </trkpt>
      <trkpt lat="46.57228" lon="0.21651">
        <ele>128.39999389648</ele>
        <time>2019-05-12T07:35:10.000Z</time>
      </trkpt>
      <trkpt lat="46.57228" lon="0.2166">
        <ele>128.39999389648</ele>
        <time>2019-05-12T07:35:12.000Z</time>
      </trkpt>
      <trkpt lat="46.57229" lon="0.21689">
        <ele>128.60000610352</ele>
        <time>2019-05-12T07:35:17.000Z</time>
      </trkpt>
      <trkpt lat="46.57231" lon="0.21715">
        <ele>128.80000305176</ele>
        <time>2019-05-12T07:35:21.000Z</time>
      </trkpt>
      <trkpt lat="46.57231" lon="0.21735">
        <ele>128.60000610352</ele>
        <time>2019-05-12T07:35:24.000Z</time>
      </trkpt>
      <trkpt lat="46.5723" lon="0.21763">
        <ele>128.39999389648</ele>
        <time>2019-05-12T07:35:28.000Z</time>
      </trkpt>
      <trkpt lat="46.57228" lon="0.2177">
        <ele>128.39999389648</ele>
        <time>2019-05-12T07:35:29.000Z</time>
      </trkpt>
      <trkpt lat="46.57225" lon="0.218">
        <ele>127.80000305176</ele>
        <time>2019-05-12T07:35:33.000Z</time>
      </trkpt>
      <trkpt lat="46.57223" lon="0.21814">
        <ele>127.59999847412</ele>
        <time>2019-05-12T07:35:35.000Z</time>
      </trkpt>
      <trkpt lat="46.57223" lon="0.21828">
        <ele>127.59999847412</ele>
        <time>2019-05-12T07:35:37.000Z</time>
      </trkpt>
      <trkpt lat="46.5722" lon="0.21842">
        <ele>127.59999847412</ele>
        <time>2019-05-12T07:35:39.000Z</time>
      </trkpt>
      <trkpt lat="46.57214" lon="0.21879">
        <ele>128</ele>
        <time>2019-05-12T07:35:44.000Z</time>
      </trkpt>
      <trkpt lat="46.5721" lon="0.21911">
        <ele>128.39999389648</ele>
        <time>2019-05-12T07:35:48.000Z</time>
      </trkpt>
      <trkpt lat="46.57209" lon="0.21919">
        <ele>128.39999389648</ele>
        <time>2019-05-12T07:35:49.000Z</time>
      </trkpt>
      <trkpt lat="46.57199" lon="0.21962">
        <ele>127.59999847412</ele>
        <time>2019-05-12T07:35:54.000Z</time>
      </trkpt>
      <trkpt lat="46.57194" lon="0.2199">
        <ele>127.19999694824</ele>
        <time>2019-05-12T07:35:57.000Z</time>
      </trkpt>
      <trkpt lat="46.57191" lon="0.21998">
        <ele>127.19999694824</ele>
        <time>2019-05-12T07:35:58.000Z</time>
      </trkpt>
      <trkpt lat="46.57188" lon="0.22007">
        <ele>127</ele>
        <time>2019-05-12T07:35:59.000Z</time>
      </trkpt>
      <trkpt lat="46.57183" lon="0.22023">
        <ele>126.19999694824</ele>
        <time>2019-05-12T07:36:01.000Z</time>
      </trkpt>
      <trkpt lat="46.57178" lon="0.22038">
        <ele>125.80000305176</ele>
        <time>2019-05-12T07:36:03.000Z</time>
      </trkpt>
      <trkpt lat="46.57167" lon="0.22064">
        <ele>125.59999847412</ele>
        <time>2019-05-12T07:36:07.000Z</time>
      </trkpt>
      <trkpt lat="46.57164" lon="0.2207">
        <ele>125.40000152588</ele>
        <time>2019-05-12T07:36:08.000Z</time>
      </trkpt>
      <trkpt lat="46.57161" lon="0.22077">
        <ele>124.80000305176</ele>
        <time>2019-05-12T07:36:09.000Z</time>
      </trkpt>
      <trkpt lat="46.57158" lon="0.22083">
        <ele>124.19999694824</ele>
        <time>2019-05-12T07:36:10.000Z</time>
      </trkpt>
      <trkpt lat="46.57154" lon="0.22088">
        <ele>123.80000305176</ele>
        <time>2019-05-12T07:36:11.000Z</time>
      </trkpt>
      <trkpt lat="46.5715" lon="0.22094">
        <ele>123.40000152588</ele>
        <time>2019-05-12T07:36:12.000Z</time>
      </trkpt>
      <trkpt lat="46.57143" lon="0.22109">
        <ele>122.80000305176</ele>
        <time>2019-05-12T07:36:14.000Z</time>
      </trkpt>
      <trkpt lat="46.57135" lon="0.22124">
        <ele>122</ele>
        <time>2019-05-12T07:36:16.000Z</time>
      </trkpt>
      <trkpt lat="46.57131" lon="0.22131">
        <ele>121.59999847412</ele>
        <time>2019-05-12T07:36:17.000Z</time>
      </trkpt>
      <trkpt lat="46.57122" lon="0.22154">
        <ele>120.80000305176</ele>
        <time>2019-05-12T07:36:20.000Z</time>
      </trkpt>
      <trkpt lat="46.5712" lon="0.22162">
        <ele>120.59999847412</ele>
        <time>2019-05-12T07:36:21.000Z</time>
      </trkpt>
      <trkpt lat="46.57118" lon="0.22171">
        <ele>120.40000152588</ele>
        <time>2019-05-12T07:36:22.000Z</time>
      </trkpt>
      <trkpt lat="46.57114" lon="0.22198">
        <ele>119.59999847412</ele>
        <time>2019-05-12T07:36:25.000Z</time>
      </trkpt>
      <trkpt lat="46.57108" lon="0.22216">
        <ele>118.19999694824</ele>
        <time>2019-05-12T07:36:27.000Z</time>
      </trkpt>
      <trkpt lat="46.57107" lon="0.22225">
        <ele>117.80000305176</ele>
        <time>2019-05-12T07:36:28.000Z</time>
      </trkpt>
      <trkpt lat="46.57105" lon="0.22234">
        <ele>117.40000152588</ele>
        <time>2019-05-12T07:36:29.000Z</time>
      </trkpt>
      <trkpt lat="46.57105" lon="0.22241">
        <ele>117</ele>
        <time>2019-05-12T07:36:30.000Z</time>
      </trkpt>
      <trkpt lat="46.57102" lon="0.22251">
        <ele>116.59999847412</ele>
        <time>2019-05-12T07:36:32.000Z</time>
      </trkpt>
      <trkpt lat="46.57095" lon="0.2226">
        <ele>115.80000305176</ele>
        <time>2019-05-12T07:36:35.000Z</time>
      </trkpt>
      <trkpt lat="46.57094" lon="0.22269">
        <ele>114.40000152588</ele>
        <time>2019-05-12T07:36:38.000Z</time>
      </trkpt>
      <trkpt lat="46.57093" lon="0.22274">
        <ele>114.19999694824</ele>
        <time>2019-05-12T07:36:39.000Z</time>
      </trkpt>
      <trkpt lat="46.57091" lon="0.2228">
        <ele>114</ele>
        <time>2019-05-12T07:36:40.000Z</time>
      </trkpt>
      <trkpt lat="46.57086" lon="0.22296">
        <ele>113.40000152588</ele>
        <time>2019-05-12T07:36:43.000Z</time>
      </trkpt>
      <trkpt lat="46.57085" lon="0.22301">
        <ele>113.40000152588</ele>
        <time>2019-05-12T07:36:44.000Z</time>
      </trkpt>
      <trkpt lat="46.57084" lon="0.22314">
        <ele>113</ele>
        <time>2019-05-12T07:36:46.000Z</time>
      </trkpt>
      <trkpt lat="46.57077" lon="0.22335">
        <ele>112.59999847412</ele>
        <time>2019-05-12T07:36:50.000Z</time>
      </trkpt>
      <trkpt lat="46.57075" lon="0.22343">
        <ele>112.59999847412</ele>
        <time>2019-05-12T07:36:51.000Z</time>
      </trkpt>
      <trkpt lat="46.57074" lon="0.2235">
        <ele>112.40000152588</ele>
        <time>2019-05-12T07:36:52.000Z</time>
      </trkpt>
      <trkpt lat="46.57068" lon="0.22365">
        <ele>112.19999694824</ele>
        <time>2019-05-12T07:36:55.000Z</time>
      </trkpt>
      <trkpt lat="46.5706" lon="0.22377">
        <ele>111.40000152588</ele>
        <time>2019-05-12T07:36:57.000Z</time>
      </trkpt>
      <trkpt lat="46.57057" lon="0.22383">
        <ele>111</ele>
        <time>2019-05-12T07:36:58.000Z</time>
      </trkpt>
      <trkpt lat="46.57054" lon="0.2239">
        <ele>110.19999694824</ele>
        <time>2019-05-12T07:36:59.000Z</time>
      </trkpt>
      <trkpt lat="46.5705" lon="0.22402">
        <ele>108.59999847412</ele>
        <time>2019-05-12T07:37:01.000Z</time>
      </trkpt>
      <trkpt lat="46.57048" lon="0.22405">
        <ele>107.80000305176</ele>
        <time>2019-05-12T07:37:02.000Z</time>
      </trkpt>
      <trkpt lat="46.57046" lon="0.22407">
        <ele>107.19999694824</ele>
        <time>2019-05-12T07:37:03.000Z</time>
      </trkpt>
      <trkpt lat="46.5704" lon="0.22408">
        <ele>106.40000152588</ele>
        <time>2019-05-12T07:37:05.000Z</time>
      </trkpt>
      <trkpt lat="46.57037" lon="0.22407">
        <ele>105.59999847412</ele>
        <time>2019-05-12T07:37:06.000Z</time>
      </trkpt>
      <trkpt lat="46.5703" lon="0.22401">
        <ele>104.19999694824</ele>
        <time>2019-05-12T07:37:08.000Z</time>
      </trkpt>
      <trkpt lat="46.57027" lon="0.22398">
        <ele>103.19999694824</ele>
        <time>2019-05-12T07:37:09.000Z</time>
      </trkpt>
      <trkpt lat="46.57025" lon="0.22395">
        <ele>102.40000152588</ele>
        <time>2019-05-12T07:37:10.000Z</time>
      </trkpt>
      <trkpt lat="46.57024" lon="0.22391">
        <ele>101.40000152588</ele>
        <time>2019-05-12T07:37:11.000Z</time>
      </trkpt>
      <trkpt lat="46.57024" lon="0.22387">
        <ele>100.19999694824</ele>
        <time>2019-05-12T07:37:12.000Z</time>
      </trkpt>
      <trkpt lat="46.57024" lon="0.22383">
        <ele>99.199996948242</ele>
        <time>2019-05-12T07:37:13.000Z</time>
      </trkpt>
      <trkpt lat="46.57024" lon="0.22379">
        <ele>98</ele>
        <time>2019-05-12T07:37:14.000Z</time>
      </trkpt>
      <trkpt lat="46.57023" lon="0.22375">
        <ele>96.599998474121</ele>
        <time>2019-05-12T07:37:15.000Z</time>
      </trkpt>
      <trkpt lat="46.57022" lon="0.22371">
        <ele>95.800003051758</ele>
        <time>2019-05-12T07:37:16.000Z</time>
      </trkpt>
      <trkpt lat="46.57021" lon="0.22368">
        <ele>95</ele>
        <time>2019-05-12T07:37:17.000Z</time>
      </trkpt>
      <trkpt lat="46.5702" lon="0.22367">
        <ele>93.599998474121</ele>
        <time>2019-05-12T07:37:18.000Z</time>
      </trkpt>
      <trkpt lat="46.5702" lon="0.22366">
        <ele>92</ele>
        <time>2019-05-12T07:37:19.000Z</time>
      </trkpt>
      <trkpt lat="46.57019" lon="0.22365">
        <ele>91</ele>
        <time>2019-05-12T07:37:20.000Z</time>
      </trkpt>
      <trkpt lat="46.57015" lon="0.22374">
        <ele>89.400001525879</ele>
        <time>2019-05-12T07:38:43.000Z</time>
      </trkpt>
      <trkpt lat="46.57013" lon="0.22377">
        <ele>89.400001525879</ele>
        <time>2019-05-12T07:38:44.000Z</time>
      </trkpt>
      <trkpt lat="46.57011" lon="0.22379">
        <ele>89.599998474121</ele>
        <time>2019-05-12T07:38:45.000Z</time>
      </trkpt>
      <trkpt lat="46.57005" lon="0.2239">
        <ele>89.800003051758</ele>
        <time>2019-05-12T07:38:48.000Z</time>
      </trkpt>
      <trkpt lat="46.57001" lon="0.22401">
        <ele>89.599998474121</ele>
        <time>2019-05-12T07:38:51.000Z</time>
      </trkpt>
      <trkpt lat="46.56997" lon="0.22416">
        <ele>89.599998474121</ele>
        <time>2019-05-12T07:38:55.000Z</time>
      </trkpt>
      <trkpt lat="46.56996" lon="0.2242">
        <ele>89.599998474121</ele>
        <time>2019-05-12T07:38:56.000Z</time>
      </trkpt>
      <trkpt lat="46.56988" lon="0.2244">
        <ele>90</ele>
        <time>2019-05-12T07:39:00.000Z</time>
      </trkpt>
      <trkpt lat="46.56981" lon="0.22471">
        <ele>89.599998474121</ele>
        <time>2019-05-12T07:39:06.000Z</time>
      </trkpt>
      <trkpt lat="46.56979" lon="0.22501">
        <ele>89.599998474121</ele>
        <time>2019-05-12T07:39:11.000Z</time>
      </trkpt>
      <trkpt lat="46.56979" lon="0.22523">
        <ele>89.599998474121</ele>
        <time>2019-05-12T07:39:15.000Z</time>
      </trkpt>
      <trkpt lat="46.56982" lon="0.22555">
        <ele>89.599998474121</ele>
        <time>2019-05-12T07:39:20.000Z</time>
      </trkpt>
      <trkpt lat="46.56987" lon="0.22585">
        <ele>89.599998474121</ele>
        <time>2019-05-12T07:39:25.000Z</time>
      </trkpt>
      <trkpt lat="46.56992" lon="0.22614">
        <ele>89.199996948242</ele>
        <time>2019-05-12T07:39:30.000Z</time>
      </trkpt>
      <trkpt lat="46.56994" lon="0.2262">
        <ele>89.400001525879</ele>
        <time>2019-05-12T07:39:31.000Z</time>
      </trkpt>
      <trkpt lat="46.56998" lon="0.22637">
        <ele>89.400001525879</ele>
        <time>2019-05-12T07:39:34.000Z</time>
      </trkpt>
      <trkpt lat="46.57" lon="0.22642">
        <ele>89.400001525879</ele>
        <time>2019-05-12T07:39:35.000Z</time>
      </trkpt>
      <trkpt lat="46.57007" lon="0.22658">
        <ele>89.800003051758</ele>
        <time>2019-05-12T07:39:38.000Z</time>
      </trkpt>
      <trkpt lat="46.5701" lon="0.22664">
        <ele>89.800003051758</ele>
        <time>2019-05-12T07:39:39.000Z</time>
      </trkpt>
      <trkpt lat="46.57021" lon="0.22677">
        <ele>90</ele>
        <time>2019-05-12T07:39:43.000Z</time>
      </trkpt>
      <trkpt lat="46.57024" lon="0.2268">
        <ele>90.199996948242</ele>
        <time>2019-05-12T07:39:44.000Z</time>
      </trkpt>
      <trkpt lat="46.57037" lon="0.22691">
        <ele>91.800003051758</ele>
        <time>2019-05-12T07:39:48.000Z</time>
      </trkpt>
      <trkpt lat="46.57041" lon="0.22696">
        <ele>93.199996948242</ele>
        <time>2019-05-12T07:39:50.000Z</time>
      </trkpt>
      <trkpt lat="46.57048" lon="0.22702">
        <ele>94.400001525879</ele>
        <time>2019-05-12T07:39:53.000Z</time>
      </trkpt>
      <trkpt lat="46.57053" lon="0.22708">
        <ele>96</ele>
        <time>2019-05-12T07:39:55.000Z</time>
      </trkpt>
      <trkpt lat="46.5706" lon="0.22719">
        <ele>97.199996948242</ele>
        <time>2019-05-12T07:39:58.000Z</time>
      </trkpt>
      <trkpt lat="46.57066" lon="0.22724">
        <ele>98</ele>
        <time>2019-05-12T07:40:00.000Z</time>
      </trkpt>
      <trkpt lat="46.57068" lon="0.22726">
        <ele>98.400001525879</ele>
        <time>2019-05-12T07:40:01.000Z</time>
      </trkpt>
      <trkpt lat="46.57071" lon="0.2273">
        <ele>98.599998474121</ele>
        <time>2019-05-12T07:40:02.000Z</time>
      </trkpt>
      <trkpt lat="46.57075" lon="0.22737">
        <ele>99.199996948242</ele>
        <time>2019-05-12T07:40:04.000Z</time>
      </trkpt>
      <trkpt lat="46.57085" lon="0.2275">
        <ele>99.800003051758</ele>
        <time>2019-05-12T07:40:08.000Z</time>
      </trkpt>
      <trkpt lat="46.57087" lon="0.22753">
        <ele>100</ele>
        <time>2019-05-12T07:40:09.000Z</time>
      </trkpt>
      <trkpt lat="46.57098" lon="0.22767">
        <ele>100.19999694824</ele>
        <time>2019-05-12T07:40:14.000Z</time>
      </trkpt>
      <trkpt lat="46.57114" lon="0.22768">
        <ele>100.80000305176</ele>
        <time>2019-05-12T07:40:19.000Z</time>
      </trkpt>
      <trkpt lat="46.57117" lon="0.22767">
        <ele>101</ele>
        <time>2019-05-12T07:40:20.000Z</time>
      </trkpt>
      <trkpt lat="46.5712" lon="0.22768">
        <ele>101.40000152588</ele>
        <time>2019-05-12T07:40:21.000Z</time>
      </trkpt>
      <trkpt lat="46.57127" lon="0.22769">
        <ele>101.80000305176</ele>
        <time>2019-05-12T07:40:23.000Z</time>
      </trkpt>
      <trkpt lat="46.57136" lon="0.22772">
        <ele>102.19999694824</ele>
        <time>2019-05-12T07:40:27.000Z</time>
      </trkpt>
      <trkpt lat="46.57138" lon="0.22773">
        <ele>102.40000152588</ele>
        <time>2019-05-12T07:40:28.000Z</time>
      </trkpt>
      <trkpt lat="46.57148" lon="0.2278">
        <ele>102.19999694824</ele>
        <time>2019-05-12T07:40:33.000Z</time>
      </trkpt>
      <trkpt lat="46.57152" lon="0.22792">
        <ele>102</ele>
        <time>2019-05-12T07:40:36.000Z</time>
      </trkpt>
      <trkpt lat="46.57153" lon="0.22797">
        <ele>102</ele>
        <time>2019-05-12T07:40:37.000Z</time>
      </trkpt>
      <trkpt lat="46.57152" lon="0.22817">
        <ele>100.80000305176</ele>
        <time>2019-05-12T07:40:41.000Z</time>
      </trkpt>
      <trkpt lat="46.57152" lon="0.22821">
        <ele>100.40000152588</ele>
        <time>2019-05-12T07:40:42.000Z</time>
      </trkpt>
      <trkpt lat="46.57153" lon="0.22825">
        <ele>99.800003051758</ele>
        <time>2019-05-12T07:40:43.000Z</time>
      </trkpt>
      <trkpt lat="46.57157" lon="0.22831">
        <ele>99.199996948242</ele>
        <time>2019-05-12T07:40:45.000Z</time>
      </trkpt>
      <trkpt lat="46.57159" lon="0.22836">
        <ele>98.400001525879</ele>
        <time>2019-05-12T07:40:48.000Z</time>
      </trkpt>
      <trkpt lat="46.57158" lon="0.22848">
        <ele>96.800003051758</ele>
        <time>2019-05-12T07:41:05.000Z</time>
      </trkpt>
      <trkpt lat="46.57157" lon="0.2285">
        <ele>96.599998474121</ele>
        <time>2019-05-12T07:41:06.000Z</time>
      </trkpt>
      <trkpt lat="46.57156" lon="0.22856">
        <ele>95.800003051758</ele>
        <time>2019-05-12T07:41:08.000Z</time>
      </trkpt>
      <trkpt lat="46.57155" lon="0.22861">
        <ele>94.599998474121</ele>
        <time>2019-05-12T07:41:10.000Z</time>
      </trkpt>
      <trkpt lat="46.57155" lon="0.22864">
        <ele>94</ele>
        <time>2019-05-12T07:41:11.000Z</time>
      </trkpt>
      <trkpt lat="46.57154" lon="0.22866">
        <ele>93.599998474121</ele>
        <time>2019-05-12T07:41:12.000Z</time>
      </trkpt>
      <trkpt lat="46.57154" lon="0.22869">
        <ele>93.199996948242</ele>
        <time>2019-05-12T07:41:13.000Z</time>
      </trkpt>
      <trkpt lat="46.57156" lon="0.22874">
        <ele>92.599998474121</ele>
        <time>2019-05-12T07:41:15.000Z</time>
      </trkpt>
      <trkpt lat="46.57158" lon="0.22879">
        <ele>92</ele>
        <time>2019-05-12T07:41:17.000Z</time>
      </trkpt>
      <trkpt lat="46.57159" lon="0.22881">
        <ele>92.199996948242</ele>
        <time>2019-05-12T07:41:18.000Z</time>
      </trkpt>
      <trkpt lat="46.57164" lon="0.22885">
        <ele>92.800003051758</ele>
        <time>2019-05-12T07:41:21.000Z</time>
      </trkpt>
      <trkpt lat="46.57167" lon="0.22887">
        <ele>93.599998474121</ele>
        <time>2019-05-12T07:41:23.000Z</time>
      </trkpt>
      <trkpt lat="46.57172" lon="0.2289">
        <ele>94.599998474121</ele>
        <time>2019-05-12T07:41:26.000Z</time>
      </trkpt>
      <trkpt lat="46.57174" lon="0.22891">
        <ele>94.800003051758</ele>
        <time>2019-05-12T07:41:27.000Z</time>
      </trkpt>
      <trkpt lat="46.57178" lon="0.22892">
        <ele>95.800003051758</ele>
        <time>2019-05-12T07:41:30.000Z</time>
      </trkpt>
      <trkpt lat="46.57178" lon="0.22892">
        <ele>96.199996948242</ele>
        <time>2019-05-12T07:41:31.000Z</time>
      </trkpt>
      <trkpt lat="46.5719" lon="0.22894">
        <ele>97.199996948242</ele>
        <time>2019-05-12T07:41:46.000Z</time>
      </trkpt>
      <trkpt lat="46.57192" lon="0.22894">
        <ele>97.400001525879</ele>
        <time>2019-05-12T07:41:47.000Z</time>
      </trkpt>
      <trkpt lat="46.57193" lon="0.22895">
        <ele>97.800003051758</ele>
        <time>2019-05-12T07:41:48.000Z</time>
      </trkpt>
      <trkpt lat="46.57198" lon="0.22898">
        <ele>98</ele>
        <time>2019-05-12T07:41:52.000Z</time>
      </trkpt>
      <trkpt lat="46.57204" lon="0.22903">
        <ele>98.199996948242</ele>
        <time>2019-05-12T07:41:56.000Z</time>
      </trkpt>
      <trkpt lat="46.57209" lon="0.22909">
        <ele>97.800003051758</ele>
        <time>2019-05-12T07:42:00.000Z</time>
      </trkpt>
      <trkpt lat="46.57212" lon="0.22914">
        <ele>97.199996948242</ele>
        <time>2019-05-12T07:42:02.000Z</time>
      </trkpt>
      <trkpt lat="46.57216" lon="0.22922">
        <ele>96.800003051758</ele>
        <time>2019-05-12T07:42:05.000Z</time>
      </trkpt>
      <trkpt lat="46.57219" lon="0.22928">
        <ele>96.599998474121</ele>
        <time>2019-05-12T07:42:07.000Z</time>
      </trkpt>
      <trkpt lat="46.57222" lon="0.22931">
        <ele>96.400001525879</ele>
        <time>2019-05-12T07:42:08.000Z</time>
      </trkpt>
      <trkpt lat="46.57227" lon="0.22935">
        <ele>96.400001525879</ele>
        <time>2019-05-12T07:42:10.000Z</time>
      </trkpt>
      <trkpt lat="46.57236" lon="0.22947">
        <ele>96.800003051758</ele>
        <time>2019-05-12T07:42:14.000Z</time>
      </trkpt>
      <trkpt lat="46.57243" lon="0.22961">
        <ele>95.800003051758</ele>
        <time>2019-05-12T07:42:19.000Z</time>
      </trkpt>
      <trkpt lat="46.57245" lon="0.22963">
        <ele>95.400001525879</ele>
        <time>2019-05-12T07:42:21.000Z</time>
      </trkpt>
      <trkpt lat="46.57255" lon="0.22973">
        <ele>95.199996948242</ele>
        <time>2019-05-12T07:42:28.000Z</time>
      </trkpt>
      <trkpt lat="46.57257" lon="0.22975">
        <ele>95.199996948242</ele>
        <time>2019-05-12T07:42:29.000Z</time>
      </trkpt>
      <trkpt lat="46.5727" lon="0.22983">
        <ele>95.199996948242</ele>
        <time>2019-05-12T07:42:34.000Z</time>
      </trkpt>
      <trkpt lat="46.57278" lon="0.22987">
        <ele>95.599998474121</ele>
        <time>2019-05-12T07:42:37.000Z</time>
      </trkpt>
      <trkpt lat="46.5728" lon="0.2299">
        <ele>95.800003051758</ele>
        <time>2019-05-12T07:42:38.000Z</time>
      </trkpt>
      <trkpt lat="46.57289" lon="0.23005">
        <ele>95.599998474121</ele>
        <time>2019-05-12T07:42:42.000Z</time>
      </trkpt>
      <trkpt lat="46.57301" lon="0.23009">
        <ele>95.400001525879</ele>
        <time>2019-05-12T07:42:46.000Z</time>
      </trkpt>
      <trkpt lat="46.57303" lon="0.23011">
        <ele>95.199996948242</ele>
        <time>2019-05-12T07:42:47.000Z</time>
      </trkpt>
      <trkpt lat="46.5731" lon="0.23019">
        <ele>95.400001525879</ele>
        <time>2019-05-12T07:42:51.000Z</time>
      </trkpt>
      <trkpt lat="46.57313" lon="0.23023">
        <ele>95.400001525879</ele>
        <time>2019-05-12T07:42:53.000Z</time>
      </trkpt>
      <trkpt lat="46.57323" lon="0.23029">
        <ele>95.400001525879</ele>
        <time>2019-05-12T07:42:57.000Z</time>
      </trkpt>
      <trkpt lat="46.57338" lon="0.23032">
        <ele>95.599998474121</ele>
        <time>2019-05-12T07:43:01.000Z</time>
      </trkpt>
      <trkpt lat="46.5734" lon="0.23034">
        <ele>95.599998474121</ele>
        <time>2019-05-12T07:43:02.000Z</time>
      </trkpt>
      <trkpt lat="46.57348" lon="0.23038">
        <ele>95.599998474121</ele>
        <time>2019-05-12T07:43:05.000Z</time>
      </trkpt>
      <trkpt lat="46.57352" lon="0.2304">
        <ele>96</ele>
        <time>2019-05-12T07:43:07.000Z</time>
      </trkpt>
      <trkpt lat="46.57352" lon="0.23042">
        <ele>95.800003051758</ele>
        <time>2019-05-12T07:43:08.000Z</time>
      </trkpt>
      <trkpt lat="46.57354" lon="0.23048">
        <ele>94.599998474121</ele>
        <time>2019-05-12T07:43:11.000Z</time>
      </trkpt>
      <trkpt lat="46.57355" lon="0.23049">
        <ele>94.599998474121</ele>
        <time>2019-05-12T07:43:12.000Z</time>
      </trkpt>
      <trkpt lat="46.57357" lon="0.23051">
        <ele>94.400001525879</ele>
        <time>2019-05-12T07:43:13.000Z</time>
      </trkpt>
      <trkpt lat="46.57359" lon="0.2306">
        <ele>94</ele>
        <time>2019-05-12T07:43:17.000Z</time>
      </trkpt>
      <trkpt lat="46.57359" lon="0.23063">
        <ele>93.800003051758</ele>
        <time>2019-05-12T07:43:18.000Z</time>
      </trkpt>
      <trkpt lat="46.57359" lon="0.23075">
        <ele>93.400001525879</ele>
        <time>2019-05-12T07:43:21.000Z</time>
      </trkpt>
      <trkpt lat="46.57359" lon="0.23081">
        <ele>93.199996948242</ele>
        <time>2019-05-12T07:43:22.000Z</time>
      </trkpt>
      <trkpt lat="46.57363" lon="0.23094">
        <ele>91.800003051758</ele>
        <time>2019-05-12T07:43:26.000Z</time>
      </trkpt>
      <trkpt lat="46.57371" lon="0.23097">
        <ele>90.800003051758</ele>
        <time>2019-05-12T07:43:28.000Z</time>
      </trkpt>
      <trkpt lat="46.57378" lon="0.23098">
        <ele>90.400001525879</ele>
        <time>2019-05-12T07:43:30.000Z</time>
      </trkpt>
      <trkpt lat="46.57381" lon="0.23099">
        <ele>90.400001525879</ele>
        <time>2019-05-12T07:43:31.000Z</time>
      </trkpt>
      <trkpt lat="46.57391" lon="0.23096">
        <ele>91</ele>
        <time>2019-05-12T07:43:34.000Z</time>
      </trkpt>
      <trkpt lat="46.57392" lon="0.23094">
        <ele>91.199996948242</ele>
        <time>2019-05-12T07:43:35.000Z</time>
      </trkpt>
      <trkpt lat="46.57395" lon="0.23092">
        <ele>91.599998474121</ele>
        <time>2019-05-12T07:43:36.000Z</time>
      </trkpt>
      <trkpt lat="46.57401" lon="0.23087">
        <ele>92.199996948242</ele>
        <time>2019-05-12T07:43:39.000Z</time>
      </trkpt>
      <trkpt lat="46.57406" lon="0.23081">
        <ele>92.599998474121</ele>
        <time>2019-05-12T07:43:42.000Z</time>
      </trkpt>
      <trkpt lat="46.57409" lon="0.2308">
        <ele>93</ele>
        <time>2019-05-12T07:43:44.000Z</time>
      </trkpt>
      <trkpt lat="46.57411" lon="0.2308">
        <ele>93.199996948242</ele>
        <time>2019-05-12T07:43:45.000Z</time>
      </trkpt>
      <trkpt lat="46.57413" lon="0.23078">
        <ele>93.599998474121</ele>
        <time>2019-05-12T07:43:46.000Z</time>
      </trkpt>
      <trkpt lat="46.5742" lon="0.23072">
        <ele>94.599998474121</ele>
        <time>2019-05-12T07:43:49.000Z</time>
      </trkpt>
      <trkpt lat="46.57422" lon="0.2307">
        <ele>94.599998474121</ele>
        <time>2019-05-12T07:43:50.000Z</time>
      </trkpt>
      <trkpt lat="46.57432" lon="0.23058">
        <ele>95.199996948242</ele>
        <time>2019-05-12T07:43:55.000Z</time>
      </trkpt>
      <trkpt lat="46.57435" lon="0.23053">
        <ele>95.800003051758</ele>
        <time>2019-05-12T07:43:57.000Z</time>
      </trkpt>
      <trkpt lat="46.57441" lon="0.23045">
        <ele>96.800003051758</ele>
        <time>2019-05-12T07:44:00.000Z</time>
      </trkpt>
      <trkpt lat="46.57443" lon="0.23044">
        <ele>97</ele>
        <time>2019-05-12T07:44:01.000Z</time>
      </trkpt>
      <trkpt lat="46.57454" lon="0.23032">
        <ele>98</ele>
        <time>2019-05-12T07:44:06.000Z</time>
      </trkpt>
      <trkpt lat="46.57462" lon="0.23027">
        <ele>99</ele>
        <time>2019-05-12T07:44:09.000Z</time>
      </trkpt>
      <trkpt lat="46.57467" lon="0.23023">
        <ele>99.800003051758</ele>
        <time>2019-05-12T07:44:11.000Z</time>
      </trkpt>
      <trkpt lat="46.57479" lon="0.23014">
        <ele>100.40000152588</ele>
        <time>2019-05-12T07:44:16.000Z</time>
      </trkpt>
      <trkpt lat="46.57482" lon="0.23013">
        <ele>100.40000152588</ele>
        <time>2019-05-12T07:44:17.000Z</time>
      </trkpt>
      <trkpt lat="46.57494" lon="0.23003">
        <ele>101.59999847412</ele>
        <time>2019-05-12T07:44:22.000Z</time>
      </trkpt>
      <trkpt lat="46.57497" lon="0.23001">
        <ele>101.80000305176</ele>
        <time>2019-05-12T07:44:23.000Z</time>
      </trkpt>
      <trkpt lat="46.57512" lon="0.22987">
        <ele>102.40000152588</ele>
        <time>2019-05-12T07:44:30.000Z</time>
      </trkpt>
      <trkpt lat="46.57521" lon="0.22977">
        <ele>102.80000305176</ele>
        <time>2019-05-12T07:44:34.000Z</time>
      </trkpt>
      <trkpt lat="46.57523" lon="0.22975">
        <ele>102.80000305176</ele>
        <time>2019-05-12T07:44:35.000Z</time>
      </trkpt>
      <trkpt lat="46.57535" lon="0.22958">
        <ele>103.80000305176</ele>
        <time>2019-05-12T07:44:40.000Z</time>
      </trkpt>
      <trkpt lat="46.57538" lon="0.22956">
        <ele>104.19999694824</ele>
        <time>2019-05-12T07:44:41.000Z</time>
      </trkpt>
      <trkpt lat="46.57545" lon="0.22947">
        <ele>104.80000305176</ele>
        <time>2019-05-12T07:44:45.000Z</time>
      </trkpt>
      <trkpt lat="46.57548" lon="0.22946">
        <ele>105</ele>
        <time>2019-05-12T07:44:47.000Z</time>
      </trkpt>
      <trkpt lat="46.5756" lon="0.22934">
        <ele>105.59999847412</ele>
        <time>2019-05-12T07:44:52.000Z</time>
      </trkpt>
      <trkpt lat="46.57574" lon="0.22919">
        <ele>106</ele>
        <time>2019-05-12T07:44:58.000Z</time>
      </trkpt>
      <trkpt lat="46.57584" lon="0.22907">
        <ele>106.40000152588</ele>
        <time>2019-05-12T07:45:03.000Z</time>
      </trkpt>
      <trkpt lat="46.57596" lon="0.22898">
        <ele>107</ele>
        <time>2019-05-12T07:45:08.000Z</time>
      </trkpt>
      <trkpt lat="46.57598" lon="0.22895">
        <ele>107</ele>
        <time>2019-05-12T07:45:09.000Z</time>
      </trkpt>
      <trkpt lat="46.57611" lon="0.22883">
        <ele>107.59999847412</ele>
        <time>2019-05-12T07:45:14.000Z</time>
      </trkpt>
      <trkpt lat="46.57627" lon="0.22869">
        <ele>108</ele>
        <time>2019-05-12T07:45:20.000Z</time>
      </trkpt>
      <trkpt lat="46.57639" lon="0.22865">
        <ele>108.80000305176</ele>
        <time>2019-05-12T07:45:25.000Z</time>
      </trkpt>
      <trkpt lat="46.57646" lon="0.22862">
        <ele>109</ele>
        <time>2019-05-12T07:45:27.000Z</time>
      </trkpt>
      <trkpt lat="46.57652" lon="0.22859">
        <ele>109</ele>
        <time>2019-05-12T07:45:29.000Z</time>
      </trkpt>
      <trkpt lat="46.57654" lon="0.22857">
        <ele>109.19999694824</ele>
        <time>2019-05-12T07:45:30.000Z</time>
      </trkpt>
      <trkpt lat="46.57663" lon="0.22851">
        <ele>110.40000152588</ele>
        <time>2019-05-12T07:45:34.000Z</time>
      </trkpt>
      <trkpt lat="46.57675" lon="0.22846">
        <ele>111.19999694824</ele>
        <time>2019-05-12T07:45:40.000Z</time>
      </trkpt>
      <trkpt lat="46.57677" lon="0.22845">
        <ele>111.19999694824</ele>
        <time>2019-05-12T07:45:41.000Z</time>
      </trkpt>
      <trkpt lat="46.57685" lon="0.22843">
        <ele>112.40000152588</ele>
        <time>2019-05-12T07:45:45.000Z</time>
      </trkpt>
      <trkpt lat="46.57687" lon="0.22842">
        <ele>112.59999847412</ele>
        <time>2019-05-12T07:45:46.000Z</time>
      </trkpt>
      <trkpt lat="46.57692" lon="0.2284">
        <ele>113.40000152588</ele>
        <time>2019-05-12T07:45:49.000Z</time>
      </trkpt>
      <trkpt lat="46.57694" lon="0.22839">
        <ele>113.59999847412</ele>
        <time>2019-05-12T07:45:50.000Z</time>
      </trkpt>
      <trkpt lat="46.57702" lon="0.22836">
        <ele>114.80000305176</ele>
        <time>2019-05-12T07:45:54.000Z</time>
      </trkpt>
      <trkpt lat="46.57706" lon="0.22836">
        <ele>115.19999694824</ele>
        <time>2019-05-12T07:45:56.000Z</time>
      </trkpt>
      <trkpt lat="46.5771" lon="0.22836">
        <ele>115.59999847412</ele>
        <time>2019-05-12T07:45:58.000Z</time>
      </trkpt>
      <trkpt lat="46.57719" lon="0.22837">
        <ele>116.40000152588</ele>
        <time>2019-05-12T07:46:02.000Z</time>
      </trkpt>
      <trkpt lat="46.57734" lon="0.22837">
        <ele>117.19999694824</ele>
        <time>2019-05-12T07:46:08.000Z</time>
      </trkpt>
      <trkpt lat="46.57738" lon="0.22838">
        <ele>117.59999847412</ele>
        <time>2019-05-12T07:46:10.000Z</time>
      </trkpt>
      <trkpt lat="46.57748" lon="0.22838">
        <ele>117.80000305176</ele>
        <time>2019-05-12T07:46:14.000Z</time>
      </trkpt>
      <trkpt lat="46.57757" lon="0.22841">
        <ele>118.19999694824</ele>
        <time>2019-05-12T07:46:18.000Z</time>
      </trkpt>
      <trkpt lat="46.5776" lon="0.22842">
        <ele>118.40000152588</ele>
        <time>2019-05-12T07:46:19.000Z</time>
      </trkpt>
      <trkpt lat="46.57765" lon="0.22843">
        <ele>119</ele>
        <time>2019-05-12T07:46:21.000Z</time>
      </trkpt>
      <trkpt lat="46.5777" lon="0.22845">
        <ele>119.19999694824</ele>
        <time>2019-05-12T07:46:23.000Z</time>
      </trkpt>
      <trkpt lat="46.57773" lon="0.22846">
        <ele>119.40000152588</ele>
        <time>2019-05-12T07:46:24.000Z</time>
      </trkpt>
      <trkpt lat="46.57782" lon="0.22848">
        <ele>119.59999847412</ele>
        <time>2019-05-12T07:46:28.000Z</time>
      </trkpt>
      <trkpt lat="46.57784" lon="0.22848">
        <ele>119.80000305176</ele>
        <time>2019-05-12T07:46:29.000Z</time>
      </trkpt>
      <trkpt lat="46.57793" lon="0.22848">
        <ele>120.40000152588</ele>
        <time>2019-05-12T07:46:33.000Z</time>
      </trkpt>
      <trkpt lat="46.57794" lon="0.2285">
        <ele>120.40000152588</ele>
        <time>2019-05-12T07:46:34.000Z</time>
      </trkpt>
      <trkpt lat="46.57799" lon="0.22858">
        <ele>121.40000152588</ele>
        <time>2019-05-12T07:46:39.000Z</time>
      </trkpt>
      <trkpt lat="46.57803" lon="0.2286">
        <ele>121.80000305176</ele>
        <time>2019-05-12T07:46:41.000Z</time>
      </trkpt>
      <trkpt lat="46.57806" lon="0.22865">
        <ele>122.40000152588</ele>
        <time>2019-05-12T07:46:44.000Z</time>
      </trkpt>
      <trkpt lat="46.57805" lon="0.22866">
        <ele>122.59999847412</ele>
        <time>2019-05-12T07:46:45.000Z</time>
      </trkpt>
      <trkpt lat="46.57805" lon="0.22869">
        <ele>122.80000305176</ele>
        <time>2019-05-12T07:46:47.000Z</time>
      </trkpt>
      <trkpt lat="46.57805" lon="0.22872">
        <ele>122.80000305176</ele>
        <time>2019-05-12T07:46:49.000Z</time>
      </trkpt>
      <trkpt lat="46.57804" lon="0.22881">
        <ele>123.19999694824</ele>
        <time>2019-05-12T07:46:54.000Z</time>
      </trkpt>
      <trkpt lat="46.57804" lon="0.22884">
        <ele>123.40000152588</ele>
        <time>2019-05-12T07:46:56.000Z</time>
      </trkpt>
      <trkpt lat="46.57803" lon="0.22886">
        <ele>123.59999847412</ele>
        <time>2019-05-12T07:46:58.000Z</time>
      </trkpt>
      <trkpt lat="46.57803" lon="0.2289">
        <ele>123.80000305176</ele>
        <time>2019-05-12T07:47:00.000Z</time>
      </trkpt>
      <trkpt lat="46.57799" lon="0.22903">
        <ele>124.40000152588</ele>
        <time>2019-05-12T07:47:06.000Z</time>
      </trkpt>
      <trkpt lat="46.57795" lon="0.22914">
        <ele>125.59999847412</ele>
        <time>2019-05-12T07:47:11.000Z</time>
      </trkpt>
      <trkpt lat="46.57795" lon="0.22916">
        <ele>125.59999847412</ele>
        <time>2019-05-12T07:47:12.000Z</time>
      </trkpt>
      <trkpt lat="46.57792" lon="0.22929">
        <ele>126</ele>
        <time>2019-05-12T07:47:18.000Z</time>
      </trkpt>
      <trkpt lat="46.57788" lon="0.22946">
        <ele>126.40000152588</ele>
        <time>2019-05-12T07:47:24.000Z</time>
      </trkpt>
      <trkpt lat="46.57787" lon="0.22948">
        <ele>126.59999847412</ele>
        <time>2019-05-12T07:47:25.000Z</time>
      </trkpt>
      <trkpt lat="46.57783" lon="0.22964">
        <ele>127.40000152588</ele>
        <time>2019-05-12T07:47:31.000Z</time>
      </trkpt>
      <trkpt lat="46.57782" lon="0.22969">
        <ele>127.59999847412</ele>
        <time>2019-05-12T07:47:33.000Z</time>
      </trkpt>
      <trkpt lat="46.57779" lon="0.22988">
        <ele>127.80000305176</ele>
        <time>2019-05-12T07:47:39.000Z</time>
      </trkpt>
      <trkpt lat="46.57773" lon="0.23011">
        <ele>128.39999389648</ele>
        <time>2019-05-12T07:47:46.000Z</time>
      </trkpt>
      <trkpt lat="46.57767" lon="0.23024">
        <ele>129</ele>
        <time>2019-05-12T07:47:50.000Z</time>
      </trkpt>
      <trkpt lat="46.57765" lon="0.23033">
        <ele>129.19999694824</ele>
        <time>2019-05-12T07:47:52.000Z</time>
      </trkpt>
      <trkpt lat="46.5776" lon="0.23049">
        <ele>129.39999389648</ele>
        <time>2019-05-12T07:47:57.000Z</time>
      </trkpt>
      <trkpt lat="46.57752" lon="0.23069">
        <ele>129.80000305176</ele>
        <time>2019-05-12T07:48:03.000Z</time>
      </trkpt>
      <trkpt lat="46.57747" lon="0.2308">
        <ele>130.19999694824</ele>
        <time>2019-05-12T07:48:06.000Z</time>
      </trkpt>
      <trkpt lat="46.57745" lon="0.23088">
        <ele>130.39999389648</ele>
        <time>2019-05-12T07:48:08.000Z</time>
      </trkpt>
      <trkpt lat="46.5774" lon="0.23106">
        <ele>130.80000305176</ele>
        <time>2019-05-12T07:48:13.000Z</time>
      </trkpt>
      <trkpt lat="46.57736" lon="0.23117">
        <ele>131.39999389648</ele>
        <time>2019-05-12T07:48:16.000Z</time>
      </trkpt>
      <trkpt lat="46.57733" lon="0.23134">
        <ele>132.19999694824</ele>
        <time>2019-05-12T07:48:20.000Z</time>
      </trkpt>
      <trkpt lat="46.57727" lon="0.2316">
        <ele>132.39999389648</ele>
        <time>2019-05-12T07:48:26.000Z</time>
      </trkpt>
      <trkpt lat="46.57723" lon="0.23178">
        <ele>132.80000305176</ele>
        <time>2019-05-12T07:48:30.000Z</time>
      </trkpt>
      <trkpt lat="46.57718" lon="0.23192">
        <ele>133</ele>
        <time>2019-05-12T07:48:33.000Z</time>
      </trkpt>
      <trkpt lat="46.57712" lon="0.23221">
        <ele>133.39999389648</ele>
        <time>2019-05-12T07:48:39.000Z</time>
      </trkpt>
      <trkpt lat="46.57702" lon="0.23241">
        <ele>133.60000610352</ele>
        <time>2019-05-12T07:48:44.000Z</time>
      </trkpt>
      <trkpt lat="46.57694" lon="0.23256">
        <ele>133.80000305176</ele>
        <time>2019-05-12T07:48:48.000Z</time>
      </trkpt>
      <trkpt lat="46.57677" lon="0.23285">
        <ele>133.19999694824</ele>
        <time>2019-05-12T07:48:55.000Z</time>
      </trkpt>
      <trkpt lat="46.57666" lon="0.23304">
        <ele>132.39999389648</ele>
        <time>2019-05-12T07:48:59.000Z</time>
      </trkpt>
      <trkpt lat="46.57662" lon="0.23315">
        <ele>132.39999389648</ele>
        <time>2019-05-12T07:49:01.000Z</time>
      </trkpt>
      <trkpt lat="46.57658" lon="0.23329">
        <ele>132.60000610352</ele>
        <time>2019-05-12T07:49:04.000Z</time>
      </trkpt>
      <trkpt lat="46.57658" lon="0.23333">
        <ele>132.80000305176</ele>
        <time>2019-05-12T07:49:05.000Z</time>
      </trkpt>
      <trkpt lat="46.57655" lon="0.23372">
        <ele>132.60000610352</ele>
        <time>2019-05-12T07:49:12.000Z</time>
      </trkpt>
      <trkpt lat="46.57656" lon="0.23403">
        <ele>132.60000610352</ele>
        <time>2019-05-12T07:49:17.000Z</time>
      </trkpt>
      <trkpt lat="46.57661" lon="0.23433">
        <ele>133</ele>
        <time>2019-05-12T07:49:22.000Z</time>
      </trkpt>
      <trkpt lat="46.57665" lon="0.23456">
        <ele>133.19999694824</ele>
        <time>2019-05-12T07:49:26.000Z</time>
      </trkpt>
      <trkpt lat="46.57666" lon="0.23462">
        <ele>133.19999694824</ele>
        <time>2019-05-12T07:49:27.000Z</time>
      </trkpt>
      <trkpt lat="46.57673" lon="0.23485">
        <ele>133.19999694824</ele>
        <time>2019-05-12T07:49:31.000Z</time>
      </trkpt>
      <trkpt lat="46.57675" lon="0.2349">
        <ele>133.39999389648</ele>
        <time>2019-05-12T07:49:32.000Z</time>
      </trkpt>
      <trkpt lat="46.57686" lon="0.23528">
        <ele>133.80000305176</ele>
        <time>2019-05-12T07:49:39.000Z</time>
      </trkpt>
      <trkpt lat="46.57696" lon="0.23552">
        <ele>133.39999389648</ele>
        <time>2019-05-12T07:49:44.000Z</time>
      </trkpt>
      <trkpt lat="46.57705" lon="0.23575">
        <ele>133.39999389648</ele>
        <time>2019-05-12T07:49:49.000Z</time>
      </trkpt>
      <trkpt lat="46.57714" lon="0.23602">
        <ele>133.39999389648</ele>
        <time>2019-05-12T07:49:53.000Z</time>
      </trkpt>
      <trkpt lat="46.57724" lon="0.2364">
        <ele>133.60000610352</ele>
        <time>2019-05-12T07:49:59.000Z</time>
      </trkpt>
      <trkpt lat="46.57724" lon="0.23648">
        <ele>133.60000610352</ele>
        <time>2019-05-12T07:50:00.000Z</time>
      </trkpt>
      <trkpt lat="46.57722" lon="0.23676">
        <ele>133.19999694824</ele>
        <time>2019-05-12T07:50:04.000Z</time>
      </trkpt>
      <trkpt lat="46.57717" lon="0.23705">
        <ele>133</ele>
        <time>2019-05-12T07:50:09.000Z</time>
      </trkpt>
      <trkpt lat="46.57717" lon="0.23711">
        <ele>133</ele>
        <time>2019-05-12T07:50:10.000Z</time>
      </trkpt>
      <trkpt lat="46.57713" lon="0.2373">
        <ele>133</ele>
        <time>2019-05-12T07:50:13.000Z</time>
      </trkpt>
      <trkpt lat="46.57711" lon="0.23744">
        <ele>132.80000305176</ele>
        <time>2019-05-12T07:50:15.000Z</time>
      </trkpt>
      <trkpt lat="46.5771" lon="0.23751">
        <ele>132.80000305176</ele>
        <time>2019-05-12T07:50:16.000Z</time>
      </trkpt>
      <trkpt lat="46.57707" lon="0.23765">
        <ele>132.39999389648</ele>
        <time>2019-05-12T07:50:18.000Z</time>
      </trkpt>
      <trkpt lat="46.57706" lon="0.23772">
        <ele>132.39999389648</ele>
        <time>2019-05-12T07:50:19.000Z</time>
      </trkpt>
      <trkpt lat="46.57703" lon="0.23792">
        <ele>132.19999694824</ele>
        <time>2019-05-12T07:50:22.000Z</time>
      </trkpt>
      <trkpt lat="46.57701" lon="0.23798">
        <ele>132.19999694824</ele>
        <time>2019-05-12T07:50:23.000Z</time>
      </trkpt>
      <trkpt lat="46.57693" lon="0.23838">
        <ele>132.39999389648</ele>
        <time>2019-05-12T07:50:29.000Z</time>
      </trkpt>
      <trkpt lat="46.5769" lon="0.23862">
        <ele>132</ele>
        <time>2019-05-12T07:50:33.000Z</time>
      </trkpt>
      <trkpt lat="46.57681" lon="0.23882">
        <ele>131.80000305176</ele>
        <time>2019-05-12T07:50:37.000Z</time>
      </trkpt>
      <trkpt lat="46.57679" lon="0.23887">
        <ele>131.60000610352</ele>
        <time>2019-05-12T07:50:38.000Z</time>
      </trkpt>
      <trkpt lat="46.57672" lon="0.23904">
        <ele>131.19999694824</ele>
        <time>2019-05-12T07:50:41.000Z</time>
      </trkpt>
      <trkpt lat="46.57669" lon="0.2391">
        <ele>131</ele>
        <time>2019-05-12T07:50:42.000Z</time>
      </trkpt>
      <trkpt lat="46.5766" lon="0.23926">
        <ele>130.80000305176</ele>
        <time>2019-05-12T07:50:45.000Z</time>
      </trkpt>
      <trkpt lat="46.57654" lon="0.23936">
        <ele>130.60000610352</ele>
        <time>2019-05-12T07:50:47.000Z</time>
      </trkpt>
      <trkpt lat="46.57651" lon="0.23941">
        <ele>130.60000610352</ele>
        <time>2019-05-12T07:50:48.000Z</time>
      </trkpt>
      <trkpt lat="46.57635" lon="0.23961">
        <ele>130.19999694824</ele>
        <time>2019-05-12T07:50:52.000Z</time>
      </trkpt>
      <trkpt lat="46.57632" lon="0.23965">
        <ele>130</ele>
        <time>2019-05-12T07:50:53.000Z</time>
      </trkpt>
      <trkpt lat="46.5762" lon="0.23979">
        <ele>129.80000305176</ele>
        <time>2019-05-12T07:50:56.000Z</time>
      </trkpt>
      <trkpt lat="46.57599" lon="0.23999">
        <ele>130</ele>
        <time>2019-05-12T07:51:01.000Z</time>
      </trkpt>
      <trkpt lat="46.57589" lon="0.24008">
        <ele>129.80000305176</ele>
        <time>2019-05-12T07:51:03.000Z</time>
      </trkpt>
      <trkpt lat="46.57585" lon="0.24012">
        <ele>129.60000610352</ele>
        <time>2019-05-12T07:51:04.000Z</time>
      </trkpt>
      <trkpt lat="46.57576" lon="0.24021">
        <ele>129.39999389648</ele>
        <time>2019-05-12T07:51:06.000Z</time>
      </trkpt>
      <trkpt lat="46.57552" lon="0.24047">
        <ele>129</ele>
        <time>2019-05-12T07:51:12.000Z</time>
      </trkpt>
      <trkpt lat="46.57548" lon="0.24051">
        <ele>128.80000305176</ele>
        <time>2019-05-12T07:51:13.000Z</time>
      </trkpt>
      <trkpt lat="46.57544" lon="0.24055">
        <ele>128.60000610352</ele>
        <time>2019-05-12T07:51:14.000Z</time>
      </trkpt>
      <trkpt lat="46.57536" lon="0.24062">
        <ele>128.39999389648</ele>
        <time>2019-05-12T07:51:16.000Z</time>
      </trkpt>
      <trkpt lat="46.57513" lon="0.24075">
        <ele>128.19999694824</ele>
        <time>2019-05-12T07:51:21.000Z</time>
      </trkpt>
      <trkpt lat="46.57508" lon="0.24077">
        <ele>128.19999694824</ele>
        <time>2019-05-12T07:51:22.000Z</time>
      </trkpt>
      <trkpt lat="46.57498" lon="0.24082">
        <ele>127.59999847412</ele>
        <time>2019-05-12T07:51:24.000Z</time>
      </trkpt>
      <trkpt lat="46.57493" lon="0.24085">
        <ele>127.19999694824</ele>
        <time>2019-05-12T07:51:25.000Z</time>
      </trkpt>
      <trkpt lat="46.57473" lon="0.24097">
        <ele>126.59999847412</ele>
        <time>2019-05-12T07:51:29.000Z</time>
      </trkpt>
      <trkpt lat="46.57468" lon="0.24101">
        <ele>126.40000152588</ele>
        <time>2019-05-12T07:51:30.000Z</time>
      </trkpt>
      <trkpt lat="46.57458" lon="0.24108">
        <ele>126.19999694824</ele>
        <time>2019-05-12T07:51:32.000Z</time>
      </trkpt>
      <trkpt lat="46.57445" lon="0.24124">
        <ele>125.80000305176</ele>
        <time>2019-05-12T07:51:35.000Z</time>
      </trkpt>
      <trkpt lat="46.57438" lon="0.24136">
        <ele>125</ele>
        <time>2019-05-12T07:51:37.000Z</time>
      </trkpt>
      <trkpt lat="46.57436" lon="0.24143">
        <ele>124.80000305176</ele>
        <time>2019-05-12T07:51:38.000Z</time>
      </trkpt>
      <trkpt lat="46.57434" lon="0.24157">
        <ele>124.40000152588</ele>
        <time>2019-05-12T07:51:40.000Z</time>
      </trkpt>
      <trkpt lat="46.57433" lon="0.24164">
        <ele>124.59999847412</ele>
        <time>2019-05-12T07:51:41.000Z</time>
      </trkpt>
      <trkpt lat="46.57432" lon="0.24177">
        <ele>124.80000305176</ele>
        <time>2019-05-12T07:51:43.000Z</time>
      </trkpt>
      <trkpt lat="46.57427" lon="0.24214">
        <ele>125.19999694824</ele>
        <time>2019-05-12T07:51:49.000Z</time>
      </trkpt>
      <trkpt lat="46.57422" lon="0.24237">
        <ele>125.40000152588</ele>
        <time>2019-05-12T07:51:53.000Z</time>
      </trkpt>
      <trkpt lat="46.57419" lon="0.24244">
        <ele>125.40000152588</ele>
        <time>2019-05-12T07:51:54.000Z</time>
      </trkpt>
      <trkpt lat="46.57415" lon="0.24259">
        <ele>125.40000152588</ele>
        <time>2019-05-12T07:51:56.000Z</time>
      </trkpt>
      <trkpt lat="46.57414" lon="0.2427">
        <ele>125.19999694824</ele>
        <time>2019-05-12T07:51:58.000Z</time>
      </trkpt>
      <trkpt lat="46.57418" lon="0.24287">
        <ele>125.59999847412</ele>
        <time>2019-05-12T07:52:02.000Z</time>
      </trkpt>
      <trkpt lat="46.57426" lon="0.24303">
        <ele>126.40000152588</ele>
        <time>2019-05-12T07:52:06.000Z</time>
      </trkpt>
      <trkpt lat="46.57428" lon="0.24308">
        <ele>126.59999847412</ele>
        <time>2019-05-12T07:52:07.000Z</time>
      </trkpt>
      <trkpt lat="46.57438" lon="0.24324">
        <ele>127.59999847412</ele>
        <time>2019-05-12T07:52:11.000Z</time>
      </trkpt>
      <trkpt lat="46.57442" lon="0.24332">
        <ele>128.39999389648</ele>
        <time>2019-05-12T07:52:13.000Z</time>
      </trkpt>
      <trkpt lat="46.57446" lon="0.24338">
        <ele>128.80000305176</ele>
        <time>2019-05-12T07:52:15.000Z</time>
      </trkpt>
      <trkpt lat="46.57455" lon="0.2435">
        <ele>129.60000610352</ele>
        <time>2019-05-12T07:52:19.000Z</time>
      </trkpt>
      <trkpt lat="46.57461" lon="0.24354">
        <ele>130</ele>
        <time>2019-05-12T07:52:21.000Z</time>
      </trkpt>
      <trkpt lat="46.57471" lon="0.24359">
        <ele>130.19999694824</ele>
        <time>2019-05-12T07:52:24.000Z</time>
      </trkpt>
      <trkpt lat="46.57487" lon="0.24368">
        <ele>130.39999389648</ele>
        <time>2019-05-12T07:52:28.000Z</time>
      </trkpt>
      <trkpt lat="46.57508" lon="0.24369">
        <ele>131</ele>
        <time>2019-05-12T07:52:32.000Z</time>
      </trkpt>
      <trkpt lat="46.57523" lon="0.24369">
        <ele>131</ele>
        <time>2019-05-12T07:52:35.000Z</time>
      </trkpt>
      <trkpt lat="46.57532" lon="0.24371">
        <ele>131.19999694824</ele>
        <time>2019-05-12T07:52:37.000Z</time>
      </trkpt>
      <trkpt lat="46.57548" lon="0.24382">
        <ele>131.39999389648</ele>
        <time>2019-05-12T07:52:41.000Z</time>
      </trkpt>
      <trkpt lat="46.57554" lon="0.24391">
        <ele>131.60000610352</ele>
        <time>2019-05-12T07:52:43.000Z</time>
      </trkpt>
      <trkpt lat="46.5757" lon="0.24415">
        <ele>131.80000305176</ele>
        <time>2019-05-12T07:52:48.000Z</time>
      </trkpt>
      <trkpt lat="46.57595" lon="0.24457">
        <ele>131.80000305176</ele>
        <time>2019-05-12T07:52:56.000Z</time>
      </trkpt>
      <trkpt lat="46.57624" lon="0.24506">
        <ele>131.60000610352</ele>
        <time>2019-05-12T07:53:05.000Z</time>
      </trkpt>
      <trkpt lat="46.57635" lon="0.24529">
        <ele>131</ele>
        <time>2019-05-12T07:53:09.000Z</time>
      </trkpt>
      <trkpt lat="46.57642" lon="0.24548">
        <ele>131</ele>
        <time>2019-05-12T07:53:12.000Z</time>
      </trkpt>
      <trkpt lat="46.57646" lon="0.24562">
        <ele>130.60000610352</ele>
        <time>2019-05-12T07:53:14.000Z</time>
      </trkpt>
      <trkpt lat="46.57656" lon="0.24591">
        <ele>130</ele>
        <time>2019-05-12T07:53:18.000Z</time>
      </trkpt>
      <trkpt lat="46.57666" lon="0.2462">
        <ele>129.39999389648</ele>
        <time>2019-05-12T07:53:22.000Z</time>
      </trkpt>
      <trkpt lat="46.57675" lon="0.24649">
        <ele>128.80000305176</ele>
        <time>2019-05-12T07:53:26.000Z</time>
      </trkpt>
      <trkpt lat="46.57687" lon="0.24684">
        <ele>129</ele>
        <time>2019-05-12T07:53:31.000Z</time>
      </trkpt>
      <trkpt lat="46.57697" lon="0.24708">
        <ele>129</ele>
        <time>2019-05-12T07:53:35.000Z</time>
      </trkpt>
      <trkpt lat="46.57717" lon="0.2474">
        <ele>129.60000610352</ele>
        <time>2019-05-12T07:53:41.000Z</time>
      </trkpt>
      <trkpt lat="46.57742" lon="0.24758">
        <ele>129.39999389648</ele>
        <time>2019-05-12T07:53:47.000Z</time>
      </trkpt>
      <trkpt lat="46.57757" lon="0.24769">
        <ele>129.80000305176</ele>
        <time>2019-05-12T07:53:51.000Z</time>
      </trkpt>
      <trkpt lat="46.57769" lon="0.24777">
        <ele>130</ele>
        <time>2019-05-12T07:53:54.000Z</time>
      </trkpt>
      <trkpt lat="46.57791" lon="0.24789">
        <ele>130.60000610352</ele>
        <time>2019-05-12T07:53:59.000Z</time>
      </trkpt>
      <trkpt lat="46.57827" lon="0.24809">
        <ele>130.39999389648</ele>
        <time>2019-05-12T07:54:07.000Z</time>
      </trkpt>
      <trkpt lat="46.5785" lon="0.24826">
        <ele>130.39999389648</ele>
        <time>2019-05-12T07:54:13.000Z</time>
      </trkpt>
      <trkpt lat="46.57872" lon="0.24841">
        <ele>130</ele>
        <time>2019-05-12T07:54:19.000Z</time>
      </trkpt>
      <trkpt lat="46.57892" lon="0.24849">
        <ele>130.80000305176</ele>
        <time>2019-05-12T07:54:24.000Z</time>
      </trkpt>
      <trkpt lat="46.57909" lon="0.24855">
        <ele>130.19999694824</ele>
        <time>2019-05-12T07:54:28.000Z</time>
      </trkpt>
      <trkpt lat="46.57917" lon="0.24861">
        <ele>130</ele>
        <time>2019-05-12T07:54:30.000Z</time>
      </trkpt>
      <trkpt lat="46.57921" lon="0.24864">
        <ele>130</ele>
        <time>2019-05-12T07:54:31.000Z</time>
      </trkpt>
      <trkpt lat="46.57932" lon="0.24878">
        <ele>129.60000610352</ele>
        <time>2019-05-12T07:54:34.000Z</time>
      </trkpt>
      <trkpt lat="46.57939" lon="0.24888">
        <ele>129.60000610352</ele>
        <time>2019-05-12T07:54:36.000Z</time>
      </trkpt>
      <trkpt lat="46.57943" lon="0.24893">
        <ele>129.39999389648</ele>
        <time>2019-05-12T07:54:37.000Z</time>
      </trkpt>
      <trkpt lat="46.57953" lon="0.24909">
        <ele>129.39999389648</ele>
        <time>2019-05-12T07:54:40.000Z</time>
      </trkpt>
      <trkpt lat="46.57966" lon="0.24931">
        <ele>129.60000610352</ele>
        <time>2019-05-12T07:54:44.000Z</time>
      </trkpt>
      <trkpt lat="46.57987" lon="0.2498">
        <ele>128.60000610352</ele>
        <time>2019-05-12T07:54:52.000Z</time>
      </trkpt>
      <trkpt lat="46.58002" lon="0.25003">
        <ele>128.60000610352</ele>
        <time>2019-05-12T07:54:56.000Z</time>
      </trkpt>
      <trkpt lat="46.58007" lon="0.25007">
        <ele>128.60000610352</ele>
        <time>2019-05-12T07:54:57.000Z</time>
      </trkpt>
      <trkpt lat="46.58028" lon="0.25016">
        <ele>128.19999694824</ele>
        <time>2019-05-12T07:55:01.000Z</time>
      </trkpt>
      <trkpt lat="46.58034" lon="0.25016">
        <ele>128.19999694824</ele>
        <time>2019-05-12T07:55:02.000Z</time>
      </trkpt>
      <trkpt lat="46.58065" lon="0.25017">
        <ele>127.80000305176</ele>
        <time>2019-05-12T07:55:08.000Z</time>
      </trkpt>
      <trkpt lat="46.581" lon="0.25017">
        <ele>128.19999694824</ele>
        <time>2019-05-12T07:55:15.000Z</time>
      </trkpt>
      <trkpt lat="46.58105" lon="0.25017">
        <ele>128.39999389648</ele>
        <time>2019-05-12T07:55:16.000Z</time>
      </trkpt>
      <trkpt lat="46.58124" lon="0.25017">
        <ele>129</ele>
        <time>2019-05-12T07:55:20.000Z</time>
      </trkpt>
      <trkpt lat="46.58142" lon="0.25016">
        <ele>129.39999389648</ele>
        <time>2019-05-12T07:55:24.000Z</time>
      </trkpt>
      <trkpt lat="46.58164" lon="0.25015">
        <ele>129.60000610352</ele>
        <time>2019-05-12T07:55:30.000Z</time>
      </trkpt>
      <trkpt lat="46.58172" lon="0.2502">
        <ele>130</ele>
        <time>2019-05-12T07:55:33.000Z</time>
      </trkpt>
      <trkpt lat="46.58174" lon="0.25023">
        <ele>130.19999694824</ele>
        <time>2019-05-12T07:55:34.000Z</time>
      </trkpt>
      <trkpt lat="46.58178" lon="0.25045">
        <ele>130.19999694824</ele>
        <time>2019-05-12T07:55:38.000Z</time>
      </trkpt>
      <trkpt lat="46.58183" lon="0.25103">
        <ele>130.19999694824</ele>
        <time>2019-05-12T07:55:46.000Z</time>
      </trkpt>
      <trkpt lat="46.5819" lon="0.25167">
        <ele>129.80000305176</ele>
        <time>2019-05-12T07:55:54.000Z</time>
      </trkpt>
      <trkpt lat="46.58198" lon="0.2523">
        <ele>129</ele>
        <time>2019-05-12T07:56:02.000Z</time>
      </trkpt>
      <trkpt lat="46.58198" lon="0.25238">
        <ele>128.80000305176</ele>
        <time>2019-05-12T07:56:03.000Z</time>
      </trkpt>
      <trkpt lat="46.58201" lon="0.25268">
        <ele>128.60000610352</ele>
        <time>2019-05-12T07:56:07.000Z</time>
      </trkpt>
      <trkpt lat="46.58203" lon="0.25284">
        <ele>128.39999389648</ele>
        <time>2019-05-12T07:56:09.000Z</time>
      </trkpt>
      <trkpt lat="46.58206" lon="0.25308">
        <ele>128.19999694824</ele>
        <time>2019-05-12T07:56:12.000Z</time>
      </trkpt>
      <trkpt lat="46.58209" lon="0.25348">
        <ele>128.39999389648</ele>
        <time>2019-05-12T07:56:17.000Z</time>
      </trkpt>
      <trkpt lat="46.5821" lon="0.25364">
        <ele>128.19999694824</ele>
        <time>2019-05-12T07:56:19.000Z</time>
      </trkpt>
      <trkpt lat="46.58212" lon="0.25388">
        <ele>127.80000305176</ele>
        <time>2019-05-12T07:56:22.000Z</time>
      </trkpt>
      <trkpt lat="46.58213" lon="0.25395">
        <ele>127.59999847412</ele>
        <time>2019-05-12T07:56:23.000Z</time>
      </trkpt>
      <trkpt lat="46.58214" lon="0.25411">
        <ele>127.59999847412</ele>
        <time>2019-05-12T07:56:25.000Z</time>
      </trkpt>
      <trkpt lat="46.58217" lon="0.25443">
        <ele>127</ele>
        <time>2019-05-12T07:56:29.000Z</time>
      </trkpt>
      <trkpt lat="46.58219" lon="0.25466">
        <ele>127.40000152588</ele>
        <time>2019-05-12T07:56:32.000Z</time>
      </trkpt>
      <trkpt lat="46.58221" lon="0.25497">
        <ele>127.19999694824</ele>
        <time>2019-05-12T07:56:36.000Z</time>
      </trkpt>
      <trkpt lat="46.58221" lon="0.25511">
        <ele>127</ele>
        <time>2019-05-12T07:56:38.000Z</time>
      </trkpt>
      <trkpt lat="46.58216" lon="0.2552">
        <ele>127</ele>
        <time>2019-05-12T07:56:40.000Z</time>
      </trkpt>
      <trkpt lat="46.58204" lon="0.25522">
        <ele>126.80000305176</ele>
        <time>2019-05-12T07:56:43.000Z</time>
      </trkpt>
      <trkpt lat="46.58199" lon="0.25522">
        <ele>126.59999847412</ele>
        <time>2019-05-12T07:56:44.000Z</time>
      </trkpt>
      <trkpt lat="46.58194" lon="0.25522">
        <ele>126.59999847412</ele>
        <time>2019-05-12T07:56:45.000Z</time>
      </trkpt>
      <trkpt lat="46.58189" lon="0.25522">
        <ele>126.59999847412</ele>
        <time>2019-05-12T07:56:46.000Z</time>
      </trkpt>
      <trkpt lat="46.58179" lon="0.25522">
        <ele>126.40000152588</ele>
        <time>2019-05-12T07:56:48.000Z</time>
      </trkpt>
      <trkpt lat="46.58174" lon="0.25523">
        <ele>126.19999694824</ele>
        <time>2019-05-12T07:56:49.000Z</time>
      </trkpt>
      <trkpt lat="46.58154" lon="0.25523">
        <ele>125</ele>
        <time>2019-05-12T07:56:53.000Z</time>
      </trkpt>
      <trkpt lat="46.5814" lon="0.25522">
        <ele>125</ele>
        <time>2019-05-12T07:56:56.000Z</time>
      </trkpt>
      <trkpt lat="46.5813" lon="0.25526">
        <ele>125</ele>
        <time>2019-05-12T07:56:58.000Z</time>
      </trkpt>
      <trkpt lat="46.58111" lon="0.25543">
        <ele>124.80000305176</ele>
        <time>2019-05-12T07:57:02.000Z</time>
      </trkpt>
      <trkpt lat="46.581" lon="0.25557">
        <ele>124.40000152588</ele>
        <time>2019-05-12T07:57:05.000Z</time>
      </trkpt>
      <trkpt lat="46.58096" lon="0.25554">
        <ele>124.40000152588</ele>
        <time>2019-05-12T07:57:08.000Z</time>
      </trkpt>
      <trkpt lat="46.58096" lon="0.2555">
        <ele>124.40000152588</ele>
        <time>2019-05-12T07:57:09.000Z</time>
      </trkpt>
      <trkpt lat="46.58094" lon="0.25537">
        <ele>124.19999694824</ele>
        <time>2019-05-12T07:57:12.000Z</time>
      </trkpt>
      <trkpt lat="46.58092" lon="0.25534">
        <ele>123.80000305176</ele>
        <time>2019-05-12T07:57:13.000Z</time>
      </trkpt>
      <trkpt lat="46.58084" lon="0.2553">
        <ele>123.40000152588</ele>
        <time>2019-05-12T07:57:15.000Z</time>
      </trkpt>
      <trkpt lat="46.58069" lon="0.2553">
        <ele>122.59999847412</ele>
        <time>2019-05-12T07:57:18.000Z</time>
      </trkpt>
      <trkpt lat="46.58064" lon="0.25532">
        <ele>122.40000152588</ele>
        <time>2019-05-12T07:57:19.000Z</time>
      </trkpt>
      <trkpt lat="46.58056" lon="0.25539">
        <ele>122.19999694824</ele>
        <time>2019-05-12T07:57:21.000Z</time>
      </trkpt>
      <trkpt lat="46.5804" lon="0.25553">
        <ele>121.80000305176</ele>
        <time>2019-05-12T07:57:25.000Z</time>
      </trkpt>
      <trkpt lat="46.58035" lon="0.25556">
        <ele>121.59999847412</ele>
        <time>2019-05-12T07:57:26.000Z</time>
      </trkpt>
      <trkpt lat="46.58025" lon="0.25561">
        <ele>121.19999694824</ele>
        <time>2019-05-12T07:57:28.000Z</time>
      </trkpt>
      <trkpt lat="46.58017" lon="0.25568">
        <ele>120.80000305176</ele>
        <time>2019-05-12T07:57:30.000Z</time>
      </trkpt>
      <trkpt lat="46.58012" lon="0.25571">
        <ele>120.40000152588</ele>
        <time>2019-05-12T07:57:31.000Z</time>
      </trkpt>
      <trkpt lat="46.58" lon="0.25582">
        <ele>119.59999847412</ele>
        <time>2019-05-12T07:57:34.000Z</time>
      </trkpt>
      <trkpt lat="46.57997" lon="0.25583">
        <ele>119.59999847412</ele>
        <time>2019-05-12T07:57:35.000Z</time>
      </trkpt>
      <trkpt lat="46.57978" lon="0.25581">
        <ele>119.59999847412</ele>
        <time>2019-05-12T07:57:39.000Z</time>
      </trkpt>
      <trkpt lat="46.57972" lon="0.25586">
        <ele>120</ele>
        <time>2019-05-12T07:57:42.000Z</time>
      </trkpt>
      <trkpt lat="46.57968" lon="0.25595">
        <ele>119.80000305176</ele>
        <time>2019-05-12T07:57:44.000Z</time>
      </trkpt>
      <trkpt lat="46.57963" lon="0.25606">
        <ele>119.40000152588</ele>
        <time>2019-05-12T07:57:46.000Z</time>
      </trkpt>
      <trkpt lat="46.57957" lon="0.25613">
        <ele>118.80000305176</ele>
        <time>2019-05-12T07:57:48.000Z</time>
      </trkpt>
      <trkpt lat="46.57952" lon="0.25615">
        <ele>118.59999847412</ele>
        <time>2019-05-12T07:57:49.000Z</time>
      </trkpt>
      <trkpt lat="46.57943" lon="0.25618">
        <ele>118.40000152588</ele>
        <time>2019-05-12T07:57:51.000Z</time>
      </trkpt>
      <trkpt lat="46.57923" lon="0.25623">
        <ele>120</ele>
        <time>2019-05-12T07:57:56.000Z</time>
      </trkpt>
      <trkpt lat="46.57919" lon="0.25622">
        <ele>120.19999694824</ele>
        <time>2019-05-12T07:57:57.000Z</time>
      </trkpt>
      <trkpt lat="46.57903" lon="0.25617">
        <ele>121.59999847412</ele>
        <time>2019-05-12T07:58:01.000Z</time>
      </trkpt>
      <trkpt lat="46.57894" lon="0.25613">
        <ele>122.19999694824</ele>
        <time>2019-05-12T07:58:04.000Z</time>
      </trkpt>
      <trkpt lat="46.57893" lon="0.25614">
        <ele>122.19999694824</ele>
        <time>2019-05-12T07:58:05.000Z</time>
      </trkpt>
      <trkpt lat="46.57892" lon="0.25615">
        <ele>122</ele>
        <time>2019-05-12T07:58:07.000Z</time>
      </trkpt>
      <trkpt lat="46.5788" lon="0.25622">
        <ele>122.19999694824</ele>
        <time>2019-05-12T07:58:15.000Z</time>
      </trkpt>
      <trkpt lat="46.57877" lon="0.25623">
        <ele>122.40000152588</ele>
        <time>2019-05-12T07:58:16.000Z</time>
      </trkpt>
      <trkpt lat="46.57858" lon="0.25638">
        <ele>122.19999694824</ele>
        <time>2019-05-12T07:58:21.000Z</time>
      </trkpt>
      <trkpt lat="46.57844" lon="0.25643">
        <ele>122.59999847412</ele>
        <time>2019-05-12T07:58:25.000Z</time>
      </trkpt>
      <trkpt lat="46.57841" lon="0.25644">
        <ele>122.59999847412</ele>
        <time>2019-05-12T07:58:26.000Z</time>
      </trkpt>
      <trkpt lat="46.5783" lon="0.25653">
        <ele>122.59999847412</ele>
        <time>2019-05-12T07:58:29.000Z</time>
      </trkpt>
      <trkpt lat="46.57823" lon="0.25656">
        <ele>122.40000152588</ele>
        <time>2019-05-12T07:58:31.000Z</time>
      </trkpt>
      <trkpt lat="46.57818" lon="0.25659">
        <ele>122.40000152588</ele>
        <time>2019-05-12T07:58:33.000Z</time>
      </trkpt>
      <trkpt lat="46.57804" lon="0.25681">
        <ele>122</ele>
        <time>2019-05-12T07:58:39.000Z</time>
      </trkpt>
      <trkpt lat="46.57796" lon="0.25697">
        <ele>121.59999847412</ele>
        <time>2019-05-12T07:58:43.000Z</time>
      </trkpt>
      <trkpt lat="46.5779" lon="0.25714">
        <ele>121.19999694824</ele>
        <time>2019-05-12T07:58:47.000Z</time>
      </trkpt>
      <trkpt lat="46.57786" lon="0.25721">
        <ele>121</ele>
        <time>2019-05-12T07:58:49.000Z</time>
      </trkpt>
      <trkpt lat="46.57782" lon="0.25728">
        <ele>120.80000305176</ele>
        <time>2019-05-12T07:58:51.000Z</time>
      </trkpt>
      <trkpt lat="46.57779" lon="0.25732">
        <ele>120.59999847412</ele>
        <time>2019-05-12T07:58:52.000Z</time>
      </trkpt>
      <trkpt lat="46.57765" lon="0.25745">
        <ele>120.80000305176</ele>
        <time>2019-05-12T07:58:56.000Z</time>
      </trkpt>
      <trkpt lat="46.57761" lon="0.25748">
        <ele>120.80000305176</ele>
        <time>2019-05-12T07:58:57.000Z</time>
      </trkpt>
      <trkpt lat="46.57758" lon="0.25752">
        <ele>120.59999847412</ele>
        <time>2019-05-12T07:58:58.000Z</time>
      </trkpt>
      <trkpt lat="46.57748" lon="0.25762">
        <ele>120.40000152588</ele>
        <time>2019-05-12T07:59:01.000Z</time>
      </trkpt>
      <trkpt lat="46.57742" lon="0.25764">
        <ele>120.40000152588</ele>
        <time>2019-05-12T07:59:03.000Z</time>
      </trkpt>
      <trkpt lat="46.57737" lon="0.25774">
        <ele>120.19999694824</ele>
        <time>2019-05-12T07:59:06.000Z</time>
      </trkpt>
      <trkpt lat="46.57735" lon="0.25777">
        <ele>119.80000305176</ele>
        <time>2019-05-12T07:59:07.000Z</time>
      </trkpt>
      <trkpt lat="46.57727" lon="0.25791">
        <ele>119.19999694824</ele>
        <time>2019-05-12T07:59:11.000Z</time>
      </trkpt>
      <trkpt lat="46.57712" lon="0.25808">
        <ele>119</ele>
        <time>2019-05-12T07:59:16.000Z</time>
      </trkpt>
      <trkpt lat="46.57708" lon="0.2581">
        <ele>118.80000305176</ele>
        <time>2019-05-12T07:59:17.000Z</time>
      </trkpt>
      <trkpt lat="46.57703" lon="0.25812">
        <ele>118.59999847412</ele>
        <time>2019-05-12T07:59:18.000Z</time>
      </trkpt>
      <trkpt lat="46.57688" lon="0.25818">
        <ele>118.40000152588</ele>
        <time>2019-05-12T07:59:22.000Z</time>
      </trkpt>
      <trkpt lat="46.5767" lon="0.25827">
        <ele>117.80000305176</ele>
        <time>2019-05-12T07:59:27.000Z</time>
      </trkpt>
      <trkpt lat="46.57655" lon="0.25827">
        <ele>117.80000305176</ele>
        <time>2019-05-12T07:59:32.000Z</time>
      </trkpt>
      <trkpt lat="46.57637" lon="0.25832">
        <ele>117.19999694824</ele>
        <time>2019-05-12T07:59:37.000Z</time>
      </trkpt>
      <trkpt lat="46.57625" lon="0.25836">
        <ele>116.80000305176</ele>
        <time>2019-05-12T07:59:40.000Z</time>
      </trkpt>
      <trkpt lat="46.57622" lon="0.25839">
        <ele>116.40000152588</ele>
        <time>2019-05-12T07:59:41.000Z</time>
      </trkpt>
      <trkpt lat="46.57619" lon="0.25843">
        <ele>116</ele>
        <time>2019-05-12T07:59:42.000Z</time>
      </trkpt>
      <trkpt lat="46.57618" lon="0.25849">
        <ele>115.59999847412</ele>
        <time>2019-05-12T07:59:44.000Z</time>
      </trkpt>
      <trkpt lat="46.57619" lon="0.25853">
        <ele>115.59999847412</ele>
        <time>2019-05-12T07:59:46.000Z</time>
      </trkpt>
      <trkpt lat="46.5762" lon="0.25865">
        <ele>116</ele>
        <time>2019-05-12T07:59:52.000Z</time>
      </trkpt>
      <trkpt lat="46.57622" lon="0.2587">
        <ele>116.59999847412</ele>
        <time>2019-05-12T07:59:55.000Z</time>
      </trkpt>
      <trkpt lat="46.57622" lon="0.2587">
        <ele>116.59999847412</ele>
        <time>2019-05-12T07:59:56.000Z</time>
      </trkpt>
      <trkpt lat="46.57623" lon="0.25873">
        <ele>116.80000305176</ele>
        <time>2019-05-12T07:59:58.000Z</time>
      </trkpt>
      <trkpt lat="46.57625" lon="0.25876">
        <ele>116.80000305176</ele>
        <time>2019-05-12T08:00:02.000Z</time>
      </trkpt>
      <trkpt lat="46.57629" lon="0.25883">
        <ele>116.80000305176</ele>
        <time>2019-05-12T08:00:47.000Z</time>
      </trkpt>
      <trkpt lat="46.57631" lon="0.25885">
        <ele>116.80000305176</ele>
        <time>2019-05-12T08:00:48.000Z</time>
      </trkpt>
      <trkpt lat="46.57637" lon="0.25893">
        <ele>117.19999694824</ele>
        <time>2019-05-12T08:00:51.000Z</time>
      </trkpt>
      <trkpt lat="46.57642" lon="0.25901">
        <ele>117.80000305176</ele>
        <time>2019-05-12T08:00:54.000Z</time>
      </trkpt>
      <trkpt lat="46.5765" lon="0.25919">
        <ele>118.40000152588</ele>
        <time>2019-05-12T08:00:59.000Z</time>
      </trkpt>
      <trkpt lat="46.57661" lon="0.25941">
        <ele>118.19999694824</ele>
        <time>2019-05-12T08:01:05.000Z</time>
      </trkpt>
      <trkpt lat="46.57664" lon="0.25952">
        <ele>118.40000152588</ele>
        <time>2019-05-12T08:01:08.000Z</time>
      </trkpt>
      <trkpt lat="46.57668" lon="0.25965">
        <ele>118.59999847412</ele>
        <time>2019-05-12T08:01:11.000Z</time>
      </trkpt>
      <trkpt lat="46.57676" lon="0.25995">
        <ele>118.40000152588</ele>
        <time>2019-05-12T08:01:17.000Z</time>
      </trkpt>
      <trkpt lat="46.57682" lon="0.26013">
        <ele>118.80000305176</ele>
        <time>2019-05-12T08:01:21.000Z</time>
      </trkpt>
      <trkpt lat="46.57686" lon="0.26022">
        <ele>118.80000305176</ele>
        <time>2019-05-12T08:01:23.000Z</time>
      </trkpt>
      <trkpt lat="46.57694" lon="0.26046">
        <ele>118</ele>
        <time>2019-05-12T08:01:28.000Z</time>
      </trkpt>
      <trkpt lat="46.57699" lon="0.26056">
        <ele>117.80000305176</ele>
        <time>2019-05-12T08:01:30.000Z</time>
      </trkpt>
      <trkpt lat="46.57709" lon="0.2607">
        <ele>117.59999847412</ele>
        <time>2019-05-12T08:01:33.000Z</time>
      </trkpt>
      <trkpt lat="46.57723" lon="0.26086">
        <ele>117.59999847412</ele>
        <time>2019-05-12T08:01:38.000Z</time>
      </trkpt>
      <trkpt lat="46.57739" lon="0.26093">
        <ele>117.59999847412</ele>
        <time>2019-05-12T08:01:42.000Z</time>
      </trkpt>
      <trkpt lat="46.57745" lon="0.26103">
        <ele>117.40000152588</ele>
        <time>2019-05-12T08:01:45.000Z</time>
      </trkpt>
      <trkpt lat="46.57745" lon="0.26108">
        <ele>117.59999847412</ele>
        <time>2019-05-12T08:01:46.000Z</time>
      </trkpt>
      <trkpt lat="46.57748" lon="0.26118">
        <ele>117.40000152588</ele>
        <time>2019-05-12T08:01:48.000Z</time>
      </trkpt>
      <trkpt lat="46.57749" lon="0.26129">
        <ele>117.40000152588</ele>
        <time>2019-05-12T08:01:50.000Z</time>
      </trkpt>
      <trkpt lat="46.57745" lon="0.26137">
        <ele>117.19999694824</ele>
        <time>2019-05-12T08:01:52.000Z</time>
      </trkpt>
      <trkpt lat="46.5774" lon="0.2615">
        <ele>117</ele>
        <time>2019-05-12T08:01:54.000Z</time>
      </trkpt>
      <trkpt lat="46.57739" lon="0.26157">
        <ele>116.59999847412</ele>
        <time>2019-05-12T08:01:55.000Z</time>
      </trkpt>
      <trkpt lat="46.57739" lon="0.26177">
        <ele>116</ele>
        <time>2019-05-12T08:01:58.000Z</time>
      </trkpt>
      <trkpt lat="46.57741" lon="0.26185">
        <ele>115.59999847412</ele>
        <time>2019-05-12T08:01:59.000Z</time>
      </trkpt>
      <trkpt lat="46.57744" lon="0.26201">
        <ele>114.80000305176</ele>
        <time>2019-05-12T08:02:01.000Z</time>
      </trkpt>
      <trkpt lat="46.57746" lon="0.26211">
        <ele>114</ele>
        <time>2019-05-12T08:02:02.000Z</time>
      </trkpt>
      <trkpt lat="46.57749" lon="0.26242">
        <ele>113.19999694824</ele>
        <time>2019-05-12T08:02:05.000Z</time>
      </trkpt>
      <trkpt lat="46.57751" lon="0.2625">
        <ele>113</ele>
        <time>2019-05-12T08:02:06.000Z</time>
      </trkpt>
      <trkpt lat="46.57752" lon="0.26256">
        <ele>112.40000152588</ele>
        <time>2019-05-12T08:02:07.000Z</time>
      </trkpt>
      <trkpt lat="46.57754" lon="0.26263">
        <ele>111.40000152588</ele>
        <time>2019-05-12T08:02:08.000Z</time>
      </trkpt>
      <trkpt lat="46.57758" lon="0.26272">
        <ele>109.80000305176</ele>
        <time>2019-05-12T08:02:10.000Z</time>
      </trkpt>
      <trkpt lat="46.5776" lon="0.26275">
        <ele>108.80000305176</ele>
        <time>2019-05-12T08:02:11.000Z</time>
      </trkpt>
      <trkpt lat="46.57762" lon="0.26277">
        <ele>108.19999694824</ele>
        <time>2019-05-12T08:02:12.000Z</time>
      </trkpt>
      <trkpt lat="46.57772" lon="0.26281">
        <ele>106.59999847412</ele>
        <time>2019-05-12T08:02:14.000Z</time>
      </trkpt>
      <trkpt lat="46.57777" lon="0.26281">
        <ele>105.40000152588</ele>
        <time>2019-05-12T08:02:15.000Z</time>
      </trkpt>
      <trkpt lat="46.5778" lon="0.26283">
        <ele>103.40000152588</ele>
        <time>2019-05-12T08:02:16.000Z</time>
      </trkpt>
      <trkpt lat="46.57781" lon="0.26286">
        <ele>102</ele>
        <time>2019-05-12T08:02:17.000Z</time>
      </trkpt>
      <trkpt lat="46.57782" lon="0.2629">
        <ele>101</ele>
        <time>2019-05-12T08:02:18.000Z</time>
      </trkpt>
      <trkpt lat="46.57782" lon="0.26294">
        <ele>100</ele>
        <time>2019-05-12T08:02:19.000Z</time>
      </trkpt>
      <trkpt lat="46.57781" lon="0.26306">
        <ele>99.400001525879</ele>
        <time>2019-05-12T08:02:22.000Z</time>
      </trkpt>
      <trkpt lat="46.5778" lon="0.2631">
        <ele>99.199996948242</ele>
        <time>2019-05-12T08:02:23.000Z</time>
      </trkpt>
      <trkpt lat="46.57778" lon="0.26321">
        <ele>98.800003051758</ele>
        <time>2019-05-12T08:02:25.000Z</time>
      </trkpt>
      <trkpt lat="46.57777" lon="0.26327">
        <ele>98.599998474121</ele>
        <time>2019-05-12T08:02:26.000Z</time>
      </trkpt>
      <trkpt lat="46.57776" lon="0.26333">
        <ele>98.199996948242</ele>
        <time>2019-05-12T08:02:27.000Z</time>
      </trkpt>
      <trkpt lat="46.57775" lon="0.26347">
        <ele>97.400001525879</ele>
        <time>2019-05-12T08:02:29.000Z</time>
      </trkpt>
      <trkpt lat="46.57774" lon="0.2636">
        <ele>97</ele>
        <time>2019-05-12T08:02:31.000Z</time>
      </trkpt>
      <trkpt lat="46.57774" lon="0.26366">
        <ele>97</ele>
        <time>2019-05-12T08:02:32.000Z</time>
      </trkpt>
      <trkpt lat="46.57775" lon="0.26386">
        <ele>96.800003051758</ele>
        <time>2019-05-12T08:02:35.000Z</time>
      </trkpt>
      <trkpt lat="46.57776" lon="0.26399">
        <ele>96.599998474121</ele>
        <time>2019-05-12T08:02:37.000Z</time>
      </trkpt>
      <trkpt lat="46.57777" lon="0.26406">
        <ele>96.400001525879</ele>
        <time>2019-05-12T08:02:38.000Z</time>
      </trkpt>
      <trkpt lat="46.57778" lon="0.26413">
        <ele>96.199996948242</ele>
        <time>2019-05-12T08:02:39.000Z</time>
      </trkpt>
      <trkpt lat="46.57779" lon="0.2642">
        <ele>96</ele>
        <time>2019-05-12T08:02:40.000Z</time>
      </trkpt>
      <trkpt lat="46.57783" lon="0.26441">
        <ele>95.599998474121</ele>
        <time>2019-05-12T08:02:43.000Z</time>
      </trkpt>
      <trkpt lat="46.5779" lon="0.26473">
        <ele>94.400001525879</ele>
        <time>2019-05-12T08:02:47.000Z</time>
      </trkpt>
      <trkpt lat="46.57791" lon="0.26479">
        <ele>94</ele>
        <time>2019-05-12T08:02:48.000Z</time>
      </trkpt>
      <trkpt lat="46.57794" lon="0.2649">
        <ele>93.400001525879</ele>
        <time>2019-05-12T08:02:50.000Z</time>
      </trkpt>
      <trkpt lat="46.57799" lon="0.26502">
        <ele>92.599998474121</ele>
        <time>2019-05-12T08:02:52.000Z</time>
      </trkpt>
      <trkpt lat="46.57807" lon="0.26521">
        <ele>93.199996948242</ele>
        <time>2019-05-12T08:02:56.000Z</time>
      </trkpt>
      <trkpt lat="46.57812" lon="0.26531">
        <ele>93.400001525879</ele>
        <time>2019-05-12T08:02:58.000Z</time>
      </trkpt>
      <trkpt lat="46.57815" lon="0.26535">
        <ele>93.400001525879</ele>
        <time>2019-05-12T08:02:59.000Z</time>
      </trkpt>
      <trkpt lat="46.57824" lon="0.26555">
        <ele>93.599998474121</ele>
        <time>2019-05-12T08:03:03.000Z</time>
      </trkpt>
      <trkpt lat="46.57834" lon="0.26573">
        <ele>94.400001525879</ele>
        <time>2019-05-12T08:03:07.000Z</time>
      </trkpt>
      <trkpt lat="46.57839" lon="0.26582">
        <ele>94.800003051758</ele>
        <time>2019-05-12T08:03:09.000Z</time>
      </trkpt>
      <trkpt lat="46.57843" lon="0.26592">
        <ele>96.199996948242</ele>
        <time>2019-05-12T08:03:11.000Z</time>
      </trkpt>
      <trkpt lat="46.57845" lon="0.26596">
        <ele>96.800003051758</ele>
        <time>2019-05-12T08:03:12.000Z</time>
      </trkpt>
      <trkpt lat="46.57847" lon="0.26602">
        <ele>97.199996948242</ele>
        <time>2019-05-12T08:03:13.000Z</time>
      </trkpt>
      <trkpt lat="46.57853" lon="0.26615">
        <ele>98.400001525879</ele>
        <time>2019-05-12T08:03:16.000Z</time>
      </trkpt>
      <trkpt lat="46.57856" lon="0.26619">
        <ele>99</ele>
        <time>2019-05-12T08:03:17.000Z</time>
      </trkpt>
      <trkpt lat="46.57859" lon="0.26622">
        <ele>99.599998474121</ele>
        <time>2019-05-12T08:03:18.000Z</time>
      </trkpt>
      <trkpt lat="46.57866" lon="0.2663">
        <ele>100.40000152588</ele>
        <time>2019-05-12T08:03:20.000Z</time>
      </trkpt>
      <trkpt lat="46.57871" lon="0.26638">
        <ele>101.19999694824</ele>
        <time>2019-05-12T08:03:22.000Z</time>
      </trkpt>
      <trkpt lat="46.57879" lon="0.26652">
        <ele>101.59999847412</ele>
        <time>2019-05-12T08:03:26.000Z</time>
      </trkpt>
      <trkpt lat="46.57881" lon="0.26655">
        <ele>101.40000152588</ele>
        <time>2019-05-12T08:03:27.000Z</time>
      </trkpt>
      <trkpt lat="46.57892" lon="0.26673">
        <ele>100.19999694824</ele>
        <time>2019-05-12T08:03:31.000Z</time>
      </trkpt>
      <trkpt lat="46.57896" lon="0.26677">
        <ele>99.800003051758</ele>
        <time>2019-05-12T08:03:32.000Z</time>
      </trkpt>
      <trkpt lat="46.57899" lon="0.26682">
        <ele>99</ele>
        <time>2019-05-12T08:03:33.000Z</time>
      </trkpt>
      <trkpt lat="46.57911" lon="0.26702">
        <ele>98.199996948242</ele>
        <time>2019-05-12T08:03:36.000Z</time>
      </trkpt>
      <trkpt lat="46.57915" lon="0.26707">
        <ele>97.400001525879</ele>
        <time>2019-05-12T08:03:37.000Z</time>
      </trkpt>
      <trkpt lat="46.57919" lon="0.26713">
        <ele>95.400001525879</ele>
        <time>2019-05-12T08:03:39.000Z</time>
      </trkpt>
      <trkpt lat="46.57921" lon="0.26716">
        <ele>94.400001525879</ele>
        <time>2019-05-12T08:03:40.000Z</time>
      </trkpt>
      <trkpt lat="46.5792" lon="0.26718">
        <ele>93.800003051758</ele>
        <time>2019-05-12T08:03:41.000Z</time>
      </trkpt>
      <trkpt lat="46.57919" lon="0.26719">
        <ele>93.199996948242</ele>
        <time>2019-05-12T08:03:42.000Z</time>
      </trkpt>
      <trkpt lat="46.57919" lon="0.26721">
        <ele>92.800003051758</ele>
        <time>2019-05-12T08:03:43.000Z</time>
      </trkpt>
      <trkpt lat="46.57919" lon="0.26724">
        <ele>91.800003051758</ele>
        <time>2019-05-12T08:03:45.000Z</time>
      </trkpt>
      <trkpt lat="46.57916" lon="0.26726">
        <ele>91.199996948242</ele>
        <time>2019-05-12T08:03:59.000Z</time>
      </trkpt>
      <trkpt lat="46.57906" lon="0.26733">
        <ele>91</ele>
        <time>2019-05-12T08:04:02.000Z</time>
      </trkpt>
      <trkpt lat="46.57889" lon="0.26748">
        <ele>89.400001525879</ele>
        <time>2019-05-12T08:04:05.000Z</time>
      </trkpt>
      <trkpt lat="46.57884" lon="0.26754">
        <ele>88</ele>
        <time>2019-05-12T08:04:06.000Z</time>
      </trkpt>
      <trkpt lat="46.5788" lon="0.26761">
        <ele>86.599998474121</ele>
        <time>2019-05-12T08:04:07.000Z</time>
      </trkpt>
      <trkpt lat="46.57877" lon="0.2677">
        <ele>85.599998474121</ele>
        <time>2019-05-12T08:04:08.000Z</time>
      </trkpt>
      <trkpt lat="46.57875" lon="0.26779">
        <ele>85</ele>
        <time>2019-05-12T08:04:09.000Z</time>
      </trkpt>
      <trkpt lat="46.57877" lon="0.26798">
        <ele>84</ele>
        <time>2019-05-12T08:04:11.000Z</time>
      </trkpt>
      <trkpt lat="46.57879" lon="0.26807">
        <ele>83.400001525879</ele>
        <time>2019-05-12T08:04:12.000Z</time>
      </trkpt>
      <trkpt lat="46.57881" lon="0.26817">
        <ele>83</ele>
        <time>2019-05-12T08:04:13.000Z</time>
      </trkpt>
      <trkpt lat="46.57891" lon="0.26851">
        <ele>81.400001525879</ele>
        <time>2019-05-12T08:04:17.000Z</time>
      </trkpt>
      <trkpt lat="46.57893" lon="0.26859">
        <ele>81</ele>
        <time>2019-05-12T08:04:18.000Z</time>
      </trkpt>
      <trkpt lat="46.57895" lon="0.26866">
        <ele>80.800003051758</ele>
        <time>2019-05-12T08:04:19.000Z</time>
      </trkpt>
      <trkpt lat="46.57898" lon="0.2688">
        <ele>80.800003051758</ele>
        <time>2019-05-12T08:04:21.000Z</time>
      </trkpt>
      <trkpt lat="46.579" lon="0.26886">
        <ele>80.599998474121</ele>
        <time>2019-05-12T08:04:22.000Z</time>
      </trkpt>
      <trkpt lat="46.57903" lon="0.26892">
        <ele>80.199996948242</ele>
        <time>2019-05-12T08:04:23.000Z</time>
      </trkpt>
      <trkpt lat="46.57905" lon="0.26898">
        <ele>80</ele>
        <time>2019-05-12T08:04:24.000Z</time>
      </trkpt>
      <trkpt lat="46.57908" lon="0.26909">
        <ele>79.800003051758</ele>
        <time>2019-05-12T08:04:26.000Z</time>
      </trkpt>
      <trkpt lat="46.5791" lon="0.26914">
        <ele>79.599998474121</ele>
        <time>2019-05-12T08:04:27.000Z</time>
      </trkpt>
      <trkpt lat="46.57917" lon="0.2693">
        <ele>80.199996948242</ele>
        <time>2019-05-12T08:04:30.000Z</time>
      </trkpt>
      <trkpt lat="46.57921" lon="0.2694">
        <ele>80.400001525879</ele>
        <time>2019-05-12T08:04:32.000Z</time>
      </trkpt>
      <trkpt lat="46.57929" lon="0.26955">
        <ele>80.400001525879</ele>
        <time>2019-05-12T08:04:35.000Z</time>
      </trkpt>
      <trkpt lat="46.57933" lon="0.26966">
        <ele>80.599998474121</ele>
        <time>2019-05-12T08:04:37.000Z</time>
      </trkpt>
      <trkpt lat="46.57935" lon="0.26972">
        <ele>80.400001525879</ele>
        <time>2019-05-12T08:04:38.000Z</time>
      </trkpt>
      <trkpt lat="46.57946" lon="0.27">
        <ele>79.599998474121</ele>
        <time>2019-05-12T08:04:43.000Z</time>
      </trkpt>
      <trkpt lat="46.57955" lon="0.2703">
        <ele>79.800003051758</ele>
        <time>2019-05-12T08:04:48.000Z</time>
      </trkpt>
      <trkpt lat="46.57964" lon="0.27061">
        <ele>79.800003051758</ele>
        <time>2019-05-12T08:04:53.000Z</time>
      </trkpt>
      <trkpt lat="46.57971" lon="0.27078">
        <ele>79.800003051758</ele>
        <time>2019-05-12T08:04:56.000Z</time>
      </trkpt>
      <trkpt lat="46.57975" lon="0.2709">
        <ele>79.800003051758</ele>
        <time>2019-05-12T08:04:58.000Z</time>
      </trkpt>
      <trkpt lat="46.57986" lon="0.2712">
        <ele>79.599998474121</ele>
        <time>2019-05-12T08:05:03.000Z</time>
      </trkpt>
      <trkpt lat="46.57996" lon="0.27151">
        <ele>79.599998474121</ele>
        <time>2019-05-12T08:05:08.000Z</time>
      </trkpt>
      <trkpt lat="46.57998" lon="0.27157">
        <ele>80</ele>
        <time>2019-05-12T08:05:09.000Z</time>
      </trkpt>
      <trkpt lat="46.58009" lon="0.27198">
        <ele>79.800003051758</ele>
        <time>2019-05-12T08:05:16.000Z</time>
      </trkpt>
      <trkpt lat="46.58006" lon="0.27209">
        <ele>79.599998474121</ele>
        <time>2019-05-12T08:05:18.000Z</time>
      </trkpt>
      <trkpt lat="46.58002" lon="0.27213">
        <ele>79.599998474121</ele>
        <time>2019-05-12T08:05:19.000Z</time>
      </trkpt>
      <trkpt lat="46.57988" lon="0.27219">
        <ele>79.599998474121</ele>
        <time>2019-05-12T08:05:23.000Z</time>
      </trkpt>
      <trkpt lat="46.57984" lon="0.27221">
        <ele>79.400001525879</ele>
        <time>2019-05-12T08:05:24.000Z</time>
      </trkpt>
      <trkpt lat="46.57981" lon="0.27225">
        <ele>79.400001525879</ele>
        <time>2019-05-12T08:05:25.000Z</time>
      </trkpt>
      <trkpt lat="46.57975" lon="0.27245">
        <ele>79</ele>
        <time>2019-05-12T08:05:28.000Z</time>
      </trkpt>
      <trkpt lat="46.57975" lon="0.2726">
        <ele>78.400001525879</ele>
        <time>2019-05-12T08:05:30.000Z</time>
      </trkpt>
      <trkpt lat="46.57973" lon="0.27281">
        <ele>78.599998474121</ele>
        <time>2019-05-12T08:05:33.000Z</time>
      </trkpt>
      <trkpt lat="46.57971" lon="0.27288">
        <ele>78.599998474121</ele>
        <time>2019-05-12T08:05:34.000Z</time>
      </trkpt>
      <trkpt lat="46.57959" lon="0.27309">
        <ele>78.599998474121</ele>
        <time>2019-05-12T08:05:38.000Z</time>
      </trkpt>
      <trkpt lat="46.57952" lon="0.27321">
        <ele>79.800003051758</ele>
        <time>2019-05-12T08:05:42.000Z</time>
      </trkpt>
      <trkpt lat="46.5795" lon="0.27324">
        <ele>80</ele>
        <time>2019-05-12T08:05:43.000Z</time>
      </trkpt>
      <trkpt lat="46.57942" lon="0.2733">
        <ele>81.199996948242</ele>
        <time>2019-05-12T08:05:46.000Z</time>
      </trkpt>
      <trkpt lat="46.57939" lon="0.27332">
        <ele>82</ele>
        <time>2019-05-12T08:05:47.000Z</time>
      </trkpt>
      <trkpt lat="46.57933" lon="0.27337">
        <ele>82.599998474121</ele>
        <time>2019-05-12T08:05:49.000Z</time>
      </trkpt>
      <trkpt lat="46.57916" lon="0.27349">
        <ele>83.199996948242</ele>
        <time>2019-05-12T08:05:55.000Z</time>
      </trkpt>
      <trkpt lat="46.57913" lon="0.2735">
        <ele>83.400001525879</ele>
        <time>2019-05-12T08:05:56.000Z</time>
      </trkpt>
      <trkpt lat="46.57904" lon="0.27358">
        <ele>84.800003051758</ele>
        <time>2019-05-12T08:06:01.000Z</time>
      </trkpt>
      <trkpt lat="46.57902" lon="0.27362">
        <ele>85.199996948242</ele>
        <time>2019-05-12T08:06:03.000Z</time>
      </trkpt>
      <trkpt lat="46.57897" lon="0.27364">
        <ele>86</ele>
        <time>2019-05-12T08:06:05.000Z</time>
      </trkpt>
      <trkpt lat="46.57891" lon="0.27366">
        <ele>86.400001525879</ele>
        <time>2019-05-12T08:06:08.000Z</time>
      </trkpt>
      <trkpt lat="46.57887" lon="0.27366">
        <ele>86.800003051758</ele>
        <time>2019-05-12T08:06:10.000Z</time>
      </trkpt>
      <trkpt lat="46.57884" lon="0.27367">
        <ele>87.199996948242</ele>
        <time>2019-05-12T08:06:11.000Z</time>
      </trkpt>
      <trkpt lat="46.57875" lon="0.27369">
        <ele>87.800003051758</ele>
        <time>2019-05-12T08:06:15.000Z</time>
      </trkpt>
      <trkpt lat="46.57864" lon="0.27376">
        <ele>89</ele>
        <time>2019-05-12T08:06:20.000Z</time>
      </trkpt>
      <trkpt lat="46.57852" lon="0.27379">
        <ele>90</ele>
        <time>2019-05-12T08:06:25.000Z</time>
      </trkpt>
      <trkpt lat="46.57847" lon="0.27381">
        <ele>90.599998474121</ele>
        <time>2019-05-12T08:06:27.000Z</time>
      </trkpt>
      <trkpt lat="46.57836" lon="0.2738">
        <ele>91</ele>
        <time>2019-05-12T08:06:31.000Z</time>
      </trkpt>
      <trkpt lat="46.57825" lon="0.27378">
        <ele>92.199996948242</ele>
        <time>2019-05-12T08:06:35.000Z</time>
      </trkpt>
      <trkpt lat="46.57822" lon="0.27377">
        <ele>92.400001525879</ele>
        <time>2019-05-12T08:06:36.000Z</time>
      </trkpt>
      <trkpt lat="46.57805" lon="0.27371">
        <ele>93</ele>
        <time>2019-05-12T08:06:42.000Z</time>
      </trkpt>
      <trkpt lat="46.57797" lon="0.27367">
        <ele>93.800003051758</ele>
        <time>2019-05-12T08:06:45.000Z</time>
      </trkpt>
      <trkpt lat="46.57791" lon="0.27365">
        <ele>94.199996948242</ele>
        <time>2019-05-12T08:06:47.000Z</time>
      </trkpt>
      <trkpt lat="46.57772" lon="0.27358">
        <ele>95</ele>
        <time>2019-05-12T08:06:54.000Z</time>
      </trkpt>
      <trkpt lat="46.57767" lon="0.27356">
        <ele>95.400001525879</ele>
        <time>2019-05-12T08:06:56.000Z</time>
      </trkpt>
      <trkpt lat="46.57756" lon="0.27344">
        <ele>96.199996948242</ele>
        <time>2019-05-12T08:07:01.000Z</time>
      </trkpt>
      <trkpt lat="46.57756" lon="0.2734">
        <ele>96.599998474121</ele>
        <time>2019-05-12T08:07:02.000Z</time>
      </trkpt>
      <trkpt lat="46.57755" lon="0.27329">
        <ele>97.199996948242</ele>
        <time>2019-05-12T08:07:05.000Z</time>
      </trkpt>
      <trkpt lat="46.57753" lon="0.27311">
        <ele>98</ele>
        <time>2019-05-12T08:07:10.000Z</time>
      </trkpt>
      <trkpt lat="46.57751" lon="0.27303">
        <ele>98.400001525879</ele>
        <time>2019-05-12T08:07:12.000Z</time>
      </trkpt>
      <trkpt lat="46.57747" lon="0.27282">
        <ele>99.199996948242</ele>
        <time>2019-05-12T08:07:17.000Z</time>
      </trkpt>
      <trkpt lat="46.57746" lon="0.27277">
        <ele>99.199996948242</ele>
        <time>2019-05-12T08:07:18.000Z</time>
      </trkpt>
      <trkpt lat="46.57738" lon="0.27258">
        <ele>100.19999694824</ele>
        <time>2019-05-12T08:07:23.000Z</time>
      </trkpt>
      <trkpt lat="46.57735" lon="0.27256">
        <ele>100.40000152588</ele>
        <time>2019-05-12T08:07:24.000Z</time>
      </trkpt>
      <trkpt lat="46.57719" lon="0.27249">
        <ele>101.19999694824</ele>
        <time>2019-05-12T08:07:29.000Z</time>
      </trkpt>
      <trkpt lat="46.57716" lon="0.27248">
        <ele>101.19999694824</ele>
        <time>2019-05-12T08:07:30.000Z</time>
      </trkpt>
      <trkpt lat="46.57699" lon="0.27241">
        <ele>102.19999694824</ele>
        <time>2019-05-12T08:07:35.000Z</time>
      </trkpt>
      <trkpt lat="46.57679" lon="0.27233">
        <ele>103.19999694824</ele>
        <time>2019-05-12T08:07:41.000Z</time>
      </trkpt>
      <trkpt lat="46.57654" lon="0.27214">
        <ele>104</ele>
        <time>2019-05-12T08:07:49.000Z</time>
      </trkpt>
      <trkpt lat="46.57651" lon="0.27211">
        <ele>104.19999694824</ele>
        <time>2019-05-12T08:07:50.000Z</time>
      </trkpt>
      <trkpt lat="46.57629" lon="0.27192">
        <ele>104.80000305176</ele>
        <time>2019-05-12T08:07:57.000Z</time>
      </trkpt>
      <trkpt lat="46.57623" lon="0.27186">
        <ele>104.80000305176</ele>
        <time>2019-05-12T08:07:59.000Z</time>
      </trkpt>
      <trkpt lat="46.57607" lon="0.27173">
        <ele>105.19999694824</ele>
        <time>2019-05-12T08:08:04.000Z</time>
      </trkpt>
      <trkpt lat="46.57588" lon="0.27156">
        <ele>105.40000152588</ele>
        <time>2019-05-12T08:08:10.000Z</time>
      </trkpt>
      <trkpt lat="46.57575" lon="0.27145">
        <ele>105.40000152588</ele>
        <time>2019-05-12T08:08:14.000Z</time>
      </trkpt>
      <trkpt lat="46.57562" lon="0.27132">
        <ele>105.59999847412</ele>
        <time>2019-05-12T08:08:18.000Z</time>
      </trkpt>
      <trkpt lat="46.57559" lon="0.27129">
        <ele>106</ele>
        <time>2019-05-12T08:08:19.000Z</time>
      </trkpt>
      <trkpt lat="46.57547" lon="0.27116">
        <ele>106</ele>
        <time>2019-05-12T08:08:23.000Z</time>
      </trkpt>
      <trkpt lat="46.57533" lon="0.27096">
        <ele>106</ele>
        <time>2019-05-12T08:08:28.000Z</time>
      </trkpt>
      <trkpt lat="46.57519" lon="0.27078">
        <ele>106.40000152588</ele>
        <time>2019-05-12T08:08:33.000Z</time>
      </trkpt>
      <trkpt lat="46.57514" lon="0.2707">
        <ele>107</ele>
        <time>2019-05-12T08:08:35.000Z</time>
      </trkpt>
      <trkpt lat="46.57504" lon="0.2706">
        <ele>107.59999847412</ele>
        <time>2019-05-12T08:08:38.000Z</time>
      </trkpt>
      <trkpt lat="46.57485" lon="0.27041">
        <ele>108.59999847412</ele>
        <time>2019-05-12T08:08:44.000Z</time>
      </trkpt>
      <trkpt lat="46.57482" lon="0.27038">
        <ele>108.80000305176</ele>
        <time>2019-05-12T08:08:45.000Z</time>
      </trkpt>
      <trkpt lat="46.57464" lon="0.27025">
        <ele>109.80000305176</ele>
        <time>2019-05-12T08:08:50.000Z</time>
      </trkpt>
      <trkpt lat="46.57445" lon="0.27019">
        <ele>110.80000305176</ele>
        <time>2019-05-12T08:08:55.000Z</time>
      </trkpt>
      <trkpt lat="46.57437" lon="0.27018">
        <ele>111.40000152588</ele>
        <time>2019-05-12T08:08:57.000Z</time>
      </trkpt>
      <trkpt lat="46.57433" lon="0.27019">
        <ele>111.80000305176</ele>
        <time>2019-05-12T08:08:58.000Z</time>
      </trkpt>
      <trkpt lat="46.57413" lon="0.2702">
        <ele>112.80000305176</ele>
        <time>2019-05-12T08:09:03.000Z</time>
      </trkpt>
      <trkpt lat="46.57405" lon="0.27021">
        <ele>113</ele>
        <time>2019-05-12T08:09:05.000Z</time>
      </trkpt>
      <trkpt lat="46.57392" lon="0.2702">
        <ele>113.80000305176</ele>
        <time>2019-05-12T08:09:08.000Z</time>
      </trkpt>
      <trkpt lat="46.57376" lon="0.2702">
        <ele>114.59999847412</ele>
        <time>2019-05-12T08:09:12.000Z</time>
      </trkpt>
      <trkpt lat="46.57368" lon="0.27021">
        <ele>115</ele>
        <time>2019-05-12T08:09:14.000Z</time>
      </trkpt>
      <trkpt lat="46.57356" lon="0.27023">
        <ele>115.40000152588</ele>
        <time>2019-05-12T08:09:17.000Z</time>
      </trkpt>
      <trkpt lat="46.57345" lon="0.27029">
        <ele>115.59999847412</ele>
        <time>2019-05-12T08:09:20.000Z</time>
      </trkpt>
      <trkpt lat="46.57338" lon="0.27037">
        <ele>115.80000305176</ele>
        <time>2019-05-12T08:09:22.000Z</time>
      </trkpt>
      <trkpt lat="46.5733" lon="0.27046">
        <ele>116</ele>
        <time>2019-05-12T08:09:24.000Z</time>
      </trkpt>
      <trkpt lat="46.57322" lon="0.27058">
        <ele>115.80000305176</ele>
        <time>2019-05-12T08:09:26.000Z</time>
      </trkpt>
      <trkpt lat="46.57308" lon="0.27088">
        <ele>114.59999847412</ele>
        <time>2019-05-12T08:09:30.000Z</time>
      </trkpt>
      <trkpt lat="46.57306" lon="0.27096">
        <ele>114</ele>
        <time>2019-05-12T08:09:31.000Z</time>
      </trkpt>
      <trkpt lat="46.57301" lon="0.27122">
        <ele>113.59999847412</ele>
        <time>2019-05-12T08:09:34.000Z</time>
      </trkpt>
      <trkpt lat="46.57299" lon="0.27137">
        <ele>113.59999847412</ele>
        <time>2019-05-12T08:09:36.000Z</time>
      </trkpt>
      <trkpt lat="46.57298" lon="0.27159">
        <ele>114.80000305176</ele>
        <time>2019-05-12T08:09:39.000Z</time>
      </trkpt>
      <trkpt lat="46.57299" lon="0.27175">
        <ele>115.40000152588</ele>
        <time>2019-05-12T08:09:42.000Z</time>
      </trkpt>
      <trkpt lat="46.57299" lon="0.27197">
        <ele>115.80000305176</ele>
        <time>2019-05-12T08:09:46.000Z</time>
      </trkpt>
      <trkpt lat="46.573" lon="0.27215">
        <ele>116.59999847412</ele>
        <time>2019-05-12T08:09:49.000Z</time>
      </trkpt>
      <trkpt lat="46.573" lon="0.27221">
        <ele>117</ele>
        <time>2019-05-12T08:09:50.000Z</time>
      </trkpt>
      <trkpt lat="46.573" lon="0.27244">
        <ele>118</ele>
        <time>2019-05-12T08:09:54.000Z</time>
      </trkpt>
      <trkpt lat="46.57301" lon="0.27253">
        <ele>118.19999694824</ele>
        <time>2019-05-12T08:09:56.000Z</time>
      </trkpt>
      <trkpt lat="46.57305" lon="0.27274">
        <ele>119</ele>
        <time>2019-05-12T08:10:01.000Z</time>
      </trkpt>
      <trkpt lat="46.57306" lon="0.27279">
        <ele>119</ele>
        <time>2019-05-12T08:10:02.000Z</time>
      </trkpt>
      <trkpt lat="46.57307" lon="0.27293">
        <ele>118.80000305176</ele>
        <time>2019-05-12T08:10:05.000Z</time>
      </trkpt>
      <trkpt lat="46.57302" lon="0.27315">
        <ele>119.19999694824</ele>
        <time>2019-05-12T08:10:10.000Z</time>
      </trkpt>
      <trkpt lat="46.57289" lon="0.27319">
        <ele>119.80000305176</ele>
        <time>2019-05-12T08:10:14.000Z</time>
      </trkpt>
      <trkpt lat="46.57265" lon="0.2732">
        <ele>120.19999694824</ele>
        <time>2019-05-12T08:10:21.000Z</time>
      </trkpt>
      <trkpt lat="46.57247" lon="0.27317">
        <ele>121</ele>
        <time>2019-05-12T08:10:26.000Z</time>
      </trkpt>
      <trkpt lat="46.57231" lon="0.27317">
        <ele>121.40000152588</ele>
        <time>2019-05-12T08:10:30.000Z</time>
      </trkpt>
      <trkpt lat="46.57198" lon="0.27314">
        <ele>121.80000305176</ele>
        <time>2019-05-12T08:10:38.000Z</time>
      </trkpt>
      <trkpt lat="46.57195" lon="0.27314">
        <ele>121.80000305176</ele>
        <time>2019-05-12T08:10:39.000Z</time>
      </trkpt>
      <trkpt lat="46.57183" lon="0.27315">
        <ele>122.19999694824</ele>
        <time>2019-05-12T08:10:42.000Z</time>
      </trkpt>
      <trkpt lat="46.5718" lon="0.27319">
        <ele>122.40000152588</ele>
        <time>2019-05-12T08:10:43.000Z</time>
      </trkpt>
      <trkpt lat="46.57176" lon="0.2733">
        <ele>122.80000305176</ele>
        <time>2019-05-12T08:10:45.000Z</time>
      </trkpt>
      <trkpt lat="46.57175" lon="0.27336">
        <ele>123.19999694824</ele>
        <time>2019-05-12T08:10:46.000Z</time>
      </trkpt>
      <trkpt lat="46.57168" lon="0.27376">
        <ele>123.40000152588</ele>
        <time>2019-05-12T08:10:52.000Z</time>
      </trkpt>
      <trkpt lat="46.57156" lon="0.27436">
        <ele>123.19999694824</ele>
        <time>2019-05-12T08:11:00.000Z</time>
      </trkpt>
      <trkpt lat="46.57148" lon="0.27472">
        <ele>123.59999847412</ele>
        <time>2019-05-12T08:11:05.000Z</time>
      </trkpt>
      <trkpt lat="46.57146" lon="0.27487">
        <ele>123.80000305176</ele>
        <time>2019-05-12T08:11:07.000Z</time>
      </trkpt>
      <trkpt lat="46.57141" lon="0.27509">
        <ele>123.80000305176</ele>
        <time>2019-05-12T08:11:10.000Z</time>
      </trkpt>
      <trkpt lat="46.57135" lon="0.27537">
        <ele>123.80000305176</ele>
        <time>2019-05-12T08:11:14.000Z</time>
      </trkpt>
      <trkpt lat="46.57133" lon="0.27543">
        <ele>123.80000305176</ele>
        <time>2019-05-12T08:11:15.000Z</time>
      </trkpt>
      <trkpt lat="46.57127" lon="0.2757">
        <ele>122.80000305176</ele>
        <time>2019-05-12T08:11:19.000Z</time>
      </trkpt>
      <trkpt lat="46.57126" lon="0.27577">
        <ele>122.80000305176</ele>
        <time>2019-05-12T08:11:20.000Z</time>
      </trkpt>
      <trkpt lat="46.57125" lon="0.27583">
        <ele>122.59999847412</ele>
        <time>2019-05-12T08:11:21.000Z</time>
      </trkpt>
      <trkpt lat="46.5712" lon="0.27604">
        <ele>122.40000152588</ele>
        <time>2019-05-12T08:11:24.000Z</time>
      </trkpt>
      <trkpt lat="46.57118" lon="0.27611">
        <ele>122.40000152588</ele>
        <time>2019-05-12T08:11:25.000Z</time>
      </trkpt>
      <trkpt lat="46.57115" lon="0.27625">
        <ele>122.19999694824</ele>
        <time>2019-05-12T08:11:27.000Z</time>
      </trkpt>
      <trkpt lat="46.5711" lon="0.27649">
        <ele>122</ele>
        <time>2019-05-12T08:11:30.000Z</time>
      </trkpt>
      <trkpt lat="46.57108" lon="0.27666">
        <ele>121.80000305176</ele>
        <time>2019-05-12T08:11:32.000Z</time>
      </trkpt>
      <trkpt lat="46.57106" lon="0.27684">
        <ele>121.59999847412</ele>
        <time>2019-05-12T08:11:34.000Z</time>
      </trkpt>
      <trkpt lat="46.57106" lon="0.27693">
        <ele>121.59999847412</ele>
        <time>2019-05-12T08:11:35.000Z</time>
      </trkpt>
      <trkpt lat="46.57107" lon="0.27703">
        <ele>121.40000152588</ele>
        <time>2019-05-12T08:11:36.000Z</time>
      </trkpt>
      <trkpt lat="46.57108" lon="0.27713">
        <ele>121.19999694824</ele>
        <time>2019-05-12T08:11:37.000Z</time>
      </trkpt>
      <trkpt lat="46.57111" lon="0.27734">
        <ele>120.19999694824</ele>
        <time>2019-05-12T08:11:39.000Z</time>
      </trkpt>
      <trkpt lat="46.57112" lon="0.27745">
        <ele>119.80000305176</ele>
        <time>2019-05-12T08:11:40.000Z</time>
      </trkpt>
      <trkpt lat="46.57113" lon="0.27758">
        <ele>119.19999694824</ele>
        <time>2019-05-12T08:11:41.000Z</time>
      </trkpt>
      <trkpt lat="46.5711" lon="0.27795">
        <ele>117.80000305176</ele>
        <time>2019-05-12T08:11:44.000Z</time>
      </trkpt>
      <trkpt lat="46.57103" lon="0.27832">
        <ele>116.40000152588</ele>
        <time>2019-05-12T08:11:47.000Z</time>
      </trkpt>
      <trkpt lat="46.57096" lon="0.27869">
        <ele>115.19999694824</ele>
        <time>2019-05-12T08:11:50.000Z</time>
      </trkpt>
      <trkpt lat="46.57092" lon="0.27892">
        <ele>114.59999847412</ele>
        <time>2019-05-12T08:11:52.000Z</time>
      </trkpt>
      <trkpt lat="46.57087" lon="0.27914">
        <ele>114.19999694824</ele>
        <time>2019-05-12T08:11:54.000Z</time>
      </trkpt>
      <trkpt lat="46.5708" lon="0.27953">
        <ele>114.59999847412</ele>
        <time>2019-05-12T08:11:58.000Z</time>
      </trkpt>
      <trkpt lat="46.57078" lon="0.27971">
        <ele>115.19999694824</ele>
        <time>2019-05-12T08:12:00.000Z</time>
      </trkpt>
      <trkpt lat="46.57078" lon="0.2799">
        <ele>115.80000305176</ele>
        <time>2019-05-12T08:12:02.000Z</time>
      </trkpt>
      <trkpt lat="46.57077" lon="0.27999">
        <ele>115.80000305176</ele>
        <time>2019-05-12T08:12:03.000Z</time>
      </trkpt>
      <trkpt lat="46.57074" lon="0.28024">
        <ele>116.19999694824</ele>
        <time>2019-05-12T08:12:06.000Z</time>
      </trkpt>
      <trkpt lat="46.57068" lon="0.28036">
        <ele>116</ele>
        <time>2019-05-12T08:12:08.000Z</time>
      </trkpt>
      <trkpt lat="46.57061" lon="0.28056">
        <ele>115.80000305176</ele>
        <time>2019-05-12T08:12:11.000Z</time>
      </trkpt>
      <trkpt lat="46.57058" lon="0.28063">
        <ele>115.80000305176</ele>
        <time>2019-05-12T08:12:12.000Z</time>
      </trkpt>
      <trkpt lat="46.57045" lon="0.2809">
        <ele>116.19999694824</ele>
        <time>2019-05-12T08:12:16.000Z</time>
      </trkpt>
      <trkpt lat="46.57024" lon="0.28138">
        <ele>116.40000152588</ele>
        <time>2019-05-12T08:12:23.000Z</time>
      </trkpt>
      <trkpt lat="46.57016" lon="0.28137">
        <ele>115.80000305176</ele>
        <time>2019-05-12T08:12:25.000Z</time>
      </trkpt>
      <trkpt lat="46.57" lon="0.28126">
        <ele>115.59999847412</ele>
        <time>2019-05-12T08:12:29.000Z</time>
      </trkpt>
      <trkpt lat="46.56981" lon="0.28118">
        <ele>117.40000152588</ele>
        <time>2019-05-12T08:12:34.000Z</time>
      </trkpt>
      <trkpt lat="46.56974" lon="0.28115">
        <ele>118.59999847412</ele>
        <time>2019-05-12T08:12:36.000Z</time>
      </trkpt>
      <trkpt lat="46.5697" lon="0.28114">
        <ele>119</ele>
        <time>2019-05-12T08:12:37.000Z</time>
      </trkpt>
      <trkpt lat="46.56963" lon="0.28111">
        <ele>120</ele>
        <time>2019-05-12T08:12:39.000Z</time>
      </trkpt>
      <trkpt lat="46.56953" lon="0.28108">
        <ele>121.40000152588</ele>
        <time>2019-05-12T08:12:42.000Z</time>
      </trkpt>
      <trkpt lat="46.56946" lon="0.28106">
        <ele>122.59999847412</ele>
        <time>2019-05-12T08:12:44.000Z</time>
      </trkpt>
      <trkpt lat="46.56932" lon="0.28103">
        <ele>124</ele>
        <time>2019-05-12T08:12:48.000Z</time>
      </trkpt>
      <trkpt lat="46.56925" lon="0.28102">
        <ele>124.40000152588</ele>
        <time>2019-05-12T08:12:51.000Z</time>
      </trkpt>
      <trkpt lat="46.56919" lon="0.28101">
        <ele>124.59999847412</ele>
        <time>2019-05-12T08:12:56.000Z</time>
      </trkpt>
      <trkpt lat="46.56919" lon="0.28101">
        <ele>124.59999847412</ele>
        <time>2019-05-12T08:12:57.000Z</time>
      </trkpt>
      <trkpt lat="46.56916" lon="0.28103">
        <ele>125.19999694824</ele>
        <time>2019-05-12T08:18:53.000Z</time>
      </trkpt>
      <trkpt lat="46.56913" lon="0.28104">
        <ele>125.19999694824</ele>
        <time>2019-05-12T08:18:54.000Z</time>
      </trkpt>
      <trkpt lat="46.5691" lon="0.28105">
        <ele>125</ele>
        <time>2019-05-12T08:18:55.000Z</time>
      </trkpt>
      <trkpt lat="46.56894" lon="0.2811">
        <ele>124.40000152588</ele>
        <time>2019-05-12T08:18:58.000Z</time>
      </trkpt>
      <trkpt lat="46.56887" lon="0.28111">
        <ele>123.80000305176</ele>
        <time>2019-05-12T08:18:59.000Z</time>
      </trkpt>
      <trkpt lat="46.56871" lon="0.28112">
        <ele>122.19999694824</ele>
        <time>2019-05-12T08:19:01.000Z</time>
      </trkpt>
      <trkpt lat="46.56864" lon="0.28114">
        <ele>120.80000305176</ele>
        <time>2019-05-12T08:19:02.000Z</time>
      </trkpt>
      <trkpt lat="46.56859" lon="0.28118">
        <ele>120.19999694824</ele>
        <time>2019-05-12T08:19:03.000Z</time>
      </trkpt>
      <trkpt lat="46.56854" lon="0.28121">
        <ele>119.59999847412</ele>
        <time>2019-05-12T08:19:04.000Z</time>
      </trkpt>
      <trkpt lat="46.56851" lon="0.28126">
        <ele>118.19999694824</ele>
        <time>2019-05-12T08:19:06.000Z</time>
      </trkpt>
      <trkpt lat="46.56851" lon="0.28129">
        <ele>117.40000152588</ele>
        <time>2019-05-12T08:19:07.000Z</time>
      </trkpt>
      <trkpt lat="46.56851" lon="0.28131">
        <ele>116.80000305176</ele>
        <time>2019-05-12T08:19:08.000Z</time>
      </trkpt>
      <trkpt lat="46.56849" lon="0.28139">
        <ele>116.59999847412</ele>
        <time>2019-05-12T08:19:11.000Z</time>
      </trkpt>
      <trkpt lat="46.56849" lon="0.28143">
        <ele>116.59999847412</ele>
        <time>2019-05-12T08:19:12.000Z</time>
      </trkpt>
      <trkpt lat="46.56848" lon="0.28157">
        <ele>116</ele>
        <time>2019-05-12T08:19:15.000Z</time>
      </trkpt>
      <trkpt lat="46.56847" lon="0.28161">
        <ele>115.80000305176</ele>
        <time>2019-05-12T08:19:16.000Z</time>
      </trkpt>
      <trkpt lat="46.56846" lon="0.28166">
        <ele>115.59999847412</ele>
        <time>2019-05-12T08:19:17.000Z</time>
      </trkpt>
      <trkpt lat="46.56845" lon="0.28175">
        <ele>115.19999694824</ele>
        <time>2019-05-12T08:19:19.000Z</time>
      </trkpt>
      <trkpt lat="46.56845" lon="0.28183">
        <ele>114.59999847412</ele>
        <time>2019-05-12T08:19:21.000Z</time>
      </trkpt>
      <trkpt lat="46.56845" lon="0.28192">
        <ele>114.40000152588</ele>
        <time>2019-05-12T08:19:23.000Z</time>
      </trkpt>
      <trkpt lat="46.5685" lon="0.28218">
        <ele>114</ele>
        <time>2019-05-12T08:19:28.000Z</time>
      </trkpt>
      <trkpt lat="46.56861" lon="0.28237">
        <ele>113.59999847412</ele>
        <time>2019-05-12T08:19:32.000Z</time>
      </trkpt>
      <trkpt lat="46.56863" lon="0.28242">
        <ele>113.40000152588</ele>
        <time>2019-05-12T08:19:33.000Z</time>
      </trkpt>
      <trkpt lat="46.56869" lon="0.28258">
        <ele>112.59999847412</ele>
        <time>2019-05-12T08:19:36.000Z</time>
      </trkpt>
      <trkpt lat="46.56876" lon="0.28266">
        <ele>112.19999694824</ele>
        <time>2019-05-12T08:19:38.000Z</time>
      </trkpt>
      <trkpt lat="46.56885" lon="0.28284">
        <ele>111.40000152588</ele>
        <time>2019-05-12T08:19:41.000Z</time>
      </trkpt>
      <trkpt lat="46.56887" lon="0.28292">
        <ele>111</ele>
        <time>2019-05-12T08:19:42.000Z</time>
      </trkpt>
      <trkpt lat="46.56894" lon="0.28324">
        <ele>110.19999694824</ele>
        <time>2019-05-12T08:19:46.000Z</time>
      </trkpt>
      <trkpt lat="46.569" lon="0.28337">
        <ele>110</ele>
        <time>2019-05-12T08:19:48.000Z</time>
      </trkpt>
      <trkpt lat="46.56917" lon="0.28352">
        <ele>109.59999847412</ele>
        <time>2019-05-12T08:19:52.000Z</time>
      </trkpt>
      <trkpt lat="46.56939" lon="0.2836">
        <ele>110.19999694824</ele>
        <time>2019-05-12T08:19:57.000Z</time>
      </trkpt>
      <trkpt lat="46.5695" lon="0.28373">
        <ele>110.19999694824</ele>
        <time>2019-05-12T08:20:00.000Z</time>
      </trkpt>
      <trkpt lat="46.56954" lon="0.28378">
        <ele>110.40000152588</ele>
        <time>2019-05-12T08:20:01.000Z</time>
      </trkpt>
      <trkpt lat="46.56966" lon="0.28401">
        <ele>109.80000305176</ele>
        <time>2019-05-12T08:20:05.000Z</time>
      </trkpt>
      <trkpt lat="46.56975" lon="0.28419">
        <ele>109.80000305176</ele>
        <time>2019-05-12T08:20:08.000Z</time>
      </trkpt>
      <trkpt lat="46.56983" lon="0.28429">
        <ele>109.59999847412</ele>
        <time>2019-05-12T08:20:10.000Z</time>
      </trkpt>
      <trkpt lat="46.56991" lon="0.28434">
        <ele>109.59999847412</ele>
        <time>2019-05-12T08:20:12.000Z</time>
      </trkpt>
      <trkpt lat="46.57" lon="0.28441">
        <ele>109.40000152588</ele>
        <time>2019-05-12T08:20:14.000Z</time>
      </trkpt>
      <trkpt lat="46.57015" lon="0.28453">
        <ele>109.19999694824</ele>
        <time>2019-05-12T08:20:17.000Z</time>
      </trkpt>
      <trkpt lat="46.5702" lon="0.28458">
        <ele>109</ele>
        <time>2019-05-12T08:20:18.000Z</time>
      </trkpt>
      <trkpt lat="46.57026" lon="0.28462">
        <ele>108.59999847412</ele>
        <time>2019-05-12T08:20:19.000Z</time>
      </trkpt>
      <trkpt lat="46.57051" lon="0.28482">
        <ele>109.19999694824</ele>
        <time>2019-05-12T08:20:24.000Z</time>
      </trkpt>
      <trkpt lat="46.57056" lon="0.28485">
        <ele>109.40000152588</ele>
        <time>2019-05-12T08:20:25.000Z</time>
      </trkpt>
      <trkpt lat="46.57079" lon="0.285">
        <ele>110</ele>
        <time>2019-05-12T08:20:30.000Z</time>
      </trkpt>
      <trkpt lat="46.57084" lon="0.28503">
        <ele>110</ele>
        <time>2019-05-12T08:20:31.000Z</time>
      </trkpt>
      <trkpt lat="46.57095" lon="0.28513">
        <ele>110</ele>
        <time>2019-05-12T08:20:34.000Z</time>
      </trkpt>
      <trkpt lat="46.57096" lon="0.28518">
        <ele>109.80000305176</ele>
        <time>2019-05-12T08:20:35.000Z</time>
      </trkpt>
      <trkpt lat="46.57097" lon="0.28523">
        <ele>109.80000305176</ele>
        <time>2019-05-12T08:20:36.000Z</time>
      </trkpt>
      <trkpt lat="46.57096" lon="0.2854">
        <ele>109.80000305176</ele>
        <time>2019-05-12T08:20:39.000Z</time>
      </trkpt>
      <trkpt lat="46.57093" lon="0.28549">
        <ele>109.80000305176</ele>
        <time>2019-05-12T08:20:41.000Z</time>
      </trkpt>
      <trkpt lat="46.57091" lon="0.28559">
        <ele>109.80000305176</ele>
        <time>2019-05-12T08:20:43.000Z</time>
      </trkpt>
      <trkpt lat="46.5709" lon="0.28574">
        <ele>109.80000305176</ele>
        <time>2019-05-12T08:20:45.000Z</time>
      </trkpt>
      <trkpt lat="46.57089" lon="0.28588">
        <ele>109.80000305176</ele>
        <time>2019-05-12T08:20:47.000Z</time>
      </trkpt>
      <trkpt lat="46.57083" lon="0.28618">
        <ele>109.19999694824</ele>
        <time>2019-05-12T08:20:52.000Z</time>
      </trkpt>
      <trkpt lat="46.5708" lon="0.28632">
        <ele>109.19999694824</ele>
        <time>2019-05-12T08:20:54.000Z</time>
      </trkpt>
      <trkpt lat="46.57077" lon="0.28655">
        <ele>109.40000152588</ele>
        <time>2019-05-12T08:20:57.000Z</time>
      </trkpt>
      <trkpt lat="46.57077" lon="0.28663">
        <ele>109.40000152588</ele>
        <time>2019-05-12T08:20:58.000Z</time>
      </trkpt>
      <trkpt lat="46.57076" lon="0.2868">
        <ele>109</ele>
        <time>2019-05-12T08:21:00.000Z</time>
      </trkpt>
      <trkpt lat="46.57075" lon="0.28688">
        <ele>108.59999847412</ele>
        <time>2019-05-12T08:21:01.000Z</time>
      </trkpt>
      <trkpt lat="46.57073" lon="0.28697">
        <ele>108.19999694824</ele>
        <time>2019-05-12T08:21:02.000Z</time>
      </trkpt>
      <trkpt lat="46.57067" lon="0.28741">
        <ele>108</ele>
        <time>2019-05-12T08:21:07.000Z</time>
      </trkpt>
      <trkpt lat="46.57067" lon="0.28758">
        <ele>107.59999847412</ele>
        <time>2019-05-12T08:21:09.000Z</time>
      </trkpt>
      <trkpt lat="46.57071" lon="0.28776">
        <ele>106.59999847412</ele>
        <time>2019-05-12T08:21:11.000Z</time>
      </trkpt>
      <trkpt lat="46.57074" lon="0.28785">
        <ele>106</ele>
        <time>2019-05-12T08:21:12.000Z</time>
      </trkpt>
      <trkpt lat="46.57078" lon="0.28793">
        <ele>105.40000152588</ele>
        <time>2019-05-12T08:21:13.000Z</time>
      </trkpt>
      <trkpt lat="46.57081" lon="0.28803">
        <ele>105</ele>
        <time>2019-05-12T08:21:14.000Z</time>
      </trkpt>
      <trkpt lat="46.57084" lon="0.28813">
        <ele>104.59999847412</ele>
        <time>2019-05-12T08:21:15.000Z</time>
      </trkpt>
      <trkpt lat="46.5709" lon="0.28836">
        <ele>103.40000152588</ele>
        <time>2019-05-12T08:21:17.000Z</time>
      </trkpt>
      <trkpt lat="46.57092" lon="0.28845">
        <ele>102</ele>
        <time>2019-05-12T08:21:18.000Z</time>
      </trkpt>
      <trkpt lat="46.57091" lon="0.28853">
        <ele>100.80000305176</ele>
        <time>2019-05-12T08:21:19.000Z</time>
      </trkpt>
      <trkpt lat="46.57089" lon="0.28858">
        <ele>99.800003051758</ele>
        <time>2019-05-12T08:21:20.000Z</time>
      </trkpt>
      <trkpt lat="46.57087" lon="0.2887">
        <ele>98.199996948242</ele>
        <time>2019-05-12T08:21:22.000Z</time>
      </trkpt>
      <trkpt lat="46.57086" lon="0.28884">
        <ele>97.599998474121</ele>
        <time>2019-05-12T08:21:24.000Z</time>
      </trkpt>
      <trkpt lat="46.57088" lon="0.28902">
        <ele>97.199996948242</ele>
        <time>2019-05-12T08:21:27.000Z</time>
      </trkpt>
      <trkpt lat="46.57089" lon="0.28908">
        <ele>97.400001525879</ele>
        <time>2019-05-12T08:21:28.000Z</time>
      </trkpt>
      <trkpt lat="46.57088" lon="0.28923">
        <ele>97.599998474121</ele>
        <time>2019-05-12T08:21:32.000Z</time>
      </trkpt>
      <trkpt lat="46.57087" lon="0.28927">
        <ele>97.800003051758</ele>
        <time>2019-05-12T08:21:33.000Z</time>
      </trkpt>
      <trkpt lat="46.57087" lon="0.28931">
        <ele>98</ele>
        <time>2019-05-12T08:21:34.000Z</time>
      </trkpt>
      <trkpt lat="46.57087" lon="0.28938">
        <ele>98.199996948242</ele>
        <time>2019-05-12T08:21:36.000Z</time>
      </trkpt>
      <trkpt lat="46.57087" lon="0.2894">
        <ele>98.400001525879</ele>
        <time>2019-05-12T08:21:37.000Z</time>
      </trkpt>
      <trkpt lat="46.57088" lon="0.2895">
        <ele>99</ele>
        <time>2019-05-12T08:21:40.000Z</time>
      </trkpt>
      <trkpt lat="46.57087" lon="0.28954">
        <ele>99.199996948242</ele>
        <time>2019-05-12T08:21:41.000Z</time>
      </trkpt>
      <trkpt lat="46.57086" lon="0.28966">
        <ele>100.40000152588</ele>
        <time>2019-05-12T08:21:44.000Z</time>
      </trkpt>
      <trkpt lat="46.57086" lon="0.28971">
        <ele>100.80000305176</ele>
        <time>2019-05-12T08:21:45.000Z</time>
      </trkpt>
      <trkpt lat="46.57086" lon="0.28983">
        <ele>101.59999847412</ele>
        <time>2019-05-12T08:21:49.000Z</time>
      </trkpt>
      <trkpt lat="46.57087" lon="0.28986">
        <ele>101.80000305176</ele>
        <time>2019-05-12T08:21:50.000Z</time>
      </trkpt>
      <trkpt lat="46.57089" lon="0.28996">
        <ele>102.80000305176</ele>
        <time>2019-05-12T08:21:54.000Z</time>
      </trkpt>
      <trkpt lat="46.5709" lon="0.28999">
        <ele>103.19999694824</ele>
        <time>2019-05-12T08:21:55.000Z</time>
      </trkpt>
      <trkpt lat="46.5709" lon="0.29015">
        <ele>103.80000305176</ele>
        <time>2019-05-12T08:21:59.000Z</time>
      </trkpt>
      <trkpt lat="46.5709" lon="0.29023">
        <ele>104</ele>
        <time>2019-05-12T08:22:01.000Z</time>
      </trkpt>
      <trkpt lat="46.57093" lon="0.29052">
        <ele>104</ele>
        <time>2019-05-12T08:22:07.000Z</time>
      </trkpt>
      <trkpt lat="46.57095" lon="0.29082">
        <ele>104.19999694824</ele>
        <time>2019-05-12T08:22:13.000Z</time>
      </trkpt>
      <trkpt lat="46.57095" lon="0.29087">
        <ele>104.19999694824</ele>
        <time>2019-05-12T08:22:14.000Z</time>
      </trkpt>
      <trkpt lat="46.57092" lon="0.29098">
        <ele>104.40000152588</ele>
        <time>2019-05-12T08:22:17.000Z</time>
      </trkpt>
      <trkpt lat="46.57093" lon="0.29119">
        <ele>104.80000305176</ele>
        <time>2019-05-12T08:22:21.000Z</time>
      </trkpt>
      <trkpt lat="46.57102" lon="0.29148">
        <ele>104.80000305176</ele>
        <time>2019-05-12T08:22:26.000Z</time>
      </trkpt>
      <trkpt lat="46.5711" lon="0.29176">
        <ele>104.59999847412</ele>
        <time>2019-05-12T08:22:31.000Z</time>
      </trkpt>
      <trkpt lat="46.57119" lon="0.292">
        <ele>104.40000152588</ele>
        <time>2019-05-12T08:22:35.000Z</time>
      </trkpt>
      <trkpt lat="46.57127" lon="0.29232">
        <ele>103.59999847412</ele>
        <time>2019-05-12T08:22:40.000Z</time>
      </trkpt>
      <trkpt lat="46.57129" lon="0.29238">
        <ele>104</ele>
        <time>2019-05-12T08:22:41.000Z</time>
      </trkpt>
      <trkpt lat="46.57133" lon="0.29252">
        <ele>103.59999847412</ele>
        <time>2019-05-12T08:22:43.000Z</time>
      </trkpt>
      <trkpt lat="46.57137" lon="0.2926">
        <ele>103.40000152588</ele>
        <time>2019-05-12T08:22:44.000Z</time>
      </trkpt>
      <trkpt lat="46.5714" lon="0.29268">
        <ele>103.19999694824</ele>
        <time>2019-05-12T08:22:45.000Z</time>
      </trkpt>
      <trkpt lat="46.57144" lon="0.29275">
        <ele>102.80000305176</ele>
        <time>2019-05-12T08:22:46.000Z</time>
      </trkpt>
      <trkpt lat="46.5715" lon="0.29291">
        <ele>102.19999694824</ele>
        <time>2019-05-12T08:22:48.000Z</time>
      </trkpt>
      <trkpt lat="46.57167" lon="0.29333">
        <ele>101.19999694824</ele>
        <time>2019-05-12T08:22:53.000Z</time>
      </trkpt>
      <trkpt lat="46.5717" lon="0.29342">
        <ele>100.80000305176</ele>
        <time>2019-05-12T08:22:54.000Z</time>
      </trkpt>
      <trkpt lat="46.57185" lon="0.29377">
        <ele>100.19999694824</ele>
        <time>2019-05-12T08:22:58.000Z</time>
      </trkpt>
      <trkpt lat="46.57192" lon="0.29394">
        <ele>99.599998474121</ele>
        <time>2019-05-12T08:23:00.000Z</time>
      </trkpt>
      <trkpt lat="46.57201" lon="0.29412">
        <ele>99.199996948242</ele>
        <time>2019-05-12T08:23:02.000Z</time>
      </trkpt>
      <trkpt lat="46.57213" lon="0.29438">
        <ele>97.800003051758</ele>
        <time>2019-05-12T08:23:05.000Z</time>
      </trkpt>
      <trkpt lat="46.57222" lon="0.29463">
        <ele>97</ele>
        <time>2019-05-12T08:23:08.000Z</time>
      </trkpt>
      <trkpt lat="46.57226" lon="0.29472">
        <ele>96.800003051758</ele>
        <time>2019-05-12T08:23:09.000Z</time>
      </trkpt>
      <trkpt lat="46.57231" lon="0.2948">
        <ele>96</ele>
        <time>2019-05-12T08:23:10.000Z</time>
      </trkpt>
      <trkpt lat="46.57241" lon="0.29497">
        <ele>94.800003051758</ele>
        <time>2019-05-12T08:23:12.000Z</time>
      </trkpt>
      <trkpt lat="46.57245" lon="0.29506">
        <ele>94.599998474121</ele>
        <time>2019-05-12T08:23:13.000Z</time>
      </trkpt>
      <trkpt lat="46.57253" lon="0.29525">
        <ele>93.599998474121</ele>
        <time>2019-05-12T08:23:15.000Z</time>
      </trkpt>
      <trkpt lat="46.57263" lon="0.2955">
        <ele>92.199996948242</ele>
        <time>2019-05-12T08:23:18.000Z</time>
      </trkpt>
      <trkpt lat="46.57267" lon="0.29557">
        <ele>91.800003051758</ele>
        <time>2019-05-12T08:23:19.000Z</time>
      </trkpt>
      <trkpt lat="46.57272" lon="0.29565">
        <ele>91</ele>
        <time>2019-05-12T08:23:20.000Z</time>
      </trkpt>
      <trkpt lat="46.57276" lon="0.29572">
        <ele>90.400001525879</ele>
        <time>2019-05-12T08:23:21.000Z</time>
      </trkpt>
      <trkpt lat="46.5728" lon="0.29577">
        <ele>90</ele>
        <time>2019-05-12T08:23:22.000Z</time>
      </trkpt>
      <trkpt lat="46.57287" lon="0.29585">
        <ele>88.400001525879</ele>
        <time>2019-05-12T08:23:24.000Z</time>
      </trkpt>
      <trkpt lat="46.573" lon="0.29595">
        <ele>87.599998474121</ele>
        <time>2019-05-12T08:23:27.000Z</time>
      </trkpt>
      <trkpt lat="46.57304" lon="0.29602">
        <ele>87.599998474121</ele>
        <time>2019-05-12T08:23:28.000Z</time>
      </trkpt>
      <trkpt lat="46.57308" lon="0.29609">
        <ele>87.199996948242</ele>
        <time>2019-05-12T08:23:29.000Z</time>
      </trkpt>
      <trkpt lat="46.5732" lon="0.29631">
        <ele>86.599998474121</ele>
        <time>2019-05-12T08:23:32.000Z</time>
      </trkpt>
      <trkpt lat="46.57325" lon="0.29639">
        <ele>86.400001525879</ele>
        <time>2019-05-12T08:23:33.000Z</time>
      </trkpt>
      <trkpt lat="46.57329" lon="0.29648">
        <ele>86</ele>
        <time>2019-05-12T08:23:34.000Z</time>
      </trkpt>
      <trkpt lat="46.57339" lon="0.29673">
        <ele>84.800003051758</ele>
        <time>2019-05-12T08:23:37.000Z</time>
      </trkpt>
      <trkpt lat="46.57355" lon="0.29708">
        <ele>84.199996948242</ele>
        <time>2019-05-12T08:23:41.000Z</time>
      </trkpt>
      <trkpt lat="46.57358" lon="0.29718">
        <ele>84</ele>
        <time>2019-05-12T08:23:42.000Z</time>
      </trkpt>
      <trkpt lat="46.57362" lon="0.29727">
        <ele>83.199996948242</ele>
        <time>2019-05-12T08:23:43.000Z</time>
      </trkpt>
      <trkpt lat="46.5737" lon="0.29745">
        <ele>82</ele>
        <time>2019-05-12T08:23:45.000Z</time>
      </trkpt>
      <trkpt lat="46.57375" lon="0.29753">
        <ele>81.599998474121</ele>
        <time>2019-05-12T08:23:46.000Z</time>
      </trkpt>
      <trkpt lat="46.57379" lon="0.2976">
        <ele>81</ele>
        <time>2019-05-12T08:23:47.000Z</time>
      </trkpt>
      <trkpt lat="46.57401" lon="0.29791">
        <ele>79.800003051758</ele>
        <time>2019-05-12T08:23:51.000Z</time>
      </trkpt>
      <trkpt lat="46.57406" lon="0.29798">
        <ele>78.599998474121</ele>
        <time>2019-05-12T08:23:52.000Z</time>
      </trkpt>
      <trkpt lat="46.57414" lon="0.29808">
        <ele>77.199996948242</ele>
        <time>2019-05-12T08:23:54.000Z</time>
      </trkpt>
      <trkpt lat="46.57417" lon="0.2981">
        <ele>76.199996948242</ele>
        <time>2019-05-12T08:23:55.000Z</time>
      </trkpt>
      <trkpt lat="46.57424" lon="0.29817">
        <ele>75.400001525879</ele>
        <time>2019-05-12T08:23:59.000Z</time>
      </trkpt>
      <trkpt lat="46.57425" lon="0.29818">
        <ele>75.199996948242</ele>
        <time>2019-05-12T08:24:01.000Z</time>
      </trkpt>
      <trkpt lat="46.57427" lon="0.29824">
        <ele>74.599998474121</ele>
        <time>2019-05-12T08:24:06.000Z</time>
      </trkpt>
      <trkpt lat="46.5742" lon="0.2983">
        <ele>74</ele>
        <time>2019-05-12T08:24:10.000Z</time>
      </trkpt>
      <trkpt lat="46.57415" lon="0.29834">
        <ele>73</ele>
        <time>2019-05-12T08:24:12.000Z</time>
      </trkpt>
      <trkpt lat="46.57414" lon="0.29836">
        <ele>71.800003051758</ele>
        <time>2019-05-12T08:24:13.000Z</time>
      </trkpt>
      <trkpt lat="46.57414" lon="0.29839">
        <ele>70.800003051758</ele>
        <time>2019-05-12T08:24:14.000Z</time>
      </trkpt>
      <trkpt lat="46.57414" lon="0.29842">
        <ele>70</ele>
        <time>2019-05-12T08:24:15.000Z</time>
      </trkpt>
      <trkpt lat="46.57417" lon="0.29853">
        <ele>69.199996948242</ele>
        <time>2019-05-12T08:24:19.000Z</time>
      </trkpt>
      <trkpt lat="46.57423" lon="0.29857">
        <ele>69.400001525879</ele>
        <time>2019-05-12T08:24:22.000Z</time>
      </trkpt>
      <trkpt lat="46.57431" lon="0.29859">
        <ele>69.400001525879</ele>
        <time>2019-05-12T08:24:25.000Z</time>
      </trkpt>
      <trkpt lat="46.57433" lon="0.29859">
        <ele>69.199996948242</ele>
        <time>2019-05-12T08:24:26.000Z</time>
      </trkpt>
      <trkpt lat="46.57436" lon="0.29859">
        <ele>69</ele>
        <time>2019-05-12T08:24:28.000Z</time>
      </trkpt>
      <trkpt lat="46.57437" lon="0.29862">
        <ele>69</ele>
        <time>2019-05-12T08:24:30.000Z</time>
      </trkpt>
      <trkpt lat="46.57437" lon="0.29862">
        <ele>69.199996948242</ele>
        <time>2019-05-12T08:24:31.000Z</time>
      </trkpt>
      <trkpt lat="46.57444" lon="0.29878">
        <ele>68.800003051758</ele>
        <time>2019-05-12T08:24:45.000Z</time>
      </trkpt>
      <trkpt lat="46.57447" lon="0.29883">
        <ele>68.800003051758</ele>
        <time>2019-05-12T08:24:47.000Z</time>
      </trkpt>
      <trkpt lat="46.57454" lon="0.29897">
        <ele>69</ele>
        <time>2019-05-12T08:24:51.000Z</time>
      </trkpt>
      <trkpt lat="46.57459" lon="0.2991">
        <ele>69.400001525879</ele>
        <time>2019-05-12T08:24:55.000Z</time>
      </trkpt>
      <trkpt lat="46.5746" lon="0.29914">
        <ele>69.400001525879</ele>
        <time>2019-05-12T08:24:56.000Z</time>
      </trkpt>
      <trkpt lat="46.57464" lon="0.29927">
        <ele>69.599998474121</ele>
        <time>2019-05-12T08:24:59.000Z</time>
      </trkpt>
      <trkpt lat="46.57474" lon="0.29939">
        <ele>69.800003051758</ele>
        <time>2019-05-12T08:25:02.000Z</time>
      </trkpt>
      <trkpt lat="46.57478" lon="0.29949">
        <ele>70</ele>
        <time>2019-05-12T08:25:04.000Z</time>
      </trkpt>
      <trkpt lat="46.57484" lon="0.29969">
        <ele>69.400001525879</ele>
        <time>2019-05-12T08:25:07.000Z</time>
      </trkpt>
      <trkpt lat="46.57489" lon="0.29989">
        <ele>69.400001525879</ele>
        <time>2019-05-12T08:25:10.000Z</time>
      </trkpt>
      <trkpt lat="46.57492" lon="0.3">
        <ele>69.400001525879</ele>
        <time>2019-05-12T08:25:12.000Z</time>
      </trkpt>
      <trkpt lat="46.57495" lon="0.30011">
        <ele>69.400001525879</ele>
        <time>2019-05-12T08:25:14.000Z</time>
      </trkpt>
      <trkpt lat="46.57501" lon="0.30024">
        <ele>69.400001525879</ele>
        <time>2019-05-12T08:25:17.000Z</time>
      </trkpt>
      <trkpt lat="46.57505" lon="0.30041">
        <ele>69.400001525879</ele>
        <time>2019-05-12T08:25:21.000Z</time>
      </trkpt>
      <trkpt lat="46.57504" lon="0.30064">
        <ele>69.199996948242</ele>
        <time>2019-05-12T08:25:25.000Z</time>
      </trkpt>
      <trkpt lat="46.57503" lon="0.3007">
        <ele>69.199996948242</ele>
        <time>2019-05-12T08:25:26.000Z</time>
      </trkpt>
      <trkpt lat="46.57502" lon="0.30092">
        <ele>69.199996948242</ele>
        <time>2019-05-12T08:25:30.000Z</time>
      </trkpt>
      <trkpt lat="46.5749" lon="0.30113">
        <ele>68.800003051758</ele>
        <time>2019-05-12T08:25:34.000Z</time>
      </trkpt>
      <trkpt lat="46.57481" lon="0.30131">
        <ele>68.800003051758</ele>
        <time>2019-05-12T08:25:38.000Z</time>
      </trkpt>
      <trkpt lat="46.57468" lon="0.30153">
        <ele>69</ele>
        <time>2019-05-12T08:25:43.000Z</time>
      </trkpt>
      <trkpt lat="46.57457" lon="0.30161">
        <ele>69</ele>
        <time>2019-05-12T08:25:46.000Z</time>
      </trkpt>
      <trkpt lat="46.57444" lon="0.30168">
        <ele>68.800003051758</ele>
        <time>2019-05-12T08:25:49.000Z</time>
      </trkpt>
      <trkpt lat="46.5744" lon="0.3017">
        <ele>68.599998474121</ele>
        <time>2019-05-12T08:25:50.000Z</time>
      </trkpt>
      <trkpt lat="46.5743" lon="0.30173">
        <ele>68.400001525879</ele>
        <time>2019-05-12T08:25:52.000Z</time>
      </trkpt>
      <trkpt lat="46.57425" lon="0.30173">
        <ele>68.199996948242</ele>
        <time>2019-05-12T08:25:53.000Z</time>
      </trkpt>
      <trkpt lat="46.57409" lon="0.30177">
        <ele>68.599998474121</ele>
        <time>2019-05-12T08:25:57.000Z</time>
      </trkpt>
      <trkpt lat="46.57407" lon="0.3018">
        <ele>68.599998474121</ele>
        <time>2019-05-12T08:25:58.000Z</time>
      </trkpt>
      <trkpt lat="46.57406" lon="0.3019">
        <ele>68.599998474121</ele>
        <time>2019-05-12T08:26:00.000Z</time>
      </trkpt>
      <trkpt lat="46.57404" lon="0.30211">
        <ele>69</ele>
        <time>2019-05-12T08:26:04.000Z</time>
      </trkpt>
      <trkpt lat="46.57401" lon="0.30216">
        <ele>69.199996948242</ele>
        <time>2019-05-12T08:26:05.000Z</time>
      </trkpt>
      <trkpt lat="46.57385" lon="0.30227">
        <ele>69.400001525879</ele>
        <time>2019-05-12T08:26:09.000Z</time>
      </trkpt>
      <trkpt lat="46.57381" lon="0.30228">
        <ele>69.400001525879</ele>
        <time>2019-05-12T08:26:10.000Z</time>
      </trkpt>
      <trkpt lat="46.57376" lon="0.30229">
        <ele>69.199996948242</ele>
        <time>2019-05-12T08:26:11.000Z</time>
      </trkpt>
      <trkpt lat="46.57358" lon="0.3023">
        <ele>68.800003051758</ele>
        <time>2019-05-12T08:26:15.000Z</time>
      </trkpt>
      <trkpt lat="46.57344" lon="0.3023">
        <ele>68.800003051758</ele>
        <time>2019-05-12T08:26:18.000Z</time>
      </trkpt>
      <trkpt lat="46.57339" lon="0.30229">
        <ele>68.800003051758</ele>
        <time>2019-05-12T08:26:19.000Z</time>
      </trkpt>
      <trkpt lat="46.57313" lon="0.30229">
        <ele>68.599998474121</ele>
        <time>2019-05-12T08:26:24.000Z</time>
      </trkpt>
      <trkpt lat="46.57303" lon="0.30226">
        <ele>68.800003051758</ele>
        <time>2019-05-12T08:26:26.000Z</time>
      </trkpt>
      <trkpt lat="46.57287" lon="0.30221">
        <ele>68.599998474121</ele>
        <time>2019-05-12T08:26:29.000Z</time>
      </trkpt>
      <trkpt lat="46.57277" lon="0.30216">
        <ele>68.400001525879</ele>
        <time>2019-05-12T08:26:31.000Z</time>
      </trkpt>
      <trkpt lat="46.5725" lon="0.30202">
        <ele>68.400001525879</ele>
        <time>2019-05-12T08:26:36.000Z</time>
      </trkpt>
      <trkpt lat="46.57229" lon="0.30192">
        <ele>68.400001525879</ele>
        <time>2019-05-12T08:26:40.000Z</time>
      </trkpt>
      <trkpt lat="46.57224" lon="0.3019">
        <ele>68.800003051758</ele>
        <time>2019-05-12T08:26:41.000Z</time>
      </trkpt>
      <trkpt lat="46.57185" lon="0.30177">
        <ele>68.599998474121</ele>
        <time>2019-05-12T08:26:48.000Z</time>
      </trkpt>
      <trkpt lat="46.5718" lon="0.30176">
        <ele>68.599998474121</ele>
        <time>2019-05-12T08:26:49.000Z</time>
      </trkpt>
      <trkpt lat="46.57159" lon="0.30174">
        <ele>68.599998474121</ele>
        <time>2019-05-12T08:26:53.000Z</time>
      </trkpt>
      <trkpt lat="46.57137" lon="0.30173">
        <ele>68.800003051758</ele>
        <time>2019-05-12T08:26:57.000Z</time>
      </trkpt>
      <trkpt lat="46.57121" lon="0.30175">
        <ele>68.800003051758</ele>
        <time>2019-05-12T08:27:00.000Z</time>
      </trkpt>
      <trkpt lat="46.57116" lon="0.30176">
        <ele>69</ele>
        <time>2019-05-12T08:27:01.000Z</time>
      </trkpt>
      <trkpt lat="46.57083" lon="0.3018">
        <ele>69.199996948242</ele>
        <time>2019-05-12T08:27:07.000Z</time>
      </trkpt>
      <trkpt lat="46.57053" lon="0.30195">
        <ele>69.800003051758</ele>
        <time>2019-05-12T08:27:13.000Z</time>
      </trkpt>
      <trkpt lat="46.57016" lon="0.30218">
        <ele>69.400001525879</ele>
        <time>2019-05-12T08:27:20.000Z</time>
      </trkpt>
      <trkpt lat="46.56996" lon="0.30235">
        <ele>69.199996948242</ele>
        <time>2019-05-12T08:27:24.000Z</time>
      </trkpt>
      <trkpt lat="46.56985" lon="0.30245">
        <ele>69.400001525879</ele>
        <time>2019-05-12T08:27:26.000Z</time>
      </trkpt>
      <trkpt lat="46.56962" lon="0.30275">
        <ele>69.800003051758</ele>
        <time>2019-05-12T08:27:31.000Z</time>
      </trkpt>
      <trkpt lat="46.56958" lon="0.30282">
        <ele>69.800003051758</ele>
        <time>2019-05-12T08:27:32.000Z</time>
      </trkpt>
      <trkpt lat="46.56938" lon="0.30306">
        <ele>68.800003051758</ele>
        <time>2019-05-12T08:27:36.000Z</time>
      </trkpt>
      <trkpt lat="46.56932" lon="0.30308">
        <ele>68.599998474121</ele>
        <time>2019-05-12T08:27:37.000Z</time>
      </trkpt>
      <trkpt lat="46.56912" lon="0.30303">
        <ele>68.800003051758</ele>
        <time>2019-05-12T08:27:41.000Z</time>
      </trkpt>
      <trkpt lat="46.569" lon="0.30299">
        <ele>68.599998474121</ele>
        <time>2019-05-12T08:27:44.000Z</time>
      </trkpt>
      <trkpt lat="46.56879" lon="0.30286">
        <ele>68.199996948242</ele>
        <time>2019-05-12T08:27:48.000Z</time>
      </trkpt>
      <trkpt lat="46.56874" lon="0.30281">
        <ele>68</ele>
        <time>2019-05-12T08:27:49.000Z</time>
      </trkpt>
      <trkpt lat="46.56847" lon="0.30252">
        <ele>67.400001525879</ele>
        <time>2019-05-12T08:27:54.000Z</time>
      </trkpt>
      <trkpt lat="46.56835" lon="0.30242">
        <ele>67.400001525879</ele>
        <time>2019-05-12T08:27:56.000Z</time>
      </trkpt>
      <trkpt lat="46.56824" lon="0.30236">
        <ele>67.599998474121</ele>
        <time>2019-05-12T08:27:58.000Z</time>
      </trkpt>
      <trkpt lat="46.56814" lon="0.30251">
        <ele>67.800003051758</ele>
        <time>2019-05-12T08:28:01.000Z</time>
      </trkpt>
      <trkpt lat="46.56814" lon="0.3026">
        <ele>67.800003051758</ele>
        <time>2019-05-12T08:28:02.000Z</time>
      </trkpt>
      <trkpt lat="46.56809" lon="0.30306">
        <ele>67.599998474121</ele>
        <time>2019-05-12T08:28:07.000Z</time>
      </trkpt>
      <trkpt lat="46.56804" lon="0.30357">
        <ele>67.199996948242</ele>
        <time>2019-05-12T08:28:13.000Z</time>
      </trkpt>
      <trkpt lat="46.568" lon="0.30389">
        <ele>67</ele>
        <time>2019-05-12T08:28:17.000Z</time>
      </trkpt>
      <trkpt lat="46.56795" lon="0.30438">
        <ele>67.199996948242</ele>
        <time>2019-05-12T08:28:23.000Z</time>
      </trkpt>
      <trkpt lat="46.5679" lon="0.30483">
        <ele>66.599998474121</ele>
        <time>2019-05-12T08:28:29.000Z</time>
      </trkpt>
      <trkpt lat="46.56785" lon="0.3053">
        <ele>67.199996948242</ele>
        <time>2019-05-12T08:28:35.000Z</time>
      </trkpt>
      <trkpt lat="46.56785" lon="0.30537">
        <ele>67.199996948242</ele>
        <time>2019-05-12T08:28:36.000Z</time>
      </trkpt>
      <trkpt lat="46.56788" lon="0.30567">
        <ele>68</ele>
        <time>2019-05-12T08:28:40.000Z</time>
      </trkpt>
      <trkpt lat="46.56795" lon="0.30606">
        <ele>67.199996948242</ele>
        <time>2019-05-12T08:28:45.000Z</time>
      </trkpt>
      <trkpt lat="46.56799" lon="0.30627">
        <ele>67</ele>
        <time>2019-05-12T08:28:48.000Z</time>
      </trkpt>
      <trkpt lat="46.56804" lon="0.30639">
        <ele>67.199996948242</ele>
        <time>2019-05-12T08:28:50.000Z</time>
      </trkpt>
      <trkpt lat="46.56807" lon="0.30645">
        <ele>67.199996948242</ele>
        <time>2019-05-12T08:28:51.000Z</time>
      </trkpt>
      <trkpt lat="46.5682" lon="0.30657">
        <ele>66.800003051758</ele>
        <time>2019-05-12T08:28:54.000Z</time>
      </trkpt>
      <trkpt lat="46.56824" lon="0.3066">
        <ele>66.800003051758</ele>
        <time>2019-05-12T08:28:55.000Z</time>
      </trkpt>
      <trkpt lat="46.56843" lon="0.30677">
        <ele>67</ele>
        <time>2019-05-12T08:28:59.000Z</time>
      </trkpt>
      <trkpt lat="46.56861" lon="0.30705">
        <ele>67.400001525879</ele>
        <time>2019-05-12T08:29:04.000Z</time>
      </trkpt>
      <trkpt lat="46.56887" lon="0.3074">
        <ele>67.199996948242</ele>
        <time>2019-05-12T08:29:10.000Z</time>
      </trkpt>
      <trkpt lat="46.569" lon="0.30756">
        <ele>67.599998474121</ele>
        <time>2019-05-12T08:29:13.000Z</time>
      </trkpt>
      <trkpt lat="46.56909" lon="0.30766">
        <ele>67.800003051758</ele>
        <time>2019-05-12T08:29:15.000Z</time>
      </trkpt>
      <trkpt lat="46.56919" lon="0.30781">
        <ele>68.199996948242</ele>
        <time>2019-05-12T08:29:18.000Z</time>
      </trkpt>
      <trkpt lat="46.56932" lon="0.30801">
        <ele>68.400001525879</ele>
        <time>2019-05-12T08:29:22.000Z</time>
      </trkpt>
      <trkpt lat="46.56935" lon="0.30806">
        <ele>68.400001525879</ele>
        <time>2019-05-12T08:29:23.000Z</time>
      </trkpt>
      <trkpt lat="46.5695" lon="0.30822">
        <ele>68.199996948242</ele>
        <time>2019-05-12T08:29:27.000Z</time>
      </trkpt>
      <trkpt lat="46.56954" lon="0.30827">
        <ele>68</ele>
        <time>2019-05-12T08:29:28.000Z</time>
      </trkpt>
      <trkpt lat="46.56969" lon="0.30852">
        <ele>67.800003051758</ele>
        <time>2019-05-12T08:29:32.000Z</time>
      </trkpt>
      <trkpt lat="46.56994" lon="0.30897">
        <ele>68</ele>
        <time>2019-05-12T08:29:39.000Z</time>
      </trkpt>
      <trkpt lat="46.57013" lon="0.30928">
        <ele>68.599998474121</ele>
        <time>2019-05-12T08:29:44.000Z</time>
      </trkpt>
      <trkpt lat="46.57017" lon="0.30934">
        <ele>68.400001525879</ele>
        <time>2019-05-12T08:29:45.000Z</time>
      </trkpt>
      <trkpt lat="46.57033" lon="0.30957">
        <ele>68.400001525879</ele>
        <time>2019-05-12T08:29:49.000Z</time>
      </trkpt>
      <trkpt lat="46.57042" lon="0.30969">
        <ele>68.199996948242</ele>
        <time>2019-05-12T08:29:51.000Z</time>
      </trkpt>
      <trkpt lat="46.57046" lon="0.30975">
        <ele>68.199996948242</ele>
        <time>2019-05-12T08:29:52.000Z</time>
      </trkpt>
      <trkpt lat="46.57057" lon="0.30992">
        <ele>68.400001525879</ele>
        <time>2019-05-12T08:29:55.000Z</time>
      </trkpt>
      <trkpt lat="46.57071" lon="0.31013">
        <ele>68.400001525879</ele>
        <time>2019-05-12T08:29:59.000Z</time>
      </trkpt>
      <trkpt lat="46.57075" lon="0.31018">
        <ele>68.400001525879</ele>
        <time>2019-05-12T08:30:00.000Z</time>
      </trkpt>
      <trkpt lat="46.57086" lon="0.31034">
        <ele>68.599998474121</ele>
        <time>2019-05-12T08:30:03.000Z</time>
      </trkpt>
      <trkpt lat="46.57093" lon="0.31045">
        <ele>68.800003051758</ele>
        <time>2019-05-12T08:30:05.000Z</time>
      </trkpt>
      <trkpt lat="46.57097" lon="0.3105">
        <ele>68.800003051758</ele>
        <time>2019-05-12T08:30:06.000Z</time>
      </trkpt>
      <trkpt lat="46.57114" lon="0.31069">
        <ele>68.599998474121</ele>
        <time>2019-05-12T08:30:10.000Z</time>
      </trkpt>
      <trkpt lat="46.57118" lon="0.31073">
        <ele>68.599998474121</ele>
        <time>2019-05-12T08:30:11.000Z</time>
      </trkpt>
      <trkpt lat="46.57137" lon="0.31082">
        <ele>68.400001525879</ele>
        <time>2019-05-12T08:30:14.000Z</time>
      </trkpt>
      <trkpt lat="46.57144" lon="0.31083">
        <ele>68.199996948242</ele>
        <time>2019-05-12T08:30:15.000Z</time>
      </trkpt>
      <trkpt lat="46.57164" lon="0.31083">
        <ele>67.800003051758</ele>
        <time>2019-05-12T08:30:18.000Z</time>
      </trkpt>
      <trkpt lat="46.57178" lon="0.31073">
        <ele>67.599998474121</ele>
        <time>2019-05-12T08:30:21.000Z</time>
      </trkpt>
      <trkpt lat="46.57183" lon="0.31071">
        <ele>67.199996948242</ele>
        <time>2019-05-12T08:30:22.000Z</time>
      </trkpt>
      <trkpt lat="46.57196" lon="0.31062">
        <ele>67.599998474121</ele>
        <time>2019-05-12T08:30:26.000Z</time>
      </trkpt>
      <trkpt lat="46.57206" lon="0.31072">
        <ele>68.199996948242</ele>
        <time>2019-05-12T08:30:29.000Z</time>
      </trkpt>
      <trkpt lat="46.57209" lon="0.31075">
        <ele>68.400001525879</ele>
        <time>2019-05-12T08:30:30.000Z</time>
      </trkpt>
      <trkpt lat="46.57238" lon="0.31112">
        <ele>68.599998474121</ele>
        <time>2019-05-12T08:30:38.000Z</time>
      </trkpt>
      <trkpt lat="46.57263" lon="0.31144">
        <ele>68.400001525879</ele>
        <time>2019-05-12T08:30:44.000Z</time>
      </trkpt>
      <trkpt lat="46.57291" lon="0.3119">
        <ele>68.199996948242</ele>
        <time>2019-05-12T08:30:52.000Z</time>
      </trkpt>
      <trkpt lat="46.57318" lon="0.31237">
        <ele>68</ele>
        <time>2019-05-12T08:31:00.000Z</time>
      </trkpt>
      <trkpt lat="46.57338" lon="0.31283">
        <ele>68.199996948242</ele>
        <time>2019-05-12T08:31:07.000Z</time>
      </trkpt>
      <trkpt lat="46.57357" lon="0.3134">
        <ele>68.400001525879</ele>
        <time>2019-05-12T08:31:15.000Z</time>
      </trkpt>
      <trkpt lat="46.57368" lon="0.31395">
        <ele>68</ele>
        <time>2019-05-12T08:31:22.000Z</time>
      </trkpt>
      <trkpt lat="46.5737" lon="0.31402">
        <ele>68</ele>
        <time>2019-05-12T08:31:23.000Z</time>
      </trkpt>
      <trkpt lat="46.57375" lon="0.3142">
        <ele>67.800003051758</ele>
        <time>2019-05-12T08:31:26.000Z</time>
      </trkpt>
      <trkpt lat="46.57378" lon="0.31434">
        <ele>67.800003051758</ele>
        <time>2019-05-12T08:31:28.000Z</time>
      </trkpt>
      <trkpt lat="46.57379" lon="0.31443">
        <ele>67.800003051758</ele>
        <time>2019-05-12T08:31:30.000Z</time>
      </trkpt>
      <trkpt lat="46.57369" lon="0.31444">
        <ele>67.800003051758</ele>
        <time>2019-05-12T08:31:33.000Z</time>
      </trkpt>
      <trkpt lat="46.57355" lon="0.31452">
        <ele>68</ele>
        <time>2019-05-12T08:31:36.000Z</time>
      </trkpt>
      <trkpt lat="46.5735" lon="0.31456">
        <ele>68</ele>
        <time>2019-05-12T08:31:37.000Z</time>
      </trkpt>
      <trkpt lat="46.57346" lon="0.3146">
        <ele>68</ele>
        <time>2019-05-12T08:31:38.000Z</time>
      </trkpt>
      <trkpt lat="46.57341" lon="0.31471">
        <ele>67.800003051758</ele>
        <time>2019-05-12T08:31:40.000Z</time>
      </trkpt>
      <trkpt lat="46.57342" lon="0.31493">
        <ele>67.599998474121</ele>
        <time>2019-05-12T08:31:44.000Z</time>
      </trkpt>
      <trkpt lat="46.57344" lon="0.3151">
        <ele>67.199996948242</ele>
        <time>2019-05-12T08:31:49.000Z</time>
      </trkpt>
      <trkpt lat="46.57346" lon="0.31533">
        <ele>67.400001525879</ele>
        <time>2019-05-12T08:31:54.000Z</time>
      </trkpt>
      <trkpt lat="46.57345" lon="0.31555">
        <ele>67.599998474121</ele>
        <time>2019-05-12T08:31:57.000Z</time>
      </trkpt>
      <trkpt lat="46.57346" lon="0.31571">
        <ele>67.599998474121</ele>
        <time>2019-05-12T08:31:59.000Z</time>
      </trkpt>
      <trkpt lat="46.57346" lon="0.31587">
        <ele>67.800003051758</ele>
        <time>2019-05-12T08:32:01.000Z</time>
      </trkpt>
      <trkpt lat="46.57346" lon="0.31604">
        <ele>67.599998474121</ele>
        <time>2019-05-12T08:32:03.000Z</time>
      </trkpt>
      <trkpt lat="46.57346" lon="0.31613">
        <ele>67.400001525879</ele>
        <time>2019-05-12T08:32:04.000Z</time>
      </trkpt>
      <trkpt lat="46.57352" lon="0.31636">
        <ele>67.199996948242</ele>
        <time>2019-05-12T08:32:07.000Z</time>
      </trkpt>
      <trkpt lat="46.57354" lon="0.31651">
        <ele>67</ele>
        <time>2019-05-12T08:32:09.000Z</time>
      </trkpt>
      <trkpt lat="46.5736" lon="0.31682">
        <ele>67</ele>
        <time>2019-05-12T08:32:13.000Z</time>
      </trkpt>
      <trkpt lat="46.57362" lon="0.3169">
        <ele>66.800003051758</ele>
        <time>2019-05-12T08:32:14.000Z</time>
      </trkpt>
      <trkpt lat="46.57364" lon="0.31697">
        <ele>66.800003051758</ele>
        <time>2019-05-12T08:32:15.000Z</time>
      </trkpt>
      <trkpt lat="46.57372" lon="0.31719">
        <ele>67</ele>
        <time>2019-05-12T08:32:18.000Z</time>
      </trkpt>
      <trkpt lat="46.57374" lon="0.31726">
        <ele>67.199996948242</ele>
        <time>2019-05-12T08:32:19.000Z</time>
      </trkpt>
      <trkpt lat="46.5738" lon="0.31764">
        <ele>67.400001525879</ele>
        <time>2019-05-12T08:32:24.000Z</time>
      </trkpt>
      <trkpt lat="46.57387" lon="0.31794">
        <ele>67</ele>
        <time>2019-05-12T08:32:28.000Z</time>
      </trkpt>
      <trkpt lat="46.57391" lon="0.31809">
        <ele>66.800003051758</ele>
        <time>2019-05-12T08:32:30.000Z</time>
      </trkpt>
      <trkpt lat="46.57389" lon="0.31832">
        <ele>66.599998474121</ele>
        <time>2019-05-12T08:32:33.000Z</time>
      </trkpt>
      <trkpt lat="46.57382" lon="0.31871">
        <ele>66.599998474121</ele>
        <time>2019-05-12T08:32:38.000Z</time>
      </trkpt>
      <trkpt lat="46.57369" lon="0.31889">
        <ele>66.599998474121</ele>
        <time>2019-05-12T08:32:41.000Z</time>
      </trkpt>
      <trkpt lat="46.57355" lon="0.31909">
        <ele>67</ele>
        <time>2019-05-12T08:32:44.000Z</time>
      </trkpt>
      <trkpt lat="46.57353" lon="0.31916">
        <ele>67.199996948242</ele>
        <time>2019-05-12T08:32:45.000Z</time>
      </trkpt>
      <trkpt lat="46.57352" lon="0.31949">
        <ele>67.800003051758</ele>
        <time>2019-05-12T08:32:49.000Z</time>
      </trkpt>
      <trkpt lat="46.57354" lon="0.3198">
        <ele>67.400001525879</ele>
        <time>2019-05-12T08:32:53.000Z</time>
      </trkpt>
      <trkpt lat="46.57356" lon="0.31997">
        <ele>67.199996948242</ele>
        <time>2019-05-12T08:32:55.000Z</time>
      </trkpt>
      <trkpt lat="46.57359" lon="0.3202">
        <ele>67.199996948242</ele>
        <time>2019-05-12T08:32:58.000Z</time>
      </trkpt>
      <trkpt lat="46.57362" lon="0.32044">
        <ele>67.400001525879</ele>
        <time>2019-05-12T08:33:01.000Z</time>
      </trkpt>
      <trkpt lat="46.5737" lon="0.32084">
        <ele>67.599998474121</ele>
        <time>2019-05-12T08:33:07.000Z</time>
      </trkpt>
      <trkpt lat="46.57371" lon="0.321">
        <ele>68</ele>
        <time>2019-05-12T08:33:10.000Z</time>
      </trkpt>
      <trkpt lat="46.57369" lon="0.32103">
        <ele>68</ele>
        <time>2019-05-12T08:33:11.000Z</time>
      </trkpt>
      <trkpt lat="46.57357" lon="0.32111">
        <ele>68.800003051758</ele>
        <time>2019-05-12T08:33:15.000Z</time>
      </trkpt>
      <trkpt lat="46.57355" lon="0.32112">
        <ele>68.800003051758</ele>
        <time>2019-05-12T08:33:16.000Z</time>
      </trkpt>
      <trkpt lat="46.57354" lon="0.32115">
        <ele>69</ele>
        <time>2019-05-12T08:33:17.000Z</time>
      </trkpt>
      <trkpt lat="46.57354" lon="0.32119">
        <ele>69.199996948242</ele>
        <time>2019-05-12T08:33:18.000Z</time>
      </trkpt>
      <trkpt lat="46.57357" lon="0.3214">
        <ele>69.199996948242</ele>
        <time>2019-05-12T08:33:22.000Z</time>
      </trkpt>
      <trkpt lat="46.57359" lon="0.3217">
        <ele>69.599998474121</ele>
        <time>2019-05-12T08:33:27.000Z</time>
      </trkpt>
      <trkpt lat="46.57359" lon="0.32184">
        <ele>69.599998474121</ele>
        <time>2019-05-12T08:33:29.000Z</time>
      </trkpt>
      <trkpt lat="46.57361" lon="0.32214">
        <ele>69.599998474121</ele>
        <time>2019-05-12T08:33:33.000Z</time>
      </trkpt>
      <trkpt lat="46.57366" lon="0.32236">
        <ele>69.800003051758</ele>
        <time>2019-05-12T08:33:36.000Z</time>
      </trkpt>
      <trkpt lat="46.57371" lon="0.32249">
        <ele>70</ele>
        <time>2019-05-12T08:33:38.000Z</time>
      </trkpt>
      <trkpt lat="46.5738" lon="0.32279">
        <ele>70.599998474121</ele>
        <time>2019-05-12T08:33:42.000Z</time>
      </trkpt>
      <trkpt lat="46.57383" lon="0.32286">
        <ele>70.599998474121</ele>
        <time>2019-05-12T08:33:43.000Z</time>
      </trkpt>
      <trkpt lat="46.57387" lon="0.323">
        <ele>71</ele>
        <time>2019-05-12T08:33:45.000Z</time>
      </trkpt>
      <trkpt lat="46.57391" lon="0.32314">
        <ele>71.199996948242</ele>
        <time>2019-05-12T08:33:47.000Z</time>
      </trkpt>
      <trkpt lat="46.57393" lon="0.32321">
        <ele>71.199996948242</ele>
        <time>2019-05-12T08:33:48.000Z</time>
      </trkpt>
      <trkpt lat="46.57398" lon="0.32355">
        <ele>72.199996948242</ele>
        <time>2019-05-12T08:33:53.000Z</time>
      </trkpt>
      <trkpt lat="46.57401" lon="0.32361">
        <ele>72.199996948242</ele>
        <time>2019-05-12T08:33:54.000Z</time>
      </trkpt>
      <trkpt lat="46.57403" lon="0.32368">
        <ele>72.599998474121</ele>
        <time>2019-05-12T08:33:55.000Z</time>
      </trkpt>
      <trkpt lat="46.57409" lon="0.32387">
        <ele>73.400001525879</ele>
        <time>2019-05-12T08:33:58.000Z</time>
      </trkpt>
      <trkpt lat="46.57411" lon="0.32393">
        <ele>73.800003051758</ele>
        <time>2019-05-12T08:33:59.000Z</time>
      </trkpt>
      <trkpt lat="46.57417" lon="0.3241">
        <ele>74.599998474121</ele>
        <time>2019-05-12T08:34:02.000Z</time>
      </trkpt>
      <trkpt lat="46.57419" lon="0.32416">
        <ele>74.800003051758</ele>
        <time>2019-05-12T08:34:03.000Z</time>
      </trkpt>
      <trkpt lat="46.57421" lon="0.32423">
        <ele>74.800003051758</ele>
        <time>2019-05-12T08:34:04.000Z</time>
      </trkpt>
      <trkpt lat="46.57428" lon="0.32442">
        <ele>75</ele>
        <time>2019-05-12T08:34:07.000Z</time>
      </trkpt>
      <trkpt lat="46.57433" lon="0.32455">
        <ele>75</ele>
        <time>2019-05-12T08:34:09.000Z</time>
      </trkpt>
      <trkpt lat="46.57448" lon="0.32499">
        <ele>75.599998474121</ele>
        <time>2019-05-12T08:34:16.000Z</time>
      </trkpt>
      <trkpt lat="46.57455" lon="0.32525">
        <ele>76.199996948242</ele>
        <time>2019-05-12T08:34:21.000Z</time>
      </trkpt>
      <trkpt lat="46.57457" lon="0.32535">
        <ele>76.599998474121</ele>
        <time>2019-05-12T08:34:23.000Z</time>
      </trkpt>
      <trkpt lat="46.57461" lon="0.32549">
        <ele>77.199996948242</ele>
        <time>2019-05-12T08:34:26.000Z</time>
      </trkpt>
      <trkpt lat="46.57466" lon="0.32569">
        <ele>77.599998474121</ele>
        <time>2019-05-12T08:34:30.000Z</time>
      </trkpt>
      <trkpt lat="46.57468" lon="0.32606">
        <ele>78.400001525879</ele>
        <time>2019-05-12T08:34:36.000Z</time>
      </trkpt>
      <trkpt lat="46.57473" lon="0.32631">
        <ele>78.800003051758</ele>
        <time>2019-05-12T08:34:40.000Z</time>
      </trkpt>
      <trkpt lat="46.57476" lon="0.32644">
        <ele>78.400001525879</ele>
        <time>2019-05-12T08:34:42.000Z</time>
      </trkpt>
      <trkpt lat="46.57485" lon="0.3266">
        <ele>78</ele>
        <time>2019-05-12T08:34:45.000Z</time>
      </trkpt>
      <trkpt lat="46.57487" lon="0.32673">
        <ele>78</ele>
        <time>2019-05-12T08:34:47.000Z</time>
      </trkpt>
      <trkpt lat="46.57484" lon="0.32677">
        <ele>78</ele>
        <time>2019-05-12T08:34:49.000Z</time>
      </trkpt>
      <trkpt lat="46.57479" lon="0.32668">
        <ele>78.400001525879</ele>
        <time>2019-05-12T08:34:53.000Z</time>
      </trkpt>
      <trkpt lat="46.57478" lon="0.32665">
        <ele>78.800003051758</ele>
        <time>2019-05-12T08:34:54.000Z</time>
      </trkpt>
      <trkpt lat="46.57475" lon="0.32653">
        <ele>79.800003051758</ele>
        <time>2019-05-12T08:34:58.000Z</time>
      </trkpt>
      <trkpt lat="46.57472" lon="0.32645">
        <ele>81</ele>
        <time>2019-05-12T08:35:01.000Z</time>
      </trkpt>
      <trkpt lat="46.57468" lon="0.32629">
        <ele>82</ele>
        <time>2019-05-12T08:35:06.000Z</time>
      </trkpt>
      <trkpt lat="46.57465" lon="0.32619">
        <ele>82.599998474121</ele>
        <time>2019-05-12T08:35:09.000Z</time>
      </trkpt>
      <trkpt lat="46.57461" lon="0.32599">
        <ele>83</ele>
        <time>2019-05-12T08:35:14.000Z</time>
      </trkpt>
      <trkpt lat="46.57457" lon="0.32581">
        <ele>83.400001525879</ele>
        <time>2019-05-12T08:35:18.000Z</time>
      </trkpt>
      <trkpt lat="46.57452" lon="0.32564">
        <ele>84</ele>
        <time>2019-05-12T08:35:22.000Z</time>
      </trkpt>
      <trkpt lat="46.5745" lon="0.32555">
        <ele>84.400001525879</ele>
        <time>2019-05-12T08:35:24.000Z</time>
      </trkpt>
      <trkpt lat="46.57442" lon="0.32526">
        <ele>84.599998474121</ele>
        <time>2019-05-12T08:35:30.000Z</time>
      </trkpt>
      <trkpt lat="46.57432" lon="0.32511">
        <ele>84.400001525879</ele>
        <time>2019-05-12T08:35:34.000Z</time>
      </trkpt>
      <trkpt lat="46.57426" lon="0.32509">
        <ele>85.199996948242</ele>
        <time>2019-05-12T08:35:36.000Z</time>
      </trkpt>
      <trkpt lat="46.5742" lon="0.32509">
        <ele>86</ele>
        <time>2019-05-12T08:35:38.000Z</time>
      </trkpt>
      <trkpt lat="46.57417" lon="0.32509">
        <ele>86.599998474121</ele>
        <time>2019-05-12T08:35:39.000Z</time>
      </trkpt>
      <trkpt lat="46.5741" lon="0.32507">
        <ele>87.800003051758</ele>
        <time>2019-05-12T08:35:42.000Z</time>
      </trkpt>
      <trkpt lat="46.57408" lon="0.32505">
        <ele>88</ele>
        <time>2019-05-12T08:35:43.000Z</time>
      </trkpt>
      <trkpt lat="46.57402" lon="0.32495">
        <ele>89</ele>
        <time>2019-05-12T08:35:46.000Z</time>
      </trkpt>
      <trkpt lat="46.57397" lon="0.32483">
        <ele>89.199996948242</ele>
        <time>2019-05-12T08:35:49.000Z</time>
      </trkpt>
      <trkpt lat="46.5739" lon="0.32457">
        <ele>89.800003051758</ele>
        <time>2019-05-12T08:35:55.000Z</time>
      </trkpt>
      <trkpt lat="46.57389" lon="0.32449">
        <ele>90.199996948242</ele>
        <time>2019-05-12T08:35:57.000Z</time>
      </trkpt>
      <trkpt lat="46.57383" lon="0.32435">
        <ele>90.800003051758</ele>
        <time>2019-05-12T08:36:01.000Z</time>
      </trkpt>
      <trkpt lat="46.5738" lon="0.32433">
        <ele>91</ele>
        <time>2019-05-12T08:36:02.000Z</time>
      </trkpt>
      <trkpt lat="46.57377" lon="0.32433">
        <ele>91.199996948242</ele>
        <time>2019-05-12T08:36:03.000Z</time>
      </trkpt>
      <trkpt lat="46.5737" lon="0.32435">
        <ele>91.400001525879</ele>
        <time>2019-05-12T08:36:06.000Z</time>
      </trkpt>
      <trkpt lat="46.57351" lon="0.32444">
        <ele>91.800003051758</ele>
        <time>2019-05-12T08:36:13.000Z</time>
      </trkpt>
      <trkpt lat="46.57348" lon="0.32445">
        <ele>91.800003051758</ele>
        <time>2019-05-12T08:36:14.000Z</time>
      </trkpt>
      <trkpt lat="46.57337" lon="0.3245">
        <ele>93</ele>
        <time>2019-05-12T08:36:19.000Z</time>
      </trkpt>
      <trkpt lat="46.57335" lon="0.32451">
        <ele>93.199996948242</ele>
        <time>2019-05-12T08:36:20.000Z</time>
      </trkpt>
      <trkpt lat="46.57323" lon="0.32454">
        <ele>93.800003051758</ele>
        <time>2019-05-12T08:36:26.000Z</time>
      </trkpt>
      <trkpt lat="46.5732" lon="0.32455">
        <ele>94</ele>
        <time>2019-05-12T08:36:27.000Z</time>
      </trkpt>
      <trkpt lat="46.57311" lon="0.32457">
        <ele>94.800003051758</ele>
        <time>2019-05-12T08:36:31.000Z</time>
      </trkpt>
      <trkpt lat="46.57298" lon="0.32459">
        <ele>96</ele>
        <time>2019-05-12T08:36:36.000Z</time>
      </trkpt>
      <trkpt lat="46.57295" lon="0.32459">
        <ele>96</ele>
        <time>2019-05-12T08:36:37.000Z</time>
      </trkpt>
      <trkpt lat="46.57285" lon="0.32461">
        <ele>96.800003051758</ele>
        <time>2019-05-12T08:36:41.000Z</time>
      </trkpt>
      <trkpt lat="46.57274" lon="0.32463">
        <ele>98</ele>
        <time>2019-05-12T08:36:45.000Z</time>
      </trkpt>
      <trkpt lat="46.57253" lon="0.32466">
        <ele>99</ele>
        <time>2019-05-12T08:36:52.000Z</time>
      </trkpt>
      <trkpt lat="46.57245" lon="0.32467">
        <ele>99.400001525879</ele>
        <time>2019-05-12T08:36:55.000Z</time>
      </trkpt>
      <trkpt lat="46.5723" lon="0.32468">
        <ele>100</ele>
        <time>2019-05-12T08:37:00.000Z</time>
      </trkpt>
      <trkpt lat="46.57224" lon="0.3247">
        <ele>100.40000152588</ele>
        <time>2019-05-12T08:37:02.000Z</time>
      </trkpt>
      <trkpt lat="46.57203" lon="0.32471">
        <ele>101</ele>
        <time>2019-05-12T08:37:09.000Z</time>
      </trkpt>
      <trkpt lat="46.57184" lon="0.32478">
        <ele>101</ele>
        <time>2019-05-12T08:37:15.000Z</time>
      </trkpt>
      <trkpt lat="46.5718" lon="0.32478">
        <ele>101</ele>
        <time>2019-05-12T08:37:16.000Z</time>
      </trkpt>
      <trkpt lat="46.57166" lon="0.32481">
        <ele>100.80000305176</ele>
        <time>2019-05-12T08:37:20.000Z</time>
      </trkpt>
      <trkpt lat="46.57159" lon="0.32477">
        <ele>100.40000152588</ele>
        <time>2019-05-12T08:37:22.000Z</time>
      </trkpt>
      <trkpt lat="46.57152" lon="0.32468">
        <ele>100.19999694824</ele>
        <time>2019-05-12T08:37:25.000Z</time>
      </trkpt>
      <trkpt lat="46.57147" lon="0.32463">
        <ele>100.19999694824</ele>
        <time>2019-05-12T08:37:27.000Z</time>
      </trkpt>
      <trkpt lat="46.57132" lon="0.32443">
        <ele>100.19999694824</ele>
        <time>2019-05-12T08:37:33.000Z</time>
      </trkpt>
      <trkpt lat="46.5713" lon="0.32438">
        <ele>100.19999694824</ele>
        <time>2019-05-12T08:37:34.000Z</time>
      </trkpt>
      <trkpt lat="46.57117" lon="0.32433">
        <ele>100.19999694824</ele>
        <time>2019-05-12T08:37:38.000Z</time>
      </trkpt>
      <trkpt lat="46.57104" lon="0.32444">
        <ele>100.59999847412</ele>
        <time>2019-05-12T08:37:42.000Z</time>
      </trkpt>
      <trkpt lat="46.57089" lon="0.32462">
        <ele>100.80000305176</ele>
        <time>2019-05-12T08:37:48.000Z</time>
      </trkpt>
      <trkpt lat="46.57086" lon="0.32467">
        <ele>100.40000152588</ele>
        <time>2019-05-12T08:37:52.000Z</time>
      </trkpt>
      <trkpt lat="46.57083" lon="0.32471">
        <ele>100.40000152588</ele>
        <time>2019-05-12T08:38:11.000Z</time>
      </trkpt>
      <trkpt lat="46.57081" lon="0.32473">
        <ele>100.40000152588</ele>
        <time>2019-05-12T08:38:12.000Z</time>
      </trkpt>
      <trkpt lat="46.57079" lon="0.32477">
        <ele>100.40000152588</ele>
        <time>2019-05-12T08:38:13.000Z</time>
      </trkpt>
      <trkpt lat="46.57079" lon="0.32493">
        <ele>100.40000152588</ele>
        <time>2019-05-12T08:38:16.000Z</time>
      </trkpt>
      <trkpt lat="46.5709" lon="0.32514">
        <ele>100.19999694824</ele>
        <time>2019-05-12T08:38:20.000Z</time>
      </trkpt>
      <trkpt lat="46.57098" lon="0.32532">
        <ele>100</ele>
        <time>2019-05-12T08:38:24.000Z</time>
      </trkpt>
      <trkpt lat="46.57101" lon="0.32536">
        <ele>99.800003051758</ele>
        <time>2019-05-12T08:38:25.000Z</time>
      </trkpt>
      <trkpt lat="46.57104" lon="0.32544">
        <ele>99.199996948242</ele>
        <time>2019-05-12T08:38:27.000Z</time>
      </trkpt>
      <trkpt lat="46.57104" lon="0.32547">
        <ele>99</ele>
        <time>2019-05-12T08:38:28.000Z</time>
      </trkpt>
      <trkpt lat="46.57093" lon="0.32556">
        <ele>97.800003051758</ele>
        <time>2019-05-12T08:38:31.000Z</time>
      </trkpt>
      <trkpt lat="46.57082" lon="0.32556">
        <ele>96.199996948242</ele>
        <time>2019-05-12T08:38:33.000Z</time>
      </trkpt>
      <trkpt lat="46.57075" lon="0.32552">
        <ele>95</ele>
        <time>2019-05-12T08:38:34.000Z</time>
      </trkpt>
      <trkpt lat="46.57068" lon="0.32547">
        <ele>93.800003051758</ele>
        <time>2019-05-12T08:38:35.000Z</time>
      </trkpt>
      <trkpt lat="46.57052" lon="0.32535">
        <ele>92</ele>
        <time>2019-05-12T08:38:37.000Z</time>
      </trkpt>
      <trkpt lat="46.57043" lon="0.32528">
        <ele>91.599998474121</ele>
        <time>2019-05-12T08:38:38.000Z</time>
      </trkpt>
      <trkpt lat="46.57034" lon="0.3252">
        <ele>90.800003051758</ele>
        <time>2019-05-12T08:38:39.000Z</time>
      </trkpt>
      <trkpt lat="46.57024" lon="0.32512">
        <ele>89.199996948242</ele>
        <time>2019-05-12T08:38:40.000Z</time>
      </trkpt>
      <trkpt lat="46.57014" lon="0.32504">
        <ele>87.800003051758</ele>
        <time>2019-05-12T08:38:41.000Z</time>
      </trkpt>
      <trkpt lat="46.57003" lon="0.32495">
        <ele>86.400001525879</ele>
        <time>2019-05-12T08:38:42.000Z</time>
      </trkpt>
      <trkpt lat="46.56993" lon="0.32487">
        <ele>85.400001525879</ele>
        <time>2019-05-12T08:38:43.000Z</time>
      </trkpt>
      <trkpt lat="46.56983" lon="0.32481">
        <ele>83.400001525879</ele>
        <time>2019-05-12T08:38:44.000Z</time>
      </trkpt>
      <trkpt lat="46.56974" lon="0.32475">
        <ele>81</ele>
        <time>2019-05-12T08:38:45.000Z</time>
      </trkpt>
      <trkpt lat="46.56966" lon="0.32469">
        <ele>78.800003051758</ele>
        <time>2019-05-12T08:38:46.000Z</time>
      </trkpt>
      <trkpt lat="46.56959" lon="0.32463">
        <ele>77.400001525879</ele>
        <time>2019-05-12T08:38:47.000Z</time>
      </trkpt>
      <trkpt lat="46.56952" lon="0.32457">
        <ele>75.800003051758</ele>
        <time>2019-05-12T08:38:48.000Z</time>
      </trkpt>
      <trkpt lat="46.56946" lon="0.32453">
        <ele>74.199996948242</ele>
        <time>2019-05-12T08:38:49.000Z</time>
      </trkpt>
      <trkpt lat="46.5694" lon="0.32449">
        <ele>72.800003051758</ele>
        <time>2019-05-12T08:38:50.000Z</time>
      </trkpt>
      <trkpt lat="46.56936" lon="0.32447">
        <ele>71.599998474121</ele>
        <time>2019-05-12T08:38:51.000Z</time>
      </trkpt>
      <trkpt lat="46.56933" lon="0.32448">
        <ele>70.199996948242</ele>
        <time>2019-05-12T08:38:52.000Z</time>
      </trkpt>
      <trkpt lat="46.56931" lon="0.32449">
        <ele>68.800003051758</ele>
        <time>2019-05-12T08:38:53.000Z</time>
      </trkpt>
      <trkpt lat="46.56931" lon="0.32452">
        <ele>67.800003051758</ele>
        <time>2019-05-12T08:38:54.000Z</time>
      </trkpt>
      <trkpt lat="46.56933" lon="0.32457">
        <ele>66.400001525879</ele>
        <time>2019-05-12T08:38:56.000Z</time>
      </trkpt>
      <trkpt lat="46.56935" lon="0.3246">
        <ele>66</ele>
        <time>2019-05-12T08:38:57.000Z</time>
      </trkpt>
      <trkpt lat="46.56938" lon="0.32464">
        <ele>65.599998474121</ele>
        <time>2019-05-12T08:38:58.000Z</time>
      </trkpt>
      <trkpt lat="46.5694" lon="0.32469">
        <ele>65</ele>
        <time>2019-05-12T08:38:59.000Z</time>
      </trkpt>
      <trkpt lat="46.56957" lon="0.32498">
        <ele>64.400001525879</ele>
        <time>2019-05-12T08:39:05.000Z</time>
      </trkpt>
      <trkpt lat="46.56963" lon="0.32508">
        <ele>64.400001525879</ele>
        <time>2019-05-12T08:39:07.000Z</time>
      </trkpt>
      <trkpt lat="46.56977" lon="0.32529">
        <ele>64.400001525879</ele>
        <time>2019-05-12T08:39:11.000Z</time>
      </trkpt>
      <trkpt lat="46.56984" lon="0.32539">
        <ele>64.599998474121</ele>
        <time>2019-05-12T08:39:13.000Z</time>
      </trkpt>
      <trkpt lat="46.5699" lon="0.32549">
        <ele>65</ele>
        <time>2019-05-12T08:39:15.000Z</time>
      </trkpt>
      <trkpt lat="46.56993" lon="0.32554">
        <ele>65</ele>
        <time>2019-05-12T08:39:16.000Z</time>
      </trkpt>
      <trkpt lat="46.56996" lon="0.3256">
        <ele>65</ele>
        <time>2019-05-12T08:39:17.000Z</time>
      </trkpt>
      <trkpt lat="46.57004" lon="0.32579">
        <ele>65</ele>
        <time>2019-05-12T08:39:20.000Z</time>
      </trkpt>
      <trkpt lat="46.57006" lon="0.32585">
        <ele>65</ele>
        <time>2019-05-12T08:39:21.000Z</time>
      </trkpt>
      <trkpt lat="46.57016" lon="0.32611">
        <ele>65</ele>
        <time>2019-05-12T08:39:25.000Z</time>
      </trkpt>
      <trkpt lat="46.57018" lon="0.32618">
        <ele>65</ele>
        <time>2019-05-12T08:39:26.000Z</time>
      </trkpt>
      <trkpt lat="46.57027" lon="0.32641">
        <ele>64.599998474121</ele>
        <time>2019-05-12T08:39:30.000Z</time>
      </trkpt>
      <trkpt lat="46.57037" lon="0.32653">
        <ele>65</ele>
        <time>2019-05-12T08:39:33.000Z</time>
      </trkpt>
      <trkpt lat="46.57041" lon="0.32655">
        <ele>65</ele>
        <time>2019-05-12T08:39:34.000Z</time>
      </trkpt>
      <trkpt lat="46.57052" lon="0.32671">
        <ele>64.800003051758</ele>
        <time>2019-05-12T08:39:37.000Z</time>
      </trkpt>
      <trkpt lat="46.57055" lon="0.32678">
        <ele>65</ele>
        <time>2019-05-12T08:39:38.000Z</time>
      </trkpt>
      <trkpt lat="46.57057" lon="0.32685">
        <ele>65</ele>
        <time>2019-05-12T08:39:39.000Z</time>
      </trkpt>
      <trkpt lat="46.57062" lon="0.32698">
        <ele>65</ele>
        <time>2019-05-12T08:39:41.000Z</time>
      </trkpt>
      <trkpt lat="46.57063" lon="0.32705">
        <ele>65</ele>
        <time>2019-05-12T08:39:42.000Z</time>
      </trkpt>
      <trkpt lat="46.57064" lon="0.32725">
        <ele>64.800003051758</ele>
        <time>2019-05-12T08:39:45.000Z</time>
      </trkpt>
      <trkpt lat="46.57065" lon="0.32733">
        <ele>64.800003051758</ele>
        <time>2019-05-12T08:39:46.000Z</time>
      </trkpt>
      <trkpt lat="46.57071" lon="0.32755">
        <ele>64.599998474121</ele>
        <time>2019-05-12T08:39:50.000Z</time>
      </trkpt>
      <trkpt lat="46.57084" lon="0.32767">
        <ele>64.599998474121</ele>
        <time>2019-05-12T08:39:53.000Z</time>
      </trkpt>
      <trkpt lat="46.571" lon="0.32773">
        <ele>64.599998474121</ele>
        <time>2019-05-12T08:39:56.000Z</time>
      </trkpt>
      <trkpt lat="46.57109" lon="0.32777">
        <ele>64.800003051758</ele>
        <time>2019-05-12T08:39:58.000Z</time>
      </trkpt>
      <trkpt lat="46.57114" lon="0.32782">
        <ele>64.800003051758</ele>
        <time>2019-05-12T08:40:00.000Z</time>
      </trkpt>
      <trkpt lat="46.57119" lon="0.32791">
        <ele>65.199996948242</ele>
        <time>2019-05-12T08:40:02.000Z</time>
      </trkpt>
      <trkpt lat="46.57127" lon="0.32804">
        <ele>65.400001525879</ele>
        <time>2019-05-12T08:40:06.000Z</time>
      </trkpt>
      <trkpt lat="46.5713" lon="0.32806">
        <ele>65.400001525879</ele>
        <time>2019-05-12T08:40:09.000Z</time>
      </trkpt>
      <trkpt lat="46.57128" lon="0.32793">
        <ele>65.599998474121</ele>
        <time>2019-05-12T08:40:13.000Z</time>
      </trkpt>
      <trkpt lat="46.57123" lon="0.32779">
        <ele>66</ele>
        <time>2019-05-12T08:40:17.000Z</time>
      </trkpt>
      <trkpt lat="46.57116" lon="0.32767">
        <ele>67.199996948242</ele>
        <time>2019-05-12T08:40:21.000Z</time>
      </trkpt>
      <trkpt lat="46.57108" lon="0.32761">
        <ele>68.199996948242</ele>
        <time>2019-05-12T08:40:24.000Z</time>
      </trkpt>
      <trkpt lat="46.57097" lon="0.32755">
        <ele>69.400001525879</ele>
        <time>2019-05-12T08:40:28.000Z</time>
      </trkpt>
      <trkpt lat="46.5709" lon="0.32754">
        <ele>70.400001525879</ele>
        <time>2019-05-12T08:40:32.000Z</time>
      </trkpt>
      <trkpt lat="46.57089" lon="0.32754">
        <ele>70.599998474121</ele>
        <time>2019-05-12T08:40:33.000Z</time>
      </trkpt>
      <trkpt lat="46.57079" lon="0.32754">
        <ele>71</ele>
        <time>2019-05-12T08:40:38.000Z</time>
      </trkpt>
      <trkpt lat="46.57051" lon="0.32755">
        <ele>71</ele>
        <time>2019-05-12T08:40:49.000Z</time>
      </trkpt>
      <trkpt lat="46.57034" lon="0.32755">
        <ele>70.599998474121</ele>
        <time>2019-05-12T08:40:56.000Z</time>
      </trkpt>
      <trkpt lat="46.57031" lon="0.32755">
        <ele>70.599998474121</ele>
        <time>2019-05-12T08:40:58.000Z</time>
      </trkpt>
      <trkpt lat="46.57021" lon="0.32758">
        <ele>70.400001525879</ele>
        <time>2019-05-12T08:41:02.000Z</time>
      </trkpt>
      <trkpt lat="46.56997" lon="0.32762">
        <ele>69.199996948242</ele>
        <time>2019-05-12T08:41:06.000Z</time>
      </trkpt>
      <trkpt lat="46.5699" lon="0.32763">
        <ele>68.800003051758</ele>
        <time>2019-05-12T08:41:07.000Z</time>
      </trkpt>
      <trkpt lat="46.56973" lon="0.32764">
        <ele>67.400001525879</ele>
        <time>2019-05-12T08:41:10.000Z</time>
      </trkpt>
      <trkpt lat="46.56961" lon="0.32764">
        <ele>66.199996948242</ele>
        <time>2019-05-12T08:41:13.000Z</time>
      </trkpt>
      <trkpt lat="46.56953" lon="0.32765">
        <ele>65</ele>
        <time>2019-05-12T08:41:16.000Z</time>
      </trkpt>
      <trkpt lat="46.56952" lon="0.32763">
        <ele>64.800003051758</ele>
        <time>2019-05-12T08:41:17.000Z</time>
      </trkpt>
      <trkpt lat="46.56949" lon="0.32753">
        <ele>64.400001525879</ele>
        <time>2019-05-12T08:41:20.000Z</time>
      </trkpt>
      <trkpt lat="46.56949" lon="0.32737">
        <ele>64.400001525879</ele>
        <time>2019-05-12T08:41:25.000Z</time>
      </trkpt>
      <trkpt lat="46.56943" lon="0.32715">
        <ele>64.800003051758</ele>
        <time>2019-05-12T08:41:30.000Z</time>
      </trkpt>
      <trkpt lat="46.56935" lon="0.327">
        <ele>65</ele>
        <time>2019-05-12T08:41:34.000Z</time>
      </trkpt>
      <trkpt lat="46.5693" lon="0.32692">
        <ele>65</ele>
        <time>2019-05-12T08:41:36.000Z</time>
      </trkpt>
      <trkpt lat="46.56906" lon="0.32662">
        <ele>65</ele>
        <time>2019-05-12T08:41:44.000Z</time>
      </trkpt>
      <trkpt lat="46.56889" lon="0.32659">
        <ele>65.800003051758</ele>
        <time>2019-05-12T08:41:49.000Z</time>
      </trkpt>
      <trkpt lat="46.56886" lon="0.3266">
        <ele>66.199996948242</ele>
        <time>2019-05-12T08:41:50.000Z</time>
      </trkpt>
      <trkpt lat="46.56875" lon="0.32668">
        <ele>67.400001525879</ele>
        <time>2019-05-12T08:41:54.000Z</time>
      </trkpt>
      <trkpt lat="46.56863" lon="0.32678">
        <ele>68.400001525879</ele>
        <time>2019-05-12T08:41:58.000Z</time>
      </trkpt>
      <trkpt lat="46.56862" lon="0.32681">
        <ele>68.400001525879</ele>
        <time>2019-05-12T08:41:59.000Z</time>
      </trkpt>
      <trkpt lat="46.56858" lon="0.3269">
        <ele>68.800003051758</ele>
        <time>2019-05-12T08:42:01.000Z</time>
      </trkpt>
      <trkpt lat="46.56854" lon="0.32705">
        <ele>69.599998474121</ele>
        <time>2019-05-12T08:42:04.000Z</time>
      </trkpt>
      <trkpt lat="46.56851" lon="0.32718">
        <ele>70.199996948242</ele>
        <time>2019-05-12T08:42:07.000Z</time>
      </trkpt>
      <trkpt lat="46.56849" lon="0.32722">
        <ele>70.599998474121</ele>
        <time>2019-05-12T08:42:08.000Z</time>
      </trkpt>
      <trkpt lat="46.56841" lon="0.32728">
        <ele>71.599998474121</ele>
        <time>2019-05-12T08:42:11.000Z</time>
      </trkpt>
      <trkpt lat="46.56837" lon="0.32728">
        <ele>71.800003051758</ele>
        <time>2019-05-12T08:42:12.000Z</time>
      </trkpt>
      <trkpt lat="46.5682" lon="0.32728">
        <ele>72.800003051758</ele>
        <time>2019-05-12T08:42:17.000Z</time>
      </trkpt>
      <trkpt lat="46.56817" lon="0.32728">
        <ele>73</ele>
        <time>2019-05-12T08:42:18.000Z</time>
      </trkpt>
      <trkpt lat="46.5681" lon="0.32728">
        <ele>73.400001525879</ele>
        <time>2019-05-12T08:42:20.000Z</time>
      </trkpt>
      <trkpt lat="46.56799" lon="0.32728">
        <ele>74</ele>
        <time>2019-05-12T08:42:23.000Z</time>
      </trkpt>
      <trkpt lat="46.56775" lon="0.32726">
        <ele>74.599998474121</ele>
        <time>2019-05-12T08:42:30.000Z</time>
      </trkpt>
      <trkpt lat="46.56771" lon="0.32726">
        <ele>74.800003051758</ele>
        <time>2019-05-12T08:42:31.000Z</time>
      </trkpt>
      <trkpt lat="46.56741" lon="0.32725">
        <ele>75.800003051758</ele>
        <time>2019-05-12T08:42:39.000Z</time>
      </trkpt>
      <trkpt lat="46.56737" lon="0.32725">
        <ele>76</ele>
        <time>2019-05-12T08:42:40.000Z</time>
      </trkpt>
      <trkpt lat="46.56715" lon="0.32723">
        <ele>77</ele>
        <time>2019-05-12T08:42:46.000Z</time>
      </trkpt>
      <trkpt lat="46.56697" lon="0.32722">
        <ele>78</ele>
        <time>2019-05-12T08:42:51.000Z</time>
      </trkpt>
      <trkpt lat="46.5669" lon="0.32721">
        <ele>78.199996948242</ele>
        <time>2019-05-12T08:42:53.000Z</time>
      </trkpt>
      <trkpt lat="46.56669" lon="0.3272">
        <ele>79</ele>
        <time>2019-05-12T08:42:59.000Z</time>
      </trkpt>
      <trkpt lat="46.56665" lon="0.3272">
        <ele>79</ele>
        <time>2019-05-12T08:43:00.000Z</time>
      </trkpt>
      <trkpt lat="46.5664" lon="0.32718">
        <ele>80</ele>
        <time>2019-05-12T08:43:07.000Z</time>
      </trkpt>
      <trkpt lat="46.56629" lon="0.32717">
        <ele>80.400001525879</ele>
        <time>2019-05-12T08:43:10.000Z</time>
      </trkpt>
      <trkpt lat="46.56601" lon="0.32717">
        <ele>80.599998474121</ele>
        <time>2019-05-12T08:43:17.000Z</time>
      </trkpt>
      <trkpt lat="46.56582" lon="0.32719">
        <ele>81</ele>
        <time>2019-05-12T08:43:22.000Z</time>
      </trkpt>
      <trkpt lat="46.56574" lon="0.32722">
        <ele>81.400001525879</ele>
        <time>2019-05-12T08:43:25.000Z</time>
      </trkpt>
      <trkpt lat="46.56573" lon="0.32733">
        <ele>81.800003051758</ele>
        <time>2019-05-12T08:43:29.000Z</time>
      </trkpt>
      <trkpt lat="46.56574" lon="0.32748">
        <ele>82</ele>
        <time>2019-05-12T08:43:32.000Z</time>
      </trkpt>
      <trkpt lat="46.56574" lon="0.32761">
        <ele>82.400001525879</ele>
        <time>2019-05-12T08:43:35.000Z</time>
      </trkpt>
      <trkpt lat="46.56574" lon="0.3277">
        <ele>82.400001525879</ele>
        <time>2019-05-12T08:43:38.000Z</time>
      </trkpt>
      <trkpt lat="46.56574" lon="0.3277">
        <ele>82.199996948242</ele>
        <time>2019-05-12T08:43:39.000Z</time>
      </trkpt>
      <trkpt lat="46.56574" lon="0.32771">
        <ele>82.199996948242</ele>
        <time>2019-05-12T08:43:40.000Z</time>
      </trkpt>
      <trkpt lat="46.56572" lon="0.32774">
        <ele>82</ele>
        <time>2019-05-12T08:43:46.000Z</time>
      </trkpt>
      <trkpt lat="46.56572" lon="0.3278">
        <ele>82.199996948242</ele>
        <time>2019-05-12T08:43:48.000Z</time>
      </trkpt>
      <trkpt lat="46.56572" lon="0.3279">
        <ele>82.400001525879</ele>
        <time>2019-05-12T08:43:53.000Z</time>
      </trkpt>
      <trkpt lat="46.56572" lon="0.32791">
        <ele>82.599998474121</ele>
        <time>2019-05-12T08:43:55.000Z</time>
      </trkpt>
      <trkpt lat="46.56575" lon="0.32796">
        <ele>82.800003051758</ele>
        <time>2019-05-12T08:44:48.000Z</time>
      </trkpt>
      <trkpt lat="46.56577" lon="0.32799">
        <ele>82.800003051758</ele>
        <time>2019-05-12T08:44:49.000Z</time>
      </trkpt>
      <trkpt lat="46.56581" lon="0.32804">
        <ele>83</ele>
        <time>2019-05-12T08:44:51.000Z</time>
      </trkpt>
      <trkpt lat="46.56584" lon="0.32807">
        <ele>83</ele>
        <time>2019-05-12T08:44:52.000Z</time>
      </trkpt>
      <trkpt lat="46.56591" lon="0.32816">
        <ele>83</ele>
        <time>2019-05-12T08:44:55.000Z</time>
      </trkpt>
      <trkpt lat="46.56592" lon="0.3282">
        <ele>83</ele>
        <time>2019-05-12T08:44:56.000Z</time>
      </trkpt>
      <trkpt lat="46.56589" lon="0.32828">
        <ele>82.800003051758</ele>
        <time>2019-05-12T08:44:58.000Z</time>
      </trkpt>
      <trkpt lat="46.56579" lon="0.32854">
        <ele>83.800003051758</ele>
        <time>2019-05-12T08:45:04.000Z</time>
      </trkpt>
      <trkpt lat="46.56574" lon="0.32867">
        <ele>84.199996948242</ele>
        <time>2019-05-12T08:45:07.000Z</time>
      </trkpt>
      <trkpt lat="46.56558" lon="0.32898">
        <ele>84.400001525879</ele>
        <time>2019-05-12T08:45:15.000Z</time>
      </trkpt>
      <trkpt lat="46.56549" lon="0.32912">
        <ele>84.599998474121</ele>
        <time>2019-05-12T08:45:20.000Z</time>
      </trkpt>
      <trkpt lat="46.56547" lon="0.32914">
        <ele>84.800003051758</ele>
        <time>2019-05-12T08:45:21.000Z</time>
      </trkpt>
      <trkpt lat="46.56543" lon="0.32916">
        <ele>85.199996948242</ele>
        <time>2019-05-12T08:45:23.000Z</time>
      </trkpt>
      <trkpt lat="46.56541" lon="0.32916">
        <ele>85.400001525879</ele>
        <time>2019-05-12T08:45:24.000Z</time>
      </trkpt>
      <trkpt lat="46.56538" lon="0.32914">
        <ele>85.400001525879</ele>
        <time>2019-05-12T08:45:25.000Z</time>
      </trkpt>
      <trkpt lat="46.5653" lon="0.32904">
        <ele>85.400001525879</ele>
        <time>2019-05-12T08:45:28.000Z</time>
      </trkpt>
      <trkpt lat="46.56523" lon="0.32897">
        <ele>85.199996948242</ele>
        <time>2019-05-12T08:45:30.000Z</time>
      </trkpt>
      <trkpt lat="46.56513" lon="0.32886">
        <ele>85</ele>
        <time>2019-05-12T08:45:33.000Z</time>
      </trkpt>
      <trkpt lat="46.56493" lon="0.32867">
        <ele>84.599998474121</ele>
        <time>2019-05-12T08:45:38.000Z</time>
      </trkpt>
      <trkpt lat="46.56481" lon="0.32858">
        <ele>84.400001525879</ele>
        <time>2019-05-12T08:45:41.000Z</time>
      </trkpt>
      <trkpt lat="46.56473" lon="0.32861">
        <ele>84.599998474121</ele>
        <time>2019-05-12T08:45:43.000Z</time>
      </trkpt>
      <trkpt lat="46.56465" lon="0.32876">
        <ele>84.800003051758</ele>
        <time>2019-05-12T08:45:46.000Z</time>
      </trkpt>
      <trkpt lat="46.56463" lon="0.32881">
        <ele>85</ele>
        <time>2019-05-12T08:45:47.000Z</time>
      </trkpt>
      <trkpt lat="46.56455" lon="0.32901">
        <ele>85.599998474121</ele>
        <time>2019-05-12T08:45:51.000Z</time>
      </trkpt>
      <trkpt lat="46.56448" lon="0.32921">
        <ele>86.199996948242</ele>
        <time>2019-05-12T08:45:55.000Z</time>
      </trkpt>
      <trkpt lat="46.56442" lon="0.32936">
        <ele>86.599998474121</ele>
        <time>2019-05-12T08:45:58.000Z</time>
      </trkpt>
      <trkpt lat="46.56437" lon="0.32946">
        <ele>87</ele>
        <time>2019-05-12T08:46:00.000Z</time>
      </trkpt>
      <trkpt lat="46.56435" lon="0.32951">
        <ele>87.400001525879</ele>
        <time>2019-05-12T08:46:01.000Z</time>
      </trkpt>
      <trkpt lat="46.5643" lon="0.32967">
        <ele>87.800003051758</ele>
        <time>2019-05-12T08:46:04.000Z</time>
      </trkpt>
      <trkpt lat="46.56422" lon="0.32987">
        <ele>88.800003051758</ele>
        <time>2019-05-12T08:46:08.000Z</time>
      </trkpt>
      <trkpt lat="46.56421" lon="0.32992">
        <ele>89</ele>
        <time>2019-05-12T08:46:09.000Z</time>
      </trkpt>
      <trkpt lat="46.56419" lon="0.32996">
        <ele>89.400001525879</ele>
        <time>2019-05-12T08:46:10.000Z</time>
      </trkpt>
      <trkpt lat="46.56416" lon="0.32998">
        <ele>89.599998474121</ele>
        <time>2019-05-12T08:46:11.000Z</time>
      </trkpt>
      <trkpt lat="46.56411" lon="0.32995">
        <ele>90</ele>
        <time>2019-05-12T08:46:13.000Z</time>
      </trkpt>
      <trkpt lat="46.56396" lon="0.32987">
        <ele>89.800003051758</ele>
        <time>2019-05-12T08:46:17.000Z</time>
      </trkpt>
      <trkpt lat="46.56389" lon="0.3299">
        <ele>90</ele>
        <time>2019-05-12T08:46:19.000Z</time>
      </trkpt>
      <trkpt lat="46.56386" lon="0.32993">
        <ele>90</ele>
        <time>2019-05-12T08:46:20.000Z</time>
      </trkpt>
      <trkpt lat="46.56384" lon="0.33003">
        <ele>90.199996948242</ele>
        <time>2019-05-12T08:46:22.000Z</time>
      </trkpt>
      <trkpt lat="46.56383" lon="0.33014">
        <ele>90.599998474121</ele>
        <time>2019-05-12T08:46:24.000Z</time>
      </trkpt>
      <trkpt lat="46.5638" lon="0.33031">
        <ele>91.199996948242</ele>
        <time>2019-05-12T08:46:27.000Z</time>
      </trkpt>
      <trkpt lat="46.56377" lon="0.33048">
        <ele>92</ele>
        <time>2019-05-12T08:46:30.000Z</time>
      </trkpt>
      <trkpt lat="46.56375" lon="0.33059">
        <ele>92.400001525879</ele>
        <time>2019-05-12T08:46:32.000Z</time>
      </trkpt>
      <trkpt lat="46.56376" lon="0.33075">
        <ele>92.800003051758</ele>
        <time>2019-05-12T08:46:35.000Z</time>
      </trkpt>
      <trkpt lat="46.56381" lon="0.33109">
        <ele>93.400001525879</ele>
        <time>2019-05-12T08:46:41.000Z</time>
      </trkpt>
      <trkpt lat="46.56382" lon="0.33115">
        <ele>93.599998474121</ele>
        <time>2019-05-12T08:46:42.000Z</time>
      </trkpt>
      <trkpt lat="46.56384" lon="0.33144">
        <ele>94</ele>
        <time>2019-05-12T08:46:47.000Z</time>
      </trkpt>
      <trkpt lat="46.56385" lon="0.33155">
        <ele>94.599998474121</ele>
        <time>2019-05-12T08:46:49.000Z</time>
      </trkpt>
      <trkpt lat="46.56386" lon="0.33169">
        <ele>95.800003051758</ele>
        <time>2019-05-12T08:46:52.000Z</time>
      </trkpt>
      <trkpt lat="46.56386" lon="0.33174">
        <ele>96</ele>
        <time>2019-05-12T08:46:53.000Z</time>
      </trkpt>
      <trkpt lat="46.56385" lon="0.33189">
        <ele>97</ele>
        <time>2019-05-12T08:46:56.000Z</time>
      </trkpt>
      <trkpt lat="46.56383" lon="0.33203">
        <ele>97.800003051758</ele>
        <time>2019-05-12T08:46:59.000Z</time>
      </trkpt>
      <trkpt lat="46.5638" lon="0.33217">
        <ele>98.199996948242</ele>
        <time>2019-05-12T08:47:02.000Z</time>
      </trkpt>
      <trkpt lat="46.56376" lon="0.33236">
        <ele>99</ele>
        <time>2019-05-12T08:47:06.000Z</time>
      </trkpt>
      <trkpt lat="46.56374" lon="0.33246">
        <ele>99.199996948242</ele>
        <time>2019-05-12T08:47:08.000Z</time>
      </trkpt>
      <trkpt lat="46.5637" lon="0.33274">
        <ele>99.599998474121</ele>
        <time>2019-05-12T08:47:13.000Z</time>
      </trkpt>
      <trkpt lat="46.56359" lon="0.33313">
        <ele>100</ele>
        <time>2019-05-12T08:47:20.000Z</time>
      </trkpt>
      <trkpt lat="46.56352" lon="0.33334">
        <ele>100.40000152588</ele>
        <time>2019-05-12T08:47:24.000Z</time>
      </trkpt>
      <trkpt lat="46.56347" lon="0.33349">
        <ele>100.40000152588</ele>
        <time>2019-05-12T08:47:27.000Z</time>
      </trkpt>
      <trkpt lat="46.56331" lon="0.3339">
        <ele>101</ele>
        <time>2019-05-12T08:47:35.000Z</time>
      </trkpt>
      <trkpt lat="46.56321" lon="0.33411">
        <ele>101.19999694824</ele>
        <time>2019-05-12T08:47:39.000Z</time>
      </trkpt>
      <trkpt lat="46.56312" lon="0.33431">
        <ele>102</ele>
        <time>2019-05-12T08:47:43.000Z</time>
      </trkpt>
      <trkpt lat="46.56304" lon="0.33461">
        <ele>102</ele>
        <time>2019-05-12T08:47:48.000Z</time>
      </trkpt>
      <trkpt lat="46.56303" lon="0.33467">
        <ele>102</ele>
        <time>2019-05-12T08:47:49.000Z</time>
      </trkpt>
      <trkpt lat="46.56303" lon="0.33494">
        <ele>102.19999694824</ele>
        <time>2019-05-12T08:47:53.000Z</time>
      </trkpt>
      <trkpt lat="46.56305" lon="0.33523">
        <ele>101.59999847412</ele>
        <time>2019-05-12T08:47:57.000Z</time>
      </trkpt>
      <trkpt lat="46.56306" lon="0.3353">
        <ele>101</ele>
        <time>2019-05-12T08:47:58.000Z</time>
      </trkpt>
      <trkpt lat="46.56308" lon="0.33559">
        <ele>100.19999694824</ele>
        <time>2019-05-12T08:48:02.000Z</time>
      </trkpt>
      <trkpt lat="46.5631" lon="0.33586">
        <ele>100</ele>
        <time>2019-05-12T08:48:06.000Z</time>
      </trkpt>
      <trkpt lat="46.5631" lon="0.33592">
        <ele>100</ele>
        <time>2019-05-12T08:48:07.000Z</time>
      </trkpt>
      <trkpt lat="46.56313" lon="0.33632">
        <ele>100.59999847412</ele>
        <time>2019-05-12T08:48:13.000Z</time>
      </trkpt>
      <trkpt lat="46.56315" lon="0.33662">
        <ele>101</ele>
        <time>2019-05-12T08:48:18.000Z</time>
      </trkpt>
      <trkpt lat="46.56316" lon="0.3368">
        <ele>101.19999694824</ele>
        <time>2019-05-12T08:48:21.000Z</time>
      </trkpt>
      <trkpt lat="46.56316" lon="0.3371">
        <ele>101.59999847412</ele>
        <time>2019-05-12T08:48:27.000Z</time>
      </trkpt>
      <trkpt lat="46.56311" lon="0.33714">
        <ele>102</ele>
        <time>2019-05-12T08:48:29.000Z</time>
      </trkpt>
      <trkpt lat="46.56308" lon="0.33715">
        <ele>102</ele>
        <time>2019-05-12T08:48:30.000Z</time>
      </trkpt>
      <trkpt lat="46.56304" lon="0.33715">
        <ele>102.19999694824</ele>
        <time>2019-05-12T08:48:31.000Z</time>
      </trkpt>
      <trkpt lat="46.56281" lon="0.33715">
        <ele>102.19999694824</ele>
        <time>2019-05-12T08:48:38.000Z</time>
      </trkpt>
      <trkpt lat="46.56261" lon="0.33713">
        <ele>101</ele>
        <time>2019-05-12T08:48:44.000Z</time>
      </trkpt>
      <trkpt lat="46.56256" lon="0.33713">
        <ele>100.59999847412</ele>
        <time>2019-05-12T08:48:45.000Z</time>
      </trkpt>
      <trkpt lat="46.56238" lon="0.33713">
        <ele>100</ele>
        <time>2019-05-12T08:48:48.000Z</time>
      </trkpt>
      <trkpt lat="46.56231" lon="0.33714">
        <ele>99.400001525879</ele>
        <time>2019-05-12T08:48:49.000Z</time>
      </trkpt>
      <trkpt lat="46.56223" lon="0.33715">
        <ele>98.599998474121</ele>
        <time>2019-05-12T08:48:50.000Z</time>
      </trkpt>
      <trkpt lat="46.56217" lon="0.33715">
        <ele>97.599998474121</ele>
        <time>2019-05-12T08:48:51.000Z</time>
      </trkpt>
      <trkpt lat="46.56211" lon="0.33715">
        <ele>97.199996948242</ele>
        <time>2019-05-12T08:48:52.000Z</time>
      </trkpt>
      <trkpt lat="46.56201" lon="0.33716">
        <ele>97.400001525879</ele>
        <time>2019-05-12T08:48:54.000Z</time>
      </trkpt>
      <trkpt lat="46.56193" lon="0.3372">
        <ele>98.800003051758</ele>
        <time>2019-05-12T08:48:56.000Z</time>
      </trkpt>
      <trkpt lat="46.56187" lon="0.33725">
        <ele>100</ele>
        <time>2019-05-12T08:48:58.000Z</time>
      </trkpt>
      <trkpt lat="46.5618" lon="0.33732">
        <ele>101.40000152588</ele>
        <time>2019-05-12T08:49:01.000Z</time>
      </trkpt>
      <trkpt lat="46.56171" lon="0.33741">
        <ele>102.40000152588</ele>
        <time>2019-05-12T08:49:04.000Z</time>
      </trkpt>
      <trkpt lat="46.56165" lon="0.33749">
        <ele>103</ele>
        <time>2019-05-12T08:49:07.000Z</time>
      </trkpt>
      <trkpt lat="46.56159" lon="0.33753">
        <ele>103.40000152588</ele>
        <time>2019-05-12T08:49:09.000Z</time>
      </trkpt>
      <trkpt lat="46.56148" lon="0.33763">
        <ele>104</ele>
        <time>2019-05-12T08:49:13.000Z</time>
      </trkpt>
      <trkpt lat="46.56141" lon="0.3377">
        <ele>104.40000152588</ele>
        <time>2019-05-12T08:49:16.000Z</time>
      </trkpt>
      <trkpt lat="46.56138" lon="0.3377">
        <ele>104.40000152588</ele>
        <time>2019-05-12T08:49:18.000Z</time>
      </trkpt>
      <trkpt lat="46.56137" lon="0.33769">
        <ele>104.59999847412</ele>
        <time>2019-05-12T08:49:19.000Z</time>
      </trkpt>
      <trkpt lat="46.56134" lon="0.33767">
        <ele>104.80000305176</ele>
        <time>2019-05-12T08:49:21.000Z</time>
      </trkpt>
      <trkpt lat="46.56129" lon="0.33765">
        <ele>105.19999694824</ele>
        <time>2019-05-12T08:49:23.000Z</time>
      </trkpt>
      <trkpt lat="46.56128" lon="0.33764">
        <ele>105.40000152588</ele>
        <time>2019-05-12T08:49:24.000Z</time>
      </trkpt>
      <trkpt lat="46.56127" lon="0.33763">
        <ele>105.59999847412</ele>
        <time>2019-05-12T08:49:26.000Z</time>
      </trkpt>
      <trkpt lat="46.56138" lon="0.33759">
        <ele>104.40000152588</ele>
        <time>2019-05-12T08:49:31.000Z</time>
      </trkpt>
      <trkpt lat="46.56143" lon="0.33756">
        <ele>103</ele>
        <time>2019-05-12T08:49:34.000Z</time>
      </trkpt>
      <trkpt lat="46.56143" lon="0.33754">
        <ele>102.80000305176</ele>
        <time>2019-05-12T08:49:35.000Z</time>
      </trkpt>
      <trkpt lat="46.56147" lon="0.33748">
        <ele>101.59999847412</ele>
        <time>2019-05-12T08:49:38.000Z</time>
      </trkpt>
      <trkpt lat="46.56151" lon="0.33742">
        <ele>100.80000305176</ele>
        <time>2019-05-12T08:49:40.000Z</time>
      </trkpt>
      <trkpt lat="46.56153" lon="0.33738">
        <ele>99.800003051758</ele>
        <time>2019-05-12T08:49:41.000Z</time>
      </trkpt>
      <trkpt lat="46.56154" lon="0.33734">
        <ele>98.800003051758</ele>
        <time>2019-05-12T08:49:42.000Z</time>
      </trkpt>
      <trkpt lat="46.56155" lon="0.33732">
        <ele>97.800003051758</ele>
        <time>2019-05-12T08:49:43.000Z</time>
      </trkpt>
      <trkpt lat="46.56155" lon="0.33727">
        <ele>96.599998474121</ele>
        <time>2019-05-12T08:49:44.000Z</time>
      </trkpt>
      <trkpt lat="46.56155" lon="0.33724">
        <ele>95.599998474121</ele>
        <time>2019-05-12T08:49:45.000Z</time>
      </trkpt>
      <trkpt lat="46.56154" lon="0.33718">
        <ele>93.199996948242</ele>
        <time>2019-05-12T08:49:47.000Z</time>
      </trkpt>
      <trkpt lat="46.56153" lon="0.33714">
        <ele>92.199996948242</ele>
        <time>2019-05-12T08:49:48.000Z</time>
      </trkpt>
      <trkpt lat="46.56152" lon="0.33711">
        <ele>91.199996948242</ele>
        <time>2019-05-12T08:49:49.000Z</time>
      </trkpt>
      <trkpt lat="46.56151" lon="0.33708">
        <ele>90</ele>
        <time>2019-05-12T08:49:50.000Z</time>
      </trkpt>
      <trkpt lat="46.5615" lon="0.33705">
        <ele>87.800003051758</ele>
        <time>2019-05-12T08:49:51.000Z</time>
      </trkpt>
      <trkpt lat="46.5615" lon="0.33703">
        <ele>86.199996948242</ele>
        <time>2019-05-12T08:49:52.000Z</time>
      </trkpt>
      <trkpt lat="46.56152" lon="0.33702">
        <ele>85.199996948242</ele>
        <time>2019-05-12T08:49:53.000Z</time>
      </trkpt>
      <trkpt lat="46.56153" lon="0.337">
        <ele>84.800003051758</ele>
        <time>2019-05-12T08:49:54.000Z</time>
      </trkpt>
      <trkpt lat="46.56155" lon="0.33697">
        <ele>84.400001525879</ele>
        <time>2019-05-12T08:49:56.000Z</time>
      </trkpt>
      <trkpt lat="46.5616" lon="0.33695">
        <ele>84.400001525879</ele>
        <time>2019-05-12T08:49:59.000Z</time>
      </trkpt>
      <trkpt lat="46.56165" lon="0.33691">
        <ele>85.400001525879</ele>
        <time>2019-05-12T08:50:02.000Z</time>
      </trkpt>
      <trkpt lat="46.56167" lon="0.33689">
        <ele>85.800003051758</ele>
        <time>2019-05-12T08:50:03.000Z</time>
      </trkpt>
      <trkpt lat="46.56175" lon="0.33683">
        <ele>86.800003051758</ele>
        <time>2019-05-12T08:50:07.000Z</time>
      </trkpt>
      <trkpt lat="46.56185" lon="0.33678">
        <ele>88</ele>
        <time>2019-05-12T08:50:12.000Z</time>
      </trkpt>
      <trkpt lat="46.56195" lon="0.33677">
        <ele>89.400001525879</ele>
        <time>2019-05-12T08:50:17.000Z</time>
      </trkpt>
      <trkpt lat="46.56196" lon="0.33676">
        <ele>89.400001525879</ele>
        <time>2019-05-12T08:50:18.000Z</time>
      </trkpt>
      <trkpt lat="46.56204" lon="0.33674">
        <ele>90.199996948242</ele>
        <time>2019-05-12T08:50:23.000Z</time>
      </trkpt>
      <trkpt lat="46.56205" lon="0.33673">
        <ele>90.199996948242</ele>
        <time>2019-05-12T08:50:24.000Z</time>
      </trkpt>
      <trkpt lat="46.5621" lon="0.33663">
        <ele>89</ele>
        <time>2019-05-12T08:50:28.000Z</time>
      </trkpt>
      <trkpt lat="46.56211" lon="0.33662">
        <ele>88.199996948242</ele>
        <time>2019-05-12T08:50:29.000Z</time>
      </trkpt>
      <trkpt lat="46.56212" lon="0.33662">
        <ele>87.800003051758</ele>
        <time>2019-05-12T08:50:30.000Z</time>
      </trkpt>
      <trkpt lat="46.56213" lon="0.33649">
        <ele>87.199996948242</ele>
        <time>2019-05-12T08:50:57.000Z</time>
      </trkpt>
      <trkpt lat="46.56213" lon="0.33642">
        <ele>87</ele>
        <time>2019-05-12T08:50:58.000Z</time>
      </trkpt>
      <trkpt lat="46.56211" lon="0.33628">
        <ele>85.599998474121</ele>
        <time>2019-05-12T08:51:00.000Z</time>
      </trkpt>
      <trkpt lat="46.56211" lon="0.3362">
        <ele>84.599998474121</ele>
        <time>2019-05-12T08:51:01.000Z</time>
      </trkpt>
      <trkpt lat="46.56212" lon="0.33612">
        <ele>83.599998474121</ele>
        <time>2019-05-12T08:51:02.000Z</time>
      </trkpt>
      <trkpt lat="46.56213" lon="0.33603">
        <ele>82.599998474121</ele>
        <time>2019-05-12T08:51:03.000Z</time>
      </trkpt>
      <trkpt lat="46.56214" lon="0.33595">
        <ele>81.400001525879</ele>
        <time>2019-05-12T08:51:04.000Z</time>
      </trkpt>
      <trkpt lat="46.56216" lon="0.33588">
        <ele>80.199996948242</ele>
        <time>2019-05-12T08:51:05.000Z</time>
      </trkpt>
      <trkpt lat="46.56218" lon="0.33581">
        <ele>78.800003051758</ele>
        <time>2019-05-12T08:51:06.000Z</time>
      </trkpt>
      <trkpt lat="46.5622" lon="0.33575">
        <ele>77.599998474121</ele>
        <time>2019-05-12T08:51:07.000Z</time>
      </trkpt>
      <trkpt lat="46.56221" lon="0.33571">
        <ele>76.599998474121</ele>
        <time>2019-05-12T08:51:08.000Z</time>
      </trkpt>
      <trkpt lat="46.56221" lon="0.33569">
        <ele>75.400001525879</ele>
        <time>2019-05-12T08:51:09.000Z</time>
      </trkpt>
      <trkpt lat="46.5622" lon="0.33569">
        <ele>74.599998474121</ele>
        <time>2019-05-12T08:51:10.000Z</time>
      </trkpt>
      <trkpt lat="46.56219" lon="0.3357">
        <ele>74</ele>
        <time>2019-05-12T08:51:11.000Z</time>
      </trkpt>
      <trkpt lat="46.56213" lon="0.33579">
        <ele>73.400001525879</ele>
        <time>2019-05-12T08:51:14.000Z</time>
      </trkpt>
      <trkpt lat="46.56209" lon="0.33585">
        <ele>73</ele>
        <time>2019-05-12T08:51:16.000Z</time>
      </trkpt>
      <trkpt lat="46.56206" lon="0.33588">
        <ele>72.800003051758</ele>
        <time>2019-05-12T08:51:17.000Z</time>
      </trkpt>
      <trkpt lat="46.56202" lon="0.33591">
        <ele>72.800003051758</ele>
        <time>2019-05-12T08:51:18.000Z</time>
      </trkpt>
      <trkpt lat="46.56187" lon="0.33597">
        <ele>71.599998474121</ele>
        <time>2019-05-12T08:51:21.000Z</time>
      </trkpt>
      <trkpt lat="46.56182" lon="0.33596">
        <ele>70.800003051758</ele>
        <time>2019-05-12T08:51:22.000Z</time>
      </trkpt>
      <trkpt lat="46.56178" lon="0.33597">
        <ele>69.599998474121</ele>
        <time>2019-05-12T08:51:23.000Z</time>
      </trkpt>
      <trkpt lat="46.56172" lon="0.33602">
        <ele>68.599998474121</ele>
        <time>2019-05-12T08:51:25.000Z</time>
      </trkpt>
      <trkpt lat="46.56168" lon="0.33606">
        <ele>68.199996948242</ele>
        <time>2019-05-12T08:51:26.000Z</time>
      </trkpt>
      <trkpt lat="46.56159" lon="0.33617">
        <ele>67.800003051758</ele>
        <time>2019-05-12T08:51:29.000Z</time>
      </trkpt>
      <trkpt lat="46.56145" lon="0.33628">
        <ele>67.599998474121</ele>
        <time>2019-05-12T08:51:33.000Z</time>
      </trkpt>
      <trkpt lat="46.56141" lon="0.33631">
        <ele>67.800003051758</ele>
        <time>2019-05-12T08:51:34.000Z</time>
      </trkpt>
      <trkpt lat="46.56136" lon="0.33633">
        <ele>67.800003051758</ele>
        <time>2019-05-12T08:51:35.000Z</time>
      </trkpt>
      <trkpt lat="46.56117" lon="0.3365">
        <ele>67.599998474121</ele>
        <time>2019-05-12T08:51:39.000Z</time>
      </trkpt>
      <trkpt lat="46.56113" lon="0.33655">
        <ele>67.400001525879</ele>
        <time>2019-05-12T08:51:40.000Z</time>
      </trkpt>
      <trkpt lat="46.56109" lon="0.3366">
        <ele>67.400001525879</ele>
        <time>2019-05-12T08:51:41.000Z</time>
      </trkpt>
      <trkpt lat="46.561" lon="0.33669">
        <ele>67.400001525879</ele>
        <time>2019-05-12T08:51:43.000Z</time>
      </trkpt>
      <trkpt lat="46.56096" lon="0.33672">
        <ele>67.400001525879</ele>
        <time>2019-05-12T08:51:44.000Z</time>
      </trkpt>
      <trkpt lat="46.56092" lon="0.33676">
        <ele>67.400001525879</ele>
        <time>2019-05-12T08:51:45.000Z</time>
      </trkpt>
      <trkpt lat="46.56084" lon="0.33685">
        <ele>67.400001525879</ele>
        <time>2019-05-12T08:51:47.000Z</time>
      </trkpt>
      <trkpt lat="46.56075" lon="0.33694">
        <ele>67.199996948242</ele>
        <time>2019-05-12T08:51:49.000Z</time>
      </trkpt>
      <trkpt lat="46.56067" lon="0.33702">
        <ele>67</ele>
        <time>2019-05-12T08:51:51.000Z</time>
      </trkpt>
      <trkpt lat="46.56054" lon="0.33715">
        <ele>67.199996948242</ele>
        <time>2019-05-12T08:51:55.000Z</time>
      </trkpt>
      <trkpt lat="46.56038" lon="0.33731">
        <ele>67</ele>
        <time>2019-05-12T08:51:59.000Z</time>
      </trkpt>
      <trkpt lat="46.5602" lon="0.33751">
        <ele>67</ele>
        <time>2019-05-12T08:52:03.000Z</time>
      </trkpt>
      <trkpt lat="46.56016" lon="0.33754">
        <ele>67.199996948242</ele>
        <time>2019-05-12T08:52:04.000Z</time>
      </trkpt>
      <trkpt lat="46.56002" lon="0.33765">
        <ele>67.199996948242</ele>
        <time>2019-05-12T08:52:07.000Z</time>
      </trkpt>
      <trkpt lat="46.55998" lon="0.33769">
        <ele>67</ele>
        <time>2019-05-12T08:52:08.000Z</time>
      </trkpt>
      <trkpt lat="46.55991" lon="0.3378">
        <ele>67.199996948242</ele>
        <time>2019-05-12T08:52:10.000Z</time>
      </trkpt>
      <trkpt lat="46.55987" lon="0.33787">
        <ele>67.199996948242</ele>
        <time>2019-05-12T08:52:11.000Z</time>
      </trkpt>
      <trkpt lat="46.55968" lon="0.33805">
        <ele>67.599998474121</ele>
        <time>2019-05-12T08:52:16.000Z</time>
      </trkpt>
      <trkpt lat="46.55949" lon="0.33825">
        <ele>67.599998474121</ele>
        <time>2019-05-12T08:52:20.000Z</time>
      </trkpt>
      <trkpt lat="46.55945" lon="0.33831">
        <ele>67.599998474121</ele>
        <time>2019-05-12T08:52:21.000Z</time>
      </trkpt>
      <trkpt lat="46.55932" lon="0.33849">
        <ele>68.199996948242</ele>
        <time>2019-05-12T08:52:24.000Z</time>
      </trkpt>
      <trkpt lat="46.55905" lon="0.3387">
        <ele>68.599998474121</ele>
        <time>2019-05-12T08:52:29.000Z</time>
      </trkpt>
      <trkpt lat="46.55884" lon="0.33883">
        <ele>68.599998474121</ele>
        <time>2019-05-12T08:52:32.000Z</time>
      </trkpt>
      <trkpt lat="46.55872" lon="0.33891">
        <ele>68.599998474121</ele>
        <time>2019-05-12T08:52:34.000Z</time>
      </trkpt>
      <trkpt lat="46.55853" lon="0.33889">
        <ele>69</ele>
        <time>2019-05-12T08:52:37.000Z</time>
      </trkpt>
      <trkpt lat="46.55847" lon="0.33886">
        <ele>69.400001525879</ele>
        <time>2019-05-12T08:52:38.000Z</time>
      </trkpt>
      <trkpt lat="46.55814" lon="0.33871">
        <ele>68.800003051758</ele>
        <time>2019-05-12T08:52:43.000Z</time>
      </trkpt>
      <trkpt lat="46.55808" lon="0.33868">
        <ele>68.400001525879</ele>
        <time>2019-05-12T08:52:44.000Z</time>
      </trkpt>
      <trkpt lat="46.55801" lon="0.33866">
        <ele>68.199996948242</ele>
        <time>2019-05-12T08:52:45.000Z</time>
      </trkpt>
      <trkpt lat="46.55795" lon="0.33863">
        <ele>68.199996948242</ele>
        <time>2019-05-12T08:52:46.000Z</time>
      </trkpt>
      <trkpt lat="46.55778" lon="0.33862">
        <ele>67.599998474121</ele>
        <time>2019-05-12T08:52:49.000Z</time>
      </trkpt>
      <trkpt lat="46.55771" lon="0.33867">
        <ele>67.199996948242</ele>
        <time>2019-05-12T08:52:51.000Z</time>
      </trkpt>
      <trkpt lat="46.55765" lon="0.33871">
        <ele>66.800003051758</ele>
        <time>2019-05-12T08:52:52.000Z</time>
      </trkpt>
      <trkpt lat="46.5576" lon="0.33874">
        <ele>66.599998474121</ele>
        <time>2019-05-12T08:52:53.000Z</time>
      </trkpt>
      <trkpt lat="46.55754" lon="0.33875">
        <ele>66.599998474121</ele>
        <time>2019-05-12T08:52:54.000Z</time>
      </trkpt>
      <trkpt lat="46.55732" lon="0.33889">
        <ele>66.599998474121</ele>
        <time>2019-05-12T08:52:57.000Z</time>
      </trkpt>
      <trkpt lat="46.55725" lon="0.33894">
        <ele>66.599998474121</ele>
        <time>2019-05-12T08:52:58.000Z</time>
      </trkpt>
      <trkpt lat="46.55705" lon="0.33904">
        <ele>66.599998474121</ele>
        <time>2019-05-12T08:53:01.000Z</time>
      </trkpt>
      <trkpt lat="46.55688" lon="0.33912">
        <ele>66.599998474121</ele>
        <time>2019-05-12T08:53:04.000Z</time>
      </trkpt>
      <trkpt lat="46.55675" lon="0.33915">
        <ele>65.800003051758</ele>
        <time>2019-05-12T08:53:06.000Z</time>
      </trkpt>
      <trkpt lat="46.55645" lon="0.33921">
        <ele>65.400001525879</ele>
        <time>2019-05-12T08:53:11.000Z</time>
      </trkpt>
      <trkpt lat="46.55634" lon="0.3392">
        <ele>65.599998474121</ele>
        <time>2019-05-12T08:53:13.000Z</time>
      </trkpt>
      <trkpt lat="46.55617" lon="0.33914">
        <ele>65.400001525879</ele>
        <time>2019-05-12T08:53:16.000Z</time>
      </trkpt>
      <trkpt lat="46.55608" lon="0.33909">
        <ele>65</ele>
        <time>2019-05-12T08:53:19.000Z</time>
      </trkpt>
      <trkpt lat="46.55605" lon="0.33909">
        <ele>64.800003051758</ele>
        <time>2019-05-12T08:53:20.000Z</time>
      </trkpt>
      <trkpt lat="46.55596" lon="0.33906">
        <ele>64.599998474121</ele>
        <time>2019-05-12T08:53:24.000Z</time>
      </trkpt>
      <trkpt lat="46.55578" lon="0.33894">
        <ele>65</ele>
        <time>2019-05-12T08:53:29.000Z</time>
      </trkpt>
      <trkpt lat="46.55573" lon="0.33891">
        <ele>65.199996948242</ele>
        <time>2019-05-12T08:53:30.000Z</time>
      </trkpt>
      <trkpt lat="46.55556" lon="0.33874">
        <ele>65.400001525879</ele>
        <time>2019-05-12T08:53:34.000Z</time>
      </trkpt>
      <trkpt lat="46.55549" lon="0.33863">
        <ele>65.400001525879</ele>
        <time>2019-05-12T08:53:36.000Z</time>
      </trkpt>
      <trkpt lat="46.55542" lon="0.33851">
        <ele>65.400001525879</ele>
        <time>2019-05-12T08:53:38.000Z</time>
      </trkpt>
      <trkpt lat="46.55534" lon="0.33841">
        <ele>65.400001525879</ele>
        <time>2019-05-12T08:53:40.000Z</time>
      </trkpt>
      <trkpt lat="46.55522" lon="0.33826">
        <ele>65.599998474121</ele>
        <time>2019-05-12T08:53:43.000Z</time>
      </trkpt>
      <trkpt lat="46.55514" lon="0.33815">
        <ele>65.800003051758</ele>
        <time>2019-05-12T08:53:45.000Z</time>
      </trkpt>
      <trkpt lat="46.555" lon="0.338">
        <ele>65.400001525879</ele>
        <time>2019-05-12T08:53:48.000Z</time>
      </trkpt>
      <trkpt lat="46.55491" lon="0.33791">
        <ele>65.599998474121</ele>
        <time>2019-05-12T08:53:50.000Z</time>
      </trkpt>
      <trkpt lat="46.55487" lon="0.33787">
        <ele>65.599998474121</ele>
        <time>2019-05-12T08:53:51.000Z</time>
      </trkpt>
      <trkpt lat="46.55472" lon="0.3378">
        <ele>66</ele>
        <time>2019-05-12T08:53:54.000Z</time>
      </trkpt>
      <trkpt lat="46.55466" lon="0.33778">
        <ele>66</ele>
        <time>2019-05-12T08:53:55.000Z</time>
      </trkpt>
      <trkpt lat="46.55433" lon="0.33771">
        <ele>65.599998474121</ele>
        <time>2019-05-12T08:54:01.000Z</time>
      </trkpt>
      <trkpt lat="46.55399" lon="0.33767">
        <ele>65.599998474121</ele>
        <time>2019-05-12T08:54:07.000Z</time>
      </trkpt>
      <trkpt lat="46.55382" lon="0.33764">
        <ele>65.199996948242</ele>
        <time>2019-05-12T08:54:11.000Z</time>
      </trkpt>
      <trkpt lat="46.55373" lon="0.33761">
        <ele>65</ele>
        <time>2019-05-12T08:54:14.000Z</time>
      </trkpt>
      <trkpt lat="46.55367" lon="0.33757">
        <ele>65</ele>
        <time>2019-05-12T08:54:16.000Z</time>
      </trkpt>
      <trkpt lat="46.55358" lon="0.33747">
        <ele>65</ele>
        <time>2019-05-12T08:54:20.000Z</time>
      </trkpt>
      <trkpt lat="46.55355" lon="0.33746">
        <ele>65</ele>
        <time>2019-05-12T08:54:21.000Z</time>
      </trkpt>
      <trkpt lat="46.55339" lon="0.3374">
        <ele>65.599998474121</ele>
        <time>2019-05-12T08:54:26.000Z</time>
      </trkpt>
      <trkpt lat="46.5533" lon="0.33739">
        <ele>65.800003051758</ele>
        <time>2019-05-12T08:54:28.000Z</time>
      </trkpt>
      <trkpt lat="46.55314" lon="0.3374">
        <ele>65.400001525879</ele>
        <time>2019-05-12T08:54:31.000Z</time>
      </trkpt>
      <trkpt lat="46.55284" lon="0.33739">
        <ele>65.400001525879</ele>
        <time>2019-05-12T08:54:38.000Z</time>
      </trkpt>
      <trkpt lat="46.55264" lon="0.33739">
        <ele>65.400001525879</ele>
        <time>2019-05-12T08:54:43.000Z</time>
      </trkpt>
      <trkpt lat="46.55257" lon="0.3374">
        <ele>65.400001525879</ele>
        <time>2019-05-12T08:54:45.000Z</time>
      </trkpt>
      <trkpt lat="46.55245" lon="0.3374">
        <ele>65.400001525879</ele>
        <time>2019-05-12T08:54:49.000Z</time>
      </trkpt>
      <trkpt lat="46.55239" lon="0.3374">
        <ele>65.199996948242</ele>
        <time>2019-05-12T08:54:51.000Z</time>
      </trkpt>
      <trkpt lat="46.5522" lon="0.3374">
        <ele>65.400001525879</ele>
        <time>2019-05-12T08:54:56.000Z</time>
      </trkpt>
      <trkpt lat="46.55206" lon="0.3374">
        <ele>65.800003051758</ele>
        <time>2019-05-12T08:54:59.000Z</time>
      </trkpt>
      <trkpt lat="46.55192" lon="0.33741">
        <ele>66</ele>
        <time>2019-05-12T08:55:02.000Z</time>
      </trkpt>
      <trkpt lat="46.55183" lon="0.3374">
        <ele>65.800003051758</ele>
        <time>2019-05-12T08:55:04.000Z</time>
      </trkpt>
      <trkpt lat="46.5517" lon="0.33738">
        <ele>65.599998474121</ele>
        <time>2019-05-12T08:55:07.000Z</time>
      </trkpt>
      <trkpt lat="46.5515" lon="0.33736">
        <ele>65.400001525879</ele>
        <time>2019-05-12T08:55:12.000Z</time>
      </trkpt>
      <trkpt lat="46.55145" lon="0.33735">
        <ele>65.400001525879</ele>
        <time>2019-05-12T08:55:13.000Z</time>
      </trkpt>
      <trkpt lat="46.55113" lon="0.3373">
        <ele>65.599998474121</ele>
        <time>2019-05-12T08:55:20.000Z</time>
      </trkpt>
      <trkpt lat="46.55094" lon="0.33727">
        <ele>66</ele>
        <time>2019-05-12T08:55:24.000Z</time>
      </trkpt>
      <trkpt lat="46.55085" lon="0.33726">
        <ele>66.199996948242</ele>
        <time>2019-05-12T08:55:26.000Z</time>
      </trkpt>
      <trkpt lat="46.55053" lon="0.33719">
        <ele>66.199996948242</ele>
        <time>2019-05-12T08:55:33.000Z</time>
      </trkpt>
      <trkpt lat="46.55046" lon="0.33719">
        <ele>66.199996948242</ele>
        <time>2019-05-12T08:55:35.000Z</time>
      </trkpt>
      <trkpt lat="46.55041" lon="0.3372">
        <ele>66.199996948242</ele>
        <time>2019-05-12T08:55:37.000Z</time>
      </trkpt>
      <trkpt lat="46.55028" lon="0.3372">
        <ele>66</ele>
        <time>2019-05-12T08:55:41.000Z</time>
      </trkpt>
      <trkpt lat="46.55022" lon="0.33735">
        <ele>66.400001525879</ele>
        <time>2019-05-12T08:55:45.000Z</time>
      </trkpt>
      <trkpt lat="46.55021" lon="0.33739">
        <ele>66.400001525879</ele>
        <time>2019-05-12T08:55:46.000Z</time>
      </trkpt>
      <trkpt lat="46.55019" lon="0.33755">
        <ele>66.199996948242</ele>
        <time>2019-05-12T08:55:50.000Z</time>
      </trkpt>
      <trkpt lat="46.55016" lon="0.33775">
        <ele>65.599998474121</ele>
        <time>2019-05-12T08:55:55.000Z</time>
      </trkpt>
      <trkpt lat="46.55009" lon="0.33778">
        <ele>66</ele>
        <time>2019-05-12T08:55:58.000Z</time>
      </trkpt>
      <trkpt lat="46.55006" lon="0.33779">
        <ele>66.199996948242</ele>
        <time>2019-05-12T08:56:00.000Z</time>
      </trkpt>
      <trkpt lat="46.55004" lon="0.33782">
        <ele>66.800003051758</ele>
        <time>2019-05-12T08:56:04.000Z</time>
      </trkpt>
      <trkpt lat="46.55001" lon="0.33781">
        <ele>66.599998474121</ele>
        <time>2019-05-12T08:56:17.000Z</time>
      </trkpt>
      <trkpt lat="46.54998" lon="0.3378">
        <ele>66.800003051758</ele>
        <time>2019-05-12T08:56:19.000Z</time>
      </trkpt>
      <trkpt lat="46.54998" lon="0.33781">
        <ele>66.800003051758</ele>
        <time>2019-05-12T08:56:20.000Z</time>
      </trkpt>
      <trkpt lat="46.54997" lon="0.33782">
        <ele>67</ele>
        <time>2019-05-12T08:56:23.000Z</time>
      </trkpt>
      <trkpt lat="46.54996" lon="0.33792">
        <ele>67.800003051758</ele>
        <time>2019-05-12T08:58:03.000Z</time>
      </trkpt>
      <trkpt lat="46.54996" lon="0.33796">
        <ele>67.800003051758</ele>
        <time>2019-05-12T08:58:04.000Z</time>
      </trkpt>
      <trkpt lat="46.54997" lon="0.33808">
        <ele>68</ele>
        <time>2019-05-12T08:58:07.000Z</time>
      </trkpt>
      <trkpt lat="46.54997" lon="0.33812">
        <ele>68</ele>
        <time>2019-05-12T08:58:08.000Z</time>
      </trkpt>
      <trkpt lat="46.54997" lon="0.33825">
        <ele>68</ele>
        <time>2019-05-12T08:58:11.000Z</time>
      </trkpt>
      <trkpt lat="46.54997" lon="0.33834">
        <ele>68</ele>
        <time>2019-05-12T08:58:13.000Z</time>
      </trkpt>
      <trkpt lat="46.54995" lon="0.33853">
        <ele>68</ele>
        <time>2019-05-12T08:58:17.000Z</time>
      </trkpt>
      <trkpt lat="46.54994" lon="0.33858">
        <ele>68</ele>
        <time>2019-05-12T08:58:18.000Z</time>
      </trkpt>
      <trkpt lat="46.54991" lon="0.33884">
        <ele>67.800003051758</ele>
        <time>2019-05-12T08:58:23.000Z</time>
      </trkpt>
      <trkpt lat="46.54986" lon="0.3392">
        <ele>67.599998474121</ele>
        <time>2019-05-12T08:58:30.000Z</time>
      </trkpt>
      <trkpt lat="46.54983" lon="0.33939">
        <ele>67.599998474121</ele>
        <time>2019-05-12T08:58:35.000Z</time>
      </trkpt>
      <trkpt lat="46.54982" lon="0.33966">
        <ele>68.199996948242</ele>
        <time>2019-05-12T08:58:41.000Z</time>
      </trkpt>
      <trkpt lat="46.54981" lon="0.33975">
        <ele>68.800003051758</ele>
        <time>2019-05-12T08:58:43.000Z</time>
      </trkpt>
      <trkpt lat="46.54977" lon="0.33988">
        <ele>69.400001525879</ele>
        <time>2019-05-12T08:58:46.000Z</time>
      </trkpt>
      <trkpt lat="46.54972" lon="0.34004">
        <ele>69.800003051758</ele>
        <time>2019-05-12T08:58:50.000Z</time>
      </trkpt>
      <trkpt lat="46.54969" lon="0.34017">
        <ele>70.199996948242</ele>
        <time>2019-05-12T08:58:53.000Z</time>
      </trkpt>
      <trkpt lat="46.54969" lon="0.34032">
        <ele>70.800003051758</ele>
        <time>2019-05-12T08:58:57.000Z</time>
      </trkpt>
      <trkpt lat="46.54967" lon="0.34041">
        <ele>71.400001525879</ele>
        <time>2019-05-12T08:59:00.000Z</time>
      </trkpt>
      <trkpt lat="46.54959" lon="0.34068">
        <ele>71.400001525879</ele>
        <time>2019-05-12T08:59:06.000Z</time>
      </trkpt>
      <trkpt lat="46.54951" lon="0.34092">
        <ele>70.800003051758</ele>
        <time>2019-05-12T08:59:11.000Z</time>
      </trkpt>
      <trkpt lat="46.5495" lon="0.34097">
        <ele>70.800003051758</ele>
        <time>2019-05-12T08:59:12.000Z</time>
      </trkpt>
      <trkpt lat="46.54951" lon="0.34114">
        <ele>70.800003051758</ele>
        <time>2019-05-12T08:59:15.000Z</time>
      </trkpt>
      <trkpt lat="46.5495" lon="0.34126">
        <ele>71</ele>
        <time>2019-05-12T08:59:17.000Z</time>
      </trkpt>
      <trkpt lat="46.54947" lon="0.34142">
        <ele>71</ele>
        <time>2019-05-12T08:59:20.000Z</time>
      </trkpt>
      <trkpt lat="46.54945" lon="0.34148">
        <ele>71</ele>
        <time>2019-05-12T08:59:21.000Z</time>
      </trkpt>
      <trkpt lat="46.54942" lon="0.34165">
        <ele>70.599998474121</ele>
        <time>2019-05-12T08:59:24.000Z</time>
      </trkpt>
      <trkpt lat="46.54943" lon="0.3417">
        <ele>70.599998474121</ele>
        <time>2019-05-12T08:59:25.000Z</time>
      </trkpt>
      <trkpt lat="46.54953" lon="0.34192">
        <ele>70.199996948242</ele>
        <time>2019-05-12T08:59:29.000Z</time>
      </trkpt>
      <trkpt lat="46.54976" lon="0.34235">
        <ele>70</ele>
        <time>2019-05-12T08:59:37.000Z</time>
      </trkpt>
      <trkpt lat="46.5499" lon="0.34242">
        <ele>70.199996948242</ele>
        <time>2019-05-12T08:59:41.000Z</time>
      </trkpt>
      <trkpt lat="46.54998" lon="0.34252">
        <ele>70.599998474121</ele>
        <time>2019-05-12T08:59:44.000Z</time>
      </trkpt>
      <trkpt lat="46.54999" lon="0.34257">
        <ele>70.800003051758</ele>
        <time>2019-05-12T08:59:45.000Z</time>
      </trkpt>
      <trkpt lat="46.55007" lon="0.3429">
        <ele>71</ele>
        <time>2019-05-12T08:59:51.000Z</time>
      </trkpt>
      <trkpt lat="46.55011" lon="0.34302">
        <ele>71</ele>
        <time>2019-05-12T08:59:53.000Z</time>
      </trkpt>
      <trkpt lat="46.55021" lon="0.34322">
        <ele>71</ele>
        <time>2019-05-12T08:59:57.000Z</time>
      </trkpt>
      <trkpt lat="46.5503" lon="0.34335">
        <ele>71</ele>
        <time>2019-05-12T09:00:00.000Z</time>
      </trkpt>
      <trkpt lat="46.5504" lon="0.34346">
        <ele>71</ele>
        <time>2019-05-12T09:00:03.000Z</time>
      </trkpt>
      <trkpt lat="46.55047" lon="0.34354">
        <ele>70.800003051758</ele>
        <time>2019-05-12T09:00:05.000Z</time>
      </trkpt>
      <trkpt lat="46.55051" lon="0.34365">
        <ele>70.599998474121</ele>
        <time>2019-05-12T09:00:07.000Z</time>
      </trkpt>
      <trkpt lat="46.55049" lon="0.34384">
        <ele>69.800003051758</ele>
        <time>2019-05-12T09:00:10.000Z</time>
      </trkpt>
      <trkpt lat="46.55049" lon="0.34389">
        <ele>69.800003051758</ele>
        <time>2019-05-12T09:00:11.000Z</time>
      </trkpt>
      <trkpt lat="46.55051" lon="0.34391">
        <ele>69.599998474121</ele>
        <time>2019-05-12T09:00:12.000Z</time>
      </trkpt>
      <trkpt lat="46.55053" lon="0.34394">
        <ele>69.599998474121</ele>
        <time>2019-05-12T09:00:13.000Z</time>
      </trkpt>
      <trkpt lat="46.55056" lon="0.34397">
        <ele>69.400001525879</ele>
        <time>2019-05-12T09:00:14.000Z</time>
      </trkpt>
      <trkpt lat="46.55058" lon="0.3441">
        <ele>69</ele>
        <time>2019-05-12T09:00:17.000Z</time>
      </trkpt>
      <trkpt lat="46.55057" lon="0.34419">
        <ele>69.199996948242</ele>
        <time>2019-05-12T09:00:19.000Z</time>
      </trkpt>
      <trkpt lat="46.55056" lon="0.34436">
        <ele>70</ele>
        <time>2019-05-12T09:00:23.000Z</time>
      </trkpt>
      <trkpt lat="46.55057" lon="0.34441">
        <ele>70.400001525879</ele>
        <time>2019-05-12T09:00:24.000Z</time>
      </trkpt>
      <trkpt lat="46.55058" lon="0.34445">
        <ele>70.599998474121</ele>
        <time>2019-05-12T09:00:25.000Z</time>
      </trkpt>
      <trkpt lat="46.5506" lon="0.34448">
        <ele>70.599998474121</ele>
        <time>2019-05-12T09:00:26.000Z</time>
      </trkpt>
      <trkpt lat="46.55069" lon="0.34454">
        <ele>71.400001525879</ele>
        <time>2019-05-12T09:00:29.000Z</time>
      </trkpt>
      <trkpt lat="46.55073" lon="0.34455">
        <ele>71.599998474121</ele>
        <time>2019-05-12T09:00:30.000Z</time>
      </trkpt>
      <trkpt lat="46.55076" lon="0.34456">
        <ele>71.800003051758</ele>
        <time>2019-05-12T09:00:31.000Z</time>
      </trkpt>
      <trkpt lat="46.55083" lon="0.34457">
        <ele>72.199996948242</ele>
        <time>2019-05-12T09:00:33.000Z</time>
      </trkpt>
      <trkpt lat="46.55086" lon="0.34457">
        <ele>72.400001525879</ele>
        <time>2019-05-12T09:00:34.000Z</time>
      </trkpt>
      <trkpt lat="46.55093" lon="0.34458">
        <ele>72.800003051758</ele>
        <time>2019-05-12T09:00:36.000Z</time>
      </trkpt>
      <trkpt lat="46.55107" lon="0.3446">
        <ele>72.599998474121</ele>
        <time>2019-05-12T09:00:39.000Z</time>
      </trkpt>
      <trkpt lat="46.5512" lon="0.34462">
        <ele>72</ele>
        <time>2019-05-12T09:00:42.000Z</time>
      </trkpt>
      <trkpt lat="46.55124" lon="0.34463">
        <ele>71.400001525879</ele>
        <time>2019-05-12T09:00:43.000Z</time>
      </trkpt>
      <trkpt lat="46.5514" lon="0.34471">
        <ele>71.199996948242</ele>
        <time>2019-05-12T09:00:47.000Z</time>
      </trkpt>
      <trkpt lat="46.55151" lon="0.34475">
        <ele>71</ele>
        <time>2019-05-12T09:00:50.000Z</time>
      </trkpt>
      <trkpt lat="46.55159" lon="0.34477">
        <ele>71</ele>
        <time>2019-05-12T09:00:52.000Z</time>
      </trkpt>
      <trkpt lat="46.55167" lon="0.3448">
        <ele>71</ele>
        <time>2019-05-12T09:00:54.000Z</time>
      </trkpt>
      <trkpt lat="46.55173" lon="0.34481">
        <ele>71.199996948242</ele>
        <time>2019-05-12T09:00:56.000Z</time>
      </trkpt>
      <trkpt lat="46.5518" lon="0.34484">
        <ele>71.199996948242</ele>
        <time>2019-05-12T09:00:58.000Z</time>
      </trkpt>
      <trkpt lat="46.5519" lon="0.34485">
        <ele>71.199996948242</ele>
        <time>2019-05-12T09:01:00.000Z</time>
      </trkpt>
      <trkpt lat="46.55203" lon="0.34489">
        <ele>71.400001525879</ele>
        <time>2019-05-12T09:01:03.000Z</time>
      </trkpt>
      <trkpt lat="46.55217" lon="0.34492">
        <ele>71.599998474121</ele>
        <time>2019-05-12T09:01:06.000Z</time>
      </trkpt>
      <trkpt lat="46.55222" lon="0.34493">
        <ele>71.800003051758</ele>
        <time>2019-05-12T09:01:07.000Z</time>
      </trkpt>
      <trkpt lat="46.55239" lon="0.345">
        <ele>71.599998474121</ele>
        <time>2019-05-12T09:01:11.000Z</time>
      </trkpt>
      <trkpt lat="46.55244" lon="0.34502">
        <ele>71.599998474121</ele>
        <time>2019-05-12T09:01:12.000Z</time>
      </trkpt>
      <trkpt lat="46.55262" lon="0.34515">
        <ele>71.800003051758</ele>
        <time>2019-05-12T09:01:17.000Z</time>
      </trkpt>
      <trkpt lat="46.55267" lon="0.34523">
        <ele>72.800003051758</ele>
        <time>2019-05-12T09:01:20.000Z</time>
      </trkpt>
      <trkpt lat="46.55269" lon="0.34526">
        <ele>73.199996948242</ele>
        <time>2019-05-12T09:01:21.000Z</time>
      </trkpt>
      <trkpt lat="46.55281" lon="0.34545">
        <ele>73.800003051758</ele>
        <time>2019-05-12T09:01:26.000Z</time>
      </trkpt>
      <trkpt lat="46.55285" lon="0.34553">
        <ele>74</ele>
        <time>2019-05-12T09:01:28.000Z</time>
      </trkpt>
      <trkpt lat="46.55292" lon="0.34575">
        <ele>74.199996948242</ele>
        <time>2019-05-12T09:01:33.000Z</time>
      </trkpt>
      <trkpt lat="46.55297" lon="0.34593">
        <ele>74.199996948242</ele>
        <time>2019-05-12T09:01:37.000Z</time>
      </trkpt>
      <trkpt lat="46.55304" lon="0.3462">
        <ele>74.400001525879</ele>
        <time>2019-05-12T09:01:42.000Z</time>
      </trkpt>
      <trkpt lat="46.55306" lon="0.34627">
        <ele>74.400001525879</ele>
        <time>2019-05-12T09:01:43.000Z</time>
      </trkpt>
      <trkpt lat="46.55313" lon="0.34648">
        <ele>74</ele>
        <time>2019-05-12T09:01:46.000Z</time>
      </trkpt>
      <trkpt lat="46.55314" lon="0.34655">
        <ele>73.800003051758</ele>
        <time>2019-05-12T09:01:47.000Z</time>
      </trkpt>
      <trkpt lat="46.55316" lon="0.34671">
        <ele>73.199996948242</ele>
        <time>2019-05-12T09:01:49.000Z</time>
      </trkpt>
      <trkpt lat="46.55315" lon="0.34679">
        <ele>72.800003051758</ele>
        <time>2019-05-12T09:01:50.000Z</time>
      </trkpt>
      <trkpt lat="46.55313" lon="0.34685">
        <ele>71.800003051758</ele>
        <time>2019-05-12T09:01:51.000Z</time>
      </trkpt>
      <trkpt lat="46.55307" lon="0.34696">
        <ele>70.400001525879</ele>
        <time>2019-05-12T09:01:53.000Z</time>
      </trkpt>
      <trkpt lat="46.55305" lon="0.347">
        <ele>70.199996948242</ele>
        <time>2019-05-12T09:01:54.000Z</time>
      </trkpt>
      <trkpt lat="46.55298" lon="0.34719">
        <ele>70.599998474121</ele>
        <time>2019-05-12T09:01:58.000Z</time>
      </trkpt>
      <trkpt lat="46.5529" lon="0.34735">
        <ele>70.599998474121</ele>
        <time>2019-05-12T09:02:02.000Z</time>
      </trkpt>
      <trkpt lat="46.55288" lon="0.3474">
        <ele>70.599998474121</ele>
        <time>2019-05-12T09:02:03.000Z</time>
      </trkpt>
      <trkpt lat="46.55282" lon="0.34758">
        <ele>70.400001525879</ele>
        <time>2019-05-12T09:02:06.000Z</time>
      </trkpt>
      <trkpt lat="46.55277" lon="0.34774">
        <ele>70.400001525879</ele>
        <time>2019-05-12T09:02:09.000Z</time>
      </trkpt>
      <trkpt lat="46.55272" lon="0.34784">
        <ele>70.199996948242</ele>
        <time>2019-05-12T09:02:11.000Z</time>
      </trkpt>
      <trkpt lat="46.55265" lon="0.34798">
        <ele>70.199996948242</ele>
        <time>2019-05-12T09:02:14.000Z</time>
      </trkpt>
      <trkpt lat="46.55263" lon="0.34803">
        <ele>70</ele>
        <time>2019-05-12T09:02:15.000Z</time>
      </trkpt>
      <trkpt lat="46.55259" lon="0.34814">
        <ele>70</ele>
        <time>2019-05-12T09:02:17.000Z</time>
      </trkpt>
      <trkpt lat="46.55255" lon="0.34823">
        <ele>70.199996948242</ele>
        <time>2019-05-12T09:02:19.000Z</time>
      </trkpt>
      <trkpt lat="46.55245" lon="0.34846">
        <ele>70.599998474121</ele>
        <time>2019-05-12T09:02:24.000Z</time>
      </trkpt>
      <trkpt lat="46.55239" lon="0.34879">
        <ele>70.400001525879</ele>
        <time>2019-05-12T09:02:29.000Z</time>
      </trkpt>
      <trkpt lat="46.55238" lon="0.34885">
        <ele>70.400001525879</ele>
        <time>2019-05-12T09:02:30.000Z</time>
      </trkpt>
      <trkpt lat="46.55236" lon="0.34909">
        <ele>70.199996948242</ele>
        <time>2019-05-12T09:02:34.000Z</time>
      </trkpt>
      <trkpt lat="46.55237" lon="0.34938">
        <ele>70.400001525879</ele>
        <time>2019-05-12T09:02:39.000Z</time>
      </trkpt>
      <trkpt lat="46.55243" lon="0.34975">
        <ele>71.199996948242</ele>
        <time>2019-05-12T09:02:45.000Z</time>
      </trkpt>
      <trkpt lat="46.55253" lon="0.35007">
        <ele>70.800003051758</ele>
        <time>2019-05-12T09:02:50.000Z</time>
      </trkpt>
      <trkpt lat="46.55254" lon="0.35012">
        <ele>70.599998474121</ele>
        <time>2019-05-12T09:02:51.000Z</time>
      </trkpt>
      <trkpt lat="46.55264" lon="0.35041">
        <ele>70.199996948242</ele>
        <time>2019-05-12T09:02:56.000Z</time>
      </trkpt>
      <trkpt lat="46.55266" lon="0.35047">
        <ele>70</ele>
        <time>2019-05-12T09:02:57.000Z</time>
      </trkpt>
      <trkpt lat="46.55276" lon="0.35079">
        <ele>70.199996948242</ele>
        <time>2019-05-12T09:03:03.000Z</time>
      </trkpt>
      <trkpt lat="46.55288" lon="0.35104">
        <ele>70</ele>
        <time>2019-05-12T09:03:08.000Z</time>
      </trkpt>
      <trkpt lat="46.55299" lon="0.35127">
        <ele>70</ele>
        <time>2019-05-12T09:03:12.000Z</time>
      </trkpt>
      <trkpt lat="46.553" lon="0.35133">
        <ele>70</ele>
        <time>2019-05-12T09:03:13.000Z</time>
      </trkpt>
      <trkpt lat="46.55307" lon="0.35151">
        <ele>70</ele>
        <time>2019-05-12T09:03:16.000Z</time>
      </trkpt>
      <trkpt lat="46.55311" lon="0.35161">
        <ele>70</ele>
        <time>2019-05-12T09:03:18.000Z</time>
      </trkpt>
      <trkpt lat="46.55316" lon="0.35182">
        <ele>70.199996948242</ele>
        <time>2019-05-12T09:03:22.000Z</time>
      </trkpt>
      <trkpt lat="46.55318" lon="0.35204">
        <ele>70.599998474121</ele>
        <time>2019-05-12T09:03:26.000Z</time>
      </trkpt>
      <trkpt lat="46.55317" lon="0.3522">
        <ele>71.400001525879</ele>
        <time>2019-05-12T09:03:30.000Z</time>
      </trkpt>
      <trkpt lat="46.55312" lon="0.35228">
        <ele>71.599998474121</ele>
        <time>2019-05-12T09:03:33.000Z</time>
      </trkpt>
      <trkpt lat="46.55306" lon="0.35234">
        <ele>72</ele>
        <time>2019-05-12T09:03:36.000Z</time>
      </trkpt>
      <trkpt lat="46.55304" lon="0.35236">
        <ele>72</ele>
        <time>2019-05-12T09:03:37.000Z</time>
      </trkpt>
      <trkpt lat="46.55289" lon="0.35246">
        <ele>73</ele>
        <time>2019-05-12T09:03:43.000Z</time>
      </trkpt>
      <trkpt lat="46.55277" lon="0.35252">
        <ele>73.599998474121</ele>
        <time>2019-05-12T09:03:48.000Z</time>
      </trkpt>
      <trkpt lat="46.55271" lon="0.35254">
        <ele>73.800003051758</ele>
        <time>2019-05-12T09:03:51.000Z</time>
      </trkpt>
      <trkpt lat="46.55268" lon="0.35261">
        <ele>74</ele>
        <time>2019-05-12T09:03:53.000Z</time>
      </trkpt>
      <trkpt lat="46.55261" lon="0.35269">
        <ele>74</ele>
        <time>2019-05-12T09:03:56.000Z</time>
      </trkpt>
      <trkpt lat="46.55259" lon="0.35272">
        <ele>73.800003051758</ele>
        <time>2019-05-12T09:03:57.000Z</time>
      </trkpt>
      <trkpt lat="46.55256" lon="0.35272">
        <ele>73.400001525879</ele>
        <time>2019-05-12T09:03:58.000Z</time>
      </trkpt>
      <trkpt lat="46.55253" lon="0.3527">
        <ele>73</ele>
        <time>2019-05-12T09:03:59.000Z</time>
      </trkpt>
      <trkpt lat="46.5525" lon="0.35268">
        <ele>72.599998474121</ele>
        <time>2019-05-12T09:04:00.000Z</time>
      </trkpt>
      <trkpt lat="46.55245" lon="0.35264">
        <ele>72.599998474121</ele>
        <time>2019-05-12T09:04:02.000Z</time>
      </trkpt>
      <trkpt lat="46.55237" lon="0.3526">
        <ele>73</ele>
        <time>2019-05-12T09:04:05.000Z</time>
      </trkpt>
      <trkpt lat="46.55224" lon="0.35251">
        <ele>73.400001525879</ele>
        <time>2019-05-12T09:04:10.000Z</time>
      </trkpt>
      <trkpt lat="46.55222" lon="0.3525">
        <ele>73.599998474121</ele>
        <time>2019-05-12T09:04:11.000Z</time>
      </trkpt>
      <trkpt lat="46.55213" lon="0.35243">
        <ele>73.800003051758</ele>
        <time>2019-05-12T09:04:15.000Z</time>
      </trkpt>
      <trkpt lat="46.55201" lon="0.35231">
        <ele>73.599998474121</ele>
        <time>2019-05-12T09:04:20.000Z</time>
      </trkpt>
      <trkpt lat="46.55189" lon="0.35218">
        <ele>73.199996948242</ele>
        <time>2019-05-12T09:04:25.000Z</time>
      </trkpt>
      <trkpt lat="46.55176" lon="0.35202">
        <ele>74</ele>
        <time>2019-05-12T09:04:31.000Z</time>
      </trkpt>
      <trkpt lat="46.55174" lon="0.35199">
        <ele>74</ele>
        <time>2019-05-12T09:04:32.000Z</time>
      </trkpt>
      <trkpt lat="46.55161" lon="0.35186">
        <ele>74.199996948242</ele>
        <time>2019-05-12T09:04:36.000Z</time>
      </trkpt>
      <trkpt lat="46.55148" lon="0.35173">
        <ele>74</ele>
        <time>2019-05-12T09:04:40.000Z</time>
      </trkpt>
      <trkpt lat="46.5513" lon="0.35159">
        <ele>73.800003051758</ele>
        <time>2019-05-12T09:04:46.000Z</time>
      </trkpt>
      <trkpt lat="46.55127" lon="0.35157">
        <ele>74</ele>
        <time>2019-05-12T09:04:47.000Z</time>
      </trkpt>
      <trkpt lat="46.55118" lon="0.35148">
        <ele>74.400001525879</ele>
        <time>2019-05-12T09:04:50.000Z</time>
      </trkpt>
      <trkpt lat="46.55115" lon="0.35145">
        <ele>74.599998474121</ele>
        <time>2019-05-12T09:04:51.000Z</time>
      </trkpt>
      <trkpt lat="46.55102" lon="0.35134">
        <ele>74.199996948242</ele>
        <time>2019-05-12T09:04:54.000Z</time>
      </trkpt>
      <trkpt lat="46.55086" lon="0.35124">
        <ele>73.800003051758</ele>
        <time>2019-05-12T09:04:59.000Z</time>
      </trkpt>
      <trkpt lat="46.55066" lon="0.35116">
        <ele>74.199996948242</ele>
        <time>2019-05-12T09:05:04.000Z</time>
      </trkpt>
      <trkpt lat="46.55047" lon="0.35111">
        <ele>73.800003051758</ele>
        <time>2019-05-12T09:05:08.000Z</time>
      </trkpt>
      <trkpt lat="46.55031" lon="0.35108">
        <ele>73.599998474121</ele>
        <time>2019-05-12T09:05:12.000Z</time>
      </trkpt>
      <trkpt lat="46.55005" lon="0.35109">
        <ele>73.599998474121</ele>
        <time>2019-05-12T09:05:17.000Z</time>
      </trkpt>
      <trkpt lat="46.54982" lon="0.35109">
        <ele>73.599998474121</ele>
        <time>2019-05-12T09:05:22.000Z</time>
      </trkpt>
      <trkpt lat="46.54965" lon="0.35113">
        <ele>73.400001525879</ele>
        <time>2019-05-12T09:05:26.000Z</time>
      </trkpt>
      <trkpt lat="46.54946" lon="0.35119">
        <ele>73.400001525879</ele>
        <time>2019-05-12T09:05:31.000Z</time>
      </trkpt>
      <trkpt lat="46.54921" lon="0.35129">
        <ele>73.400001525879</ele>
        <time>2019-05-12T09:05:38.000Z</time>
      </trkpt>
      <trkpt lat="46.54907" lon="0.35137">
        <ele>73.800003051758</ele>
        <time>2019-05-12T09:05:43.000Z</time>
      </trkpt>
      <trkpt lat="46.5489" lon="0.3515">
        <ele>73.800003051758</ele>
        <time>2019-05-12T09:05:49.000Z</time>
      </trkpt>
      <trkpt lat="46.54882" lon="0.35155">
        <ele>73.800003051758</ele>
        <time>2019-05-12T09:05:52.000Z</time>
      </trkpt>
      <trkpt lat="46.54877" lon="0.35158">
        <ele>73.800003051758</ele>
        <time>2019-05-12T09:05:54.000Z</time>
      </trkpt>
      <trkpt lat="46.54868" lon="0.35163">
        <ele>75</ele>
        <time>2019-05-12T09:05:58.000Z</time>
      </trkpt>
      <trkpt lat="46.54866" lon="0.35165">
        <ele>75.199996948242</ele>
        <time>2019-05-12T09:05:59.000Z</time>
      </trkpt>
      <trkpt lat="46.54862" lon="0.35168">
        <ele>76</ele>
        <time>2019-05-12T09:06:01.000Z</time>
      </trkpt>
      <trkpt lat="46.54856" lon="0.35172">
        <ele>76.400001525879</ele>
        <time>2019-05-12T09:06:03.000Z</time>
      </trkpt>
      <trkpt lat="46.54853" lon="0.35176">
        <ele>76.400001525879</ele>
        <time>2019-05-12T09:06:05.000Z</time>
      </trkpt>
      <trkpt lat="46.54846" lon="0.35183">
        <ele>77.199996948242</ele>
        <time>2019-05-12T09:06:08.000Z</time>
      </trkpt>
      <trkpt lat="46.54841" lon="0.35186">
        <ele>77.800003051758</ele>
        <time>2019-05-12T09:06:10.000Z</time>
      </trkpt>
      <trkpt lat="46.54839" lon="0.35188">
        <ele>78.199996948242</ele>
        <time>2019-05-12T09:06:11.000Z</time>
      </trkpt>
      <trkpt lat="46.54832" lon="0.35193">
        <ele>78.800003051758</ele>
        <time>2019-05-12T09:06:14.000Z</time>
      </trkpt>
      <trkpt lat="46.5483" lon="0.35193">
        <ele>78.800003051758</ele>
        <time>2019-05-12T09:06:15.000Z</time>
      </trkpt>
      <trkpt lat="46.54824" lon="0.35198">
        <ele>79.599998474121</ele>
        <time>2019-05-12T09:06:18.000Z</time>
      </trkpt>
      <trkpt lat="46.54821" lon="0.35199">
        <ele>79.800003051758</ele>
        <time>2019-05-12T09:06:19.000Z</time>
      </trkpt>
      <trkpt lat="46.54815" lon="0.35207">
        <ele>80.199996948242</ele>
        <time>2019-05-12T09:06:22.000Z</time>
      </trkpt>
      <trkpt lat="46.54811" lon="0.35214">
        <ele>80.199996948242</ele>
        <time>2019-05-12T09:06:24.000Z</time>
      </trkpt>
      <trkpt lat="46.54809" lon="0.35217">
        <ele>80</ele>
        <time>2019-05-12T09:06:25.000Z</time>
      </trkpt>
      <trkpt lat="46.54804" lon="0.35232">
        <ele>80</ele>
        <time>2019-05-12T09:06:28.000Z</time>
      </trkpt>
      <trkpt lat="46.54802" lon="0.35241">
        <ele>79.599998474121</ele>
        <time>2019-05-12T09:06:30.000Z</time>
      </trkpt>
      <trkpt lat="46.548" lon="0.35256">
        <ele>79.400001525879</ele>
        <time>2019-05-12T09:06:33.000Z</time>
      </trkpt>
      <trkpt lat="46.54795" lon="0.35271">
        <ele>79</ele>
        <time>2019-05-12T09:06:37.000Z</time>
      </trkpt>
      <trkpt lat="46.54793" lon="0.35273">
        <ele>79</ele>
        <time>2019-05-12T09:06:38.000Z</time>
      </trkpt>
      <trkpt lat="46.5479" lon="0.35274">
        <ele>79.199996948242</ele>
        <time>2019-05-12T09:06:39.000Z</time>
      </trkpt>
      <trkpt lat="46.54787" lon="0.35288">
        <ele>79.400001525879</ele>
        <time>2019-05-12T09:06:42.000Z</time>
      </trkpt>
      <trkpt lat="46.54785" lon="0.35293">
        <ele>79.400001525879</ele>
        <time>2019-05-12T09:06:43.000Z</time>
      </trkpt>
      <trkpt lat="46.54781" lon="0.35305">
        <ele>79.199996948242</ele>
        <time>2019-05-12T09:06:46.000Z</time>
      </trkpt>
      <trkpt lat="46.54778" lon="0.35307">
        <ele>79</ele>
        <time>2019-05-12T09:06:47.000Z</time>
      </trkpt>
      <trkpt lat="46.54773" lon="0.35315">
        <ele>79.199996948242</ele>
        <time>2019-05-12T09:06:49.000Z</time>
      </trkpt>
      <trkpt lat="46.54771" lon="0.35319">
        <ele>79.199996948242</ele>
        <time>2019-05-12T09:06:50.000Z</time>
      </trkpt>
      <trkpt lat="46.54764" lon="0.35334">
        <ele>79.400001525879</ele>
        <time>2019-05-12T09:06:53.000Z</time>
      </trkpt>
      <trkpt lat="46.54762" lon="0.35337">
        <ele>79.599998474121</ele>
        <time>2019-05-12T09:06:54.000Z</time>
      </trkpt>
      <trkpt lat="46.54755" lon="0.3535">
        <ele>80.599998474121</ele>
        <time>2019-05-12T09:06:57.000Z</time>
      </trkpt>
      <trkpt lat="46.54751" lon="0.35358">
        <ele>81.199996948242</ele>
        <time>2019-05-12T09:06:59.000Z</time>
      </trkpt>
      <trkpt lat="46.54746" lon="0.35368">
        <ele>81.800003051758</ele>
        <time>2019-05-12T09:07:01.000Z</time>
      </trkpt>
      <trkpt lat="46.54744" lon="0.35374">
        <ele>82</ele>
        <time>2019-05-12T09:07:02.000Z</time>
      </trkpt>
      <trkpt lat="46.54742" lon="0.35384">
        <ele>82</ele>
        <time>2019-05-12T09:07:04.000Z</time>
      </trkpt>
      <trkpt lat="46.54737" lon="0.35398">
        <ele>82</ele>
        <time>2019-05-12T09:07:07.000Z</time>
      </trkpt>
      <trkpt lat="46.54735" lon="0.35402">
        <ele>82</ele>
        <time>2019-05-12T09:07:08.000Z</time>
      </trkpt>
      <trkpt lat="46.54729" lon="0.35417">
        <ele>82.199996948242</ele>
        <time>2019-05-12T09:07:12.000Z</time>
      </trkpt>
      <trkpt lat="46.54727" lon="0.35419">
        <ele>82.400001525879</ele>
        <time>2019-05-12T09:07:13.000Z</time>
      </trkpt>
      <trkpt lat="46.54722" lon="0.35422">
        <ele>83</ele>
        <time>2019-05-12T09:07:15.000Z</time>
      </trkpt>
      <trkpt lat="46.54721" lon="0.35425">
        <ele>83.199996948242</ele>
        <time>2019-05-12T09:07:16.000Z</time>
      </trkpt>
      <trkpt lat="46.54719" lon="0.35432">
        <ele>83.400001525879</ele>
        <time>2019-05-12T09:07:18.000Z</time>
      </trkpt>
      <trkpt lat="46.54717" lon="0.35441">
        <ele>83.599998474121</ele>
        <time>2019-05-12T09:07:22.000Z</time>
      </trkpt>
      <trkpt lat="46.54714" lon="0.35447">
        <ele>83.599998474121</ele>
        <time>2019-05-12T09:07:25.000Z</time>
      </trkpt>
      <trkpt lat="46.54713" lon="0.35452">
        <ele>83.599998474121</ele>
        <time>2019-05-12T09:07:26.000Z</time>
      </trkpt>
      <trkpt lat="46.54711" lon="0.35463">
        <ele>84</ele>
        <time>2019-05-12T09:07:29.000Z</time>
      </trkpt>
      <trkpt lat="46.54711" lon="0.3547">
        <ele>84.199996948242</ele>
        <time>2019-05-12T09:07:31.000Z</time>
      </trkpt>
      <trkpt lat="46.54711" lon="0.35482">
        <ele>84</ele>
        <time>2019-05-12T09:07:35.000Z</time>
      </trkpt>
      <trkpt lat="46.54711" lon="0.35489">
        <ele>84</ele>
        <time>2019-05-12T09:07:37.000Z</time>
      </trkpt>
      <trkpt lat="46.5471" lon="0.355">
        <ele>83.400001525879</ele>
        <time>2019-05-12T09:07:40.000Z</time>
      </trkpt>
      <trkpt lat="46.54709" lon="0.35508">
        <ele>82.800003051758</ele>
        <time>2019-05-12T09:07:42.000Z</time>
      </trkpt>
      <trkpt lat="46.5471" lon="0.35519">
        <ele>82.599998474121</ele>
        <time>2019-05-12T09:07:44.000Z</time>
      </trkpt>
      <trkpt lat="46.5471" lon="0.35531">
        <ele>82.199996948242</ele>
        <time>2019-05-12T09:07:46.000Z</time>
      </trkpt>
      <trkpt lat="46.54712" lon="0.35536">
        <ele>81.800003051758</ele>
        <time>2019-05-12T09:07:47.000Z</time>
      </trkpt>
      <trkpt lat="46.54714" lon="0.35542">
        <ele>81.199996948242</ele>
        <time>2019-05-12T09:07:48.000Z</time>
      </trkpt>
      <trkpt lat="46.54716" lon="0.35547">
        <ele>80.599998474121</ele>
        <time>2019-05-12T09:07:49.000Z</time>
      </trkpt>
      <trkpt lat="46.54724" lon="0.35552">
        <ele>78.800003051758</ele>
        <time>2019-05-12T09:07:51.000Z</time>
      </trkpt>
      <trkpt lat="46.54732" lon="0.35553">
        <ele>77.400001525879</ele>
        <time>2019-05-12T09:07:53.000Z</time>
      </trkpt>
      <trkpt lat="46.54735" lon="0.35552">
        <ele>76.599998474121</ele>
        <time>2019-05-12T09:07:54.000Z</time>
      </trkpt>
      <trkpt lat="46.54737" lon="0.35552">
        <ele>75.400001525879</ele>
        <time>2019-05-12T09:07:55.000Z</time>
      </trkpt>
      <trkpt lat="46.54738" lon="0.35557">
        <ele>74.199996948242</ele>
        <time>2019-05-12T09:07:57.000Z</time>
      </trkpt>
      <trkpt lat="46.54738" lon="0.35561">
        <ele>74</ele>
        <time>2019-05-12T09:08:00.000Z</time>
      </trkpt>
      <trkpt lat="46.54736" lon="0.35569">
        <ele>74</ele>
        <time>2019-05-12T09:08:10.000Z</time>
      </trkpt>
      <trkpt lat="46.54736" lon="0.35572">
        <ele>74</ele>
        <time>2019-05-12T09:08:11.000Z</time>
      </trkpt>
      <trkpt lat="46.54736" lon="0.35576">
        <ele>74.599998474121</ele>
        <time>2019-05-12T09:08:13.000Z</time>
      </trkpt>
      <trkpt lat="46.54734" lon="0.35583">
        <ele>75.599998474121</ele>
        <time>2019-05-12T09:08:16.000Z</time>
      </trkpt>
      <trkpt lat="46.54732" lon="0.35588">
        <ele>76.400001525879</ele>
        <time>2019-05-12T09:08:18.000Z</time>
      </trkpt>
      <trkpt lat="46.54731" lon="0.35591">
        <ele>77.199996948242</ele>
        <time>2019-05-12T09:08:19.000Z</time>
      </trkpt>
      <trkpt lat="46.54729" lon="0.35599">
        <ele>78</ele>
        <time>2019-05-12T09:08:22.000Z</time>
      </trkpt>
      <trkpt lat="46.54728" lon="0.35601">
        <ele>78.599998474121</ele>
        <time>2019-05-12T09:08:23.000Z</time>
      </trkpt>
      <trkpt lat="46.54726" lon="0.35607">
        <ele>79.599998474121</ele>
        <time>2019-05-12T09:08:26.000Z</time>
      </trkpt>
      <trkpt lat="46.54726" lon="0.35609">
        <ele>80</ele>
        <time>2019-05-12T09:08:27.000Z</time>
      </trkpt>
      <trkpt lat="46.54724" lon="0.35614">
        <ele>81</ele>
        <time>2019-05-12T09:08:30.000Z</time>
      </trkpt>
      <trkpt lat="46.54723" lon="0.35621">
        <ele>82.199996948242</ele>
        <time>2019-05-12T09:08:34.000Z</time>
      </trkpt>
      <trkpt lat="46.54721" lon="0.35623">
        <ele>82.800003051758</ele>
        <time>2019-05-12T09:08:36.000Z</time>
      </trkpt>
      <trkpt lat="46.54721" lon="0.35625">
        <ele>83.199996948242</ele>
        <time>2019-05-12T09:08:37.000Z</time>
      </trkpt>
      <trkpt lat="46.54719" lon="0.35629">
        <ele>84.199996948242</ele>
        <time>2019-05-12T09:08:40.000Z</time>
      </trkpt>
      <trkpt lat="46.54717" lon="0.35631">
        <ele>85</ele>
        <time>2019-05-12T09:08:42.000Z</time>
      </trkpt>
      <trkpt lat="46.54716" lon="0.35632">
        <ele>85.199996948242</ele>
        <time>2019-05-12T09:08:43.000Z</time>
      </trkpt>
      <trkpt lat="46.54711" lon="0.35633">
        <ele>86.400001525879</ele>
        <time>2019-05-12T09:08:47.000Z</time>
      </trkpt>
      <trkpt lat="46.5471" lon="0.35634">
        <ele>86.800003051758</ele>
        <time>2019-05-12T09:08:48.000Z</time>
      </trkpt>
      <trkpt lat="46.54707" lon="0.35636">
        <ele>87.800003051758</ele>
        <time>2019-05-12T09:08:51.000Z</time>
      </trkpt>
      <trkpt lat="46.547" lon="0.35636">
        <ele>88.800003051758</ele>
        <time>2019-05-12T09:08:55.000Z</time>
      </trkpt>
      <trkpt lat="46.54698" lon="0.35636">
        <ele>88.800003051758</ele>
        <time>2019-05-12T09:08:56.000Z</time>
      </trkpt>
      <trkpt lat="46.54697" lon="0.35636">
        <ele>89</ele>
        <time>2019-05-12T09:08:57.000Z</time>
      </trkpt>
      <trkpt lat="46.54691" lon="0.35638">
        <ele>90</ele>
        <time>2019-05-12T09:09:01.000Z</time>
      </trkpt>
      <trkpt lat="46.54689" lon="0.35639">
        <ele>90.199996948242</ele>
        <time>2019-05-12T09:09:02.000Z</time>
      </trkpt>
      <trkpt lat="46.54684" lon="0.35642">
        <ele>91.599998474121</ele>
        <time>2019-05-12T09:09:06.000Z</time>
      </trkpt>
      <trkpt lat="46.54683" lon="0.35644">
        <ele>91.800003051758</ele>
        <time>2019-05-12T09:09:07.000Z</time>
      </trkpt>
      <trkpt lat="46.5468" lon="0.3565">
        <ele>92.599998474121</ele>
        <time>2019-05-12T09:09:10.000Z</time>
      </trkpt>
      <trkpt lat="46.54679" lon="0.35651">
        <ele>93</ele>
        <time>2019-05-12T09:09:11.000Z</time>
      </trkpt>
      <trkpt lat="46.54676" lon="0.35653">
        <ele>93.800003051758</ele>
        <time>2019-05-12T09:09:13.000Z</time>
      </trkpt>
      <trkpt lat="46.54675" lon="0.35654">
        <ele>94</ele>
        <time>2019-05-12T09:09:14.000Z</time>
      </trkpt>
      <trkpt lat="46.5467" lon="0.35661">
        <ele>95</ele>
        <time>2019-05-12T09:09:19.000Z</time>
      </trkpt>
      <trkpt lat="46.54668" lon="0.35666">
        <ele>95.599998474121</ele>
        <time>2019-05-12T09:09:21.000Z</time>
      </trkpt>
      <trkpt lat="46.54665" lon="0.3567">
        <ele>96.400001525879</ele>
        <time>2019-05-12T09:09:23.000Z</time>
      </trkpt>
      <trkpt lat="46.54661" lon="0.35673">
        <ele>97.400001525879</ele>
        <time>2019-05-12T09:09:27.000Z</time>
      </trkpt>
      <trkpt lat="46.54655" lon="0.35682">
        <ele>98.599998474121</ele>
        <time>2019-05-12T09:09:32.000Z</time>
      </trkpt>
      <trkpt lat="46.54654" lon="0.35684">
        <ele>98.800003051758</ele>
        <time>2019-05-12T09:09:33.000Z</time>
      </trkpt>
      <trkpt lat="46.54653" lon="0.35691">
        <ele>99.599998474121</ele>
        <time>2019-05-12T09:09:37.000Z</time>
      </trkpt>
      <trkpt lat="46.54655" lon="0.35695">
        <ele>99.599998474121</ele>
        <time>2019-05-12T09:09:39.000Z</time>
      </trkpt>
      <trkpt lat="46.5466" lon="0.35708">
        <ele>99.199996948242</ele>
        <time>2019-05-12T09:09:47.000Z</time>
      </trkpt>
      <trkpt lat="46.54666" lon="0.35725">
        <ele>99</ele>
        <time>2019-05-12T09:09:53.000Z</time>
      </trkpt>
      <trkpt lat="46.5467" lon="0.35731">
        <ele>98.599998474121</ele>
        <time>2019-05-12T09:09:55.000Z</time>
      </trkpt>
      <trkpt lat="46.54677" lon="0.35746">
        <ele>97.800003051758</ele>
        <time>2019-05-12T09:10:00.000Z</time>
      </trkpt>
      <trkpt lat="46.54681" lon="0.35755">
        <ele>97.400001525879</ele>
        <time>2019-05-12T09:10:02.000Z</time>
      </trkpt>
      <trkpt lat="46.54689" lon="0.35769">
        <ele>97.400001525879</ele>
        <time>2019-05-12T09:10:06.000Z</time>
      </trkpt>
      <trkpt lat="46.54698" lon="0.35794">
        <ele>97.599998474121</ele>
        <time>2019-05-12T09:10:12.000Z</time>
      </trkpt>
      <trkpt lat="46.54701" lon="0.35805">
        <ele>98.800003051758</ele>
        <time>2019-05-12T09:10:15.000Z</time>
      </trkpt>
      <trkpt lat="46.54702" lon="0.35812">
        <ele>99.400001525879</ele>
        <time>2019-05-12T09:10:17.000Z</time>
      </trkpt>
      <trkpt lat="46.54704" lon="0.3582">
        <ele>99.800003051758</ele>
        <time>2019-05-12T09:10:19.000Z</time>
      </trkpt>
      <trkpt lat="46.54708" lon="0.35842">
        <ele>98.400001525879</ele>
        <time>2019-05-12T09:10:23.000Z</time>
      </trkpt>
      <trkpt lat="46.5471" lon="0.35856">
        <ele>97.400001525879</ele>
        <time>2019-05-12T09:10:25.000Z</time>
      </trkpt>
      <trkpt lat="46.54714" lon="0.35871">
        <ele>97</ele>
        <time>2019-05-12T09:10:27.000Z</time>
      </trkpt>
      <trkpt lat="46.5472" lon="0.35888">
        <ele>96.199996948242</ele>
        <time>2019-05-12T09:10:29.000Z</time>
      </trkpt>
      <trkpt lat="46.54725" lon="0.35907">
        <ele>95.400001525879</ele>
        <time>2019-05-12T09:10:31.000Z</time>
      </trkpt>
      <trkpt lat="46.54728" lon="0.35916">
        <ele>94.800003051758</ele>
        <time>2019-05-12T09:10:32.000Z</time>
      </trkpt>
      <trkpt lat="46.54736" lon="0.35932">
        <ele>93.400001525879</ele>
        <time>2019-05-12T09:10:34.000Z</time>
      </trkpt>
      <trkpt lat="46.5474" lon="0.35939">
        <ele>93</ele>
        <time>2019-05-12T09:10:35.000Z</time>
      </trkpt>
      <trkpt lat="46.54749" lon="0.35952">
        <ele>92.400001525879</ele>
        <time>2019-05-12T09:10:37.000Z</time>
      </trkpt>
      <trkpt lat="46.54753" lon="0.35959">
        <ele>91.800003051758</ele>
        <time>2019-05-12T09:10:38.000Z</time>
      </trkpt>
      <trkpt lat="46.54757" lon="0.35965">
        <ele>91.199996948242</ele>
        <time>2019-05-12T09:10:39.000Z</time>
      </trkpt>
      <trkpt lat="46.5476" lon="0.35971">
        <ele>91</ele>
        <time>2019-05-12T09:10:40.000Z</time>
      </trkpt>
      <trkpt lat="46.54763" lon="0.35977">
        <ele>91</ele>
        <time>2019-05-12T09:10:41.000Z</time>
      </trkpt>
      <trkpt lat="46.54774" lon="0.36001">
        <ele>91.199996948242</ele>
        <time>2019-05-12T09:10:45.000Z</time>
      </trkpt>
      <trkpt lat="46.54784" lon="0.36029">
        <ele>91.400001525879</ele>
        <time>2019-05-12T09:10:50.000Z</time>
      </trkpt>
      <trkpt lat="46.54794" lon="0.36051">
        <ele>92.400001525879</ele>
        <time>2019-05-12T09:10:55.000Z</time>
      </trkpt>
      <trkpt lat="46.54796" lon="0.36055">
        <ele>92.599998474121</ele>
        <time>2019-05-12T09:10:56.000Z</time>
      </trkpt>
      <trkpt lat="46.54802" lon="0.36065">
        <ele>92.400001525879</ele>
        <time>2019-05-12T09:10:59.000Z</time>
      </trkpt>
      <trkpt lat="46.54806" lon="0.36071">
        <ele>92.400001525879</ele>
        <time>2019-05-12T09:11:01.000Z</time>
      </trkpt>
      <trkpt lat="46.5482" lon="0.36089">
        <ele>92.199996948242</ele>
        <time>2019-05-12T09:11:07.000Z</time>
      </trkpt>
      <trkpt lat="46.54832" lon="0.36104">
        <ele>92.199996948242</ele>
        <time>2019-05-12T09:11:12.000Z</time>
      </trkpt>
      <trkpt lat="46.54845" lon="0.36117">
        <ele>91.400001525879</ele>
        <time>2019-05-12T09:11:16.000Z</time>
      </trkpt>
      <trkpt lat="46.54848" lon="0.3612">
        <ele>91.199996948242</ele>
        <time>2019-05-12T09:11:17.000Z</time>
      </trkpt>
      <trkpt lat="46.54851" lon="0.36123">
        <ele>91</ele>
        <time>2019-05-12T09:11:18.000Z</time>
      </trkpt>
      <trkpt lat="46.54855" lon="0.36128">
        <ele>90.400001525879</ele>
        <time>2019-05-12T09:11:20.000Z</time>
      </trkpt>
      <trkpt lat="46.54857" lon="0.36131">
        <ele>90.199996948242</ele>
        <time>2019-05-12T09:11:21.000Z</time>
      </trkpt>
      <trkpt lat="46.54861" lon="0.36137">
        <ele>89.800003051758</ele>
        <time>2019-05-12T09:11:23.000Z</time>
      </trkpt>
      <trkpt lat="46.5487" lon="0.36147">
        <ele>89</ele>
        <time>2019-05-12T09:11:26.000Z</time>
      </trkpt>
      <trkpt lat="46.54875" lon="0.36151">
        <ele>88.800003051758</ele>
        <time>2019-05-12T09:11:27.000Z</time>
      </trkpt>
      <trkpt lat="46.54883" lon="0.36161">
        <ele>88.599998474121</ele>
        <time>2019-05-12T09:11:29.000Z</time>
      </trkpt>
      <trkpt lat="46.54895" lon="0.36173">
        <ele>88</ele>
        <time>2019-05-12T09:11:32.000Z</time>
      </trkpt>
      <trkpt lat="46.549" lon="0.36178">
        <ele>87.599998474121</ele>
        <time>2019-05-12T09:11:33.000Z</time>
      </trkpt>
      <trkpt lat="46.5491" lon="0.36188">
        <ele>86.599998474121</ele>
        <time>2019-05-12T09:11:35.000Z</time>
      </trkpt>
      <trkpt lat="46.5492" lon="0.362">
        <ele>86</ele>
        <time>2019-05-12T09:11:37.000Z</time>
      </trkpt>
      <trkpt lat="46.54925" lon="0.36207">
        <ele>85.199996948242</ele>
        <time>2019-05-12T09:11:38.000Z</time>
      </trkpt>
      <trkpt lat="46.54935" lon="0.36219">
        <ele>84</ele>
        <time>2019-05-12T09:11:40.000Z</time>
      </trkpt>
      <trkpt lat="46.5494" lon="0.36223">
        <ele>83.599998474121</ele>
        <time>2019-05-12T09:11:41.000Z</time>
      </trkpt>
      <trkpt lat="46.54958" lon="0.36234">
        <ele>83.199996948242</ele>
        <time>2019-05-12T09:11:44.000Z</time>
      </trkpt>
      <trkpt lat="46.54963" lon="0.36237">
        <ele>83.199996948242</ele>
        <time>2019-05-12T09:11:45.000Z</time>
      </trkpt>
      <trkpt lat="46.54972" lon="0.36246">
        <ele>82.800003051758</ele>
        <time>2019-05-12T09:11:47.000Z</time>
      </trkpt>
      <trkpt lat="46.54979" lon="0.36256">
        <ele>82.199996948242</ele>
        <time>2019-05-12T09:11:49.000Z</time>
      </trkpt>
      <trkpt lat="46.54982" lon="0.36262">
        <ele>81.800003051758</ele>
        <time>2019-05-12T09:11:50.000Z</time>
      </trkpt>
      <trkpt lat="46.54986" lon="0.36267">
        <ele>81.599998474121</ele>
        <time>2019-05-12T09:11:51.000Z</time>
      </trkpt>
      <trkpt lat="46.54996" lon="0.36279">
        <ele>81.199996948242</ele>
        <time>2019-05-12T09:11:53.000Z</time>
      </trkpt>
      <trkpt lat="46.55003" lon="0.36284">
        <ele>80.800003051758</ele>
        <time>2019-05-12T09:11:54.000Z</time>
      </trkpt>
      <trkpt lat="46.55009" lon="0.3629">
        <ele>79.800003051758</ele>
        <time>2019-05-12T09:11:55.000Z</time>
      </trkpt>
      <trkpt lat="46.55021" lon="0.36301">
        <ele>78.400001525879</ele>
        <time>2019-05-12T09:11:57.000Z</time>
      </trkpt>
      <trkpt lat="46.55026" lon="0.36304">
        <ele>77.599998474121</ele>
        <time>2019-05-12T09:11:58.000Z</time>
      </trkpt>
      <trkpt lat="46.55031" lon="0.36306">
        <ele>76.800003051758</ele>
        <time>2019-05-12T09:11:59.000Z</time>
      </trkpt>
      <trkpt lat="46.55037" lon="0.36312">
        <ele>75.400001525879</ele>
        <time>2019-05-12T09:12:01.000Z</time>
      </trkpt>
      <trkpt lat="46.5504" lon="0.3633">
        <ele>75.199996948242</ele>
        <time>2019-05-12T09:12:05.000Z</time>
      </trkpt>
      <trkpt lat="46.55035" lon="0.36343">
        <ele>75.400001525879</ele>
        <time>2019-05-12T09:12:09.000Z</time>
      </trkpt>
      <trkpt lat="46.55034" lon="0.36347">
        <ele>75.599998474121</ele>
        <time>2019-05-12T09:12:10.000Z</time>
      </trkpt>
      <trkpt lat="46.55032" lon="0.36354">
        <ele>76</ele>
        <time>2019-05-12T09:12:12.000Z</time>
      </trkpt>
      <trkpt lat="46.55031" lon="0.3636">
        <ele>76.599998474121</ele>
        <time>2019-05-12T09:12:14.000Z</time>
      </trkpt>
      <trkpt lat="46.55029" lon="0.36366">
        <ele>76.800003051758</ele>
        <time>2019-05-12T09:12:16.000Z</time>
      </trkpt>
      <trkpt lat="46.55028" lon="0.36388">
        <ele>77</ele>
        <time>2019-05-12T09:12:21.000Z</time>
      </trkpt>
      <trkpt lat="46.5503" lon="0.36412">
        <ele>77.800003051758</ele>
        <time>2019-05-12T09:12:27.000Z</time>
      </trkpt>
      <trkpt lat="46.5503" lon="0.36433">
        <ele>79</ele>
        <time>2019-05-12T09:12:32.000Z</time>
      </trkpt>
      <trkpt lat="46.5503" lon="0.36437">
        <ele>79</ele>
        <time>2019-05-12T09:12:33.000Z</time>
      </trkpt>
      <trkpt lat="46.55034" lon="0.36446">
        <ele>79.599998474121</ele>
        <time>2019-05-12T09:12:36.000Z</time>
      </trkpt>
      <trkpt lat="46.55034" lon="0.36449">
        <ele>80</ele>
        <time>2019-05-12T09:12:37.000Z</time>
      </trkpt>
      <trkpt lat="46.55033" lon="0.36453">
        <ele>80.199996948242</ele>
        <time>2019-05-12T09:12:38.000Z</time>
      </trkpt>
      <trkpt lat="46.55035" lon="0.36469">
        <ele>81.199996948242</ele>
        <time>2019-05-12T09:12:42.000Z</time>
      </trkpt>
      <trkpt lat="46.55038" lon="0.36477">
        <ele>81.599998474121</ele>
        <time>2019-05-12T09:12:44.000Z</time>
      </trkpt>
      <trkpt lat="46.55043" lon="0.36495">
        <ele>82.199996948242</ele>
        <time>2019-05-12T09:12:50.000Z</time>
      </trkpt>
      <trkpt lat="46.55044" lon="0.36498">
        <ele>82.400001525879</ele>
        <time>2019-05-12T09:12:51.000Z</time>
      </trkpt>
      <trkpt lat="46.55054" lon="0.36516">
        <ele>83.599998474121</ele>
        <time>2019-05-12T09:12:57.000Z</time>
      </trkpt>
      <trkpt lat="46.55063" lon="0.36527">
        <ele>84.599998474121</ele>
        <time>2019-05-12T09:13:01.000Z</time>
      </trkpt>
      <trkpt lat="46.55065" lon="0.36529">
        <ele>84.800003051758</ele>
        <time>2019-05-12T09:13:02.000Z</time>
      </trkpt>
      <trkpt lat="46.55073" lon="0.36539">
        <ele>85.800003051758</ele>
        <time>2019-05-12T09:13:07.000Z</time>
      </trkpt>
      <trkpt lat="46.55084" lon="0.3655">
        <ele>86.400001525879</ele>
        <time>2019-05-12T09:13:12.000Z</time>
      </trkpt>
      <trkpt lat="46.5509" lon="0.36555">
        <ele>86.800003051758</ele>
        <time>2019-05-12T09:13:15.000Z</time>
      </trkpt>
      <trkpt lat="46.55096" lon="0.36562">
        <ele>87.400001525879</ele>
        <time>2019-05-12T09:13:18.000Z</time>
      </trkpt>
      <trkpt lat="46.55098" lon="0.36565">
        <ele>87.400001525879</ele>
        <time>2019-05-12T09:13:19.000Z</time>
      </trkpt>
      <trkpt lat="46.55103" lon="0.36574">
        <ele>87.800003051758</ele>
        <time>2019-05-12T09:13:22.000Z</time>
      </trkpt>
      <trkpt lat="46.55105" lon="0.36576">
        <ele>88</ele>
        <time>2019-05-12T09:13:23.000Z</time>
      </trkpt>
      <trkpt lat="46.55111" lon="0.36591">
        <ele>88.800003051758</ele>
        <time>2019-05-12T09:13:28.000Z</time>
      </trkpt>
      <trkpt lat="46.55112" lon="0.36594">
        <ele>89</ele>
        <time>2019-05-12T09:13:29.000Z</time>
      </trkpt>
      <trkpt lat="46.55115" lon="0.36611">
        <ele>89.800003051758</ele>
        <time>2019-05-12T09:13:34.000Z</time>
      </trkpt>
      <trkpt lat="46.55116" lon="0.36614">
        <ele>90</ele>
        <time>2019-05-12T09:13:35.000Z</time>
      </trkpt>
      <trkpt lat="46.55118" lon="0.36616">
        <ele>90.199996948242</ele>
        <time>2019-05-12T09:13:36.000Z</time>
      </trkpt>
      <trkpt lat="46.55119" lon="0.3662">
        <ele>90.599998474121</ele>
        <time>2019-05-12T09:13:38.000Z</time>
      </trkpt>
      <trkpt lat="46.55119" lon="0.36622">
        <ele>90.800003051758</ele>
        <time>2019-05-12T09:13:43.000Z</time>
      </trkpt>
      <trkpt lat="46.55119" lon="0.36621">
        <ele>90.800003051758</ele>
        <time>2019-05-12T09:13:44.000Z</time>
      </trkpt>
      <trkpt lat="46.55116" lon="0.36621">
        <ele>90.800003051758</ele>
        <time>2019-05-12T09:13:51.000Z</time>
      </trkpt>
      <trkpt lat="46.55113" lon="0.36618">
        <ele>90.800003051758</ele>
        <time>2019-05-12T09:13:53.000Z</time>
      </trkpt>
      <trkpt lat="46.55099" lon="0.36618">
        <ele>91.400001525879</ele>
        <time>2019-05-12T09:13:59.000Z</time>
      </trkpt>
      <trkpt lat="46.55094" lon="0.36627">
        <ele>92.599998474121</ele>
        <time>2019-05-12T09:14:04.000Z</time>
      </trkpt>
      <trkpt lat="46.55087" lon="0.36634">
        <ele>93.800003051758</ele>
        <time>2019-05-12T09:14:09.000Z</time>
      </trkpt>
      <trkpt lat="46.55086" lon="0.36636">
        <ele>95</ele>
        <time>2019-05-12T09:14:11.000Z</time>
      </trkpt>
      <trkpt lat="46.55085" lon="0.36638">
        <ele>95.400001525879</ele>
        <time>2019-05-12T09:14:12.000Z</time>
      </trkpt>
      <trkpt lat="46.55084" lon="0.36641">
        <ele>96</ele>
        <time>2019-05-12T09:14:14.000Z</time>
      </trkpt>
      <trkpt lat="46.55081" lon="0.36653">
        <ele>97.400001525879</ele>
        <time>2019-05-12T09:14:19.000Z</time>
      </trkpt>
      <trkpt lat="46.5508" lon="0.36655">
        <ele>97.599998474121</ele>
        <time>2019-05-12T09:14:20.000Z</time>
      </trkpt>
      <trkpt lat="46.55078" lon="0.36662">
        <ele>98.599998474121</ele>
        <time>2019-05-12T09:14:23.000Z</time>
      </trkpt>
      <trkpt lat="46.55076" lon="0.36668">
        <ele>99.599998474121</ele>
        <time>2019-05-12T09:14:26.000Z</time>
      </trkpt>
      <trkpt lat="46.55074" lon="0.36674">
        <ele>100.59999847412</ele>
        <time>2019-05-12T09:14:29.000Z</time>
      </trkpt>
      <trkpt lat="46.55071" lon="0.36684">
        <ele>101.19999694824</ele>
        <time>2019-05-12T09:14:33.000Z</time>
      </trkpt>
      <trkpt lat="46.55071" lon="0.36687">
        <ele>101.80000305176</ele>
        <time>2019-05-12T09:14:34.000Z</time>
      </trkpt>
      <trkpt lat="46.55069" lon="0.36692">
        <ele>102.80000305176</ele>
        <time>2019-05-12T09:14:36.000Z</time>
      </trkpt>
      <trkpt lat="46.55065" lon="0.36696">
        <ele>103.40000152588</ele>
        <time>2019-05-12T09:14:38.000Z</time>
      </trkpt>
      <trkpt lat="46.5506" lon="0.367">
        <ele>104</ele>
        <time>2019-05-12T09:14:41.000Z</time>
      </trkpt>
      <trkpt lat="46.55058" lon="0.36702">
        <ele>104.19999694824</ele>
        <time>2019-05-12T09:14:42.000Z</time>
      </trkpt>
      <trkpt lat="46.55055" lon="0.36705">
        <ele>104.59999847412</ele>
        <time>2019-05-12T09:14:44.000Z</time>
      </trkpt>
      <trkpt lat="46.55046" lon="0.36706">
        <ele>105</ele>
        <time>2019-05-12T09:14:49.000Z</time>
      </trkpt>
      <trkpt lat="46.55044" lon="0.36705">
        <ele>105.19999694824</ele>
        <time>2019-05-12T09:14:50.000Z</time>
      </trkpt>
      <trkpt lat="46.55042" lon="0.36705">
        <ele>105.40000152588</ele>
        <time>2019-05-12T09:14:51.000Z</time>
      </trkpt>
      <trkpt lat="46.55031" lon="0.36709">
        <ele>106</ele>
        <time>2019-05-12T09:14:57.000Z</time>
      </trkpt>
      <trkpt lat="46.55029" lon="0.36711">
        <ele>106</ele>
        <time>2019-05-12T09:14:58.000Z</time>
      </trkpt>
      <trkpt lat="46.55029" lon="0.36714">
        <ele>106.59999847412</ele>
        <time>2019-05-12T09:15:01.000Z</time>
      </trkpt>
      <trkpt lat="46.55029" lon="0.36715">
        <ele>106.59999847412</ele>
        <time>2019-05-12T09:15:02.000Z</time>
      </trkpt>
      <trkpt lat="46.55026" lon="0.3672">
        <ele>106.80000305176</ele>
        <time>2019-05-12T09:15:13.000Z</time>
      </trkpt>
      <trkpt lat="46.55024" lon="0.36725">
        <ele>107</ele>
        <time>2019-05-12T09:15:15.000Z</time>
      </trkpt>
      <trkpt lat="46.55023" lon="0.36732">
        <ele>107.19999694824</ele>
        <time>2019-05-12T09:15:17.000Z</time>
      </trkpt>
      <trkpt lat="46.55018" lon="0.3675">
        <ele>107.59999847412</ele>
        <time>2019-05-12T09:15:22.000Z</time>
      </trkpt>
      <trkpt lat="46.55012" lon="0.36772">
        <ele>108</ele>
        <time>2019-05-12T09:15:28.000Z</time>
      </trkpt>
      <trkpt lat="46.55008" lon="0.36786">
        <ele>108.19999694824</ele>
        <time>2019-05-12T09:15:32.000Z</time>
      </trkpt>
      <trkpt lat="46.55005" lon="0.36811">
        <ele>108.59999847412</ele>
        <time>2019-05-12T09:15:39.000Z</time>
      </trkpt>
      <trkpt lat="46.55016" lon="0.36821">
        <ele>109</ele>
        <time>2019-05-12T09:15:43.000Z</time>
      </trkpt>
      <trkpt lat="46.55031" lon="0.36826">
        <ele>108.80000305176</ele>
        <time>2019-05-12T09:15:46.000Z</time>
      </trkpt>
      <trkpt lat="46.55037" lon="0.36829">
        <ele>108.19999694824</ele>
        <time>2019-05-12T09:15:47.000Z</time>
      </trkpt>
      <trkpt lat="46.55049" lon="0.36834">
        <ele>107</ele>
        <time>2019-05-12T09:15:49.000Z</time>
      </trkpt>
      <trkpt lat="46.55056" lon="0.36836">
        <ele>106.40000152588</ele>
        <time>2019-05-12T09:15:50.000Z</time>
      </trkpt>
      <trkpt lat="46.55077" lon="0.36844">
        <ele>105.19999694824</ele>
        <time>2019-05-12T09:15:53.000Z</time>
      </trkpt>
      <trkpt lat="46.55084" lon="0.36847">
        <ele>105</ele>
        <time>2019-05-12T09:15:54.000Z</time>
      </trkpt>
      <trkpt lat="46.55119" lon="0.36862">
        <ele>104.80000305176</ele>
        <time>2019-05-12T09:16:00.000Z</time>
      </trkpt>
      <trkpt lat="46.55128" lon="0.36866">
        <ele>104.80000305176</ele>
        <time>2019-05-12T09:16:02.000Z</time>
      </trkpt>
      <trkpt lat="46.55137" lon="0.36871">
        <ele>104.59999847412</ele>
        <time>2019-05-12T09:16:04.000Z</time>
      </trkpt>
      <trkpt lat="46.55145" lon="0.36878">
        <ele>104.40000152588</ele>
        <time>2019-05-12T09:16:06.000Z</time>
      </trkpt>
      <trkpt lat="46.55156" lon="0.3689">
        <ele>104.59999847412</ele>
        <time>2019-05-12T09:16:09.000Z</time>
      </trkpt>
      <trkpt lat="46.55164" lon="0.369">
        <ele>105.40000152588</ele>
        <time>2019-05-12T09:16:12.000Z</time>
      </trkpt>
      <trkpt lat="46.55171" lon="0.36909">
        <ele>106</ele>
        <time>2019-05-12T09:16:15.000Z</time>
      </trkpt>
      <trkpt lat="46.55188" lon="0.36924">
        <ele>107.19999694824</ele>
        <time>2019-05-12T09:16:21.000Z</time>
      </trkpt>
      <trkpt lat="46.55201" lon="0.36935">
        <ele>108.19999694824</ele>
        <time>2019-05-12T09:16:26.000Z</time>
      </trkpt>
      <trkpt lat="46.55209" lon="0.36942">
        <ele>109</ele>
        <time>2019-05-12T09:16:29.000Z</time>
      </trkpt>
      <trkpt lat="46.55212" lon="0.36944">
        <ele>109.40000152588</ele>
        <time>2019-05-12T09:16:30.000Z</time>
      </trkpt>
      <trkpt lat="46.55224" lon="0.36949">
        <ele>110.59999847412</ele>
        <time>2019-05-12T09:16:34.000Z</time>
      </trkpt>
      <trkpt lat="46.55227" lon="0.36951">
        <ele>111</ele>
        <time>2019-05-12T09:16:35.000Z</time>
      </trkpt>
      <trkpt lat="46.55237" lon="0.36955">
        <ele>111.80000305176</ele>
        <time>2019-05-12T09:16:38.000Z</time>
      </trkpt>
      <trkpt lat="46.55246" lon="0.36959">
        <ele>112.80000305176</ele>
        <time>2019-05-12T09:16:41.000Z</time>
      </trkpt>
      <trkpt lat="46.55249" lon="0.36961">
        <ele>113.19999694824</ele>
        <time>2019-05-12T09:16:42.000Z</time>
      </trkpt>
      <trkpt lat="46.55259" lon="0.36965">
        <ele>114.19999694824</ele>
        <time>2019-05-12T09:16:45.000Z</time>
      </trkpt>
      <trkpt lat="46.55268" lon="0.3697">
        <ele>115.19999694824</ele>
        <time>2019-05-12T09:16:48.000Z</time>
      </trkpt>
      <trkpt lat="46.55275" lon="0.36972">
        <ele>115.80000305176</ele>
        <time>2019-05-12T09:16:50.000Z</time>
      </trkpt>
      <trkpt lat="46.55285" lon="0.36976">
        <ele>116.40000152588</ele>
        <time>2019-05-12T09:16:53.000Z</time>
      </trkpt>
      <trkpt lat="46.55298" lon="0.36982">
        <ele>117.59999847412</ele>
        <time>2019-05-12T09:16:57.000Z</time>
      </trkpt>
      <trkpt lat="46.55304" lon="0.36985">
        <ele>118</ele>
        <time>2019-05-12T09:16:59.000Z</time>
      </trkpt>
      <trkpt lat="46.55314" lon="0.3699">
        <ele>118.59999847412</ele>
        <time>2019-05-12T09:17:02.000Z</time>
      </trkpt>
      <trkpt lat="46.55326" lon="0.36995">
        <ele>119.59999847412</ele>
        <time>2019-05-12T09:17:06.000Z</time>
      </trkpt>
      <trkpt lat="46.55329" lon="0.36997">
        <ele>119.80000305176</ele>
        <time>2019-05-12T09:17:07.000Z</time>
      </trkpt>
      <trkpt lat="46.55347" lon="0.37005">
        <ele>120.40000152588</ele>
        <time>2019-05-12T09:17:13.000Z</time>
      </trkpt>
      <trkpt lat="46.55353" lon="0.37007">
        <ele>120.59999847412</ele>
        <time>2019-05-12T09:17:15.000Z</time>
      </trkpt>
      <trkpt lat="46.55365" lon="0.37012">
        <ele>120.80000305176</ele>
        <time>2019-05-12T09:17:19.000Z</time>
      </trkpt>
      <trkpt lat="46.55396" lon="0.37026">
        <ele>121</ele>
        <time>2019-05-12T09:17:28.000Z</time>
      </trkpt>
      <trkpt lat="46.55432" lon="0.37041">
        <ele>121.19999694824</ele>
        <time>2019-05-12T09:17:38.000Z</time>
      </trkpt>
      <trkpt lat="46.55457" lon="0.37051">
        <ele>121.59999847412</ele>
        <time>2019-05-12T09:17:45.000Z</time>
      </trkpt>
      <trkpt lat="46.55467" lon="0.37056">
        <ele>121.80000305176</ele>
        <time>2019-05-12T09:17:48.000Z</time>
      </trkpt>
      <trkpt lat="46.55488" lon="0.37065">
        <ele>122.19999694824</ele>
        <time>2019-05-12T09:17:54.000Z</time>
      </trkpt>
      <trkpt lat="46.55498" lon="0.37071">
        <ele>122.40000152588</ele>
        <time>2019-05-12T09:17:57.000Z</time>
      </trkpt>
      <trkpt lat="46.55535" lon="0.37093">
        <ele>123.40000152588</ele>
        <time>2019-05-12T09:18:08.000Z</time>
      </trkpt>
      <trkpt lat="46.55563" lon="0.37113">
        <ele>124.40000152588</ele>
        <time>2019-05-12T09:18:17.000Z</time>
      </trkpt>
      <trkpt lat="46.55568" lon="0.37125">
        <ele>124.19999694824</ele>
        <time>2019-05-12T09:18:20.000Z</time>
      </trkpt>
      <trkpt lat="46.55567" lon="0.3713">
        <ele>124</ele>
        <time>2019-05-12T09:18:21.000Z</time>
      </trkpt>
      <trkpt lat="46.55559" lon="0.37144">
        <ele>123.80000305176</ele>
        <time>2019-05-12T09:18:25.000Z</time>
      </trkpt>
      <trkpt lat="46.55553" lon="0.37151">
        <ele>124</ele>
        <time>2019-05-12T09:18:27.000Z</time>
      </trkpt>
      <trkpt lat="46.5554" lon="0.37171">
        <ele>124.80000305176</ele>
        <time>2019-05-12T09:18:32.000Z</time>
      </trkpt>
      <trkpt lat="46.55532" lon="0.37183">
        <ele>125.19999694824</ele>
        <time>2019-05-12T09:18:35.000Z</time>
      </trkpt>
      <trkpt lat="46.55525" lon="0.37197">
        <ele>125.19999694824</ele>
        <time>2019-05-12T09:18:38.000Z</time>
      </trkpt>
      <trkpt lat="46.55518" lon="0.37211">
        <ele>125.40000152588</ele>
        <time>2019-05-12T09:18:41.000Z</time>
      </trkpt>
      <trkpt lat="46.55503" lon="0.3725">
        <ele>126.19999694824</ele>
        <time>2019-05-12T09:18:49.000Z</time>
      </trkpt>
      <trkpt lat="46.555" lon="0.37254">
        <ele>126.40000152588</ele>
        <time>2019-05-12T09:18:50.000Z</time>
      </trkpt>
      <trkpt lat="46.55492" lon="0.37259">
        <ele>126.59999847412</ele>
        <time>2019-05-12T09:18:52.000Z</time>
      </trkpt>
      <trkpt lat="46.55461" lon="0.37274">
        <ele>126.80000305176</ele>
        <time>2019-05-12T09:18:59.000Z</time>
      </trkpt>
      <trkpt lat="46.55418" lon="0.37291">
        <ele>126.59999847412</ele>
        <time>2019-05-12T09:19:08.000Z</time>
      </trkpt>
      <trkpt lat="46.55409" lon="0.37296">
        <ele>127.40000152588</ele>
        <time>2019-05-12T09:19:10.000Z</time>
      </trkpt>
      <trkpt lat="46.55382" lon="0.37308">
        <ele>127.19999694824</ele>
        <time>2019-05-12T09:19:16.000Z</time>
      </trkpt>
      <trkpt lat="46.55347" lon="0.37329">
        <ele>127.40000152588</ele>
        <time>2019-05-12T09:19:24.000Z</time>
      </trkpt>
      <trkpt lat="46.5531" lon="0.37349">
        <ele>127.19999694824</ele>
        <time>2019-05-12T09:19:32.000Z</time>
      </trkpt>
      <trkpt lat="46.55281" lon="0.37365">
        <ele>126.40000152588</ele>
        <time>2019-05-12T09:19:38.000Z</time>
      </trkpt>
      <trkpt lat="46.55276" lon="0.37367">
        <ele>126.19999694824</ele>
        <time>2019-05-12T09:19:39.000Z</time>
      </trkpt>
      <trkpt lat="46.55261" lon="0.37376">
        <ele>126</ele>
        <time>2019-05-12T09:19:42.000Z</time>
      </trkpt>
      <trkpt lat="46.55227" lon="0.37402">
        <ele>125.80000305176</ele>
        <time>2019-05-12T09:19:49.000Z</time>
      </trkpt>
      <trkpt lat="46.55208" lon="0.37423">
        <ele>125</ele>
        <time>2019-05-12T09:19:53.000Z</time>
      </trkpt>
      <trkpt lat="46.55186" lon="0.37444">
        <ele>124.80000305176</ele>
        <time>2019-05-12T09:19:57.000Z</time>
      </trkpt>
      <trkpt lat="46.55171" lon="0.3746">
        <ele>125</ele>
        <time>2019-05-12T09:20:00.000Z</time>
      </trkpt>
      <trkpt lat="46.55147" lon="0.37482">
        <ele>123.40000152588</ele>
        <time>2019-05-12T09:20:04.000Z</time>
      </trkpt>
      <trkpt lat="46.55128" lon="0.37499">
        <ele>122.19999694824</ele>
        <time>2019-05-12T09:20:07.000Z</time>
      </trkpt>
      <trkpt lat="46.55109" lon="0.37519">
        <ele>121.40000152588</ele>
        <time>2019-05-12T09:20:10.000Z</time>
      </trkpt>
      <trkpt lat="46.55102" lon="0.37526">
        <ele>121.19999694824</ele>
        <time>2019-05-12T09:20:11.000Z</time>
      </trkpt>
      <trkpt lat="46.55071" lon="0.37556">
        <ele>120.59999847412</ele>
        <time>2019-05-12T09:20:16.000Z</time>
      </trkpt>
      <trkpt lat="46.5506" lon="0.37567">
        <ele>120.19999694824</ele>
        <time>2019-05-12T09:20:18.000Z</time>
      </trkpt>
      <trkpt lat="46.55024" lon="0.376">
        <ele>119.80000305176</ele>
        <time>2019-05-12T09:20:24.000Z</time>
      </trkpt>
      <trkpt lat="46.54994" lon="0.37627">
        <ele>120.40000152588</ele>
        <time>2019-05-12T09:20:29.000Z</time>
      </trkpt>
      <trkpt lat="46.54988" lon="0.37632">
        <ele>120.59999847412</ele>
        <time>2019-05-12T09:20:30.000Z</time>
      </trkpt>
      <trkpt lat="46.54956" lon="0.37658">
        <ele>120.19999694824</ele>
        <time>2019-05-12T09:20:36.000Z</time>
      </trkpt>
      <trkpt lat="46.54917" lon="0.37688">
        <ele>120.40000152588</ele>
        <time>2019-05-12T09:20:43.000Z</time>
      </trkpt>
      <trkpt lat="46.54875" lon="0.37717">
        <ele>118.80000305176</ele>
        <time>2019-05-12T09:20:50.000Z</time>
      </trkpt>
      <trkpt lat="46.54862" lon="0.37725">
        <ele>118.59999847412</ele>
        <time>2019-05-12T09:20:52.000Z</time>
      </trkpt>
      <trkpt lat="46.54826" lon="0.37744">
        <ele>117.59999847412</ele>
        <time>2019-05-12T09:20:57.000Z</time>
      </trkpt>
      <trkpt lat="46.54802" lon="0.37748">
        <ele>116.40000152588</ele>
        <time>2019-05-12T09:21:00.000Z</time>
      </trkpt>
      <trkpt lat="46.54786" lon="0.3775">
        <ele>115.59999847412</ele>
        <time>2019-05-12T09:21:02.000Z</time>
      </trkpt>
      <trkpt lat="46.54778" lon="0.37751">
        <ele>115.40000152588</ele>
        <time>2019-05-12T09:21:03.000Z</time>
      </trkpt>
      <trkpt lat="46.54771" lon="0.37754">
        <ele>115.40000152588</ele>
        <time>2019-05-12T09:21:04.000Z</time>
      </trkpt>
      <trkpt lat="46.54756" lon="0.37765">
        <ele>113.80000305176</ele>
        <time>2019-05-12T09:21:06.000Z</time>
      </trkpt>
      <trkpt lat="46.5474" lon="0.37794">
        <ele>112.40000152588</ele>
        <time>2019-05-12T09:21:09.000Z</time>
      </trkpt>
      <trkpt lat="46.54736" lon="0.37804">
        <ele>111.80000305176</ele>
        <time>2019-05-12T09:21:10.000Z</time>
      </trkpt>
      <trkpt lat="46.54732" lon="0.37814">
        <ele>111.19999694824</ele>
        <time>2019-05-12T09:21:11.000Z</time>
      </trkpt>
      <trkpt lat="46.54717" lon="0.37839">
        <ele>110</ele>
        <time>2019-05-12T09:21:14.000Z</time>
      </trkpt>
      <trkpt lat="46.54712" lon="0.37846">
        <ele>109.59999847412</ele>
        <time>2019-05-12T09:21:15.000Z</time>
      </trkpt>
      <trkpt lat="46.54698" lon="0.37864">
        <ele>109.19999694824</ele>
        <time>2019-05-12T09:21:18.000Z</time>
      </trkpt>
      <trkpt lat="46.54676" lon="0.379">
        <ele>109.19999694824</ele>
        <time>2019-05-12T09:21:24.000Z</time>
      </trkpt>
      <trkpt lat="46.54673" lon="0.37906">
        <ele>109.19999694824</ele>
        <time>2019-05-12T09:21:25.000Z</time>
      </trkpt>
      <trkpt lat="46.54658" lon="0.37924">
        <ele>110</ele>
        <time>2019-05-12T09:21:29.000Z</time>
      </trkpt>
      <trkpt lat="46.54641" lon="0.37942">
        <ele>110.80000305176</ele>
        <time>2019-05-12T09:21:34.000Z</time>
      </trkpt>
      <trkpt lat="46.54638" lon="0.37945">
        <ele>111</ele>
        <time>2019-05-12T09:21:35.000Z</time>
      </trkpt>
      <trkpt lat="46.54628" lon="0.37957">
        <ele>112.19999694824</ele>
        <time>2019-05-12T09:21:39.000Z</time>
      </trkpt>
      <trkpt lat="46.54625" lon="0.3796">
        <ele>112.40000152588</ele>
        <time>2019-05-12T09:21:40.000Z</time>
      </trkpt>
      <trkpt lat="46.54616" lon="0.37974">
        <ele>113.59999847412</ele>
        <time>2019-05-12T09:21:44.000Z</time>
      </trkpt>
      <trkpt lat="46.54611" lon="0.37981">
        <ele>114.19999694824</ele>
        <time>2019-05-12T09:21:46.000Z</time>
      </trkpt>
      <trkpt lat="46.54594" lon="0.38009">
        <ele>115</ele>
        <time>2019-05-12T09:21:54.000Z</time>
      </trkpt>
      <trkpt lat="46.54587" lon="0.38019">
        <ele>116.19999694824</ele>
        <time>2019-05-12T09:21:57.000Z</time>
      </trkpt>
      <trkpt lat="46.5458" lon="0.38028">
        <ele>116.80000305176</ele>
        <time>2019-05-12T09:22:00.000Z</time>
      </trkpt>
      <trkpt lat="46.54574" lon="0.38038">
        <ele>117.19999694824</ele>
        <time>2019-05-12T09:22:03.000Z</time>
      </trkpt>
      <trkpt lat="46.54569" lon="0.38049">
        <ele>117.80000305176</ele>
        <time>2019-05-12T09:22:06.000Z</time>
      </trkpt>
      <trkpt lat="46.54566" lon="0.38053">
        <ele>118.40000152588</ele>
        <time>2019-05-12T09:22:07.000Z</time>
      </trkpt>
      <trkpt lat="46.54554" lon="0.38069">
        <ele>119.40000152588</ele>
        <time>2019-05-12T09:22:12.000Z</time>
      </trkpt>
      <trkpt lat="46.54545" lon="0.3808">
        <ele>120.40000152588</ele>
        <time>2019-05-12T09:22:16.000Z</time>
      </trkpt>
      <trkpt lat="46.54541" lon="0.38086">
        <ele>121</ele>
        <time>2019-05-12T09:22:18.000Z</time>
      </trkpt>
      <trkpt lat="46.54539" lon="0.38088">
        <ele>121.59999847412</ele>
        <time>2019-05-12T09:22:19.000Z</time>
      </trkpt>
      <trkpt lat="46.54527" lon="0.381">
        <ele>122.59999847412</ele>
        <time>2019-05-12T09:22:24.000Z</time>
      </trkpt>
      <trkpt lat="46.54524" lon="0.38102">
        <ele>122.80000305176</ele>
        <time>2019-05-12T09:22:25.000Z</time>
      </trkpt>
      <trkpt lat="46.54508" lon="0.38118">
        <ele>124</ele>
        <time>2019-05-12T09:22:31.000Z</time>
      </trkpt>
      <trkpt lat="46.54502" lon="0.38124">
        <ele>124.19999694824</ele>
        <time>2019-05-12T09:22:33.000Z</time>
      </trkpt>
      <trkpt lat="46.54487" lon="0.38139">
        <ele>125.19999694824</ele>
        <time>2019-05-12T09:22:38.000Z</time>
      </trkpt>
      <trkpt lat="46.54481" lon="0.38146">
        <ele>125.40000152588</ele>
        <time>2019-05-12T09:22:40.000Z</time>
      </trkpt>
      <trkpt lat="46.54457" lon="0.38175">
        <ele>125.19999694824</ele>
        <time>2019-05-12T09:22:49.000Z</time>
      </trkpt>
      <trkpt lat="46.54437" lon="0.38198">
        <ele>125.59999847412</ele>
        <time>2019-05-12T09:22:56.000Z</time>
      </trkpt>
      <trkpt lat="46.54412" lon="0.38221">
        <ele>125.80000305176</ele>
        <time>2019-05-12T09:23:05.000Z</time>
      </trkpt>
      <trkpt lat="46.54409" lon="0.38223">
        <ele>126</ele>
        <time>2019-05-12T09:23:06.000Z</time>
      </trkpt>
      <trkpt lat="46.54392" lon="0.38235">
        <ele>126</ele>
        <time>2019-05-12T09:23:12.000Z</time>
      </trkpt>
      <trkpt lat="46.54375" lon="0.38243">
        <ele>126.59999847412</ele>
        <time>2019-05-12T09:23:18.000Z</time>
      </trkpt>
      <trkpt lat="46.54361" lon="0.38251">
        <ele>126.40000152588</ele>
        <time>2019-05-12T09:23:24.000Z</time>
      </trkpt>
      <trkpt lat="46.5435" lon="0.38256">
        <ele>126.80000305176</ele>
        <time>2019-05-12T09:23:29.000Z</time>
      </trkpt>
      <trkpt lat="46.54347" lon="0.38258">
        <ele>126.80000305176</ele>
        <time>2019-05-12T09:23:30.000Z</time>
      </trkpt>
      <trkpt lat="46.54338" lon="0.38262">
        <ele>126.80000305176</ele>
        <time>2019-05-12T09:23:34.000Z</time>
      </trkpt>
      <trkpt lat="46.54335" lon="0.38263">
        <ele>126.80000305176</ele>
        <time>2019-05-12T09:23:35.000Z</time>
      </trkpt>
      <trkpt lat="46.54328" lon="0.38267">
        <ele>127</ele>
        <time>2019-05-12T09:23:38.000Z</time>
      </trkpt>
      <trkpt lat="46.54319" lon="0.38273">
        <ele>127.19999694824</ele>
        <time>2019-05-12T09:23:41.000Z</time>
      </trkpt>
      <trkpt lat="46.54294" lon="0.38286">
        <ele>127.59999847412</ele>
        <time>2019-05-12T09:23:49.000Z</time>
      </trkpt>
      <trkpt lat="46.54282" lon="0.38292">
        <ele>127.59999847412</ele>
        <time>2019-05-12T09:23:53.000Z</time>
      </trkpt>
      <trkpt lat="46.54279" lon="0.38295">
        <ele>127.59999847412</ele>
        <time>2019-05-12T09:23:54.000Z</time>
      </trkpt>
      <trkpt lat="46.54264" lon="0.38305">
        <ele>128</ele>
        <time>2019-05-12T09:23:59.000Z</time>
      </trkpt>
      <trkpt lat="46.54246" lon="0.38313">
        <ele>127.59999847412</ele>
        <time>2019-05-12T09:24:05.000Z</time>
      </trkpt>
      <trkpt lat="46.54223" lon="0.38329">
        <ele>127.80000305176</ele>
        <time>2019-05-12T09:24:12.000Z</time>
      </trkpt>
      <trkpt lat="46.54201" lon="0.38343">
        <ele>127.80000305176</ele>
        <time>2019-05-12T09:24:18.000Z</time>
      </trkpt>
      <trkpt lat="46.54188" lon="0.3835">
        <ele>128.19999694824</ele>
        <time>2019-05-12T09:24:21.000Z</time>
      </trkpt>
      <trkpt lat="46.54166" lon="0.38364">
        <ele>128.39999389648</ele>
        <time>2019-05-12T09:24:26.000Z</time>
      </trkpt>
      <trkpt lat="46.54139" lon="0.3838">
        <ele>127.59999847412</ele>
        <time>2019-05-12T09:24:32.000Z</time>
      </trkpt>
      <trkpt lat="46.54107" lon="0.38399">
        <ele>127.40000152588</ele>
        <time>2019-05-12T09:24:38.000Z</time>
      </trkpt>
      <trkpt lat="46.54078" lon="0.38416">
        <ele>127.19999694824</ele>
        <time>2019-05-12T09:24:43.000Z</time>
      </trkpt>
      <trkpt lat="46.54072" lon="0.38419">
        <ele>127</ele>
        <time>2019-05-12T09:24:44.000Z</time>
      </trkpt>
      <trkpt lat="46.54043" lon="0.38437">
        <ele>126</ele>
        <time>2019-05-12T09:24:49.000Z</time>
      </trkpt>
      <trkpt lat="46.54038" lon="0.38441">
        <ele>125.59999847412</ele>
        <time>2019-05-12T09:24:50.000Z</time>
      </trkpt>
      <trkpt lat="46.54015" lon="0.3846">
        <ele>124.80000305176</ele>
        <time>2019-05-12T09:24:54.000Z</time>
      </trkpt>
      <trkpt lat="46.54003" lon="0.38469">
        <ele>124</ele>
        <time>2019-05-12T09:24:56.000Z</time>
      </trkpt>
      <trkpt lat="46.53998" lon="0.38474">
        <ele>123.80000305176</ele>
        <time>2019-05-12T09:24:57.000Z</time>
      </trkpt>
      <trkpt lat="46.53991" lon="0.38479">
        <ele>123.40000152588</ele>
        <time>2019-05-12T09:24:58.000Z</time>
      </trkpt>
      <trkpt lat="46.53973" lon="0.38494">
        <ele>122.19999694824</ele>
        <time>2019-05-12T09:25:01.000Z</time>
      </trkpt>
      <trkpt lat="46.53959" lon="0.38505">
        <ele>120.80000305176</ele>
        <time>2019-05-12T09:25:03.000Z</time>
      </trkpt>
      <trkpt lat="46.53952" lon="0.38511">
        <ele>120.59999847412</ele>
        <time>2019-05-12T09:25:04.000Z</time>
      </trkpt>
      <trkpt lat="46.53916" lon="0.38543">
        <ele>119.40000152588</ele>
        <time>2019-05-12T09:25:09.000Z</time>
      </trkpt>
      <trkpt lat="46.53908" lon="0.38549">
        <ele>118.40000152588</ele>
        <time>2019-05-12T09:25:10.000Z</time>
      </trkpt>
      <trkpt lat="46.53901" lon="0.38554">
        <ele>116.59999847412</ele>
        <time>2019-05-12T09:25:11.000Z</time>
      </trkpt>
      <trkpt lat="46.53887" lon="0.38566">
        <ele>115.19999694824</ele>
        <time>2019-05-12T09:25:13.000Z</time>
      </trkpt>
      <trkpt lat="46.53865" lon="0.38583">
        <ele>114</ele>
        <time>2019-05-12T09:25:16.000Z</time>
      </trkpt>
      <trkpt lat="46.5385" lon="0.38594">
        <ele>112.80000305176</ele>
        <time>2019-05-12T09:25:18.000Z</time>
      </trkpt>
      <trkpt lat="46.53823" lon="0.38617">
        <ele>112</ele>
        <time>2019-05-12T09:25:22.000Z</time>
      </trkpt>
      <trkpt lat="46.53817" lon="0.38624">
        <ele>111.40000152588</ele>
        <time>2019-05-12T09:25:23.000Z</time>
      </trkpt>
      <trkpt lat="46.53799" lon="0.38643">
        <ele>110.59999847412</ele>
        <time>2019-05-12T09:25:26.000Z</time>
      </trkpt>
      <trkpt lat="46.53793" lon="0.38648">
        <ele>110.40000152588</ele>
        <time>2019-05-12T09:25:27.000Z</time>
      </trkpt>
      <trkpt lat="46.53787" lon="0.38652">
        <ele>110.40000152588</ele>
        <time>2019-05-12T09:25:28.000Z</time>
      </trkpt>
      <trkpt lat="46.53767" lon="0.3866">
        <ele>111</ele>
        <time>2019-05-12T09:25:31.000Z</time>
      </trkpt>
      <trkpt lat="46.53761" lon="0.38662">
        <ele>111.40000152588</ele>
        <time>2019-05-12T09:25:32.000Z</time>
      </trkpt>
      <trkpt lat="46.53713" lon="0.38678">
        <ele>111.40000152588</ele>
        <time>2019-05-12T09:25:40.000Z</time>
      </trkpt>
      <trkpt lat="46.53689" lon="0.38691">
        <ele>111.59999847412</ele>
        <time>2019-05-12T09:25:45.000Z</time>
      </trkpt>
      <trkpt lat="46.53666" lon="0.38706">
        <ele>111.59999847412</ele>
        <time>2019-05-12T09:25:50.000Z</time>
      </trkpt>
      <trkpt lat="46.53657" lon="0.38712">
        <ele>111.59999847412</ele>
        <time>2019-05-12T09:25:52.000Z</time>
      </trkpt>
      <trkpt lat="46.53647" lon="0.38719">
        <ele>111.59999847412</ele>
        <time>2019-05-12T09:25:54.000Z</time>
      </trkpt>
      <trkpt lat="46.53642" lon="0.38723">
        <ele>111.80000305176</ele>
        <time>2019-05-12T09:25:55.000Z</time>
      </trkpt>
      <trkpt lat="46.53611" lon="0.38744">
        <ele>112.40000152588</ele>
        <time>2019-05-12T09:26:01.000Z</time>
      </trkpt>
      <trkpt lat="46.53571" lon="0.38771">
        <ele>112</ele>
        <time>2019-05-12T09:26:09.000Z</time>
      </trkpt>
      <trkpt lat="46.53555" lon="0.38778">
        <ele>112.40000152588</ele>
        <time>2019-05-12T09:26:12.000Z</time>
      </trkpt>
      <trkpt lat="46.5354" lon="0.38781">
        <ele>112.59999847412</ele>
        <time>2019-05-12T09:26:15.000Z</time>
      </trkpt>
      <trkpt lat="46.53513" lon="0.38784">
        <ele>113.19999694824</ele>
        <time>2019-05-12T09:26:21.000Z</time>
      </trkpt>
      <trkpt lat="46.53489" lon="0.38788">
        <ele>113</ele>
        <time>2019-05-12T09:26:27.000Z</time>
      </trkpt>
      <trkpt lat="46.53479" lon="0.3879">
        <ele>113.40000152588</ele>
        <time>2019-05-12T09:26:30.000Z</time>
      </trkpt>
      <trkpt lat="46.53469" lon="0.38793">
        <ele>114.59999847412</ele>
        <time>2019-05-12T09:26:33.000Z</time>
      </trkpt>
      <trkpt lat="46.53462" lon="0.38795">
        <ele>115.59999847412</ele>
        <time>2019-05-12T09:26:35.000Z</time>
      </trkpt>
      <trkpt lat="46.53449" lon="0.38798">
        <ele>117.19999694824</ele>
        <time>2019-05-12T09:26:39.000Z</time>
      </trkpt>
      <trkpt lat="46.53443" lon="0.38799">
        <ele>118.19999694824</ele>
        <time>2019-05-12T09:26:41.000Z</time>
      </trkpt>
      <trkpt lat="46.53437" lon="0.388">
        <ele>119</ele>
        <time>2019-05-12T09:26:43.000Z</time>
      </trkpt>
      <trkpt lat="46.53411" lon="0.38804">
        <ele>119</ele>
        <time>2019-05-12T09:26:51.000Z</time>
      </trkpt>
      <trkpt lat="46.53409" lon="0.38805">
        <ele>119.19999694824</ele>
        <time>2019-05-12T09:26:52.000Z</time>
      </trkpt>
      <trkpt lat="46.53394" lon="0.38808">
        <ele>120.59999847412</ele>
        <time>2019-05-12T09:26:57.000Z</time>
      </trkpt>
      <trkpt lat="46.53388" lon="0.38808">
        <ele>121</ele>
        <time>2019-05-12T09:26:59.000Z</time>
      </trkpt>
      <trkpt lat="46.53376" lon="0.3881">
        <ele>121.59999847412</ele>
        <time>2019-05-12T09:27:03.000Z</time>
      </trkpt>
      <trkpt lat="46.53371" lon="0.3881">
        <ele>121.80000305176</ele>
        <time>2019-05-12T09:27:05.000Z</time>
      </trkpt>
      <trkpt lat="46.53355" lon="0.38813">
        <ele>122.59999847412</ele>
        <time>2019-05-12T09:27:10.000Z</time>
      </trkpt>
      <trkpt lat="46.53349" lon="0.38815">
        <ele>122.80000305176</ele>
        <time>2019-05-12T09:27:12.000Z</time>
      </trkpt>
      <trkpt lat="46.53338" lon="0.38816">
        <ele>123.19999694824</ele>
        <time>2019-05-12T09:27:17.000Z</time>
      </trkpt>
      <trkpt lat="46.53338" lon="0.38817">
        <ele>123.40000152588</ele>
        <time>2019-05-12T09:27:19.000Z</time>
      </trkpt>
      <trkpt lat="46.53334" lon="0.3882">
        <ele>124.40000152588</ele>
        <time>2019-05-12T09:29:49.000Z</time>
      </trkpt>
      <trkpt lat="46.53332" lon="0.38821">
        <ele>124.40000152588</ele>
        <time>2019-05-12T09:29:50.000Z</time>
      </trkpt>
      <trkpt lat="46.53324" lon="0.38825">
        <ele>124.80000305176</ele>
        <time>2019-05-12T09:29:53.000Z</time>
      </trkpt>
      <trkpt lat="46.53314" lon="0.38828">
        <ele>124.80000305176</ele>
        <time>2019-05-12T09:29:56.000Z</time>
      </trkpt>
      <trkpt lat="46.53301" lon="0.38832">
        <ele>125.19999694824</ele>
        <time>2019-05-12T09:29:59.000Z</time>
      </trkpt>
      <trkpt lat="46.53294" lon="0.38834">
        <ele>125.59999847412</ele>
        <time>2019-05-12T09:30:01.000Z</time>
      </trkpt>
      <trkpt lat="46.53282" lon="0.38839">
        <ele>126.80000305176</ele>
        <time>2019-05-12T09:30:04.000Z</time>
      </trkpt>
      <trkpt lat="46.53278" lon="0.3884">
        <ele>127</ele>
        <time>2019-05-12T09:30:05.000Z</time>
      </trkpt>
      <trkpt lat="46.5327" lon="0.38843">
        <ele>127.19999694824</ele>
        <time>2019-05-12T09:30:07.000Z</time>
      </trkpt>
      <trkpt lat="46.53253" lon="0.38847">
        <ele>126.80000305176</ele>
        <time>2019-05-12T09:30:11.000Z</time>
      </trkpt>
      <trkpt lat="46.53245" lon="0.3885">
        <ele>127</ele>
        <time>2019-05-12T09:30:13.000Z</time>
      </trkpt>
      <trkpt lat="46.53236" lon="0.38853">
        <ele>127</ele>
        <time>2019-05-12T09:30:15.000Z</time>
      </trkpt>
      <trkpt lat="46.53228" lon="0.38857">
        <ele>127</ele>
        <time>2019-05-12T09:30:17.000Z</time>
      </trkpt>
      <trkpt lat="46.53219" lon="0.3886">
        <ele>127</ele>
        <time>2019-05-12T09:30:19.000Z</time>
      </trkpt>
      <trkpt lat="46.53183" lon="0.38866">
        <ele>127.19999694824</ele>
        <time>2019-05-12T09:30:27.000Z</time>
      </trkpt>
      <trkpt lat="46.53163" lon="0.38869">
        <ele>127.59999847412</ele>
        <time>2019-05-12T09:30:31.000Z</time>
      </trkpt>
      <trkpt lat="46.53148" lon="0.38875">
        <ele>127.59999847412</ele>
        <time>2019-05-12T09:30:34.000Z</time>
      </trkpt>
      <trkpt lat="46.53143" lon="0.38877">
        <ele>127.80000305176</ele>
        <time>2019-05-12T09:30:35.000Z</time>
      </trkpt>
      <trkpt lat="46.53125" lon="0.38882">
        <ele>127</ele>
        <time>2019-05-12T09:30:39.000Z</time>
      </trkpt>
      <trkpt lat="46.53106" lon="0.38889">
        <ele>126.59999847412</ele>
        <time>2019-05-12T09:30:43.000Z</time>
      </trkpt>
      <trkpt lat="46.53093" lon="0.38894">
        <ele>126.80000305176</ele>
        <time>2019-05-12T09:30:46.000Z</time>
      </trkpt>
      <trkpt lat="46.5309" lon="0.38896">
        <ele>126.59999847412</ele>
        <time>2019-05-12T09:30:47.000Z</time>
      </trkpt>
      <trkpt lat="46.53064" lon="0.38909">
        <ele>126.19999694824</ele>
        <time>2019-05-12T09:30:53.000Z</time>
      </trkpt>
      <trkpt lat="46.53032" lon="0.38934">
        <ele>126.59999847412</ele>
        <time>2019-05-12T09:31:00.000Z</time>
      </trkpt>
      <trkpt lat="46.52989" lon="0.38962">
        <ele>126.59999847412</ele>
        <time>2019-05-12T09:31:09.000Z</time>
      </trkpt>
      <trkpt lat="46.52974" lon="0.38969">
        <ele>126.59999847412</ele>
        <time>2019-05-12T09:31:12.000Z</time>
      </trkpt>
      <trkpt lat="46.5296" lon="0.38971">
        <ele>125.80000305176</ele>
        <time>2019-05-12T09:31:15.000Z</time>
      </trkpt>
      <trkpt lat="46.52951" lon="0.38973">
        <ele>125.59999847412</ele>
        <time>2019-05-12T09:31:17.000Z</time>
      </trkpt>
      <trkpt lat="46.52932" lon="0.38977">
        <ele>126</ele>
        <time>2019-05-12T09:31:21.000Z</time>
      </trkpt>
      <trkpt lat="46.52923" lon="0.38979">
        <ele>126.19999694824</ele>
        <time>2019-05-12T09:31:23.000Z</time>
      </trkpt>
      <trkpt lat="46.52894" lon="0.38986">
        <ele>126.40000152588</ele>
        <time>2019-05-12T09:31:30.000Z</time>
      </trkpt>
      <trkpt lat="46.52854" lon="0.38996">
        <ele>127.59999847412</ele>
        <time>2019-05-12T09:31:40.000Z</time>
      </trkpt>
      <trkpt lat="46.52825" lon="0.39003">
        <ele>128.80000305176</ele>
        <time>2019-05-12T09:31:47.000Z</time>
      </trkpt>
      <trkpt lat="46.5282" lon="0.39004">
        <ele>129</ele>
        <time>2019-05-12T09:31:48.000Z</time>
      </trkpt>
      <trkpt lat="46.52802" lon="0.39008">
        <ele>129</ele>
        <time>2019-05-12T09:31:52.000Z</time>
      </trkpt>
      <trkpt lat="46.52793" lon="0.39011">
        <ele>129.80000305176</ele>
        <time>2019-05-12T09:31:54.000Z</time>
      </trkpt>
      <trkpt lat="46.5278" lon="0.39015">
        <ele>131.19999694824</ele>
        <time>2019-05-12T09:31:57.000Z</time>
      </trkpt>
      <trkpt lat="46.52776" lon="0.39016">
        <ele>131.39999389648</ele>
        <time>2019-05-12T09:31:58.000Z</time>
      </trkpt>
      <trkpt lat="46.52763" lon="0.39021">
        <ele>132.39999389648</ele>
        <time>2019-05-12T09:32:01.000Z</time>
      </trkpt>
      <trkpt lat="46.5274" lon="0.39025">
        <ele>132.80000305176</ele>
        <time>2019-05-12T09:32:06.000Z</time>
      </trkpt>
      <trkpt lat="46.52721" lon="0.3903">
        <ele>133</ele>
        <time>2019-05-12T09:32:11.000Z</time>
      </trkpt>
      <trkpt lat="46.52709" lon="0.39036">
        <ele>132.80000305176</ele>
        <time>2019-05-12T09:32:15.000Z</time>
      </trkpt>
      <trkpt lat="46.52688" lon="0.39037">
        <ele>132.39999389648</ele>
        <time>2019-05-12T09:32:21.000Z</time>
      </trkpt>
      <trkpt lat="46.52671" lon="0.39039">
        <ele>132.60000610352</ele>
        <time>2019-05-12T09:32:25.000Z</time>
      </trkpt>
      <trkpt lat="46.52662" lon="0.3904">
        <ele>132.60000610352</ele>
        <time>2019-05-12T09:32:27.000Z</time>
      </trkpt>
      <trkpt lat="46.52647" lon="0.39042">
        <ele>132.19999694824</ele>
        <time>2019-05-12T09:32:30.000Z</time>
      </trkpt>
      <trkpt lat="46.52626" lon="0.39048">
        <ele>132</ele>
        <time>2019-05-12T09:32:34.000Z</time>
      </trkpt>
      <trkpt lat="46.52585" lon="0.39058">
        <ele>131.39999389648</ele>
        <time>2019-05-12T09:32:41.000Z</time>
      </trkpt>
      <trkpt lat="46.52567" lon="0.39062">
        <ele>131</ele>
        <time>2019-05-12T09:32:44.000Z</time>
      </trkpt>
      <trkpt lat="46.5256" lon="0.39062">
        <ele>131</ele>
        <time>2019-05-12T09:32:45.000Z</time>
      </trkpt>
      <trkpt lat="46.52548" lon="0.3906">
        <ele>130.39999389648</ele>
        <time>2019-05-12T09:32:47.000Z</time>
      </trkpt>
      <trkpt lat="46.52535" lon="0.39055">
        <ele>129.80000305176</ele>
        <time>2019-05-12T09:32:49.000Z</time>
      </trkpt>
      <trkpt lat="46.52498" lon="0.39037">
        <ele>129.39999389648</ele>
        <time>2019-05-12T09:32:55.000Z</time>
      </trkpt>
      <trkpt lat="46.52485" lon="0.39031">
        <ele>128.80000305176</ele>
        <time>2019-05-12T09:32:57.000Z</time>
      </trkpt>
      <trkpt lat="46.5246" lon="0.3902">
        <ele>127.80000305176</ele>
        <time>2019-05-12T09:33:01.000Z</time>
      </trkpt>
      <trkpt lat="46.52448" lon="0.39015">
        <ele>127.59999847412</ele>
        <time>2019-05-12T09:33:03.000Z</time>
      </trkpt>
      <trkpt lat="46.524" lon="0.38993">
        <ele>128.60000610352</ele>
        <time>2019-05-12T09:33:11.000Z</time>
      </trkpt>
      <trkpt lat="46.52346" lon="0.38963">
        <ele>128</ele>
        <time>2019-05-12T09:33:20.000Z</time>
      </trkpt>
      <trkpt lat="46.52293" lon="0.3893">
        <ele>127.19999694824</ele>
        <time>2019-05-12T09:33:29.000Z</time>
      </trkpt>
      <trkpt lat="46.52287" lon="0.38926">
        <ele>127</ele>
        <time>2019-05-12T09:33:30.000Z</time>
      </trkpt>
      <trkpt lat="46.52269" lon="0.38915">
        <ele>126.59999847412</ele>
        <time>2019-05-12T09:33:33.000Z</time>
      </trkpt>
      <trkpt lat="46.52221" lon="0.38888">
        <ele>126</ele>
        <time>2019-05-12T09:33:41.000Z</time>
      </trkpt>
      <trkpt lat="46.52174" lon="0.38862">
        <ele>125.59999847412</ele>
        <time>2019-05-12T09:33:49.000Z</time>
      </trkpt>
      <trkpt lat="46.52128" lon="0.38837">
        <ele>125.80000305176</ele>
        <time>2019-05-12T09:33:57.000Z</time>
      </trkpt>
      <trkpt lat="46.52117" lon="0.38831">
        <ele>125.40000152588</ele>
        <time>2019-05-12T09:33:59.000Z</time>
      </trkpt>
      <trkpt lat="46.52082" lon="0.38813">
        <ele>124.80000305176</ele>
        <time>2019-05-12T09:34:05.000Z</time>
      </trkpt>
      <trkpt lat="46.52065" lon="0.38803">
        <ele>124.19999694824</ele>
        <time>2019-05-12T09:34:08.000Z</time>
      </trkpt>
      <trkpt lat="46.52036" lon="0.38782">
        <ele>123.40000152588</ele>
        <time>2019-05-12T09:34:13.000Z</time>
      </trkpt>
      <trkpt lat="46.52031" lon="0.38777">
        <ele>123.19999694824</ele>
        <time>2019-05-12T09:34:14.000Z</time>
      </trkpt>
      <trkpt lat="46.51999" lon="0.38742">
        <ele>122</ele>
        <time>2019-05-12T09:34:20.000Z</time>
      </trkpt>
      <trkpt lat="46.51968" lon="0.38697">
        <ele>121.40000152588</ele>
        <time>2019-05-12T09:34:27.000Z</time>
      </trkpt>
      <trkpt lat="46.51955" lon="0.38676">
        <ele>121</ele>
        <time>2019-05-12T09:34:30.000Z</time>
      </trkpt>
      <trkpt lat="46.51941" lon="0.38656">
        <ele>120</ele>
        <time>2019-05-12T09:34:33.000Z</time>
      </trkpt>
      <trkpt lat="46.51936" lon="0.38651">
        <ele>120</ele>
        <time>2019-05-12T09:34:34.000Z</time>
      </trkpt>
      <trkpt lat="46.51931" lon="0.38645">
        <ele>119.59999847412</ele>
        <time>2019-05-12T09:34:35.000Z</time>
      </trkpt>
      <trkpt lat="46.51919" lon="0.38622">
        <ele>119.40000152588</ele>
        <time>2019-05-12T09:34:38.000Z</time>
      </trkpt>
      <trkpt lat="46.51916" lon="0.38613">
        <ele>119.19999694824</ele>
        <time>2019-05-12T09:34:39.000Z</time>
      </trkpt>
      <trkpt lat="46.51905" lon="0.38581">
        <ele>118.40000152588</ele>
        <time>2019-05-12T09:34:42.000Z</time>
      </trkpt>
      <trkpt lat="46.51896" lon="0.38557">
        <ele>117</ele>
        <time>2019-05-12T09:34:44.000Z</time>
      </trkpt>
      <trkpt lat="46.51888" lon="0.38532">
        <ele>115.80000305176</ele>
        <time>2019-05-12T09:34:46.000Z</time>
      </trkpt>
      <trkpt lat="46.51879" lon="0.38506">
        <ele>114.19999694824</ele>
        <time>2019-05-12T09:34:48.000Z</time>
      </trkpt>
      <trkpt lat="46.51876" lon="0.38492">
        <ele>113.59999847412</ele>
        <time>2019-05-12T09:34:49.000Z</time>
      </trkpt>
      <trkpt lat="46.51871" lon="0.38467">
        <ele>112.59999847412</ele>
        <time>2019-05-12T09:34:51.000Z</time>
      </trkpt>
      <trkpt lat="46.51869" lon="0.38459">
        <ele>111.80000305176</ele>
        <time>2019-05-12T09:34:52.000Z</time>
      </trkpt>
      <trkpt lat="46.51865" lon="0.38453">
        <ele>111.19999694824</ele>
        <time>2019-05-12T09:34:53.000Z</time>
      </trkpt>
      <trkpt lat="46.51861" lon="0.38448">
        <ele>110.19999694824</ele>
        <time>2019-05-12T09:34:54.000Z</time>
      </trkpt>
      <trkpt lat="46.51854" lon="0.38436">
        <ele>109</ele>
        <time>2019-05-12T09:34:57.000Z</time>
      </trkpt>
      <trkpt lat="46.51853" lon="0.38431">
        <ele>108.59999847412</ele>
        <time>2019-05-12T09:34:58.000Z</time>
      </trkpt>
      <trkpt lat="46.51849" lon="0.38422">
        <ele>107.59999847412</ele>
        <time>2019-05-12T09:35:00.000Z</time>
      </trkpt>
      <trkpt lat="46.51844" lon="0.3841">
        <ele>107</ele>
        <time>2019-05-12T09:35:02.000Z</time>
      </trkpt>
      <trkpt lat="46.51839" lon="0.38398">
        <ele>106.40000152588</ele>
        <time>2019-05-12T09:35:04.000Z</time>
      </trkpt>
      <trkpt lat="46.51832" lon="0.38387">
        <ele>105.40000152588</ele>
        <time>2019-05-12T09:35:06.000Z</time>
      </trkpt>
      <trkpt lat="46.51828" lon="0.38383">
        <ele>105</ele>
        <time>2019-05-12T09:35:07.000Z</time>
      </trkpt>
      <trkpt lat="46.51824" lon="0.38378">
        <ele>104</ele>
        <time>2019-05-12T09:35:08.000Z</time>
      </trkpt>
      <trkpt lat="46.51815" lon="0.38372">
        <ele>102.80000305176</ele>
        <time>2019-05-12T09:35:10.000Z</time>
      </trkpt>
      <trkpt lat="46.5181" lon="0.38369">
        <ele>102</ele>
        <time>2019-05-12T09:35:11.000Z</time>
      </trkpt>
      <trkpt lat="46.51805" lon="0.38366">
        <ele>101</ele>
        <time>2019-05-12T09:35:12.000Z</time>
      </trkpt>
      <trkpt lat="46.51796" lon="0.38362">
        <ele>100</ele>
        <time>2019-05-12T09:35:14.000Z</time>
      </trkpt>
      <trkpt lat="46.51788" lon="0.38358">
        <ele>98.599998474121</ele>
        <time>2019-05-12T09:35:16.000Z</time>
      </trkpt>
      <trkpt lat="46.51778" lon="0.38349">
        <ele>97.400001525879</ele>
        <time>2019-05-12T09:35:19.000Z</time>
      </trkpt>
      <trkpt lat="46.51775" lon="0.38346">
        <ele>97.199996948242</ele>
        <time>2019-05-12T09:35:20.000Z</time>
      </trkpt>
      <trkpt lat="46.51769" lon="0.38339">
        <ele>96.400001525879</ele>
        <time>2019-05-12T09:35:22.000Z</time>
      </trkpt>
      <trkpt lat="46.51762" lon="0.3833">
        <ele>95</ele>
        <time>2019-05-12T09:35:24.000Z</time>
      </trkpt>
      <trkpt lat="46.51759" lon="0.38325">
        <ele>94.199996948242</ele>
        <time>2019-05-12T09:35:25.000Z</time>
      </trkpt>
      <trkpt lat="46.51757" lon="0.38322">
        <ele>93</ele>
        <time>2019-05-12T09:35:26.000Z</time>
      </trkpt>
      <trkpt lat="46.51755" lon="0.38317">
        <ele>92.400001525879</ele>
        <time>2019-05-12T09:35:27.000Z</time>
      </trkpt>
      <trkpt lat="46.51752" lon="0.38314">
        <ele>91.800003051758</ele>
        <time>2019-05-12T09:35:28.000Z</time>
      </trkpt>
      <trkpt lat="46.51742" lon="0.38306">
        <ele>91.599998474121</ele>
        <time>2019-05-12T09:35:31.000Z</time>
      </trkpt>
      <trkpt lat="46.51739" lon="0.38302">
        <ele>91.599998474121</ele>
        <time>2019-05-12T09:35:32.000Z</time>
      </trkpt>
      <trkpt lat="46.51725" lon="0.38289">
        <ele>91.199996948242</ele>
        <time>2019-05-12T09:35:36.000Z</time>
      </trkpt>
      <trkpt lat="46.51718" lon="0.38285">
        <ele>90.800003051758</ele>
        <time>2019-05-12T09:35:38.000Z</time>
      </trkpt>
      <trkpt lat="46.51706" lon="0.38276">
        <ele>90.599998474121</ele>
        <time>2019-05-12T09:35:41.000Z</time>
      </trkpt>
      <trkpt lat="46.51693" lon="0.38267">
        <ele>90.400001525879</ele>
        <time>2019-05-12T09:35:45.000Z</time>
      </trkpt>
      <trkpt lat="46.51682" lon="0.38258">
        <ele>90</ele>
        <time>2019-05-12T09:35:50.000Z</time>
      </trkpt>
      <trkpt lat="46.51677" lon="0.38253">
        <ele>90.199996948242</ele>
        <time>2019-05-12T09:35:53.000Z</time>
      </trkpt>
      <trkpt lat="46.51673" lon="0.38248">
        <ele>90.400001525879</ele>
        <time>2019-05-12T09:35:55.000Z</time>
      </trkpt>
      <trkpt lat="46.51669" lon="0.38246">
        <ele>90.400001525879</ele>
        <time>2019-05-12T09:35:56.000Z</time>
      </trkpt>
      <trkpt lat="46.51659" lon="0.38245">
        <ele>90.800003051758</ele>
        <time>2019-05-12T09:35:59.000Z</time>
      </trkpt>
      <trkpt lat="46.51653" lon="0.38246">
        <ele>90.800003051758</ele>
        <time>2019-05-12T09:36:01.000Z</time>
      </trkpt>
      <trkpt lat="46.5165" lon="0.38246">
        <ele>90.800003051758</ele>
        <time>2019-05-12T09:36:02.000Z</time>
      </trkpt>
      <trkpt lat="46.51647" lon="0.38246">
        <ele>90.599998474121</ele>
        <time>2019-05-12T09:36:03.000Z</time>
      </trkpt>
      <trkpt lat="46.51641" lon="0.38245">
        <ele>90.800003051758</ele>
        <time>2019-05-12T09:36:07.000Z</time>
      </trkpt>
      <trkpt lat="46.51632" lon="0.38241">
        <ele>91</ele>
        <time>2019-05-12T09:36:11.000Z</time>
      </trkpt>
      <trkpt lat="46.5163" lon="0.3824">
        <ele>91.199996948242</ele>
        <time>2019-05-12T09:36:12.000Z</time>
      </trkpt>
      <trkpt lat="46.5162" lon="0.38237">
        <ele>91</ele>
        <time>2019-05-12T09:36:15.000Z</time>
      </trkpt>
      <trkpt lat="46.51617" lon="0.38236">
        <ele>91.199996948242</ele>
        <time>2019-05-12T09:36:16.000Z</time>
      </trkpt>
      <trkpt lat="46.51604" lon="0.38228">
        <ele>91.199996948242</ele>
        <time>2019-05-12T09:36:20.000Z</time>
      </trkpt>
      <trkpt lat="46.51591" lon="0.38223">
        <ele>91</ele>
        <time>2019-05-12T09:36:24.000Z</time>
      </trkpt>
      <trkpt lat="46.51576" lon="0.38215">
        <ele>91.199996948242</ele>
        <time>2019-05-12T09:36:29.000Z</time>
      </trkpt>
      <trkpt lat="46.51568" lon="0.38209">
        <ele>91</ele>
        <time>2019-05-12T09:36:33.000Z</time>
      </trkpt>
      <trkpt lat="46.51559" lon="0.38204">
        <ele>90.800003051758</ele>
        <time>2019-05-12T09:36:37.000Z</time>
      </trkpt>
      <trkpt lat="46.51549" lon="0.38198">
        <ele>91</ele>
        <time>2019-05-12T09:36:41.000Z</time>
      </trkpt>
      <trkpt lat="46.51533" lon="0.38194">
        <ele>91</ele>
        <time>2019-05-12T09:36:46.000Z</time>
      </trkpt>
      <trkpt lat="46.51528" lon="0.38189">
        <ele>90.800003051758</ele>
        <time>2019-05-12T09:36:48.000Z</time>
      </trkpt>
      <trkpt lat="46.51519" lon="0.38178">
        <ele>90.599998474121</ele>
        <time>2019-05-12T09:36:52.000Z</time>
      </trkpt>
      <trkpt lat="46.51512" lon="0.38174">
        <ele>90.800003051758</ele>
        <time>2019-05-12T09:36:54.000Z</time>
      </trkpt>
      <trkpt lat="46.51504" lon="0.38175">
        <ele>91</ele>
        <time>2019-05-12T09:36:56.000Z</time>
      </trkpt>
      <trkpt lat="46.51491" lon="0.38177">
        <ele>90.199996948242</ele>
        <time>2019-05-12T09:37:00.000Z</time>
      </trkpt>
      <trkpt lat="46.51473" lon="0.38176">
        <ele>90.400001525879</ele>
        <time>2019-05-12T09:37:05.000Z</time>
      </trkpt>
      <trkpt lat="46.51465" lon="0.38173">
        <ele>90</ele>
        <time>2019-05-12T09:37:08.000Z</time>
      </trkpt>
      <trkpt lat="46.51462" lon="0.38169">
        <ele>90</ele>
        <time>2019-05-12T09:37:09.000Z</time>
      </trkpt>
      <trkpt lat="46.51442" lon="0.38159">
        <ele>90</ele>
        <time>2019-05-12T09:37:13.000Z</time>
      </trkpt>
      <trkpt lat="46.51429" lon="0.38156">
        <ele>90.400001525879</ele>
        <time>2019-05-12T09:37:16.000Z</time>
      </trkpt>
      <trkpt lat="46.51422" lon="0.38149">
        <ele>90.400001525879</ele>
        <time>2019-05-12T09:37:18.000Z</time>
      </trkpt>
      <trkpt lat="46.51414" lon="0.38136">
        <ele>90</ele>
        <time>2019-05-12T09:37:21.000Z</time>
      </trkpt>
      <trkpt lat="46.51413" lon="0.38131">
        <ele>89.800003051758</ele>
        <time>2019-05-12T09:37:22.000Z</time>
      </trkpt>
      <trkpt lat="46.5141" lon="0.38119">
        <ele>90</ele>
        <time>2019-05-12T09:37:25.000Z</time>
      </trkpt>
      <trkpt lat="46.51408" lon="0.38117">
        <ele>90.199996948242</ele>
        <time>2019-05-12T09:37:26.000Z</time>
      </trkpt>
      <trkpt lat="46.51398" lon="0.38113">
        <ele>91</ele>
        <time>2019-05-12T09:37:29.000Z</time>
      </trkpt>
      <trkpt lat="46.51378" lon="0.38106">
        <ele>91.199996948242</ele>
        <time>2019-05-12T09:37:34.000Z</time>
      </trkpt>
      <trkpt lat="46.51348" lon="0.38096">
        <ele>91.599998474121</ele>
        <time>2019-05-12T09:37:41.000Z</time>
      </trkpt>
      <trkpt lat="46.51317" lon="0.38086">
        <ele>91.199996948242</ele>
        <time>2019-05-12T09:37:48.000Z</time>
      </trkpt>
      <trkpt lat="46.51293" lon="0.38073">
        <ele>90.599998474121</ele>
        <time>2019-05-12T09:37:54.000Z</time>
      </trkpt>
      <trkpt lat="46.51268" lon="0.38056">
        <ele>90.800003051758</ele>
        <time>2019-05-12T09:38:00.000Z</time>
      </trkpt>
      <trkpt lat="46.5125" lon="0.38044">
        <ele>92</ele>
        <time>2019-05-12T09:38:05.000Z</time>
      </trkpt>
      <trkpt lat="46.51245" lon="0.3804">
        <ele>92.199996948242</ele>
        <time>2019-05-12T09:38:07.000Z</time>
      </trkpt>
      <trkpt lat="46.51237" lon="0.38034">
        <ele>93.199996948242</ele>
        <time>2019-05-12T09:38:10.000Z</time>
      </trkpt>
      <trkpt lat="46.51235" lon="0.38032">
        <ele>93.599998474121</ele>
        <time>2019-05-12T09:38:11.000Z</time>
      </trkpt>
      <trkpt lat="46.51225" lon="0.38025">
        <ele>94</ele>
        <time>2019-05-12T09:38:15.000Z</time>
      </trkpt>
      <trkpt lat="46.51214" lon="0.38018">
        <ele>95</ele>
        <time>2019-05-12T09:38:19.000Z</time>
      </trkpt>
      <trkpt lat="46.51208" lon="0.38013">
        <ele>95.599998474121</ele>
        <time>2019-05-12T09:38:21.000Z</time>
      </trkpt>
      <trkpt lat="46.51198" lon="0.38005">
        <ele>96.199996948242</ele>
        <time>2019-05-12T09:38:25.000Z</time>
      </trkpt>
      <trkpt lat="46.51193" lon="0.38002">
        <ele>96.400001525879</ele>
        <time>2019-05-12T09:38:27.000Z</time>
      </trkpt>
      <trkpt lat="46.51184" lon="0.37997">
        <ele>97.199996948242</ele>
        <time>2019-05-12T09:38:30.000Z</time>
      </trkpt>
      <trkpt lat="46.51178" lon="0.37994">
        <ele>97.800003051758</ele>
        <time>2019-05-12T09:38:33.000Z</time>
      </trkpt>
      <trkpt lat="46.51174" lon="0.37992">
        <ele>98.400001525879</ele>
        <time>2019-05-12T09:38:35.000Z</time>
      </trkpt>
      <trkpt lat="46.51164" lon="0.37989">
        <ele>99.199996948242</ele>
        <time>2019-05-12T09:38:39.000Z</time>
      </trkpt>
      <trkpt lat="46.51158" lon="0.37987">
        <ele>99.400001525879</ele>
        <time>2019-05-12T09:38:41.000Z</time>
      </trkpt>
      <trkpt lat="46.51144" lon="0.37987">
        <ele>100.40000152588</ele>
        <time>2019-05-12T09:38:46.000Z</time>
      </trkpt>
      <trkpt lat="46.51142" lon="0.37988">
        <ele>100.40000152588</ele>
        <time>2019-05-12T09:38:47.000Z</time>
      </trkpt>
      <trkpt lat="46.51124" lon="0.37987">
        <ele>101.40000152588</ele>
        <time>2019-05-12T09:38:52.000Z</time>
      </trkpt>
      <trkpt lat="46.51118" lon="0.37987">
        <ele>101.80000305176</ele>
        <time>2019-05-12T09:38:54.000Z</time>
      </trkpt>
      <trkpt lat="46.5111" lon="0.37986">
        <ele>102</ele>
        <time>2019-05-12T09:38:57.000Z</time>
      </trkpt>
      <trkpt lat="46.51094" lon="0.37985">
        <ele>102.19999694824</ele>
        <time>2019-05-12T09:39:02.000Z</time>
      </trkpt>
      <trkpt lat="46.51078" lon="0.37985">
        <ele>102.19999694824</ele>
        <time>2019-05-12T09:39:08.000Z</time>
      </trkpt>
      <trkpt lat="46.51063" lon="0.37986">
        <ele>102.59999847412</ele>
        <time>2019-05-12T09:39:13.000Z</time>
      </trkpt>
      <trkpt lat="46.51052" lon="0.37987">
        <ele>103</ele>
        <time>2019-05-12T09:39:17.000Z</time>
      </trkpt>
      <trkpt lat="46.51049" lon="0.37987">
        <ele>103.19999694824</ele>
        <time>2019-05-12T09:39:18.000Z</time>
      </trkpt>
      <trkpt lat="46.51037" lon="0.37988">
        <ele>103.59999847412</ele>
        <time>2019-05-12T09:39:23.000Z</time>
      </trkpt>
      <trkpt lat="46.51022" lon="0.37987">
        <ele>104</ele>
        <time>2019-05-12T09:39:28.000Z</time>
      </trkpt>
      <trkpt lat="46.51019" lon="0.37987">
        <ele>104.19999694824</ele>
        <time>2019-05-12T09:39:29.000Z</time>
      </trkpt>
      <trkpt lat="46.51005" lon="0.37986">
        <ele>104.40000152588</ele>
        <time>2019-05-12T09:39:34.000Z</time>
      </trkpt>
      <trkpt lat="46.50989" lon="0.37981">
        <ele>105</ele>
        <time>2019-05-12T09:39:40.000Z</time>
      </trkpt>
      <trkpt lat="46.50974" lon="0.37972">
        <ele>104.80000305176</ele>
        <time>2019-05-12T09:39:46.000Z</time>
      </trkpt>
      <trkpt lat="46.50961" lon="0.37966">
        <ele>105</ele>
        <time>2019-05-12T09:39:51.000Z</time>
      </trkpt>
      <trkpt lat="46.50959" lon="0.37966">
        <ele>105.19999694824</ele>
        <time>2019-05-12T09:39:52.000Z</time>
      </trkpt>
      <trkpt lat="46.50951" lon="0.37963">
        <ele>105.59999847412</ele>
        <time>2019-05-12T09:39:55.000Z</time>
      </trkpt>
      <trkpt lat="46.50945" lon="0.37961">
        <ele>105.80000305176</ele>
        <time>2019-05-12T09:39:57.000Z</time>
      </trkpt>
      <trkpt lat="46.5094" lon="0.37957">
        <ele>106</ele>
        <time>2019-05-12T09:39:59.000Z</time>
      </trkpt>
      <trkpt lat="46.50935" lon="0.37953">
        <ele>106.19999694824</ele>
        <time>2019-05-12T09:40:01.000Z</time>
      </trkpt>
      <trkpt lat="46.50933" lon="0.37951">
        <ele>106.19999694824</ele>
        <time>2019-05-12T09:40:02.000Z</time>
      </trkpt>
      <trkpt lat="46.50921" lon="0.37935">
        <ele>106.19999694824</ele>
        <time>2019-05-12T09:40:07.000Z</time>
      </trkpt>
      <trkpt lat="46.50918" lon="0.37931">
        <ele>106.19999694824</ele>
        <time>2019-05-12T09:40:08.000Z</time>
      </trkpt>
      <trkpt lat="46.50905" lon="0.37914">
        <ele>106</ele>
        <time>2019-05-12T09:40:13.000Z</time>
      </trkpt>
      <trkpt lat="46.50893" lon="0.37897">
        <ele>106.19999694824</ele>
        <time>2019-05-12T09:40:17.000Z</time>
      </trkpt>
      <trkpt lat="46.50879" lon="0.37877">
        <ele>106.19999694824</ele>
        <time>2019-05-12T09:40:22.000Z</time>
      </trkpt>
      <trkpt lat="46.50868" lon="0.3786">
        <ele>106.19999694824</ele>
        <time>2019-05-12T09:40:26.000Z</time>
      </trkpt>
      <trkpt lat="46.50849" lon="0.3783">
        <ele>106.59999847412</ele>
        <time>2019-05-12T09:40:32.000Z</time>
      </trkpt>
      <trkpt lat="46.50846" lon="0.37825">
        <ele>106.59999847412</ele>
        <time>2019-05-12T09:40:33.000Z</time>
      </trkpt>
      <trkpt lat="46.50837" lon="0.37812">
        <ele>106.80000305176</ele>
        <time>2019-05-12T09:40:36.000Z</time>
      </trkpt>
      <trkpt lat="46.50824" lon="0.3779">
        <ele>107.19999694824</ele>
        <time>2019-05-12T09:40:41.000Z</time>
      </trkpt>
      <trkpt lat="46.50822" lon="0.37781">
        <ele>107.40000152588</ele>
        <time>2019-05-12T09:40:43.000Z</time>
      </trkpt>
      <trkpt lat="46.5082" lon="0.37766">
        <ele>107.80000305176</ele>
        <time>2019-05-12T09:40:46.000Z</time>
      </trkpt>
      <trkpt lat="46.50815" lon="0.37744">
        <ele>108.40000152588</ele>
        <time>2019-05-12T09:40:50.000Z</time>
      </trkpt>
      <trkpt lat="46.50816" lon="0.37735">
        <ele>108.59999847412</ele>
        <time>2019-05-12T09:40:52.000Z</time>
      </trkpt>
      <trkpt lat="46.50815" lon="0.37717">
        <ele>109.19999694824</ele>
        <time>2019-05-12T09:40:56.000Z</time>
      </trkpt>
      <trkpt lat="46.50814" lon="0.37712">
        <ele>109.40000152588</ele>
        <time>2019-05-12T09:40:57.000Z</time>
      </trkpt>
      <trkpt lat="46.50814" lon="0.37704">
        <ele>109.59999847412</ele>
        <time>2019-05-12T09:40:59.000Z</time>
      </trkpt>
      <trkpt lat="46.50817" lon="0.37696">
        <ele>109.59999847412</ele>
        <time>2019-05-12T09:41:01.000Z</time>
      </trkpt>
      <trkpt lat="46.5082" lon="0.37689">
        <ele>110</ele>
        <time>2019-05-12T09:41:03.000Z</time>
      </trkpt>
      <trkpt lat="46.50825" lon="0.37684">
        <ele>110.40000152588</ele>
        <time>2019-05-12T09:41:05.000Z</time>
      </trkpt>
      <trkpt lat="46.50834" lon="0.37678">
        <ele>111.19999694824</ele>
        <time>2019-05-12T09:41:10.000Z</time>
      </trkpt>
      <trkpt lat="46.50835" lon="0.3768">
        <ele>111.19999694824</ele>
        <time>2019-05-12T09:41:11.000Z</time>
      </trkpt>
      <trkpt lat="46.50836" lon="0.37682">
        <ele>111.19999694824</ele>
        <time>2019-05-12T09:41:12.000Z</time>
      </trkpt>
      <trkpt lat="46.5084" lon="0.37686">
        <ele>112.19999694824</ele>
        <time>2019-05-12T09:41:15.000Z</time>
      </trkpt>
      <trkpt lat="46.50841" lon="0.37689">
        <ele>112.40000152588</ele>
        <time>2019-05-12T09:41:16.000Z</time>
      </trkpt>
      <trkpt lat="46.50845" lon="0.37697">
        <ele>112.80000305176</ele>
        <time>2019-05-12T09:41:20.000Z</time>
      </trkpt>
      <trkpt lat="46.50849" lon="0.37702">
        <ele>113.59999847412</ele>
        <time>2019-05-12T09:41:23.000Z</time>
      </trkpt>
      <trkpt lat="46.5085" lon="0.37707">
        <ele>114.19999694824</ele>
        <time>2019-05-12T09:41:25.000Z</time>
      </trkpt>
      <trkpt lat="46.50855" lon="0.37715">
        <ele>114.80000305176</ele>
        <time>2019-05-12T09:41:29.000Z</time>
      </trkpt>
      <trkpt lat="46.50857" lon="0.37712">
        <ele>115</ele>
        <time>2019-05-12T09:41:31.000Z</time>
      </trkpt>
      <trkpt lat="46.50862" lon="0.37706">
        <ele>115.59999847412</ele>
        <time>2019-05-12T09:41:34.000Z</time>
      </trkpt>
      <trkpt lat="46.50863" lon="0.37704">
        <ele>116</ele>
        <time>2019-05-12T09:41:35.000Z</time>
      </trkpt>
      <trkpt lat="46.50869" lon="0.37698">
        <ele>116.59999847412</ele>
        <time>2019-05-12T09:41:38.000Z</time>
      </trkpt>
      <trkpt lat="46.5087" lon="0.37696">
        <ele>116.80000305176</ele>
        <time>2019-05-12T09:41:39.000Z</time>
      </trkpt>
      <trkpt lat="46.50874" lon="0.37691">
        <ele>117</ele>
        <time>2019-05-12T09:41:41.000Z</time>
      </trkpt>
      <trkpt lat="46.50881" lon="0.37681">
        <ele>117.80000305176</ele>
        <time>2019-05-12T09:41:45.000Z</time>
      </trkpt>
      <trkpt lat="46.50882" lon="0.37679">
        <ele>118</ele>
        <time>2019-05-12T09:41:46.000Z</time>
      </trkpt>
      <trkpt lat="46.50892" lon="0.37663">
        <ele>118.80000305176</ele>
        <time>2019-05-12T09:41:52.000Z</time>
      </trkpt>
      <trkpt lat="46.50894" lon="0.37661">
        <ele>119</ele>
        <time>2019-05-12T09:41:53.000Z</time>
      </trkpt>
      <trkpt lat="46.50904" lon="0.37651">
        <ele>120.40000152588</ele>
        <time>2019-05-12T09:41:59.000Z</time>
      </trkpt>
      <trkpt lat="46.50912" lon="0.37641">
        <ele>121.40000152588</ele>
        <time>2019-05-12T09:42:03.000Z</time>
      </trkpt>
      <trkpt lat="46.50915" lon="0.37636">
        <ele>121.80000305176</ele>
        <time>2019-05-12T09:42:05.000Z</time>
      </trkpt>
      <trkpt lat="46.5092" lon="0.37632">
        <ele>122.59999847412</ele>
        <time>2019-05-12T09:42:08.000Z</time>
      </trkpt>
      <trkpt lat="46.50924" lon="0.37629">
        <ele>122.80000305176</ele>
        <time>2019-05-12T09:42:10.000Z</time>
      </trkpt>
      <trkpt lat="46.50934" lon="0.37623">
        <ele>123.40000152588</ele>
        <time>2019-05-12T09:42:15.000Z</time>
      </trkpt>
      <trkpt lat="46.50937" lon="0.37622">
        <ele>123.59999847412</ele>
        <time>2019-05-12T09:42:16.000Z</time>
      </trkpt>
      <trkpt lat="46.5095" lon="0.37612">
        <ele>124.19999694824</ele>
        <time>2019-05-12T09:42:22.000Z</time>
      </trkpt>
      <trkpt lat="46.50955" lon="0.37609">
        <ele>124.59999847412</ele>
        <time>2019-05-12T09:42:25.000Z</time>
      </trkpt>
      <trkpt lat="46.5096" lon="0.37605">
        <ele>124.80000305176</ele>
        <time>2019-05-12T09:42:28.000Z</time>
      </trkpt>
      <trkpt lat="46.50964" lon="0.37601">
        <ele>125.19999694824</ele>
        <time>2019-05-12T09:42:30.000Z</time>
      </trkpt>
      <trkpt lat="46.50968" lon="0.37596">
        <ele>125.59999847412</ele>
        <time>2019-05-12T09:42:33.000Z</time>
      </trkpt>
      <trkpt lat="46.50977" lon="0.37589">
        <ele>125.80000305176</ele>
        <time>2019-05-12T09:42:38.000Z</time>
      </trkpt>
      <trkpt lat="46.50983" lon="0.37586">
        <ele>126.19999694824</ele>
        <time>2019-05-12T09:42:41.000Z</time>
      </trkpt>
      <trkpt lat="46.50988" lon="0.37583">
        <ele>126.19999694824</ele>
        <time>2019-05-12T09:42:43.000Z</time>
      </trkpt>
      <trkpt lat="46.50998" lon="0.37576">
        <ele>126.59999847412</ele>
        <time>2019-05-12T09:42:47.000Z</time>
      </trkpt>
      <trkpt lat="46.51001" lon="0.37574">
        <ele>126.80000305176</ele>
        <time>2019-05-12T09:42:48.000Z</time>
      </trkpt>
      <trkpt lat="46.51011" lon="0.37562">
        <ele>127.19999694824</ele>
        <time>2019-05-12T09:42:54.000Z</time>
      </trkpt>
      <trkpt lat="46.51012" lon="0.37558">
        <ele>127.19999694824</ele>
        <time>2019-05-12T09:42:55.000Z</time>
      </trkpt>
      <trkpt lat="46.51014" lon="0.37553">
        <ele>127.40000152588</ele>
        <time>2019-05-12T09:42:57.000Z</time>
      </trkpt>
      <trkpt lat="46.51018" lon="0.37546">
        <ele>127.59999847412</ele>
        <time>2019-05-12T09:43:00.000Z</time>
      </trkpt>
      <trkpt lat="46.5102" lon="0.37544">
        <ele>127.59999847412</ele>
        <time>2019-05-12T09:43:01.000Z</time>
      </trkpt>
      <trkpt lat="46.5102" lon="0.37542">
        <ele>127.80000305176</ele>
        <time>2019-05-12T09:43:02.000Z</time>
      </trkpt>
      <trkpt lat="46.5102" lon="0.37536">
        <ele>128</ele>
        <time>2019-05-12T09:43:05.000Z</time>
      </trkpt>
      <trkpt lat="46.5102" lon="0.37533">
        <ele>128</ele>
        <time>2019-05-12T09:43:06.000Z</time>
      </trkpt>
      <trkpt lat="46.51018" lon="0.37525">
        <ele>128.19999694824</ele>
        <time>2019-05-12T09:43:09.000Z</time>
      </trkpt>
      <trkpt lat="46.51017" lon="0.37516">
        <ele>128.39999389648</ele>
        <time>2019-05-12T09:43:13.000Z</time>
      </trkpt>
      <trkpt lat="46.51017" lon="0.37514">
        <ele>128.39999389648</ele>
        <time>2019-05-12T09:43:14.000Z</time>
      </trkpt>
      <trkpt lat="46.51015" lon="0.37503">
        <ele>128</ele>
        <time>2019-05-12T09:43:19.000Z</time>
      </trkpt>
      <trkpt lat="46.51014" lon="0.37496">
        <ele>128.19999694824</ele>
        <time>2019-05-12T09:43:22.000Z</time>
      </trkpt>
      <trkpt lat="46.51008" lon="0.37479">
        <ele>128.39999389648</ele>
        <time>2019-05-12T09:43:27.000Z</time>
      </trkpt>
      <trkpt lat="46.51003" lon="0.37463">
        <ele>129</ele>
        <time>2019-05-12T09:43:31.000Z</time>
      </trkpt>
      <trkpt lat="46.51001" lon="0.37459">
        <ele>129</ele>
        <time>2019-05-12T09:43:32.000Z</time>
      </trkpt>
      <trkpt lat="46.50991" lon="0.37439">
        <ele>129.19999694824</ele>
        <time>2019-05-12T09:43:37.000Z</time>
      </trkpt>
      <trkpt lat="46.50979" lon="0.37412">
        <ele>129.19999694824</ele>
        <time>2019-05-12T09:43:43.000Z</time>
      </trkpt>
      <trkpt lat="46.50966" lon="0.37384">
        <ele>129.60000610352</ele>
        <time>2019-05-12T09:43:49.000Z</time>
      </trkpt>
      <trkpt lat="46.50954" lon="0.37359">
        <ele>129</ele>
        <time>2019-05-12T09:43:54.000Z</time>
      </trkpt>
      <trkpt lat="46.50942" lon="0.37335">
        <ele>129.39999389648</ele>
        <time>2019-05-12T09:44:00.000Z</time>
      </trkpt>
      <trkpt lat="46.50931" lon="0.37308">
        <ele>129.19999694824</ele>
        <time>2019-05-12T09:44:06.000Z</time>
      </trkpt>
      <trkpt lat="46.50928" lon="0.37282">
        <ele>129.80000305176</ele>
        <time>2019-05-12T09:44:11.000Z</time>
      </trkpt>
      <trkpt lat="46.50923" lon="0.37251">
        <ele>130</ele>
        <time>2019-05-12T09:44:17.000Z</time>
      </trkpt>
      <trkpt lat="46.50912" lon="0.37223">
        <ele>130</ele>
        <time>2019-05-12T09:44:22.000Z</time>
      </trkpt>
      <trkpt lat="46.50908" lon="0.37212">
        <ele>130.19999694824</ele>
        <time>2019-05-12T09:44:24.000Z</time>
      </trkpt>
      <trkpt lat="46.50903" lon="0.37201">
        <ele>130.19999694824</ele>
        <time>2019-05-12T09:44:26.000Z</time>
      </trkpt>
      <trkpt lat="46.50901" lon="0.37196">
        <ele>130.19999694824</ele>
        <time>2019-05-12T09:44:27.000Z</time>
      </trkpt>
      <trkpt lat="46.50894" lon="0.37176">
        <ele>130.19999694824</ele>
        <time>2019-05-12T09:44:31.000Z</time>
      </trkpt>
      <trkpt lat="46.50888" lon="0.37147">
        <ele>130.60000610352</ele>
        <time>2019-05-12T09:44:36.000Z</time>
      </trkpt>
      <trkpt lat="46.50883" lon="0.37116">
        <ele>130.19999694824</ele>
        <time>2019-05-12T09:44:41.000Z</time>
      </trkpt>
      <trkpt lat="46.5088" lon="0.3711">
        <ele>130.19999694824</ele>
        <time>2019-05-12T09:44:42.000Z</time>
      </trkpt>
      <trkpt lat="46.50878" lon="0.37103">
        <ele>130.19999694824</ele>
        <time>2019-05-12T09:44:43.000Z</time>
      </trkpt>
      <trkpt lat="46.50869" lon="0.37079">
        <ele>130.39999389648</ele>
        <time>2019-05-12T09:44:47.000Z</time>
      </trkpt>
      <trkpt lat="46.50867" lon="0.37073">
        <ele>130.39999389648</ele>
        <time>2019-05-12T09:44:48.000Z</time>
      </trkpt>
      <trkpt lat="46.5086" lon="0.37059">
        <ele>130.19999694824</ele>
        <time>2019-05-12T09:44:50.000Z</time>
      </trkpt>
      <trkpt lat="46.50857" lon="0.37048">
        <ele>130.39999389648</ele>
        <time>2019-05-12T09:44:52.000Z</time>
      </trkpt>
      <trkpt lat="46.50851" lon="0.3703">
        <ele>130.39999389648</ele>
        <time>2019-05-12T09:44:55.000Z</time>
      </trkpt>
      <trkpt lat="46.50849" lon="0.37017">
        <ele>130.39999389648</ele>
        <time>2019-05-12T09:44:57.000Z</time>
      </trkpt>
      <trkpt lat="46.50842" lon="0.36981">
        <ele>130.60000610352</ele>
        <time>2019-05-12T09:45:03.000Z</time>
      </trkpt>
      <trkpt lat="46.50839" lon="0.36963">
        <ele>130.80000305176</ele>
        <time>2019-05-12T09:45:06.000Z</time>
      </trkpt>
      <trkpt lat="46.50838" lon="0.36956">
        <ele>130.80000305176</ele>
        <time>2019-05-12T09:45:07.000Z</time>
      </trkpt>
      <trkpt lat="46.50834" lon="0.36935">
        <ele>131</ele>
        <time>2019-05-12T09:45:10.000Z</time>
      </trkpt>
      <trkpt lat="46.50832" lon="0.36922">
        <ele>131</ele>
        <time>2019-05-12T09:45:12.000Z</time>
      </trkpt>
      <trkpt lat="46.5083" lon="0.36916">
        <ele>131</ele>
        <time>2019-05-12T09:45:13.000Z</time>
      </trkpt>
      <trkpt lat="46.50811" lon="0.3687">
        <ele>131</ele>
        <time>2019-05-12T09:45:20.000Z</time>
      </trkpt>
      <trkpt lat="46.50795" lon="0.36839">
        <ele>130.19999694824</ele>
        <time>2019-05-12T09:45:25.000Z</time>
      </trkpt>
      <trkpt lat="46.50792" lon="0.36834">
        <ele>130</ele>
        <time>2019-05-12T09:45:26.000Z</time>
      </trkpt>
      <trkpt lat="46.50784" lon="0.36824">
        <ele>129.60000610352</ele>
        <time>2019-05-12T09:45:28.000Z</time>
      </trkpt>
      <trkpt lat="46.50774" lon="0.36817">
        <ele>129.39999389648</ele>
        <time>2019-05-12T09:45:30.000Z</time>
      </trkpt>
      <trkpt lat="46.50761" lon="0.36806">
        <ele>129.19999694824</ele>
        <time>2019-05-12T09:45:33.000Z</time>
      </trkpt>
      <trkpt lat="46.50753" lon="0.36796">
        <ele>129.19999694824</ele>
        <time>2019-05-12T09:45:35.000Z</time>
      </trkpt>
      <trkpt lat="46.50748" lon="0.36791">
        <ele>129</ele>
        <time>2019-05-12T09:45:36.000Z</time>
      </trkpt>
      <trkpt lat="46.50733" lon="0.36781">
        <ele>128.80000305176</ele>
        <time>2019-05-12T09:45:39.000Z</time>
      </trkpt>
      <trkpt lat="46.50704" lon="0.3676">
        <ele>128.60000610352</ele>
        <time>2019-05-12T09:45:45.000Z</time>
      </trkpt>
      <trkpt lat="46.50682" lon="0.36751">
        <ele>127.80000305176</ele>
        <time>2019-05-12T09:45:50.000Z</time>
      </trkpt>
      <trkpt lat="46.50673" lon="0.3675">
        <ele>127.40000152588</ele>
        <time>2019-05-12T09:45:52.000Z</time>
      </trkpt>
      <trkpt lat="46.50659" lon="0.36745">
        <ele>127</ele>
        <time>2019-05-12T09:45:55.000Z</time>
      </trkpt>
      <trkpt lat="46.50656" lon="0.36743">
        <ele>127</ele>
        <time>2019-05-12T09:45:56.000Z</time>
      </trkpt>
      <trkpt lat="46.50652" lon="0.36732">
        <ele>126.80000305176</ele>
        <time>2019-05-12T09:45:58.000Z</time>
      </trkpt>
      <trkpt lat="46.50652" lon="0.36718">
        <ele>126.59999847412</ele>
        <time>2019-05-12T09:46:00.000Z</time>
      </trkpt>
      <trkpt lat="46.50652" lon="0.3671">
        <ele>126.40000152588</ele>
        <time>2019-05-12T09:46:01.000Z</time>
      </trkpt>
      <trkpt lat="46.50652" lon="0.36701">
        <ele>125.80000305176</ele>
        <time>2019-05-12T09:46:02.000Z</time>
      </trkpt>
      <trkpt lat="46.50653" lon="0.36672">
        <ele>125.19999694824</ele>
        <time>2019-05-12T09:46:05.000Z</time>
      </trkpt>
      <trkpt lat="46.50655" lon="0.36641">
        <ele>124.40000152588</ele>
        <time>2019-05-12T09:46:08.000Z</time>
      </trkpt>
      <trkpt lat="46.50659" lon="0.36631">
        <ele>123.80000305176</ele>
        <time>2019-05-12T09:46:09.000Z</time>
      </trkpt>
      <trkpt lat="46.50671" lon="0.36616">
        <ele>122.19999694824</ele>
        <time>2019-05-12T09:46:11.000Z</time>
      </trkpt>
      <trkpt lat="46.50678" lon="0.36609">
        <ele>121.19999694824</ele>
        <time>2019-05-12T09:46:12.000Z</time>
      </trkpt>
      <trkpt lat="46.50684" lon="0.36601">
        <ele>120.59999847412</ele>
        <time>2019-05-12T09:46:13.000Z</time>
      </trkpt>
      <trkpt lat="46.50693" lon="0.36581">
        <ele>119.80000305176</ele>
        <time>2019-05-12T09:46:15.000Z</time>
      </trkpt>
      <trkpt lat="46.50698" lon="0.36559">
        <ele>119.40000152588</ele>
        <time>2019-05-12T09:46:17.000Z</time>
      </trkpt>
      <trkpt lat="46.50702" lon="0.36537">
        <ele>119</ele>
        <time>2019-05-12T09:46:19.000Z</time>
      </trkpt>
      <trkpt lat="46.50705" lon="0.36516">
        <ele>118.80000305176</ele>
        <time>2019-05-12T09:46:21.000Z</time>
      </trkpt>
      <trkpt lat="46.50708" lon="0.36496">
        <ele>118.59999847412</ele>
        <time>2019-05-12T09:46:23.000Z</time>
      </trkpt>
      <trkpt lat="46.5071" lon="0.36478">
        <ele>118.80000305176</ele>
        <time>2019-05-12T09:46:25.000Z</time>
      </trkpt>
      <trkpt lat="46.50713" lon="0.36455">
        <ele>119</ele>
        <time>2019-05-12T09:46:28.000Z</time>
      </trkpt>
      <trkpt lat="46.50715" lon="0.36441">
        <ele>119.40000152588</ele>
        <time>2019-05-12T09:46:30.000Z</time>
      </trkpt>
      <trkpt lat="46.5072" lon="0.36407">
        <ele>120.59999847412</ele>
        <time>2019-05-12T09:46:35.000Z</time>
      </trkpt>
      <trkpt lat="46.50722" lon="0.36395">
        <ele>121</ele>
        <time>2019-05-12T09:46:37.000Z</time>
      </trkpt>
      <trkpt lat="46.50726" lon="0.36368">
        <ele>121.40000152588</ele>
        <time>2019-05-12T09:46:41.000Z</time>
      </trkpt>
      <trkpt lat="46.50731" lon="0.36334">
        <ele>122.19999694824</ele>
        <time>2019-05-12T09:46:46.000Z</time>
      </trkpt>
      <trkpt lat="46.50731" lon="0.36327">
        <ele>122.59999847412</ele>
        <time>2019-05-12T09:46:47.000Z</time>
      </trkpt>
      <trkpt lat="46.50737" lon="0.36285">
        <ele>123.40000152588</ele>
        <time>2019-05-12T09:46:53.000Z</time>
      </trkpt>
      <trkpt lat="46.50738" lon="0.36278">
        <ele>123.59999847412</ele>
        <time>2019-05-12T09:46:54.000Z</time>
      </trkpt>
      <trkpt lat="46.50742" lon="0.36242">
        <ele>124.80000305176</ele>
        <time>2019-05-12T09:46:59.000Z</time>
      </trkpt>
      <trkpt lat="46.50746" lon="0.36215">
        <ele>125.19999694824</ele>
        <time>2019-05-12T09:47:03.000Z</time>
      </trkpt>
      <trkpt lat="46.50748" lon="0.36202">
        <ele>125.80000305176</ele>
        <time>2019-05-12T09:47:05.000Z</time>
      </trkpt>
      <trkpt lat="46.50754" lon="0.36164">
        <ele>126.80000305176</ele>
        <time>2019-05-12T09:47:11.000Z</time>
      </trkpt>
      <trkpt lat="46.50757" lon="0.36151">
        <ele>126.59999847412</ele>
        <time>2019-05-12T09:47:13.000Z</time>
      </trkpt>
      <trkpt lat="46.50763" lon="0.36133">
        <ele>126.59999847412</ele>
        <time>2019-05-12T09:47:16.000Z</time>
      </trkpt>
      <trkpt lat="46.50766" lon="0.36128">
        <ele>126.59999847412</ele>
        <time>2019-05-12T09:47:17.000Z</time>
      </trkpt>
      <trkpt lat="46.50776" lon="0.36114">
        <ele>126.59999847412</ele>
        <time>2019-05-12T09:47:20.000Z</time>
      </trkpt>
      <trkpt lat="46.50782" lon="0.361">
        <ele>126.40000152588</ele>
        <time>2019-05-12T09:47:22.000Z</time>
      </trkpt>
      <trkpt lat="46.50784" lon="0.36084">
        <ele>125.59999847412</ele>
        <time>2019-05-12T09:47:24.000Z</time>
      </trkpt>
      <trkpt lat="46.50784" lon="0.36076">
        <ele>125.19999694824</ele>
        <time>2019-05-12T09:47:25.000Z</time>
      </trkpt>
      <trkpt lat="46.50785" lon="0.36068">
        <ele>125.19999694824</ele>
        <time>2019-05-12T09:47:26.000Z</time>
      </trkpt>
      <trkpt lat="46.50785" lon="0.36056">
        <ele>125</ele>
        <time>2019-05-12T09:47:28.000Z</time>
      </trkpt>
      <trkpt lat="46.50784" lon="0.3605">
        <ele>125</ele>
        <time>2019-05-12T09:47:29.000Z</time>
      </trkpt>
      <trkpt lat="46.50782" lon="0.3601">
        <ele>126.80000305176</ele>
        <time>2019-05-12T09:47:36.000Z</time>
      </trkpt>
      <trkpt lat="46.5078" lon="0.35993">
        <ele>127.80000305176</ele>
        <time>2019-05-12T09:47:39.000Z</time>
      </trkpt>
      <trkpt lat="46.50778" lon="0.35975">
        <ele>129</ele>
        <time>2019-05-12T09:47:42.000Z</time>
      </trkpt>
      <trkpt lat="46.50777" lon="0.35963">
        <ele>129.39999389648</ele>
        <time>2019-05-12T09:47:44.000Z</time>
      </trkpt>
      <trkpt lat="46.50776" lon="0.35951">
        <ele>129.80000305176</ele>
        <time>2019-05-12T09:47:46.000Z</time>
      </trkpt>
      <trkpt lat="46.50773" lon="0.35933">
        <ele>130</ele>
        <time>2019-05-12T09:47:49.000Z</time>
      </trkpt>
      <trkpt lat="46.5077" lon="0.35922">
        <ele>130.39999389648</ele>
        <time>2019-05-12T09:47:51.000Z</time>
      </trkpt>
      <trkpt lat="46.50761" lon="0.35885">
        <ele>130.80000305176</ele>
        <time>2019-05-12T09:47:58.000Z</time>
      </trkpt>
      <trkpt lat="46.5076" lon="0.3588">
        <ele>131</ele>
        <time>2019-05-12T09:47:59.000Z</time>
      </trkpt>
      <trkpt lat="46.50757" lon="0.35854">
        <ele>132</ele>
        <time>2019-05-12T09:48:04.000Z</time>
      </trkpt>
      <trkpt lat="46.50768" lon="0.35819">
        <ele>132.80000305176</ele>
        <time>2019-05-12T09:48:11.000Z</time>
      </trkpt>
      <trkpt lat="46.50772" lon="0.35809">
        <ele>133.19999694824</ele>
        <time>2019-05-12T09:48:13.000Z</time>
      </trkpt>
      <trkpt lat="46.50785" lon="0.35784">
        <ele>132.80000305176</ele>
        <time>2019-05-12T09:48:18.000Z</time>
      </trkpt>
      <trkpt lat="46.50801" lon="0.35761">
        <ele>132.39999389648</ele>
        <time>2019-05-12T09:48:23.000Z</time>
      </trkpt>
      <trkpt lat="46.50808" lon="0.35754">
        <ele>132.39999389648</ele>
        <time>2019-05-12T09:48:25.000Z</time>
      </trkpt>
      <trkpt lat="46.50815" lon="0.35745">
        <ele>132.39999389648</ele>
        <time>2019-05-12T09:48:27.000Z</time>
      </trkpt>
      <trkpt lat="46.50826" lon="0.35733">
        <ele>132.39999389648</ele>
        <time>2019-05-12T09:48:30.000Z</time>
      </trkpt>
      <trkpt lat="46.50829" lon="0.35728">
        <ele>132.39999389648</ele>
        <time>2019-05-12T09:48:31.000Z</time>
      </trkpt>
      <trkpt lat="46.50845" lon="0.35694">
        <ele>132.39999389648</ele>
        <time>2019-05-12T09:48:37.000Z</time>
      </trkpt>
      <trkpt lat="46.50861" lon="0.35677">
        <ele>132.60000610352</ele>
        <time>2019-05-12T09:48:41.000Z</time>
      </trkpt>
      <trkpt lat="46.50865" lon="0.35672">
        <ele>132.80000305176</ele>
        <time>2019-05-12T09:48:42.000Z</time>
      </trkpt>
      <trkpt lat="46.5089" lon="0.35636">
        <ele>132</ele>
        <time>2019-05-12T09:48:49.000Z</time>
      </trkpt>
      <trkpt lat="46.50897" lon="0.35624">
        <ele>131.39999389648</ele>
        <time>2019-05-12T09:48:51.000Z</time>
      </trkpt>
      <trkpt lat="46.50909" lon="0.35605">
        <ele>131</ele>
        <time>2019-05-12T09:48:54.000Z</time>
      </trkpt>
      <trkpt lat="46.50916" lon="0.35592">
        <ele>130.60000610352</ele>
        <time>2019-05-12T09:48:56.000Z</time>
      </trkpt>
      <trkpt lat="46.5092" lon="0.35586">
        <ele>130.39999389648</ele>
        <time>2019-05-12T09:48:57.000Z</time>
      </trkpt>
      <trkpt lat="46.50928" lon="0.35574">
        <ele>130.19999694824</ele>
        <time>2019-05-12T09:48:59.000Z</time>
      </trkpt>
      <trkpt lat="46.50935" lon="0.35561">
        <ele>129.80000305176</ele>
        <time>2019-05-12T09:49:01.000Z</time>
      </trkpt>
      <trkpt lat="46.50947" lon="0.35543">
        <ele>129.39999389648</ele>
        <time>2019-05-12T09:49:04.000Z</time>
      </trkpt>
      <trkpt lat="46.5095" lon="0.35536">
        <ele>129.19999694824</ele>
        <time>2019-05-12T09:49:05.000Z</time>
      </trkpt>
      <trkpt lat="46.50965" lon="0.35507">
        <ele>128.60000610352</ele>
        <time>2019-05-12T09:49:09.000Z</time>
      </trkpt>
      <trkpt lat="46.50969" lon="0.35501">
        <ele>128.60000610352</ele>
        <time>2019-05-12T09:49:10.000Z</time>
      </trkpt>
      <trkpt lat="46.50981" lon="0.35482">
        <ele>128.19999694824</ele>
        <time>2019-05-12T09:49:13.000Z</time>
      </trkpt>
      <trkpt lat="46.50998" lon="0.35461">
        <ele>127.59999847412</ele>
        <time>2019-05-12T09:49:17.000Z</time>
      </trkpt>
      <trkpt lat="46.51013" lon="0.35441">
        <ele>127.40000152588</ele>
        <time>2019-05-12T09:49:21.000Z</time>
      </trkpt>
      <trkpt lat="46.5102" lon="0.35432">
        <ele>127.40000152588</ele>
        <time>2019-05-12T09:49:23.000Z</time>
      </trkpt>
      <trkpt lat="46.51024" lon="0.35428">
        <ele>127.40000152588</ele>
        <time>2019-05-12T09:49:24.000Z</time>
      </trkpt>
      <trkpt lat="46.51038" lon="0.35425">
        <ele>127.40000152588</ele>
        <time>2019-05-12T09:49:27.000Z</time>
      </trkpt>
      <trkpt lat="46.51042" lon="0.35424">
        <ele>127.40000152588</ele>
        <time>2019-05-12T09:49:28.000Z</time>
      </trkpt>
      <trkpt lat="46.51052" lon="0.35412">
        <ele>127.40000152588</ele>
        <time>2019-05-12T09:49:31.000Z</time>
      </trkpt>
      <trkpt lat="46.51065" lon="0.35409">
        <ele>127.80000305176</ele>
        <time>2019-05-12T09:49:34.000Z</time>
      </trkpt>
      <trkpt lat="46.51069" lon="0.35409">
        <ele>128</ele>
        <time>2019-05-12T09:49:35.000Z</time>
      </trkpt>
      <trkpt lat="46.51074" lon="0.3541">
        <ele>128</ele>
        <time>2019-05-12T09:49:36.000Z</time>
      </trkpt>
      <trkpt lat="46.51087" lon="0.35417">
        <ele>128</ele>
        <time>2019-05-12T09:49:39.000Z</time>
      </trkpt>
      <trkpt lat="46.51108" lon="0.35427">
        <ele>127.80000305176</ele>
        <time>2019-05-12T09:49:44.000Z</time>
      </trkpt>
      <trkpt lat="46.51111" lon="0.35428">
        <ele>127.80000305176</ele>
        <time>2019-05-12T09:49:45.000Z</time>
      </trkpt>
      <trkpt lat="46.51122" lon="0.35424">
        <ele>127.59999847412</ele>
        <time>2019-05-12T09:49:48.000Z</time>
      </trkpt>
      <trkpt lat="46.51125" lon="0.35423">
        <ele>127.59999847412</ele>
        <time>2019-05-12T09:49:49.000Z</time>
      </trkpt>
      <trkpt lat="46.51129" lon="0.35421">
        <ele>127.59999847412</ele>
        <time>2019-05-12T09:49:50.000Z</time>
      </trkpt>
      <trkpt lat="46.51149" lon="0.35413">
        <ele>127.40000152588</ele>
        <time>2019-05-12T09:49:55.000Z</time>
      </trkpt>
      <trkpt lat="46.51156" lon="0.35409">
        <ele>127.19999694824</ele>
        <time>2019-05-12T09:49:57.000Z</time>
      </trkpt>
      <trkpt lat="46.51166" lon="0.35399">
        <ele>127</ele>
        <time>2019-05-12T09:50:00.000Z</time>
      </trkpt>
      <trkpt lat="46.5117" lon="0.35395">
        <ele>126.80000305176</ele>
        <time>2019-05-12T09:50:01.000Z</time>
      </trkpt>
      <trkpt lat="46.51187" lon="0.35377">
        <ele>127</ele>
        <time>2019-05-12T09:50:06.000Z</time>
      </trkpt>
      <trkpt lat="46.51199" lon="0.35361">
        <ele>126</ele>
        <time>2019-05-12T09:50:10.000Z</time>
      </trkpt>
      <trkpt lat="46.51199" lon="0.35356">
        <ele>125.59999847412</ele>
        <time>2019-05-12T09:50:11.000Z</time>
      </trkpt>
      <trkpt lat="46.51201" lon="0.35325">
        <ele>124.80000305176</ele>
        <time>2019-05-12T09:50:15.000Z</time>
      </trkpt>
      <trkpt lat="46.51201" lon="0.35317">
        <ele>124.59999847412</ele>
        <time>2019-05-12T09:50:16.000Z</time>
      </trkpt>
      <trkpt lat="46.512" lon="0.35303">
        <ele>124.19999694824</ele>
        <time>2019-05-12T09:50:19.000Z</time>
      </trkpt>
      <trkpt lat="46.51201" lon="0.35298">
        <ele>123.40000152588</ele>
        <time>2019-05-12T09:50:21.000Z</time>
      </trkpt>
      <trkpt lat="46.51201" lon="0.35294">
        <ele>123.19999694824</ele>
        <time>2019-05-12T09:50:22.000Z</time>
      </trkpt>
      <trkpt lat="46.51204" lon="0.35278">
        <ele>122.40000152588</ele>
        <time>2019-05-12T09:50:25.000Z</time>
      </trkpt>
      <trkpt lat="46.51207" lon="0.35275">
        <ele>122</ele>
        <time>2019-05-12T09:50:26.000Z</time>
      </trkpt>
      <trkpt lat="46.5122" lon="0.35274">
        <ele>121.80000305176</ele>
        <time>2019-05-12T09:50:29.000Z</time>
      </trkpt>
      <trkpt lat="46.51224" lon="0.35275">
        <ele>121.80000305176</ele>
        <time>2019-05-12T09:50:30.000Z</time>
      </trkpt>
      <trkpt lat="46.51258" lon="0.35278">
        <ele>122</ele>
        <time>2019-05-12T09:50:38.000Z</time>
      </trkpt>
      <trkpt lat="46.51275" lon="0.35286">
        <ele>122.59999847412</ele>
        <time>2019-05-12T09:50:42.000Z</time>
      </trkpt>
      <trkpt lat="46.51283" lon="0.35284">
        <ele>122.59999847412</ele>
        <time>2019-05-12T09:50:44.000Z</time>
      </trkpt>
      <trkpt lat="46.51309" lon="0.35269">
        <ele>122.80000305176</ele>
        <time>2019-05-12T09:50:50.000Z</time>
      </trkpt>
      <trkpt lat="46.51324" lon="0.35265">
        <ele>123</ele>
        <time>2019-05-12T09:50:54.000Z</time>
      </trkpt>
      <trkpt lat="46.51328" lon="0.35264">
        <ele>123.19999694824</ele>
        <time>2019-05-12T09:50:55.000Z</time>
      </trkpt>
      <trkpt lat="46.51336" lon="0.35263">
        <ele>123.40000152588</ele>
        <time>2019-05-12T09:50:57.000Z</time>
      </trkpt>
      <trkpt lat="46.51349" lon="0.35261">
        <ele>123.59999847412</ele>
        <time>2019-05-12T09:51:03.000Z</time>
      </trkpt>
      <trkpt lat="46.51358" lon="0.35246">
        <ele>124.19999694824</ele>
        <time>2019-05-12T09:51:07.000Z</time>
      </trkpt>
      <trkpt lat="46.51363" lon="0.35207">
        <ele>124</ele>
        <time>2019-05-12T09:51:13.000Z</time>
      </trkpt>
      <trkpt lat="46.51366" lon="0.35185">
        <ele>123</ele>
        <time>2019-05-12T09:51:16.000Z</time>
      </trkpt>
      <trkpt lat="46.51368" lon="0.35168">
        <ele>122.80000305176</ele>
        <time>2019-05-12T09:51:18.000Z</time>
      </trkpt>
      <trkpt lat="46.51368" lon="0.35159">
        <ele>122.59999847412</ele>
        <time>2019-05-12T09:51:19.000Z</time>
      </trkpt>
      <trkpt lat="46.51367" lon="0.35141">
        <ele>122.19999694824</ele>
        <time>2019-05-12T09:51:21.000Z</time>
      </trkpt>
      <trkpt lat="46.51365" lon="0.35132">
        <ele>121.80000305176</ele>
        <time>2019-05-12T09:51:22.000Z</time>
      </trkpt>
      <trkpt lat="46.51363" lon="0.35123">
        <ele>121.40000152588</ele>
        <time>2019-05-12T09:51:23.000Z</time>
      </trkpt>
      <trkpt lat="46.51357" lon="0.35105">
        <ele>120.40000152588</ele>
        <time>2019-05-12T09:51:25.000Z</time>
      </trkpt>
      <trkpt lat="46.51346" lon="0.35077">
        <ele>119.40000152588</ele>
        <time>2019-05-12T09:51:28.000Z</time>
      </trkpt>
      <trkpt lat="46.51336" lon="0.35051">
        <ele>118.40000152588</ele>
        <time>2019-05-12T09:51:31.000Z</time>
      </trkpt>
      <trkpt lat="46.51335" lon="0.35045">
        <ele>118.19999694824</ele>
        <time>2019-05-12T09:51:32.000Z</time>
      </trkpt>
      <trkpt lat="46.51339" lon="0.35035">
        <ele>116.40000152588</ele>
        <time>2019-05-12T09:51:34.000Z</time>
      </trkpt>
      <trkpt lat="46.51348" lon="0.3503">
        <ele>115.59999847412</ele>
        <time>2019-05-12T09:51:36.000Z</time>
      </trkpt>
      <trkpt lat="46.51353" lon="0.35028">
        <ele>115</ele>
        <time>2019-05-12T09:51:37.000Z</time>
      </trkpt>
      <trkpt lat="46.51363" lon="0.35023">
        <ele>114.59999847412</ele>
        <time>2019-05-12T09:51:39.000Z</time>
      </trkpt>
      <trkpt lat="46.51369" lon="0.35021">
        <ele>114.19999694824</ele>
        <time>2019-05-12T09:51:40.000Z</time>
      </trkpt>
      <trkpt lat="46.51375" lon="0.35019">
        <ele>113.59999847412</ele>
        <time>2019-05-12T09:51:41.000Z</time>
      </trkpt>
      <trkpt lat="46.51386" lon="0.35011">
        <ele>112.80000305176</ele>
        <time>2019-05-12T09:51:43.000Z</time>
      </trkpt>
      <trkpt lat="46.51391" lon="0.35007">
        <ele>112.40000152588</ele>
        <time>2019-05-12T09:51:44.000Z</time>
      </trkpt>
      <trkpt lat="46.51395" lon="0.35003">
        <ele>111.80000305176</ele>
        <time>2019-05-12T09:51:45.000Z</time>
      </trkpt>
      <trkpt lat="46.51398" lon="0.34999">
        <ele>111.19999694824</ele>
        <time>2019-05-12T09:51:46.000Z</time>
      </trkpt>
      <trkpt lat="46.514" lon="0.34995">
        <ele>110.80000305176</ele>
        <time>2019-05-12T09:51:47.000Z</time>
      </trkpt>
      <trkpt lat="46.51402" lon="0.34992">
        <ele>110</ele>
        <time>2019-05-12T09:51:48.000Z</time>
      </trkpt>
      <trkpt lat="46.5141" lon="0.34979">
        <ele>109.40000152588</ele>
        <time>2019-05-12T09:51:51.000Z</time>
      </trkpt>
      <trkpt lat="46.51415" lon="0.34969">
        <ele>109.59999847412</ele>
        <time>2019-05-12T09:51:53.000Z</time>
      </trkpt>
      <trkpt lat="46.5142" lon="0.34961">
        <ele>110</ele>
        <time>2019-05-12T09:51:55.000Z</time>
      </trkpt>
      <trkpt lat="46.51427" lon="0.3495">
        <ele>111</ele>
        <time>2019-05-12T09:51:58.000Z</time>
      </trkpt>
      <trkpt lat="46.51429" lon="0.34947">
        <ele>111.19999694824</ele>
        <time>2019-05-12T09:51:59.000Z</time>
      </trkpt>
      <trkpt lat="46.51435" lon="0.34939">
        <ele>111.80000305176</ele>
        <time>2019-05-12T09:52:01.000Z</time>
      </trkpt>
      <trkpt lat="46.51441" lon="0.34932">
        <ele>112.40000152588</ele>
        <time>2019-05-12T09:52:03.000Z</time>
      </trkpt>
      <trkpt lat="46.51445" lon="0.34929">
        <ele>112.59999847412</ele>
        <time>2019-05-12T09:52:04.000Z</time>
      </trkpt>
      <trkpt lat="46.51454" lon="0.34919">
        <ele>113.59999847412</ele>
        <time>2019-05-12T09:52:07.000Z</time>
      </trkpt>
      <trkpt lat="46.51472" lon="0.349">
        <ele>113.80000305176</ele>
        <time>2019-05-12T09:52:13.000Z</time>
      </trkpt>
      <trkpt lat="46.51489" lon="0.34877">
        <ele>114</ele>
        <time>2019-05-12T09:52:19.000Z</time>
      </trkpt>
      <trkpt lat="46.51503" lon="0.34856">
        <ele>114.40000152588</ele>
        <time>2019-05-12T09:52:24.000Z</time>
      </trkpt>
      <trkpt lat="46.51509" lon="0.34848">
        <ele>115</ele>
        <time>2019-05-12T09:52:26.000Z</time>
      </trkpt>
      <trkpt lat="46.51518" lon="0.34831">
        <ele>115.59999847412</ele>
        <time>2019-05-12T09:52:30.000Z</time>
      </trkpt>
      <trkpt lat="46.51525" lon="0.34817">
        <ele>115.80000305176</ele>
        <time>2019-05-12T09:52:33.000Z</time>
      </trkpt>
      <trkpt lat="46.51537" lon="0.34795">
        <ele>116.40000152588</ele>
        <time>2019-05-12T09:52:38.000Z</time>
      </trkpt>
      <trkpt lat="46.51554" lon="0.34772">
        <ele>116.59999847412</ele>
        <time>2019-05-12T09:52:43.000Z</time>
      </trkpt>
      <trkpt lat="46.51557" lon="0.34768">
        <ele>116.59999847412</ele>
        <time>2019-05-12T09:52:44.000Z</time>
      </trkpt>
      <trkpt lat="46.51571" lon="0.34751">
        <ele>115.80000305176</ele>
        <time>2019-05-12T09:52:48.000Z</time>
      </trkpt>
      <trkpt lat="46.51575" lon="0.34747">
        <ele>115.59999847412</ele>
        <time>2019-05-12T09:52:49.000Z</time>
      </trkpt>
      <trkpt lat="46.51579" lon="0.34743">
        <ele>115.59999847412</ele>
        <time>2019-05-12T09:52:50.000Z</time>
      </trkpt>
      <trkpt lat="46.51602" lon="0.34715">
        <ele>114.59999847412</ele>
        <time>2019-05-12T09:52:56.000Z</time>
      </trkpt>
      <trkpt lat="46.51605" lon="0.34709">
        <ele>114.40000152588</ele>
        <time>2019-05-12T09:52:57.000Z</time>
      </trkpt>
      <trkpt lat="46.51622" lon="0.34682">
        <ele>114.80000305176</ele>
        <time>2019-05-12T09:53:02.000Z</time>
      </trkpt>
      <trkpt lat="46.51636" lon="0.34663">
        <ele>114.80000305176</ele>
        <time>2019-05-12T09:53:06.000Z</time>
      </trkpt>
      <trkpt lat="46.51663" lon="0.34636">
        <ele>115.19999694824</ele>
        <time>2019-05-12T09:53:13.000Z</time>
      </trkpt>
      <trkpt lat="46.51671" lon="0.34629">
        <ele>115.59999847412</ele>
        <time>2019-05-12T09:53:15.000Z</time>
      </trkpt>
      <trkpt lat="46.51688" lon="0.34615">
        <ele>116</ele>
        <time>2019-05-12T09:53:19.000Z</time>
      </trkpt>
      <trkpt lat="46.51716" lon="0.34592">
        <ele>116.59999847412</ele>
        <time>2019-05-12T09:53:26.000Z</time>
      </trkpt>
      <trkpt lat="46.51755" lon="0.3456">
        <ele>116.19999694824</ele>
        <time>2019-05-12T09:53:35.000Z</time>
      </trkpt>
      <trkpt lat="46.51759" lon="0.34556">
        <ele>116</ele>
        <time>2019-05-12T09:53:36.000Z</time>
      </trkpt>
      <trkpt lat="46.51768" lon="0.34548">
        <ele>115.59999847412</ele>
        <time>2019-05-12T09:53:38.000Z</time>
      </trkpt>
      <trkpt lat="46.51785" lon="0.34535">
        <ele>114.59999847412</ele>
        <time>2019-05-12T09:53:41.000Z</time>
      </trkpt>
      <trkpt lat="46.51792" lon="0.34531">
        <ele>114.40000152588</ele>
        <time>2019-05-12T09:53:42.000Z</time>
      </trkpt>
      <trkpt lat="46.51811" lon="0.34516">
        <ele>113.59999847412</ele>
        <time>2019-05-12T09:53:45.000Z</time>
      </trkpt>
      <trkpt lat="46.51818" lon="0.3451">
        <ele>112.80000305176</ele>
        <time>2019-05-12T09:53:46.000Z</time>
      </trkpt>
      <trkpt lat="46.51832" lon="0.34495">
        <ele>111.40000152588</ele>
        <time>2019-05-12T09:53:48.000Z</time>
      </trkpt>
      <trkpt lat="46.51854" lon="0.3447">
        <ele>110</ele>
        <time>2019-05-12T09:53:51.000Z</time>
      </trkpt>
      <trkpt lat="46.51863" lon="0.34461">
        <ele>109</ele>
        <time>2019-05-12T09:53:52.000Z</time>
      </trkpt>
      <trkpt lat="46.51872" lon="0.34452">
        <ele>108.19999694824</ele>
        <time>2019-05-12T09:53:53.000Z</time>
      </trkpt>
      <trkpt lat="46.51891" lon="0.34437">
        <ele>107</ele>
        <time>2019-05-12T09:53:55.000Z</time>
      </trkpt>
      <trkpt lat="46.51912" lon="0.34421">
        <ele>105.40000152588</ele>
        <time>2019-05-12T09:53:57.000Z</time>
      </trkpt>
      <trkpt lat="46.51933" lon="0.34403">
        <ele>102.59999847412</ele>
        <time>2019-05-12T09:53:59.000Z</time>
      </trkpt>
      <trkpt lat="46.51942" lon="0.34394">
        <ele>101</ele>
        <time>2019-05-12T09:54:00.000Z</time>
      </trkpt>
      <trkpt lat="46.51951" lon="0.34386">
        <ele>99.199996948242</ele>
        <time>2019-05-12T09:54:01.000Z</time>
      </trkpt>
      <trkpt lat="46.51961" lon="0.34379">
        <ele>97.599998474121</ele>
        <time>2019-05-12T09:54:02.000Z</time>
      </trkpt>
      <trkpt lat="46.51971" lon="0.34373">
        <ele>96.199996948242</ele>
        <time>2019-05-12T09:54:03.000Z</time>
      </trkpt>
      <trkpt lat="46.51981" lon="0.34367">
        <ele>94.599998474121</ele>
        <time>2019-05-12T09:54:04.000Z</time>
      </trkpt>
      <trkpt lat="46.51999" lon="0.34355">
        <ele>92.199996948242</ele>
        <time>2019-05-12T09:54:06.000Z</time>
      </trkpt>
      <trkpt lat="46.52006" lon="0.3435">
        <ele>90.400001525879</ele>
        <time>2019-05-12T09:54:07.000Z</time>
      </trkpt>
      <trkpt lat="46.52014" lon="0.34344">
        <ele>88.599998474121</ele>
        <time>2019-05-12T09:54:08.000Z</time>
      </trkpt>
      <trkpt lat="46.52021" lon="0.34338">
        <ele>87</ele>
        <time>2019-05-12T09:54:09.000Z</time>
      </trkpt>
      <trkpt lat="46.52036" lon="0.34328">
        <ele>85.400001525879</ele>
        <time>2019-05-12T09:54:11.000Z</time>
      </trkpt>
      <trkpt lat="46.52051" lon="0.34323">
        <ele>84.800003051758</ele>
        <time>2019-05-12T09:54:13.000Z</time>
      </trkpt>
      <trkpt lat="46.52065" lon="0.34319">
        <ele>84.800003051758</ele>
        <time>2019-05-12T09:54:15.000Z</time>
      </trkpt>
      <trkpt lat="46.52078" lon="0.34315">
        <ele>86</ele>
        <time>2019-05-12T09:54:17.000Z</time>
      </trkpt>
      <trkpt lat="46.52085" lon="0.34313">
        <ele>86.800003051758</ele>
        <time>2019-05-12T09:54:18.000Z</time>
      </trkpt>
      <trkpt lat="46.5209" lon="0.34312">
        <ele>87.199996948242</ele>
        <time>2019-05-12T09:54:19.000Z</time>
      </trkpt>
      <trkpt lat="46.52101" lon="0.34309">
        <ele>87.800003051758</ele>
        <time>2019-05-12T09:54:21.000Z</time>
      </trkpt>
      <trkpt lat="46.52106" lon="0.34308">
        <ele>87.800003051758</ele>
        <time>2019-05-12T09:54:22.000Z</time>
      </trkpt>
      <trkpt lat="46.52116" lon="0.34309">
        <ele>88.400001525879</ele>
        <time>2019-05-12T09:54:24.000Z</time>
      </trkpt>
      <trkpt lat="46.52132" lon="0.34307">
        <ele>88.199996948242</ele>
        <time>2019-05-12T09:54:28.000Z</time>
      </trkpt>
      <trkpt lat="46.52136" lon="0.34307">
        <ele>87.599998474121</ele>
        <time>2019-05-12T09:54:29.000Z</time>
      </trkpt>
      <trkpt lat="46.52146" lon="0.34311">
        <ele>86</ele>
        <time>2019-05-12T09:54:31.000Z</time>
      </trkpt>
      <trkpt lat="46.52154" lon="0.34319">
        <ele>85.400001525879</ele>
        <time>2019-05-12T09:54:33.000Z</time>
      </trkpt>
      <trkpt lat="46.52159" lon="0.34322">
        <ele>85</ele>
        <time>2019-05-12T09:54:34.000Z</time>
      </trkpt>
      <trkpt lat="46.52163" lon="0.34325">
        <ele>84.800003051758</ele>
        <time>2019-05-12T09:54:35.000Z</time>
      </trkpt>
      <trkpt lat="46.52172" lon="0.34332">
        <ele>85.199996948242</ele>
        <time>2019-05-12T09:54:38.000Z</time>
      </trkpt>
      <trkpt lat="46.52182" lon="0.34335">
        <ele>85.800003051758</ele>
        <time>2019-05-12T09:54:41.000Z</time>
      </trkpt>
      <trkpt lat="46.52195" lon="0.3434">
        <ele>86.400001525879</ele>
        <time>2019-05-12T09:54:44.000Z</time>
      </trkpt>
      <trkpt lat="46.522" lon="0.3434">
        <ele>86.199996948242</ele>
        <time>2019-05-12T09:54:45.000Z</time>
      </trkpt>
      <trkpt lat="46.52213" lon="0.34345">
        <ele>85.800003051758</ele>
        <time>2019-05-12T09:54:48.000Z</time>
      </trkpt>
      <trkpt lat="46.52227" lon="0.34349">
        <ele>86.400001525879</ele>
        <time>2019-05-12T09:54:52.000Z</time>
      </trkpt>
      <trkpt lat="46.52247" lon="0.34349">
        <ele>86.599998474121</ele>
        <time>2019-05-12T09:54:57.000Z</time>
      </trkpt>
      <trkpt lat="46.52249" lon="0.34349">
        <ele>86.599998474121</ele>
        <time>2019-05-12T09:54:58.000Z</time>
      </trkpt>
      <trkpt lat="46.5226" lon="0.34345">
        <ele>87.800003051758</ele>
        <time>2019-05-12T09:55:02.000Z</time>
      </trkpt>
      <trkpt lat="46.52263" lon="0.34344">
        <ele>87.800003051758</ele>
        <time>2019-05-12T09:55:03.000Z</time>
      </trkpt>
      <trkpt lat="46.52283" lon="0.34333">
        <ele>88.400001525879</ele>
        <time>2019-05-12T09:55:09.000Z</time>
      </trkpt>
      <trkpt lat="46.52291" lon="0.34327">
        <ele>88.800003051758</ele>
        <time>2019-05-12T09:55:13.000Z</time>
      </trkpt>
      <trkpt lat="46.52294" lon="0.34325">
        <ele>88.800003051758</ele>
        <time>2019-05-12T09:55:14.000Z</time>
      </trkpt>
      <trkpt lat="46.52299" lon="0.34322">
        <ele>89</ele>
        <time>2019-05-12T09:55:17.000Z</time>
      </trkpt>
      <trkpt lat="46.52302" lon="0.34318">
        <ele>89.400001525879</ele>
        <time>2019-05-12T09:55:19.000Z</time>
      </trkpt>
      <trkpt lat="46.52305" lon="0.34314">
        <ele>89.800003051758</ele>
        <time>2019-05-12T09:55:21.000Z</time>
      </trkpt>
      <trkpt lat="46.52309" lon="0.34311">
        <ele>91.800003051758</ele>
        <time>2019-05-12T09:55:24.000Z</time>
      </trkpt>
      <trkpt lat="46.52311" lon="0.34309">
        <ele>93</ele>
        <time>2019-05-12T09:55:26.000Z</time>
      </trkpt>
      <trkpt lat="46.52316" lon="0.34307">
        <ele>93.400001525879</ele>
        <time>2019-05-12T09:55:28.000Z</time>
      </trkpt>
      <trkpt lat="46.52321" lon="0.34307">
        <ele>93.599998474121</ele>
        <time>2019-05-12T09:55:30.000Z</time>
      </trkpt>
      <trkpt lat="46.52331" lon="0.34308">
        <ele>93.800003051758</ele>
        <time>2019-05-12T09:55:34.000Z</time>
      </trkpt>
      <trkpt lat="46.52334" lon="0.34308">
        <ele>94</ele>
        <time>2019-05-12T09:55:35.000Z</time>
      </trkpt>
      <trkpt lat="46.52343" lon="0.34307">
        <ele>94.800003051758</ele>
        <time>2019-05-12T09:55:39.000Z</time>
      </trkpt>
      <trkpt lat="46.52345" lon="0.34308">
        <ele>95</ele>
        <time>2019-05-12T09:55:40.000Z</time>
      </trkpt>
      <trkpt lat="46.52357" lon="0.34305">
        <ele>96.199996948242</ele>
        <time>2019-05-12T09:55:45.000Z</time>
      </trkpt>
      <trkpt lat="46.5237" lon="0.34298">
        <ele>97</ele>
        <time>2019-05-12T09:55:50.000Z</time>
      </trkpt>
      <trkpt lat="46.52375" lon="0.34296">
        <ele>97.400001525879</ele>
        <time>2019-05-12T09:55:52.000Z</time>
      </trkpt>
      <trkpt lat="46.5238" lon="0.34293">
        <ele>97.800003051758</ele>
        <time>2019-05-12T09:55:55.000Z</time>
      </trkpt>
      <trkpt lat="46.52383" lon="0.3429">
        <ele>98</ele>
        <time>2019-05-12T09:55:57.000Z</time>
      </trkpt>
      <trkpt lat="46.52385" lon="0.34288">
        <ele>98.599998474121</ele>
        <time>2019-05-12T09:55:59.000Z</time>
      </trkpt>
      <trkpt lat="46.52387" lon="0.34287">
        <ele>98.800003051758</ele>
        <time>2019-05-12T09:56:00.000Z</time>
      </trkpt>
      <trkpt lat="46.52392" lon="0.34283">
        <ele>100</ele>
        <time>2019-05-12T09:56:04.000Z</time>
      </trkpt>
      <trkpt lat="46.52398" lon="0.3428">
        <ele>100.80000305176</ele>
        <time>2019-05-12T09:56:07.000Z</time>
      </trkpt>
      <trkpt lat="46.524" lon="0.34279">
        <ele>101</ele>
        <time>2019-05-12T09:56:08.000Z</time>
      </trkpt>
      <trkpt lat="46.52407" lon="0.34275">
        <ele>102.19999694824</ele>
        <time>2019-05-12T09:56:12.000Z</time>
      </trkpt>
      <trkpt lat="46.52408" lon="0.34274">
        <ele>102.40000152588</ele>
        <time>2019-05-12T09:56:13.000Z</time>
      </trkpt>
      <trkpt lat="46.52415" lon="0.34269">
        <ele>103.40000152588</ele>
        <time>2019-05-12T09:56:17.000Z</time>
      </trkpt>
      <trkpt lat="46.5242" lon="0.34266">
        <ele>104.19999694824</ele>
        <time>2019-05-12T09:56:20.000Z</time>
      </trkpt>
      <trkpt lat="46.52422" lon="0.34266">
        <ele>104.40000152588</ele>
        <time>2019-05-12T09:56:21.000Z</time>
      </trkpt>
      <trkpt lat="46.52427" lon="0.34261">
        <ele>105.40000152588</ele>
        <time>2019-05-12T09:56:26.000Z</time>
      </trkpt>
      <trkpt lat="46.52427" lon="0.34261">
        <ele>105.59999847412</ele>
        <time>2019-05-12T09:56:27.000Z</time>
      </trkpt>
      <trkpt lat="46.52431" lon="0.34254">
        <ele>105.19999694824</ele>
        <time>2019-05-12T09:56:50.000Z</time>
      </trkpt>
      <trkpt lat="46.52433" lon="0.34248">
        <ele>105.40000152588</ele>
        <time>2019-05-12T09:56:52.000Z</time>
      </trkpt>
      <trkpt lat="46.52437" lon="0.34233">
        <ele>105.19999694824</ele>
        <time>2019-05-12T09:56:57.000Z</time>
      </trkpt>
      <trkpt lat="46.52439" lon="0.34228">
        <ele>105.19999694824</ele>
        <time>2019-05-12T09:56:59.000Z</time>
      </trkpt>
      <trkpt lat="46.52439" lon="0.34225">
        <ele>105.19999694824</ele>
        <time>2019-05-12T09:57:00.000Z</time>
      </trkpt>
      <trkpt lat="46.52443" lon="0.34214">
        <ele>105.40000152588</ele>
        <time>2019-05-12T09:57:03.000Z</time>
      </trkpt>
      <trkpt lat="46.52445" lon="0.34206">
        <ele>105.40000152588</ele>
        <time>2019-05-12T09:57:05.000Z</time>
      </trkpt>
      <trkpt lat="46.52452" lon="0.34185">
        <ele>104.59999847412</ele>
        <time>2019-05-12T09:57:09.000Z</time>
      </trkpt>
      <trkpt lat="46.52454" lon="0.3418">
        <ele>104.19999694824</ele>
        <time>2019-05-12T09:57:10.000Z</time>
      </trkpt>
      <trkpt lat="46.52457" lon="0.34176">
        <ele>104.19999694824</ele>
        <time>2019-05-12T09:57:11.000Z</time>
      </trkpt>
      <trkpt lat="46.52472" lon="0.34152">
        <ele>103</ele>
        <time>2019-05-12T09:57:15.000Z</time>
      </trkpt>
      <trkpt lat="46.5248" lon="0.34134">
        <ele>101</ele>
        <time>2019-05-12T09:57:17.000Z</time>
      </trkpt>
      <trkpt lat="46.5249" lon="0.34114">
        <ele>99.599998474121</ele>
        <time>2019-05-12T09:57:19.000Z</time>
      </trkpt>
      <trkpt lat="46.52504" lon="0.34079">
        <ele>98.400001525879</ele>
        <time>2019-05-12T09:57:22.000Z</time>
      </trkpt>
      <trkpt lat="46.5251" lon="0.34069">
        <ele>97.599998474121</ele>
        <time>2019-05-12T09:57:23.000Z</time>
      </trkpt>
      <trkpt lat="46.52516" lon="0.34061">
        <ele>96</ele>
        <time>2019-05-12T09:57:24.000Z</time>
      </trkpt>
      <trkpt lat="46.52522" lon="0.34056">
        <ele>95</ele>
        <time>2019-05-12T09:57:25.000Z</time>
      </trkpt>
      <trkpt lat="46.52527" lon="0.34052">
        <ele>94</ele>
        <time>2019-05-12T09:57:26.000Z</time>
      </trkpt>
      <trkpt lat="46.5253" lon="0.3405">
        <ele>93</ele>
        <time>2019-05-12T09:57:27.000Z</time>
      </trkpt>
      <trkpt lat="46.52537" lon="0.34049">
        <ele>91.199996948242</ele>
        <time>2019-05-12T09:57:29.000Z</time>
      </trkpt>
      <trkpt lat="46.5254" lon="0.34048">
        <ele>90.199996948242</ele>
        <time>2019-05-12T09:57:30.000Z</time>
      </trkpt>
      <trkpt lat="46.52544" lon="0.34048">
        <ele>89.599998474121</ele>
        <time>2019-05-12T09:57:31.000Z</time>
      </trkpt>
      <trkpt lat="46.52551" lon="0.34046">
        <ele>88.599998474121</ele>
        <time>2019-05-12T09:57:33.000Z</time>
      </trkpt>
      <trkpt lat="46.52556" lon="0.34045">
        <ele>88.199996948242</ele>
        <time>2019-05-12T09:57:34.000Z</time>
      </trkpt>
      <trkpt lat="46.5256" lon="0.34043">
        <ele>87.400001525879</ele>
        <time>2019-05-12T09:57:35.000Z</time>
      </trkpt>
      <trkpt lat="46.52566" lon="0.34042">
        <ele>87.199996948242</ele>
        <time>2019-05-12T09:57:36.000Z</time>
      </trkpt>
      <trkpt lat="46.52583" lon="0.3404">
        <ele>86.199996948242</ele>
        <time>2019-05-12T09:57:39.000Z</time>
      </trkpt>
      <trkpt lat="46.52589" lon="0.3404">
        <ele>85.800003051758</ele>
        <time>2019-05-12T09:57:40.000Z</time>
      </trkpt>
      <trkpt lat="46.52614" lon="0.34038">
        <ele>84.400001525879</ele>
        <time>2019-05-12T09:57:44.000Z</time>
      </trkpt>
      <trkpt lat="46.52633" lon="0.34038">
        <ele>83.800003051758</ele>
        <time>2019-05-12T09:57:47.000Z</time>
      </trkpt>
      <trkpt lat="46.52638" lon="0.34039">
        <ele>83.599998474121</ele>
        <time>2019-05-12T09:57:48.000Z</time>
      </trkpt>
      <trkpt lat="46.52644" lon="0.3404">
        <ele>83.400001525879</ele>
        <time>2019-05-12T09:57:49.000Z</time>
      </trkpt>
      <trkpt lat="46.5266" lon="0.34042">
        <ele>82.800003051758</ele>
        <time>2019-05-12T09:57:53.000Z</time>
      </trkpt>
      <trkpt lat="46.52674" lon="0.34044">
        <ele>82.199996948242</ele>
        <time>2019-05-12T09:57:56.000Z</time>
      </trkpt>
      <trkpt lat="46.52688" lon="0.34046">
        <ele>82</ele>
        <time>2019-05-12T09:57:59.000Z</time>
      </trkpt>
      <trkpt lat="46.52701" lon="0.34046">
        <ele>81.599998474121</ele>
        <time>2019-05-12T09:58:02.000Z</time>
      </trkpt>
      <trkpt lat="46.52704" lon="0.34045">
        <ele>81.599998474121</ele>
        <time>2019-05-12T09:58:03.000Z</time>
      </trkpt>
      <trkpt lat="46.52716" lon="0.34042">
        <ele>81</ele>
        <time>2019-05-12T09:58:07.000Z</time>
      </trkpt>
      <trkpt lat="46.52723" lon="0.34041">
        <ele>80.800003051758</ele>
        <time>2019-05-12T09:58:09.000Z</time>
      </trkpt>
      <trkpt lat="46.52734" lon="0.34038">
        <ele>80.400001525879</ele>
        <time>2019-05-12T09:58:12.000Z</time>
      </trkpt>
      <trkpt lat="46.52745" lon="0.34035">
        <ele>80</ele>
        <time>2019-05-12T09:58:14.000Z</time>
      </trkpt>
      <trkpt lat="46.52752" lon="0.34032">
        <ele>79.199996948242</ele>
        <time>2019-05-12T09:58:15.000Z</time>
      </trkpt>
      <trkpt lat="46.52758" lon="0.34028">
        <ele>78.800003051758</ele>
        <time>2019-05-12T09:58:16.000Z</time>
      </trkpt>
      <trkpt lat="46.52763" lon="0.3402">
        <ele>78.199996948242</ele>
        <time>2019-05-12T09:58:17.000Z</time>
      </trkpt>
      <trkpt lat="46.52775" lon="0.33984">
        <ele>76.199996948242</ele>
        <time>2019-05-12T09:58:20.000Z</time>
      </trkpt>
      <trkpt lat="46.52778" lon="0.33971">
        <ele>75.599998474121</ele>
        <time>2019-05-12T09:58:21.000Z</time>
      </trkpt>
      <trkpt lat="46.52781" lon="0.33959">
        <ele>75</ele>
        <time>2019-05-12T09:58:22.000Z</time>
      </trkpt>
      <trkpt lat="46.52785" lon="0.3394">
        <ele>73.400001525879</ele>
        <time>2019-05-12T09:58:24.000Z</time>
      </trkpt>
      <trkpt lat="46.52788" lon="0.33933">
        <ele>72.800003051758</ele>
        <time>2019-05-12T09:58:25.000Z</time>
      </trkpt>
      <trkpt lat="46.52797" lon="0.33926">
        <ele>72.199996948242</ele>
        <time>2019-05-12T09:58:27.000Z</time>
      </trkpt>
      <trkpt lat="46.52807" lon="0.33925">
        <ele>72</ele>
        <time>2019-05-12T09:58:29.000Z</time>
      </trkpt>
      <trkpt lat="46.52817" lon="0.33923">
        <ele>72.199996948242</ele>
        <time>2019-05-12T09:58:31.000Z</time>
      </trkpt>
      <trkpt lat="46.52828" lon="0.33921">
        <ele>72</ele>
        <time>2019-05-12T09:58:33.000Z</time>
      </trkpt>
      <trkpt lat="46.52867" lon="0.33914">
        <ele>71.599998474121</ele>
        <time>2019-05-12T09:58:41.000Z</time>
      </trkpt>
      <trkpt lat="46.52905" lon="0.33911">
        <ele>71.800003051758</ele>
        <time>2019-05-12T09:58:49.000Z</time>
      </trkpt>
      <trkpt lat="46.52915" lon="0.33912">
        <ele>71.599998474121</ele>
        <time>2019-05-12T09:58:51.000Z</time>
      </trkpt>
      <trkpt lat="46.52928" lon="0.3392">
        <ele>71.599998474121</ele>
        <time>2019-05-12T09:58:54.000Z</time>
      </trkpt>
      <trkpt lat="46.52938" lon="0.3394">
        <ele>72.199996948242</ele>
        <time>2019-05-12T09:58:58.000Z</time>
      </trkpt>
      <trkpt lat="46.52939" lon="0.33946">
        <ele>72.400001525879</ele>
        <time>2019-05-12T09:58:59.000Z</time>
      </trkpt>
      <trkpt lat="46.52945" lon="0.33971">
        <ele>72.199996948242</ele>
        <time>2019-05-12T09:59:03.000Z</time>
      </trkpt>
      <trkpt lat="46.52946" lon="0.33984">
        <ele>72.599998474121</ele>
        <time>2019-05-12T09:59:05.000Z</time>
      </trkpt>
      <trkpt lat="46.52947" lon="0.34016">
        <ele>73.400001525879</ele>
        <time>2019-05-12T09:59:10.000Z</time>
      </trkpt>
      <trkpt lat="46.52948" lon="0.34022">
        <ele>73.599998474121</ele>
        <time>2019-05-12T09:59:11.000Z</time>
      </trkpt>
      <trkpt lat="46.52949" lon="0.34028">
        <ele>73.599998474121</ele>
        <time>2019-05-12T09:59:12.000Z</time>
      </trkpt>
      <trkpt lat="46.52952" lon="0.3404">
        <ele>74</ele>
        <time>2019-05-12T09:59:14.000Z</time>
      </trkpt>
      <trkpt lat="46.52957" lon="0.3405">
        <ele>74.400001525879</ele>
        <time>2019-05-12T09:59:16.000Z</time>
      </trkpt>
      <trkpt lat="46.5296" lon="0.34054">
        <ele>74.599998474121</ele>
        <time>2019-05-12T09:59:17.000Z</time>
      </trkpt>
      <trkpt lat="46.52971" lon="0.34059">
        <ele>75.599998474121</ele>
        <time>2019-05-12T09:59:20.000Z</time>
      </trkpt>
      <trkpt lat="46.52974" lon="0.34059">
        <ele>75.800003051758</ele>
        <time>2019-05-12T09:59:21.000Z</time>
      </trkpt>
      <trkpt lat="46.52978" lon="0.34059">
        <ele>76</ele>
        <time>2019-05-12T09:59:22.000Z</time>
      </trkpt>
      <trkpt lat="46.53" lon="0.34058">
        <ele>76.400001525879</ele>
        <time>2019-05-12T09:59:27.000Z</time>
      </trkpt>
      <trkpt lat="46.53021" lon="0.34059">
        <ele>77.599998474121</ele>
        <time>2019-05-12T09:59:32.000Z</time>
      </trkpt>
      <trkpt lat="46.5303" lon="0.34058">
        <ele>77.800003051758</ele>
        <time>2019-05-12T09:59:34.000Z</time>
      </trkpt>
      <trkpt lat="46.53034" lon="0.34058">
        <ele>77.800003051758</ele>
        <time>2019-05-12T09:59:35.000Z</time>
      </trkpt>
      <trkpt lat="46.53043" lon="0.34059">
        <ele>78</ele>
        <time>2019-05-12T09:59:37.000Z</time>
      </trkpt>
      <trkpt lat="46.53055" lon="0.34064">
        <ele>78.599998474121</ele>
        <time>2019-05-12T09:59:40.000Z</time>
      </trkpt>
      <trkpt lat="46.53059" lon="0.34066">
        <ele>78.800003051758</ele>
        <time>2019-05-12T09:59:41.000Z</time>
      </trkpt>
      <trkpt lat="46.53075" lon="0.34075">
        <ele>79.800003051758</ele>
        <time>2019-05-12T09:59:45.000Z</time>
      </trkpt>
      <trkpt lat="46.53092" lon="0.34084">
        <ele>80.599998474121</ele>
        <time>2019-05-12T09:59:49.000Z</time>
      </trkpt>
      <trkpt lat="46.53096" lon="0.34087">
        <ele>81</ele>
        <time>2019-05-12T09:59:50.000Z</time>
      </trkpt>
      <trkpt lat="46.53119" lon="0.341">
        <ele>82.199996948242</ele>
        <time>2019-05-12T09:59:56.000Z</time>
      </trkpt>
      <trkpt lat="46.53126" lon="0.34104">
        <ele>82.400001525879</ele>
        <time>2019-05-12T09:59:58.000Z</time>
      </trkpt>
      <trkpt lat="46.53151" lon="0.3412">
        <ele>83.199996948242</ele>
        <time>2019-05-12T10:00:05.000Z</time>
      </trkpt>
      <trkpt lat="46.53159" lon="0.34129">
        <ele>83</ele>
        <time>2019-05-12T10:00:08.000Z</time>
      </trkpt>
      <trkpt lat="46.5317" lon="0.34141">
        <ele>83</ele>
        <time>2019-05-12T10:00:12.000Z</time>
      </trkpt>
      <trkpt lat="46.53194" lon="0.34171">
        <ele>83.400001525879</ele>
        <time>2019-05-12T10:00:21.000Z</time>
      </trkpt>
      <trkpt lat="46.53216" lon="0.34195">
        <ele>83.599998474121</ele>
        <time>2019-05-12T10:00:29.000Z</time>
      </trkpt>
      <trkpt lat="46.5324" lon="0.3422">
        <ele>83.599998474121</ele>
        <time>2019-05-12T10:00:37.000Z</time>
      </trkpt>
      <trkpt lat="46.53264" lon="0.34238">
        <ele>83.400001525879</ele>
        <time>2019-05-12T10:00:44.000Z</time>
      </trkpt>
      <trkpt lat="46.53284" lon="0.34252">
        <ele>83.400001525879</ele>
        <time>2019-05-12T10:00:50.000Z</time>
      </trkpt>
      <trkpt lat="46.53295" lon="0.34258">
        <ele>83.400001525879</ele>
        <time>2019-05-12T10:00:53.000Z</time>
      </trkpt>
      <trkpt lat="46.53316" lon="0.34273">
        <ele>83.199996948242</ele>
        <time>2019-05-12T10:00:59.000Z</time>
      </trkpt>
      <trkpt lat="46.53346" lon="0.34299">
        <ele>82.800003051758</ele>
        <time>2019-05-12T10:01:07.000Z</time>
      </trkpt>
      <trkpt lat="46.53354" lon="0.34306">
        <ele>82.800003051758</ele>
        <time>2019-05-12T10:01:09.000Z</time>
      </trkpt>
      <trkpt lat="46.53365" lon="0.34319">
        <ele>82.599998474121</ele>
        <time>2019-05-12T10:01:12.000Z</time>
      </trkpt>
      <trkpt lat="46.53373" lon="0.34325">
        <ele>83.400001525879</ele>
        <time>2019-05-12T10:01:14.000Z</time>
      </trkpt>
      <trkpt lat="46.5338" lon="0.34332">
        <ele>83.199996948242</ele>
        <time>2019-05-12T10:01:16.000Z</time>
      </trkpt>
      <trkpt lat="46.53397" lon="0.3434">
        <ele>83.199996948242</ele>
        <time>2019-05-12T10:01:20.000Z</time>
      </trkpt>
      <trkpt lat="46.53401" lon="0.34342">
        <ele>83.199996948242</ele>
        <time>2019-05-12T10:01:21.000Z</time>
      </trkpt>
      <trkpt lat="46.5342" lon="0.34346">
        <ele>83.800003051758</ele>
        <time>2019-05-12T10:01:26.000Z</time>
      </trkpt>
      <trkpt lat="46.53438" lon="0.34345">
        <ele>83.800003051758</ele>
        <time>2019-05-12T10:01:31.000Z</time>
      </trkpt>
      <trkpt lat="46.53443" lon="0.34344">
        <ele>83.800003051758</ele>
        <time>2019-05-12T10:01:32.000Z</time>
      </trkpt>
      <trkpt lat="46.53458" lon="0.34345">
        <ele>84</ele>
        <time>2019-05-12T10:01:35.000Z</time>
      </trkpt>
      <trkpt lat="46.53463" lon="0.34347">
        <ele>84</ele>
        <time>2019-05-12T10:01:36.000Z</time>
      </trkpt>
      <trkpt lat="46.53468" lon="0.34348">
        <ele>84.199996948242</ele>
        <time>2019-05-12T10:01:37.000Z</time>
      </trkpt>
      <trkpt lat="46.53501" lon="0.3436">
        <ele>83.400001525879</ele>
        <time>2019-05-12T10:01:44.000Z</time>
      </trkpt>
      <trkpt lat="46.53527" lon="0.34371">
        <ele>82.599998474121</ele>
        <time>2019-05-12T10:01:49.000Z</time>
      </trkpt>
      <trkpt lat="46.53543" lon="0.3438">
        <ele>82.599998474121</ele>
        <time>2019-05-12T10:01:52.000Z</time>
      </trkpt>
      <trkpt lat="46.53576" lon="0.34407">
        <ele>81.800003051758</ele>
        <time>2019-05-12T10:01:59.000Z</time>
      </trkpt>
      <trkpt lat="46.5358" lon="0.34409">
        <ele>81.599998474121</ele>
        <time>2019-05-12T10:02:00.000Z</time>
      </trkpt>
      <trkpt lat="46.53599" lon="0.34413">
        <ele>81.199996948242</ele>
        <time>2019-05-12T10:02:04.000Z</time>
      </trkpt>
      <trkpt lat="46.53626" lon="0.34412">
        <ele>80.800003051758</ele>
        <time>2019-05-12T10:02:10.000Z</time>
      </trkpt>
      <trkpt lat="46.53657" lon="0.34421">
        <ele>81.400001525879</ele>
        <time>2019-05-12T10:02:17.000Z</time>
      </trkpt>
      <trkpt lat="46.53661" lon="0.34423">
        <ele>81.400001525879</ele>
        <time>2019-05-12T10:02:18.000Z</time>
      </trkpt>
      <trkpt lat="46.53683" lon="0.34434">
        <ele>81.800003051758</ele>
        <time>2019-05-12T10:02:23.000Z</time>
      </trkpt>
      <trkpt lat="46.53696" lon="0.34441">
        <ele>81.800003051758</ele>
        <time>2019-05-12T10:02:26.000Z</time>
      </trkpt>
      <trkpt lat="46.53726" lon="0.34455">
        <ele>81.800003051758</ele>
        <time>2019-05-12T10:02:33.000Z</time>
      </trkpt>
      <trkpt lat="46.53745" lon="0.34464">
        <ele>82.400001525879</ele>
        <time>2019-05-12T10:02:38.000Z</time>
      </trkpt>
      <trkpt lat="46.53749" lon="0.34466">
        <ele>82.599998474121</ele>
        <time>2019-05-12T10:02:39.000Z</time>
      </trkpt>
      <trkpt lat="46.5377" lon="0.34475">
        <ele>82.599998474121</ele>
        <time>2019-05-12T10:02:44.000Z</time>
      </trkpt>
      <trkpt lat="46.53795" lon="0.34484">
        <ele>82.800003051758</ele>
        <time>2019-05-12T10:02:50.000Z</time>
      </trkpt>
      <trkpt lat="46.53828" lon="0.34494">
        <ele>83</ele>
        <time>2019-05-12T10:02:58.000Z</time>
      </trkpt>
      <trkpt lat="46.53858" lon="0.34503">
        <ele>83.599998474121</ele>
        <time>2019-05-12T10:03:06.000Z</time>
      </trkpt>
      <trkpt lat="46.53881" lon="0.34503">
        <ele>83.599998474121</ele>
        <time>2019-05-12T10:03:11.000Z</time>
      </trkpt>
      <trkpt lat="46.5391" lon="0.34496">
        <ele>82.599998474121</ele>
        <time>2019-05-12T10:03:17.000Z</time>
      </trkpt>
      <trkpt lat="46.53914" lon="0.34493">
        <ele>82.400001525879</ele>
        <time>2019-05-12T10:03:18.000Z</time>
      </trkpt>
      <trkpt lat="46.53922" lon="0.34484">
        <ele>82.199996948242</ele>
        <time>2019-05-12T10:03:21.000Z</time>
      </trkpt>
      <trkpt lat="46.53923" lon="0.3448">
        <ele>82.199996948242</ele>
        <time>2019-05-12T10:03:22.000Z</time>
      </trkpt>
      <trkpt lat="46.5392" lon="0.3447">
        <ele>82</ele>
        <time>2019-05-12T10:03:25.000Z</time>
      </trkpt>
      <trkpt lat="46.53917" lon="0.34453">
        <ele>81.599998474121</ele>
        <time>2019-05-12T10:03:28.000Z</time>
      </trkpt>
      <trkpt lat="46.53915" lon="0.34445">
        <ele>81.199996948242</ele>
        <time>2019-05-12T10:03:29.000Z</time>
      </trkpt>
      <trkpt lat="46.53914" lon="0.34424">
        <ele>79.800003051758</ele>
        <time>2019-05-12T10:03:31.000Z</time>
      </trkpt>
      <trkpt lat="46.53915" lon="0.34414">
        <ele>78.599998474121</ele>
        <time>2019-05-12T10:03:32.000Z</time>
      </trkpt>
      <trkpt lat="46.53923" lon="0.34393">
        <ele>77.599998474121</ele>
        <time>2019-05-12T10:03:34.000Z</time>
      </trkpt>
      <trkpt lat="46.5393" lon="0.34384">
        <ele>77.199996948242</ele>
        <time>2019-05-12T10:03:35.000Z</time>
      </trkpt>
      <trkpt lat="46.53943" lon="0.34369">
        <ele>75.800003051758</ele>
        <time>2019-05-12T10:03:37.000Z</time>
      </trkpt>
      <trkpt lat="46.53951" lon="0.34364">
        <ele>75</ele>
        <time>2019-05-12T10:03:38.000Z</time>
      </trkpt>
      <trkpt lat="46.53958" lon="0.34358">
        <ele>74.400001525879</ele>
        <time>2019-05-12T10:03:39.000Z</time>
      </trkpt>
      <trkpt lat="46.53966" lon="0.34351">
        <ele>73.800003051758</ele>
        <time>2019-05-12T10:03:40.000Z</time>
      </trkpt>
      <trkpt lat="46.53973" lon="0.34344">
        <ele>73.400001525879</ele>
        <time>2019-05-12T10:03:41.000Z</time>
      </trkpt>
      <trkpt lat="46.5398" lon="0.34337">
        <ele>73</ele>
        <time>2019-05-12T10:03:42.000Z</time>
      </trkpt>
      <trkpt lat="46.53986" lon="0.34329">
        <ele>72.199996948242</ele>
        <time>2019-05-12T10:03:43.000Z</time>
      </trkpt>
      <trkpt lat="46.53992" lon="0.34316">
        <ele>71.599998474121</ele>
        <time>2019-05-12T10:03:45.000Z</time>
      </trkpt>
      <trkpt lat="46.53993" lon="0.34313">
        <ele>70.800003051758</ele>
        <time>2019-05-12T10:03:47.000Z</time>
      </trkpt>
      <trkpt lat="46.53993" lon="0.34312">
        <ele>70.199996948242</ele>
        <time>2019-05-12T10:03:48.000Z</time>
      </trkpt>
      <trkpt lat="46.53993" lon="0.34312">
        <ele>70</ele>
        <time>2019-05-12T10:03:49.000Z</time>
      </trkpt>
      <trkpt lat="46.54" lon="0.34303">
        <ele>69.800003051758</ele>
        <time>2019-05-12T10:04:00.000Z</time>
      </trkpt>
      <trkpt lat="46.54004" lon="0.34297">
        <ele>69.800003051758</ele>
        <time>2019-05-12T10:04:02.000Z</time>
      </trkpt>
      <trkpt lat="46.54011" lon="0.34279">
        <ele>69.800003051758</ele>
        <time>2019-05-12T10:04:06.000Z</time>
      </trkpt>
      <trkpt lat="46.5402" lon="0.34255">
        <ele>70.199996948242</ele>
        <time>2019-05-12T10:04:11.000Z</time>
      </trkpt>
      <trkpt lat="46.54028" lon="0.34238">
        <ele>69.599998474121</ele>
        <time>2019-05-12T10:04:15.000Z</time>
      </trkpt>
      <trkpt lat="46.54035" lon="0.34223">
        <ele>69.599998474121</ele>
        <time>2019-05-12T10:04:19.000Z</time>
      </trkpt>
      <trkpt lat="46.54048" lon="0.34216">
        <ele>70</ele>
        <time>2019-05-12T10:04:23.000Z</time>
      </trkpt>
      <trkpt lat="46.54051" lon="0.34212">
        <ele>70</ele>
        <time>2019-05-12T10:04:24.000Z</time>
      </trkpt>
      <trkpt lat="46.54056" lon="0.34204">
        <ele>70</ele>
        <time>2019-05-12T10:04:26.000Z</time>
      </trkpt>
      <trkpt lat="46.54069" lon="0.34194">
        <ele>70</ele>
        <time>2019-05-12T10:04:30.000Z</time>
      </trkpt>
      <trkpt lat="46.54078" lon="0.34175">
        <ele>69.800003051758</ele>
        <time>2019-05-12T10:04:34.000Z</time>
      </trkpt>
      <trkpt lat="46.54085" lon="0.34166">
        <ele>69.599998474121</ele>
        <time>2019-05-12T10:04:37.000Z</time>
      </trkpt>
      <trkpt lat="46.54088" lon="0.34162">
        <ele>69.800003051758</ele>
        <time>2019-05-12T10:04:38.000Z</time>
      </trkpt>
      <trkpt lat="46.541" lon="0.34141">
        <ele>69.800003051758</ele>
        <time>2019-05-12T10:04:43.000Z</time>
      </trkpt>
      <trkpt lat="46.5411" lon="0.34117">
        <ele>70</ele>
        <time>2019-05-12T10:04:48.000Z</time>
      </trkpt>
      <trkpt lat="46.54117" lon="0.34082">
        <ele>69.800003051758</ele>
        <time>2019-05-12T10:04:54.000Z</time>
      </trkpt>
      <trkpt lat="46.5412" lon="0.34044">
        <ele>69.400001525879</ele>
        <time>2019-05-12T10:05:00.000Z</time>
      </trkpt>
      <trkpt lat="46.5412" lon="0.34039">
        <ele>69.400001525879</ele>
        <time>2019-05-12T10:05:01.000Z</time>
      </trkpt>
      <trkpt lat="46.54123" lon="0.34018">
        <ele>69.400001525879</ele>
        <time>2019-05-12T10:05:05.000Z</time>
      </trkpt>
      <trkpt lat="46.54126" lon="0.34001">
        <ele>69.400001525879</ele>
        <time>2019-05-12T10:05:08.000Z</time>
      </trkpt>
      <trkpt lat="46.54127" lon="0.33988">
        <ele>69.400001525879</ele>
        <time>2019-05-12T10:05:10.000Z</time>
      </trkpt>
      <trkpt lat="46.54132" lon="0.33961">
        <ele>69.599998474121</ele>
        <time>2019-05-12T10:05:15.000Z</time>
      </trkpt>
      <trkpt lat="46.54133" lon="0.33944">
        <ele>69.599998474121</ele>
        <time>2019-05-12T10:05:19.000Z</time>
      </trkpt>
      <trkpt lat="46.54134" lon="0.33916">
        <ele>69.199996948242</ele>
        <time>2019-05-12T10:05:24.000Z</time>
      </trkpt>
      <trkpt lat="46.54133" lon="0.3389">
        <ele>69.599998474121</ele>
        <time>2019-05-12T10:05:29.000Z</time>
      </trkpt>
      <trkpt lat="46.54132" lon="0.33855">
        <ele>69.400001525879</ele>
        <time>2019-05-12T10:05:35.000Z</time>
      </trkpt>
      <trkpt lat="46.54128" lon="0.33826">
        <ele>69.800003051758</ele>
        <time>2019-05-12T10:05:40.000Z</time>
      </trkpt>
      <trkpt lat="46.54127" lon="0.33805">
        <ele>69.599998474121</ele>
        <time>2019-05-12T10:05:44.000Z</time>
      </trkpt>
      <trkpt lat="46.54126" lon="0.33776">
        <ele>69.800003051758</ele>
        <time>2019-05-12T10:05:50.000Z</time>
      </trkpt>
      <trkpt lat="46.54126" lon="0.33752">
        <ele>69.599998474121</ele>
        <time>2019-05-12T10:05:54.000Z</time>
      </trkpt>
      <trkpt lat="46.54123" lon="0.33723">
        <ele>69.599998474121</ele>
        <time>2019-05-12T10:05:59.000Z</time>
      </trkpt>
      <trkpt lat="46.54118" lon="0.33691">
        <ele>69.800003051758</ele>
        <time>2019-05-12T10:06:04.000Z</time>
      </trkpt>
      <trkpt lat="46.54116" lon="0.33685">
        <ele>69.800003051758</ele>
        <time>2019-05-12T10:06:05.000Z</time>
      </trkpt>
      <trkpt lat="46.54113" lon="0.33672">
        <ele>69.800003051758</ele>
        <time>2019-05-12T10:06:07.000Z</time>
      </trkpt>
      <trkpt lat="46.54112" lon="0.33666">
        <ele>69.800003051758</ele>
        <time>2019-05-12T10:06:08.000Z</time>
      </trkpt>
      <trkpt lat="46.5411" lon="0.33661">
        <ele>69.800003051758</ele>
        <time>2019-05-12T10:06:09.000Z</time>
      </trkpt>
      <trkpt lat="46.54108" lon="0.3365">
        <ele>69.599998474121</ele>
        <time>2019-05-12T10:06:11.000Z</time>
      </trkpt>
      <trkpt lat="46.54104" lon="0.33635">
        <ele>69.800003051758</ele>
        <time>2019-05-12T10:06:14.000Z</time>
      </trkpt>
      <trkpt lat="46.541" lon="0.33623">
        <ele>69.800003051758</ele>
        <time>2019-05-12T10:06:16.000Z</time>
      </trkpt>
      <trkpt lat="46.5409" lon="0.33585">
        <ele>69.599998474121</ele>
        <time>2019-05-12T10:06:22.000Z</time>
      </trkpt>
      <trkpt lat="46.54083" lon="0.33557">
        <ele>69.599998474121</ele>
        <time>2019-05-12T10:06:27.000Z</time>
      </trkpt>
      <trkpt lat="46.54077" lon="0.33532">
        <ele>69.599998474121</ele>
        <time>2019-05-12T10:06:32.000Z</time>
      </trkpt>
      <trkpt lat="46.54066" lon="0.33522">
        <ele>69.400001525879</ele>
        <time>2019-05-12T10:06:35.000Z</time>
      </trkpt>
      <trkpt lat="46.54063" lon="0.33517">
        <ele>69.199996948242</ele>
        <time>2019-05-12T10:06:36.000Z</time>
      </trkpt>
      <trkpt lat="46.54053" lon="0.33503">
        <ele>68.400001525879</ele>
        <time>2019-05-12T10:06:39.000Z</time>
      </trkpt>
      <trkpt lat="46.5405" lon="0.33498">
        <ele>68.199996948242</ele>
        <time>2019-05-12T10:06:40.000Z</time>
      </trkpt>
      <trkpt lat="46.54041" lon="0.33483">
        <ele>68.599998474121</ele>
        <time>2019-05-12T10:06:44.000Z</time>
      </trkpt>
      <trkpt lat="46.54039" lon="0.33478">
        <ele>68.599998474121</ele>
        <time>2019-05-12T10:06:46.000Z</time>
      </trkpt>
      <trkpt lat="46.54034" lon="0.33468">
        <ele>68.800003051758</ele>
        <time>2019-05-12T10:06:50.000Z</time>
      </trkpt>
      <trkpt lat="46.54033" lon="0.33466">
        <ele>68.800003051758</ele>
        <time>2019-05-12T10:06:51.000Z</time>
      </trkpt>
      <trkpt lat="46.54026" lon="0.33455">
        <ele>68.599998474121</ele>
        <time>2019-05-12T10:06:57.000Z</time>
      </trkpt>
      <trkpt lat="46.54022" lon="0.33445">
        <ele>68.400001525879</ele>
        <time>2019-05-12T10:07:03.000Z</time>
      </trkpt>
      <trkpt lat="46.54021" lon="0.33438">
        <ele>67.800003051758</ele>
        <time>2019-05-12T10:08:12.000Z</time>
      </trkpt>
      <trkpt lat="46.5402" lon="0.33432">
        <ele>68</ele>
        <time>2019-05-12T10:08:14.000Z</time>
      </trkpt>
      <trkpt lat="46.54011" lon="0.33407">
        <ele>68.199996948242</ele>
        <time>2019-05-12T10:08:20.000Z</time>
      </trkpt>
      <trkpt lat="46.54004" lon="0.33379">
        <ele>68.599998474121</ele>
        <time>2019-05-12T10:08:26.000Z</time>
      </trkpt>
      <trkpt lat="46.54" lon="0.33348">
        <ele>68.400001525879</ele>
        <time>2019-05-12T10:08:32.000Z</time>
      </trkpt>
      <trkpt lat="46.54" lon="0.3334">
        <ele>68.400001525879</ele>
        <time>2019-05-12T10:08:34.000Z</time>
      </trkpt>
      <trkpt lat="46.53998" lon="0.33328">
        <ele>68.400001525879</ele>
        <time>2019-05-12T10:08:37.000Z</time>
      </trkpt>
      <trkpt lat="46.53997" lon="0.33326">
        <ele>68.400001525879</ele>
        <time>2019-05-12T10:08:39.000Z</time>
      </trkpt>
      <trkpt lat="46.53993" lon="0.3332">
        <ele>68.400001525879</ele>
        <time>2019-05-12T10:08:51.000Z</time>
      </trkpt>
      <trkpt lat="46.53991" lon="0.33313">
        <ele>68.599998474121</ele>
        <time>2019-05-12T10:08:54.000Z</time>
      </trkpt>
      <trkpt lat="46.5399" lon="0.33306">
        <ele>69</ele>
        <time>2019-05-12T10:08:56.000Z</time>
      </trkpt>
      <trkpt lat="46.53987" lon="0.33291">
        <ele>69.199996948242</ele>
        <time>2019-05-12T10:08:59.000Z</time>
      </trkpt>
      <trkpt lat="46.53984" lon="0.33278">
        <ele>69.199996948242</ele>
        <time>2019-05-12T10:09:02.000Z</time>
      </trkpt>
      <trkpt lat="46.53982" lon="0.33272">
        <ele>69</ele>
        <time>2019-05-12T10:09:03.000Z</time>
      </trkpt>
      <trkpt lat="46.53975" lon="0.33255">
        <ele>69</ele>
        <time>2019-05-12T10:09:06.000Z</time>
      </trkpt>
      <trkpt lat="46.53973" lon="0.33249">
        <ele>69</ele>
        <time>2019-05-12T10:09:07.000Z</time>
      </trkpt>
      <trkpt lat="46.53964" lon="0.33221">
        <ele>69.199996948242</ele>
        <time>2019-05-12T10:09:12.000Z</time>
      </trkpt>
      <trkpt lat="46.53958" lon="0.33202">
        <ele>69</ele>
        <time>2019-05-12T10:09:16.000Z</time>
      </trkpt>
      <trkpt lat="46.53955" lon="0.33178">
        <ele>69.199996948242</ele>
        <time>2019-05-12T10:09:21.000Z</time>
      </trkpt>
      <trkpt lat="46.53949" lon="0.33158">
        <ele>69.199996948242</ele>
        <time>2019-05-12T10:09:25.000Z</time>
      </trkpt>
      <trkpt lat="46.5395" lon="0.33153">
        <ele>69.400001525879</ele>
        <time>2019-05-12T10:09:26.000Z</time>
      </trkpt>
      <trkpt lat="46.53952" lon="0.33132">
        <ele>69</ele>
        <time>2019-05-12T10:09:30.000Z</time>
      </trkpt>
      <trkpt lat="46.53952" lon="0.33108">
        <ele>69.199996948242</ele>
        <time>2019-05-12T10:09:34.000Z</time>
      </trkpt>
      <trkpt lat="46.53953" lon="0.33101">
        <ele>69.199996948242</ele>
        <time>2019-05-12T10:09:35.000Z</time>
      </trkpt>
      <trkpt lat="46.53959" lon="0.33083">
        <ele>69.400001525879</ele>
        <time>2019-05-12T10:09:38.000Z</time>
      </trkpt>
      <trkpt lat="46.53971" lon="0.33074">
        <ele>69.400001525879</ele>
        <time>2019-05-12T10:09:41.000Z</time>
      </trkpt>
      <trkpt lat="46.53979" lon="0.33077">
        <ele>69.199996948242</ele>
        <time>2019-05-12T10:09:43.000Z</time>
      </trkpt>
      <trkpt lat="46.53983" lon="0.33078">
        <ele>69.199996948242</ele>
        <time>2019-05-12T10:09:44.000Z</time>
      </trkpt>
      <trkpt lat="46.53986" lon="0.33078">
        <ele>69</ele>
        <time>2019-05-12T10:09:45.000Z</time>
      </trkpt>
      <trkpt lat="46.5399" lon="0.33077">
        <ele>68.800003051758</ele>
        <time>2019-05-12T10:09:46.000Z</time>
      </trkpt>
      <trkpt lat="46.53997" lon="0.33074">
        <ele>68.800003051758</ele>
        <time>2019-05-12T10:09:48.000Z</time>
      </trkpt>
      <trkpt lat="46.54018" lon="0.33059">
        <ele>69.199996948242</ele>
        <time>2019-05-12T10:09:53.000Z</time>
      </trkpt>
      <trkpt lat="46.5403" lon="0.3304">
        <ele>69.199996948242</ele>
        <time>2019-05-12T10:09:57.000Z</time>
      </trkpt>
      <trkpt lat="46.54044" lon="0.33015">
        <ele>69.199996948242</ele>
        <time>2019-05-12T10:10:02.000Z</time>
      </trkpt>
      <trkpt lat="46.54072" lon="0.32979">
        <ele>69.199996948242</ele>
        <time>2019-05-12T10:10:09.000Z</time>
      </trkpt>
      <trkpt lat="46.54084" lon="0.32959">
        <ele>69</ele>
        <time>2019-05-12T10:10:13.000Z</time>
      </trkpt>
      <trkpt lat="46.54091" lon="0.3295">
        <ele>68.800003051758</ele>
        <time>2019-05-12T10:10:15.000Z</time>
      </trkpt>
      <trkpt lat="46.54111" lon="0.3293">
        <ele>69</ele>
        <time>2019-05-12T10:10:20.000Z</time>
      </trkpt>
      <trkpt lat="46.54115" lon="0.32925">
        <ele>69</ele>
        <time>2019-05-12T10:10:21.000Z</time>
      </trkpt>
      <trkpt lat="46.54127" lon="0.32905">
        <ele>68.800003051758</ele>
        <time>2019-05-12T10:10:25.000Z</time>
      </trkpt>
      <trkpt lat="46.54136" lon="0.3289">
        <ele>69</ele>
        <time>2019-05-12T10:10:28.000Z</time>
      </trkpt>
      <trkpt lat="46.54143" lon="0.32883">
        <ele>69</ele>
        <time>2019-05-12T10:10:30.000Z</time>
      </trkpt>
      <trkpt lat="46.5415" lon="0.32877">
        <ele>68.800003051758</ele>
        <time>2019-05-12T10:10:32.000Z</time>
      </trkpt>
      <trkpt lat="46.54157" lon="0.32874">
        <ele>68.800003051758</ele>
        <time>2019-05-12T10:10:34.000Z</time>
      </trkpt>
      <trkpt lat="46.54161" lon="0.32875">
        <ele>68.800003051758</ele>
        <time>2019-05-12T10:10:35.000Z</time>
      </trkpt>
      <trkpt lat="46.54172" lon="0.32877">
        <ele>69</ele>
        <time>2019-05-12T10:10:38.000Z</time>
      </trkpt>
      <trkpt lat="46.54179" lon="0.32875">
        <ele>69</ele>
        <time>2019-05-12T10:10:40.000Z</time>
      </trkpt>
      <trkpt lat="46.54196" lon="0.3287">
        <ele>69</ele>
        <time>2019-05-12T10:10:45.000Z</time>
      </trkpt>
      <trkpt lat="46.54214" lon="0.32872">
        <ele>69</ele>
        <time>2019-05-12T10:10:50.000Z</time>
      </trkpt>
      <trkpt lat="46.54233" lon="0.32879">
        <ele>69.199996948242</ele>
        <time>2019-05-12T10:10:55.000Z</time>
      </trkpt>
      <trkpt lat="46.54254" lon="0.32881">
        <ele>69</ele>
        <time>2019-05-12T10:11:00.000Z</time>
      </trkpt>
      <trkpt lat="46.54277" lon="0.32878">
        <ele>69</ele>
        <time>2019-05-12T10:11:06.000Z</time>
      </trkpt>
      <trkpt lat="46.54281" lon="0.32877">
        <ele>68.800003051758</ele>
        <time>2019-05-12T10:11:07.000Z</time>
      </trkpt>
      <trkpt lat="46.54302" lon="0.32867">
        <ele>68.599998474121</ele>
        <time>2019-05-12T10:11:12.000Z</time>
      </trkpt>
      <trkpt lat="46.54318" lon="0.32865">
        <ele>68.800003051758</ele>
        <time>2019-05-12T10:11:16.000Z</time>
      </trkpt>
      <trkpt lat="46.54333" lon="0.32879">
        <ele>69</ele>
        <time>2019-05-12T10:11:20.000Z</time>
      </trkpt>
      <trkpt lat="46.54348" lon="0.32892">
        <ele>68.800003051758</ele>
        <time>2019-05-12T10:11:24.000Z</time>
      </trkpt>
      <trkpt lat="46.54358" lon="0.32902">
        <ele>68.800003051758</ele>
        <time>2019-05-12T10:11:27.000Z</time>
      </trkpt>
      <trkpt lat="46.54368" lon="0.32924">
        <ele>69</ele>
        <time>2019-05-12T10:11:31.000Z</time>
      </trkpt>
      <trkpt lat="46.54383" lon="0.32941">
        <ele>68.800003051758</ele>
        <time>2019-05-12T10:11:35.000Z</time>
      </trkpt>
      <trkpt lat="46.54398" lon="0.32962">
        <ele>68.599998474121</ele>
        <time>2019-05-12T10:11:40.000Z</time>
      </trkpt>
      <trkpt lat="46.54407" lon="0.32967">
        <ele>68.800003051758</ele>
        <time>2019-05-12T10:11:42.000Z</time>
      </trkpt>
      <trkpt lat="46.54414" lon="0.32972">
        <ele>69</ele>
        <time>2019-05-12T10:11:44.000Z</time>
      </trkpt>
      <trkpt lat="46.54419" lon="0.32979">
        <ele>69</ele>
        <time>2019-05-12T10:11:46.000Z</time>
      </trkpt>
      <trkpt lat="46.54423" lon="0.32987">
        <ele>69</ele>
        <time>2019-05-12T10:11:48.000Z</time>
      </trkpt>
      <trkpt lat="46.54437" lon="0.33002">
        <ele>68.599998474121</ele>
        <time>2019-05-12T10:11:52.000Z</time>
      </trkpt>
      <trkpt lat="46.54448" lon="0.3302">
        <ele>68.599998474121</ele>
        <time>2019-05-12T10:11:56.000Z</time>
      </trkpt>
      <trkpt lat="46.54466" lon="0.33046">
        <ele>68.800003051758</ele>
        <time>2019-05-12T10:12:02.000Z</time>
      </trkpt>
      <trkpt lat="46.5447" lon="0.3305">
        <ele>68.800003051758</ele>
        <time>2019-05-12T10:12:03.000Z</time>
      </trkpt>
      <trkpt lat="46.54484" lon="0.33068">
        <ele>69</ele>
        <time>2019-05-12T10:12:07.000Z</time>
      </trkpt>
      <trkpt lat="46.54499" lon="0.33086">
        <ele>68.800003051758</ele>
        <time>2019-05-12T10:12:12.000Z</time>
      </trkpt>
      <trkpt lat="46.545" lon="0.3309">
        <ele>68.599998474121</ele>
        <time>2019-05-12T10:12:13.000Z</time>
      </trkpt>
      <trkpt lat="46.54504" lon="0.33101">
        <ele>68.400001525879</ele>
        <time>2019-05-12T10:12:15.000Z</time>
      </trkpt>
      <trkpt lat="46.5451" lon="0.33111">
        <ele>68.400001525879</ele>
        <time>2019-05-12T10:12:17.000Z</time>
      </trkpt>
      <trkpt lat="46.54517" lon="0.33122">
        <ele>68.400001525879</ele>
        <time>2019-05-12T10:12:19.000Z</time>
      </trkpt>
      <trkpt lat="46.54522" lon="0.33133">
        <ele>68.599998474121</ele>
        <time>2019-05-12T10:12:21.000Z</time>
      </trkpt>
      <trkpt lat="46.54531" lon="0.33148">
        <ele>68.599998474121</ele>
        <time>2019-05-12T10:12:24.000Z</time>
      </trkpt>
      <trkpt lat="46.54534" lon="0.33153">
        <ele>68.400001525879</ele>
        <time>2019-05-12T10:12:25.000Z</time>
      </trkpt>
      <trkpt lat="46.54549" lon="0.33185">
        <ele>68.599998474121</ele>
        <time>2019-05-12T10:12:31.000Z</time>
      </trkpt>
      <trkpt lat="46.54554" lon="0.33197">
        <ele>68.599998474121</ele>
        <time>2019-05-12T10:12:33.000Z</time>
      </trkpt>
      <trkpt lat="46.54561" lon="0.33207">
        <ele>68.199996948242</ele>
        <time>2019-05-12T10:12:35.000Z</time>
      </trkpt>
      <trkpt lat="46.54564" lon="0.3321">
        <ele>68</ele>
        <time>2019-05-12T10:12:36.000Z</time>
      </trkpt>
      <trkpt lat="46.54573" lon="0.33219">
        <ele>68.199996948242</ele>
        <time>2019-05-12T10:12:39.000Z</time>
      </trkpt>
      <trkpt lat="46.54578" lon="0.33229">
        <ele>68.199996948242</ele>
        <time>2019-05-12T10:12:41.000Z</time>
      </trkpt>
      <trkpt lat="46.54583" lon="0.33241">
        <ele>68.599998474121</ele>
        <time>2019-05-12T10:12:43.000Z</time>
      </trkpt>
      <trkpt lat="46.54597" lon="0.33261">
        <ele>68.599998474121</ele>
        <time>2019-05-12T10:12:47.000Z</time>
      </trkpt>
      <trkpt lat="46.546" lon="0.33266">
        <ele>68.599998474121</ele>
        <time>2019-05-12T10:12:48.000Z</time>
      </trkpt>
      <trkpt lat="46.54605" lon="0.33277">
        <ele>68.599998474121</ele>
        <time>2019-05-12T10:12:50.000Z</time>
      </trkpt>
      <trkpt lat="46.5461" lon="0.33284">
        <ele>68.800003051758</ele>
        <time>2019-05-12T10:12:52.000Z</time>
      </trkpt>
      <trkpt lat="46.54621" lon="0.33302">
        <ele>68.400001525879</ele>
        <time>2019-05-12T10:12:56.000Z</time>
      </trkpt>
      <trkpt lat="46.54639" lon="0.33321">
        <ele>68.400001525879</ele>
        <time>2019-05-12T10:13:01.000Z</time>
      </trkpt>
      <trkpt lat="46.54666" lon="0.33339">
        <ele>68.599998474121</ele>
        <time>2019-05-12T10:13:07.000Z</time>
      </trkpt>
      <trkpt lat="46.54688" lon="0.33354">
        <ele>68.599998474121</ele>
        <time>2019-05-12T10:13:13.000Z</time>
      </trkpt>
      <trkpt lat="46.54712" lon="0.33372">
        <ele>68.400001525879</ele>
        <time>2019-05-12T10:13:19.000Z</time>
      </trkpt>
      <trkpt lat="46.54737" lon="0.33391">
        <ele>68.199996948242</ele>
        <time>2019-05-12T10:13:25.000Z</time>
      </trkpt>
      <trkpt lat="46.54752" lon="0.33406">
        <ele>68.400001525879</ele>
        <time>2019-05-12T10:13:29.000Z</time>
      </trkpt>
      <trkpt lat="46.54765" lon="0.33414">
        <ele>68.400001525879</ele>
        <time>2019-05-12T10:13:32.000Z</time>
      </trkpt>
      <trkpt lat="46.54779" lon="0.3342">
        <ele>68.400001525879</ele>
        <time>2019-05-12T10:13:35.000Z</time>
      </trkpt>
      <trkpt lat="46.54784" lon="0.33419">
        <ele>68.599998474121</ele>
        <time>2019-05-12T10:13:36.000Z</time>
      </trkpt>
      <trkpt lat="46.54808" lon="0.33412">
        <ele>68.599998474121</ele>
        <time>2019-05-12T10:13:42.000Z</time>
      </trkpt>
      <trkpt lat="46.54818" lon="0.33411">
        <ele>68.599998474121</ele>
        <time>2019-05-12T10:13:44.000Z</time>
      </trkpt>
      <trkpt lat="46.54825" lon="0.33417">
        <ele>68.599998474121</ele>
        <time>2019-05-12T10:13:46.000Z</time>
      </trkpt>
      <trkpt lat="46.54833" lon="0.33424">
        <ele>68.599998474121</ele>
        <time>2019-05-12T10:13:48.000Z</time>
      </trkpt>
      <trkpt lat="46.54849" lon="0.33447">
        <ele>68.800003051758</ele>
        <time>2019-05-12T10:13:53.000Z</time>
      </trkpt>
      <trkpt lat="46.54858" lon="0.33463">
        <ele>68.800003051758</ele>
        <time>2019-05-12T10:13:56.000Z</time>
      </trkpt>
      <trkpt lat="46.54874" lon="0.33487">
        <ele>69.199996948242</ele>
        <time>2019-05-12T10:14:01.000Z</time>
      </trkpt>
      <trkpt lat="46.54898" lon="0.3352">
        <ele>68.599998474121</ele>
        <time>2019-05-12T10:14:08.000Z</time>
      </trkpt>
      <trkpt lat="46.54911" lon="0.33537">
        <ele>67.800003051758</ele>
        <time>2019-05-12T10:14:12.000Z</time>
      </trkpt>
      <trkpt lat="46.5492" lon="0.3355">
        <ele>68</ele>
        <time>2019-05-12T10:14:15.000Z</time>
      </trkpt>
      <trkpt lat="46.54923" lon="0.33554">
        <ele>68.199996948242</ele>
        <time>2019-05-12T10:14:16.000Z</time>
      </trkpt>
      <trkpt lat="46.54929" lon="0.33563">
        <ele>68.199996948242</ele>
        <time>2019-05-12T10:14:18.000Z</time>
      </trkpt>
      <trkpt lat="46.54936" lon="0.33571">
        <ele>68.199996948242</ele>
        <time>2019-05-12T10:14:20.000Z</time>
      </trkpt>
      <trkpt lat="46.54959" lon="0.33596">
        <ele>67.599998474121</ele>
        <time>2019-05-12T10:14:27.000Z</time>
      </trkpt>
      <trkpt lat="46.54965" lon="0.33601">
        <ele>67.400001525879</ele>
        <time>2019-05-12T10:14:29.000Z</time>
      </trkpt>
      <trkpt lat="46.54967" lon="0.33609">
        <ele>67.199996948242</ele>
        <time>2019-05-12T10:14:31.000Z</time>
      </trkpt>
      <trkpt lat="46.5497" lon="0.33618">
        <ele>67.800003051758</ele>
        <time>2019-05-12T10:14:34.000Z</time>
      </trkpt>
      <trkpt lat="46.54973" lon="0.33621">
        <ele>68.199996948242</ele>
        <time>2019-05-12T10:14:35.000Z</time>
      </trkpt>
      <trkpt lat="46.54981" lon="0.33625">
        <ele>68.599998474121</ele>
        <time>2019-05-12T10:14:37.000Z</time>
      </trkpt>
      <trkpt lat="46.54997" lon="0.33633">
        <ele>69</ele>
        <time>2019-05-12T10:14:41.000Z</time>
      </trkpt>
      <trkpt lat="46.55014" lon="0.33645">
        <ele>69.400001525879</ele>
        <time>2019-05-12T10:14:46.000Z</time>
      </trkpt>
      <trkpt lat="46.55013" lon="0.33664">
        <ele>69</ele>
        <time>2019-05-12T10:14:50.000Z</time>
      </trkpt>
      <trkpt lat="46.5501" lon="0.33685">
        <ele>68.599998474121</ele>
        <time>2019-05-12T10:14:55.000Z</time>
      </trkpt>
      <trkpt lat="46.55" lon="0.3369">
        <ele>68.800003051758</ele>
        <time>2019-05-12T10:14:59.000Z</time>
      </trkpt>
      <trkpt lat="46.54997" lon="0.33694">
        <ele>69</ele>
        <time>2019-05-12T10:15:02.000Z</time>
      </trkpt>
      <trkpt lat="46.54996" lon="0.33697">
        <ele>69</ele>
        <time>2019-05-12T10:15:03.000Z</time>
      </trkpt>
      <trkpt lat="46.54993" lon="0.33721">
        <ele>69.199996948242</ele>
        <time>2019-05-12T10:15:08.000Z</time>
      </trkpt>
      <trkpt lat="46.5499" lon="0.33735">
        <ele>69.199996948242</ele>
        <time>2019-05-12T10:15:11.000Z</time>
      </trkpt>
      <trkpt lat="46.54988" lon="0.33749">
        <ele>68.599998474121</ele>
        <time>2019-05-12T10:15:14.000Z</time>
      </trkpt>
      <trkpt lat="46.54985" lon="0.33764">
        <ele>68.599998474121</ele>
        <time>2019-05-12T10:15:18.000Z</time>
      </trkpt>
      <trkpt lat="46.54984" lon="0.33776">
        <ele>68.800003051758</ele>
        <time>2019-05-12T10:15:21.000Z</time>
      </trkpt>
      <trkpt lat="46.54985" lon="0.33785">
        <ele>68.800003051758</ele>
        <time>2019-05-12T10:15:24.000Z</time>
      </trkpt>
      <trkpt lat="46.54986" lon="0.33786">
        <ele>68.599998474121</ele>
        <time>2019-05-12T10:15:28.000Z</time>
      </trkpt>
      <trkpt lat="46.54986" lon="0.33786">
        <ele>68.599998474121</ele>
        <time>2019-05-12T10:15:29.000Z</time>
      </trkpt>
      <trkpt lat="46.54982" lon="0.33783">
        <ele>68.599998474121</ele>
        <time>2019-05-12T10:20:23.000Z</time>
      </trkpt>
      <trkpt lat="46.54981" lon="0.33781">
        <ele>68.599998474121</ele>
        <time>2019-05-12T10:20:24.000Z</time>
      </trkpt>
      <trkpt lat="46.5498" lon="0.33778">
        <ele>68.599998474121</ele>
        <time>2019-05-12T10:20:25.000Z</time>
      </trkpt>
      <trkpt lat="46.54971" lon="0.3377">
        <ele>68.599998474121</ele>
        <time>2019-05-12T10:20:29.000Z</time>
      </trkpt>
      <trkpt lat="46.54966" lon="0.33765">
        <ele>68.599998474121</ele>
        <time>2019-05-12T10:20:31.000Z</time>
      </trkpt>
      <trkpt lat="46.54948" lon="0.33753">
        <ele>68.800003051758</ele>
        <time>2019-05-12T10:20:38.000Z</time>
      </trkpt>
      <trkpt lat="46.5494" lon="0.33748">
        <ele>69</ele>
        <time>2019-05-12T10:20:41.000Z</time>
      </trkpt>
      <trkpt lat="46.5493" lon="0.33738">
        <ele>69</ele>
        <time>2019-05-12T10:20:45.000Z</time>
      </trkpt>
      <trkpt lat="46.54926" lon="0.33733">
        <ele>69</ele>
        <time>2019-05-12T10:20:47.000Z</time>
      </trkpt>
      <trkpt lat="46.54921" lon="0.33731">
        <ele>69</ele>
        <time>2019-05-12T10:20:49.000Z</time>
      </trkpt>
      <trkpt lat="46.54912" lon="0.33734">
        <ele>69</ele>
        <time>2019-05-12T10:20:52.000Z</time>
      </trkpt>
      <trkpt lat="46.54905" lon="0.33736">
        <ele>69</ele>
        <time>2019-05-12T10:20:54.000Z</time>
      </trkpt>
      <trkpt lat="46.5489" lon="0.33737">
        <ele>68.800003051758</ele>
        <time>2019-05-12T10:21:01.000Z</time>
      </trkpt>
      <trkpt lat="46.5489" lon="0.33737">
        <ele>68.800003051758</ele>
        <time>2019-05-12T10:21:02.000Z</time>
      </trkpt>
      <trkpt lat="46.54888" lon="0.3374">
        <ele>68.599998474121</ele>
        <time>2019-05-12T10:21:07.000Z</time>
      </trkpt>
      <trkpt lat="46.54887" lon="0.33748">
        <ele>68.599998474121</ele>
        <time>2019-05-12T10:21:09.000Z</time>
      </trkpt>
      <trkpt lat="46.54883" lon="0.33775">
        <ele>68.599998474121</ele>
        <time>2019-05-12T10:21:14.000Z</time>
      </trkpt>
      <trkpt lat="46.54882" lon="0.3378">
        <ele>68.599998474121</ele>
        <time>2019-05-12T10:21:15.000Z</time>
      </trkpt>
      <trkpt lat="46.54882" lon="0.33792">
        <ele>68.800003051758</ele>
        <time>2019-05-12T10:21:18.000Z</time>
      </trkpt>
      <trkpt lat="46.54883" lon="0.33795">
        <ele>68.800003051758</ele>
        <time>2019-05-12T10:21:19.000Z</time>
      </trkpt>
      <trkpt lat="46.54888" lon="0.33802">
        <ele>69.199996948242</ele>
        <time>2019-05-12T10:21:21.000Z</time>
      </trkpt>
      <trkpt lat="46.54895" lon="0.33811">
        <ele>69.599998474121</ele>
        <time>2019-05-12T10:21:24.000Z</time>
      </trkpt>
      <trkpt lat="46.54908" lon="0.33824">
        <ele>69.599998474121</ele>
        <time>2019-05-12T10:21:28.000Z</time>
      </trkpt>
      <trkpt lat="46.54917" lon="0.33835">
        <ele>69.400001525879</ele>
        <time>2019-05-12T10:21:31.000Z</time>
      </trkpt>
      <trkpt lat="46.54926" lon="0.33851">
        <ele>69.599998474121</ele>
        <time>2019-05-12T10:21:36.000Z</time>
      </trkpt>
      <trkpt lat="46.54925" lon="0.33857">
        <ele>69.599998474121</ele>
        <time>2019-05-12T10:21:38.000Z</time>
      </trkpt>
      <trkpt lat="46.54923" lon="0.33857">
        <ele>69.599998474121</ele>
        <time>2019-05-12T10:21:39.000Z</time>
      </trkpt>
      <trkpt lat="46.54918" lon="0.33853">
        <ele>70</ele>
        <time>2019-05-12T10:21:43.000Z</time>
      </trkpt>
      <trkpt lat="46.54916" lon="0.33852">
        <ele>70.199996948242</ele>
        <time>2019-05-12T10:21:44.000Z</time>
      </trkpt>
      <trkpt lat="46.5491" lon="0.33848">
        <ele>71</ele>
        <time>2019-05-12T10:21:48.000Z</time>
      </trkpt>
      <trkpt lat="46.54908" lon="0.33846">
        <ele>71.400001525879</ele>
        <time>2019-05-12T10:21:49.000Z</time>
      </trkpt>
      <trkpt lat="46.54906" lon="0.33845">
        <ele>72</ele>
        <time>2019-05-12T10:21:50.000Z</time>
      </trkpt>
      <trkpt lat="46.54901" lon="0.33841">
        <ele>72.599998474121</ele>
        <time>2019-05-12T10:21:53.000Z</time>
      </trkpt>
      <trkpt lat="46.54894" lon="0.33837">
        <ele>73.800003051758</ele>
        <time>2019-05-12T10:21:57.000Z</time>
      </trkpt>
      <trkpt lat="46.5489" lon="0.33833">
        <ele>74.800003051758</ele>
        <time>2019-05-12T10:22:00.000Z</time>
      </trkpt>
      <trkpt lat="46.54886" lon="0.33829">
        <ele>75.400001525879</ele>
        <time>2019-05-12T10:22:03.000Z</time>
      </trkpt>
      <trkpt lat="46.54881" lon="0.33826">
        <ele>76</ele>
        <time>2019-05-12T10:22:06.000Z</time>
      </trkpt>
      <trkpt lat="46.54874" lon="0.33823">
        <ele>76.800003051758</ele>
        <time>2019-05-12T10:22:09.000Z</time>
      </trkpt>
      <trkpt lat="46.54872" lon="0.33822">
        <ele>77.199996948242</ele>
        <time>2019-05-12T10:22:10.000Z</time>
      </trkpt>
      <trkpt lat="46.54863" lon="0.33817">
        <ele>78.199996948242</ele>
        <time>2019-05-12T10:22:15.000Z</time>
      </trkpt>
      <trkpt lat="46.54861" lon="0.33815">
        <ele>78.599998474121</ele>
        <time>2019-05-12T10:22:16.000Z</time>
      </trkpt>
      <trkpt lat="46.54853" lon="0.3381">
        <ele>79.800003051758</ele>
        <time>2019-05-12T10:22:20.000Z</time>
      </trkpt>
      <trkpt lat="46.54848" lon="0.33807">
        <ele>80.199996948242</ele>
        <time>2019-05-12T10:22:23.000Z</time>
      </trkpt>
      <trkpt lat="46.54844" lon="0.33805">
        <ele>80.800003051758</ele>
        <time>2019-05-12T10:22:25.000Z</time>
      </trkpt>
      <trkpt lat="46.54837" lon="0.33801">
        <ele>81.400001525879</ele>
        <time>2019-05-12T10:22:29.000Z</time>
      </trkpt>
      <trkpt lat="46.54834" lon="0.33799">
        <ele>81.800003051758</ele>
        <time>2019-05-12T10:22:31.000Z</time>
      </trkpt>
      <trkpt lat="46.54826" lon="0.33794">
        <ele>83</ele>
        <time>2019-05-12T10:22:35.000Z</time>
      </trkpt>
      <trkpt lat="46.54825" lon="0.33793">
        <ele>83.400001525879</ele>
        <time>2019-05-12T10:22:36.000Z</time>
      </trkpt>
      <trkpt lat="46.54817" lon="0.33788">
        <ele>84.199996948242</ele>
        <time>2019-05-12T10:22:40.000Z</time>
      </trkpt>
      <trkpt lat="46.54812" lon="0.33784">
        <ele>84.800003051758</ele>
        <time>2019-05-12T10:22:43.000Z</time>
      </trkpt>
      <trkpt lat="46.5481" lon="0.33782">
        <ele>85.199996948242</ele>
        <time>2019-05-12T10:22:44.000Z</time>
      </trkpt>
      <trkpt lat="46.54805" lon="0.33777">
        <ele>86.400001525879</ele>
        <time>2019-05-12T10:22:48.000Z</time>
      </trkpt>
      <trkpt lat="46.54801" lon="0.33776">
        <ele>87</ele>
        <time>2019-05-12T10:22:50.000Z</time>
      </trkpt>
      <trkpt lat="46.54796" lon="0.33772">
        <ele>87.800003051758</ele>
        <time>2019-05-12T10:22:53.000Z</time>
      </trkpt>
      <trkpt lat="46.5479" lon="0.33766">
        <ele>88.800003051758</ele>
        <time>2019-05-12T10:22:57.000Z</time>
      </trkpt>
      <trkpt lat="46.54789" lon="0.33765">
        <ele>89</ele>
        <time>2019-05-12T10:22:58.000Z</time>
      </trkpt>
      <trkpt lat="46.5478" lon="0.33758">
        <ele>90.199996948242</ele>
        <time>2019-05-12T10:23:04.000Z</time>
      </trkpt>
      <trkpt lat="46.54769" lon="0.3375">
        <ele>91.400001525879</ele>
        <time>2019-05-12T10:23:09.000Z</time>
      </trkpt>
      <trkpt lat="46.54763" lon="0.33746">
        <ele>92</ele>
        <time>2019-05-12T10:23:12.000Z</time>
      </trkpt>
      <trkpt lat="46.54756" lon="0.33743">
        <ele>92.599998474121</ele>
        <time>2019-05-12T10:23:15.000Z</time>
      </trkpt>
      <trkpt lat="46.54744" lon="0.33738">
        <ele>93.599998474121</ele>
        <time>2019-05-12T10:23:20.000Z</time>
      </trkpt>
      <trkpt lat="46.54741" lon="0.33737">
        <ele>93.599998474121</ele>
        <time>2019-05-12T10:23:21.000Z</time>
      </trkpt>
      <trkpt lat="46.54722" lon="0.3373">
        <ele>95</ele>
        <time>2019-05-12T10:23:29.000Z</time>
      </trkpt>
      <trkpt lat="46.5472" lon="0.33729">
        <ele>95</ele>
        <time>2019-05-12T10:23:30.000Z</time>
      </trkpt>
      <trkpt lat="46.54699" lon="0.33725">
        <ele>96</ele>
        <time>2019-05-12T10:23:38.000Z</time>
      </trkpt>
      <trkpt lat="46.54697" lon="0.33724">
        <ele>96.199996948242</ele>
        <time>2019-05-12T10:23:39.000Z</time>
      </trkpt>
      <trkpt lat="46.54678" lon="0.33716">
        <ele>97.199996948242</ele>
        <time>2019-05-12T10:23:46.000Z</time>
      </trkpt>
      <trkpt lat="46.54674" lon="0.33713">
        <ele>97.400001525879</ele>
        <time>2019-05-12T10:23:48.000Z</time>
      </trkpt>
      <trkpt lat="46.54652" lon="0.337">
        <ele>97.599998474121</ele>
        <time>2019-05-12T10:23:56.000Z</time>
      </trkpt>
      <trkpt lat="46.54625" lon="0.33685">
        <ele>97.400001525879</ele>
        <time>2019-05-12T10:24:04.000Z</time>
      </trkpt>
      <trkpt lat="46.54608" lon="0.33676">
        <ele>97</ele>
        <time>2019-05-12T10:24:09.000Z</time>
      </trkpt>
      <trkpt lat="46.54601" lon="0.33673">
        <ele>97</ele>
        <time>2019-05-12T10:24:11.000Z</time>
      </trkpt>
      <trkpt lat="46.54591" lon="0.33666">
        <ele>97</ele>
        <time>2019-05-12T10:24:14.000Z</time>
      </trkpt>
      <trkpt lat="46.5459" lon="0.33661">
        <ele>96.800003051758</ele>
        <time>2019-05-12T10:24:15.000Z</time>
      </trkpt>
      <trkpt lat="46.5459" lon="0.33656">
        <ele>96.800003051758</ele>
        <time>2019-05-12T10:24:16.000Z</time>
      </trkpt>
      <trkpt lat="46.54594" lon="0.33631">
        <ele>96.199996948242</ele>
        <time>2019-05-12T10:24:19.000Z</time>
      </trkpt>
      <trkpt lat="46.54595" lon="0.33623">
        <ele>95.400001525879</ele>
        <time>2019-05-12T10:24:20.000Z</time>
      </trkpt>
      <trkpt lat="46.54597" lon="0.33616">
        <ele>94.800003051758</ele>
        <time>2019-05-12T10:24:21.000Z</time>
      </trkpt>
      <trkpt lat="46.54605" lon="0.33609">
        <ele>92.800003051758</ele>
        <time>2019-05-12T10:24:23.000Z</time>
      </trkpt>
      <trkpt lat="46.54609" lon="0.33612">
        <ele>91.800003051758</ele>
        <time>2019-05-12T10:24:24.000Z</time>
      </trkpt>
      <trkpt lat="46.54617" lon="0.3362">
        <ele>90.800003051758</ele>
        <time>2019-05-12T10:24:26.000Z</time>
      </trkpt>
      <trkpt lat="46.54621" lon="0.33623">
        <ele>90.400001525879</ele>
        <time>2019-05-12T10:24:27.000Z</time>
      </trkpt>
      <trkpt lat="46.54625" lon="0.33626">
        <ele>90</ele>
        <time>2019-05-12T10:24:28.000Z</time>
      </trkpt>
      <trkpt lat="46.54639" lon="0.33638">
        <ele>89.400001525879</ele>
        <time>2019-05-12T10:24:31.000Z</time>
      </trkpt>
      <trkpt lat="46.54643" lon="0.33641">
        <ele>89.199996948242</ele>
        <time>2019-05-12T10:24:32.000Z</time>
      </trkpt>
      <trkpt lat="46.54655" lon="0.33648">
        <ele>89</ele>
        <time>2019-05-12T10:24:35.000Z</time>
      </trkpt>
      <trkpt lat="46.54661" lon="0.33649">
        <ele>88.800003051758</ele>
        <time>2019-05-12T10:24:37.000Z</time>
      </trkpt>
      <trkpt lat="46.54675" lon="0.33652">
        <ele>88.599998474121</ele>
        <time>2019-05-12T10:24:41.000Z</time>
      </trkpt>
      <trkpt lat="46.54683" lon="0.33651">
        <ele>88.599998474121</ele>
        <time>2019-05-12T10:24:43.000Z</time>
      </trkpt>
      <trkpt lat="46.54687" lon="0.3365">
        <ele>88.400001525879</ele>
        <time>2019-05-12T10:24:44.000Z</time>
      </trkpt>
      <trkpt lat="46.54701" lon="0.33641">
        <ele>88.199996948242</ele>
        <time>2019-05-12T10:24:48.000Z</time>
      </trkpt>
      <trkpt lat="46.54714" lon="0.33631">
        <ele>88.400001525879</ele>
        <time>2019-05-12T10:24:52.000Z</time>
      </trkpt>
      <trkpt lat="46.54732" lon="0.33607">
        <ele>88.400001525879</ele>
        <time>2019-05-12T10:24:59.000Z</time>
      </trkpt>
      <trkpt lat="46.54746" lon="0.33578">
        <ele>88.599998474121</ele>
        <time>2019-05-12T10:25:06.000Z</time>
      </trkpt>
      <trkpt lat="46.54749" lon="0.33574">
        <ele>88.599998474121</ele>
        <time>2019-05-12T10:25:07.000Z</time>
      </trkpt>
      <trkpt lat="46.54766" lon="0.33543">
        <ele>88.800003051758</ele>
        <time>2019-05-12T10:25:14.000Z</time>
      </trkpt>
      <trkpt lat="46.54789" lon="0.33496">
        <ele>88</ele>
        <time>2019-05-12T10:25:24.000Z</time>
      </trkpt>
      <trkpt lat="46.5481" lon="0.33456">
        <ele>88.400001525879</ele>
        <time>2019-05-12T10:25:33.000Z</time>
      </trkpt>
      <trkpt lat="46.54833" lon="0.33414">
        <ele>88.599998474121</ele>
        <time>2019-05-12T10:25:42.000Z</time>
      </trkpt>
      <trkpt lat="46.54856" lon="0.33385">
        <ele>88.800003051758</ele>
        <time>2019-05-12T10:25:50.000Z</time>
      </trkpt>
      <trkpt lat="46.54878" lon="0.33364">
        <ele>88.599998474121</ele>
        <time>2019-05-12T10:25:57.000Z</time>
      </trkpt>
      <trkpt lat="46.54882" lon="0.3336">
        <ele>88.599998474121</ele>
        <time>2019-05-12T10:25:58.000Z</time>
      </trkpt>
      <trkpt lat="46.54896" lon="0.3335">
        <ele>88.599998474121</ele>
        <time>2019-05-12T10:26:02.000Z</time>
      </trkpt>
      <trkpt lat="46.54911" lon="0.33344">
        <ele>88.800003051758</ele>
        <time>2019-05-12T10:26:06.000Z</time>
      </trkpt>
      <trkpt lat="46.54915" lon="0.33343">
        <ele>88.800003051758</ele>
        <time>2019-05-12T10:26:07.000Z</time>
      </trkpt>
      <trkpt lat="46.54928" lon="0.33342">
        <ele>88.599998474121</ele>
        <time>2019-05-12T10:26:11.000Z</time>
      </trkpt>
      <trkpt lat="46.54934" lon="0.33343">
        <ele>88.599998474121</ele>
        <time>2019-05-12T10:26:15.000Z</time>
      </trkpt>
      <trkpt lat="46.54945" lon="0.33349">
        <ele>88.800003051758</ele>
        <time>2019-05-12T10:26:20.000Z</time>
      </trkpt>
      <trkpt lat="46.54947" lon="0.3335">
        <ele>88.800003051758</ele>
        <time>2019-05-12T10:26:21.000Z</time>
      </trkpt>
      <trkpt lat="46.54951" lon="0.33348">
        <ele>89</ele>
        <time>2019-05-12T10:26:24.000Z</time>
      </trkpt>
      <trkpt lat="46.54952" lon="0.33347">
        <ele>89.199996948242</ele>
        <time>2019-05-12T10:26:26.000Z</time>
      </trkpt>
      <trkpt lat="46.54953" lon="0.33347">
        <ele>89.199996948242</ele>
        <time>2019-05-12T10:26:27.000Z</time>
      </trkpt>
      <trkpt lat="46.5495" lon="0.33343">
        <ele>89</ele>
        <time>2019-05-12T10:26:30.000Z</time>
      </trkpt>
      <trkpt lat="46.54948" lon="0.3334">
        <ele>89.199996948242</ele>
        <time>2019-05-12T10:26:31.000Z</time>
      </trkpt>
      <trkpt lat="46.54945" lon="0.33334">
        <ele>89.800003051758</ele>
        <time>2019-05-12T10:26:34.000Z</time>
      </trkpt>
      <trkpt lat="46.54943" lon="0.33333">
        <ele>90.400001525879</ele>
        <time>2019-05-12T10:26:35.000Z</time>
      </trkpt>
      <trkpt lat="46.54942" lon="0.33331">
        <ele>91.199996948242</ele>
        <time>2019-05-12T10:26:37.000Z</time>
      </trkpt>
      <trkpt lat="46.54941" lon="0.33329">
        <ele>91.400001525879</ele>
        <time>2019-05-12T10:26:38.000Z</time>
      </trkpt>
      <trkpt lat="46.5494" lon="0.33327">
        <ele>92.400001525879</ele>
        <time>2019-05-12T10:26:40.000Z</time>
      </trkpt>
      <trkpt lat="46.54939" lon="0.33325">
        <ele>92.599998474121</ele>
        <time>2019-05-12T10:26:41.000Z</time>
      </trkpt>
      <trkpt lat="46.54938" lon="0.33322">
        <ele>93.199996948242</ele>
        <time>2019-05-12T10:26:45.000Z</time>
      </trkpt>
      <trkpt lat="46.54937" lon="0.33321">
        <ele>93.400001525879</ele>
        <time>2019-05-12T10:26:46.000Z</time>
      </trkpt>
      <trkpt lat="46.54936" lon="0.3332">
        <ele>93.800003051758</ele>
        <time>2019-05-12T10:26:47.000Z</time>
      </trkpt>
      <trkpt lat="46.54934" lon="0.33317">
        <ele>94.599998474121</ele>
        <time>2019-05-12T10:26:50.000Z</time>
      </trkpt>
      <trkpt lat="46.54932" lon="0.33314">
        <ele>94.800003051758</ele>
        <time>2019-05-12T10:26:52.000Z</time>
      </trkpt>
      <trkpt lat="46.54931" lon="0.33312">
        <ele>95</ele>
        <time>2019-05-12T10:26:53.000Z</time>
      </trkpt>
      <trkpt lat="46.5493" lon="0.3331">
        <ele>95.199996948242</ele>
        <time>2019-05-12T10:26:54.000Z</time>
      </trkpt>
      <trkpt lat="46.54929" lon="0.33306">
        <ele>96</ele>
        <time>2019-05-12T10:26:56.000Z</time>
      </trkpt>
      <trkpt lat="46.54928" lon="0.33305">
        <ele>96.400001525879</ele>
        <time>2019-05-12T10:26:57.000Z</time>
      </trkpt>
      <trkpt lat="46.54925" lon="0.33302">
        <ele>97.400001525879</ele>
        <time>2019-05-12T10:27:00.000Z</time>
      </trkpt>
      <trkpt lat="46.54921" lon="0.33296">
        <ele>98.400001525879</ele>
        <time>2019-05-12T10:27:04.000Z</time>
      </trkpt>
      <trkpt lat="46.5492" lon="0.33295">
        <ele>98.599998474121</ele>
        <time>2019-05-12T10:27:05.000Z</time>
      </trkpt>
      <trkpt lat="46.54916" lon="0.33288">
        <ele>99.800003051758</ele>
        <time>2019-05-12T10:27:10.000Z</time>
      </trkpt>
      <trkpt lat="46.54915" lon="0.33286">
        <ele>99.800003051758</ele>
        <time>2019-05-12T10:27:11.000Z</time>
      </trkpt>
      <trkpt lat="46.54911" lon="0.33281">
        <ele>101</ele>
        <time>2019-05-12T10:27:15.000Z</time>
      </trkpt>
      <trkpt lat="46.54911" lon="0.3328">
        <ele>101.40000152588</ele>
        <time>2019-05-12T10:27:16.000Z</time>
      </trkpt>
      <trkpt lat="46.5491" lon="0.33277">
        <ele>101.59999847412</ele>
        <time>2019-05-12T10:27:17.000Z</time>
      </trkpt>
      <trkpt lat="46.54908" lon="0.33274">
        <ele>102.40000152588</ele>
        <time>2019-05-12T10:27:19.000Z</time>
      </trkpt>
      <trkpt lat="46.54906" lon="0.33269">
        <ele>102.80000305176</ele>
        <time>2019-05-12T10:27:22.000Z</time>
      </trkpt>
      <trkpt lat="46.54904" lon="0.33266">
        <ele>103.59999847412</ele>
        <time>2019-05-12T10:27:24.000Z</time>
      </trkpt>
      <trkpt lat="46.54902" lon="0.33263">
        <ele>104.40000152588</ele>
        <time>2019-05-12T10:27:27.000Z</time>
      </trkpt>
      <trkpt lat="46.54901" lon="0.33262">
        <ele>104.80000305176</ele>
        <time>2019-05-12T10:27:28.000Z</time>
      </trkpt>
      <trkpt lat="46.54898" lon="0.33256">
        <ele>105.80000305176</ele>
        <time>2019-05-12T10:27:33.000Z</time>
      </trkpt>
      <trkpt lat="46.54897" lon="0.33255">
        <ele>106.40000152588</ele>
        <time>2019-05-12T10:27:34.000Z</time>
      </trkpt>
      <trkpt lat="46.54895" lon="0.33251">
        <ele>107.19999694824</ele>
        <time>2019-05-12T10:27:36.000Z</time>
      </trkpt>
      <trkpt lat="46.54892" lon="0.33247">
        <ele>107.80000305176</ele>
        <time>2019-05-12T10:27:39.000Z</time>
      </trkpt>
      <trkpt lat="46.54887" lon="0.33241">
        <ele>108.59999847412</ele>
        <time>2019-05-12T10:27:43.000Z</time>
      </trkpt>
      <trkpt lat="46.54886" lon="0.3324">
        <ele>108.59999847412</ele>
        <time>2019-05-12T10:27:44.000Z</time>
      </trkpt>
      <trkpt lat="46.54884" lon="0.33238">
        <ele>109</ele>
        <time>2019-05-12T10:27:46.000Z</time>
      </trkpt>
      <trkpt lat="46.5488" lon="0.33233">
        <ele>109.59999847412</ele>
        <time>2019-05-12T10:27:50.000Z</time>
      </trkpt>
      <trkpt lat="46.54877" lon="0.33228">
        <ele>110.40000152588</ele>
        <time>2019-05-12T10:27:53.000Z</time>
      </trkpt>
      <trkpt lat="46.54872" lon="0.33218">
        <ele>111.19999694824</ele>
        <time>2019-05-12T10:27:59.000Z</time>
      </trkpt>
      <trkpt lat="46.54867" lon="0.33208">
        <ele>112.19999694824</ele>
        <time>2019-05-12T10:28:04.000Z</time>
      </trkpt>
      <trkpt lat="46.54867" lon="0.33204">
        <ele>112.19999694824</ele>
        <time>2019-05-12T10:28:06.000Z</time>
      </trkpt>
      <trkpt lat="46.54866" lon="0.33202">
        <ele>112.40000152588</ele>
        <time>2019-05-12T10:28:07.000Z</time>
      </trkpt>
      <trkpt lat="46.54864" lon="0.33198">
        <ele>112.59999847412</ele>
        <time>2019-05-12T10:28:09.000Z</time>
      </trkpt>
      <trkpt lat="46.54862" lon="0.3319">
        <ele>113.59999847412</ele>
        <time>2019-05-12T10:28:13.000Z</time>
      </trkpt>
      <trkpt lat="46.54857" lon="0.33172">
        <ele>114.19999694824</ele>
        <time>2019-05-12T10:28:20.000Z</time>
      </trkpt>
      <trkpt lat="46.54853" lon="0.33156">
        <ele>114.59999847412</ele>
        <time>2019-05-12T10:28:25.000Z</time>
      </trkpt>
      <trkpt lat="46.54851" lon="0.33149">
        <ele>115</ele>
        <time>2019-05-12T10:28:28.000Z</time>
      </trkpt>
      <trkpt lat="46.54849" lon="0.33141">
        <ele>115.40000152588</ele>
        <time>2019-05-12T10:28:31.000Z</time>
      </trkpt>
      <trkpt lat="46.54848" lon="0.33126">
        <ele>116</ele>
        <time>2019-05-12T10:28:36.000Z</time>
      </trkpt>
      <trkpt lat="46.54848" lon="0.33123">
        <ele>116.40000152588</ele>
        <time>2019-05-12T10:28:37.000Z</time>
      </trkpt>
      <trkpt lat="46.54846" lon="0.33112">
        <ele>117</ele>
        <time>2019-05-12T10:28:42.000Z</time>
      </trkpt>
      <trkpt lat="46.54845" lon="0.33108">
        <ele>117.19999694824</ele>
        <time>2019-05-12T10:28:44.000Z</time>
      </trkpt>
      <trkpt lat="46.54844" lon="0.33107">
        <ele>117.40000152588</ele>
        <time>2019-05-12T10:28:45.000Z</time>
      </trkpt>
      <trkpt lat="46.54843" lon="0.33101">
        <ele>117.59999847412</ele>
        <time>2019-05-12T10:28:49.000Z</time>
      </trkpt>
      <trkpt lat="46.54842" lon="0.33094">
        <ele>117.59999847412</ele>
        <time>2019-05-12T10:28:55.000Z</time>
      </trkpt>
      <trkpt lat="46.54842" lon="0.33091">
        <ele>117.80000305176</ele>
        <time>2019-05-12T10:28:58.000Z</time>
      </trkpt>
      <trkpt lat="46.54841" lon="0.3309">
        <ele>118</ele>
        <time>2019-05-12T10:28:59.000Z</time>
      </trkpt>
      <trkpt lat="46.5484" lon="0.33079">
        <ele>117.80000305176</ele>
        <time>2019-05-12T10:29:16.000Z</time>
      </trkpt>
      <trkpt lat="46.54839" lon="0.33077">
        <ele>117.80000305176</ele>
        <time>2019-05-12T10:29:17.000Z</time>
      </trkpt>
      <trkpt lat="46.54837" lon="0.33062">
        <ele>118.40000152588</ele>
        <time>2019-05-12T10:29:22.000Z</time>
      </trkpt>
      <trkpt lat="46.54836" lon="0.33054">
        <ele>118.80000305176</ele>
        <time>2019-05-12T10:29:25.000Z</time>
      </trkpt>
      <trkpt lat="46.54835" lon="0.33046">
        <ele>118.80000305176</ele>
        <time>2019-05-12T10:29:27.000Z</time>
      </trkpt>
      <trkpt lat="46.54833" lon="0.3302">
        <ele>119.40000152588</ele>
        <time>2019-05-12T10:29:33.000Z</time>
      </trkpt>
      <trkpt lat="46.54831" lon="0.32999">
        <ele>119.80000305176</ele>
        <time>2019-05-12T10:29:38.000Z</time>
      </trkpt>
      <trkpt lat="46.54831" lon="0.32977">
        <ele>120.19999694824</ele>
        <time>2019-05-12T10:29:43.000Z</time>
      </trkpt>
      <trkpt lat="46.54832" lon="0.32951">
        <ele>120.19999694824</ele>
        <time>2019-05-12T10:29:48.000Z</time>
      </trkpt>
      <trkpt lat="46.54832" lon="0.32918">
        <ele>120.40000152588</ele>
        <time>2019-05-12T10:29:54.000Z</time>
      </trkpt>
      <trkpt lat="46.54819" lon="0.32891">
        <ele>120.19999694824</ele>
        <time>2019-05-12T10:30:00.000Z</time>
      </trkpt>
      <trkpt lat="46.54815" lon="0.32886">
        <ele>120.19999694824</ele>
        <time>2019-05-12T10:30:02.000Z</time>
      </trkpt>
      <trkpt lat="46.54813" lon="0.32884">
        <ele>120</ele>
        <time>2019-05-12T10:30:03.000Z</time>
      </trkpt>
      <trkpt lat="46.54805" lon="0.32895">
        <ele>120.19999694824</ele>
        <time>2019-05-12T10:30:07.000Z</time>
      </trkpt>
      <trkpt lat="46.54799" lon="0.3291">
        <ele>120.40000152588</ele>
        <time>2019-05-12T10:30:11.000Z</time>
      </trkpt>
      <trkpt lat="46.54796" lon="0.32914">
        <ele>120.40000152588</ele>
        <time>2019-05-12T10:30:12.000Z</time>
      </trkpt>
      <trkpt lat="46.54794" lon="0.32919">
        <ele>120.40000152588</ele>
        <time>2019-05-12T10:30:13.000Z</time>
      </trkpt>
      <trkpt lat="46.54785" lon="0.3293">
        <ele>120.59999847412</ele>
        <time>2019-05-12T10:30:16.000Z</time>
      </trkpt>
      <trkpt lat="46.54781" lon="0.32933">
        <ele>120.80000305176</ele>
        <time>2019-05-12T10:30:17.000Z</time>
      </trkpt>
      <trkpt lat="46.54769" lon="0.32939">
        <ele>121</ele>
        <time>2019-05-12T10:30:20.000Z</time>
      </trkpt>
      <trkpt lat="46.54752" lon="0.32949">
        <ele>120.40000152588</ele>
        <time>2019-05-12T10:30:24.000Z</time>
      </trkpt>
      <trkpt lat="46.54749" lon="0.32953">
        <ele>120.19999694824</ele>
        <time>2019-05-12T10:30:25.000Z</time>
      </trkpt>
      <trkpt lat="46.54735" lon="0.32969">
        <ele>120.19999694824</ele>
        <time>2019-05-12T10:30:29.000Z</time>
      </trkpt>
      <trkpt lat="46.5473" lon="0.3297">
        <ele>120.19999694824</ele>
        <time>2019-05-12T10:30:30.000Z</time>
      </trkpt>
      <trkpt lat="46.54716" lon="0.3296">
        <ele>120.40000152588</ele>
        <time>2019-05-12T10:30:34.000Z</time>
      </trkpt>
      <trkpt lat="46.54702" lon="0.32947">
        <ele>120</ele>
        <time>2019-05-12T10:30:38.000Z</time>
      </trkpt>
      <trkpt lat="46.54695" lon="0.3294">
        <ele>119.80000305176</ele>
        <time>2019-05-12T10:30:40.000Z</time>
      </trkpt>
      <trkpt lat="46.54695" lon="0.32934">
        <ele>119.80000305176</ele>
        <time>2019-05-12T10:30:41.000Z</time>
      </trkpt>
      <trkpt lat="46.54697" lon="0.32915">
        <ele>119.59999847412</ele>
        <time>2019-05-12T10:30:45.000Z</time>
      </trkpt>
      <trkpt lat="46.54697" lon="0.32912">
        <ele>119.80000305176</ele>
        <time>2019-05-12T10:30:46.000Z</time>
      </trkpt>
      <trkpt lat="46.5469" lon="0.32906">
        <ele>120</ele>
        <time>2019-05-12T10:30:48.000Z</time>
      </trkpt>
      <trkpt lat="46.54675" lon="0.32897">
        <ele>120</ele>
        <time>2019-05-12T10:30:52.000Z</time>
      </trkpt>
      <trkpt lat="46.54664" lon="0.3288">
        <ele>119.40000152588</ele>
        <time>2019-05-12T10:30:56.000Z</time>
      </trkpt>
      <trkpt lat="46.54662" lon="0.32876">
        <ele>119.40000152588</ele>
        <time>2019-05-12T10:30:57.000Z</time>
      </trkpt>
      <trkpt lat="46.5466" lon="0.32872">
        <ele>119</ele>
        <time>2019-05-12T10:30:58.000Z</time>
      </trkpt>
      <trkpt lat="46.54657" lon="0.3287">
        <ele>119</ele>
        <time>2019-05-12T10:30:59.000Z</time>
      </trkpt>
      <trkpt lat="46.54648" lon="0.32863">
        <ele>118.59999847412</ele>
        <time>2019-05-12T10:31:04.000Z</time>
      </trkpt>
      <trkpt lat="46.54646" lon="0.3286">
        <ele>118.59999847412</ele>
        <time>2019-05-12T10:31:05.000Z</time>
      </trkpt>
      <trkpt lat="46.54642" lon="0.32851">
        <ele>118.40000152588</ele>
        <time>2019-05-12T10:31:07.000Z</time>
      </trkpt>
      <trkpt lat="46.54634" lon="0.32837">
        <ele>117.80000305176</ele>
        <time>2019-05-12T10:31:10.000Z</time>
      </trkpt>
      <trkpt lat="46.54631" lon="0.32833">
        <ele>117.59999847412</ele>
        <time>2019-05-12T10:31:11.000Z</time>
      </trkpt>
      <trkpt lat="46.54624" lon="0.32818">
        <ele>117</ele>
        <time>2019-05-12T10:31:14.000Z</time>
      </trkpt>
      <trkpt lat="46.54621" lon="0.32812">
        <ele>116.80000305176</ele>
        <time>2019-05-12T10:31:15.000Z</time>
      </trkpt>
      <trkpt lat="46.54618" lon="0.32808">
        <ele>116.59999847412</ele>
        <time>2019-05-12T10:31:16.000Z</time>
      </trkpt>
      <trkpt lat="46.54609" lon="0.32802">
        <ele>116.19999694824</ele>
        <time>2019-05-12T10:31:18.000Z</time>
      </trkpt>
      <trkpt lat="46.54602" lon="0.32796">
        <ele>115.80000305176</ele>
        <time>2019-05-12T10:31:20.000Z</time>
      </trkpt>
      <trkpt lat="46.546" lon="0.32791">
        <ele>115.40000152588</ele>
        <time>2019-05-12T10:31:21.000Z</time>
      </trkpt>
      <trkpt lat="46.54593" lon="0.32777">
        <ele>114.80000305176</ele>
        <time>2019-05-12T10:31:24.000Z</time>
      </trkpt>
      <trkpt lat="46.54591" lon="0.32773">
        <ele>114.59999847412</ele>
        <time>2019-05-12T10:31:25.000Z</time>
      </trkpt>
      <trkpt lat="46.54586" lon="0.32761">
        <ele>113.40000152588</ele>
        <time>2019-05-12T10:31:28.000Z</time>
      </trkpt>
      <trkpt lat="46.54584" lon="0.32759">
        <ele>113</ele>
        <time>2019-05-12T10:31:29.000Z</time>
      </trkpt>
      <trkpt lat="46.54577" lon="0.32753">
        <ele>112.40000152588</ele>
        <time>2019-05-12T10:31:33.000Z</time>
      </trkpt>
      <trkpt lat="46.54575" lon="0.32751">
        <ele>112.40000152588</ele>
        <time>2019-05-12T10:31:34.000Z</time>
      </trkpt>
      <trkpt lat="46.54572" lon="0.3275">
        <ele>112</ele>
        <time>2019-05-12T10:31:37.000Z</time>
      </trkpt>
      <trkpt lat="46.54566" lon="0.32747">
        <ele>111.40000152588</ele>
        <time>2019-05-12T10:31:40.000Z</time>
      </trkpt>
      <trkpt lat="46.54558" lon="0.32736">
        <ele>111.40000152588</ele>
        <time>2019-05-12T10:31:42.000Z</time>
      </trkpt>
      <trkpt lat="46.54555" lon="0.32729">
        <ele>111.19999694824</ele>
        <time>2019-05-12T10:31:43.000Z</time>
      </trkpt>
      <trkpt lat="46.54549" lon="0.32712">
        <ele>110.80000305176</ele>
        <time>2019-05-12T10:31:46.000Z</time>
      </trkpt>
      <trkpt lat="46.54546" lon="0.32701">
        <ele>109.80000305176</ele>
        <time>2019-05-12T10:31:48.000Z</time>
      </trkpt>
      <trkpt lat="46.54544" lon="0.32698">
        <ele>109</ele>
        <time>2019-05-12T10:31:49.000Z</time>
      </trkpt>
      <trkpt lat="46.54542" lon="0.32697">
        <ele>108.59999847412</ele>
        <time>2019-05-12T10:31:50.000Z</time>
      </trkpt>
      <trkpt lat="46.54531" lon="0.32694">
        <ele>108.19999694824</ele>
        <time>2019-05-12T10:31:53.000Z</time>
      </trkpt>
      <trkpt lat="46.54522" lon="0.32693">
        <ele>108</ele>
        <time>2019-05-12T10:31:55.000Z</time>
      </trkpt>
      <trkpt lat="46.54508" lon="0.32688">
        <ele>107.80000305176</ele>
        <time>2019-05-12T10:31:58.000Z</time>
      </trkpt>
      <trkpt lat="46.54497" lon="0.32688">
        <ele>107.80000305176</ele>
        <time>2019-05-12T10:32:00.000Z</time>
      </trkpt>
      <trkpt lat="46.54485" lon="0.32692">
        <ele>107.59999847412</ele>
        <time>2019-05-12T10:32:02.000Z</time>
      </trkpt>
      <trkpt lat="46.54478" lon="0.32695">
        <ele>107.19999694824</ele>
        <time>2019-05-12T10:32:03.000Z</time>
      </trkpt>
      <trkpt lat="46.54471" lon="0.32698">
        <ele>107</ele>
        <time>2019-05-12T10:32:04.000Z</time>
      </trkpt>
      <trkpt lat="46.54457" lon="0.32703">
        <ele>105.80000305176</ele>
        <time>2019-05-12T10:32:06.000Z</time>
      </trkpt>
      <trkpt lat="46.54434" lon="0.32706">
        <ele>104.80000305176</ele>
        <time>2019-05-12T10:32:09.000Z</time>
      </trkpt>
      <trkpt lat="46.54427" lon="0.32706">
        <ele>104.59999847412</ele>
        <time>2019-05-12T10:32:10.000Z</time>
      </trkpt>
      <trkpt lat="46.54405" lon="0.32702">
        <ele>103.40000152588</ele>
        <time>2019-05-12T10:32:13.000Z</time>
      </trkpt>
      <trkpt lat="46.54397" lon="0.32702">
        <ele>102.40000152588</ele>
        <time>2019-05-12T10:32:14.000Z</time>
      </trkpt>
      <trkpt lat="46.54385" lon="0.32702">
        <ele>101</ele>
        <time>2019-05-12T10:32:16.000Z</time>
      </trkpt>
      <trkpt lat="46.54372" lon="0.32699">
        <ele>99.199996948242</ele>
        <time>2019-05-12T10:32:18.000Z</time>
      </trkpt>
      <trkpt lat="46.54365" lon="0.32698">
        <ele>98.199996948242</ele>
        <time>2019-05-12T10:32:19.000Z</time>
      </trkpt>
      <trkpt lat="46.54358" lon="0.32699">
        <ele>96.599998474121</ele>
        <time>2019-05-12T10:32:20.000Z</time>
      </trkpt>
      <trkpt lat="46.54352" lon="0.32702">
        <ele>94.800003051758</ele>
        <time>2019-05-12T10:32:21.000Z</time>
      </trkpt>
      <trkpt lat="46.54347" lon="0.32704">
        <ele>93.800003051758</ele>
        <time>2019-05-12T10:32:22.000Z</time>
      </trkpt>
      <trkpt lat="46.54341" lon="0.32705">
        <ele>91.599998474121</ele>
        <time>2019-05-12T10:32:23.000Z</time>
      </trkpt>
      <trkpt lat="46.54336" lon="0.32707">
        <ele>90</ele>
        <time>2019-05-12T10:32:24.000Z</time>
      </trkpt>
      <trkpt lat="46.54331" lon="0.32709">
        <ele>88.199996948242</ele>
        <time>2019-05-12T10:32:25.000Z</time>
      </trkpt>
      <trkpt lat="46.54326" lon="0.32712">
        <ele>87</ele>
        <time>2019-05-12T10:32:26.000Z</time>
      </trkpt>
      <trkpt lat="46.54321" lon="0.32715">
        <ele>85.800003051758</ele>
        <time>2019-05-12T10:32:27.000Z</time>
      </trkpt>
      <trkpt lat="46.54316" lon="0.32718">
        <ele>84.199996948242</ele>
        <time>2019-05-12T10:32:28.000Z</time>
      </trkpt>
      <trkpt lat="46.5431" lon="0.3272">
        <ele>82.800003051758</ele>
        <time>2019-05-12T10:32:29.000Z</time>
      </trkpt>
      <trkpt lat="46.54304" lon="0.32723">
        <ele>80.800003051758</ele>
        <time>2019-05-12T10:32:30.000Z</time>
      </trkpt>
      <trkpt lat="46.54299" lon="0.32725">
        <ele>79.199996948242</ele>
        <time>2019-05-12T10:32:31.000Z</time>
      </trkpt>
      <trkpt lat="46.54287" lon="0.32725">
        <ele>77.800003051758</ele>
        <time>2019-05-12T10:32:33.000Z</time>
      </trkpt>
      <trkpt lat="46.5428" lon="0.32724">
        <ele>77.599998474121</ele>
        <time>2019-05-12T10:32:34.000Z</time>
      </trkpt>
      <trkpt lat="46.54273" lon="0.32723">
        <ele>76.599998474121</ele>
        <time>2019-05-12T10:32:35.000Z</time>
      </trkpt>
      <trkpt lat="46.54265" lon="0.32722">
        <ele>75</ele>
        <time>2019-05-12T10:32:36.000Z</time>
      </trkpt>
      <trkpt lat="46.54257" lon="0.32721">
        <ele>73.800003051758</ele>
        <time>2019-05-12T10:32:37.000Z</time>
      </trkpt>
      <trkpt lat="46.54249" lon="0.32719">
        <ele>72.400001525879</ele>
        <time>2019-05-12T10:32:38.000Z</time>
      </trkpt>
      <trkpt lat="46.54243" lon="0.32717">
        <ele>71.199996948242</ele>
        <time>2019-05-12T10:32:39.000Z</time>
      </trkpt>
      <trkpt lat="46.54233" lon="0.32714">
        <ele>70</ele>
        <time>2019-05-12T10:32:41.000Z</time>
      </trkpt>
      <trkpt lat="46.54216" lon="0.3271">
        <ele>69.400001525879</ele>
        <time>2019-05-12T10:32:46.000Z</time>
      </trkpt>
      <trkpt lat="46.54206" lon="0.32709">
        <ele>69.199996948242</ele>
        <time>2019-05-12T10:32:49.000Z</time>
      </trkpt>
      <trkpt lat="46.54205" lon="0.3271">
        <ele>69.199996948242</ele>
        <time>2019-05-12T10:32:50.000Z</time>
      </trkpt>
      <trkpt lat="46.54205" lon="0.32714">
        <ele>69.199996948242</ele>
        <time>2019-05-12T10:32:54.000Z</time>
      </trkpt>
      <trkpt lat="46.54203" lon="0.32743">
        <ele>68.199996948242</ele>
        <time>2019-05-12T10:33:56.000Z</time>
      </trkpt>
      <trkpt lat="46.54202" lon="0.32746">
        <ele>68.199996948242</ele>
        <time>2019-05-12T10:33:57.000Z</time>
      </trkpt>
      <trkpt lat="46.54201" lon="0.3275">
        <ele>68.400001525879</ele>
        <time>2019-05-12T10:33:58.000Z</time>
      </trkpt>
      <trkpt lat="46.54194" lon="0.32765">
        <ele>68.199996948242</ele>
        <time>2019-05-12T10:34:02.000Z</time>
      </trkpt>
      <trkpt lat="46.54191" lon="0.32768">
        <ele>68.199996948242</ele>
        <time>2019-05-12T10:34:03.000Z</time>
      </trkpt>
      <trkpt lat="46.54175" lon="0.32778">
        <ele>68</ele>
        <time>2019-05-12T10:34:08.000Z</time>
      </trkpt>
      <trkpt lat="46.54153" lon="0.32787">
        <ele>67.400001525879</ele>
        <time>2019-05-12T10:34:14.000Z</time>
      </trkpt>
      <trkpt lat="46.5414" lon="0.32791">
        <ele>67.800003051758</ele>
        <time>2019-05-12T10:34:18.000Z</time>
      </trkpt>
      <trkpt lat="46.54125" lon="0.32797">
        <ele>68.400001525879</ele>
        <time>2019-05-12T10:34:23.000Z</time>
      </trkpt>
      <trkpt lat="46.54114" lon="0.32806">
        <ele>69</ele>
        <time>2019-05-12T10:34:27.000Z</time>
      </trkpt>
      <trkpt lat="46.54108" lon="0.3281">
        <ele>69.599998474121</ele>
        <time>2019-05-12T10:34:29.000Z</time>
      </trkpt>
      <trkpt lat="46.541" lon="0.32822">
        <ele>70</ele>
        <time>2019-05-12T10:34:33.000Z</time>
      </trkpt>
      <trkpt lat="46.54098" lon="0.32826">
        <ele>70.400001525879</ele>
        <time>2019-05-12T10:34:34.000Z</time>
      </trkpt>
      <trkpt lat="46.54092" lon="0.32842">
        <ele>71.199996948242</ele>
        <time>2019-05-12T10:34:38.000Z</time>
      </trkpt>
      <trkpt lat="46.5409" lon="0.32846">
        <ele>71.199996948242</ele>
        <time>2019-05-12T10:34:39.000Z</time>
      </trkpt>
      <trkpt lat="46.54087" lon="0.3285">
        <ele>71.400001525879</ele>
        <time>2019-05-12T10:34:40.000Z</time>
      </trkpt>
      <trkpt lat="46.54078" lon="0.32852">
        <ele>71</ele>
        <time>2019-05-12T10:34:42.000Z</time>
      </trkpt>
      <trkpt lat="46.5406" lon="0.32855">
        <ele>70.199996948242</ele>
        <time>2019-05-12T10:34:46.000Z</time>
      </trkpt>
      <trkpt lat="46.54055" lon="0.32856">
        <ele>69.800003051758</ele>
        <time>2019-05-12T10:34:47.000Z</time>
      </trkpt>
      <trkpt lat="46.54045" lon="0.32858">
        <ele>69.599998474121</ele>
        <time>2019-05-12T10:34:49.000Z</time>
      </trkpt>
      <trkpt lat="46.54036" lon="0.32861">
        <ele>69.599998474121</ele>
        <time>2019-05-12T10:34:51.000Z</time>
      </trkpt>
      <trkpt lat="46.54026" lon="0.32867">
        <ele>68.599998474121</ele>
        <time>2019-05-12T10:34:53.000Z</time>
      </trkpt>
      <trkpt lat="46.54022" lon="0.32871">
        <ele>68</ele>
        <time>2019-05-12T10:34:54.000Z</time>
      </trkpt>
      <trkpt lat="46.54017" lon="0.32873">
        <ele>67.800003051758</ele>
        <time>2019-05-12T10:34:55.000Z</time>
      </trkpt>
      <trkpt lat="46.5401" lon="0.32879">
        <ele>67.599998474121</ele>
        <time>2019-05-12T10:34:57.000Z</time>
      </trkpt>
      <trkpt lat="46.54006" lon="0.32882">
        <ele>67.599998474121</ele>
        <time>2019-05-12T10:34:58.000Z</time>
      </trkpt>
      <trkpt lat="46.53985" lon="0.329">
        <ele>68</ele>
        <time>2019-05-12T10:35:03.000Z</time>
      </trkpt>
      <trkpt lat="46.5397" lon="0.32912">
        <ele>68</ele>
        <time>2019-05-12T10:35:07.000Z</time>
      </trkpt>
      <trkpt lat="46.53959" lon="0.32918">
        <ele>68.599998474121</ele>
        <time>2019-05-12T10:35:10.000Z</time>
      </trkpt>
      <trkpt lat="46.53952" lon="0.32925">
        <ele>69</ele>
        <time>2019-05-12T10:35:12.000Z</time>
      </trkpt>
      <trkpt lat="46.53938" lon="0.32949">
        <ele>69</ele>
        <time>2019-05-12T10:35:17.000Z</time>
      </trkpt>
      <trkpt lat="46.53929" lon="0.32965">
        <ele>69.199996948242</ele>
        <time>2019-05-12T10:35:20.000Z</time>
      </trkpt>
      <trkpt lat="46.53923" lon="0.32975">
        <ele>69</ele>
        <time>2019-05-12T10:35:22.000Z</time>
      </trkpt>
      <trkpt lat="46.53917" lon="0.3299">
        <ele>68.800003051758</ele>
        <time>2019-05-12T10:35:24.000Z</time>
      </trkpt>
      <trkpt lat="46.53913" lon="0.33003">
        <ele>68</ele>
        <time>2019-05-12T10:35:26.000Z</time>
      </trkpt>
      <trkpt lat="46.53905" lon="0.33022">
        <ele>68.199996948242</ele>
        <time>2019-05-12T10:35:29.000Z</time>
      </trkpt>
      <trkpt lat="46.53901" lon="0.33034">
        <ele>68.199996948242</ele>
        <time>2019-05-12T10:35:31.000Z</time>
      </trkpt>
      <trkpt lat="46.53898" lon="0.3304">
        <ele>68.199996948242</ele>
        <time>2019-05-12T10:35:32.000Z</time>
      </trkpt>
      <trkpt lat="46.53885" lon="0.33074">
        <ele>69.800003051758</ele>
        <time>2019-05-12T10:35:38.000Z</time>
      </trkpt>
      <trkpt lat="46.53881" lon="0.33086">
        <ele>70.199996948242</ele>
        <time>2019-05-12T10:35:40.000Z</time>
      </trkpt>
      <trkpt lat="46.53878" lon="0.33099">
        <ele>70</ele>
        <time>2019-05-12T10:35:43.000Z</time>
      </trkpt>
      <trkpt lat="46.53875" lon="0.33123">
        <ele>69.599998474121</ele>
        <time>2019-05-12T10:35:49.000Z</time>
      </trkpt>
      <trkpt lat="46.53876" lon="0.33137">
        <ele>70</ele>
        <time>2019-05-12T10:35:55.000Z</time>
      </trkpt>
      <trkpt lat="46.53876" lon="0.33138">
        <ele>70</ele>
        <time>2019-05-12T10:35:56.000Z</time>
      </trkpt>
      <trkpt lat="46.53881" lon="0.33155">
        <ele>69.599998474121</ele>
        <time>2019-05-12T10:36:00.000Z</time>
      </trkpt>
      <trkpt lat="46.53883" lon="0.33162">
        <ele>69.599998474121</ele>
        <time>2019-05-12T10:36:01.000Z</time>
      </trkpt>
      <trkpt lat="46.53889" lon="0.3318">
        <ele>69.199996948242</ele>
        <time>2019-05-12T10:36:04.000Z</time>
      </trkpt>
      <trkpt lat="46.53892" lon="0.33191">
        <ele>69</ele>
        <time>2019-05-12T10:36:06.000Z</time>
      </trkpt>
      <trkpt lat="46.53894" lon="0.33195">
        <ele>69</ele>
        <time>2019-05-12T10:36:07.000Z</time>
      </trkpt>
      <trkpt lat="46.53896" lon="0.33206">
        <ele>69</ele>
        <time>2019-05-12T10:36:09.000Z</time>
      </trkpt>
      <trkpt lat="46.53903" lon="0.33233">
        <ele>68.599998474121</ele>
        <time>2019-05-12T10:36:14.000Z</time>
      </trkpt>
      <trkpt lat="46.53913" lon="0.33266">
        <ele>68.199996948242</ele>
        <time>2019-05-12T10:36:20.000Z</time>
      </trkpt>
      <trkpt lat="46.53922" lon="0.33291">
        <ele>68.400001525879</ele>
        <time>2019-05-12T10:36:25.000Z</time>
      </trkpt>
      <trkpt lat="46.53929" lon="0.33313">
        <ele>68</ele>
        <time>2019-05-12T10:36:29.000Z</time>
      </trkpt>
      <trkpt lat="46.5393" lon="0.3332">
        <ele>67.800003051758</ele>
        <time>2019-05-12T10:36:30.000Z</time>
      </trkpt>
      <trkpt lat="46.53935" lon="0.33343">
        <ele>67.599998474121</ele>
        <time>2019-05-12T10:36:34.000Z</time>
      </trkpt>
      <trkpt lat="46.5394" lon="0.33372">
        <ele>68.199996948242</ele>
        <time>2019-05-12T10:36:39.000Z</time>
      </trkpt>
      <trkpt lat="46.53947" lon="0.33405">
        <ele>67.800003051758</ele>
        <time>2019-05-12T10:36:45.000Z</time>
      </trkpt>
      <trkpt lat="46.53955" lon="0.33441">
        <ele>68.199996948242</ele>
        <time>2019-05-12T10:36:52.000Z</time>
      </trkpt>
      <trkpt lat="46.53967" lon="0.33467">
        <ele>68.199996948242</ele>
        <time>2019-05-12T10:36:57.000Z</time>
      </trkpt>
      <trkpt lat="46.5398" lon="0.33486">
        <ele>67.400001525879</ele>
        <time>2019-05-12T10:37:01.000Z</time>
      </trkpt>
      <trkpt lat="46.53983" lon="0.33492">
        <ele>67.599998474121</ele>
        <time>2019-05-12T10:37:02.000Z</time>
      </trkpt>
      <trkpt lat="46.53995" lon="0.33517">
        <ele>68</ele>
        <time>2019-05-12T10:37:07.000Z</time>
      </trkpt>
      <trkpt lat="46.53999" lon="0.33527">
        <ele>68.400001525879</ele>
        <time>2019-05-12T10:37:09.000Z</time>
      </trkpt>
      <trkpt lat="46.54001" lon="0.33532">
        <ele>68.400001525879</ele>
        <time>2019-05-12T10:37:10.000Z</time>
      </trkpt>
      <trkpt lat="46.54003" lon="0.33537">
        <ele>68.400001525879</ele>
        <time>2019-05-12T10:37:11.000Z</time>
      </trkpt>
      <trkpt lat="46.54014" lon="0.33556">
        <ele>68</ele>
        <time>2019-05-12T10:37:15.000Z</time>
      </trkpt>
      <trkpt lat="46.54016" lon="0.33561">
        <ele>68</ele>
        <time>2019-05-12T10:37:16.000Z</time>
      </trkpt>
      <trkpt lat="46.54028" lon="0.33575">
        <ele>68.599998474121</ele>
        <time>2019-05-12T10:37:20.000Z</time>
      </trkpt>
      <trkpt lat="46.54032" lon="0.33578">
        <ele>68.599998474121</ele>
        <time>2019-05-12T10:37:21.000Z</time>
      </trkpt>
      <trkpt lat="46.54039" lon="0.33593">
        <ele>69</ele>
        <time>2019-05-12T10:37:24.000Z</time>
      </trkpt>
      <trkpt lat="46.54044" lon="0.33611">
        <ele>69.199996948242</ele>
        <time>2019-05-12T10:37:27.000Z</time>
      </trkpt>
      <trkpt lat="46.54049" lon="0.33629">
        <ele>69.599998474121</ele>
        <time>2019-05-12T10:37:30.000Z</time>
      </trkpt>
      <trkpt lat="46.54053" lon="0.33641">
        <ele>69.800003051758</ele>
        <time>2019-05-12T10:37:32.000Z</time>
      </trkpt>
      <trkpt lat="46.54058" lon="0.33653">
        <ele>69.599998474121</ele>
        <time>2019-05-12T10:37:34.000Z</time>
      </trkpt>
      <trkpt lat="46.54066" lon="0.3367">
        <ele>69</ele>
        <time>2019-05-12T10:37:37.000Z</time>
      </trkpt>
      <trkpt lat="46.54067" lon="0.33676">
        <ele>68.800003051758</ele>
        <time>2019-05-12T10:37:38.000Z</time>
      </trkpt>
      <trkpt lat="46.54072" lon="0.33709">
        <ele>69.199996948242</ele>
        <time>2019-05-12T10:37:43.000Z</time>
      </trkpt>
      <trkpt lat="46.54076" lon="0.33755">
        <ele>69.199996948242</ele>
        <time>2019-05-12T10:37:50.000Z</time>
      </trkpt>
      <trkpt lat="46.54084" lon="0.33808">
        <ele>69</ele>
        <time>2019-05-12T10:37:58.000Z</time>
      </trkpt>
      <trkpt lat="46.54085" lon="0.33814">
        <ele>69</ele>
        <time>2019-05-12T10:37:59.000Z</time>
      </trkpt>
      <trkpt lat="46.54088" lon="0.33836">
        <ele>69.599998474121</ele>
        <time>2019-05-12T10:38:03.000Z</time>
      </trkpt>
      <trkpt lat="46.54089" lon="0.33842">
        <ele>69.599998474121</ele>
        <time>2019-05-12T10:38:04.000Z</time>
      </trkpt>
      <trkpt lat="46.54092" lon="0.33892">
        <ele>69.199996948242</ele>
        <time>2019-05-12T10:38:12.000Z</time>
      </trkpt>
      <trkpt lat="46.54092" lon="0.33898">
        <ele>69.400001525879</ele>
        <time>2019-05-12T10:38:13.000Z</time>
      </trkpt>
      <trkpt lat="46.54091" lon="0.33911">
        <ele>70</ele>
        <time>2019-05-12T10:38:15.000Z</time>
      </trkpt>
      <trkpt lat="46.5409" lon="0.33918">
        <ele>70.199996948242</ele>
        <time>2019-05-12T10:38:16.000Z</time>
      </trkpt>
      <trkpt lat="46.54088" lon="0.3393">
        <ele>70</ele>
        <time>2019-05-12T10:38:18.000Z</time>
      </trkpt>
      <trkpt lat="46.5408" lon="0.3396">
        <ele>70.400001525879</ele>
        <time>2019-05-12T10:38:23.000Z</time>
      </trkpt>
      <trkpt lat="46.54075" lon="0.33971">
        <ele>70.800003051758</ele>
        <time>2019-05-12T10:38:25.000Z</time>
      </trkpt>
      <trkpt lat="46.54072" lon="0.33984">
        <ele>70.400001525879</ele>
        <time>2019-05-12T10:38:27.000Z</time>
      </trkpt>
      <trkpt lat="46.54068" lon="0.34003">
        <ele>70</ele>
        <time>2019-05-12T10:38:30.000Z</time>
      </trkpt>
      <trkpt lat="46.54066" lon="0.34016">
        <ele>70</ele>
        <time>2019-05-12T10:38:32.000Z</time>
      </trkpt>
      <trkpt lat="46.54064" lon="0.34028">
        <ele>70.199996948242</ele>
        <time>2019-05-12T10:38:34.000Z</time>
      </trkpt>
      <trkpt lat="46.54063" lon="0.34041">
        <ele>70.400001525879</ele>
        <time>2019-05-12T10:38:36.000Z</time>
      </trkpt>
      <trkpt lat="46.54065" lon="0.34054">
        <ele>70.199996948242</ele>
        <time>2019-05-12T10:38:38.000Z</time>
      </trkpt>
      <trkpt lat="46.54066" lon="0.3406">
        <ele>69.800003051758</ele>
        <time>2019-05-12T10:38:39.000Z</time>
      </trkpt>
      <trkpt lat="46.54068" lon="0.34074">
        <ele>69.599998474121</ele>
        <time>2019-05-12T10:38:41.000Z</time>
      </trkpt>
      <trkpt lat="46.54068" lon="0.3408">
        <ele>69.599998474121</ele>
        <time>2019-05-12T10:38:42.000Z</time>
      </trkpt>
      <trkpt lat="46.54065" lon="0.34092">
        <ele>69.599998474121</ele>
        <time>2019-05-12T10:38:44.000Z</time>
      </trkpt>
      <trkpt lat="46.54059" lon="0.34102">
        <ele>69.599998474121</ele>
        <time>2019-05-12T10:38:46.000Z</time>
      </trkpt>
      <trkpt lat="46.54056" lon="0.34108">
        <ele>69.800003051758</ele>
        <time>2019-05-12T10:38:47.000Z</time>
      </trkpt>
      <trkpt lat="46.54051" lon="0.3412">
        <ele>70.199996948242</ele>
        <time>2019-05-12T10:38:49.000Z</time>
      </trkpt>
      <trkpt lat="46.54044" lon="0.34137">
        <ele>70.599998474121</ele>
        <time>2019-05-12T10:38:52.000Z</time>
      </trkpt>
      <trkpt lat="46.54037" lon="0.34146">
        <ele>70.599998474121</ele>
        <time>2019-05-12T10:38:54.000Z</time>
      </trkpt>
      <trkpt lat="46.54011" lon="0.34175">
        <ele>70.800003051758</ele>
        <time>2019-05-12T10:39:01.000Z</time>
      </trkpt>
      <trkpt lat="46.54006" lon="0.34178">
        <ele>70.599998474121</ele>
        <time>2019-05-12T10:39:02.000Z</time>
      </trkpt>
      <trkpt lat="46.53988" lon="0.34186">
        <ele>70.400001525879</ele>
        <time>2019-05-12T10:39:06.000Z</time>
      </trkpt>
      <trkpt lat="46.53983" lon="0.34187">
        <ele>70.400001525879</ele>
        <time>2019-05-12T10:39:07.000Z</time>
      </trkpt>
      <trkpt lat="46.53963" lon="0.3419">
        <ele>70.599998474121</ele>
        <time>2019-05-12T10:39:11.000Z</time>
      </trkpt>
      <trkpt lat="46.53955" lon="0.34185">
        <ele>70.599998474121</ele>
        <time>2019-05-12T10:39:13.000Z</time>
      </trkpt>
      <trkpt lat="46.53944" lon="0.34172">
        <ele>70.400001525879</ele>
        <time>2019-05-12T10:39:16.000Z</time>
      </trkpt>
      <trkpt lat="46.53938" lon="0.34162">
        <ele>70</ele>
        <time>2019-05-12T10:39:18.000Z</time>
      </trkpt>
      <trkpt lat="46.53931" lon="0.34154">
        <ele>70</ele>
        <time>2019-05-12T10:39:20.000Z</time>
      </trkpt>
      <trkpt lat="46.53919" lon="0.3414">
        <ele>69.800003051758</ele>
        <time>2019-05-12T10:39:24.000Z</time>
      </trkpt>
      <trkpt lat="46.53904" lon="0.34131">
        <ele>69.599998474121</ele>
        <time>2019-05-12T10:39:28.000Z</time>
      </trkpt>
      <trkpt lat="46.53895" lon="0.34128">
        <ele>69.400001525879</ele>
        <time>2019-05-12T10:39:30.000Z</time>
      </trkpt>
      <trkpt lat="46.53878" lon="0.34126">
        <ele>69.599998474121</ele>
        <time>2019-05-12T10:39:34.000Z</time>
      </trkpt>
      <trkpt lat="46.5387" lon="0.34128">
        <ele>69.800003051758</ele>
        <time>2019-05-12T10:39:36.000Z</time>
      </trkpt>
      <trkpt lat="46.53862" lon="0.34128">
        <ele>69.599998474121</ele>
        <time>2019-05-12T10:39:38.000Z</time>
      </trkpt>
      <trkpt lat="46.5385" lon="0.34123">
        <ele>69.800003051758</ele>
        <time>2019-05-12T10:39:41.000Z</time>
      </trkpt>
      <trkpt lat="46.53846" lon="0.34121">
        <ele>70.199996948242</ele>
        <time>2019-05-12T10:39:42.000Z</time>
      </trkpt>
      <trkpt lat="46.53815" lon="0.34101">
        <ele>70</ele>
        <time>2019-05-12T10:39:50.000Z</time>
      </trkpt>
      <trkpt lat="46.53803" lon="0.34096">
        <ele>69.800003051758</ele>
        <time>2019-05-12T10:39:53.000Z</time>
      </trkpt>
      <trkpt lat="46.53798" lon="0.34094">
        <ele>69.599998474121</ele>
        <time>2019-05-12T10:39:54.000Z</time>
      </trkpt>
      <trkpt lat="46.53785" lon="0.34081">
        <ele>69.599998474121</ele>
        <time>2019-05-12T10:39:58.000Z</time>
      </trkpt>
      <trkpt lat="46.53782" lon="0.34076">
        <ele>69.599998474121</ele>
        <time>2019-05-12T10:39:59.000Z</time>
      </trkpt>
      <trkpt lat="46.53772" lon="0.34052">
        <ele>69.800003051758</ele>
        <time>2019-05-12T10:40:04.000Z</time>
      </trkpt>
      <trkpt lat="46.53765" lon="0.34027">
        <ele>69.800003051758</ele>
        <time>2019-05-12T10:40:09.000Z</time>
      </trkpt>
      <trkpt lat="46.53759" lon="0.34006">
        <ele>71.400001525879</ele>
        <time>2019-05-12T10:40:15.000Z</time>
      </trkpt>
      <trkpt lat="46.53755" lon="0.33991">
        <ele>72.199996948242</ele>
        <time>2019-05-12T10:40:20.000Z</time>
      </trkpt>
      <trkpt lat="46.53754" lon="0.33988">
        <ele>72.400001525879</ele>
        <time>2019-05-12T10:40:21.000Z</time>
      </trkpt>
      <trkpt lat="46.5375" lon="0.33977">
        <ele>73.599998474121</ele>
        <time>2019-05-12T10:40:25.000Z</time>
      </trkpt>
      <trkpt lat="46.53747" lon="0.33973">
        <ele>74.400001525879</ele>
        <time>2019-05-12T10:40:27.000Z</time>
      </trkpt>
      <trkpt lat="46.53746" lon="0.33971">
        <ele>74.599998474121</ele>
        <time>2019-05-12T10:40:28.000Z</time>
      </trkpt>
      <trkpt lat="46.53743" lon="0.33965">
        <ele>75.800003051758</ele>
        <time>2019-05-12T10:40:31.000Z</time>
      </trkpt>
      <trkpt lat="46.53737" lon="0.3396">
        <ele>76.800003051758</ele>
        <time>2019-05-12T10:40:34.000Z</time>
      </trkpt>
      <trkpt lat="46.53735" lon="0.33959">
        <ele>77</ele>
        <time>2019-05-12T10:40:35.000Z</time>
      </trkpt>
      <trkpt lat="46.53729" lon="0.33953">
        <ele>78.599998474121</ele>
        <time>2019-05-12T10:40:39.000Z</time>
      </trkpt>
      <trkpt lat="46.53725" lon="0.33951">
        <ele>79.800003051758</ele>
        <time>2019-05-12T10:40:42.000Z</time>
      </trkpt>
      <trkpt lat="46.53723" lon="0.33948">
        <ele>80.199996948242</ele>
        <time>2019-05-12T10:40:44.000Z</time>
      </trkpt>
      <trkpt lat="46.5372" lon="0.33944">
        <ele>81</ele>
        <time>2019-05-12T10:40:47.000Z</time>
      </trkpt>
      <trkpt lat="46.53716" lon="0.33937">
        <ele>81.599998474121</ele>
        <time>2019-05-12T10:40:50.000Z</time>
      </trkpt>
      <trkpt lat="46.53712" lon="0.33933">
        <ele>82</ele>
        <time>2019-05-12T10:40:52.000Z</time>
      </trkpt>
      <trkpt lat="46.53704" lon="0.33925">
        <ele>83.599998474121</ele>
        <time>2019-05-12T10:40:56.000Z</time>
      </trkpt>
      <trkpt lat="46.5369" lon="0.33912">
        <ele>84.199996948242</ele>
        <time>2019-05-12T10:41:02.000Z</time>
      </trkpt>
      <trkpt lat="46.53685" lon="0.33907">
        <ele>84.599998474121</ele>
        <time>2019-05-12T10:41:04.000Z</time>
      </trkpt>
      <trkpt lat="46.53675" lon="0.33903">
        <ele>85</ele>
        <time>2019-05-12T10:41:08.000Z</time>
      </trkpt>
      <trkpt lat="46.53658" lon="0.33901">
        <ele>85.400001525879</ele>
        <time>2019-05-12T10:41:15.000Z</time>
      </trkpt>
      <trkpt lat="46.53654" lon="0.33901">
        <ele>85.800003051758</ele>
        <time>2019-05-12T10:41:17.000Z</time>
      </trkpt>
      <trkpt lat="46.53642" lon="0.33896">
        <ele>86.199996948242</ele>
        <time>2019-05-12T10:41:22.000Z</time>
      </trkpt>
      <trkpt lat="46.53632" lon="0.33892">
        <ele>87.199996948242</ele>
        <time>2019-05-12T10:41:26.000Z</time>
      </trkpt>
      <trkpt lat="46.53619" lon="0.3388">
        <ele>88</ele>
        <time>2019-05-12T10:41:32.000Z</time>
      </trkpt>
      <trkpt lat="46.53616" lon="0.33879">
        <ele>88.199996948242</ele>
        <time>2019-05-12T10:41:33.000Z</time>
      </trkpt>
      <trkpt lat="46.53606" lon="0.33868">
        <ele>89</ele>
        <time>2019-05-12T10:41:39.000Z</time>
      </trkpt>
      <trkpt lat="46.53605" lon="0.33866">
        <ele>89.199996948242</ele>
        <time>2019-05-12T10:41:40.000Z</time>
      </trkpt>
      <trkpt lat="46.53597" lon="0.33853">
        <ele>89.800003051758</ele>
        <time>2019-05-12T10:41:46.000Z</time>
      </trkpt>
      <trkpt lat="46.53594" lon="0.33849">
        <ele>90.400001525879</ele>
        <time>2019-05-12T10:41:48.000Z</time>
      </trkpt>
      <trkpt lat="46.53592" lon="0.33832">
        <ele>91.199996948242</ele>
        <time>2019-05-12T10:41:54.000Z</time>
      </trkpt>
      <trkpt lat="46.53592" lon="0.33829">
        <ele>91.599998474121</ele>
        <time>2019-05-12T10:41:55.000Z</time>
      </trkpt>
      <trkpt lat="46.53593" lon="0.3381">
        <ele>92.599998474121</ele>
        <time>2019-05-12T10:42:01.000Z</time>
      </trkpt>
      <trkpt lat="46.53593" lon="0.33801">
        <ele>93</ele>
        <time>2019-05-12T10:42:04.000Z</time>
      </trkpt>
      <trkpt lat="46.53592" lon="0.33789">
        <ele>94</ele>
        <time>2019-05-12T10:42:09.000Z</time>
      </trkpt>
      <trkpt lat="46.5359" lon="0.33784">
        <ele>94.400001525879</ele>
        <time>2019-05-12T10:42:11.000Z</time>
      </trkpt>
      <trkpt lat="46.53588" lon="0.33783">
        <ele>94.400001525879</ele>
        <time>2019-05-12T10:42:12.000Z</time>
      </trkpt>
      <trkpt lat="46.53579" lon="0.33777">
        <ele>94.800003051758</ele>
        <time>2019-05-12T10:42:17.000Z</time>
      </trkpt>
      <trkpt lat="46.53576" lon="0.33776">
        <ele>95</ele>
        <time>2019-05-12T10:42:19.000Z</time>
      </trkpt>
      <trkpt lat="46.53567" lon="0.33775">
        <ele>95.800003051758</ele>
        <time>2019-05-12T10:42:23.000Z</time>
      </trkpt>
      <trkpt lat="46.53563" lon="0.33774">
        <ele>96</ele>
        <time>2019-05-12T10:42:25.000Z</time>
      </trkpt>
      <trkpt lat="46.53553" lon="0.33771">
        <ele>97</ele>
        <time>2019-05-12T10:42:30.000Z</time>
      </trkpt>
      <trkpt lat="46.53538" lon="0.33767">
        <ele>98</ele>
        <time>2019-05-12T10:42:36.000Z</time>
      </trkpt>
      <trkpt lat="46.53533" lon="0.33766">
        <ele>98.199996948242</ele>
        <time>2019-05-12T10:42:38.000Z</time>
      </trkpt>
      <trkpt lat="46.53526" lon="0.33765">
        <ele>99</ele>
        <time>2019-05-12T10:42:41.000Z</time>
      </trkpt>
      <trkpt lat="46.53519" lon="0.33763">
        <ele>99.599998474121</ele>
        <time>2019-05-12T10:42:44.000Z</time>
      </trkpt>
      <trkpt lat="46.53509" lon="0.33759">
        <ele>100.19999694824</ele>
        <time>2019-05-12T10:42:48.000Z</time>
      </trkpt>
      <trkpt lat="46.53501" lon="0.33753">
        <ele>100.59999847412</ele>
        <time>2019-05-12T10:42:52.000Z</time>
      </trkpt>
      <trkpt lat="46.53487" lon="0.33744">
        <ele>101.19999694824</ele>
        <time>2019-05-12T10:42:58.000Z</time>
      </trkpt>
      <trkpt lat="46.53477" lon="0.33738">
        <ele>101.80000305176</ele>
        <time>2019-05-12T10:43:02.000Z</time>
      </trkpt>
      <trkpt lat="46.5347" lon="0.33734">
        <ele>102</ele>
        <time>2019-05-12T10:43:05.000Z</time>
      </trkpt>
      <trkpt lat="46.53459" lon="0.33728">
        <ele>103.19999694824</ele>
        <time>2019-05-12T10:43:09.000Z</time>
      </trkpt>
      <trkpt lat="46.53452" lon="0.33723">
        <ele>103.40000152588</ele>
        <time>2019-05-12T10:43:12.000Z</time>
      </trkpt>
      <trkpt lat="46.53436" lon="0.33708">
        <ele>104.19999694824</ele>
        <time>2019-05-12T10:43:19.000Z</time>
      </trkpt>
      <trkpt lat="46.53426" lon="0.33699">
        <ele>104.40000152588</ele>
        <time>2019-05-12T10:43:24.000Z</time>
      </trkpt>
      <trkpt lat="46.53427" lon="0.33689">
        <ele>105</ele>
        <time>2019-05-12T10:43:28.000Z</time>
      </trkpt>
      <trkpt lat="46.53428" lon="0.33686">
        <ele>105.40000152588</ele>
        <time>2019-05-12T10:43:29.000Z</time>
      </trkpt>
      <trkpt lat="46.53437" lon="0.33662">
        <ele>105.80000305176</ele>
        <time>2019-05-12T10:43:36.000Z</time>
      </trkpt>
      <trkpt lat="46.53445" lon="0.33633">
        <ele>106.40000152588</ele>
        <time>2019-05-12T10:43:43.000Z</time>
      </trkpt>
      <trkpt lat="46.53446" lon="0.33629">
        <ele>106.40000152588</ele>
        <time>2019-05-12T10:43:44.000Z</time>
      </trkpt>
      <trkpt lat="46.53452" lon="0.33595">
        <ele>106.80000305176</ele>
        <time>2019-05-12T10:43:52.000Z</time>
      </trkpt>
      <trkpt lat="46.53445" lon="0.33577">
        <ele>107.19999694824</ele>
        <time>2019-05-12T10:43:56.000Z</time>
      </trkpt>
      <trkpt lat="46.53442" lon="0.33574">
        <ele>107.40000152588</ele>
        <time>2019-05-12T10:43:57.000Z</time>
      </trkpt>
      <trkpt lat="46.53421" lon="0.33553">
        <ele>107.80000305176</ele>
        <time>2019-05-12T10:44:04.000Z</time>
      </trkpt>
      <trkpt lat="46.53414" lon="0.3354">
        <ele>108</ele>
        <time>2019-05-12T10:44:07.000Z</time>
      </trkpt>
      <trkpt lat="46.53415" lon="0.33536">
        <ele>107.80000305176</ele>
        <time>2019-05-12T10:44:08.000Z</time>
      </trkpt>
      <trkpt lat="46.53426" lon="0.33531">
        <ele>107.80000305176</ele>
        <time>2019-05-12T10:44:11.000Z</time>
      </trkpt>
      <trkpt lat="46.53438" lon="0.33529">
        <ele>107.19999694824</ele>
        <time>2019-05-12T10:44:14.000Z</time>
      </trkpt>
      <trkpt lat="46.5345" lon="0.33525">
        <ele>107.19999694824</ele>
        <time>2019-05-12T10:44:17.000Z</time>
      </trkpt>
      <trkpt lat="46.53478" lon="0.33517">
        <ele>107.19999694824</ele>
        <time>2019-05-12T10:44:23.000Z</time>
      </trkpt>
      <trkpt lat="46.53494" lon="0.3351">
        <ele>107.40000152588</ele>
        <time>2019-05-12T10:44:27.000Z</time>
      </trkpt>
      <trkpt lat="46.53507" lon="0.33503">
        <ele>108.19999694824</ele>
        <time>2019-05-12T10:44:31.000Z</time>
      </trkpt>
      <trkpt lat="46.53514" lon="0.33493">
        <ele>108.59999847412</ele>
        <time>2019-05-12T10:44:34.000Z</time>
      </trkpt>
      <trkpt lat="46.53515" lon="0.3349">
        <ele>108.59999847412</ele>
        <time>2019-05-12T10:44:35.000Z</time>
      </trkpt>
      <trkpt lat="46.53507" lon="0.33476">
        <ele>109.19999694824</ele>
        <time>2019-05-12T10:44:39.000Z</time>
      </trkpt>
      <trkpt lat="46.53497" lon="0.33459">
        <ele>109.40000152588</ele>
        <time>2019-05-12T10:44:43.000Z</time>
      </trkpt>
      <trkpt lat="46.53492" lon="0.33449">
        <ele>109.59999847412</ele>
        <time>2019-05-12T10:44:45.000Z</time>
      </trkpt>
      <trkpt lat="46.53484" lon="0.33418">
        <ele>110.19999694824</ele>
        <time>2019-05-12T10:44:51.000Z</time>
      </trkpt>
      <trkpt lat="46.53475" lon="0.33383">
        <ele>110.40000152588</ele>
        <time>2019-05-12T10:44:57.000Z</time>
      </trkpt>
      <trkpt lat="46.53474" lon="0.33377">
        <ele>110.59999847412</ele>
        <time>2019-05-12T10:44:58.000Z</time>
      </trkpt>
      <trkpt lat="46.5347" lon="0.33344">
        <ele>111</ele>
        <time>2019-05-12T10:45:04.000Z</time>
      </trkpt>
      <trkpt lat="46.53469" lon="0.33338">
        <ele>111.19999694824</ele>
        <time>2019-05-12T10:45:05.000Z</time>
      </trkpt>
      <trkpt lat="46.53465" lon="0.33321">
        <ele>111.19999694824</ele>
        <time>2019-05-12T10:45:08.000Z</time>
      </trkpt>
      <trkpt lat="46.53466" lon="0.33295">
        <ele>111</ele>
        <time>2019-05-12T10:45:12.000Z</time>
      </trkpt>
      <trkpt lat="46.53466" lon="0.33289">
        <ele>111.19999694824</ele>
        <time>2019-05-12T10:45:13.000Z</time>
      </trkpt>
      <trkpt lat="46.53463" lon="0.33265">
        <ele>111.59999847412</ele>
        <time>2019-05-12T10:45:17.000Z</time>
      </trkpt>
      <trkpt lat="46.53462" lon="0.33259">
        <ele>111.80000305176</ele>
        <time>2019-05-12T10:45:18.000Z</time>
      </trkpt>
      <trkpt lat="46.53461" lon="0.33254">
        <ele>111.80000305176</ele>
        <time>2019-05-12T10:45:19.000Z</time>
      </trkpt>
      <trkpt lat="46.53457" lon="0.33223">
        <ele>111.80000305176</ele>
        <time>2019-05-12T10:45:24.000Z</time>
      </trkpt>
      <trkpt lat="46.53454" lon="0.33196">
        <ele>111.80000305176</ele>
        <time>2019-05-12T10:45:28.000Z</time>
      </trkpt>
      <trkpt lat="46.53453" lon="0.3319">
        <ele>111.80000305176</ele>
        <time>2019-05-12T10:45:29.000Z</time>
      </trkpt>
      <trkpt lat="46.53446" lon="0.33166">
        <ele>112</ele>
        <time>2019-05-12T10:45:33.000Z</time>
      </trkpt>
      <trkpt lat="46.53439" lon="0.33148">
        <ele>112</ele>
        <time>2019-05-12T10:45:36.000Z</time>
      </trkpt>
      <trkpt lat="46.53433" lon="0.33139">
        <ele>110.80000305176</ele>
        <time>2019-05-12T10:45:38.000Z</time>
      </trkpt>
      <trkpt lat="46.53432" lon="0.33136">
        <ele>110.40000152588</ele>
        <time>2019-05-12T10:45:39.000Z</time>
      </trkpt>
      <trkpt lat="46.53434" lon="0.33129">
        <ele>109.80000305176</ele>
        <time>2019-05-12T10:45:41.000Z</time>
      </trkpt>
      <trkpt lat="46.53434" lon="0.33124">
        <ele>109.59999847412</ele>
        <time>2019-05-12T10:45:42.000Z</time>
      </trkpt>
      <trkpt lat="46.53435" lon="0.33113">
        <ele>109.19999694824</ele>
        <time>2019-05-12T10:45:44.000Z</time>
      </trkpt>
      <trkpt lat="46.53433" lon="0.33108">
        <ele>109</ele>
        <time>2019-05-12T10:45:45.000Z</time>
      </trkpt>
      <trkpt lat="46.53429" lon="0.3309">
        <ele>109</ele>
        <time>2019-05-12T10:45:49.000Z</time>
      </trkpt>
      <trkpt lat="46.53428" lon="0.33087">
        <ele>109.19999694824</ele>
        <time>2019-05-12T10:45:50.000Z</time>
      </trkpt>
      <trkpt lat="46.5342" lon="0.33082">
        <ele>110</ele>
        <time>2019-05-12T10:45:53.000Z</time>
      </trkpt>
      <trkpt lat="46.53418" lon="0.3308">
        <ele>110.40000152588</ele>
        <time>2019-05-12T10:45:54.000Z</time>
      </trkpt>
      <trkpt lat="46.53411" lon="0.33075">
        <ele>111.59999847412</ele>
        <time>2019-05-12T10:45:57.000Z</time>
      </trkpt>
      <trkpt lat="46.53409" lon="0.33075">
        <ele>111.80000305176</ele>
        <time>2019-05-12T10:45:58.000Z</time>
      </trkpt>
      <trkpt lat="46.53399" lon="0.3307">
        <ele>112.59999847412</ele>
        <time>2019-05-12T10:46:02.000Z</time>
      </trkpt>
      <trkpt lat="46.53398" lon="0.33069">
        <ele>112.80000305176</ele>
        <time>2019-05-12T10:46:03.000Z</time>
      </trkpt>
      <trkpt lat="46.53397" lon="0.33069">
        <ele>112.80000305176</ele>
        <time>2019-05-12T10:46:04.000Z</time>
      </trkpt>
      <trkpt lat="46.53386" lon="0.3304">
        <ele>115.80000305176</ele>
        <time>2019-05-12T10:46:33.000Z</time>
      </trkpt>
      <trkpt lat="46.53385" lon="0.33033">
        <ele>116</ele>
        <time>2019-05-12T10:46:36.000Z</time>
      </trkpt>
      <trkpt lat="46.53382" lon="0.33022">
        <ele>117</ele>
        <time>2019-05-12T10:46:40.000Z</time>
      </trkpt>
      <trkpt lat="46.53381" lon="0.3302">
        <ele>117.19999694824</ele>
        <time>2019-05-12T10:46:41.000Z</time>
      </trkpt>
      <trkpt lat="46.53378" lon="0.33012">
        <ele>117.59999847412</ele>
        <time>2019-05-12T10:46:44.000Z</time>
      </trkpt>
      <trkpt lat="46.53377" lon="0.33005">
        <ele>118</ele>
        <time>2019-05-12T10:46:46.000Z</time>
      </trkpt>
      <trkpt lat="46.53377" lon="0.33003">
        <ele>118</ele>
        <time>2019-05-12T10:46:47.000Z</time>
      </trkpt>
      <trkpt lat="46.53375" lon="0.32994">
        <ele>119</ele>
        <time>2019-05-12T10:46:50.000Z</time>
      </trkpt>
      <trkpt lat="46.53374" lon="0.32984">
        <ele>119.40000152588</ele>
        <time>2019-05-12T10:46:54.000Z</time>
      </trkpt>
      <trkpt lat="46.53372" lon="0.32977">
        <ele>119.59999847412</ele>
        <time>2019-05-12T10:46:56.000Z</time>
      </trkpt>
      <trkpt lat="46.53372" lon="0.32968">
        <ele>119.59999847412</ele>
        <time>2019-05-12T10:46:59.000Z</time>
      </trkpt>
      <trkpt lat="46.53373" lon="0.32964">
        <ele>119.80000305176</ele>
        <time>2019-05-12T10:47:00.000Z</time>
      </trkpt>
      <trkpt lat="46.53374" lon="0.32958">
        <ele>119.80000305176</ele>
        <time>2019-05-12T10:47:02.000Z</time>
      </trkpt>
      <trkpt lat="46.53372" lon="0.32954">
        <ele>120.19999694824</ele>
        <time>2019-05-12T10:47:04.000Z</time>
      </trkpt>
      <trkpt lat="46.53368" lon="0.32958">
        <ele>120</ele>
        <time>2019-05-12T10:47:07.000Z</time>
      </trkpt>
      <trkpt lat="46.53362" lon="0.32961">
        <ele>119.80000305176</ele>
        <time>2019-05-12T10:47:11.000Z</time>
      </trkpt>
      <trkpt lat="46.5336" lon="0.32964">
        <ele>120</ele>
        <time>2019-05-12T10:47:12.000Z</time>
      </trkpt>
      <trkpt lat="46.53351" lon="0.3297">
        <ele>120.19999694824</ele>
        <time>2019-05-12T10:47:16.000Z</time>
      </trkpt>
      <trkpt lat="46.53349" lon="0.32972">
        <ele>120</ele>
        <time>2019-05-12T10:47:17.000Z</time>
      </trkpt>
      <trkpt lat="46.53343" lon="0.32979">
        <ele>119.80000305176</ele>
        <time>2019-05-12T10:47:20.000Z</time>
      </trkpt>
      <trkpt lat="46.53341" lon="0.32982">
        <ele>119.59999847412</ele>
        <time>2019-05-12T10:47:21.000Z</time>
      </trkpt>
      <trkpt lat="46.53338" lon="0.32987">
        <ele>119.59999847412</ele>
        <time>2019-05-12T10:47:22.000Z</time>
      </trkpt>
      <trkpt lat="46.53332" lon="0.32991">
        <ele>119.40000152588</ele>
        <time>2019-05-12T10:47:24.000Z</time>
      </trkpt>
      <trkpt lat="46.53314" lon="0.32999">
        <ele>119.59999847412</ele>
        <time>2019-05-12T10:47:29.000Z</time>
      </trkpt>
      <trkpt lat="46.53302" lon="0.32998">
        <ele>119.59999847412</ele>
        <time>2019-05-12T10:47:32.000Z</time>
      </trkpt>
      <trkpt lat="46.53298" lon="0.32998">
        <ele>119.59999847412</ele>
        <time>2019-05-12T10:47:33.000Z</time>
      </trkpt>
      <trkpt lat="46.53282" lon="0.32997">
        <ele>119.40000152588</ele>
        <time>2019-05-12T10:47:37.000Z</time>
      </trkpt>
      <trkpt lat="46.53275" lon="0.32994">
        <ele>119.19999694824</ele>
        <time>2019-05-12T10:47:39.000Z</time>
      </trkpt>
      <trkpt lat="46.53267" lon="0.32988">
        <ele>119.59999847412</ele>
        <time>2019-05-12T10:47:42.000Z</time>
      </trkpt>
      <trkpt lat="46.53251" lon="0.32981">
        <ele>120</ele>
        <time>2019-05-12T10:47:46.000Z</time>
      </trkpt>
      <trkpt lat="46.53231" lon="0.32989">
        <ele>120</ele>
        <time>2019-05-12T10:47:51.000Z</time>
      </trkpt>
      <trkpt lat="46.5321" lon="0.3299">
        <ele>119.59999847412</ele>
        <time>2019-05-12T10:47:56.000Z</time>
      </trkpt>
      <trkpt lat="46.53197" lon="0.32998">
        <ele>119.80000305176</ele>
        <time>2019-05-12T10:48:01.000Z</time>
      </trkpt>
      <trkpt lat="46.53192" lon="0.33019">
        <ele>119.80000305176</ele>
        <time>2019-05-12T10:48:06.000Z</time>
      </trkpt>
      <trkpt lat="46.53191" lon="0.33022">
        <ele>119.80000305176</ele>
        <time>2019-05-12T10:48:07.000Z</time>
      </trkpt>
      <trkpt lat="46.53187" lon="0.33032">
        <ele>120</ele>
        <time>2019-05-12T10:48:10.000Z</time>
      </trkpt>
      <trkpt lat="46.53184" lon="0.33035">
        <ele>120</ele>
        <time>2019-05-12T10:48:11.000Z</time>
      </trkpt>
      <trkpt lat="46.53164" lon="0.33044">
        <ele>119.40000152588</ele>
        <time>2019-05-12T10:48:16.000Z</time>
      </trkpt>
      <trkpt lat="46.53139" lon="0.33054">
        <ele>119.40000152588</ele>
        <time>2019-05-12T10:48:21.000Z</time>
      </trkpt>
      <trkpt lat="46.53124" lon="0.33057">
        <ele>119.80000305176</ele>
        <time>2019-05-12T10:48:24.000Z</time>
      </trkpt>
      <trkpt lat="46.53114" lon="0.33059">
        <ele>119.80000305176</ele>
        <time>2019-05-12T10:48:26.000Z</time>
      </trkpt>
      <trkpt lat="46.53103" lon="0.33063">
        <ele>119.59999847412</ele>
        <time>2019-05-12T10:48:28.000Z</time>
      </trkpt>
      <trkpt lat="46.53094" lon="0.33067">
        <ele>119.59999847412</ele>
        <time>2019-05-12T10:48:30.000Z</time>
      </trkpt>
      <trkpt lat="46.53084" lon="0.33067">
        <ele>119.40000152588</ele>
        <time>2019-05-12T10:48:32.000Z</time>
      </trkpt>
      <trkpt lat="46.53075" lon="0.33068">
        <ele>119.40000152588</ele>
        <time>2019-05-12T10:48:34.000Z</time>
      </trkpt>
      <trkpt lat="46.5307" lon="0.33069">
        <ele>119.40000152588</ele>
        <time>2019-05-12T10:48:35.000Z</time>
      </trkpt>
      <trkpt lat="46.5306" lon="0.33075">
        <ele>119.59999847412</ele>
        <time>2019-05-12T10:48:37.000Z</time>
      </trkpt>
      <trkpt lat="46.53049" lon="0.33081">
        <ele>119.40000152588</ele>
        <time>2019-05-12T10:48:39.000Z</time>
      </trkpt>
      <trkpt lat="46.53044" lon="0.33083">
        <ele>119.59999847412</ele>
        <time>2019-05-12T10:48:40.000Z</time>
      </trkpt>
      <trkpt lat="46.53039" lon="0.33085">
        <ele>119.40000152588</ele>
        <time>2019-05-12T10:48:41.000Z</time>
      </trkpt>
      <trkpt lat="46.53028" lon="0.33091">
        <ele>119.40000152588</ele>
        <time>2019-05-12T10:48:43.000Z</time>
      </trkpt>
      <trkpt lat="46.53022" lon="0.33092">
        <ele>119.19999694824</ele>
        <time>2019-05-12T10:48:44.000Z</time>
      </trkpt>
      <trkpt lat="46.53005" lon="0.33096">
        <ele>118.59999847412</ele>
        <time>2019-05-12T10:48:47.000Z</time>
      </trkpt>
      <trkpt lat="46.52998" lon="0.33099">
        <ele>118.40000152588</ele>
        <time>2019-05-12T10:48:48.000Z</time>
      </trkpt>
      <trkpt lat="46.52978" lon="0.33106">
        <ele>117.59999847412</ele>
        <time>2019-05-12T10:48:51.000Z</time>
      </trkpt>
      <trkpt lat="46.52972" lon="0.33107">
        <ele>117.19999694824</ele>
        <time>2019-05-12T10:48:52.000Z</time>
      </trkpt>
      <trkpt lat="46.52957" lon="0.33109">
        <ele>116.59999847412</ele>
        <time>2019-05-12T10:48:54.000Z</time>
      </trkpt>
      <trkpt lat="46.5295" lon="0.33111">
        <ele>116.19999694824</ele>
        <time>2019-05-12T10:48:55.000Z</time>
      </trkpt>
      <trkpt lat="46.52942" lon="0.33115">
        <ele>115.80000305176</ele>
        <time>2019-05-12T10:48:56.000Z</time>
      </trkpt>
      <trkpt lat="46.5292" lon="0.33124">
        <ele>114.59999847412</ele>
        <time>2019-05-12T10:48:59.000Z</time>
      </trkpt>
      <trkpt lat="46.52904" lon="0.33131">
        <ele>113.40000152588</ele>
        <time>2019-05-12T10:49:01.000Z</time>
      </trkpt>
      <trkpt lat="46.52896" lon="0.33134">
        <ele>113.19999694824</ele>
        <time>2019-05-12T10:49:02.000Z</time>
      </trkpt>
      <trkpt lat="46.52873" lon="0.3314">
        <ele>112.59999847412</ele>
        <time>2019-05-12T10:49:05.000Z</time>
      </trkpt>
      <trkpt lat="46.52865" lon="0.33142">
        <ele>111.80000305176</ele>
        <time>2019-05-12T10:49:06.000Z</time>
      </trkpt>
      <trkpt lat="46.52849" lon="0.33148">
        <ele>110.40000152588</ele>
        <time>2019-05-12T10:49:08.000Z</time>
      </trkpt>
      <trkpt lat="46.5284" lon="0.33151">
        <ele>109.40000152588</ele>
        <time>2019-05-12T10:49:09.000Z</time>
      </trkpt>
      <trkpt lat="46.52831" lon="0.33154">
        <ele>108.59999847412</ele>
        <time>2019-05-12T10:49:10.000Z</time>
      </trkpt>
      <trkpt lat="46.52823" lon="0.33155">
        <ele>107.80000305176</ele>
        <time>2019-05-12T10:49:11.000Z</time>
      </trkpt>
      <trkpt lat="46.52808" lon="0.33162">
        <ele>106.59999847412</ele>
        <time>2019-05-12T10:49:13.000Z</time>
      </trkpt>
      <trkpt lat="46.528" lon="0.33166">
        <ele>105.40000152588</ele>
        <time>2019-05-12T10:49:15.000Z</time>
      </trkpt>
      <trkpt lat="46.52798" lon="0.33164">
        <ele>104.40000152588</ele>
        <time>2019-05-12T10:49:17.000Z</time>
      </trkpt>
      <trkpt lat="46.52797" lon="0.33163">
        <ele>103.40000152588</ele>
        <time>2019-05-12T10:49:19.000Z</time>
      </trkpt>
      <trkpt lat="46.52797" lon="0.33163">
        <ele>103.19999694824</ele>
        <time>2019-05-12T10:49:20.000Z</time>
      </trkpt>
      <trkpt lat="46.52793" lon="0.3316">
        <ele>103.19999694824</ele>
        <time>2019-05-12T10:49:25.000Z</time>
      </trkpt>
      <trkpt lat="46.52792" lon="0.33142">
        <ele>104.59999847412</ele>
        <time>2019-05-12T10:49:32.000Z</time>
      </trkpt>
      <trkpt lat="46.52791" lon="0.33129">
        <ele>105.59999847412</ele>
        <time>2019-05-12T10:49:36.000Z</time>
      </trkpt>
      <trkpt lat="46.5279" lon="0.33123">
        <ele>106</ele>
        <time>2019-05-12T10:49:38.000Z</time>
      </trkpt>
      <trkpt lat="46.52788" lon="0.33111">
        <ele>106.80000305176</ele>
        <time>2019-05-12T10:49:42.000Z</time>
      </trkpt>
      <trkpt lat="46.52787" lon="0.33103">
        <ele>107.19999694824</ele>
        <time>2019-05-12T10:49:44.000Z</time>
      </trkpt>
      <trkpt lat="46.52786" lon="0.33089">
        <ele>107.80000305176</ele>
        <time>2019-05-12T10:49:48.000Z</time>
      </trkpt>
      <trkpt lat="46.52785" lon="0.33082">
        <ele>108.40000152588</ele>
        <time>2019-05-12T10:49:50.000Z</time>
      </trkpt>
      <trkpt lat="46.52783" lon="0.33067">
        <ele>109</ele>
        <time>2019-05-12T10:49:54.000Z</time>
      </trkpt>
      <trkpt lat="46.52782" lon="0.33056">
        <ele>109.59999847412</ele>
        <time>2019-05-12T10:49:57.000Z</time>
      </trkpt>
      <trkpt lat="46.52781" lon="0.33049">
        <ele>110</ele>
        <time>2019-05-12T10:49:59.000Z</time>
      </trkpt>
      <trkpt lat="46.52779" lon="0.33038">
        <ele>110.80000305176</ele>
        <time>2019-05-12T10:50:02.000Z</time>
      </trkpt>
      <trkpt lat="46.52776" lon="0.33021">
        <ele>111.19999694824</ele>
        <time>2019-05-12T10:50:07.000Z</time>
      </trkpt>
      <trkpt lat="46.52775" lon="0.33015">
        <ele>111.40000152588</ele>
        <time>2019-05-12T10:50:09.000Z</time>
      </trkpt>
      <trkpt lat="46.52773" lon="0.32997">
        <ele>112.19999694824</ele>
        <time>2019-05-12T10:50:14.000Z</time>
      </trkpt>
      <trkpt lat="46.52772" lon="0.32989">
        <ele>112.40000152588</ele>
        <time>2019-05-12T10:50:16.000Z</time>
      </trkpt>
      <trkpt lat="46.52768" lon="0.32966">
        <ele>113</ele>
        <time>2019-05-12T10:50:22.000Z</time>
      </trkpt>
      <trkpt lat="46.52768" lon="0.3296">
        <ele>113.40000152588</ele>
        <time>2019-05-12T10:50:24.000Z</time>
      </trkpt>
      <trkpt lat="46.52767" lon="0.32946">
        <ele>113.59999847412</ele>
        <time>2019-05-12T10:50:28.000Z</time>
      </trkpt>
      <trkpt lat="46.52763" lon="0.32927">
        <ele>113.80000305176</ele>
        <time>2019-05-12T10:50:33.000Z</time>
      </trkpt>
      <trkpt lat="46.52762" lon="0.32907">
        <ele>114</ele>
        <time>2019-05-12T10:50:38.000Z</time>
      </trkpt>
      <trkpt lat="46.52761" lon="0.32895">
        <ele>114.40000152588</ele>
        <time>2019-05-12T10:50:41.000Z</time>
      </trkpt>
      <trkpt lat="46.52761" lon="0.32888">
        <ele>114.59999847412</ele>
        <time>2019-05-12T10:50:43.000Z</time>
      </trkpt>
      <trkpt lat="46.52763" lon="0.32865">
        <ele>114.80000305176</ele>
        <time>2019-05-12T10:50:49.000Z</time>
      </trkpt>
      <trkpt lat="46.52762" lon="0.32839">
        <ele>115.19999694824</ele>
        <time>2019-05-12T10:50:55.000Z</time>
      </trkpt>
      <trkpt lat="46.52757" lon="0.32807">
        <ele>115.40000152588</ele>
        <time>2019-05-12T10:51:02.000Z</time>
      </trkpt>
      <trkpt lat="46.52756" lon="0.32779">
        <ele>115.59999847412</ele>
        <time>2019-05-12T10:51:08.000Z</time>
      </trkpt>
      <trkpt lat="46.52753" lon="0.32752">
        <ele>116</ele>
        <time>2019-05-12T10:51:14.000Z</time>
      </trkpt>
      <trkpt lat="46.52752" lon="0.32738">
        <ele>116</ele>
        <time>2019-05-12T10:51:17.000Z</time>
      </trkpt>
      <trkpt lat="46.52751" lon="0.32723">
        <ele>116.19999694824</ele>
        <time>2019-05-12T10:51:20.000Z</time>
      </trkpt>
      <trkpt lat="46.5275" lon="0.32697">
        <ele>116.59999847412</ele>
        <time>2019-05-12T10:51:25.000Z</time>
      </trkpt>
      <trkpt lat="46.52744" lon="0.32666">
        <ele>116.59999847412</ele>
        <time>2019-05-12T10:51:31.000Z</time>
      </trkpt>
      <trkpt lat="46.5274" lon="0.32629">
        <ele>116.59999847412</ele>
        <time>2019-05-12T10:51:38.000Z</time>
      </trkpt>
      <trkpt lat="46.52733" lon="0.32597">
        <ele>116.19999694824</ele>
        <time>2019-05-12T10:51:44.000Z</time>
      </trkpt>
      <trkpt lat="46.52724" lon="0.32594">
        <ele>116.19999694824</ele>
        <time>2019-05-12T10:51:47.000Z</time>
      </trkpt>
      <trkpt lat="46.52709" lon="0.32592">
        <ele>116</ele>
        <time>2019-05-12T10:51:51.000Z</time>
      </trkpt>
      <trkpt lat="46.52697" lon="0.32579">
        <ele>115.59999847412</ele>
        <time>2019-05-12T10:51:55.000Z</time>
      </trkpt>
      <trkpt lat="46.5268" lon="0.32567">
        <ele>115.40000152588</ele>
        <time>2019-05-12T10:52:00.000Z</time>
      </trkpt>
      <trkpt lat="46.52653" lon="0.32556">
        <ele>115</ele>
        <time>2019-05-12T10:52:07.000Z</time>
      </trkpt>
      <trkpt lat="46.5265" lon="0.32553">
        <ele>114.80000305176</ele>
        <time>2019-05-12T10:52:08.000Z</time>
      </trkpt>
      <trkpt lat="46.52642" lon="0.32542">
        <ele>114.59999847412</ele>
        <time>2019-05-12T10:52:11.000Z</time>
      </trkpt>
      <trkpt lat="46.52628" lon="0.32532">
        <ele>115</ele>
        <time>2019-05-12T10:52:15.000Z</time>
      </trkpt>
      <trkpt lat="46.52623" lon="0.3253">
        <ele>114.80000305176</ele>
        <time>2019-05-12T10:52:16.000Z</time>
      </trkpt>
      <trkpt lat="46.52612" lon="0.32522">
        <ele>114.19999694824</ele>
        <time>2019-05-12T10:52:19.000Z</time>
      </trkpt>
      <trkpt lat="46.5261" lon="0.32515">
        <ele>113.80000305176</ele>
        <time>2019-05-12T10:52:21.000Z</time>
      </trkpt>
      <trkpt lat="46.52611" lon="0.32514">
        <ele>113.80000305176</ele>
        <time>2019-05-12T10:52:22.000Z</time>
      </trkpt>
      <trkpt lat="46.52618" lon="0.32511">
        <ele>114.19999694824</ele>
        <time>2019-05-12T10:52:26.000Z</time>
      </trkpt>
      <trkpt lat="46.52621" lon="0.3251">
        <ele>114.19999694824</ele>
        <time>2019-05-12T10:52:27.000Z</time>
      </trkpt>
      <trkpt lat="46.52627" lon="0.32507">
        <ele>115</ele>
        <time>2019-05-12T10:52:30.000Z</time>
      </trkpt>
      <trkpt lat="46.52632" lon="0.32501">
        <ele>115.40000152588</ele>
        <time>2019-05-12T10:52:32.000Z</time>
      </trkpt>
      <trkpt lat="46.52634" lon="0.32492">
        <ele>115.40000152588</ele>
        <time>2019-05-12T10:52:34.000Z</time>
      </trkpt>
      <trkpt lat="46.52635" lon="0.32475">
        <ele>115.59999847412</ele>
        <time>2019-05-12T10:52:38.000Z</time>
      </trkpt>
      <trkpt lat="46.52636" lon="0.32461">
        <ele>116</ele>
        <time>2019-05-12T10:52:41.000Z</time>
      </trkpt>
      <trkpt lat="46.52636" lon="0.32452">
        <ele>116.19999694824</ele>
        <time>2019-05-12T10:52:43.000Z</time>
      </trkpt>
      <trkpt lat="46.52638" lon="0.32426">
        <ele>117</ele>
        <time>2019-05-12T10:52:49.000Z</time>
      </trkpt>
      <trkpt lat="46.52639" lon="0.32401">
        <ele>117.80000305176</ele>
        <time>2019-05-12T10:52:55.000Z</time>
      </trkpt>
      <trkpt lat="46.5264" lon="0.32393">
        <ele>118.19999694824</ele>
        <time>2019-05-12T10:52:57.000Z</time>
      </trkpt>
      <trkpt lat="46.52641" lon="0.32383">
        <ele>118.59999847412</ele>
        <time>2019-05-12T10:52:59.000Z</time>
      </trkpt>
      <trkpt lat="46.52642" lon="0.32359">
        <ele>119.40000152588</ele>
        <time>2019-05-12T10:53:04.000Z</time>
      </trkpt>
      <trkpt lat="46.52641" lon="0.3235">
        <ele>119.59999847412</ele>
        <time>2019-05-12T10:53:06.000Z</time>
      </trkpt>
      <trkpt lat="46.52642" lon="0.32333">
        <ele>120</ele>
        <time>2019-05-12T10:53:10.000Z</time>
      </trkpt>
      <trkpt lat="46.52643" lon="0.32312">
        <ele>120.19999694824</ele>
        <time>2019-05-12T10:53:15.000Z</time>
      </trkpt>
      <trkpt lat="46.52644" lon="0.32304">
        <ele>120.40000152588</ele>
        <time>2019-05-12T10:53:17.000Z</time>
      </trkpt>
      <trkpt lat="46.52645" lon="0.32291">
        <ele>120.59999847412</ele>
        <time>2019-05-12T10:53:20.000Z</time>
      </trkpt>
      <trkpt lat="46.52644" lon="0.32276">
        <ele>120.59999847412</ele>
        <time>2019-05-12T10:53:23.000Z</time>
      </trkpt>
      <trkpt lat="46.52641" lon="0.32273">
        <ele>120.59999847412</ele>
        <time>2019-05-12T10:53:24.000Z</time>
      </trkpt>
      <trkpt lat="46.52624" lon="0.32267">
        <ele>120.80000305176</ele>
        <time>2019-05-12T10:53:29.000Z</time>
      </trkpt>
      <trkpt lat="46.52595" lon="0.3226">
        <ele>120.19999694824</ele>
        <time>2019-05-12T10:53:36.000Z</time>
      </trkpt>
      <trkpt lat="46.52571" lon="0.32255">
        <ele>120.19999694824</ele>
        <time>2019-05-12T10:53:42.000Z</time>
      </trkpt>
      <trkpt lat="46.52549" lon="0.32257">
        <ele>120</ele>
        <time>2019-05-12T10:53:48.000Z</time>
      </trkpt>
      <trkpt lat="46.52548" lon="0.32245">
        <ele>120.19999694824</ele>
        <time>2019-05-12T10:53:52.000Z</time>
      </trkpt>
      <trkpt lat="46.52554" lon="0.32233">
        <ele>121</ele>
        <time>2019-05-12T10:53:56.000Z</time>
      </trkpt>
      <trkpt lat="46.52549" lon="0.32224">
        <ele>121</ele>
        <time>2019-05-12T10:53:59.000Z</time>
      </trkpt>
      <trkpt lat="46.52545" lon="0.32222">
        <ele>120.80000305176</ele>
        <time>2019-05-12T10:54:00.000Z</time>
      </trkpt>
      <trkpt lat="46.52533" lon="0.3221">
        <ele>121</ele>
        <time>2019-05-12T10:54:04.000Z</time>
      </trkpt>
      <trkpt lat="46.52527" lon="0.32207">
        <ele>121.19999694824</ele>
        <time>2019-05-12T10:54:06.000Z</time>
      </trkpt>
      <trkpt lat="46.52524" lon="0.32201">
        <ele>121.40000152588</ele>
        <time>2019-05-12T10:54:08.000Z</time>
      </trkpt>
      <trkpt lat="46.52525" lon="0.32191">
        <ele>121.19999694824</ele>
        <time>2019-05-12T10:54:10.000Z</time>
      </trkpt>
      <trkpt lat="46.52527" lon="0.32177">
        <ele>121.59999847412</ele>
        <time>2019-05-12T10:54:14.000Z</time>
      </trkpt>
      <trkpt lat="46.5254" lon="0.32151">
        <ele>122</ele>
        <time>2019-05-12T10:54:22.000Z</time>
      </trkpt>
      <trkpt lat="46.52542" lon="0.32138">
        <ele>122.40000152588</ele>
        <time>2019-05-12T10:54:25.000Z</time>
      </trkpt>
      <trkpt lat="46.52543" lon="0.32133">
        <ele>122.40000152588</ele>
        <time>2019-05-12T10:54:26.000Z</time>
      </trkpt>
      <trkpt lat="46.52546" lon="0.32115">
        <ele>122.40000152588</ele>
        <time>2019-05-12T10:54:30.000Z</time>
      </trkpt>
      <trkpt lat="46.52548" lon="0.32111">
        <ele>122.19999694824</ele>
        <time>2019-05-12T10:54:31.000Z</time>
      </trkpt>
      <trkpt lat="46.52558" lon="0.3211">
        <ele>121.59999847412</ele>
        <time>2019-05-12T10:54:34.000Z</time>
      </trkpt>
      <trkpt lat="46.52573" lon="0.32111">
        <ele>122</ele>
        <time>2019-05-12T10:54:39.000Z</time>
      </trkpt>
      <trkpt lat="46.52586" lon="0.32114">
        <ele>121.40000152588</ele>
        <time>2019-05-12T10:54:43.000Z</time>
      </trkpt>
      <trkpt lat="46.52595" lon="0.32115">
        <ele>121.19999694824</ele>
        <time>2019-05-12T10:54:46.000Z</time>
      </trkpt>
      <trkpt lat="46.52599" lon="0.32114">
        <ele>121</ele>
        <time>2019-05-12T10:54:48.000Z</time>
      </trkpt>
      <trkpt lat="46.52601" lon="0.32112">
        <ele>120.80000305176</ele>
        <time>2019-05-12T10:54:49.000Z</time>
      </trkpt>
      <trkpt lat="46.52609" lon="0.32105">
        <ele>121</ele>
        <time>2019-05-12T10:54:53.000Z</time>
      </trkpt>
      <trkpt lat="46.52627" lon="0.32093">
        <ele>120.40000152588</ele>
        <time>2019-05-12T10:54:59.000Z</time>
      </trkpt>
      <trkpt lat="46.52629" lon="0.32093">
        <ele>120</ele>
        <time>2019-05-12T10:55:00.000Z</time>
      </trkpt>
      <trkpt lat="46.52634" lon="0.32094">
        <ele>119.80000305176</ele>
        <time>2019-05-12T10:55:02.000Z</time>
      </trkpt>
      <trkpt lat="46.52636" lon="0.32093">
        <ele>119.80000305176</ele>
        <time>2019-05-12T10:55:03.000Z</time>
      </trkpt>
      <trkpt lat="46.52646" lon="0.32089">
        <ele>119.80000305176</ele>
        <time>2019-05-12T10:55:07.000Z</time>
      </trkpt>
      <trkpt lat="46.52649" lon="0.32087">
        <ele>119.59999847412</ele>
        <time>2019-05-12T10:55:08.000Z</time>
      </trkpt>
      <trkpt lat="46.52654" lon="0.32081">
        <ele>119.19999694824</ele>
        <time>2019-05-12T10:55:11.000Z</time>
      </trkpt>
      <trkpt lat="46.52656" lon="0.32079">
        <ele>118.80000305176</ele>
        <time>2019-05-12T10:55:13.000Z</time>
      </trkpt>
      <trkpt lat="46.52684" lon="0.32025">
        <ele>116.80000305176</ele>
        <time>2019-05-12T10:55:55.000Z</time>
      </trkpt>
      <trkpt lat="46.52685" lon="0.32023">
        <ele>116.80000305176</ele>
        <time>2019-05-12T10:55:56.000Z</time>
      </trkpt>
      <trkpt lat="46.52691" lon="0.3201">
        <ele>116.40000152588</ele>
        <time>2019-05-12T10:56:01.000Z</time>
      </trkpt>
      <trkpt lat="46.5269" lon="0.32006">
        <ele>115.80000305176</ele>
        <time>2019-05-12T10:56:04.000Z</time>
      </trkpt>
      <trkpt lat="46.52688" lon="0.31998">
        <ele>115</ele>
        <time>2019-05-12T10:56:25.000Z</time>
      </trkpt>
      <trkpt lat="46.5268" lon="0.31982">
        <ele>115.19999694824</ele>
        <time>2019-05-12T10:56:29.000Z</time>
      </trkpt>
      <trkpt lat="46.52668" lon="0.31961">
        <ele>114.59999847412</ele>
        <time>2019-05-12T10:56:34.000Z</time>
      </trkpt>
      <trkpt lat="46.52667" lon="0.31951">
        <ele>114.59999847412</ele>
        <time>2019-05-12T10:56:36.000Z</time>
      </trkpt>
      <trkpt lat="46.52668" lon="0.31947">
        <ele>114.59999847412</ele>
        <time>2019-05-12T10:56:37.000Z</time>
      </trkpt>
      <trkpt lat="46.52681" lon="0.31936">
        <ele>114</ele>
        <time>2019-05-12T10:56:41.000Z</time>
      </trkpt>
      <trkpt lat="46.52685" lon="0.31933">
        <ele>113.59999847412</ele>
        <time>2019-05-12T10:56:42.000Z</time>
      </trkpt>
      <trkpt lat="46.5269" lon="0.3193">
        <ele>113.40000152588</ele>
        <time>2019-05-12T10:56:43.000Z</time>
      </trkpt>
      <trkpt lat="46.52699" lon="0.31926">
        <ele>112.59999847412</ele>
        <time>2019-05-12T10:56:45.000Z</time>
      </trkpt>
      <trkpt lat="46.52703" lon="0.31922">
        <ele>112</ele>
        <time>2019-05-12T10:56:46.000Z</time>
      </trkpt>
      <trkpt lat="46.5272" lon="0.31903">
        <ele>110.80000305176</ele>
        <time>2019-05-12T10:56:49.000Z</time>
      </trkpt>
      <trkpt lat="46.52727" lon="0.31896">
        <ele>110.19999694824</ele>
        <time>2019-05-12T10:56:50.000Z</time>
      </trkpt>
      <trkpt lat="46.52734" lon="0.3189">
        <ele>109.59999847412</ele>
        <time>2019-05-12T10:56:51.000Z</time>
      </trkpt>
      <trkpt lat="46.52749" lon="0.3188">
        <ele>107.80000305176</ele>
        <time>2019-05-12T10:56:53.000Z</time>
      </trkpt>
      <trkpt lat="46.52756" lon="0.31876">
        <ele>106.40000152588</ele>
        <time>2019-05-12T10:56:54.000Z</time>
      </trkpt>
      <trkpt lat="46.52763" lon="0.31872">
        <ele>104.80000305176</ele>
        <time>2019-05-12T10:56:55.000Z</time>
      </trkpt>
      <trkpt lat="46.52768" lon="0.31868">
        <ele>103.59999847412</ele>
        <time>2019-05-12T10:56:56.000Z</time>
      </trkpt>
      <trkpt lat="46.52771" lon="0.31863">
        <ele>102.40000152588</ele>
        <time>2019-05-12T10:56:57.000Z</time>
      </trkpt>
      <trkpt lat="46.52772" lon="0.31859">
        <ele>101</ele>
        <time>2019-05-12T10:56:58.000Z</time>
      </trkpt>
      <trkpt lat="46.52771" lon="0.31848">
        <ele>99.400001525879</ele>
        <time>2019-05-12T10:57:00.000Z</time>
      </trkpt>
      <trkpt lat="46.52771" lon="0.31834">
        <ele>97.800003051758</ele>
        <time>2019-05-12T10:57:02.000Z</time>
      </trkpt>
      <trkpt lat="46.52773" lon="0.31817">
        <ele>96.599998474121</ele>
        <time>2019-05-12T10:57:04.000Z</time>
      </trkpt>
      <trkpt lat="46.52774" lon="0.31801">
        <ele>95.599998474121</ele>
        <time>2019-05-12T10:57:07.000Z</time>
      </trkpt>
      <trkpt lat="46.52773" lon="0.3179">
        <ele>96</ele>
        <time>2019-05-12T10:57:10.000Z</time>
      </trkpt>
      <trkpt lat="46.52772" lon="0.31785">
        <ele>96.800003051758</ele>
        <time>2019-05-12T10:57:11.000Z</time>
      </trkpt>
      <trkpt lat="46.52771" lon="0.31767">
        <ele>98.800003051758</ele>
        <time>2019-05-12T10:57:15.000Z</time>
      </trkpt>
      <trkpt lat="46.52771" lon="0.31758">
        <ele>100</ele>
        <time>2019-05-12T10:57:17.000Z</time>
      </trkpt>
      <trkpt lat="46.5277" lon="0.31754">
        <ele>100.19999694824</ele>
        <time>2019-05-12T10:57:18.000Z</time>
      </trkpt>
      <trkpt lat="46.5277" lon="0.31745">
        <ele>101</ele>
        <time>2019-05-12T10:57:21.000Z</time>
      </trkpt>
      <trkpt lat="46.5277" lon="0.31739">
        <ele>101.59999847412</ele>
        <time>2019-05-12T10:57:23.000Z</time>
      </trkpt>
      <trkpt lat="46.5277" lon="0.31727">
        <ele>102</ele>
        <time>2019-05-12T10:57:26.000Z</time>
      </trkpt>
      <trkpt lat="46.52769" lon="0.3172">
        <ele>103</ele>
        <time>2019-05-12T10:57:29.000Z</time>
      </trkpt>
      <trkpt lat="46.52769" lon="0.31717">
        <ele>103.40000152588</ele>
        <time>2019-05-12T10:57:30.000Z</time>
      </trkpt>
      <trkpt lat="46.52769" lon="0.31703">
        <ele>104.40000152588</ele>
        <time>2019-05-12T10:57:35.000Z</time>
      </trkpt>
      <trkpt lat="46.52767" lon="0.31699">
        <ele>104.59999847412</ele>
        <time>2019-05-12T10:57:36.000Z</time>
      </trkpt>
      <trkpt lat="46.52766" lon="0.31686">
        <ele>105.80000305176</ele>
        <time>2019-05-12T10:57:41.000Z</time>
      </trkpt>
      <trkpt lat="46.52766" lon="0.31684">
        <ele>106</ele>
        <time>2019-05-12T10:57:42.000Z</time>
      </trkpt>
      <trkpt lat="46.52767" lon="0.31679">
        <ele>106.59999847412</ele>
        <time>2019-05-12T10:57:44.000Z</time>
      </trkpt>
      <trkpt lat="46.52767" lon="0.31678">
        <ele>106.80000305176</ele>
        <time>2019-05-12T10:57:45.000Z</time>
      </trkpt>
      <trkpt lat="46.52769" lon="0.31673">
        <ele>107.40000152588</ele>
        <time>2019-05-12T10:57:48.000Z</time>
      </trkpt>
      <trkpt lat="46.52769" lon="0.31672">
        <ele>107.80000305176</ele>
        <time>2019-05-12T10:57:50.000Z</time>
      </trkpt>
      <trkpt lat="46.52771" lon="0.31668">
        <ele>108.80000305176</ele>
        <time>2019-05-12T10:57:54.000Z</time>
      </trkpt>
      <trkpt lat="46.52772" lon="0.31666">
        <ele>109</ele>
        <time>2019-05-12T10:57:55.000Z</time>
      </trkpt>
      <trkpt lat="46.52773" lon="0.31666">
        <ele>109.19999694824</ele>
        <time>2019-05-12T10:57:56.000Z</time>
      </trkpt>
      <trkpt lat="46.52777" lon="0.31659">
        <ele>109.80000305176</ele>
        <time>2019-05-12T10:57:59.000Z</time>
      </trkpt>
      <trkpt lat="46.52782" lon="0.31652">
        <ele>110.40000152588</ele>
        <time>2019-05-12T10:58:03.000Z</time>
      </trkpt>
      <trkpt lat="46.52784" lon="0.31647">
        <ele>110.80000305176</ele>
        <time>2019-05-12T10:58:05.000Z</time>
      </trkpt>
      <trkpt lat="46.52786" lon="0.31639">
        <ele>111.19999694824</ele>
        <time>2019-05-12T10:58:08.000Z</time>
      </trkpt>
      <trkpt lat="46.52787" lon="0.31636">
        <ele>111.40000152588</ele>
        <time>2019-05-12T10:58:09.000Z</time>
      </trkpt>
      <trkpt lat="46.52788" lon="0.31632">
        <ele>111.59999847412</ele>
        <time>2019-05-12T10:58:11.000Z</time>
      </trkpt>
      <trkpt lat="46.5279" lon="0.31622">
        <ele>112</ele>
        <time>2019-05-12T10:58:16.000Z</time>
      </trkpt>
      <trkpt lat="46.5279" lon="0.31619">
        <ele>112.19999694824</ele>
        <time>2019-05-12T10:58:17.000Z</time>
      </trkpt>
      <trkpt lat="46.52789" lon="0.31617">
        <ele>112.40000152588</ele>
        <time>2019-05-12T10:58:18.000Z</time>
      </trkpt>
      <trkpt lat="46.52791" lon="0.316">
        <ele>113</ele>
        <time>2019-05-12T10:58:24.000Z</time>
      </trkpt>
      <trkpt lat="46.52793" lon="0.31588">
        <ele>113.59999847412</ele>
        <time>2019-05-12T10:58:29.000Z</time>
      </trkpt>
      <trkpt lat="46.52795" lon="0.31583">
        <ele>114</ele>
        <time>2019-05-12T10:58:31.000Z</time>
      </trkpt>
      <trkpt lat="46.52795" lon="0.31575">
        <ele>114.19999694824</ele>
        <time>2019-05-12T10:58:34.000Z</time>
      </trkpt>
      <trkpt lat="46.52795" lon="0.31565">
        <ele>114.59999847412</ele>
        <time>2019-05-12T10:58:37.000Z</time>
      </trkpt>
      <trkpt lat="46.52794" lon="0.31561">
        <ele>114.80000305176</ele>
        <time>2019-05-12T10:58:38.000Z</time>
      </trkpt>
      <trkpt lat="46.52786" lon="0.31542">
        <ele>115.80000305176</ele>
        <time>2019-05-12T10:58:44.000Z</time>
      </trkpt>
      <trkpt lat="46.52785" lon="0.31539">
        <ele>116.19999694824</ele>
        <time>2019-05-12T10:58:45.000Z</time>
      </trkpt>
      <trkpt lat="46.52781" lon="0.3153">
        <ele>116.59999847412</ele>
        <time>2019-05-12T10:58:48.000Z</time>
      </trkpt>
      <trkpt lat="46.52775" lon="0.31521">
        <ele>117.19999694824</ele>
        <time>2019-05-12T10:58:52.000Z</time>
      </trkpt>
      <trkpt lat="46.5277" lon="0.31514">
        <ele>117.80000305176</ele>
        <time>2019-05-12T10:58:55.000Z</time>
      </trkpt>
      <trkpt lat="46.5276" lon="0.315">
        <ele>118.40000152588</ele>
        <time>2019-05-12T10:59:01.000Z</time>
      </trkpt>
      <trkpt lat="46.5275" lon="0.31482">
        <ele>119.19999694824</ele>
        <time>2019-05-12T10:59:07.000Z</time>
      </trkpt>
      <trkpt lat="46.52747" lon="0.31476">
        <ele>119.80000305176</ele>
        <time>2019-05-12T10:59:09.000Z</time>
      </trkpt>
      <trkpt lat="46.52738" lon="0.31462">
        <ele>120.19999694824</ele>
        <time>2019-05-12T10:59:14.000Z</time>
      </trkpt>
      <trkpt lat="46.52727" lon="0.31447">
        <ele>120.80000305176</ele>
        <time>2019-05-12T10:59:20.000Z</time>
      </trkpt>
      <trkpt lat="46.52726" lon="0.31444">
        <ele>120.80000305176</ele>
        <time>2019-05-12T10:59:21.000Z</time>
      </trkpt>
      <trkpt lat="46.5273" lon="0.31435">
        <ele>121</ele>
        <time>2019-05-12T10:59:24.000Z</time>
      </trkpt>
      <trkpt lat="46.52739" lon="0.31423">
        <ele>121.19999694824</ele>
        <time>2019-05-12T10:59:30.000Z</time>
      </trkpt>
      <trkpt lat="46.52752" lon="0.31415">
        <ele>121.40000152588</ele>
        <time>2019-05-12T10:59:35.000Z</time>
      </trkpt>
      <trkpt lat="46.52766" lon="0.31406">
        <ele>121.80000305176</ele>
        <time>2019-05-12T10:59:40.000Z</time>
      </trkpt>
      <trkpt lat="46.52769" lon="0.31404">
        <ele>122</ele>
        <time>2019-05-12T10:59:41.000Z</time>
      </trkpt>
      <trkpt lat="46.52784" lon="0.31398">
        <ele>121.40000152588</ele>
        <time>2019-05-12T10:59:45.000Z</time>
      </trkpt>
      <trkpt lat="46.52792" lon="0.3138">
        <ele>120.80000305176</ele>
        <time>2019-05-12T10:59:49.000Z</time>
      </trkpt>
      <trkpt lat="46.52791" lon="0.31362">
        <ele>120.80000305176</ele>
        <time>2019-05-12T10:59:53.000Z</time>
      </trkpt>
      <trkpt lat="46.52792" lon="0.31347">
        <ele>121</ele>
        <time>2019-05-12T10:59:56.000Z</time>
      </trkpt>
      <trkpt lat="46.52794" lon="0.31343">
        <ele>121.19999694824</ele>
        <time>2019-05-12T10:59:57.000Z</time>
      </trkpt>
      <trkpt lat="46.52796" lon="0.31323">
        <ele>121</ele>
        <time>2019-05-12T11:00:00.000Z</time>
      </trkpt>
      <trkpt lat="46.52794" lon="0.31311">
        <ele>120.59999847412</ele>
        <time>2019-05-12T11:00:02.000Z</time>
      </trkpt>
      <trkpt lat="46.52791" lon="0.31292">
        <ele>120</ele>
        <time>2019-05-12T11:00:05.000Z</time>
      </trkpt>
      <trkpt lat="46.52791" lon="0.31285">
        <ele>119.80000305176</ele>
        <time>2019-05-12T11:00:06.000Z</time>
      </trkpt>
      <trkpt lat="46.52788" lon="0.31268">
        <ele>119.59999847412</ele>
        <time>2019-05-12T11:00:09.000Z</time>
      </trkpt>
      <trkpt lat="46.52787" lon="0.31252">
        <ele>118.80000305176</ele>
        <time>2019-05-12T11:00:11.000Z</time>
      </trkpt>
      <trkpt lat="46.52785" lon="0.31245">
        <ele>118.40000152588</ele>
        <time>2019-05-12T11:00:12.000Z</time>
      </trkpt>
      <trkpt lat="46.52777" lon="0.31225">
        <ele>117</ele>
        <time>2019-05-12T11:00:15.000Z</time>
      </trkpt>
      <trkpt lat="46.52771" lon="0.31208">
        <ele>116.40000152588</ele>
        <time>2019-05-12T11:00:18.000Z</time>
      </trkpt>
      <trkpt lat="46.52769" lon="0.31204">
        <ele>116.19999694824</ele>
        <time>2019-05-12T11:00:19.000Z</time>
      </trkpt>
      <trkpt lat="46.52768" lon="0.31199">
        <ele>116.19999694824</ele>
        <time>2019-05-12T11:00:20.000Z</time>
      </trkpt>
      <trkpt lat="46.52769" lon="0.31189">
        <ele>116</ele>
        <time>2019-05-12T11:00:22.000Z</time>
      </trkpt>
      <trkpt lat="46.52769" lon="0.31184">
        <ele>115.80000305176</ele>
        <time>2019-05-12T11:00:23.000Z</time>
      </trkpt>
      <trkpt lat="46.52767" lon="0.31163">
        <ele>114.59999847412</ele>
        <time>2019-05-12T11:00:26.000Z</time>
      </trkpt>
      <trkpt lat="46.52765" lon="0.31147">
        <ele>113.19999694824</ele>
        <time>2019-05-12T11:00:28.000Z</time>
      </trkpt>
      <trkpt lat="46.52764" lon="0.3113">
        <ele>112.40000152588</ele>
        <time>2019-05-12T11:00:30.000Z</time>
      </trkpt>
      <trkpt lat="46.52764" lon="0.31121">
        <ele>112</ele>
        <time>2019-05-12T11:00:31.000Z</time>
      </trkpt>
      <trkpt lat="46.5276" lon="0.31104">
        <ele>111.19999694824</ele>
        <time>2019-05-12T11:00:33.000Z</time>
      </trkpt>
      <trkpt lat="46.52758" lon="0.31095">
        <ele>110.80000305176</ele>
        <time>2019-05-12T11:00:34.000Z</time>
      </trkpt>
      <trkpt lat="46.52756" lon="0.31088">
        <ele>110.19999694824</ele>
        <time>2019-05-12T11:00:35.000Z</time>
      </trkpt>
      <trkpt lat="46.52755" lon="0.31082">
        <ele>109.80000305176</ele>
        <time>2019-05-12T11:00:36.000Z</time>
      </trkpt>
      <trkpt lat="46.52752" lon="0.31068">
        <ele>109.19999694824</ele>
        <time>2019-05-12T11:00:38.000Z</time>
      </trkpt>
      <trkpt lat="46.52748" lon="0.31055">
        <ele>109.40000152588</ele>
        <time>2019-05-12T11:00:40.000Z</time>
      </trkpt>
      <trkpt lat="46.52744" lon="0.31036">
        <ele>110</ele>
        <time>2019-05-12T11:00:43.000Z</time>
      </trkpt>
      <trkpt lat="46.52742" lon="0.31022">
        <ele>110</ele>
        <time>2019-05-12T11:00:45.000Z</time>
      </trkpt>
      <trkpt lat="46.52742" lon="0.31015">
        <ele>109.80000305176</ele>
        <time>2019-05-12T11:00:46.000Z</time>
      </trkpt>
      <trkpt lat="46.52742" lon="0.30994">
        <ele>109.59999847412</ele>
        <time>2019-05-12T11:00:49.000Z</time>
      </trkpt>
      <trkpt lat="46.52739" lon="0.30981">
        <ele>110</ele>
        <time>2019-05-12T11:00:51.000Z</time>
      </trkpt>
      <trkpt lat="46.52739" lon="0.30974">
        <ele>109.80000305176</ele>
        <time>2019-05-12T11:00:52.000Z</time>
      </trkpt>
      <trkpt lat="46.52735" lon="0.30955">
        <ele>109.80000305176</ele>
        <time>2019-05-12T11:00:55.000Z</time>
      </trkpt>
      <trkpt lat="46.52731" lon="0.30933">
        <ele>111</ele>
        <time>2019-05-12T11:00:59.000Z</time>
      </trkpt>
      <trkpt lat="46.52725" lon="0.30905">
        <ele>112</ele>
        <time>2019-05-12T11:01:03.000Z</time>
      </trkpt>
      <trkpt lat="46.5272" lon="0.30884">
        <ele>112.80000305176</ele>
        <time>2019-05-12T11:01:06.000Z</time>
      </trkpt>
      <trkpt lat="46.52719" lon="0.3088">
        <ele>113.19999694824</ele>
        <time>2019-05-12T11:01:07.000Z</time>
      </trkpt>
      <trkpt lat="46.52714" lon="0.30862">
        <ele>113.80000305176</ele>
        <time>2019-05-12T11:01:11.000Z</time>
      </trkpt>
      <trkpt lat="46.52714" lon="0.30841">
        <ele>114.59999847412</ele>
        <time>2019-05-12T11:01:17.000Z</time>
      </trkpt>
      <trkpt lat="46.52713" lon="0.30837">
        <ele>114.59999847412</ele>
        <time>2019-05-12T11:01:18.000Z</time>
      </trkpt>
      <trkpt lat="46.52714" lon="0.30828">
        <ele>114.19999694824</ele>
        <time>2019-05-12T11:01:21.000Z</time>
      </trkpt>
      <trkpt lat="46.52717" lon="0.30822">
        <ele>113.80000305176</ele>
        <time>2019-05-12T11:01:23.000Z</time>
      </trkpt>
      <trkpt lat="46.52719" lon="0.30819">
        <ele>113.40000152588</ele>
        <time>2019-05-12T11:01:24.000Z</time>
      </trkpt>
      <trkpt lat="46.52719" lon="0.30812">
        <ele>112.80000305176</ele>
        <time>2019-05-12T11:01:26.000Z</time>
      </trkpt>
      <trkpt lat="46.52718" lon="0.30805">
        <ele>112.40000152588</ele>
        <time>2019-05-12T11:01:27.000Z</time>
      </trkpt>
      <trkpt lat="46.52718" lon="0.30801">
        <ele>112.40000152588</ele>
        <time>2019-05-12T11:01:28.000Z</time>
      </trkpt>
      <trkpt lat="46.52717" lon="0.30793">
        <ele>112.40000152588</ele>
        <time>2019-05-12T11:01:30.000Z</time>
      </trkpt>
      <trkpt lat="46.52713" lon="0.30779">
        <ele>113</ele>
        <time>2019-05-12T11:01:33.000Z</time>
      </trkpt>
      <trkpt lat="46.5271" lon="0.30768">
        <ele>114</ele>
        <time>2019-05-12T11:01:36.000Z</time>
      </trkpt>
      <trkpt lat="46.52705" lon="0.30756">
        <ele>114.19999694824</ele>
        <time>2019-05-12T11:01:39.000Z</time>
      </trkpt>
      <trkpt lat="46.52701" lon="0.30746">
        <ele>114.40000152588</ele>
        <time>2019-05-12T11:01:42.000Z</time>
      </trkpt>
      <trkpt lat="46.52699" lon="0.30737">
        <ele>114.40000152588</ele>
        <time>2019-05-12T11:01:44.000Z</time>
      </trkpt>
      <trkpt lat="46.52695" lon="0.30725">
        <ele>114</ele>
        <time>2019-05-12T11:01:47.000Z</time>
      </trkpt>
      <trkpt lat="46.52695" lon="0.30721">
        <ele>114</ele>
        <time>2019-05-12T11:01:48.000Z</time>
      </trkpt>
      <trkpt lat="46.52692" lon="0.30703">
        <ele>114</ele>
        <time>2019-05-12T11:01:53.000Z</time>
      </trkpt>
      <trkpt lat="46.52687" lon="0.30691">
        <ele>113.40000152588</ele>
        <time>2019-05-12T11:01:57.000Z</time>
      </trkpt>
      <trkpt lat="46.52686" lon="0.30688">
        <ele>113.59999847412</ele>
        <time>2019-05-12T11:01:58.000Z</time>
      </trkpt>
      <trkpt lat="46.52683" lon="0.30679">
        <ele>113.59999847412</ele>
        <time>2019-05-12T11:02:01.000Z</time>
      </trkpt>
      <trkpt lat="46.52675" lon="0.3066">
        <ele>114.59999847412</ele>
        <time>2019-05-12T11:02:06.000Z</time>
      </trkpt>
      <trkpt lat="46.52674" lon="0.30657">
        <ele>114.80000305176</ele>
        <time>2019-05-12T11:02:07.000Z</time>
      </trkpt>
      <trkpt lat="46.52672" lon="0.3065">
        <ele>115.40000152588</ele>
        <time>2019-05-12T11:02:09.000Z</time>
      </trkpt>
      <trkpt lat="46.52671" lon="0.30638">
        <ele>115.80000305176</ele>
        <time>2019-05-12T11:02:12.000Z</time>
      </trkpt>
      <trkpt lat="46.52672" lon="0.30618">
        <ele>115.40000152588</ele>
        <time>2019-05-12T11:02:16.000Z</time>
      </trkpt>
      <trkpt lat="46.52672" lon="0.30611">
        <ele>115.19999694824</ele>
        <time>2019-05-12T11:02:17.000Z</time>
      </trkpt>
      <trkpt lat="46.5267" lon="0.30597">
        <ele>114.59999847412</ele>
        <time>2019-05-12T11:02:19.000Z</time>
      </trkpt>
      <trkpt lat="46.52669" lon="0.30591">
        <ele>114</ele>
        <time>2019-05-12T11:02:20.000Z</time>
      </trkpt>
      <trkpt lat="46.52665" lon="0.30577">
        <ele>113.59999847412</ele>
        <time>2019-05-12T11:02:23.000Z</time>
      </trkpt>
      <trkpt lat="46.52663" lon="0.30565">
        <ele>113.59999847412</ele>
        <time>2019-05-12T11:02:27.000Z</time>
      </trkpt>
      <trkpt lat="46.52658" lon="0.30556">
        <ele>114</ele>
        <time>2019-05-12T11:02:31.000Z</time>
      </trkpt>
      <trkpt lat="46.52657" lon="0.30548">
        <ele>114.40000152588</ele>
        <time>2019-05-12T11:02:33.000Z</time>
      </trkpt>
      <trkpt lat="46.52656" lon="0.3054">
        <ele>114.80000305176</ele>
        <time>2019-05-12T11:02:35.000Z</time>
      </trkpt>
      <trkpt lat="46.52652" lon="0.30515">
        <ele>114.80000305176</ele>
        <time>2019-05-12T11:02:40.000Z</time>
      </trkpt>
      <trkpt lat="46.52651" lon="0.30491">
        <ele>113.59999847412</ele>
        <time>2019-05-12T11:02:44.000Z</time>
      </trkpt>
      <trkpt lat="46.5265" lon="0.30477">
        <ele>113.19999694824</ele>
        <time>2019-05-12T11:02:46.000Z</time>
      </trkpt>
      <trkpt lat="46.52646" lon="0.30445">
        <ele>113</ele>
        <time>2019-05-12T11:02:51.000Z</time>
      </trkpt>
      <trkpt lat="46.52643" lon="0.30428">
        <ele>112.80000305176</ele>
        <time>2019-05-12T11:02:54.000Z</time>
      </trkpt>
      <trkpt lat="46.52643" lon="0.30421">
        <ele>112.59999847412</ele>
        <time>2019-05-12T11:02:55.000Z</time>
      </trkpt>
      <trkpt lat="46.52643" lon="0.30415">
        <ele>112.40000152588</ele>
        <time>2019-05-12T11:02:56.000Z</time>
      </trkpt>
      <trkpt lat="46.52643" lon="0.30403">
        <ele>112.19999694824</ele>
        <time>2019-05-12T11:02:58.000Z</time>
      </trkpt>
      <trkpt lat="46.52643" lon="0.30388">
        <ele>112.19999694824</ele>
        <time>2019-05-12T11:03:00.000Z</time>
      </trkpt>
      <trkpt lat="46.52643" lon="0.30381">
        <ele>112.19999694824</ele>
        <time>2019-05-12T11:03:01.000Z</time>
      </trkpt>
      <trkpt lat="46.52641" lon="0.30369">
        <ele>111.59999847412</ele>
        <time>2019-05-12T11:03:03.000Z</time>
      </trkpt>
      <trkpt lat="46.5264" lon="0.30362">
        <ele>111.40000152588</ele>
        <time>2019-05-12T11:03:04.000Z</time>
      </trkpt>
      <trkpt lat="46.52639" lon="0.30356">
        <ele>111.19999694824</ele>
        <time>2019-05-12T11:03:05.000Z</time>
      </trkpt>
      <trkpt lat="46.52636" lon="0.30342">
        <ele>110.59999847412</ele>
        <time>2019-05-12T11:03:07.000Z</time>
      </trkpt>
      <trkpt lat="46.52635" lon="0.30336">
        <ele>110.59999847412</ele>
        <time>2019-05-12T11:03:08.000Z</time>
      </trkpt>
      <trkpt lat="46.52633" lon="0.3033">
        <ele>110.40000152588</ele>
        <time>2019-05-12T11:03:09.000Z</time>
      </trkpt>
      <trkpt lat="46.52623" lon="0.30308">
        <ele>109.59999847412</ele>
        <time>2019-05-12T11:03:14.000Z</time>
      </trkpt>
      <trkpt lat="46.52619" lon="0.30305">
        <ele>109.40000152588</ele>
        <time>2019-05-12T11:03:15.000Z</time>
      </trkpt>
      <trkpt lat="46.52609" lon="0.30295">
        <ele>109.19999694824</ele>
        <time>2019-05-12T11:03:18.000Z</time>
      </trkpt>
      <trkpt lat="46.52595" lon="0.30279">
        <ele>109</ele>
        <time>2019-05-12T11:03:22.000Z</time>
      </trkpt>
      <trkpt lat="46.52583" lon="0.30268">
        <ele>108</ele>
        <time>2019-05-12T11:03:25.000Z</time>
      </trkpt>
      <trkpt lat="46.52579" lon="0.30265">
        <ele>107.80000305176</ele>
        <time>2019-05-12T11:03:26.000Z</time>
      </trkpt>
      <trkpt lat="46.52575" lon="0.30261">
        <ele>107.80000305176</ele>
        <time>2019-05-12T11:03:27.000Z</time>
      </trkpt>
      <trkpt lat="46.5257" lon="0.30256">
        <ele>107.80000305176</ele>
        <time>2019-05-12T11:03:28.000Z</time>
      </trkpt>
      <trkpt lat="46.52556" lon="0.30249">
        <ele>107</ele>
        <time>2019-05-12T11:03:31.000Z</time>
      </trkpt>
      <trkpt lat="46.52551" lon="0.30249">
        <ele>106.40000152588</ele>
        <time>2019-05-12T11:03:32.000Z</time>
      </trkpt>
      <trkpt lat="46.52547" lon="0.3025">
        <ele>105.40000152588</ele>
        <time>2019-05-12T11:03:33.000Z</time>
      </trkpt>
      <trkpt lat="46.52535" lon="0.30251">
        <ele>104.40000152588</ele>
        <time>2019-05-12T11:03:36.000Z</time>
      </trkpt>
      <trkpt lat="46.52525" lon="0.30251">
        <ele>104.19999694824</ele>
        <time>2019-05-12T11:03:38.000Z</time>
      </trkpt>
      <trkpt lat="46.52513" lon="0.30252">
        <ele>103.40000152588</ele>
        <time>2019-05-12T11:03:40.000Z</time>
      </trkpt>
      <trkpt lat="46.52506" lon="0.30251">
        <ele>102.80000305176</ele>
        <time>2019-05-12T11:03:41.000Z</time>
      </trkpt>
      <trkpt lat="46.52499" lon="0.30251">
        <ele>101.80000305176</ele>
        <time>2019-05-12T11:03:42.000Z</time>
      </trkpt>
      <trkpt lat="46.52488" lon="0.30249">
        <ele>100.19999694824</ele>
        <time>2019-05-12T11:03:44.000Z</time>
      </trkpt>
      <trkpt lat="46.52483" lon="0.30247">
        <ele>99</ele>
        <time>2019-05-12T11:03:45.000Z</time>
      </trkpt>
      <trkpt lat="46.52478" lon="0.30244">
        <ele>98</ele>
        <time>2019-05-12T11:03:47.000Z</time>
      </trkpt>
      <trkpt lat="46.52472" lon="0.30243">
        <ele>97.599998474121</ele>
        <time>2019-05-12T11:03:49.000Z</time>
      </trkpt>
      <trkpt lat="46.52468" lon="0.30243">
        <ele>97.599998474121</ele>
        <time>2019-05-12T11:03:51.000Z</time>
      </trkpt>
      <trkpt lat="46.52467" lon="0.30243">
        <ele>97.599998474121</ele>
        <time>2019-05-12T11:03:52.000Z</time>
      </trkpt>
      <trkpt lat="46.52463" lon="0.30241">
        <ele>97.800003051758</ele>
        <time>2019-05-12T11:03:54.000Z</time>
      </trkpt>
      <trkpt lat="46.52453" lon="0.30238">
        <ele>98.400001525879</ele>
        <time>2019-05-12T11:03:59.000Z</time>
      </trkpt>
      <trkpt lat="46.5245" lon="0.30235">
        <ele>98.800003051758</ele>
        <time>2019-05-12T11:04:01.000Z</time>
      </trkpt>
      <trkpt lat="46.52444" lon="0.30235">
        <ele>99</ele>
        <time>2019-05-12T11:04:03.000Z</time>
      </trkpt>
      <trkpt lat="46.52432" lon="0.30237">
        <ele>100</ele>
        <time>2019-05-12T11:04:07.000Z</time>
      </trkpt>
      <trkpt lat="46.5243" lon="0.30237">
        <ele>100.19999694824</ele>
        <time>2019-05-12T11:04:08.000Z</time>
      </trkpt>
      <trkpt lat="46.52427" lon="0.30238">
        <ele>100.40000152588</ele>
        <time>2019-05-12T11:04:09.000Z</time>
      </trkpt>
      <trkpt lat="46.52413" lon="0.30243">
        <ele>101.40000152588</ele>
        <time>2019-05-12T11:04:14.000Z</time>
      </trkpt>
      <trkpt lat="46.52411" lon="0.30243">
        <ele>101.59999847412</ele>
        <time>2019-05-12T11:04:15.000Z</time>
      </trkpt>
      <trkpt lat="46.52404" lon="0.30241">
        <ele>102.80000305176</ele>
        <time>2019-05-12T11:04:19.000Z</time>
      </trkpt>
      <trkpt lat="46.52399" lon="0.3024">
        <ele>103.40000152588</ele>
        <time>2019-05-12T11:04:22.000Z</time>
      </trkpt>
      <trkpt lat="46.52398" lon="0.30239">
        <ele>103.80000305176</ele>
        <time>2019-05-12T11:04:23.000Z</time>
      </trkpt>
      <trkpt lat="46.5239" lon="0.3024">
        <ele>105</ele>
        <time>2019-05-12T11:04:27.000Z</time>
      </trkpt>
      <trkpt lat="46.52387" lon="0.30241">
        <ele>105.19999694824</ele>
        <time>2019-05-12T11:04:28.000Z</time>
      </trkpt>
      <trkpt lat="46.52376" lon="0.30243">
        <ele>106.19999694824</ele>
        <time>2019-05-12T11:04:33.000Z</time>
      </trkpt>
      <trkpt lat="46.52373" lon="0.30244">
        <ele>106.40000152588</ele>
        <time>2019-05-12T11:04:34.000Z</time>
      </trkpt>
      <trkpt lat="46.52366" lon="0.30247">
        <ele>107.59999847412</ele>
        <time>2019-05-12T11:04:37.000Z</time>
      </trkpt>
      <trkpt lat="46.52359" lon="0.30249">
        <ele>107.80000305176</ele>
        <time>2019-05-12T11:04:40.000Z</time>
      </trkpt>
      <trkpt lat="46.52354" lon="0.30252">
        <ele>108</ele>
        <time>2019-05-12T11:04:43.000Z</time>
      </trkpt>
      <trkpt lat="46.5235" lon="0.30254">
        <ele>108.40000152588</ele>
        <time>2019-05-12T11:04:45.000Z</time>
      </trkpt>
      <trkpt lat="46.52345" lon="0.30255">
        <ele>108.80000305176</ele>
        <time>2019-05-12T11:04:47.000Z</time>
      </trkpt>
      <trkpt lat="46.5234" lon="0.30258">
        <ele>109</ele>
        <time>2019-05-12T11:04:50.000Z</time>
      </trkpt>
      <trkpt lat="46.52329" lon="0.30261">
        <ele>109.80000305176</ele>
        <time>2019-05-12T11:04:55.000Z</time>
      </trkpt>
      <trkpt lat="46.52325" lon="0.30262">
        <ele>109.80000305176</ele>
        <time>2019-05-12T11:04:57.000Z</time>
      </trkpt>
      <trkpt lat="46.5232" lon="0.30263">
        <ele>110.59999847412</ele>
        <time>2019-05-12T11:05:00.000Z</time>
      </trkpt>
      <trkpt lat="46.52315" lon="0.30263">
        <ele>111.19999694824</ele>
        <time>2019-05-12T11:05:02.000Z</time>
      </trkpt>
      <trkpt lat="46.52311" lon="0.30263">
        <ele>111.80000305176</ele>
        <time>2019-05-12T11:05:04.000Z</time>
      </trkpt>
      <trkpt lat="46.52303" lon="0.30263">
        <ele>113</ele>
        <time>2019-05-12T11:05:08.000Z</time>
      </trkpt>
      <trkpt lat="46.52294" lon="0.3026">
        <ele>114</ele>
        <time>2019-05-12T11:05:13.000Z</time>
      </trkpt>
      <trkpt lat="46.52291" lon="0.30258">
        <ele>114.40000152588</ele>
        <time>2019-05-12T11:05:15.000Z</time>
      </trkpt>
      <trkpt lat="46.52288" lon="0.30255">
        <ele>115</ele>
        <time>2019-05-12T11:05:17.000Z</time>
      </trkpt>
      <trkpt lat="46.52282" lon="0.30249">
        <ele>116.19999694824</ele>
        <time>2019-05-12T11:05:21.000Z</time>
      </trkpt>
      <trkpt lat="46.52277" lon="0.30245">
        <ele>117.19999694824</ele>
        <time>2019-05-12T11:05:24.000Z</time>
      </trkpt>
      <trkpt lat="46.52272" lon="0.30236">
        <ele>118.40000152588</ele>
        <time>2019-05-12T11:05:28.000Z</time>
      </trkpt>
      <trkpt lat="46.5227" lon="0.30228">
        <ele>119.19999694824</ele>
        <time>2019-05-12T11:05:31.000Z</time>
      </trkpt>
      <trkpt lat="46.52267" lon="0.30219">
        <ele>120.19999694824</ele>
        <time>2019-05-12T11:05:34.000Z</time>
      </trkpt>
      <trkpt lat="46.52266" lon="0.30214">
        <ele>120.59999847412</ele>
        <time>2019-05-12T11:05:36.000Z</time>
      </trkpt>
      <trkpt lat="46.52265" lon="0.30205">
        <ele>121.40000152588</ele>
        <time>2019-05-12T11:05:39.000Z</time>
      </trkpt>
      <trkpt lat="46.52263" lon="0.30197">
        <ele>122.19999694824</ele>
        <time>2019-05-12T11:05:42.000Z</time>
      </trkpt>
      <trkpt lat="46.52263" lon="0.30194">
        <ele>122.40000152588</ele>
        <time>2019-05-12T11:05:43.000Z</time>
      </trkpt>
      <trkpt lat="46.52261" lon="0.30184">
        <ele>123.19999694824</ele>
        <time>2019-05-12T11:05:47.000Z</time>
      </trkpt>
      <trkpt lat="46.52259" lon="0.30178">
        <ele>123.59999847412</ele>
        <time>2019-05-12T11:05:49.000Z</time>
      </trkpt>
      <trkpt lat="46.52256" lon="0.30165">
        <ele>124</ele>
        <time>2019-05-12T11:05:54.000Z</time>
      </trkpt>
      <trkpt lat="46.52254" lon="0.30161">
        <ele>124.40000152588</ele>
        <time>2019-05-12T11:05:56.000Z</time>
      </trkpt>
      <trkpt lat="46.52251" lon="0.30151">
        <ele>125.19999694824</ele>
        <time>2019-05-12T11:06:00.000Z</time>
      </trkpt>
      <trkpt lat="46.5225" lon="0.30145">
        <ele>125.40000152588</ele>
        <time>2019-05-12T11:06:02.000Z</time>
      </trkpt>
      <trkpt lat="46.52245" lon="0.30132">
        <ele>126</ele>
        <time>2019-05-12T11:06:07.000Z</time>
      </trkpt>
      <trkpt lat="46.52233" lon="0.30109">
        <ele>126.19999694824</ele>
        <time>2019-05-12T11:06:16.000Z</time>
      </trkpt>
      <trkpt lat="46.52225" lon="0.30093">
        <ele>126.19999694824</ele>
        <time>2019-05-12T11:06:21.000Z</time>
      </trkpt>
      <trkpt lat="46.52219" lon="0.30084">
        <ele>126.40000152588</ele>
        <time>2019-05-12T11:06:24.000Z</time>
      </trkpt>
      <trkpt lat="46.52206" lon="0.30066">
        <ele>126.40000152588</ele>
        <time>2019-05-12T11:06:30.000Z</time>
      </trkpt>
      <trkpt lat="46.52204" lon="0.30063">
        <ele>126.59999847412</ele>
        <time>2019-05-12T11:06:31.000Z</time>
      </trkpt>
      <trkpt lat="46.52194" lon="0.30052">
        <ele>126.80000305176</ele>
        <time>2019-05-12T11:06:35.000Z</time>
      </trkpt>
      <trkpt lat="46.52188" lon="0.30047">
        <ele>126.80000305176</ele>
        <time>2019-05-12T11:06:37.000Z</time>
      </trkpt>
      <trkpt lat="46.52172" lon="0.30035">
        <ele>127</ele>
        <time>2019-05-12T11:06:42.000Z</time>
      </trkpt>
      <trkpt lat="46.52165" lon="0.30032">
        <ele>127</ele>
        <time>2019-05-12T11:06:44.000Z</time>
      </trkpt>
      <trkpt lat="46.52145" lon="0.30023">
        <ele>127</ele>
        <time>2019-05-12T11:06:50.000Z</time>
      </trkpt>
      <trkpt lat="46.5213" lon="0.30022">
        <ele>127.59999847412</ele>
        <time>2019-05-12T11:06:55.000Z</time>
      </trkpt>
      <trkpt lat="46.52128" lon="0.30023">
        <ele>127.80000305176</ele>
        <time>2019-05-12T11:06:56.000Z</time>
      </trkpt>
      <trkpt lat="46.52114" lon="0.30022">
        <ele>127.59999847412</ele>
        <time>2019-05-12T11:07:01.000Z</time>
      </trkpt>
      <trkpt lat="46.52094" lon="0.30017">
        <ele>127.59999847412</ele>
        <time>2019-05-12T11:07:07.000Z</time>
      </trkpt>
      <trkpt lat="46.52079" lon="0.30014">
        <ele>127.19999694824</ele>
        <time>2019-05-12T11:07:12.000Z</time>
      </trkpt>
      <trkpt lat="46.52057" lon="0.30007">
        <ele>127.80000305176</ele>
        <time>2019-05-12T11:07:18.000Z</time>
      </trkpt>
      <trkpt lat="46.5204" lon="0.30001">
        <ele>128.39999389648</ele>
        <time>2019-05-12T11:07:23.000Z</time>
      </trkpt>
      <trkpt lat="46.52036" lon="0.29999">
        <ele>128.39999389648</ele>
        <time>2019-05-12T11:07:24.000Z</time>
      </trkpt>
      <trkpt lat="46.52014" lon="0.29991">
        <ele>127.59999847412</ele>
        <time>2019-05-12T11:07:30.000Z</time>
      </trkpt>
      <trkpt lat="46.51991" lon="0.2998">
        <ele>128.60000610352</ele>
        <time>2019-05-12T11:07:36.000Z</time>
      </trkpt>
      <trkpt lat="46.51972" lon="0.29972">
        <ele>128.80000305176</ele>
        <time>2019-05-12T11:07:41.000Z</time>
      </trkpt>
      <trkpt lat="46.51948" lon="0.29958">
        <ele>128.60000610352</ele>
        <time>2019-05-12T11:07:48.000Z</time>
      </trkpt>
      <trkpt lat="46.5192" lon="0.29943">
        <ele>128.60000610352</ele>
        <time>2019-05-12T11:07:55.000Z</time>
      </trkpt>
      <trkpt lat="46.51897" lon="0.29934">
        <ele>128.60000610352</ele>
        <time>2019-05-12T11:08:01.000Z</time>
      </trkpt>
      <trkpt lat="46.51862" lon="0.2992">
        <ele>128.60000610352</ele>
        <time>2019-05-12T11:08:11.000Z</time>
      </trkpt>
      <trkpt lat="46.51848" lon="0.29913">
        <ele>129.39999389648</ele>
        <time>2019-05-12T11:08:15.000Z</time>
      </trkpt>
      <trkpt lat="46.51831" lon="0.29902">
        <ele>129.39999389648</ele>
        <time>2019-05-12T11:08:20.000Z</time>
      </trkpt>
      <trkpt lat="46.51801" lon="0.29887">
        <ele>129.39999389648</ele>
        <time>2019-05-12T11:08:28.000Z</time>
      </trkpt>
      <trkpt lat="46.51769" lon="0.29886">
        <ele>129.60000610352</ele>
        <time>2019-05-12T11:08:36.000Z</time>
      </trkpt>
      <trkpt lat="46.51734" lon="0.2989">
        <ele>129.80000305176</ele>
        <time>2019-05-12T11:08:45.000Z</time>
      </trkpt>
      <trkpt lat="46.51716" lon="0.29886">
        <ele>130.19999694824</ele>
        <time>2019-05-12T11:08:50.000Z</time>
      </trkpt>
      <trkpt lat="46.51705" lon="0.29882">
        <ele>130.39999389648</ele>
        <time>2019-05-12T11:08:53.000Z</time>
      </trkpt>
      <trkpt lat="46.51682" lon="0.29869">
        <ele>131</ele>
        <time>2019-05-12T11:09:00.000Z</time>
      </trkpt>
      <trkpt lat="46.51678" lon="0.29866">
        <ele>131.19999694824</ele>
        <time>2019-05-12T11:09:01.000Z</time>
      </trkpt>
      <trkpt lat="46.51653" lon="0.29844">
        <ele>130.60000610352</ele>
        <time>2019-05-12T11:09:09.000Z</time>
      </trkpt>
      <trkpt lat="46.51641" lon="0.29824">
        <ele>130</ele>
        <time>2019-05-12T11:09:14.000Z</time>
      </trkpt>
      <trkpt lat="46.51634" lon="0.29795">
        <ele>129.39999389648</ele>
        <time>2019-05-12T11:09:20.000Z</time>
      </trkpt>
      <trkpt lat="46.51628" lon="0.29778">
        <ele>129.39999389648</ele>
        <time>2019-05-12T11:09:25.000Z</time>
      </trkpt>
      <trkpt lat="46.51631" lon="0.29772">
        <ele>129.39999389648</ele>
        <time>2019-05-12T11:09:29.000Z</time>
      </trkpt>
      <trkpt lat="46.51639" lon="0.29763">
        <ele>129.60000610352</ele>
        <time>2019-05-12T11:09:33.000Z</time>
      </trkpt>
      <trkpt lat="46.51652" lon="0.29745">
        <ele>128.80000305176</ele>
        <time>2019-05-12T11:09:38.000Z</time>
      </trkpt>
      <trkpt lat="46.51659" lon="0.29736">
        <ele>128.19999694824</ele>
        <time>2019-05-12T11:09:40.000Z</time>
      </trkpt>
      <trkpt lat="46.51664" lon="0.2973">
        <ele>127.59999847412</ele>
        <time>2019-05-12T11:09:42.000Z</time>
      </trkpt>
      <trkpt lat="46.5167" lon="0.29723">
        <ele>126.80000305176</ele>
        <time>2019-05-12T11:09:48.000Z</time>
      </trkpt>
      <trkpt lat="46.51678" lon="0.29716">
        <ele>127</ele>
        <time>2019-05-12T11:09:51.000Z</time>
      </trkpt>
      <trkpt lat="46.51682" lon="0.29713">
        <ele>126.80000305176</ele>
        <time>2019-05-12T11:09:52.000Z</time>
      </trkpt>
      <trkpt lat="46.51696" lon="0.29702">
        <ele>126.40000152588</ele>
        <time>2019-05-12T11:09:55.000Z</time>
      </trkpt>
      <trkpt lat="46.51701" lon="0.29701">
        <ele>126.19999694824</ele>
        <time>2019-05-12T11:09:56.000Z</time>
      </trkpt>
      <trkpt lat="46.51718" lon="0.29699">
        <ele>126.19999694824</ele>
        <time>2019-05-12T11:09:59.000Z</time>
      </trkpt>
      <trkpt lat="46.51731" lon="0.29687">
        <ele>126</ele>
        <time>2019-05-12T11:10:02.000Z</time>
      </trkpt>
      <trkpt lat="46.51738" lon="0.29674">
        <ele>125.59999847412</ele>
        <time>2019-05-12T11:10:04.000Z</time>
      </trkpt>
      <trkpt lat="46.51745" lon="0.2966">
        <ele>125.19999694824</ele>
        <time>2019-05-12T11:10:06.000Z</time>
      </trkpt>
      <trkpt lat="46.51753" lon="0.29647">
        <ele>124.19999694824</ele>
        <time>2019-05-12T11:10:08.000Z</time>
      </trkpt>
      <trkpt lat="46.51756" lon="0.2964">
        <ele>123.80000305176</ele>
        <time>2019-05-12T11:10:09.000Z</time>
      </trkpt>
      <trkpt lat="46.51769" lon="0.29607">
        <ele>122.59999847412</ele>
        <time>2019-05-12T11:10:13.000Z</time>
      </trkpt>
      <trkpt lat="46.51772" lon="0.29599">
        <ele>122.19999694824</ele>
        <time>2019-05-12T11:10:14.000Z</time>
      </trkpt>
      <trkpt lat="46.51781" lon="0.29583">
        <ele>121.19999694824</ele>
        <time>2019-05-12T11:10:16.000Z</time>
      </trkpt>
      <trkpt lat="46.51791" lon="0.29569">
        <ele>120.40000152588</ele>
        <time>2019-05-12T11:10:18.000Z</time>
      </trkpt>
      <trkpt lat="46.51796" lon="0.29561">
        <ele>119.80000305176</ele>
        <time>2019-05-12T11:10:19.000Z</time>
      </trkpt>
      <trkpt lat="46.51809" lon="0.29532">
        <ele>118.19999694824</ele>
        <time>2019-05-12T11:10:22.000Z</time>
      </trkpt>
      <trkpt lat="46.51813" lon="0.29521">
        <ele>116.80000305176</ele>
        <time>2019-05-12T11:10:23.000Z</time>
      </trkpt>
      <trkpt lat="46.51817" lon="0.29511">
        <ele>115.59999847412</ele>
        <time>2019-05-12T11:10:24.000Z</time>
      </trkpt>
      <trkpt lat="46.51826" lon="0.29491">
        <ele>114.40000152588</ele>
        <time>2019-05-12T11:10:26.000Z</time>
      </trkpt>
      <trkpt lat="46.51832" lon="0.29481">
        <ele>114</ele>
        <time>2019-05-12T11:10:27.000Z</time>
      </trkpt>
      <trkpt lat="46.51842" lon="0.29463">
        <ele>112.80000305176</ele>
        <time>2019-05-12T11:10:29.000Z</time>
      </trkpt>
      <trkpt lat="46.5185" lon="0.29445">
        <ele>111</ele>
        <time>2019-05-12T11:10:31.000Z</time>
      </trkpt>
      <trkpt lat="46.51854" lon="0.29436">
        <ele>110.40000152588</ele>
        <time>2019-05-12T11:10:32.000Z</time>
      </trkpt>
      <trkpt lat="46.51857" lon="0.29428">
        <ele>109.80000305176</ele>
        <time>2019-05-12T11:10:33.000Z</time>
      </trkpt>
      <trkpt lat="46.51862" lon="0.29415">
        <ele>108.59999847412</ele>
        <time>2019-05-12T11:10:35.000Z</time>
      </trkpt>
      <trkpt lat="46.51864" lon="0.29408">
        <ele>107.40000152588</ele>
        <time>2019-05-12T11:10:36.000Z</time>
      </trkpt>
      <trkpt lat="46.51868" lon="0.29395">
        <ele>105.80000305176</ele>
        <time>2019-05-12T11:10:38.000Z</time>
      </trkpt>
      <trkpt lat="46.51868" lon="0.29388">
        <ele>103.80000305176</ele>
        <time>2019-05-12T11:10:39.000Z</time>
      </trkpt>
      <trkpt lat="46.51868" lon="0.29382">
        <ele>102.40000152588</ele>
        <time>2019-05-12T11:10:40.000Z</time>
      </trkpt>
      <trkpt lat="46.51867" lon="0.29376">
        <ele>101.40000152588</ele>
        <time>2019-05-12T11:10:41.000Z</time>
      </trkpt>
      <trkpt lat="46.51865" lon="0.29364">
        <ele>100</ele>
        <time>2019-05-12T11:10:43.000Z</time>
      </trkpt>
      <trkpt lat="46.51863" lon="0.29348">
        <ele>99.599998474121</ele>
        <time>2019-05-12T11:10:45.000Z</time>
      </trkpt>
      <trkpt lat="46.51865" lon="0.29333">
        <ele>99</ele>
        <time>2019-05-12T11:10:47.000Z</time>
      </trkpt>
      <trkpt lat="46.51868" lon="0.29326">
        <ele>98.199996948242</ele>
        <time>2019-05-12T11:10:48.000Z</time>
      </trkpt>
      <trkpt lat="46.5187" lon="0.29322">
        <ele>97.400001525879</ele>
        <time>2019-05-12T11:10:49.000Z</time>
      </trkpt>
      <trkpt lat="46.51874" lon="0.29315">
        <ele>96.400001525879</ele>
        <time>2019-05-12T11:10:51.000Z</time>
      </trkpt>
      <trkpt lat="46.51877" lon="0.29313">
        <ele>96.199996948242</ele>
        <time>2019-05-12T11:10:52.000Z</time>
      </trkpt>
      <trkpt lat="46.5188" lon="0.2931">
        <ele>95.400001525879</ele>
        <time>2019-05-12T11:10:53.000Z</time>
      </trkpt>
      <trkpt lat="46.51886" lon="0.29304">
        <ele>94.800003051758</ele>
        <time>2019-05-12T11:10:55.000Z</time>
      </trkpt>
      <trkpt lat="46.51896" lon="0.29296">
        <ele>94.199996948242</ele>
        <time>2019-05-12T11:10:58.000Z</time>
      </trkpt>
      <trkpt lat="46.51912" lon="0.29284">
        <ele>94.800003051758</ele>
        <time>2019-05-12T11:11:03.000Z</time>
      </trkpt>
      <trkpt lat="46.51917" lon="0.29276">
        <ele>94.800003051758</ele>
        <time>2019-05-12T11:11:05.000Z</time>
      </trkpt>
      <trkpt lat="46.51917" lon="0.29272">
        <ele>94.800003051758</ele>
        <time>2019-05-12T11:11:06.000Z</time>
      </trkpt>
      <trkpt lat="46.51914" lon="0.29252">
        <ele>95.599998474121</ele>
        <time>2019-05-12T11:11:11.000Z</time>
      </trkpt>
      <trkpt lat="46.51904" lon="0.29224">
        <ele>96.400001525879</ele>
        <time>2019-05-12T11:11:18.000Z</time>
      </trkpt>
      <trkpt lat="46.51895" lon="0.29201">
        <ele>96.800003051758</ele>
        <time>2019-05-12T11:11:25.000Z</time>
      </trkpt>
      <trkpt lat="46.51883" lon="0.29172">
        <ele>97.199996948242</ele>
        <time>2019-05-12T11:11:32.000Z</time>
      </trkpt>
      <trkpt lat="46.51878" lon="0.2916">
        <ele>97.800003051758</ele>
        <time>2019-05-12T11:11:35.000Z</time>
      </trkpt>
      <trkpt lat="46.51871" lon="0.29143">
        <ele>97.800003051758</ele>
        <time>2019-05-12T11:11:39.000Z</time>
      </trkpt>
      <trkpt lat="46.51859" lon="0.2911">
        <ele>98.199996948242</ele>
        <time>2019-05-12T11:11:47.000Z</time>
      </trkpt>
      <trkpt lat="46.51855" lon="0.29097">
        <ele>99</ele>
        <time>2019-05-12T11:11:50.000Z</time>
      </trkpt>
      <trkpt lat="46.51848" lon="0.2908">
        <ele>99</ele>
        <time>2019-05-12T11:11:54.000Z</time>
      </trkpt>
      <trkpt lat="46.51836" lon="0.2905">
        <ele>100</ele>
        <time>2019-05-12T11:12:01.000Z</time>
      </trkpt>
      <trkpt lat="46.51828" lon="0.2902">
        <ele>99.400001525879</ele>
        <time>2019-05-12T11:12:08.000Z</time>
      </trkpt>
      <trkpt lat="46.51824" lon="0.2898">
        <ele>100.40000152588</ele>
        <time>2019-05-12T11:12:17.000Z</time>
      </trkpt>
      <trkpt lat="46.51824" lon="0.28975">
        <ele>100.40000152588</ele>
        <time>2019-05-12T11:12:18.000Z</time>
      </trkpt>
      <trkpt lat="46.51819" lon="0.28945">
        <ele>100.80000305176</ele>
        <time>2019-05-12T11:12:24.000Z</time>
      </trkpt>
      <trkpt lat="46.51818" lon="0.2894">
        <ele>100.80000305176</ele>
        <time>2019-05-12T11:12:25.000Z</time>
      </trkpt>
      <trkpt lat="46.5181" lon="0.28897">
        <ele>100.19999694824</ele>
        <time>2019-05-12T11:12:33.000Z</time>
      </trkpt>
      <trkpt lat="46.51801" lon="0.28846">
        <ele>101.19999694824</ele>
        <time>2019-05-12T11:12:41.000Z</time>
      </trkpt>
      <trkpt lat="46.51793" lon="0.28794">
        <ele>100.80000305176</ele>
        <time>2019-05-12T11:12:49.000Z</time>
      </trkpt>
      <trkpt lat="46.51783" lon="0.28742">
        <ele>101.40000152588</ele>
        <time>2019-05-12T11:12:57.000Z</time>
      </trkpt>
      <trkpt lat="46.51783" lon="0.28735">
        <ele>101.59999847412</ele>
        <time>2019-05-12T11:12:58.000Z</time>
      </trkpt>
      <trkpt lat="46.51778" lon="0.28702">
        <ele>101</ele>
        <time>2019-05-12T11:13:03.000Z</time>
      </trkpt>
      <trkpt lat="46.51774" lon="0.28677">
        <ele>100.80000305176</ele>
        <time>2019-05-12T11:13:07.000Z</time>
      </trkpt>
      <trkpt lat="46.51774" lon="0.28672">
        <ele>100.80000305176</ele>
        <time>2019-05-12T11:13:08.000Z</time>
      </trkpt>
      <trkpt lat="46.51783" lon="0.28662">
        <ele>100.80000305176</ele>
        <time>2019-05-12T11:13:11.000Z</time>
      </trkpt>
      <trkpt lat="46.51791" lon="0.28659">
        <ele>101</ele>
        <time>2019-05-12T11:13:13.000Z</time>
      </trkpt>
      <trkpt lat="46.51797" lon="0.28658">
        <ele>101.40000152588</ele>
        <time>2019-05-12T11:13:15.000Z</time>
      </trkpt>
      <trkpt lat="46.51806" lon="0.2865">
        <ele>102.19999694824</ele>
        <time>2019-05-12T11:13:18.000Z</time>
      </trkpt>
      <trkpt lat="46.51807" lon="0.28646">
        <ele>102.40000152588</ele>
        <time>2019-05-12T11:13:19.000Z</time>
      </trkpt>
      <trkpt lat="46.51808" lon="0.28637">
        <ele>102.59999847412</ele>
        <time>2019-05-12T11:13:21.000Z</time>
      </trkpt>
      <trkpt lat="46.51808" lon="0.28632">
        <ele>102.80000305176</ele>
        <time>2019-05-12T11:13:22.000Z</time>
      </trkpt>
      <trkpt lat="46.51804" lon="0.28608">
        <ele>103.40000152588</ele>
        <time>2019-05-12T11:13:27.000Z</time>
      </trkpt>
      <trkpt lat="46.51799" lon="0.2858">
        <ele>104.40000152588</ele>
        <time>2019-05-12T11:13:33.000Z</time>
      </trkpt>
      <trkpt lat="46.51796" lon="0.28566">
        <ele>104.80000305176</ele>
        <time>2019-05-12T11:13:36.000Z</time>
      </trkpt>
      <trkpt lat="46.51792" lon="0.28545">
        <ele>105.59999847412</ele>
        <time>2019-05-12T11:13:40.000Z</time>
      </trkpt>
      <trkpt lat="46.51789" lon="0.28524">
        <ele>106.19999694824</ele>
        <time>2019-05-12T11:13:44.000Z</time>
      </trkpt>
      <trkpt lat="46.51788" lon="0.28508">
        <ele>106.59999847412</ele>
        <time>2019-05-12T11:13:47.000Z</time>
      </trkpt>
      <trkpt lat="46.51788" lon="0.28493">
        <ele>107.80000305176</ele>
        <time>2019-05-12T11:13:50.000Z</time>
      </trkpt>
      <trkpt lat="46.51788" lon="0.28482">
        <ele>108</ele>
        <time>2019-05-12T11:13:52.000Z</time>
      </trkpt>
      <trkpt lat="46.51787" lon="0.2846">
        <ele>108.80000305176</ele>
        <time>2019-05-12T11:13:56.000Z</time>
      </trkpt>
      <trkpt lat="46.51786" lon="0.28437">
        <ele>109.80000305176</ele>
        <time>2019-05-12T11:14:00.000Z</time>
      </trkpt>
      <trkpt lat="46.51786" lon="0.28431">
        <ele>110</ele>
        <time>2019-05-12T11:14:01.000Z</time>
      </trkpt>
      <trkpt lat="46.51788" lon="0.28404">
        <ele>111.19999694824</ele>
        <time>2019-05-12T11:14:06.000Z</time>
      </trkpt>
      <trkpt lat="46.51791" lon="0.28393">
        <ele>111.59999847412</ele>
        <time>2019-05-12T11:14:08.000Z</time>
      </trkpt>
      <trkpt lat="46.51795" lon="0.28379">
        <ele>112.40000152588</ele>
        <time>2019-05-12T11:14:11.000Z</time>
      </trkpt>
      <trkpt lat="46.51801" lon="0.28367">
        <ele>113.40000152588</ele>
        <time>2019-05-12T11:14:14.000Z</time>
      </trkpt>
      <trkpt lat="46.51803" lon="0.28363">
        <ele>113.80000305176</ele>
        <time>2019-05-12T11:14:15.000Z</time>
      </trkpt>
      <trkpt lat="46.51809" lon="0.28353">
        <ele>114.40000152588</ele>
        <time>2019-05-12T11:14:18.000Z</time>
      </trkpt>
      <trkpt lat="46.51819" lon="0.28331">
        <ele>115.40000152588</ele>
        <time>2019-05-12T11:14:24.000Z</time>
      </trkpt>
      <trkpt lat="46.51826" lon="0.28317">
        <ele>116.59999847412</ele>
        <time>2019-05-12T11:14:28.000Z</time>
      </trkpt>
      <trkpt lat="46.51833" lon="0.28303">
        <ele>117.80000305176</ele>
        <time>2019-05-12T11:14:32.000Z</time>
      </trkpt>
      <trkpt lat="46.5184" lon="0.28288">
        <ele>118.80000305176</ele>
        <time>2019-05-12T11:14:36.000Z</time>
      </trkpt>
      <trkpt lat="46.51847" lon="0.28269">
        <ele>120</ele>
        <time>2019-05-12T11:14:41.000Z</time>
      </trkpt>
      <trkpt lat="46.51848" lon="0.28251">
        <ele>121</ele>
        <time>2019-05-12T11:14:45.000Z</time>
      </trkpt>
      <trkpt lat="46.51848" lon="0.28236">
        <ele>121.80000305176</ele>
        <time>2019-05-12T11:14:48.000Z</time>
      </trkpt>
      <trkpt lat="46.51847" lon="0.28232">
        <ele>122.19999694824</ele>
        <time>2019-05-12T11:14:49.000Z</time>
      </trkpt>
      <trkpt lat="46.51844" lon="0.28198">
        <ele>123</ele>
        <time>2019-05-12T11:14:56.000Z</time>
      </trkpt>
      <trkpt lat="46.51839" lon="0.28155">
        <ele>122.80000305176</ele>
        <time>2019-05-12T11:15:04.000Z</time>
      </trkpt>
      <trkpt lat="46.51834" lon="0.28115">
        <ele>123</ele>
        <time>2019-05-12T11:15:11.000Z</time>
      </trkpt>
      <trkpt lat="46.51831" lon="0.28089">
        <ele>123</ele>
        <time>2019-05-12T11:15:15.000Z</time>
      </trkpt>
      <trkpt lat="46.51828" lon="0.2807">
        <ele>122</ele>
        <time>2019-05-12T11:15:18.000Z</time>
      </trkpt>
      <trkpt lat="46.51827" lon="0.28064">
        <ele>121.80000305176</ele>
        <time>2019-05-12T11:15:19.000Z</time>
      </trkpt>
      <trkpt lat="46.5183" lon="0.28046">
        <ele>121.59999847412</ele>
        <time>2019-05-12T11:15:22.000Z</time>
      </trkpt>
      <trkpt lat="46.5184" lon="0.28045">
        <ele>122.19999694824</ele>
        <time>2019-05-12T11:15:25.000Z</time>
      </trkpt>
      <trkpt lat="46.5185" lon="0.28048">
        <ele>122.80000305176</ele>
        <time>2019-05-12T11:15:28.000Z</time>
      </trkpt>
      <trkpt lat="46.51863" lon="0.28051">
        <ele>122.80000305176</ele>
        <time>2019-05-12T11:15:32.000Z</time>
      </trkpt>
      <trkpt lat="46.51879" lon="0.28055">
        <ele>123.80000305176</ele>
        <time>2019-05-12T11:15:37.000Z</time>
      </trkpt>
      <trkpt lat="46.51885" lon="0.28056">
        <ele>124.19999694824</ele>
        <time>2019-05-12T11:15:39.000Z</time>
      </trkpt>
      <trkpt lat="46.51892" lon="0.28058">
        <ele>125</ele>
        <time>2019-05-12T11:15:41.000Z</time>
      </trkpt>
      <trkpt lat="46.51918" lon="0.28064">
        <ele>125.59999847412</ele>
        <time>2019-05-12T11:15:48.000Z</time>
      </trkpt>
      <trkpt lat="46.51933" lon="0.28067">
        <ele>126</ele>
        <time>2019-05-12T11:15:52.000Z</time>
      </trkpt>
      <trkpt lat="46.51955" lon="0.28072">
        <ele>127.19999694824</ele>
        <time>2019-05-12T11:15:58.000Z</time>
      </trkpt>
      <trkpt lat="46.51963" lon="0.28074">
        <ele>127.40000152588</ele>
        <time>2019-05-12T11:16:00.000Z</time>
      </trkpt>
      <trkpt lat="46.5199" lon="0.28075">
        <ele>127</ele>
        <time>2019-05-12T11:16:07.000Z</time>
      </trkpt>
      <trkpt lat="46.51999" lon="0.28064">
        <ele>126.80000305176</ele>
        <time>2019-05-12T11:16:10.000Z</time>
      </trkpt>
      <trkpt lat="46.52002" lon="0.28046">
        <ele>126.80000305176</ele>
        <time>2019-05-12T11:16:13.000Z</time>
      </trkpt>
      <trkpt lat="46.52002" lon="0.28039">
        <ele>126.80000305176</ele>
        <time>2019-05-12T11:16:14.000Z</time>
      </trkpt>
      <trkpt lat="46.51999" lon="0.27989">
        <ele>126</ele>
        <time>2019-05-12T11:16:22.000Z</time>
      </trkpt>
      <trkpt lat="46.51999" lon="0.27976">
        <ele>126</ele>
        <time>2019-05-12T11:16:24.000Z</time>
      </trkpt>
      <trkpt lat="46.51998" lon="0.27937">
        <ele>126</ele>
        <time>2019-05-12T11:16:30.000Z</time>
      </trkpt>
      <trkpt lat="46.51998" lon="0.2793">
        <ele>126.19999694824</ele>
        <time>2019-05-12T11:16:31.000Z</time>
      </trkpt>
      <trkpt lat="46.51998" lon="0.27904">
        <ele>126</ele>
        <time>2019-05-12T11:16:35.000Z</time>
      </trkpt>
      <trkpt lat="46.51997" lon="0.2789">
        <ele>125.19999694824</ele>
        <time>2019-05-12T11:16:37.000Z</time>
      </trkpt>
      <trkpt lat="46.51997" lon="0.27876">
        <ele>124.59999847412</ele>
        <time>2019-05-12T11:16:39.000Z</time>
      </trkpt>
      <trkpt lat="46.51996" lon="0.27863">
        <ele>124.40000152588</ele>
        <time>2019-05-12T11:16:41.000Z</time>
      </trkpt>
      <trkpt lat="46.51992" lon="0.27811">
        <ele>123.59999847412</ele>
        <time>2019-05-12T11:16:48.000Z</time>
      </trkpt>
      <trkpt lat="46.5199" lon="0.27795">
        <ele>123</ele>
        <time>2019-05-12T11:16:50.000Z</time>
      </trkpt>
      <trkpt lat="46.51986" lon="0.27769">
        <ele>122.40000152588</ele>
        <time>2019-05-12T11:16:53.000Z</time>
      </trkpt>
      <trkpt lat="46.51983" lon="0.27751">
        <ele>122</ele>
        <time>2019-05-12T11:16:55.000Z</time>
      </trkpt>
      <trkpt lat="46.51978" lon="0.27695">
        <ele>121</ele>
        <time>2019-05-12T11:17:01.000Z</time>
      </trkpt>
      <trkpt lat="46.5198" lon="0.27668">
        <ele>120.40000152588</ele>
        <time>2019-05-12T11:17:04.000Z</time>
      </trkpt>
      <trkpt lat="46.51982" lon="0.27634">
        <ele>121</ele>
        <time>2019-05-12T11:17:08.000Z</time>
      </trkpt>
      <trkpt lat="46.51979" lon="0.27588">
        <ele>120.80000305176</ele>
        <time>2019-05-12T11:17:14.000Z</time>
      </trkpt>
      <trkpt lat="46.51975" lon="0.27567">
        <ele>121.40000152588</ele>
        <time>2019-05-12T11:17:17.000Z</time>
      </trkpt>
      <trkpt lat="46.51968" lon="0.2755">
        <ele>121.40000152588</ele>
        <time>2019-05-12T11:17:20.000Z</time>
      </trkpt>
      <trkpt lat="46.51963" lon="0.27541">
        <ele>122</ele>
        <time>2019-05-12T11:17:22.000Z</time>
      </trkpt>
      <trkpt lat="46.51956" lon="0.27529">
        <ele>122.40000152588</ele>
        <time>2019-05-12T11:17:25.000Z</time>
      </trkpt>
      <trkpt lat="46.51961" lon="0.2752">
        <ele>122.80000305176</ele>
        <time>2019-05-12T11:17:28.000Z</time>
      </trkpt>
      <trkpt lat="46.51964" lon="0.27521">
        <ele>123</ele>
        <time>2019-05-12T11:17:29.000Z</time>
      </trkpt>
      <trkpt lat="46.51968" lon="0.27522">
        <ele>123.19999694824</ele>
        <time>2019-05-12T11:17:30.000Z</time>
      </trkpt>
      <trkpt lat="46.51977" lon="0.27526">
        <ele>123.80000305176</ele>
        <time>2019-05-12T11:17:32.000Z</time>
      </trkpt>
      <trkpt lat="46.51986" lon="0.27529">
        <ele>124.19999694824</ele>
        <time>2019-05-12T11:17:34.000Z</time>
      </trkpt>
      <trkpt lat="46.52" lon="0.27533">
        <ele>124.40000152588</ele>
        <time>2019-05-12T11:17:37.000Z</time>
      </trkpt>
      <trkpt lat="46.52012" lon="0.27537">
        <ele>124.59999847412</ele>
        <time>2019-05-12T11:17:40.000Z</time>
      </trkpt>
      <trkpt lat="46.52029" lon="0.27542">
        <ele>124.19999694824</ele>
        <time>2019-05-12T11:17:44.000Z</time>
      </trkpt>
      <trkpt lat="46.52033" lon="0.27544">
        <ele>124.19999694824</ele>
        <time>2019-05-12T11:17:45.000Z</time>
      </trkpt>
      <trkpt lat="46.52037" lon="0.27545">
        <ele>124.19999694824</ele>
        <time>2019-05-12T11:17:46.000Z</time>
      </trkpt>
      <trkpt lat="46.52063" lon="0.27554">
        <ele>124.59999847412</ele>
        <time>2019-05-12T11:17:52.000Z</time>
      </trkpt>
      <trkpt lat="46.52094" lon="0.27567">
        <ele>124</ele>
        <time>2019-05-12T11:17:59.000Z</time>
      </trkpt>
      <trkpt lat="46.52128" lon="0.27583">
        <ele>123.80000305176</ele>
        <time>2019-05-12T11:18:06.000Z</time>
      </trkpt>
      <trkpt lat="46.52153" lon="0.27597">
        <ele>123.40000152588</ele>
        <time>2019-05-12T11:18:12.000Z</time>
      </trkpt>
      <trkpt lat="46.52157" lon="0.27599">
        <ele>123.59999847412</ele>
        <time>2019-05-12T11:18:13.000Z</time>
      </trkpt>
      <trkpt lat="46.52172" lon="0.27614">
        <ele>123.40000152588</ele>
        <time>2019-05-12T11:18:17.000Z</time>
      </trkpt>
      <trkpt lat="46.52184" lon="0.27624">
        <ele>123.59999847412</ele>
        <time>2019-05-12T11:18:20.000Z</time>
      </trkpt>
      <trkpt lat="46.52197" lon="0.27633">
        <ele>124</ele>
        <time>2019-05-12T11:18:23.000Z</time>
      </trkpt>
      <trkpt lat="46.52201" lon="0.27636">
        <ele>123.80000305176</ele>
        <time>2019-05-12T11:18:24.000Z</time>
      </trkpt>
      <trkpt lat="46.52219" lon="0.27646">
        <ele>124.59999847412</ele>
        <time>2019-05-12T11:18:28.000Z</time>
      </trkpt>
      <trkpt lat="46.52233" lon="0.27653">
        <ele>124.80000305176</ele>
        <time>2019-05-12T11:18:31.000Z</time>
      </trkpt>
      <trkpt lat="46.5225" lon="0.27663">
        <ele>125.40000152588</ele>
        <time>2019-05-12T11:18:35.000Z</time>
      </trkpt>
      <trkpt lat="46.52269" lon="0.27678">
        <ele>125.59999847412</ele>
        <time>2019-05-12T11:18:40.000Z</time>
      </trkpt>
      <trkpt lat="46.52276" lon="0.27684">
        <ele>125.59999847412</ele>
        <time>2019-05-12T11:18:42.000Z</time>
      </trkpt>
      <trkpt lat="46.52287" lon="0.27691">
        <ele>125.80000305176</ele>
        <time>2019-05-12T11:18:45.000Z</time>
      </trkpt>
      <trkpt lat="46.52294" lon="0.27694">
        <ele>126.19999694824</ele>
        <time>2019-05-12T11:18:47.000Z</time>
      </trkpt>
      <trkpt lat="46.52309" lon="0.27697">
        <ele>126.80000305176</ele>
        <time>2019-05-12T11:18:51.000Z</time>
      </trkpt>
      <trkpt lat="46.52315" lon="0.27699">
        <ele>126.80000305176</ele>
        <time>2019-05-12T11:18:53.000Z</time>
      </trkpt>
      <trkpt lat="46.52326" lon="0.27701">
        <ele>127.80000305176</ele>
        <time>2019-05-12T11:18:56.000Z</time>
      </trkpt>
      <trkpt lat="46.52336" lon="0.27703">
        <ele>128.60000610352</ele>
        <time>2019-05-12T11:18:59.000Z</time>
      </trkpt>
      <trkpt lat="46.52339" lon="0.27704">
        <ele>129</ele>
        <time>2019-05-12T11:19:00.000Z</time>
      </trkpt>
      <trkpt lat="46.52349" lon="0.27711">
        <ele>130.39999389648</ele>
        <time>2019-05-12T11:19:04.000Z</time>
      </trkpt>
      <trkpt lat="46.52359" lon="0.27721">
        <ele>131.19999694824</ele>
        <time>2019-05-12T11:19:08.000Z</time>
      </trkpt>
      <trkpt lat="46.52361" lon="0.27723">
        <ele>131.39999389648</ele>
        <time>2019-05-12T11:19:09.000Z</time>
      </trkpt>
      <trkpt lat="46.52375" lon="0.27735">
        <ele>132</ele>
        <time>2019-05-12T11:19:14.000Z</time>
      </trkpt>
      <trkpt lat="46.52381" lon="0.27741">
        <ele>132.39999389648</ele>
        <time>2019-05-12T11:19:16.000Z</time>
      </trkpt>
      <trkpt lat="46.52389" lon="0.27753">
        <ele>133.19999694824</ele>
        <time>2019-05-12T11:19:20.000Z</time>
      </trkpt>
      <trkpt lat="46.52397" lon="0.27762">
        <ele>133.39999389648</ele>
        <time>2019-05-12T11:19:23.000Z</time>
      </trkpt>
      <trkpt lat="46.52404" lon="0.27772">
        <ele>134</ele>
        <time>2019-05-12T11:19:26.000Z</time>
      </trkpt>
      <trkpt lat="46.52415" lon="0.27785">
        <ele>134.19999694824</ele>
        <time>2019-05-12T11:19:31.000Z</time>
      </trkpt>
      <trkpt lat="46.52417" lon="0.27787">
        <ele>134.39999389648</ele>
        <time>2019-05-12T11:19:32.000Z</time>
      </trkpt>
      <trkpt lat="46.52426" lon="0.27799">
        <ele>135</ele>
        <time>2019-05-12T11:19:37.000Z</time>
      </trkpt>
      <trkpt lat="46.52433" lon="0.27806">
        <ele>135.39999389648</ele>
        <time>2019-05-12T11:19:40.000Z</time>
      </trkpt>
      <trkpt lat="46.52439" lon="0.27815">
        <ele>135.80000305176</ele>
        <time>2019-05-12T11:19:43.000Z</time>
      </trkpt>
      <trkpt lat="46.52453" lon="0.27834">
        <ele>136.39999389648</ele>
        <time>2019-05-12T11:19:49.000Z</time>
      </trkpt>
      <trkpt lat="46.52462" lon="0.2785">
        <ele>137</ele>
        <time>2019-05-12T11:19:54.000Z</time>
      </trkpt>
      <trkpt lat="46.52473" lon="0.27865">
        <ele>137.60000610352</ele>
        <time>2019-05-12T11:19:59.000Z</time>
      </trkpt>
      <trkpt lat="46.52474" lon="0.27868">
        <ele>137.80000305176</ele>
        <time>2019-05-12T11:20:00.000Z</time>
      </trkpt>
      <trkpt lat="46.52486" lon="0.27886">
        <ele>138.60000610352</ele>
        <time>2019-05-12T11:20:06.000Z</time>
      </trkpt>
      <trkpt lat="46.52488" lon="0.27889">
        <ele>138.60000610352</ele>
        <time>2019-05-12T11:20:07.000Z</time>
      </trkpt>
      <trkpt lat="46.52498" lon="0.27904">
        <ele>138.60000610352</ele>
        <time>2019-05-12T11:20:12.000Z</time>
      </trkpt>
      <trkpt lat="46.52511" lon="0.27923">
        <ele>138.60000610352</ele>
        <time>2019-05-12T11:20:18.000Z</time>
      </trkpt>
      <trkpt lat="46.52522" lon="0.27939">
        <ele>139</ele>
        <time>2019-05-12T11:20:23.000Z</time>
      </trkpt>
      <trkpt lat="46.52536" lon="0.27959">
        <ele>139.19999694824</ele>
        <time>2019-05-12T11:20:29.000Z</time>
      </trkpt>
      <trkpt lat="46.52545" lon="0.27972">
        <ele>139.39999389648</ele>
        <time>2019-05-12T11:20:33.000Z</time>
      </trkpt>
      <trkpt lat="46.52558" lon="0.27992">
        <ele>139</ele>
        <time>2019-05-12T11:20:39.000Z</time>
      </trkpt>
      <trkpt lat="46.52561" lon="0.27996">
        <ele>139.19999694824</ele>
        <time>2019-05-12T11:20:40.000Z</time>
      </trkpt>
      <trkpt lat="46.52563" lon="0.28">
        <ele>139.39999389648</ele>
        <time>2019-05-12T11:20:41.000Z</time>
      </trkpt>
      <trkpt lat="46.5257" lon="0.28019">
        <ele>139.19999694824</ele>
        <time>2019-05-12T11:20:45.000Z</time>
      </trkpt>
      <trkpt lat="46.52574" lon="0.28036">
        <ele>138.39999389648</ele>
        <time>2019-05-12T11:20:49.000Z</time>
      </trkpt>
      <trkpt lat="46.52575" lon="0.2804">
        <ele>138.19999694824</ele>
        <time>2019-05-12T11:20:50.000Z</time>
      </trkpt>
      <trkpt lat="46.52578" lon="0.28049">
        <ele>138.19999694824</ele>
        <time>2019-05-12T11:20:52.000Z</time>
      </trkpt>
      <trkpt lat="46.5258" lon="0.28052">
        <ele>138.39999389648</ele>
        <time>2019-05-12T11:20:53.000Z</time>
      </trkpt>
      <trkpt lat="46.52583" lon="0.28053">
        <ele>138.39999389648</ele>
        <time>2019-05-12T11:20:54.000Z</time>
      </trkpt>
      <trkpt lat="46.52592" lon="0.28046">
        <ele>138.39999389648</ele>
        <time>2019-05-12T11:20:58.000Z</time>
      </trkpt>
      <trkpt lat="46.52596" lon="0.28042">
        <ele>138.39999389648</ele>
        <time>2019-05-12T11:21:00.000Z</time>
      </trkpt>
      <trkpt lat="46.52604" lon="0.28034">
        <ele>139</ele>
        <time>2019-05-12T11:21:04.000Z</time>
      </trkpt>
      <trkpt lat="46.52621" lon="0.2802">
        <ele>139.19999694824</ele>
        <time>2019-05-12T11:21:11.000Z</time>
      </trkpt>
      <trkpt lat="46.52644" lon="0.28011">
        <ele>139</ele>
        <time>2019-05-12T11:21:19.000Z</time>
      </trkpt>
      <trkpt lat="46.5266" lon="0.28004">
        <ele>139.39999389648</ele>
        <time>2019-05-12T11:21:25.000Z</time>
      </trkpt>
      <trkpt lat="46.52674" lon="0.27987">
        <ele>140</ele>
        <time>2019-05-12T11:21:31.000Z</time>
      </trkpt>
      <trkpt lat="46.52678" lon="0.27966">
        <ele>140</ele>
        <time>2019-05-12T11:21:36.000Z</time>
      </trkpt>
      <trkpt lat="46.52679" lon="0.27948">
        <ele>140.19999694824</ele>
        <time>2019-05-12T11:21:40.000Z</time>
      </trkpt>
      <trkpt lat="46.5268" lon="0.27931">
        <ele>140.39999389648</ele>
        <time>2019-05-12T11:21:44.000Z</time>
      </trkpt>
      <trkpt lat="46.52682" lon="0.27909">
        <ele>140.80000305176</ele>
        <time>2019-05-12T11:21:49.000Z</time>
      </trkpt>
      <trkpt lat="46.52687" lon="0.2789">
        <ele>141</ele>
        <time>2019-05-12T11:21:54.000Z</time>
      </trkpt>
      <trkpt lat="46.5269" lon="0.27883">
        <ele>141.39999389648</ele>
        <time>2019-05-12T11:21:56.000Z</time>
      </trkpt>
      <trkpt lat="46.52696" lon="0.27871">
        <ele>141.60000610352</ele>
        <time>2019-05-12T11:21:59.000Z</time>
      </trkpt>
      <trkpt lat="46.52703" lon="0.27849">
        <ele>142.39999389648</ele>
        <time>2019-05-12T11:22:04.000Z</time>
      </trkpt>
      <trkpt lat="46.52703" lon="0.27844">
        <ele>142.39999389648</ele>
        <time>2019-05-12T11:22:05.000Z</time>
      </trkpt>
      <trkpt lat="46.5271" lon="0.27812">
        <ele>142.80000305176</ele>
        <time>2019-05-12T11:22:11.000Z</time>
      </trkpt>
      <trkpt lat="46.52723" lon="0.27804">
        <ele>142.80000305176</ele>
        <time>2019-05-12T11:22:15.000Z</time>
      </trkpt>
      <trkpt lat="46.52738" lon="0.27805">
        <ele>143</ele>
        <time>2019-05-12T11:22:19.000Z</time>
      </trkpt>
      <trkpt lat="46.52758" lon="0.27795">
        <ele>143.19999694824</ele>
        <time>2019-05-12T11:22:24.000Z</time>
      </trkpt>
      <trkpt lat="46.52772" lon="0.27769">
        <ele>143</ele>
        <time>2019-05-12T11:22:29.000Z</time>
      </trkpt>
      <trkpt lat="46.52774" lon="0.2775">
        <ele>143</ele>
        <time>2019-05-12T11:22:32.000Z</time>
      </trkpt>
      <trkpt lat="46.52775" lon="0.27744">
        <ele>143</ele>
        <time>2019-05-12T11:22:33.000Z</time>
      </trkpt>
      <trkpt lat="46.52776" lon="0.27737">
        <ele>143</ele>
        <time>2019-05-12T11:22:34.000Z</time>
      </trkpt>
      <trkpt lat="46.52788" lon="0.27717">
        <ele>143.19999694824</ele>
        <time>2019-05-12T11:22:38.000Z</time>
      </trkpt>
      <trkpt lat="46.52818" lon="0.27681">
        <ele>143</ele>
        <time>2019-05-12T11:22:47.000Z</time>
      </trkpt>
      <trkpt lat="46.52849" lon="0.27645">
        <ele>143.19999694824</ele>
        <time>2019-05-12T11:22:56.000Z</time>
      </trkpt>
      <trkpt lat="46.52852" lon="0.27642">
        <ele>143.19999694824</ele>
        <time>2019-05-12T11:22:57.000Z</time>
      </trkpt>
      <trkpt lat="46.52869" lon="0.27637">
        <ele>143.39999389648</ele>
        <time>2019-05-12T11:23:01.000Z</time>
      </trkpt>
      <trkpt lat="46.52885" lon="0.27651">
        <ele>143.80000305176</ele>
        <time>2019-05-12T11:23:05.000Z</time>
      </trkpt>
      <trkpt lat="46.52914" lon="0.27688">
        <ele>143.60000610352</ele>
        <time>2019-05-12T11:23:13.000Z</time>
      </trkpt>
      <trkpt lat="46.52943" lon="0.27724">
        <ele>143.39999389648</ele>
        <time>2019-05-12T11:23:21.000Z</time>
      </trkpt>
      <trkpt lat="46.52974" lon="0.27761">
        <ele>142.60000610352</ele>
        <time>2019-05-12T11:23:29.000Z</time>
      </trkpt>
      <trkpt lat="46.53005" lon="0.27797">
        <ele>142</ele>
        <time>2019-05-12T11:23:37.000Z</time>
      </trkpt>
      <trkpt lat="46.53009" lon="0.27802">
        <ele>142</ele>
        <time>2019-05-12T11:23:38.000Z</time>
      </trkpt>
      <trkpt lat="46.53013" lon="0.27806">
        <ele>141.80000305176</ele>
        <time>2019-05-12T11:23:39.000Z</time>
      </trkpt>
      <trkpt lat="46.53036" lon="0.27833">
        <ele>141.19999694824</ele>
        <time>2019-05-12T11:23:45.000Z</time>
      </trkpt>
      <trkpt lat="46.53041" lon="0.27834">
        <ele>141</ele>
        <time>2019-05-12T11:23:46.000Z</time>
      </trkpt>
      <trkpt lat="46.53046" lon="0.27833">
        <ele>140.60000610352</ele>
        <time>2019-05-12T11:23:47.000Z</time>
      </trkpt>
      <trkpt lat="46.53055" lon="0.27827">
        <ele>140</ele>
        <time>2019-05-12T11:23:49.000Z</time>
      </trkpt>
      <trkpt lat="46.53059" lon="0.27823">
        <ele>139.80000305176</ele>
        <time>2019-05-12T11:23:50.000Z</time>
      </trkpt>
      <trkpt lat="46.53064" lon="0.2782">
        <ele>139.60000610352</ele>
        <time>2019-05-12T11:23:51.000Z</time>
      </trkpt>
      <trkpt lat="46.53105" lon="0.27785">
        <ele>138.39999389648</ele>
        <time>2019-05-12T11:24:00.000Z</time>
      </trkpt>
      <trkpt lat="46.53109" lon="0.27781">
        <ele>138.19999694824</ele>
        <time>2019-05-12T11:24:01.000Z</time>
      </trkpt>
      <trkpt lat="46.53148" lon="0.27747">
        <ele>137.19999694824</ele>
        <time>2019-05-12T11:24:09.000Z</time>
      </trkpt>
      <trkpt lat="46.53153" lon="0.27743">
        <ele>137.19999694824</ele>
        <time>2019-05-12T11:24:10.000Z</time>
      </trkpt>
      <trkpt lat="46.53183" lon="0.27718">
        <ele>136.60000610352</ele>
        <time>2019-05-12T11:24:16.000Z</time>
      </trkpt>
      <trkpt lat="46.53198" lon="0.27705">
        <ele>136.19999694824</ele>
        <time>2019-05-12T11:24:19.000Z</time>
      </trkpt>
      <trkpt lat="46.53227" lon="0.2768">
        <ele>135.60000610352</ele>
        <time>2019-05-12T11:24:25.000Z</time>
      </trkpt>
      <trkpt lat="46.53246" lon="0.27666">
        <ele>135.19999694824</ele>
        <time>2019-05-12T11:24:29.000Z</time>
      </trkpt>
      <trkpt lat="46.53251" lon="0.27664">
        <ele>135</ele>
        <time>2019-05-12T11:24:30.000Z</time>
      </trkpt>
      <trkpt lat="46.53256" lon="0.27662">
        <ele>135</ele>
        <time>2019-05-12T11:24:31.000Z</time>
      </trkpt>
      <trkpt lat="46.53278" lon="0.27663">
        <ele>133.60000610352</ele>
        <time>2019-05-12T11:24:35.000Z</time>
      </trkpt>
      <trkpt lat="46.53282" lon="0.27662">
        <ele>133.19999694824</ele>
        <time>2019-05-12T11:24:36.000Z</time>
      </trkpt>
      <trkpt lat="46.53287" lon="0.27657">
        <ele>132.39999389648</ele>
        <time>2019-05-12T11:24:38.000Z</time>
      </trkpt>
      <trkpt lat="46.53289" lon="0.27653">
        <ele>132.19999694824</ele>
        <time>2019-05-12T11:24:39.000Z</time>
      </trkpt>
      <trkpt lat="46.53287" lon="0.27637">
        <ele>131.39999389648</ele>
        <time>2019-05-12T11:24:42.000Z</time>
      </trkpt>
      <trkpt lat="46.53278" lon="0.27617">
        <ele>131.19999694824</ele>
        <time>2019-05-12T11:24:46.000Z</time>
      </trkpt>
      <trkpt lat="46.53271" lon="0.27608">
        <ele>131.19999694824</ele>
        <time>2019-05-12T11:24:48.000Z</time>
      </trkpt>
      <trkpt lat="46.53267" lon="0.27603">
        <ele>131.19999694824</ele>
        <time>2019-05-12T11:24:49.000Z</time>
      </trkpt>
      <trkpt lat="46.53263" lon="0.27598">
        <ele>131</ele>
        <time>2019-05-12T11:24:50.000Z</time>
      </trkpt>
      <trkpt lat="46.53253" lon="0.27583">
        <ele>131.19999694824</ele>
        <time>2019-05-12T11:24:53.000Z</time>
      </trkpt>
      <trkpt lat="46.53247" lon="0.27574">
        <ele>131.39999389648</ele>
        <time>2019-05-12T11:24:55.000Z</time>
      </trkpt>
      <trkpt lat="46.53235" lon="0.27552">
        <ele>131.39999389648</ele>
        <time>2019-05-12T11:24:59.000Z</time>
      </trkpt>
      <trkpt lat="46.53231" lon="0.27546">
        <ele>131.19999694824</ele>
        <time>2019-05-12T11:25:00.000Z</time>
      </trkpt>
      <trkpt lat="46.53225" lon="0.27535">
        <ele>131.19999694824</ele>
        <time>2019-05-12T11:25:02.000Z</time>
      </trkpt>
      <trkpt lat="46.53214" lon="0.2752">
        <ele>131.60000610352</ele>
        <time>2019-05-12T11:25:05.000Z</time>
      </trkpt>
      <trkpt lat="46.53207" lon="0.27509">
        <ele>131.39999389648</ele>
        <time>2019-05-12T11:25:07.000Z</time>
      </trkpt>
      <trkpt lat="46.532" lon="0.27498">
        <ele>131.80000305176</ele>
        <time>2019-05-12T11:25:09.000Z</time>
      </trkpt>
      <trkpt lat="46.53196" lon="0.27494">
        <ele>132</ele>
        <time>2019-05-12T11:25:10.000Z</time>
      </trkpt>
      <trkpt lat="46.53189" lon="0.27484">
        <ele>132.19999694824</ele>
        <time>2019-05-12T11:25:12.000Z</time>
      </trkpt>
      <trkpt lat="46.53179" lon="0.27468">
        <ele>132.19999694824</ele>
        <time>2019-05-12T11:25:15.000Z</time>
      </trkpt>
      <trkpt lat="46.53161" lon="0.27446">
        <ele>132.19999694824</ele>
        <time>2019-05-12T11:25:20.000Z</time>
      </trkpt>
      <trkpt lat="46.53146" lon="0.27424">
        <ele>132.60000610352</ele>
        <time>2019-05-12T11:25:24.000Z</time>
      </trkpt>
      <trkpt lat="46.53142" lon="0.2742">
        <ele>132.80000305176</ele>
        <time>2019-05-12T11:25:25.000Z</time>
      </trkpt>
      <trkpt lat="46.53123" lon="0.27394">
        <ele>133.60000610352</ele>
        <time>2019-05-12T11:25:30.000Z</time>
      </trkpt>
      <trkpt lat="46.531" lon="0.27368">
        <ele>133</ele>
        <time>2019-05-12T11:25:36.000Z</time>
      </trkpt>
      <trkpt lat="46.5308" lon="0.27347">
        <ele>133.80000305176</ele>
        <time>2019-05-12T11:25:41.000Z</time>
      </trkpt>
      <trkpt lat="46.53066" lon="0.2733">
        <ele>133.60000610352</ele>
        <time>2019-05-12T11:25:45.000Z</time>
      </trkpt>
      <trkpt lat="46.53062" lon="0.27326">
        <ele>133.19999694824</ele>
        <time>2019-05-12T11:25:46.000Z</time>
      </trkpt>
      <trkpt lat="46.5305" lon="0.2731">
        <ele>132.60000610352</ele>
        <time>2019-05-12T11:25:49.000Z</time>
      </trkpt>
      <trkpt lat="46.53041" lon="0.27299">
        <ele>132.60000610352</ele>
        <time>2019-05-12T11:25:51.000Z</time>
      </trkpt>
      <trkpt lat="46.53023" lon="0.27279">
        <ele>132</ele>
        <time>2019-05-12T11:25:55.000Z</time>
      </trkpt>
      <trkpt lat="46.53014" lon="0.27269">
        <ele>131.39999389648</ele>
        <time>2019-05-12T11:25:57.000Z</time>
      </trkpt>
      <trkpt lat="46.5301" lon="0.27265">
        <ele>131.19999694824</ele>
        <time>2019-05-12T11:25:58.000Z</time>
      </trkpt>
      <trkpt lat="46.53005" lon="0.27261">
        <ele>130.80000305176</ele>
        <time>2019-05-12T11:25:59.000Z</time>
      </trkpt>
      <trkpt lat="46.52992" lon="0.27246">
        <ele>130.19999694824</ele>
        <time>2019-05-12T11:26:02.000Z</time>
      </trkpt>
      <trkpt lat="46.52973" lon="0.27222">
        <ele>129.80000305176</ele>
        <time>2019-05-12T11:26:07.000Z</time>
      </trkpt>
      <trkpt lat="46.52963" lon="0.27199">
        <ele>129</ele>
        <time>2019-05-12T11:26:10.000Z</time>
      </trkpt>
      <trkpt lat="46.5296" lon="0.27189">
        <ele>128.60000610352</ele>
        <time>2019-05-12T11:26:11.000Z</time>
      </trkpt>
      <trkpt lat="46.52955" lon="0.27169">
        <ele>127.19999694824</ele>
        <time>2019-05-12T11:26:13.000Z</time>
      </trkpt>
      <trkpt lat="46.52949" lon="0.27148">
        <ele>126</ele>
        <time>2019-05-12T11:26:15.000Z</time>
      </trkpt>
      <trkpt lat="46.52946" lon="0.27138">
        <ele>125.59999847412</ele>
        <time>2019-05-12T11:26:16.000Z</time>
      </trkpt>
      <trkpt lat="46.52939" lon="0.27118">
        <ele>124.59999847412</ele>
        <time>2019-05-12T11:26:18.000Z</time>
      </trkpt>
      <trkpt lat="46.52935" lon="0.27109">
        <ele>124.40000152588</ele>
        <time>2019-05-12T11:26:19.000Z</time>
      </trkpt>
      <trkpt lat="46.5293" lon="0.27101">
        <ele>123.80000305176</ele>
        <time>2019-05-12T11:26:20.000Z</time>
      </trkpt>
      <trkpt lat="46.52925" lon="0.27092">
        <ele>123.19999694824</ele>
        <time>2019-05-12T11:26:21.000Z</time>
      </trkpt>
      <trkpt lat="46.52916" lon="0.27075">
        <ele>122.59999847412</ele>
        <time>2019-05-12T11:26:23.000Z</time>
      </trkpt>
      <trkpt lat="46.52912" lon="0.27067">
        <ele>122.59999847412</ele>
        <time>2019-05-12T11:26:24.000Z</time>
      </trkpt>
      <trkpt lat="46.52903" lon="0.27052">
        <ele>122.19999694824</ele>
        <time>2019-05-12T11:26:26.000Z</time>
      </trkpt>
      <trkpt lat="46.52896" lon="0.2704">
        <ele>122</ele>
        <time>2019-05-12T11:26:28.000Z</time>
      </trkpt>
      <trkpt lat="46.52884" lon="0.27021">
        <ele>121</ele>
        <time>2019-05-12T11:26:31.000Z</time>
      </trkpt>
      <trkpt lat="46.52871" lon="0.27004">
        <ele>121.40000152588</ele>
        <time>2019-05-12T11:26:34.000Z</time>
      </trkpt>
      <trkpt lat="46.52849" lon="0.26975">
        <ele>121.19999694824</ele>
        <time>2019-05-12T11:26:40.000Z</time>
      </trkpt>
      <trkpt lat="46.52842" lon="0.26965">
        <ele>121.19999694824</ele>
        <time>2019-05-12T11:26:42.000Z</time>
      </trkpt>
      <trkpt lat="46.52831" lon="0.26949">
        <ele>121.40000152588</ele>
        <time>2019-05-12T11:26:45.000Z</time>
      </trkpt>
      <trkpt lat="46.52824" lon="0.2694">
        <ele>121.40000152588</ele>
        <time>2019-05-12T11:26:47.000Z</time>
      </trkpt>
      <trkpt lat="46.52813" lon="0.26927">
        <ele>121.19999694824</ele>
        <time>2019-05-12T11:26:50.000Z</time>
      </trkpt>
      <trkpt lat="46.52809" lon="0.26923">
        <ele>121.19999694824</ele>
        <time>2019-05-12T11:26:51.000Z</time>
      </trkpt>
      <trkpt lat="46.52799" lon="0.26911">
        <ele>121.59999847412</ele>
        <time>2019-05-12T11:26:54.000Z</time>
      </trkpt>
      <trkpt lat="46.52783" lon="0.26898">
        <ele>122</ele>
        <time>2019-05-12T11:26:58.000Z</time>
      </trkpt>
      <trkpt lat="46.52774" lon="0.26893">
        <ele>122.19999694824</ele>
        <time>2019-05-12T11:27:00.000Z</time>
      </trkpt>
      <trkpt lat="46.5276" lon="0.26887">
        <ele>122.40000152588</ele>
        <time>2019-05-12T11:27:03.000Z</time>
      </trkpt>
      <trkpt lat="46.52756" lon="0.26884">
        <ele>122.40000152588</ele>
        <time>2019-05-12T11:27:04.000Z</time>
      </trkpt>
      <trkpt lat="46.52748" lon="0.26879">
        <ele>122.59999847412</ele>
        <time>2019-05-12T11:27:06.000Z</time>
      </trkpt>
      <trkpt lat="46.52732" lon="0.26864">
        <ele>122.19999694824</ele>
        <time>2019-05-12T11:27:10.000Z</time>
      </trkpt>
      <trkpt lat="46.52721" lon="0.2685">
        <ele>121.80000305176</ele>
        <time>2019-05-12T11:27:13.000Z</time>
      </trkpt>
      <trkpt lat="46.52714" lon="0.26842">
        <ele>121.80000305176</ele>
        <time>2019-05-12T11:27:15.000Z</time>
      </trkpt>
      <trkpt lat="46.52708" lon="0.26832">
        <ele>121.40000152588</ele>
        <time>2019-05-12T11:27:17.000Z</time>
      </trkpt>
      <trkpt lat="46.52704" lon="0.26826">
        <ele>121.19999694824</ele>
        <time>2019-05-12T11:27:18.000Z</time>
      </trkpt>
      <trkpt lat="46.527" lon="0.2682">
        <ele>120.80000305176</ele>
        <time>2019-05-12T11:27:19.000Z</time>
      </trkpt>
      <trkpt lat="46.52694" lon="0.26807">
        <ele>120</ele>
        <time>2019-05-12T11:27:21.000Z</time>
      </trkpt>
      <trkpt lat="46.52687" lon="0.2679">
        <ele>119.19999694824</ele>
        <time>2019-05-12T11:27:23.000Z</time>
      </trkpt>
      <trkpt lat="46.52683" lon="0.2678">
        <ele>118.40000152588</ele>
        <time>2019-05-12T11:27:24.000Z</time>
      </trkpt>
      <trkpt lat="46.52679" lon="0.26769">
        <ele>117.40000152588</ele>
        <time>2019-05-12T11:27:25.000Z</time>
      </trkpt>
      <trkpt lat="46.52676" lon="0.26757">
        <ele>116</ele>
        <time>2019-05-12T11:27:26.000Z</time>
      </trkpt>
      <trkpt lat="46.52674" lon="0.26732">
        <ele>114.19999694824</ele>
        <time>2019-05-12T11:27:28.000Z</time>
      </trkpt>
      <trkpt lat="46.52674" lon="0.26708">
        <ele>113</ele>
        <time>2019-05-12T11:27:30.000Z</time>
      </trkpt>
      <trkpt lat="46.52674" lon="0.26698">
        <ele>112.59999847412</ele>
        <time>2019-05-12T11:27:31.000Z</time>
      </trkpt>
      <trkpt lat="46.52676" lon="0.26687">
        <ele>111.80000305176</ele>
        <time>2019-05-12T11:27:32.000Z</time>
      </trkpt>
      <trkpt lat="46.52679" lon="0.26676">
        <ele>110.59999847412</ele>
        <time>2019-05-12T11:27:33.000Z</time>
      </trkpt>
      <trkpt lat="46.52687" lon="0.26641">
        <ele>109.40000152588</ele>
        <time>2019-05-12T11:27:37.000Z</time>
      </trkpt>
      <trkpt lat="46.52691" lon="0.26626">
        <ele>109</ele>
        <time>2019-05-12T11:27:39.000Z</time>
      </trkpt>
      <trkpt lat="46.52696" lon="0.26613">
        <ele>109</ele>
        <time>2019-05-12T11:27:41.000Z</time>
      </trkpt>
      <trkpt lat="46.527" lon="0.26603">
        <ele>108.80000305176</ele>
        <time>2019-05-12T11:27:43.000Z</time>
      </trkpt>
      <trkpt lat="46.52702" lon="0.26598">
        <ele>108.80000305176</ele>
        <time>2019-05-12T11:27:44.000Z</time>
      </trkpt>
      <trkpt lat="46.52706" lon="0.2659">
        <ele>108.59999847412</ele>
        <time>2019-05-12T11:27:48.000Z</time>
      </trkpt>
    </trkseg>
  </trk>
</gpx>